<?xml version="1.0" encoding="UTF-8" standalone="no" ?>
<gpx xmlns="http://www.topografix.com/GPX/1/1" xmlns:xsi="http://www.w3.org/2001/XMLSchema-instance" xsi:schemaLocation="http://www.topografix.com/GPX/1/1 http://www.topografix.com/GPX/1/1/gpx.xsd" version="1.1" creator="VisuGPX - https://www.visugpx.com">
  <metadata>
    <name>Hourquettes de Aiguillettes</name>
    <desc><![CDATA[Ski de randonnée à la Hourquette des Aiguillettes.]]></desc>
  </metadata>
  <trk>
    <name><![CDATA[Hourquette des aiguillettes]]></name>
    <trkseg>
      <trkpt lat="42.74729" lon="0.18961">
        <ele>1866</ele>
        <time>2019-02-27T08:49:47Z</time>
      </trkpt>
      <trkpt lat="42.74729" lon="0.18961">
        <ele>1866</ele>
        <time>2019-02-27T08:49:48Z</time>
      </trkpt>
      <trkpt lat="42.74729" lon="0.18961">
        <ele>1865</ele>
        <time>2019-02-27T08:49:49Z</time>
      </trkpt>
      <trkpt lat="42.74729" lon="0.18961">
        <ele>1866</ele>
        <time>2019-02-27T08:49:50Z</time>
      </trkpt>
      <trkpt lat="42.74729" lon="0.18961">
        <ele>1866</ele>
        <time>2019-02-27T08:49:51Z</time>
      </trkpt>
      <trkpt lat="42.74729" lon="0.18961">
        <ele>1866</ele>
        <time>2019-02-27T08:49:52Z</time>
      </trkpt>
      <trkpt lat="42.74729" lon="0.18961">
        <ele>1865</ele>
        <time>2019-02-27T08:49:53Z</time>
      </trkpt>
      <trkpt lat="42.74729" lon="0.18961">
        <ele>1865</ele>
        <time>2019-02-27T08:49:54Z</time>
      </trkpt>
      <trkpt lat="42.74729" lon="0.18961">
        <ele>1865</ele>
        <time>2019-02-27T08:49:55Z</time>
      </trkpt>
      <trkpt lat="42.74729" lon="0.18961">
        <ele>1865</ele>
        <time>2019-02-27T08:49:56Z</time>
      </trkpt>
      <trkpt lat="42.74729" lon="0.18961">
        <ele>1865</ele>
        <time>2019-02-27T08:49:57Z</time>
      </trkpt>
      <trkpt lat="42.74729" lon="0.18961">
        <ele>1865</ele>
        <time>2019-02-27T08:49:58Z</time>
      </trkpt>
      <trkpt lat="42.74729" lon="0.18961">
        <ele>1865</ele>
        <time>2019-02-27T08:49:59Z</time>
      </trkpt>
      <trkpt lat="42.74729" lon="0.18961">
        <ele>1865</ele>
        <time>2019-02-27T08:50:00Z</time>
      </trkpt>
      <trkpt lat="42.74729" lon="0.18961">
        <ele>1865</ele>
        <time>2019-02-27T08:50:01Z</time>
      </trkpt>
      <trkpt lat="42.74729" lon="0.18961">
        <ele>1865</ele>
        <time>2019-02-27T08:50:02Z</time>
      </trkpt>
      <trkpt lat="42.74729" lon="0.18961">
        <ele>1864</ele>
        <time>2019-02-27T08:50:03Z</time>
      </trkpt>
      <trkpt lat="42.74729" lon="0.18961">
        <ele>1865</ele>
        <time>2019-02-27T08:50:04Z</time>
      </trkpt>
      <trkpt lat="42.74729" lon="0.18961">
        <ele>1865</ele>
        <time>2019-02-27T08:50:05Z</time>
      </trkpt>
      <trkpt lat="42.74729" lon="0.18961">
        <ele>1865</ele>
        <time>2019-02-27T08:50:06Z</time>
      </trkpt>
      <trkpt lat="42.74729" lon="0.18961">
        <ele>1865</ele>
        <time>2019-02-27T08:50:07Z</time>
      </trkpt>
      <trkpt lat="42.74729" lon="0.18961">
        <ele>1865</ele>
        <time>2019-02-27T08:50:08Z</time>
      </trkpt>
      <trkpt lat="42.74732" lon="0.18958">
        <ele>1865</ele>
        <time>2019-02-27T08:50:09Z</time>
      </trkpt>
      <trkpt lat="42.74732" lon="0.18958">
        <ele>1865</ele>
        <time>2019-02-27T08:50:10Z</time>
      </trkpt>
      <trkpt lat="42.74732" lon="0.18958">
        <ele>1865</ele>
        <time>2019-02-27T08:50:11Z</time>
      </trkpt>
      <trkpt lat="42.74732" lon="0.18958">
        <ele>1865</ele>
        <time>2019-02-27T08:50:12Z</time>
      </trkpt>
      <trkpt lat="42.74732" lon="0.18958">
        <ele>1865</ele>
        <time>2019-02-27T08:50:13Z</time>
      </trkpt>
      <trkpt lat="42.74732" lon="0.18958">
        <ele>1865</ele>
        <time>2019-02-27T08:50:14Z</time>
      </trkpt>
      <trkpt lat="42.74732" lon="0.18958">
        <ele>1865</ele>
        <time>2019-02-27T08:50:15Z</time>
      </trkpt>
      <trkpt lat="42.74732" lon="0.18958">
        <ele>1865</ele>
        <time>2019-02-27T08:50:16Z</time>
      </trkpt>
      <trkpt lat="42.74732" lon="0.18958">
        <ele>1865</ele>
        <time>2019-02-27T08:50:17Z</time>
      </trkpt>
      <trkpt lat="42.74732" lon="0.18958">
        <ele>1865</ele>
        <time>2019-02-27T08:50:18Z</time>
      </trkpt>
      <trkpt lat="42.74732" lon="0.18958">
        <ele>1865</ele>
        <time>2019-02-27T08:50:19Z</time>
      </trkpt>
      <trkpt lat="42.74732" lon="0.18958">
        <ele>1865</ele>
        <time>2019-02-27T08:50:20Z</time>
      </trkpt>
      <trkpt lat="42.74732" lon="0.18958">
        <ele>1865</ele>
        <time>2019-02-27T08:50:21Z</time>
      </trkpt>
      <trkpt lat="42.74732" lon="0.18958">
        <ele>1865</ele>
        <time>2019-02-27T08:50:22Z</time>
      </trkpt>
      <trkpt lat="42.74732" lon="0.18958">
        <ele>1865</ele>
        <time>2019-02-27T08:50:23Z</time>
      </trkpt>
      <trkpt lat="42.74732" lon="0.18958">
        <ele>1865</ele>
        <time>2019-02-27T08:50:24Z</time>
      </trkpt>
      <trkpt lat="42.74732" lon="0.18958">
        <ele>1865</ele>
        <time>2019-02-27T08:50:25Z</time>
      </trkpt>
      <trkpt lat="42.74732" lon="0.18958">
        <ele>1865</ele>
        <time>2019-02-27T08:50:26Z</time>
      </trkpt>
      <trkpt lat="42.74732" lon="0.18958">
        <ele>1865</ele>
        <time>2019-02-27T08:50:27Z</time>
      </trkpt>
      <trkpt lat="42.74732" lon="0.18958">
        <ele>1865</ele>
        <time>2019-02-27T08:50:28Z</time>
      </trkpt>
      <trkpt lat="42.74732" lon="0.18958">
        <ele>1865</ele>
        <time>2019-02-27T08:50:29Z</time>
      </trkpt>
      <trkpt lat="42.74732" lon="0.18958">
        <ele>1865</ele>
        <time>2019-02-27T08:50:30Z</time>
      </trkpt>
      <trkpt lat="42.74732" lon="0.18958">
        <ele>1865</ele>
        <time>2019-02-27T08:50:31Z</time>
      </trkpt>
      <trkpt lat="42.74732" lon="0.18958">
        <ele>1864</ele>
        <time>2019-02-27T08:50:32Z</time>
      </trkpt>
      <trkpt lat="42.74732" lon="0.18958">
        <ele>1864</ele>
        <time>2019-02-27T08:50:33Z</time>
      </trkpt>
      <trkpt lat="42.74732" lon="0.18958">
        <ele>1864</ele>
        <time>2019-02-27T08:50:34Z</time>
      </trkpt>
      <trkpt lat="42.74732" lon="0.18958">
        <ele>1864</ele>
        <time>2019-02-27T08:50:35Z</time>
      </trkpt>
      <trkpt lat="42.74732" lon="0.18958">
        <ele>1864</ele>
        <time>2019-02-27T08:50:36Z</time>
      </trkpt>
      <trkpt lat="42.74732" lon="0.18958">
        <ele>1864</ele>
        <time>2019-02-27T08:50:37Z</time>
      </trkpt>
      <trkpt lat="42.74732" lon="0.18958">
        <ele>1864</ele>
        <time>2019-02-27T08:50:38Z</time>
      </trkpt>
      <trkpt lat="42.74732" lon="0.18958">
        <ele>1864</ele>
        <time>2019-02-27T08:50:39Z</time>
      </trkpt>
      <trkpt lat="42.74732" lon="0.18958">
        <ele>1864</ele>
        <time>2019-02-27T08:50:40Z</time>
      </trkpt>
      <trkpt lat="42.74732" lon="0.18958">
        <ele>1864</ele>
        <time>2019-02-27T08:50:41Z</time>
      </trkpt>
      <trkpt lat="42.74732" lon="0.18958">
        <ele>1864</ele>
        <time>2019-02-27T08:50:42Z</time>
      </trkpt>
      <trkpt lat="42.74732" lon="0.18958">
        <ele>1864</ele>
        <time>2019-02-27T08:50:43Z</time>
      </trkpt>
      <trkpt lat="42.74732" lon="0.18958">
        <ele>1864</ele>
        <time>2019-02-27T08:50:44Z</time>
      </trkpt>
      <trkpt lat="42.74732" lon="0.18958">
        <ele>1864</ele>
        <time>2019-02-27T08:50:45Z</time>
      </trkpt>
      <trkpt lat="42.74732" lon="0.18958">
        <ele>1864</ele>
        <time>2019-02-27T08:50:46Z</time>
      </trkpt>
      <trkpt lat="42.74732" lon="0.18958">
        <ele>1864</ele>
        <time>2019-02-27T08:50:47Z</time>
      </trkpt>
      <trkpt lat="42.74732" lon="0.18958">
        <ele>1864</ele>
        <time>2019-02-27T08:50:48Z</time>
      </trkpt>
      <trkpt lat="42.74732" lon="0.18958">
        <ele>1864</ele>
        <time>2019-02-27T08:50:49Z</time>
      </trkpt>
      <trkpt lat="42.74732" lon="0.18958">
        <ele>1864</ele>
        <time>2019-02-27T08:50:50Z</time>
      </trkpt>
      <trkpt lat="42.74732" lon="0.18958">
        <ele>1865</ele>
        <time>2019-02-27T08:50:51Z</time>
      </trkpt>
      <trkpt lat="42.74732" lon="0.18958">
        <ele>1865</ele>
        <time>2019-02-27T08:50:52Z</time>
      </trkpt>
      <trkpt lat="42.74732" lon="0.18958">
        <ele>1865</ele>
        <time>2019-02-27T08:50:53Z</time>
      </trkpt>
      <trkpt lat="42.74732" lon="0.18958">
        <ele>1865</ele>
        <time>2019-02-27T08:50:54Z</time>
      </trkpt>
      <trkpt lat="42.74732" lon="0.18958">
        <ele>1865</ele>
        <time>2019-02-27T08:50:55Z</time>
      </trkpt>
      <trkpt lat="42.74732" lon="0.18958">
        <ele>1865</ele>
        <time>2019-02-27T08:50:56Z</time>
      </trkpt>
      <trkpt lat="42.74732" lon="0.18958">
        <ele>1865</ele>
        <time>2019-02-27T08:50:57Z</time>
      </trkpt>
      <trkpt lat="42.74732" lon="0.18958">
        <ele>1865</ele>
        <time>2019-02-27T08:50:58Z</time>
      </trkpt>
      <trkpt lat="42.74732" lon="0.18958">
        <ele>1865</ele>
        <time>2019-02-27T08:50:59Z</time>
      </trkpt>
      <trkpt lat="42.74732" lon="0.18958">
        <ele>1865</ele>
        <time>2019-02-27T08:51:00Z</time>
      </trkpt>
      <trkpt lat="42.74732" lon="0.18958">
        <ele>1865</ele>
        <time>2019-02-27T08:51:01Z</time>
      </trkpt>
      <trkpt lat="42.74732" lon="0.18958">
        <ele>1865</ele>
        <time>2019-02-27T08:51:02Z</time>
      </trkpt>
      <trkpt lat="42.74732" lon="0.18958">
        <ele>1865</ele>
        <time>2019-02-27T08:51:03Z</time>
      </trkpt>
      <trkpt lat="42.74732" lon="0.18958">
        <ele>1865</ele>
        <time>2019-02-27T08:51:04Z</time>
      </trkpt>
      <trkpt lat="42.74728" lon="0.18961">
        <ele>1865</ele>
        <time>2019-02-27T08:51:05Z</time>
      </trkpt>
      <trkpt lat="42.74728" lon="0.18961">
        <ele>1865</ele>
        <time>2019-02-27T08:51:06Z</time>
      </trkpt>
      <trkpt lat="42.74728" lon="0.18961">
        <ele>1866</ele>
        <time>2019-02-27T08:51:07Z</time>
      </trkpt>
      <trkpt lat="42.74728" lon="0.18961">
        <ele>1866</ele>
        <time>2019-02-27T08:51:08Z</time>
      </trkpt>
      <trkpt lat="42.74728" lon="0.18961">
        <ele>1866</ele>
        <time>2019-02-27T08:51:09Z</time>
      </trkpt>
      <trkpt lat="42.74728" lon="0.18961">
        <ele>1866</ele>
        <time>2019-02-27T08:51:10Z</time>
      </trkpt>
      <trkpt lat="42.74728" lon="0.18961">
        <ele>1866</ele>
        <time>2019-02-27T08:51:11Z</time>
      </trkpt>
      <trkpt lat="42.74728" lon="0.18961">
        <ele>1866</ele>
        <time>2019-02-27T08:51:12Z</time>
      </trkpt>
      <trkpt lat="42.74728" lon="0.18961">
        <ele>1866</ele>
        <time>2019-02-27T08:51:13Z</time>
      </trkpt>
      <trkpt lat="42.74728" lon="0.18961">
        <ele>1866</ele>
        <time>2019-02-27T08:51:14Z</time>
      </trkpt>
      <trkpt lat="42.74728" lon="0.18961">
        <ele>1866</ele>
        <time>2019-02-27T08:51:15Z</time>
      </trkpt>
      <trkpt lat="42.74728" lon="0.18961">
        <ele>1866</ele>
        <time>2019-02-27T08:51:16Z</time>
      </trkpt>
      <trkpt lat="42.74728" lon="0.18961">
        <ele>1865</ele>
        <time>2019-02-27T08:51:17Z</time>
      </trkpt>
      <trkpt lat="42.74725" lon="0.18962">
        <ele>1865</ele>
        <time>2019-02-27T08:51:18Z</time>
      </trkpt>
      <trkpt lat="42.74725" lon="0.18962">
        <ele>1865</ele>
        <time>2019-02-27T08:51:19Z</time>
      </trkpt>
      <trkpt lat="42.74725" lon="0.18962">
        <ele>1865</ele>
        <time>2019-02-27T08:51:20Z</time>
      </trkpt>
      <trkpt lat="42.74725" lon="0.18962">
        <ele>1865</ele>
        <time>2019-02-27T08:51:21Z</time>
      </trkpt>
      <trkpt lat="42.74725" lon="0.18962">
        <ele>1865</ele>
        <time>2019-02-27T08:51:22Z</time>
      </trkpt>
      <trkpt lat="42.74725" lon="0.18962">
        <ele>1865</ele>
        <time>2019-02-27T08:51:23Z</time>
      </trkpt>
      <trkpt lat="42.74725" lon="0.18962">
        <ele>1865</ele>
        <time>2019-02-27T08:51:24Z</time>
      </trkpt>
      <trkpt lat="42.74725" lon="0.18962">
        <ele>1865</ele>
        <time>2019-02-27T08:51:25Z</time>
      </trkpt>
      <trkpt lat="42.74725" lon="0.18962">
        <ele>1865</ele>
        <time>2019-02-27T08:51:26Z</time>
      </trkpt>
      <trkpt lat="42.74725" lon="0.18962">
        <ele>1865</ele>
        <time>2019-02-27T08:51:27Z</time>
      </trkpt>
      <trkpt lat="42.74725" lon="0.18962">
        <ele>1865</ele>
        <time>2019-02-27T08:51:28Z</time>
      </trkpt>
      <trkpt lat="42.74725" lon="0.18962">
        <ele>1865</ele>
        <time>2019-02-27T08:51:29Z</time>
      </trkpt>
      <trkpt lat="42.74725" lon="0.18962">
        <ele>1865</ele>
        <time>2019-02-27T08:51:30Z</time>
      </trkpt>
      <trkpt lat="42.74725" lon="0.18962">
        <ele>1865</ele>
        <time>2019-02-27T08:51:31Z</time>
      </trkpt>
      <trkpt lat="42.74725" lon="0.18962">
        <ele>1865</ele>
        <time>2019-02-27T08:51:32Z</time>
      </trkpt>
      <trkpt lat="42.74725" lon="0.18962">
        <ele>1865</ele>
        <time>2019-02-27T08:51:33Z</time>
      </trkpt>
      <trkpt lat="42.74725" lon="0.18962">
        <ele>1865</ele>
        <time>2019-02-27T08:51:34Z</time>
      </trkpt>
      <trkpt lat="42.74725" lon="0.18962">
        <ele>1865</ele>
        <time>2019-02-27T08:51:35Z</time>
      </trkpt>
      <trkpt lat="42.74725" lon="0.18962">
        <ele>1865</ele>
        <time>2019-02-27T08:51:36Z</time>
      </trkpt>
      <trkpt lat="42.74725" lon="0.18962">
        <ele>1865</ele>
        <time>2019-02-27T08:51:37Z</time>
      </trkpt>
      <trkpt lat="42.74725" lon="0.18962">
        <ele>1865</ele>
        <time>2019-02-27T08:51:38Z</time>
      </trkpt>
      <trkpt lat="42.74725" lon="0.18962">
        <ele>1865</ele>
        <time>2019-02-27T08:51:39Z</time>
      </trkpt>
      <trkpt lat="42.74725" lon="0.18962">
        <ele>1865</ele>
        <time>2019-02-27T08:51:40Z</time>
      </trkpt>
      <trkpt lat="42.74725" lon="0.18962">
        <ele>1865</ele>
        <time>2019-02-27T08:51:41Z</time>
      </trkpt>
      <trkpt lat="42.74725" lon="0.18962">
        <ele>1865</ele>
        <time>2019-02-27T08:51:42Z</time>
      </trkpt>
      <trkpt lat="42.74725" lon="0.18962">
        <ele>1865</ele>
        <time>2019-02-27T08:51:43Z</time>
      </trkpt>
      <trkpt lat="42.74725" lon="0.18962">
        <ele>1865</ele>
        <time>2019-02-27T08:51:44Z</time>
      </trkpt>
      <trkpt lat="42.74725" lon="0.18962">
        <ele>1865</ele>
        <time>2019-02-27T08:51:45Z</time>
      </trkpt>
      <trkpt lat="42.74725" lon="0.18962">
        <ele>1865</ele>
        <time>2019-02-27T08:51:46Z</time>
      </trkpt>
      <trkpt lat="42.74725" lon="0.18962">
        <ele>1865</ele>
        <time>2019-02-27T08:51:47Z</time>
      </trkpt>
      <trkpt lat="42.74725" lon="0.18962">
        <ele>1865</ele>
        <time>2019-02-27T08:51:48Z</time>
      </trkpt>
      <trkpt lat="42.74725" lon="0.18962">
        <ele>1865</ele>
        <time>2019-02-27T08:51:49Z</time>
      </trkpt>
      <trkpt lat="42.74725" lon="0.18962">
        <ele>1865</ele>
        <time>2019-02-27T08:51:50Z</time>
      </trkpt>
      <trkpt lat="42.74725" lon="0.18962">
        <ele>1865</ele>
        <time>2019-02-27T08:51:51Z</time>
      </trkpt>
      <trkpt lat="42.74725" lon="0.18962">
        <ele>1865</ele>
        <time>2019-02-27T08:51:52Z</time>
      </trkpt>
      <trkpt lat="42.74725" lon="0.18962">
        <ele>1865</ele>
        <time>2019-02-27T08:51:53Z</time>
      </trkpt>
      <trkpt lat="42.74725" lon="0.18962">
        <ele>1865</ele>
        <time>2019-02-27T08:51:54Z</time>
      </trkpt>
      <trkpt lat="42.74725" lon="0.18962">
        <ele>1865</ele>
        <time>2019-02-27T08:51:55Z</time>
      </trkpt>
      <trkpt lat="42.74725" lon="0.18962">
        <ele>1865</ele>
        <time>2019-02-27T08:51:56Z</time>
      </trkpt>
      <trkpt lat="42.74725" lon="0.18962">
        <ele>1865</ele>
        <time>2019-02-27T08:51:57Z</time>
      </trkpt>
      <trkpt lat="42.74725" lon="0.18962">
        <ele>1865</ele>
        <time>2019-02-27T08:51:58Z</time>
      </trkpt>
      <trkpt lat="42.74725" lon="0.18962">
        <ele>1865</ele>
        <time>2019-02-27T08:51:59Z</time>
      </trkpt>
      <trkpt lat="42.74725" lon="0.18962">
        <ele>1865</ele>
        <time>2019-02-27T08:52:00Z</time>
      </trkpt>
      <trkpt lat="42.74725" lon="0.18962">
        <ele>1865</ele>
        <time>2019-02-27T08:52:01Z</time>
      </trkpt>
      <trkpt lat="42.74725" lon="0.18962">
        <ele>1865</ele>
        <time>2019-02-27T08:52:02Z</time>
      </trkpt>
      <trkpt lat="42.74725" lon="0.18962">
        <ele>1865</ele>
        <time>2019-02-27T08:52:03Z</time>
      </trkpt>
      <trkpt lat="42.74725" lon="0.18962">
        <ele>1865</ele>
        <time>2019-02-27T08:52:04Z</time>
      </trkpt>
      <trkpt lat="42.74725" lon="0.18962">
        <ele>1865</ele>
        <time>2019-02-27T08:52:05Z</time>
      </trkpt>
      <trkpt lat="42.74725" lon="0.18962">
        <ele>1865</ele>
        <time>2019-02-27T08:52:06Z</time>
      </trkpt>
      <trkpt lat="42.74725" lon="0.18962">
        <ele>1865</ele>
        <time>2019-02-27T08:52:07Z</time>
      </trkpt>
      <trkpt lat="42.74725" lon="0.18962">
        <ele>1865</ele>
        <time>2019-02-27T08:52:08Z</time>
      </trkpt>
      <trkpt lat="42.74725" lon="0.18962">
        <ele>1865</ele>
        <time>2019-02-27T08:52:09Z</time>
      </trkpt>
      <trkpt lat="42.74725" lon="0.18962">
        <ele>1865</ele>
        <time>2019-02-27T08:52:10Z</time>
      </trkpt>
      <trkpt lat="42.74725" lon="0.18962">
        <ele>1865</ele>
        <time>2019-02-27T08:52:11Z</time>
      </trkpt>
      <trkpt lat="42.74725" lon="0.18962">
        <ele>1864</ele>
        <time>2019-02-27T08:52:12Z</time>
      </trkpt>
      <trkpt lat="42.74725" lon="0.18962">
        <ele>1864</ele>
        <time>2019-02-27T08:52:13Z</time>
      </trkpt>
      <trkpt lat="42.74725" lon="0.18962">
        <ele>1864</ele>
        <time>2019-02-27T08:52:14Z</time>
      </trkpt>
      <trkpt lat="42.74725" lon="0.18962">
        <ele>1864</ele>
        <time>2019-02-27T08:52:15Z</time>
      </trkpt>
      <trkpt lat="42.74725" lon="0.18962">
        <ele>1865</ele>
        <time>2019-02-27T08:52:16Z</time>
      </trkpt>
      <trkpt lat="42.74725" lon="0.18962">
        <ele>1865</ele>
        <time>2019-02-27T08:52:17Z</time>
      </trkpt>
      <trkpt lat="42.74725" lon="0.18962">
        <ele>1865</ele>
        <time>2019-02-27T08:52:18Z</time>
      </trkpt>
      <trkpt lat="42.74725" lon="0.18962">
        <ele>1865</ele>
        <time>2019-02-27T08:52:19Z</time>
      </trkpt>
      <trkpt lat="42.74725" lon="0.18962">
        <ele>1865</ele>
        <time>2019-02-27T08:52:20Z</time>
      </trkpt>
      <trkpt lat="42.74725" lon="0.18962">
        <ele>1865</ele>
        <time>2019-02-27T08:52:21Z</time>
      </trkpt>
      <trkpt lat="42.74725" lon="0.18962">
        <ele>1865</ele>
        <time>2019-02-27T08:52:22Z</time>
      </trkpt>
      <trkpt lat="42.74725" lon="0.18962">
        <ele>1865</ele>
        <time>2019-02-27T08:52:23Z</time>
      </trkpt>
      <trkpt lat="42.74725" lon="0.18962">
        <ele>1865</ele>
        <time>2019-02-27T08:52:24Z</time>
      </trkpt>
      <trkpt lat="42.74725" lon="0.18962">
        <ele>1865</ele>
        <time>2019-02-27T08:52:25Z</time>
      </trkpt>
      <trkpt lat="42.74725" lon="0.18962">
        <ele>1865</ele>
        <time>2019-02-27T08:52:26Z</time>
      </trkpt>
      <trkpt lat="42.74725" lon="0.18962">
        <ele>1865</ele>
        <time>2019-02-27T08:52:27Z</time>
      </trkpt>
      <trkpt lat="42.74725" lon="0.18962">
        <ele>1865</ele>
        <time>2019-02-27T08:52:28Z</time>
      </trkpt>
      <trkpt lat="42.74725" lon="0.18962">
        <ele>1865</ele>
        <time>2019-02-27T08:52:29Z</time>
      </trkpt>
      <trkpt lat="42.74725" lon="0.18962">
        <ele>1865</ele>
        <time>2019-02-27T08:52:30Z</time>
      </trkpt>
      <trkpt lat="42.74725" lon="0.18962">
        <ele>1865</ele>
        <time>2019-02-27T08:52:31Z</time>
      </trkpt>
      <trkpt lat="42.74725" lon="0.18962">
        <ele>1865</ele>
        <time>2019-02-27T08:52:32Z</time>
      </trkpt>
      <trkpt lat="42.74725" lon="0.18962">
        <ele>1865</ele>
        <time>2019-02-27T08:52:33Z</time>
      </trkpt>
      <trkpt lat="42.74725" lon="0.18962">
        <ele>1865</ele>
        <time>2019-02-27T08:52:34Z</time>
      </trkpt>
      <trkpt lat="42.74725" lon="0.18962">
        <ele>1865</ele>
        <time>2019-02-27T08:52:35Z</time>
      </trkpt>
      <trkpt lat="42.74725" lon="0.18962">
        <ele>1865</ele>
        <time>2019-02-27T08:52:36Z</time>
      </trkpt>
      <trkpt lat="42.74725" lon="0.18962">
        <ele>1865</ele>
        <time>2019-02-27T08:52:37Z</time>
      </trkpt>
      <trkpt lat="42.74725" lon="0.18962">
        <ele>1865</ele>
        <time>2019-02-27T08:52:38Z</time>
      </trkpt>
      <trkpt lat="42.74725" lon="0.18962">
        <ele>1865</ele>
        <time>2019-02-27T08:52:39Z</time>
      </trkpt>
      <trkpt lat="42.74725" lon="0.18962">
        <ele>1865</ele>
        <time>2019-02-27T08:52:40Z</time>
      </trkpt>
      <trkpt lat="42.74725" lon="0.18962">
        <ele>1865</ele>
        <time>2019-02-27T08:52:41Z</time>
      </trkpt>
      <trkpt lat="42.74725" lon="0.18962">
        <ele>1865</ele>
        <time>2019-02-27T08:52:42Z</time>
      </trkpt>
      <trkpt lat="42.74725" lon="0.18962">
        <ele>1865</ele>
        <time>2019-02-27T08:52:43Z</time>
      </trkpt>
      <trkpt lat="42.74725" lon="0.18962">
        <ele>1865</ele>
        <time>2019-02-27T08:52:44Z</time>
      </trkpt>
      <trkpt lat="42.74725" lon="0.18962">
        <ele>1865</ele>
        <time>2019-02-27T08:52:45Z</time>
      </trkpt>
      <trkpt lat="42.74725" lon="0.18962">
        <ele>1865</ele>
        <time>2019-02-27T08:52:46Z</time>
      </trkpt>
      <trkpt lat="42.74725" lon="0.18962">
        <ele>1865</ele>
        <time>2019-02-27T08:52:47Z</time>
      </trkpt>
      <trkpt lat="42.74725" lon="0.18962">
        <ele>1865</ele>
        <time>2019-02-27T08:52:48Z</time>
      </trkpt>
      <trkpt lat="42.74725" lon="0.18962">
        <ele>1865</ele>
        <time>2019-02-27T08:52:49Z</time>
      </trkpt>
      <trkpt lat="42.74725" lon="0.18962">
        <ele>1865</ele>
        <time>2019-02-27T08:52:50Z</time>
      </trkpt>
      <trkpt lat="42.74725" lon="0.18962">
        <ele>1865</ele>
        <time>2019-02-27T08:52:51Z</time>
      </trkpt>
      <trkpt lat="42.74725" lon="0.18962">
        <ele>1865</ele>
        <time>2019-02-27T08:52:52Z</time>
      </trkpt>
      <trkpt lat="42.74725" lon="0.18962">
        <ele>1865</ele>
        <time>2019-02-27T08:52:53Z</time>
      </trkpt>
      <trkpt lat="42.74725" lon="0.18962">
        <ele>1866</ele>
        <time>2019-02-27T08:52:54Z</time>
      </trkpt>
      <trkpt lat="42.74725" lon="0.18962">
        <ele>1866</ele>
        <time>2019-02-27T08:52:55Z</time>
      </trkpt>
      <trkpt lat="42.74725" lon="0.18962">
        <ele>1866</ele>
        <time>2019-02-27T08:52:56Z</time>
      </trkpt>
      <trkpt lat="42.74725" lon="0.18962">
        <ele>1866</ele>
        <time>2019-02-27T08:52:57Z</time>
      </trkpt>
      <trkpt lat="42.74725" lon="0.18962">
        <ele>1866</ele>
        <time>2019-02-27T08:52:58Z</time>
      </trkpt>
      <trkpt lat="42.74719" lon="0.18953">
        <ele>1866</ele>
        <time>2019-02-27T08:52:59Z</time>
      </trkpt>
      <trkpt lat="42.74719" lon="0.18953">
        <ele>1866</ele>
        <time>2019-02-27T08:53:00Z</time>
      </trkpt>
      <trkpt lat="42.74719" lon="0.18953">
        <ele>1866</ele>
        <time>2019-02-27T08:53:01Z</time>
      </trkpt>
      <trkpt lat="42.74719" lon="0.18953">
        <ele>1867</ele>
        <time>2019-02-27T08:53:02Z</time>
      </trkpt>
      <trkpt lat="42.74719" lon="0.18953">
        <ele>1867</ele>
        <time>2019-02-27T08:53:03Z</time>
      </trkpt>
      <trkpt lat="42.74719" lon="0.18953">
        <ele>1867</ele>
        <time>2019-02-27T08:53:04Z</time>
      </trkpt>
      <trkpt lat="42.74719" lon="0.18953">
        <ele>1867</ele>
        <time>2019-02-27T08:53:05Z</time>
      </trkpt>
      <trkpt lat="42.74719" lon="0.18953">
        <ele>1867</ele>
        <time>2019-02-27T08:53:06Z</time>
      </trkpt>
      <trkpt lat="42.74719" lon="0.18953">
        <ele>1867</ele>
        <time>2019-02-27T08:53:07Z</time>
      </trkpt>
      <trkpt lat="42.74719" lon="0.18953">
        <ele>1867</ele>
        <time>2019-02-27T08:53:08Z</time>
      </trkpt>
      <trkpt lat="42.74719" lon="0.18953">
        <ele>1867</ele>
        <time>2019-02-27T08:53:09Z</time>
      </trkpt>
      <trkpt lat="42.74719" lon="0.18953">
        <ele>1867</ele>
        <time>2019-02-27T08:53:10Z</time>
      </trkpt>
      <trkpt lat="42.74719" lon="0.18953">
        <ele>1867</ele>
        <time>2019-02-27T08:53:11Z</time>
      </trkpt>
      <trkpt lat="42.74715" lon="0.18942">
        <ele>1867</ele>
        <time>2019-02-27T08:53:12Z</time>
      </trkpt>
      <trkpt lat="42.74715" lon="0.18942">
        <ele>1868</ele>
        <time>2019-02-27T08:53:13Z</time>
      </trkpt>
      <trkpt lat="42.74715" lon="0.18942">
        <ele>1868</ele>
        <time>2019-02-27T08:53:14Z</time>
      </trkpt>
      <trkpt lat="42.74715" lon="0.18942">
        <ele>1868</ele>
        <time>2019-02-27T08:53:15Z</time>
      </trkpt>
      <trkpt lat="42.74715" lon="0.18942">
        <ele>1868</ele>
        <time>2019-02-27T08:53:16Z</time>
      </trkpt>
      <trkpt lat="42.74715" lon="0.18942">
        <ele>1868</ele>
        <time>2019-02-27T08:53:17Z</time>
      </trkpt>
      <trkpt lat="42.74715" lon="0.18942">
        <ele>1868</ele>
        <time>2019-02-27T08:53:18Z</time>
      </trkpt>
      <trkpt lat="42.74715" lon="0.18942">
        <ele>1868</ele>
        <time>2019-02-27T08:53:19Z</time>
      </trkpt>
      <trkpt lat="42.74715" lon="0.18942">
        <ele>1868</ele>
        <time>2019-02-27T08:53:20Z</time>
      </trkpt>
      <trkpt lat="42.74715" lon="0.18942">
        <ele>1869</ele>
        <time>2019-02-27T08:53:21Z</time>
      </trkpt>
      <trkpt lat="42.74715" lon="0.18942">
        <ele>1869</ele>
        <time>2019-02-27T08:53:22Z</time>
      </trkpt>
      <trkpt lat="42.74715" lon="0.18942">
        <ele>1870</ele>
        <time>2019-02-27T08:53:23Z</time>
      </trkpt>
      <trkpt lat="42.74715" lon="0.18942">
        <ele>1870</ele>
        <time>2019-02-27T08:53:24Z</time>
      </trkpt>
      <trkpt lat="42.74715" lon="0.18942">
        <ele>1869</ele>
        <time>2019-02-27T08:53:25Z</time>
      </trkpt>
      <trkpt lat="42.74715" lon="0.18942">
        <ele>1869</ele>
        <time>2019-02-27T08:53:26Z</time>
      </trkpt>
      <trkpt lat="42.74715" lon="0.18942">
        <ele>1869</ele>
        <time>2019-02-27T08:53:27Z</time>
      </trkpt>
      <trkpt lat="42.74715" lon="0.18942">
        <ele>1869</ele>
        <time>2019-02-27T08:53:28Z</time>
      </trkpt>
      <trkpt lat="42.74715" lon="0.18942">
        <ele>1869</ele>
        <time>2019-02-27T08:53:29Z</time>
      </trkpt>
      <trkpt lat="42.74715" lon="0.18942">
        <ele>1869</ele>
        <time>2019-02-27T08:53:30Z</time>
      </trkpt>
      <trkpt lat="42.74709" lon="0.18932">
        <ele>1870</ele>
        <time>2019-02-27T08:53:31Z</time>
      </trkpt>
      <trkpt lat="42.74709" lon="0.18932">
        <ele>1870</ele>
        <time>2019-02-27T08:53:32Z</time>
      </trkpt>
      <trkpt lat="42.74709" lon="0.18932">
        <ele>1870</ele>
        <time>2019-02-27T08:53:33Z</time>
      </trkpt>
      <trkpt lat="42.74709" lon="0.18932">
        <ele>1870</ele>
        <time>2019-02-27T08:53:34Z</time>
      </trkpt>
      <trkpt lat="42.74709" lon="0.18932">
        <ele>1870</ele>
        <time>2019-02-27T08:53:35Z</time>
      </trkpt>
      <trkpt lat="42.74709" lon="0.18932">
        <ele>1870</ele>
        <time>2019-02-27T08:53:36Z</time>
      </trkpt>
      <trkpt lat="42.74709" lon="0.18932">
        <ele>1870</ele>
        <time>2019-02-27T08:53:37Z</time>
      </trkpt>
      <trkpt lat="42.74709" lon="0.18932">
        <ele>1870</ele>
        <time>2019-02-27T08:53:38Z</time>
      </trkpt>
      <trkpt lat="42.74709" lon="0.18932">
        <ele>1870</ele>
        <time>2019-02-27T08:53:39Z</time>
      </trkpt>
      <trkpt lat="42.74709" lon="0.18932">
        <ele>1870</ele>
        <time>2019-02-27T08:53:40Z</time>
      </trkpt>
      <trkpt lat="42.74709" lon="0.18932">
        <ele>1870</ele>
        <time>2019-02-27T08:53:41Z</time>
      </trkpt>
      <trkpt lat="42.74709" lon="0.18932">
        <ele>1870</ele>
        <time>2019-02-27T08:53:42Z</time>
      </trkpt>
      <trkpt lat="42.74709" lon="0.18932">
        <ele>1870</ele>
        <time>2019-02-27T08:53:43Z</time>
      </trkpt>
      <trkpt lat="42.74705" lon="0.1892">
        <ele>1870</ele>
        <time>2019-02-27T08:53:44Z</time>
      </trkpt>
      <trkpt lat="42.74705" lon="0.1892">
        <ele>1871</ele>
        <time>2019-02-27T08:53:45Z</time>
      </trkpt>
      <trkpt lat="42.74705" lon="0.1892">
        <ele>1871</ele>
        <time>2019-02-27T08:53:46Z</time>
      </trkpt>
      <trkpt lat="42.74705" lon="0.1892">
        <ele>1871</ele>
        <time>2019-02-27T08:53:47Z</time>
      </trkpt>
      <trkpt lat="42.74705" lon="0.1892">
        <ele>1871</ele>
        <time>2019-02-27T08:53:48Z</time>
      </trkpt>
      <trkpt lat="42.74705" lon="0.1892">
        <ele>1871</ele>
        <time>2019-02-27T08:53:49Z</time>
      </trkpt>
      <trkpt lat="42.74705" lon="0.1892">
        <ele>1871</ele>
        <time>2019-02-27T08:53:50Z</time>
      </trkpt>
      <trkpt lat="42.74705" lon="0.1892">
        <ele>1871</ele>
        <time>2019-02-27T08:53:51Z</time>
      </trkpt>
      <trkpt lat="42.74705" lon="0.1892">
        <ele>1872</ele>
        <time>2019-02-27T08:53:52Z</time>
      </trkpt>
      <trkpt lat="42.74705" lon="0.1892">
        <ele>1872</ele>
        <time>2019-02-27T08:53:53Z</time>
      </trkpt>
      <trkpt lat="42.74705" lon="0.1892">
        <ele>1872</ele>
        <time>2019-02-27T08:53:54Z</time>
      </trkpt>
      <trkpt lat="42.74705" lon="0.1892">
        <ele>1872</ele>
        <time>2019-02-27T08:53:55Z</time>
      </trkpt>
      <trkpt lat="42.74705" lon="0.1892">
        <ele>1872</ele>
        <time>2019-02-27T08:53:56Z</time>
      </trkpt>
      <trkpt lat="42.74705" lon="0.1892">
        <ele>1872</ele>
        <time>2019-02-27T08:53:57Z</time>
      </trkpt>
      <trkpt lat="42.74705" lon="0.1892">
        <ele>1873</ele>
        <time>2019-02-27T08:53:58Z</time>
      </trkpt>
      <trkpt lat="42.74705" lon="0.1892">
        <ele>1873</ele>
        <time>2019-02-27T08:53:59Z</time>
      </trkpt>
      <trkpt lat="42.74701" lon="0.18909">
        <ele>1873</ele>
        <time>2019-02-27T08:54:00Z</time>
      </trkpt>
      <trkpt lat="42.74701" lon="0.18909">
        <ele>1873</ele>
        <time>2019-02-27T08:54:01Z</time>
      </trkpt>
      <trkpt lat="42.74701" lon="0.18909">
        <ele>1873</ele>
        <time>2019-02-27T08:54:02Z</time>
      </trkpt>
      <trkpt lat="42.74701" lon="0.18909">
        <ele>1873</ele>
        <time>2019-02-27T08:54:03Z</time>
      </trkpt>
      <trkpt lat="42.74701" lon="0.18909">
        <ele>1873</ele>
        <time>2019-02-27T08:54:04Z</time>
      </trkpt>
      <trkpt lat="42.74701" lon="0.18909">
        <ele>1873</ele>
        <time>2019-02-27T08:54:05Z</time>
      </trkpt>
      <trkpt lat="42.74701" lon="0.18909">
        <ele>1873</ele>
        <time>2019-02-27T08:54:06Z</time>
      </trkpt>
      <trkpt lat="42.74701" lon="0.18909">
        <ele>1874</ele>
        <time>2019-02-27T08:54:07Z</time>
      </trkpt>
      <trkpt lat="42.74701" lon="0.18909">
        <ele>1874</ele>
        <time>2019-02-27T08:54:08Z</time>
      </trkpt>
      <trkpt lat="42.74701" lon="0.18909">
        <ele>1875</ele>
        <time>2019-02-27T08:54:09Z</time>
      </trkpt>
      <trkpt lat="42.74701" lon="0.18909">
        <ele>1875</ele>
        <time>2019-02-27T08:54:10Z</time>
      </trkpt>
      <trkpt lat="42.74701" lon="0.18909">
        <ele>1874</ele>
        <time>2019-02-27T08:54:11Z</time>
      </trkpt>
      <trkpt lat="42.74701" lon="0.18909">
        <ele>1874</ele>
        <time>2019-02-27T08:54:12Z</time>
      </trkpt>
      <trkpt lat="42.74701" lon="0.18909">
        <ele>1874</ele>
        <time>2019-02-27T08:54:13Z</time>
      </trkpt>
      <trkpt lat="42.74701" lon="0.18909">
        <ele>1875</ele>
        <time>2019-02-27T08:54:14Z</time>
      </trkpt>
      <trkpt lat="42.74701" lon="0.18909">
        <ele>1875</ele>
        <time>2019-02-27T08:54:15Z</time>
      </trkpt>
      <trkpt lat="42.74692" lon="0.18906">
        <ele>1875</ele>
        <time>2019-02-27T08:54:16Z</time>
      </trkpt>
      <trkpt lat="42.74692" lon="0.18906">
        <ele>1875</ele>
        <time>2019-02-27T08:54:17Z</time>
      </trkpt>
      <trkpt lat="42.74692" lon="0.18906">
        <ele>1875</ele>
        <time>2019-02-27T08:54:18Z</time>
      </trkpt>
      <trkpt lat="42.74692" lon="0.18906">
        <ele>1875</ele>
        <time>2019-02-27T08:54:19Z</time>
      </trkpt>
      <trkpt lat="42.74692" lon="0.18906">
        <ele>1876</ele>
        <time>2019-02-27T08:54:20Z</time>
      </trkpt>
      <trkpt lat="42.74692" lon="0.18906">
        <ele>1876</ele>
        <time>2019-02-27T08:54:21Z</time>
      </trkpt>
      <trkpt lat="42.74692" lon="0.18906">
        <ele>1876</ele>
        <time>2019-02-27T08:54:22Z</time>
      </trkpt>
      <trkpt lat="42.74692" lon="0.18906">
        <ele>1876</ele>
        <time>2019-02-27T08:54:23Z</time>
      </trkpt>
      <trkpt lat="42.74692" lon="0.18906">
        <ele>1876</ele>
        <time>2019-02-27T08:54:24Z</time>
      </trkpt>
      <trkpt lat="42.74692" lon="0.18906">
        <ele>1876</ele>
        <time>2019-02-27T08:54:25Z</time>
      </trkpt>
      <trkpt lat="42.74692" lon="0.18906">
        <ele>1876</ele>
        <time>2019-02-27T08:54:26Z</time>
      </trkpt>
      <trkpt lat="42.74692" lon="0.18906">
        <ele>1876</ele>
        <time>2019-02-27T08:54:27Z</time>
      </trkpt>
      <trkpt lat="42.74692" lon="0.18906">
        <ele>1877</ele>
        <time>2019-02-27T08:54:28Z</time>
      </trkpt>
      <trkpt lat="42.74692" lon="0.18906">
        <ele>1877</ele>
        <time>2019-02-27T08:54:29Z</time>
      </trkpt>
      <trkpt lat="42.74685" lon="0.18897">
        <ele>1877</ele>
        <time>2019-02-27T08:54:30Z</time>
      </trkpt>
      <trkpt lat="42.74685" lon="0.18897">
        <ele>1877</ele>
        <time>2019-02-27T08:54:31Z</time>
      </trkpt>
      <trkpt lat="42.74685" lon="0.18897">
        <ele>1877</ele>
        <time>2019-02-27T08:54:32Z</time>
      </trkpt>
      <trkpt lat="42.74685" lon="0.18897">
        <ele>1877</ele>
        <time>2019-02-27T08:54:33Z</time>
      </trkpt>
      <trkpt lat="42.74685" lon="0.18897">
        <ele>1877</ele>
        <time>2019-02-27T08:54:34Z</time>
      </trkpt>
      <trkpt lat="42.74685" lon="0.18897">
        <ele>1877</ele>
        <time>2019-02-27T08:54:35Z</time>
      </trkpt>
      <trkpt lat="42.74685" lon="0.18897">
        <ele>1877</ele>
        <time>2019-02-27T08:54:36Z</time>
      </trkpt>
      <trkpt lat="42.74685" lon="0.18897">
        <ele>1878</ele>
        <time>2019-02-27T08:54:37Z</time>
      </trkpt>
      <trkpt lat="42.74685" lon="0.18897">
        <ele>1878</ele>
        <time>2019-02-27T08:54:38Z</time>
      </trkpt>
      <trkpt lat="42.74685" lon="0.18897">
        <ele>1879</ele>
        <time>2019-02-27T08:54:39Z</time>
      </trkpt>
      <trkpt lat="42.74685" lon="0.18897">
        <ele>1879</ele>
        <time>2019-02-27T08:54:40Z</time>
      </trkpt>
      <trkpt lat="42.74685" lon="0.18897">
        <ele>1878</ele>
        <time>2019-02-27T08:54:41Z</time>
      </trkpt>
      <trkpt lat="42.74685" lon="0.18897">
        <ele>1878</ele>
        <time>2019-02-27T08:54:42Z</time>
      </trkpt>
      <trkpt lat="42.74685" lon="0.18897">
        <ele>1878</ele>
        <time>2019-02-27T08:54:43Z</time>
      </trkpt>
      <trkpt lat="42.74682" lon="0.18885">
        <ele>1879</ele>
        <time>2019-02-27T08:54:44Z</time>
      </trkpt>
      <trkpt lat="42.74682" lon="0.18885">
        <ele>1879</ele>
        <time>2019-02-27T08:54:45Z</time>
      </trkpt>
      <trkpt lat="42.74682" lon="0.18885">
        <ele>1879</ele>
        <time>2019-02-27T08:54:46Z</time>
      </trkpt>
      <trkpt lat="42.74682" lon="0.18885">
        <ele>1879</ele>
        <time>2019-02-27T08:54:47Z</time>
      </trkpt>
      <trkpt lat="42.74682" lon="0.18885">
        <ele>1880</ele>
        <time>2019-02-27T08:54:48Z</time>
      </trkpt>
      <trkpt lat="42.74682" lon="0.18885">
        <ele>1880</ele>
        <time>2019-02-27T08:54:49Z</time>
      </trkpt>
      <trkpt lat="42.74682" lon="0.18885">
        <ele>1879</ele>
        <time>2019-02-27T08:54:50Z</time>
      </trkpt>
      <trkpt lat="42.74682" lon="0.18885">
        <ele>1879</ele>
        <time>2019-02-27T08:54:51Z</time>
      </trkpt>
      <trkpt lat="42.74682" lon="0.18885">
        <ele>1879</ele>
        <time>2019-02-27T08:54:52Z</time>
      </trkpt>
      <trkpt lat="42.74682" lon="0.18885">
        <ele>1880</ele>
        <time>2019-02-27T08:54:53Z</time>
      </trkpt>
      <trkpt lat="42.74682" lon="0.18885">
        <ele>1880</ele>
        <time>2019-02-27T08:54:54Z</time>
      </trkpt>
      <trkpt lat="42.74682" lon="0.18885">
        <ele>1880</ele>
        <time>2019-02-27T08:54:55Z</time>
      </trkpt>
      <trkpt lat="42.74682" lon="0.18885">
        <ele>1880</ele>
        <time>2019-02-27T08:54:56Z</time>
      </trkpt>
      <trkpt lat="42.74682" lon="0.18885">
        <ele>1880</ele>
        <time>2019-02-27T08:54:57Z</time>
      </trkpt>
      <trkpt lat="42.74682" lon="0.18885">
        <ele>1880</ele>
        <time>2019-02-27T08:54:58Z</time>
      </trkpt>
      <trkpt lat="42.74682" lon="0.18885">
        <ele>1880</ele>
        <time>2019-02-27T08:54:59Z</time>
      </trkpt>
      <trkpt lat="42.74682" lon="0.18885">
        <ele>1880</ele>
        <time>2019-02-27T08:55:00Z</time>
      </trkpt>
      <trkpt lat="42.74682" lon="0.18885">
        <ele>1881</ele>
        <time>2019-02-27T08:55:01Z</time>
      </trkpt>
      <trkpt lat="42.74682" lon="0.18885">
        <ele>1881</ele>
        <time>2019-02-27T08:55:02Z</time>
      </trkpt>
      <trkpt lat="42.74682" lon="0.18872">
        <ele>1881</ele>
        <time>2019-02-27T08:55:03Z</time>
      </trkpt>
      <trkpt lat="42.74682" lon="0.18872">
        <ele>1881</ele>
        <time>2019-02-27T08:55:04Z</time>
      </trkpt>
      <trkpt lat="42.74682" lon="0.18872">
        <ele>1881</ele>
        <time>2019-02-27T08:55:05Z</time>
      </trkpt>
      <trkpt lat="42.74682" lon="0.18872">
        <ele>1881</ele>
        <time>2019-02-27T08:55:06Z</time>
      </trkpt>
      <trkpt lat="42.74682" lon="0.18872">
        <ele>1882</ele>
        <time>2019-02-27T08:55:07Z</time>
      </trkpt>
      <trkpt lat="42.74682" lon="0.18872">
        <ele>1882</ele>
        <time>2019-02-27T08:55:08Z</time>
      </trkpt>
      <trkpt lat="42.74682" lon="0.18872">
        <ele>1882</ele>
        <time>2019-02-27T08:55:09Z</time>
      </trkpt>
      <trkpt lat="42.74682" lon="0.18872">
        <ele>1882</ele>
        <time>2019-02-27T08:55:10Z</time>
      </trkpt>
      <trkpt lat="42.74682" lon="0.18872">
        <ele>1882</ele>
        <time>2019-02-27T08:55:11Z</time>
      </trkpt>
      <trkpt lat="42.74682" lon="0.18872">
        <ele>1882</ele>
        <time>2019-02-27T08:55:12Z</time>
      </trkpt>
      <trkpt lat="42.74682" lon="0.18872">
        <ele>1882</ele>
        <time>2019-02-27T08:55:13Z</time>
      </trkpt>
      <trkpt lat="42.74682" lon="0.18872">
        <ele>1883</ele>
        <time>2019-02-27T08:55:14Z</time>
      </trkpt>
      <trkpt lat="42.74682" lon="0.18872">
        <ele>1883</ele>
        <time>2019-02-27T08:55:15Z</time>
      </trkpt>
      <trkpt lat="42.74682" lon="0.18872">
        <ele>1883</ele>
        <time>2019-02-27T08:55:16Z</time>
      </trkpt>
      <trkpt lat="42.74682" lon="0.18872">
        <ele>1883</ele>
        <time>2019-02-27T08:55:17Z</time>
      </trkpt>
      <trkpt lat="42.74682" lon="0.18872">
        <ele>1883</ele>
        <time>2019-02-27T08:55:18Z</time>
      </trkpt>
      <trkpt lat="42.74682" lon="0.18872">
        <ele>1884</ele>
        <time>2019-02-27T08:55:19Z</time>
      </trkpt>
      <trkpt lat="42.74682" lon="0.18858">
        <ele>1884</ele>
        <time>2019-02-27T08:55:20Z</time>
      </trkpt>
      <trkpt lat="42.74682" lon="0.18858">
        <ele>1884</ele>
        <time>2019-02-27T08:55:21Z</time>
      </trkpt>
      <trkpt lat="42.74682" lon="0.18858">
        <ele>1884</ele>
        <time>2019-02-27T08:55:22Z</time>
      </trkpt>
      <trkpt lat="42.74682" lon="0.18858">
        <ele>1884</ele>
        <time>2019-02-27T08:55:23Z</time>
      </trkpt>
      <trkpt lat="42.74682" lon="0.18858">
        <ele>1884</ele>
        <time>2019-02-27T08:55:24Z</time>
      </trkpt>
      <trkpt lat="42.74682" lon="0.18858">
        <ele>1884</ele>
        <time>2019-02-27T08:55:25Z</time>
      </trkpt>
      <trkpt lat="42.74682" lon="0.18858">
        <ele>1884</ele>
        <time>2019-02-27T08:55:26Z</time>
      </trkpt>
      <trkpt lat="42.74682" lon="0.18858">
        <ele>1884</ele>
        <time>2019-02-27T08:55:27Z</time>
      </trkpt>
      <trkpt lat="42.74682" lon="0.18858">
        <ele>1885</ele>
        <time>2019-02-27T08:55:28Z</time>
      </trkpt>
      <trkpt lat="42.74682" lon="0.18858">
        <ele>1885</ele>
        <time>2019-02-27T08:55:29Z</time>
      </trkpt>
      <trkpt lat="42.74682" lon="0.18858">
        <ele>1885</ele>
        <time>2019-02-27T08:55:30Z</time>
      </trkpt>
      <trkpt lat="42.74682" lon="0.18858">
        <ele>1885</ele>
        <time>2019-02-27T08:55:31Z</time>
      </trkpt>
      <trkpt lat="42.74679" lon="0.18847">
        <ele>1885</ele>
        <time>2019-02-27T08:55:32Z</time>
      </trkpt>
      <trkpt lat="42.74679" lon="0.18847">
        <ele>1885</ele>
        <time>2019-02-27T08:55:33Z</time>
      </trkpt>
      <trkpt lat="42.74679" lon="0.18847">
        <ele>1885</ele>
        <time>2019-02-27T08:55:34Z</time>
      </trkpt>
      <trkpt lat="42.74679" lon="0.18847">
        <ele>1886</ele>
        <time>2019-02-27T08:55:35Z</time>
      </trkpt>
      <trkpt lat="42.74679" lon="0.18847">
        <ele>1886</ele>
        <time>2019-02-27T08:55:36Z</time>
      </trkpt>
      <trkpt lat="42.74679" lon="0.18847">
        <ele>1886</ele>
        <time>2019-02-27T08:55:37Z</time>
      </trkpt>
      <trkpt lat="42.74679" lon="0.18847">
        <ele>1886</ele>
        <time>2019-02-27T08:55:38Z</time>
      </trkpt>
      <trkpt lat="42.74679" lon="0.18847">
        <ele>1886</ele>
        <time>2019-02-27T08:55:39Z</time>
      </trkpt>
      <trkpt lat="42.74679" lon="0.18847">
        <ele>1886</ele>
        <time>2019-02-27T08:55:40Z</time>
      </trkpt>
      <trkpt lat="42.74679" lon="0.18847">
        <ele>1886</ele>
        <time>2019-02-27T08:55:41Z</time>
      </trkpt>
      <trkpt lat="42.74679" lon="0.18847">
        <ele>1886</ele>
        <time>2019-02-27T08:55:42Z</time>
      </trkpt>
      <trkpt lat="42.74679" lon="0.18847">
        <ele>1886</ele>
        <time>2019-02-27T08:55:43Z</time>
      </trkpt>
      <trkpt lat="42.74679" lon="0.18847">
        <ele>1886</ele>
        <time>2019-02-27T08:55:44Z</time>
      </trkpt>
      <trkpt lat="42.74679" lon="0.18847">
        <ele>1887</ele>
        <time>2019-02-27T08:55:45Z</time>
      </trkpt>
      <trkpt lat="42.74679" lon="0.18847">
        <ele>1887</ele>
        <time>2019-02-27T08:55:46Z</time>
      </trkpt>
      <trkpt lat="42.74679" lon="0.18847">
        <ele>1887</ele>
        <time>2019-02-27T08:55:47Z</time>
      </trkpt>
      <trkpt lat="42.74679" lon="0.18847">
        <ele>1887</ele>
        <time>2019-02-27T08:55:48Z</time>
      </trkpt>
      <trkpt lat="42.74679" lon="0.18847">
        <ele>1887</ele>
        <time>2019-02-27T08:55:49Z</time>
      </trkpt>
      <trkpt lat="42.74679" lon="0.18847">
        <ele>1888</ele>
        <time>2019-02-27T08:55:50Z</time>
      </trkpt>
      <trkpt lat="42.74675" lon="0.18836">
        <ele>1888</ele>
        <time>2019-02-27T08:55:51Z</time>
      </trkpt>
      <trkpt lat="42.74675" lon="0.18836">
        <ele>1889</ele>
        <time>2019-02-27T08:55:52Z</time>
      </trkpt>
      <trkpt lat="42.74675" lon="0.18836">
        <ele>1889</ele>
        <time>2019-02-27T08:55:53Z</time>
      </trkpt>
      <trkpt lat="42.74675" lon="0.18836">
        <ele>1889</ele>
        <time>2019-02-27T08:55:54Z</time>
      </trkpt>
      <trkpt lat="42.74675" lon="0.18836">
        <ele>1889</ele>
        <time>2019-02-27T08:55:55Z</time>
      </trkpt>
      <trkpt lat="42.74675" lon="0.18836">
        <ele>1889</ele>
        <time>2019-02-27T08:55:56Z</time>
      </trkpt>
      <trkpt lat="42.74675" lon="0.18836">
        <ele>1889</ele>
        <time>2019-02-27T08:55:57Z</time>
      </trkpt>
      <trkpt lat="42.74675" lon="0.18836">
        <ele>1889</ele>
        <time>2019-02-27T08:55:58Z</time>
      </trkpt>
      <trkpt lat="42.74675" lon="0.18836">
        <ele>1889</ele>
        <time>2019-02-27T08:55:59Z</time>
      </trkpt>
      <trkpt lat="42.74675" lon="0.18836">
        <ele>1889</ele>
        <time>2019-02-27T08:56:00Z</time>
      </trkpt>
      <trkpt lat="42.74675" lon="0.18836">
        <ele>1889</ele>
        <time>2019-02-27T08:56:01Z</time>
      </trkpt>
      <trkpt lat="42.74675" lon="0.18836">
        <ele>1889</ele>
        <time>2019-02-27T08:56:02Z</time>
      </trkpt>
      <trkpt lat="42.74675" lon="0.18836">
        <ele>1889</ele>
        <time>2019-02-27T08:56:03Z</time>
      </trkpt>
      <trkpt lat="42.74675" lon="0.18836">
        <ele>1889</ele>
        <time>2019-02-27T08:56:04Z</time>
      </trkpt>
      <trkpt lat="42.74675" lon="0.18836">
        <ele>1890</ele>
        <time>2019-02-27T08:56:05Z</time>
      </trkpt>
      <trkpt lat="42.74669" lon="0.18826">
        <ele>1890</ele>
        <time>2019-02-27T08:56:06Z</time>
      </trkpt>
      <trkpt lat="42.74669" lon="0.18826">
        <ele>1890</ele>
        <time>2019-02-27T08:56:07Z</time>
      </trkpt>
      <trkpt lat="42.74669" lon="0.18826">
        <ele>1890</ele>
        <time>2019-02-27T08:56:08Z</time>
      </trkpt>
      <trkpt lat="42.74669" lon="0.18826">
        <ele>1890</ele>
        <time>2019-02-27T08:56:09Z</time>
      </trkpt>
      <trkpt lat="42.74669" lon="0.18826">
        <ele>1891</ele>
        <time>2019-02-27T08:56:10Z</time>
      </trkpt>
      <trkpt lat="42.74669" lon="0.18826">
        <ele>1891</ele>
        <time>2019-02-27T08:56:11Z</time>
      </trkpt>
      <trkpt lat="42.74669" lon="0.18826">
        <ele>1891</ele>
        <time>2019-02-27T08:56:12Z</time>
      </trkpt>
      <trkpt lat="42.74669" lon="0.18826">
        <ele>1891</ele>
        <time>2019-02-27T08:56:13Z</time>
      </trkpt>
      <trkpt lat="42.74669" lon="0.18826">
        <ele>1891</ele>
        <time>2019-02-27T08:56:14Z</time>
      </trkpt>
      <trkpt lat="42.74669" lon="0.18826">
        <ele>1891</ele>
        <time>2019-02-27T08:56:15Z</time>
      </trkpt>
      <trkpt lat="42.74669" lon="0.18826">
        <ele>1891</ele>
        <time>2019-02-27T08:56:16Z</time>
      </trkpt>
      <trkpt lat="42.74669" lon="0.18826">
        <ele>1891</ele>
        <time>2019-02-27T08:56:17Z</time>
      </trkpt>
      <trkpt lat="42.74669" lon="0.18826">
        <ele>1891</ele>
        <time>2019-02-27T08:56:18Z</time>
      </trkpt>
      <trkpt lat="42.74669" lon="0.18826">
        <ele>1891</ele>
        <time>2019-02-27T08:56:19Z</time>
      </trkpt>
      <trkpt lat="42.74669" lon="0.18826">
        <ele>1891</ele>
        <time>2019-02-27T08:56:20Z</time>
      </trkpt>
      <trkpt lat="42.74669" lon="0.18826">
        <ele>1892</ele>
        <time>2019-02-27T08:56:21Z</time>
      </trkpt>
      <trkpt lat="42.74669" lon="0.18826">
        <ele>1892</ele>
        <time>2019-02-27T08:56:22Z</time>
      </trkpt>
      <trkpt lat="42.7466" lon="0.18821">
        <ele>1892</ele>
        <time>2019-02-27T08:56:23Z</time>
      </trkpt>
      <trkpt lat="42.7466" lon="0.18821">
        <ele>1892</ele>
        <time>2019-02-27T08:56:24Z</time>
      </trkpt>
      <trkpt lat="42.7466" lon="0.18821">
        <ele>1892</ele>
        <time>2019-02-27T08:56:25Z</time>
      </trkpt>
      <trkpt lat="42.7466" lon="0.18821">
        <ele>1892</ele>
        <time>2019-02-27T08:56:26Z</time>
      </trkpt>
      <trkpt lat="42.7466" lon="0.18821">
        <ele>1892</ele>
        <time>2019-02-27T08:56:27Z</time>
      </trkpt>
      <trkpt lat="42.7466" lon="0.18821">
        <ele>1892</ele>
        <time>2019-02-27T08:56:28Z</time>
      </trkpt>
      <trkpt lat="42.7466" lon="0.18821">
        <ele>1893</ele>
        <time>2019-02-27T08:56:29Z</time>
      </trkpt>
      <trkpt lat="42.7466" lon="0.18821">
        <ele>1893</ele>
        <time>2019-02-27T08:56:30Z</time>
      </trkpt>
      <trkpt lat="42.7466" lon="0.18821">
        <ele>1893</ele>
        <time>2019-02-27T08:56:31Z</time>
      </trkpt>
      <trkpt lat="42.7466" lon="0.18821">
        <ele>1893</ele>
        <time>2019-02-27T08:56:32Z</time>
      </trkpt>
      <trkpt lat="42.7466" lon="0.18821">
        <ele>1894</ele>
        <time>2019-02-27T08:56:33Z</time>
      </trkpt>
      <trkpt lat="42.7466" lon="0.18821">
        <ele>1894</ele>
        <time>2019-02-27T08:56:34Z</time>
      </trkpt>
      <trkpt lat="42.7466" lon="0.18821">
        <ele>1894</ele>
        <time>2019-02-27T08:56:35Z</time>
      </trkpt>
      <trkpt lat="42.7466" lon="0.18821">
        <ele>1894</ele>
        <time>2019-02-27T08:56:36Z</time>
      </trkpt>
      <trkpt lat="42.7466" lon="0.18821">
        <ele>1894</ele>
        <time>2019-02-27T08:56:37Z</time>
      </trkpt>
      <trkpt lat="42.7466" lon="0.18821">
        <ele>1894</ele>
        <time>2019-02-27T08:56:38Z</time>
      </trkpt>
      <trkpt lat="42.7466" lon="0.18821">
        <ele>1894</ele>
        <time>2019-02-27T08:56:39Z</time>
      </trkpt>
      <trkpt lat="42.74651" lon="0.18816">
        <ele>1894</ele>
        <time>2019-02-27T08:56:40Z</time>
      </trkpt>
      <trkpt lat="42.74651" lon="0.18816">
        <ele>1895</ele>
        <time>2019-02-27T08:56:41Z</time>
      </trkpt>
      <trkpt lat="42.74651" lon="0.18816">
        <ele>1895</ele>
        <time>2019-02-27T08:56:42Z</time>
      </trkpt>
      <trkpt lat="42.74651" lon="0.18816">
        <ele>1895</ele>
        <time>2019-02-27T08:56:43Z</time>
      </trkpt>
      <trkpt lat="42.74651" lon="0.18816">
        <ele>1895</ele>
        <time>2019-02-27T08:56:44Z</time>
      </trkpt>
      <trkpt lat="42.74651" lon="0.18816">
        <ele>1895</ele>
        <time>2019-02-27T08:56:45Z</time>
      </trkpt>
      <trkpt lat="42.74651" lon="0.18816">
        <ele>1895</ele>
        <time>2019-02-27T08:56:46Z</time>
      </trkpt>
      <trkpt lat="42.74651" lon="0.18816">
        <ele>1895</ele>
        <time>2019-02-27T08:56:47Z</time>
      </trkpt>
      <trkpt lat="42.74651" lon="0.18816">
        <ele>1895</ele>
        <time>2019-02-27T08:56:48Z</time>
      </trkpt>
      <trkpt lat="42.74651" lon="0.18816">
        <ele>1895</ele>
        <time>2019-02-27T08:56:49Z</time>
      </trkpt>
      <trkpt lat="42.74651" lon="0.18816">
        <ele>1895</ele>
        <time>2019-02-27T08:56:50Z</time>
      </trkpt>
      <trkpt lat="42.74651" lon="0.18816">
        <ele>1895</ele>
        <time>2019-02-27T08:56:51Z</time>
      </trkpt>
      <trkpt lat="42.74651" lon="0.18816">
        <ele>1896</ele>
        <time>2019-02-27T08:56:52Z</time>
      </trkpt>
      <trkpt lat="42.74651" lon="0.18816">
        <ele>1896</ele>
        <time>2019-02-27T08:56:53Z</time>
      </trkpt>
      <trkpt lat="42.74642" lon="0.18816">
        <ele>1897</ele>
        <time>2019-02-27T08:56:54Z</time>
      </trkpt>
      <trkpt lat="42.74642" lon="0.18816">
        <ele>1897</ele>
        <time>2019-02-27T08:56:55Z</time>
      </trkpt>
      <trkpt lat="42.74642" lon="0.18816">
        <ele>1897</ele>
        <time>2019-02-27T08:56:56Z</time>
      </trkpt>
      <trkpt lat="42.74642" lon="0.18816">
        <ele>1897</ele>
        <time>2019-02-27T08:56:57Z</time>
      </trkpt>
      <trkpt lat="42.74642" lon="0.18816">
        <ele>1897</ele>
        <time>2019-02-27T08:56:58Z</time>
      </trkpt>
      <trkpt lat="42.74642" lon="0.18816">
        <ele>1897</ele>
        <time>2019-02-27T08:56:59Z</time>
      </trkpt>
      <trkpt lat="42.74642" lon="0.18816">
        <ele>1897</ele>
        <time>2019-02-27T08:57:00Z</time>
      </trkpt>
      <trkpt lat="42.74642" lon="0.18816">
        <ele>1897</ele>
        <time>2019-02-27T08:57:01Z</time>
      </trkpt>
      <trkpt lat="42.74642" lon="0.18816">
        <ele>1898</ele>
        <time>2019-02-27T08:57:02Z</time>
      </trkpt>
      <trkpt lat="42.74642" lon="0.18816">
        <ele>1898</ele>
        <time>2019-02-27T08:57:03Z</time>
      </trkpt>
      <trkpt lat="42.74642" lon="0.18816">
        <ele>1898</ele>
        <time>2019-02-27T08:57:04Z</time>
      </trkpt>
      <trkpt lat="42.74642" lon="0.18816">
        <ele>1898</ele>
        <time>2019-02-27T08:57:05Z</time>
      </trkpt>
      <trkpt lat="42.74642" lon="0.18816">
        <ele>1898</ele>
        <time>2019-02-27T08:57:06Z</time>
      </trkpt>
      <trkpt lat="42.74633" lon="0.18815">
        <ele>1898</ele>
        <time>2019-02-27T08:57:07Z</time>
      </trkpt>
      <trkpt lat="42.74633" lon="0.18815">
        <ele>1898</ele>
        <time>2019-02-27T08:57:08Z</time>
      </trkpt>
      <trkpt lat="42.74633" lon="0.18815">
        <ele>1898</ele>
        <time>2019-02-27T08:57:09Z</time>
      </trkpt>
      <trkpt lat="42.74633" lon="0.18815">
        <ele>1899</ele>
        <time>2019-02-27T08:57:10Z</time>
      </trkpt>
      <trkpt lat="42.74633" lon="0.18815">
        <ele>1899</ele>
        <time>2019-02-27T08:57:11Z</time>
      </trkpt>
      <trkpt lat="42.74633" lon="0.18815">
        <ele>1899</ele>
        <time>2019-02-27T08:57:12Z</time>
      </trkpt>
      <trkpt lat="42.74633" lon="0.18815">
        <ele>1899</ele>
        <time>2019-02-27T08:57:13Z</time>
      </trkpt>
      <trkpt lat="42.74633" lon="0.18815">
        <ele>1899</ele>
        <time>2019-02-27T08:57:14Z</time>
      </trkpt>
      <trkpt lat="42.74633" lon="0.18815">
        <ele>1899</ele>
        <time>2019-02-27T08:57:15Z</time>
      </trkpt>
      <trkpt lat="42.74633" lon="0.18815">
        <ele>1899</ele>
        <time>2019-02-27T08:57:16Z</time>
      </trkpt>
      <trkpt lat="42.74633" lon="0.18815">
        <ele>1900</ele>
        <time>2019-02-27T08:57:17Z</time>
      </trkpt>
      <trkpt lat="42.74633" lon="0.18815">
        <ele>1900</ele>
        <time>2019-02-27T08:57:18Z</time>
      </trkpt>
      <trkpt lat="42.74633" lon="0.18815">
        <ele>1900</ele>
        <time>2019-02-27T08:57:19Z</time>
      </trkpt>
      <trkpt lat="42.74633" lon="0.18815">
        <ele>1900</ele>
        <time>2019-02-27T08:57:20Z</time>
      </trkpt>
      <trkpt lat="42.74633" lon="0.18815">
        <ele>1900</ele>
        <time>2019-02-27T08:57:21Z</time>
      </trkpt>
      <trkpt lat="42.74624" lon="0.18812">
        <ele>1900</ele>
        <time>2019-02-27T08:57:22Z</time>
      </trkpt>
      <trkpt lat="42.74624" lon="0.18812">
        <ele>1900</ele>
        <time>2019-02-27T08:57:23Z</time>
      </trkpt>
      <trkpt lat="42.74624" lon="0.18812">
        <ele>1900</ele>
        <time>2019-02-27T08:57:24Z</time>
      </trkpt>
      <trkpt lat="42.74624" lon="0.18812">
        <ele>1900</ele>
        <time>2019-02-27T08:57:25Z</time>
      </trkpt>
      <trkpt lat="42.74624" lon="0.18812">
        <ele>1900</ele>
        <time>2019-02-27T08:57:26Z</time>
      </trkpt>
      <trkpt lat="42.74624" lon="0.18812">
        <ele>1900</ele>
        <time>2019-02-27T08:57:27Z</time>
      </trkpt>
      <trkpt lat="42.74624" lon="0.18812">
        <ele>1900</ele>
        <time>2019-02-27T08:57:28Z</time>
      </trkpt>
      <trkpt lat="42.74624" lon="0.18812">
        <ele>1900</ele>
        <time>2019-02-27T08:57:29Z</time>
      </trkpt>
      <trkpt lat="42.74624" lon="0.18812">
        <ele>1901</ele>
        <time>2019-02-27T08:57:30Z</time>
      </trkpt>
      <trkpt lat="42.74624" lon="0.18812">
        <ele>1901</ele>
        <time>2019-02-27T08:57:31Z</time>
      </trkpt>
      <trkpt lat="42.74624" lon="0.18812">
        <ele>1901</ele>
        <time>2019-02-27T08:57:32Z</time>
      </trkpt>
      <trkpt lat="42.74624" lon="0.18812">
        <ele>1901</ele>
        <time>2019-02-27T08:57:33Z</time>
      </trkpt>
      <trkpt lat="42.74624" lon="0.18812">
        <ele>1901</ele>
        <time>2019-02-27T08:57:34Z</time>
      </trkpt>
      <trkpt lat="42.74624" lon="0.18812">
        <ele>1901</ele>
        <time>2019-02-27T08:57:35Z</time>
      </trkpt>
      <trkpt lat="42.74624" lon="0.18812">
        <ele>1901</ele>
        <time>2019-02-27T08:57:36Z</time>
      </trkpt>
      <trkpt lat="42.74624" lon="0.18812">
        <ele>1901</ele>
        <time>2019-02-27T08:57:37Z</time>
      </trkpt>
      <trkpt lat="42.74619" lon="0.188">
        <ele>1901</ele>
        <time>2019-02-27T08:57:38Z</time>
      </trkpt>
      <trkpt lat="42.74619" lon="0.188">
        <ele>1902</ele>
        <time>2019-02-27T08:57:39Z</time>
      </trkpt>
      <trkpt lat="42.74619" lon="0.188">
        <ele>1902</ele>
        <time>2019-02-27T08:57:40Z</time>
      </trkpt>
      <trkpt lat="42.74619" lon="0.188">
        <ele>1902</ele>
        <time>2019-02-27T08:57:41Z</time>
      </trkpt>
      <trkpt lat="42.74619" lon="0.188">
        <ele>1902</ele>
        <time>2019-02-27T08:57:42Z</time>
      </trkpt>
      <trkpt lat="42.74619" lon="0.188">
        <ele>1902</ele>
        <time>2019-02-27T08:57:43Z</time>
      </trkpt>
      <trkpt lat="42.74619" lon="0.188">
        <ele>1902</ele>
        <time>2019-02-27T08:57:44Z</time>
      </trkpt>
      <trkpt lat="42.74619" lon="0.188">
        <ele>1902</ele>
        <time>2019-02-27T08:57:45Z</time>
      </trkpt>
      <trkpt lat="42.74619" lon="0.188">
        <ele>1903</ele>
        <time>2019-02-27T08:57:46Z</time>
      </trkpt>
      <trkpt lat="42.74619" lon="0.188">
        <ele>1903</ele>
        <time>2019-02-27T08:57:47Z</time>
      </trkpt>
      <trkpt lat="42.74619" lon="0.188">
        <ele>1903</ele>
        <time>2019-02-27T08:57:48Z</time>
      </trkpt>
      <trkpt lat="42.74619" lon="0.188">
        <ele>1903</ele>
        <time>2019-02-27T08:57:49Z</time>
      </trkpt>
      <trkpt lat="42.74619" lon="0.188">
        <ele>1903</ele>
        <time>2019-02-27T08:57:50Z</time>
      </trkpt>
      <trkpt lat="42.74619" lon="0.188">
        <ele>1903</ele>
        <time>2019-02-27T08:57:51Z</time>
      </trkpt>
      <trkpt lat="42.74619" lon="0.188">
        <ele>1903</ele>
        <time>2019-02-27T08:57:52Z</time>
      </trkpt>
      <trkpt lat="42.7462" lon="0.18787">
        <ele>1904</ele>
        <time>2019-02-27T08:57:53Z</time>
      </trkpt>
      <trkpt lat="42.7462" lon="0.18787">
        <ele>1904</ele>
        <time>2019-02-27T08:57:54Z</time>
      </trkpt>
      <trkpt lat="42.7462" lon="0.18787">
        <ele>1904</ele>
        <time>2019-02-27T08:57:55Z</time>
      </trkpt>
      <trkpt lat="42.7462" lon="0.18787">
        <ele>1904</ele>
        <time>2019-02-27T08:57:56Z</time>
      </trkpt>
      <trkpt lat="42.7462" lon="0.18787">
        <ele>1904</ele>
        <time>2019-02-27T08:57:57Z</time>
      </trkpt>
      <trkpt lat="42.7462" lon="0.18787">
        <ele>1904</ele>
        <time>2019-02-27T08:57:58Z</time>
      </trkpt>
      <trkpt lat="42.7462" lon="0.18787">
        <ele>1904</ele>
        <time>2019-02-27T08:57:59Z</time>
      </trkpt>
      <trkpt lat="42.7462" lon="0.18787">
        <ele>1904</ele>
        <time>2019-02-27T08:58:00Z</time>
      </trkpt>
      <trkpt lat="42.7462" lon="0.18787">
        <ele>1904</ele>
        <time>2019-02-27T08:58:01Z</time>
      </trkpt>
      <trkpt lat="42.7462" lon="0.18787">
        <ele>1904</ele>
        <time>2019-02-27T08:58:02Z</time>
      </trkpt>
      <trkpt lat="42.7462" lon="0.18787">
        <ele>1904</ele>
        <time>2019-02-27T08:58:03Z</time>
      </trkpt>
      <trkpt lat="42.7462" lon="0.18787">
        <ele>1904</ele>
        <time>2019-02-27T08:58:04Z</time>
      </trkpt>
      <trkpt lat="42.7462" lon="0.18787">
        <ele>1904</ele>
        <time>2019-02-27T08:58:05Z</time>
      </trkpt>
      <trkpt lat="42.7462" lon="0.18787">
        <ele>1905</ele>
        <time>2019-02-27T08:58:06Z</time>
      </trkpt>
      <trkpt lat="42.7462" lon="0.18787">
        <ele>1905</ele>
        <time>2019-02-27T08:58:07Z</time>
      </trkpt>
      <trkpt lat="42.74612" lon="0.18781">
        <ele>1905</ele>
        <time>2019-02-27T08:58:08Z</time>
      </trkpt>
      <trkpt lat="42.74612" lon="0.18781">
        <ele>1905</ele>
        <time>2019-02-27T08:58:09Z</time>
      </trkpt>
      <trkpt lat="42.74612" lon="0.18781">
        <ele>1905</ele>
        <time>2019-02-27T08:58:10Z</time>
      </trkpt>
      <trkpt lat="42.74612" lon="0.18781">
        <ele>1905</ele>
        <time>2019-02-27T08:58:11Z</time>
      </trkpt>
      <trkpt lat="42.74612" lon="0.18781">
        <ele>1905</ele>
        <time>2019-02-27T08:58:12Z</time>
      </trkpt>
      <trkpt lat="42.74612" lon="0.18781">
        <ele>1905</ele>
        <time>2019-02-27T08:58:13Z</time>
      </trkpt>
      <trkpt lat="42.74612" lon="0.18781">
        <ele>1905</ele>
        <time>2019-02-27T08:58:14Z</time>
      </trkpt>
      <trkpt lat="42.74612" lon="0.18781">
        <ele>1906</ele>
        <time>2019-02-27T08:58:15Z</time>
      </trkpt>
      <trkpt lat="42.74612" lon="0.18781">
        <ele>1906</ele>
        <time>2019-02-27T08:58:16Z</time>
      </trkpt>
      <trkpt lat="42.74612" lon="0.18781">
        <ele>1906</ele>
        <time>2019-02-27T08:58:17Z</time>
      </trkpt>
      <trkpt lat="42.74602" lon="0.18781">
        <ele>1906</ele>
        <time>2019-02-27T08:58:18Z</time>
      </trkpt>
      <trkpt lat="42.74602" lon="0.18781">
        <ele>1906</ele>
        <time>2019-02-27T08:58:19Z</time>
      </trkpt>
      <trkpt lat="42.74602" lon="0.18781">
        <ele>1906</ele>
        <time>2019-02-27T08:58:20Z</time>
      </trkpt>
      <trkpt lat="42.74602" lon="0.18781">
        <ele>1907</ele>
        <time>2019-02-27T08:58:21Z</time>
      </trkpt>
      <trkpt lat="42.74602" lon="0.18781">
        <ele>1907</ele>
        <time>2019-02-27T08:58:22Z</time>
      </trkpt>
      <trkpt lat="42.74602" lon="0.18781">
        <ele>1907</ele>
        <time>2019-02-27T08:58:23Z</time>
      </trkpt>
      <trkpt lat="42.74602" lon="0.18781">
        <ele>1907</ele>
        <time>2019-02-27T08:58:24Z</time>
      </trkpt>
      <trkpt lat="42.74602" lon="0.18781">
        <ele>1907</ele>
        <time>2019-02-27T08:58:25Z</time>
      </trkpt>
      <trkpt lat="42.74602" lon="0.18781">
        <ele>1907</ele>
        <time>2019-02-27T08:58:26Z</time>
      </trkpt>
      <trkpt lat="42.74602" lon="0.18781">
        <ele>1907</ele>
        <time>2019-02-27T08:58:27Z</time>
      </trkpt>
      <trkpt lat="42.74602" lon="0.18781">
        <ele>1907</ele>
        <time>2019-02-27T08:58:28Z</time>
      </trkpt>
      <trkpt lat="42.74602" lon="0.18781">
        <ele>1907</ele>
        <time>2019-02-27T08:58:29Z</time>
      </trkpt>
      <trkpt lat="42.74602" lon="0.18781">
        <ele>1907</ele>
        <time>2019-02-27T08:58:30Z</time>
      </trkpt>
      <trkpt lat="42.74593" lon="0.18777">
        <ele>1908</ele>
        <time>2019-02-27T08:58:31Z</time>
      </trkpt>
      <trkpt lat="42.74593" lon="0.18777">
        <ele>1908</ele>
        <time>2019-02-27T08:58:32Z</time>
      </trkpt>
      <trkpt lat="42.74593" lon="0.18777">
        <ele>1908</ele>
        <time>2019-02-27T08:58:33Z</time>
      </trkpt>
      <trkpt lat="42.74593" lon="0.18777">
        <ele>1908</ele>
        <time>2019-02-27T08:58:34Z</time>
      </trkpt>
      <trkpt lat="42.74593" lon="0.18777">
        <ele>1908</ele>
        <time>2019-02-27T08:58:35Z</time>
      </trkpt>
      <trkpt lat="42.74593" lon="0.18777">
        <ele>1908</ele>
        <time>2019-02-27T08:58:36Z</time>
      </trkpt>
      <trkpt lat="42.74593" lon="0.18777">
        <ele>1908</ele>
        <time>2019-02-27T08:58:37Z</time>
      </trkpt>
      <trkpt lat="42.74593" lon="0.18777">
        <ele>1908</ele>
        <time>2019-02-27T08:58:38Z</time>
      </trkpt>
      <trkpt lat="42.74593" lon="0.18777">
        <ele>1908</ele>
        <time>2019-02-27T08:58:39Z</time>
      </trkpt>
      <trkpt lat="42.74593" lon="0.18777">
        <ele>1909</ele>
        <time>2019-02-27T08:58:40Z</time>
      </trkpt>
      <trkpt lat="42.74593" lon="0.18777">
        <ele>1909</ele>
        <time>2019-02-27T08:58:41Z</time>
      </trkpt>
      <trkpt lat="42.74593" lon="0.18777">
        <ele>1909</ele>
        <time>2019-02-27T08:58:42Z</time>
      </trkpt>
      <trkpt lat="42.74593" lon="0.18777">
        <ele>1909</ele>
        <time>2019-02-27T08:58:43Z</time>
      </trkpt>
      <trkpt lat="42.74593" lon="0.18777">
        <ele>1909</ele>
        <time>2019-02-27T08:58:44Z</time>
      </trkpt>
      <trkpt lat="42.74593" lon="0.18777">
        <ele>1909</ele>
        <time>2019-02-27T08:58:45Z</time>
      </trkpt>
      <trkpt lat="42.74593" lon="0.18777">
        <ele>1909</ele>
        <time>2019-02-27T08:58:46Z</time>
      </trkpt>
      <trkpt lat="42.74585" lon="0.1877">
        <ele>1909</ele>
        <time>2019-02-27T08:58:47Z</time>
      </trkpt>
      <trkpt lat="42.74585" lon="0.1877">
        <ele>1909</ele>
        <time>2019-02-27T08:58:48Z</time>
      </trkpt>
      <trkpt lat="42.74585" lon="0.1877">
        <ele>1910</ele>
        <time>2019-02-27T08:58:49Z</time>
      </trkpt>
      <trkpt lat="42.74585" lon="0.1877">
        <ele>1910</ele>
        <time>2019-02-27T08:58:50Z</time>
      </trkpt>
      <trkpt lat="42.74585" lon="0.1877">
        <ele>1910</ele>
        <time>2019-02-27T08:58:51Z</time>
      </trkpt>
      <trkpt lat="42.74585" lon="0.1877">
        <ele>1910</ele>
        <time>2019-02-27T08:58:52Z</time>
      </trkpt>
      <trkpt lat="42.74585" lon="0.1877">
        <ele>1910</ele>
        <time>2019-02-27T08:58:53Z</time>
      </trkpt>
      <trkpt lat="42.74585" lon="0.1877">
        <ele>1910</ele>
        <time>2019-02-27T08:58:54Z</time>
      </trkpt>
      <trkpt lat="42.74585" lon="0.1877">
        <ele>1910</ele>
        <time>2019-02-27T08:58:55Z</time>
      </trkpt>
      <trkpt lat="42.74585" lon="0.1877">
        <ele>1910</ele>
        <time>2019-02-27T08:58:56Z</time>
      </trkpt>
      <trkpt lat="42.74585" lon="0.1877">
        <ele>1910</ele>
        <time>2019-02-27T08:58:57Z</time>
      </trkpt>
      <trkpt lat="42.74585" lon="0.1877">
        <ele>1910</ele>
        <time>2019-02-27T08:58:58Z</time>
      </trkpt>
      <trkpt lat="42.74585" lon="0.1877">
        <ele>1911</ele>
        <time>2019-02-27T08:58:59Z</time>
      </trkpt>
      <trkpt lat="42.74585" lon="0.1877">
        <ele>1911</ele>
        <time>2019-02-27T08:59:00Z</time>
      </trkpt>
      <trkpt lat="42.74576" lon="0.18771">
        <ele>1911</ele>
        <time>2019-02-27T08:59:01Z</time>
      </trkpt>
      <trkpt lat="42.74576" lon="0.18771">
        <ele>1912</ele>
        <time>2019-02-27T08:59:02Z</time>
      </trkpt>
      <trkpt lat="42.74576" lon="0.18771">
        <ele>1912</ele>
        <time>2019-02-27T08:59:03Z</time>
      </trkpt>
      <trkpt lat="42.74576" lon="0.18771">
        <ele>1912</ele>
        <time>2019-02-27T08:59:04Z</time>
      </trkpt>
      <trkpt lat="42.74576" lon="0.18771">
        <ele>1912</ele>
        <time>2019-02-27T08:59:05Z</time>
      </trkpt>
      <trkpt lat="42.74576" lon="0.18771">
        <ele>1912</ele>
        <time>2019-02-27T08:59:06Z</time>
      </trkpt>
      <trkpt lat="42.74576" lon="0.18771">
        <ele>1912</ele>
        <time>2019-02-27T08:59:07Z</time>
      </trkpt>
      <trkpt lat="42.74576" lon="0.18771">
        <ele>1912</ele>
        <time>2019-02-27T08:59:08Z</time>
      </trkpt>
      <trkpt lat="42.74576" lon="0.18771">
        <ele>1913</ele>
        <time>2019-02-27T08:59:09Z</time>
      </trkpt>
      <trkpt lat="42.74576" lon="0.18771">
        <ele>1913</ele>
        <time>2019-02-27T08:59:10Z</time>
      </trkpt>
      <trkpt lat="42.74576" lon="0.18771">
        <ele>1912</ele>
        <time>2019-02-27T08:59:11Z</time>
      </trkpt>
      <trkpt lat="42.74576" lon="0.18771">
        <ele>1912</ele>
        <time>2019-02-27T08:59:12Z</time>
      </trkpt>
      <trkpt lat="42.74576" lon="0.18771">
        <ele>1912</ele>
        <time>2019-02-27T08:59:13Z</time>
      </trkpt>
      <trkpt lat="42.74576" lon="0.18771">
        <ele>1912</ele>
        <time>2019-02-27T08:59:14Z</time>
      </trkpt>
      <trkpt lat="42.74568" lon="0.18766">
        <ele>1913</ele>
        <time>2019-02-27T08:59:15Z</time>
      </trkpt>
      <trkpt lat="42.74568" lon="0.18766">
        <ele>1913</ele>
        <time>2019-02-27T08:59:16Z</time>
      </trkpt>
      <trkpt lat="42.74568" lon="0.18766">
        <ele>1913</ele>
        <time>2019-02-27T08:59:17Z</time>
      </trkpt>
      <trkpt lat="42.74568" lon="0.18766">
        <ele>1913</ele>
        <time>2019-02-27T08:59:18Z</time>
      </trkpt>
      <trkpt lat="42.74568" lon="0.18766">
        <ele>1913</ele>
        <time>2019-02-27T08:59:19Z</time>
      </trkpt>
      <trkpt lat="42.74568" lon="0.18766">
        <ele>1913</ele>
        <time>2019-02-27T08:59:20Z</time>
      </trkpt>
      <trkpt lat="42.74568" lon="0.18766">
        <ele>1913</ele>
        <time>2019-02-27T08:59:21Z</time>
      </trkpt>
      <trkpt lat="42.74568" lon="0.18766">
        <ele>1914</ele>
        <time>2019-02-27T08:59:22Z</time>
      </trkpt>
      <trkpt lat="42.74568" lon="0.18766">
        <ele>1914</ele>
        <time>2019-02-27T08:59:23Z</time>
      </trkpt>
      <trkpt lat="42.74568" lon="0.18766">
        <ele>1914</ele>
        <time>2019-02-27T08:59:24Z</time>
      </trkpt>
      <trkpt lat="42.74568" lon="0.18766">
        <ele>1914</ele>
        <time>2019-02-27T08:59:25Z</time>
      </trkpt>
      <trkpt lat="42.74568" lon="0.18766">
        <ele>1914</ele>
        <time>2019-02-27T08:59:26Z</time>
      </trkpt>
      <trkpt lat="42.74562" lon="0.18756">
        <ele>1914</ele>
        <time>2019-02-27T08:59:27Z</time>
      </trkpt>
      <trkpt lat="42.74562" lon="0.18756">
        <ele>1914</ele>
        <time>2019-02-27T08:59:28Z</time>
      </trkpt>
      <trkpt lat="42.74562" lon="0.18756">
        <ele>1914</ele>
        <time>2019-02-27T08:59:29Z</time>
      </trkpt>
      <trkpt lat="42.74562" lon="0.18756">
        <ele>1914</ele>
        <time>2019-02-27T08:59:30Z</time>
      </trkpt>
      <trkpt lat="42.74562" lon="0.18756">
        <ele>1915</ele>
        <time>2019-02-27T08:59:31Z</time>
      </trkpt>
      <trkpt lat="42.74562" lon="0.18756">
        <ele>1915</ele>
        <time>2019-02-27T08:59:32Z</time>
      </trkpt>
      <trkpt lat="42.74562" lon="0.18756">
        <ele>1915</ele>
        <time>2019-02-27T08:59:33Z</time>
      </trkpt>
      <trkpt lat="42.74562" lon="0.18756">
        <ele>1915</ele>
        <time>2019-02-27T08:59:34Z</time>
      </trkpt>
      <trkpt lat="42.74562" lon="0.18756">
        <ele>1915</ele>
        <time>2019-02-27T08:59:35Z</time>
      </trkpt>
      <trkpt lat="42.74562" lon="0.18756">
        <ele>1915</ele>
        <time>2019-02-27T08:59:36Z</time>
      </trkpt>
      <trkpt lat="42.74562" lon="0.18756">
        <ele>1915</ele>
        <time>2019-02-27T08:59:37Z</time>
      </trkpt>
      <trkpt lat="42.74562" lon="0.18756">
        <ele>1915</ele>
        <time>2019-02-27T08:59:38Z</time>
      </trkpt>
      <trkpt lat="42.74552" lon="0.18755">
        <ele>1915</ele>
        <time>2019-02-27T08:59:39Z</time>
      </trkpt>
      <trkpt lat="42.74552" lon="0.18755">
        <ele>1915</ele>
        <time>2019-02-27T08:59:40Z</time>
      </trkpt>
      <trkpt lat="42.74552" lon="0.18755">
        <ele>1915</ele>
        <time>2019-02-27T08:59:41Z</time>
      </trkpt>
      <trkpt lat="42.74552" lon="0.18755">
        <ele>1916</ele>
        <time>2019-02-27T08:59:42Z</time>
      </trkpt>
      <trkpt lat="42.74552" lon="0.18755">
        <ele>1916</ele>
        <time>2019-02-27T08:59:43Z</time>
      </trkpt>
      <trkpt lat="42.74552" lon="0.18755">
        <ele>1916</ele>
        <time>2019-02-27T08:59:44Z</time>
      </trkpt>
      <trkpt lat="42.74552" lon="0.18755">
        <ele>1917</ele>
        <time>2019-02-27T08:59:45Z</time>
      </trkpt>
      <trkpt lat="42.74552" lon="0.18755">
        <ele>1917</ele>
        <time>2019-02-27T08:59:46Z</time>
      </trkpt>
      <trkpt lat="42.74552" lon="0.18755">
        <ele>1917</ele>
        <time>2019-02-27T08:59:47Z</time>
      </trkpt>
      <trkpt lat="42.74543" lon="0.18755">
        <ele>1917</ele>
        <time>2019-02-27T08:59:48Z</time>
      </trkpt>
      <trkpt lat="42.74543" lon="0.18755">
        <ele>1917</ele>
        <time>2019-02-27T08:59:49Z</time>
      </trkpt>
      <trkpt lat="42.74543" lon="0.18755">
        <ele>1917</ele>
        <time>2019-02-27T08:59:50Z</time>
      </trkpt>
      <trkpt lat="42.74543" lon="0.18755">
        <ele>1918</ele>
        <time>2019-02-27T08:59:51Z</time>
      </trkpt>
      <trkpt lat="42.74543" lon="0.18755">
        <ele>1918</ele>
        <time>2019-02-27T08:59:52Z</time>
      </trkpt>
      <trkpt lat="42.74543" lon="0.18755">
        <ele>1918</ele>
        <time>2019-02-27T08:59:53Z</time>
      </trkpt>
      <trkpt lat="42.74543" lon="0.18755">
        <ele>1918</ele>
        <time>2019-02-27T08:59:54Z</time>
      </trkpt>
      <trkpt lat="42.74543" lon="0.18755">
        <ele>1918</ele>
        <time>2019-02-27T08:59:55Z</time>
      </trkpt>
      <trkpt lat="42.74543" lon="0.18755">
        <ele>1918</ele>
        <time>2019-02-27T08:59:56Z</time>
      </trkpt>
      <trkpt lat="42.7454" lon="0.18742">
        <ele>1918</ele>
        <time>2019-02-27T08:59:57Z</time>
      </trkpt>
      <trkpt lat="42.7454" lon="0.18742">
        <ele>1918</ele>
        <time>2019-02-27T08:59:58Z</time>
      </trkpt>
      <trkpt lat="42.7454" lon="0.18742">
        <ele>1918</ele>
        <time>2019-02-27T08:59:59Z</time>
      </trkpt>
      <trkpt lat="42.7454" lon="0.18742">
        <ele>1918</ele>
        <time>2019-02-27T09:00:00Z</time>
      </trkpt>
      <trkpt lat="42.7454" lon="0.18742">
        <ele>1919</ele>
        <time>2019-02-27T09:00:01Z</time>
      </trkpt>
      <trkpt lat="42.7454" lon="0.18742">
        <ele>1919</ele>
        <time>2019-02-27T09:00:02Z</time>
      </trkpt>
      <trkpt lat="42.7454" lon="0.18742">
        <ele>1919</ele>
        <time>2019-02-27T09:00:03Z</time>
      </trkpt>
      <trkpt lat="42.7454" lon="0.18742">
        <ele>1919</ele>
        <time>2019-02-27T09:00:04Z</time>
      </trkpt>
      <trkpt lat="42.7454" lon="0.18742">
        <ele>1919</ele>
        <time>2019-02-27T09:00:05Z</time>
      </trkpt>
      <trkpt lat="42.7454" lon="0.18742">
        <ele>1919</ele>
        <time>2019-02-27T09:00:06Z</time>
      </trkpt>
      <trkpt lat="42.7454" lon="0.18742">
        <ele>1919</ele>
        <time>2019-02-27T09:00:07Z</time>
      </trkpt>
      <trkpt lat="42.7454" lon="0.18742">
        <ele>1919</ele>
        <time>2019-02-27T09:00:08Z</time>
      </trkpt>
      <trkpt lat="42.7454" lon="0.18742">
        <ele>1919</ele>
        <time>2019-02-27T09:00:09Z</time>
      </trkpt>
      <trkpt lat="42.7454" lon="0.18729">
        <ele>1919</ele>
        <time>2019-02-27T09:00:10Z</time>
      </trkpt>
      <trkpt lat="42.7454" lon="0.18729">
        <ele>1919</ele>
        <time>2019-02-27T09:00:11Z</time>
      </trkpt>
      <trkpt lat="42.7454" lon="0.18729">
        <ele>1919</ele>
        <time>2019-02-27T09:00:12Z</time>
      </trkpt>
      <trkpt lat="42.7454" lon="0.18729">
        <ele>1920</ele>
        <time>2019-02-27T09:00:13Z</time>
      </trkpt>
      <trkpt lat="42.7454" lon="0.18729">
        <ele>1920</ele>
        <time>2019-02-27T09:00:14Z</time>
      </trkpt>
      <trkpt lat="42.7454" lon="0.18729">
        <ele>1920</ele>
        <time>2019-02-27T09:00:15Z</time>
      </trkpt>
      <trkpt lat="42.7454" lon="0.18729">
        <ele>1920</ele>
        <time>2019-02-27T09:00:16Z</time>
      </trkpt>
      <trkpt lat="42.7454" lon="0.18729">
        <ele>1920</ele>
        <time>2019-02-27T09:00:17Z</time>
      </trkpt>
      <trkpt lat="42.7454" lon="0.18729">
        <ele>1920</ele>
        <time>2019-02-27T09:00:18Z</time>
      </trkpt>
      <trkpt lat="42.7454" lon="0.18729">
        <ele>1920</ele>
        <time>2019-02-27T09:00:19Z</time>
      </trkpt>
      <trkpt lat="42.7454" lon="0.18729">
        <ele>1921</ele>
        <time>2019-02-27T09:00:20Z</time>
      </trkpt>
      <trkpt lat="42.7454" lon="0.18729">
        <ele>1921</ele>
        <time>2019-02-27T09:00:21Z</time>
      </trkpt>
      <trkpt lat="42.7454" lon="0.18729">
        <ele>1922</ele>
        <time>2019-02-27T09:00:22Z</time>
      </trkpt>
      <trkpt lat="42.7454" lon="0.18729">
        <ele>1922</ele>
        <time>2019-02-27T09:00:23Z</time>
      </trkpt>
      <trkpt lat="42.7454" lon="0.18729">
        <ele>1922</ele>
        <time>2019-02-27T09:00:24Z</time>
      </trkpt>
      <trkpt lat="42.7454" lon="0.18729">
        <ele>1922</ele>
        <time>2019-02-27T09:00:25Z</time>
      </trkpt>
      <trkpt lat="42.7454" lon="0.18729">
        <ele>1922</ele>
        <time>2019-02-27T09:00:26Z</time>
      </trkpt>
      <trkpt lat="42.74536" lon="0.18717">
        <ele>1922</ele>
        <time>2019-02-27T09:00:27Z</time>
      </trkpt>
      <trkpt lat="42.74536" lon="0.18717">
        <ele>1922</ele>
        <time>2019-02-27T09:00:28Z</time>
      </trkpt>
      <trkpt lat="42.74536" lon="0.18717">
        <ele>1922</ele>
        <time>2019-02-27T09:00:29Z</time>
      </trkpt>
      <trkpt lat="42.74536" lon="0.18717">
        <ele>1922</ele>
        <time>2019-02-27T09:00:30Z</time>
      </trkpt>
      <trkpt lat="42.74536" lon="0.18717">
        <ele>1922</ele>
        <time>2019-02-27T09:00:31Z</time>
      </trkpt>
      <trkpt lat="42.74536" lon="0.18717">
        <ele>1922</ele>
        <time>2019-02-27T09:00:32Z</time>
      </trkpt>
      <trkpt lat="42.74536" lon="0.18717">
        <ele>1922</ele>
        <time>2019-02-27T09:00:33Z</time>
      </trkpt>
      <trkpt lat="42.74536" lon="0.18717">
        <ele>1922</ele>
        <time>2019-02-27T09:00:34Z</time>
      </trkpt>
      <trkpt lat="42.74536" lon="0.18717">
        <ele>1922</ele>
        <time>2019-02-27T09:00:35Z</time>
      </trkpt>
      <trkpt lat="42.74536" lon="0.18717">
        <ele>1922</ele>
        <time>2019-02-27T09:00:36Z</time>
      </trkpt>
      <trkpt lat="42.74536" lon="0.18717">
        <ele>1922</ele>
        <time>2019-02-27T09:00:37Z</time>
      </trkpt>
      <trkpt lat="42.74536" lon="0.18717">
        <ele>1922</ele>
        <time>2019-02-27T09:00:38Z</time>
      </trkpt>
      <trkpt lat="42.74536" lon="0.18717">
        <ele>1922</ele>
        <time>2019-02-27T09:00:39Z</time>
      </trkpt>
      <trkpt lat="42.74536" lon="0.18704">
        <ele>1922</ele>
        <time>2019-02-27T09:00:40Z</time>
      </trkpt>
      <trkpt lat="42.74536" lon="0.18704">
        <ele>1923</ele>
        <time>2019-02-27T09:00:41Z</time>
      </trkpt>
      <trkpt lat="42.74536" lon="0.18704">
        <ele>1923</ele>
        <time>2019-02-27T09:00:42Z</time>
      </trkpt>
      <trkpt lat="42.74536" lon="0.18704">
        <ele>1924</ele>
        <time>2019-02-27T09:00:43Z</time>
      </trkpt>
      <trkpt lat="42.74536" lon="0.18704">
        <ele>1924</ele>
        <time>2019-02-27T09:00:44Z</time>
      </trkpt>
      <trkpt lat="42.74536" lon="0.18704">
        <ele>1924</ele>
        <time>2019-02-27T09:00:45Z</time>
      </trkpt>
      <trkpt lat="42.74536" lon="0.18704">
        <ele>1924</ele>
        <time>2019-02-27T09:00:46Z</time>
      </trkpt>
      <trkpt lat="42.74536" lon="0.18704">
        <ele>1924</ele>
        <time>2019-02-27T09:00:47Z</time>
      </trkpt>
      <trkpt lat="42.74536" lon="0.18704">
        <ele>1924</ele>
        <time>2019-02-27T09:00:48Z</time>
      </trkpt>
      <trkpt lat="42.74536" lon="0.18704">
        <ele>1924</ele>
        <time>2019-02-27T09:00:49Z</time>
      </trkpt>
      <trkpt lat="42.74536" lon="0.18704">
        <ele>1924</ele>
        <time>2019-02-27T09:00:50Z</time>
      </trkpt>
      <trkpt lat="42.74536" lon="0.18704">
        <ele>1924</ele>
        <time>2019-02-27T09:00:51Z</time>
      </trkpt>
      <trkpt lat="42.74536" lon="0.18704">
        <ele>1924</ele>
        <time>2019-02-27T09:00:52Z</time>
      </trkpt>
      <trkpt lat="42.74536" lon="0.18704">
        <ele>1924</ele>
        <time>2019-02-27T09:00:53Z</time>
      </trkpt>
      <trkpt lat="42.74536" lon="0.18704">
        <ele>1924</ele>
        <time>2019-02-27T09:00:54Z</time>
      </trkpt>
      <trkpt lat="42.74529" lon="0.18695">
        <ele>1924</ele>
        <time>2019-02-27T09:00:55Z</time>
      </trkpt>
      <trkpt lat="42.74529" lon="0.18695">
        <ele>1925</ele>
        <time>2019-02-27T09:00:56Z</time>
      </trkpt>
      <trkpt lat="42.74529" lon="0.18695">
        <ele>1925</ele>
        <time>2019-02-27T09:00:57Z</time>
      </trkpt>
      <trkpt lat="42.74529" lon="0.18695">
        <ele>1925</ele>
        <time>2019-02-27T09:00:58Z</time>
      </trkpt>
      <trkpt lat="42.74529" lon="0.18695">
        <ele>1925</ele>
        <time>2019-02-27T09:00:59Z</time>
      </trkpt>
      <trkpt lat="42.74529" lon="0.18695">
        <ele>1925</ele>
        <time>2019-02-27T09:01:00Z</time>
      </trkpt>
      <trkpt lat="42.74529" lon="0.18695">
        <ele>1925</ele>
        <time>2019-02-27T09:01:01Z</time>
      </trkpt>
      <trkpt lat="42.74529" lon="0.18695">
        <ele>1925</ele>
        <time>2019-02-27T09:01:02Z</time>
      </trkpt>
      <trkpt lat="42.74529" lon="0.18695">
        <ele>1925</ele>
        <time>2019-02-27T09:01:03Z</time>
      </trkpt>
      <trkpt lat="42.74529" lon="0.18695">
        <ele>1925</ele>
        <time>2019-02-27T09:01:04Z</time>
      </trkpt>
      <trkpt lat="42.74529" lon="0.18695">
        <ele>1925</ele>
        <time>2019-02-27T09:01:05Z</time>
      </trkpt>
      <trkpt lat="42.74529" lon="0.18695">
        <ele>1926</ele>
        <time>2019-02-27T09:01:06Z</time>
      </trkpt>
      <trkpt lat="42.74529" lon="0.18695">
        <ele>1926</ele>
        <time>2019-02-27T09:01:07Z</time>
      </trkpt>
      <trkpt lat="42.74529" lon="0.18695">
        <ele>1926</ele>
        <time>2019-02-27T09:01:08Z</time>
      </trkpt>
      <trkpt lat="42.74527" lon="0.18682">
        <ele>1926</ele>
        <time>2019-02-27T09:01:09Z</time>
      </trkpt>
      <trkpt lat="42.74527" lon="0.18682">
        <ele>1926</ele>
        <time>2019-02-27T09:01:10Z</time>
      </trkpt>
      <trkpt lat="42.74527" lon="0.18682">
        <ele>1926</ele>
        <time>2019-02-27T09:01:11Z</time>
      </trkpt>
      <trkpt lat="42.74527" lon="0.18682">
        <ele>1926</ele>
        <time>2019-02-27T09:01:12Z</time>
      </trkpt>
      <trkpt lat="42.74527" lon="0.18682">
        <ele>1927</ele>
        <time>2019-02-27T09:01:13Z</time>
      </trkpt>
      <trkpt lat="42.74527" lon="0.18682">
        <ele>1927</ele>
        <time>2019-02-27T09:01:14Z</time>
      </trkpt>
      <trkpt lat="42.74527" lon="0.18682">
        <ele>1927</ele>
        <time>2019-02-27T09:01:15Z</time>
      </trkpt>
      <trkpt lat="42.74527" lon="0.18682">
        <ele>1927</ele>
        <time>2019-02-27T09:01:16Z</time>
      </trkpt>
      <trkpt lat="42.74527" lon="0.18682">
        <ele>1927</ele>
        <time>2019-02-27T09:01:17Z</time>
      </trkpt>
      <trkpt lat="42.74527" lon="0.18682">
        <ele>1927</ele>
        <time>2019-02-27T09:01:18Z</time>
      </trkpt>
      <trkpt lat="42.74527" lon="0.18682">
        <ele>1927</ele>
        <time>2019-02-27T09:01:19Z</time>
      </trkpt>
      <trkpt lat="42.74527" lon="0.18682">
        <ele>1928</ele>
        <time>2019-02-27T09:01:20Z</time>
      </trkpt>
      <trkpt lat="42.74529" lon="0.18669">
        <ele>1928</ele>
        <time>2019-02-27T09:01:21Z</time>
      </trkpt>
      <trkpt lat="42.74529" lon="0.18669">
        <ele>1928</ele>
        <time>2019-02-27T09:01:22Z</time>
      </trkpt>
      <trkpt lat="42.74529" lon="0.18669">
        <ele>1928</ele>
        <time>2019-02-27T09:01:23Z</time>
      </trkpt>
      <trkpt lat="42.74529" lon="0.18669">
        <ele>1928</ele>
        <time>2019-02-27T09:01:24Z</time>
      </trkpt>
      <trkpt lat="42.74529" lon="0.18669">
        <ele>1928</ele>
        <time>2019-02-27T09:01:25Z</time>
      </trkpt>
      <trkpt lat="42.74529" lon="0.18669">
        <ele>1928</ele>
        <time>2019-02-27T09:01:26Z</time>
      </trkpt>
      <trkpt lat="42.74529" lon="0.18669">
        <ele>1928</ele>
        <time>2019-02-27T09:01:27Z</time>
      </trkpt>
      <trkpt lat="42.74529" lon="0.18669">
        <ele>1929</ele>
        <time>2019-02-27T09:01:28Z</time>
      </trkpt>
      <trkpt lat="42.74529" lon="0.18669">
        <ele>1929</ele>
        <time>2019-02-27T09:01:29Z</time>
      </trkpt>
      <trkpt lat="42.74529" lon="0.18669">
        <ele>1929</ele>
        <time>2019-02-27T09:01:30Z</time>
      </trkpt>
      <trkpt lat="42.74529" lon="0.18669">
        <ele>1929</ele>
        <time>2019-02-27T09:01:31Z</time>
      </trkpt>
      <trkpt lat="42.74529" lon="0.18669">
        <ele>1929</ele>
        <time>2019-02-27T09:01:32Z</time>
      </trkpt>
      <trkpt lat="42.74529" lon="0.18669">
        <ele>1929</ele>
        <time>2019-02-27T09:01:33Z</time>
      </trkpt>
      <trkpt lat="42.74529" lon="0.18669">
        <ele>1929</ele>
        <time>2019-02-27T09:01:34Z</time>
      </trkpt>
      <trkpt lat="42.74529" lon="0.18669">
        <ele>1929</ele>
        <time>2019-02-27T09:01:35Z</time>
      </trkpt>
      <trkpt lat="42.74529" lon="0.18669">
        <ele>1929</ele>
        <time>2019-02-27T09:01:36Z</time>
      </trkpt>
      <trkpt lat="42.74525" lon="0.18658">
        <ele>1929</ele>
        <time>2019-02-27T09:01:37Z</time>
      </trkpt>
      <trkpt lat="42.74525" lon="0.18658">
        <ele>1929</ele>
        <time>2019-02-27T09:01:38Z</time>
      </trkpt>
      <trkpt lat="42.74525" lon="0.18658">
        <ele>1929</ele>
        <time>2019-02-27T09:01:39Z</time>
      </trkpt>
      <trkpt lat="42.74525" lon="0.18658">
        <ele>1929</ele>
        <time>2019-02-27T09:01:40Z</time>
      </trkpt>
      <trkpt lat="42.74525" lon="0.18658">
        <ele>1930</ele>
        <time>2019-02-27T09:01:41Z</time>
      </trkpt>
      <trkpt lat="42.74525" lon="0.18658">
        <ele>1930</ele>
        <time>2019-02-27T09:01:42Z</time>
      </trkpt>
      <trkpt lat="42.74525" lon="0.18658">
        <ele>1930</ele>
        <time>2019-02-27T09:01:43Z</time>
      </trkpt>
      <trkpt lat="42.74525" lon="0.18658">
        <ele>1930</ele>
        <time>2019-02-27T09:01:44Z</time>
      </trkpt>
      <trkpt lat="42.74525" lon="0.18658">
        <ele>1930</ele>
        <time>2019-02-27T09:01:45Z</time>
      </trkpt>
      <trkpt lat="42.74525" lon="0.18658">
        <ele>1930</ele>
        <time>2019-02-27T09:01:46Z</time>
      </trkpt>
      <trkpt lat="42.74525" lon="0.18658">
        <ele>1930</ele>
        <time>2019-02-27T09:01:47Z</time>
      </trkpt>
      <trkpt lat="42.74525" lon="0.18658">
        <ele>1930</ele>
        <time>2019-02-27T09:01:48Z</time>
      </trkpt>
      <trkpt lat="42.74526" lon="0.18645">
        <ele>1930</ele>
        <time>2019-02-27T09:01:49Z</time>
      </trkpt>
      <trkpt lat="42.74527" lon="0.18643">
        <ele>1931</ele>
        <time>2019-02-27T09:01:50Z</time>
      </trkpt>
      <trkpt lat="42.74529" lon="0.18642">
        <ele>1931</ele>
        <time>2019-02-27T09:01:51Z</time>
      </trkpt>
      <trkpt lat="42.74531" lon="0.18641">
        <ele>1931</ele>
        <time>2019-02-27T09:01:52Z</time>
      </trkpt>
      <trkpt lat="42.74532" lon="0.1864">
        <ele>1931</ele>
        <time>2019-02-27T09:01:53Z</time>
      </trkpt>
      <trkpt lat="42.7454" lon="0.18635">
        <ele>1932</ele>
        <time>2019-02-27T09:01:54Z</time>
      </trkpt>
      <trkpt lat="42.7454" lon="0.18635">
        <ele>1932</ele>
        <time>2019-02-27T09:01:55Z</time>
      </trkpt>
      <trkpt lat="42.7454" lon="0.18635">
        <ele>1932</ele>
        <time>2019-02-27T09:01:56Z</time>
      </trkpt>
      <trkpt lat="42.74549" lon="0.18631">
        <ele>1932</ele>
        <time>2019-02-27T09:01:57Z</time>
      </trkpt>
      <trkpt lat="42.74549" lon="0.18631">
        <ele>1932</ele>
        <time>2019-02-27T09:01:58Z</time>
      </trkpt>
      <trkpt lat="42.74549" lon="0.18631">
        <ele>1932</ele>
        <time>2019-02-27T09:01:59Z</time>
      </trkpt>
      <trkpt lat="42.74549" lon="0.18631">
        <ele>1932</ele>
        <time>2019-02-27T09:02:00Z</time>
      </trkpt>
      <trkpt lat="42.74549" lon="0.18631">
        <ele>1932</ele>
        <time>2019-02-27T09:02:01Z</time>
      </trkpt>
      <trkpt lat="42.74549" lon="0.18631">
        <ele>1932</ele>
        <time>2019-02-27T09:02:02Z</time>
      </trkpt>
      <trkpt lat="42.74549" lon="0.18631">
        <ele>1932</ele>
        <time>2019-02-27T09:02:03Z</time>
      </trkpt>
      <trkpt lat="42.74549" lon="0.18631">
        <ele>1933</ele>
        <time>2019-02-27T09:02:04Z</time>
      </trkpt>
      <trkpt lat="42.74549" lon="0.18631">
        <ele>1933</ele>
        <time>2019-02-27T09:02:05Z</time>
      </trkpt>
      <trkpt lat="42.74549" lon="0.18631">
        <ele>1933</ele>
        <time>2019-02-27T09:02:06Z</time>
      </trkpt>
      <trkpt lat="42.74549" lon="0.18631">
        <ele>1933</ele>
        <time>2019-02-27T09:02:07Z</time>
      </trkpt>
      <trkpt lat="42.74549" lon="0.18631">
        <ele>1933</ele>
        <time>2019-02-27T09:02:08Z</time>
      </trkpt>
      <trkpt lat="42.74549" lon="0.18631">
        <ele>1933</ele>
        <time>2019-02-27T09:02:09Z</time>
      </trkpt>
      <trkpt lat="42.74549" lon="0.18631">
        <ele>1933</ele>
        <time>2019-02-27T09:02:10Z</time>
      </trkpt>
      <trkpt lat="42.74549" lon="0.18631">
        <ele>1933</ele>
        <time>2019-02-27T09:02:11Z</time>
      </trkpt>
      <trkpt lat="42.74549" lon="0.18631">
        <ele>1933</ele>
        <time>2019-02-27T09:02:12Z</time>
      </trkpt>
      <trkpt lat="42.74555" lon="0.1862">
        <ele>1934</ele>
        <time>2019-02-27T09:02:13Z</time>
      </trkpt>
      <trkpt lat="42.74555" lon="0.1862">
        <ele>1934</ele>
        <time>2019-02-27T09:02:14Z</time>
      </trkpt>
      <trkpt lat="42.74555" lon="0.1862">
        <ele>1934</ele>
        <time>2019-02-27T09:02:15Z</time>
      </trkpt>
      <trkpt lat="42.74555" lon="0.1862">
        <ele>1934</ele>
        <time>2019-02-27T09:02:16Z</time>
      </trkpt>
      <trkpt lat="42.74555" lon="0.1862">
        <ele>1934</ele>
        <time>2019-02-27T09:02:17Z</time>
      </trkpt>
      <trkpt lat="42.74555" lon="0.1862">
        <ele>1934</ele>
        <time>2019-02-27T09:02:18Z</time>
      </trkpt>
      <trkpt lat="42.74555" lon="0.1862">
        <ele>1934</ele>
        <time>2019-02-27T09:02:19Z</time>
      </trkpt>
      <trkpt lat="42.74555" lon="0.1862">
        <ele>1934</ele>
        <time>2019-02-27T09:02:20Z</time>
      </trkpt>
      <trkpt lat="42.74555" lon="0.1862">
        <ele>1935</ele>
        <time>2019-02-27T09:02:21Z</time>
      </trkpt>
      <trkpt lat="42.74555" lon="0.1862">
        <ele>1935</ele>
        <time>2019-02-27T09:02:22Z</time>
      </trkpt>
      <trkpt lat="42.74555" lon="0.1862">
        <ele>1935</ele>
        <time>2019-02-27T09:02:23Z</time>
      </trkpt>
      <trkpt lat="42.74555" lon="0.1862">
        <ele>1935</ele>
        <time>2019-02-27T09:02:24Z</time>
      </trkpt>
      <trkpt lat="42.74555" lon="0.1862">
        <ele>1935</ele>
        <time>2019-02-27T09:02:25Z</time>
      </trkpt>
      <trkpt lat="42.74555" lon="0.1862">
        <ele>1935</ele>
        <time>2019-02-27T09:02:26Z</time>
      </trkpt>
      <trkpt lat="42.74555" lon="0.1862">
        <ele>1935</ele>
        <time>2019-02-27T09:02:27Z</time>
      </trkpt>
      <trkpt lat="42.74555" lon="0.1862">
        <ele>1935</ele>
        <time>2019-02-27T09:02:28Z</time>
      </trkpt>
      <trkpt lat="42.74555" lon="0.1862">
        <ele>1936</ele>
        <time>2019-02-27T09:02:29Z</time>
      </trkpt>
      <trkpt lat="42.74555" lon="0.1862">
        <ele>1936</ele>
        <time>2019-02-27T09:02:30Z</time>
      </trkpt>
      <trkpt lat="42.74555" lon="0.1862">
        <ele>1936</ele>
        <time>2019-02-27T09:02:31Z</time>
      </trkpt>
      <trkpt lat="42.74555" lon="0.1862">
        <ele>1936</ele>
        <time>2019-02-27T09:02:32Z</time>
      </trkpt>
      <trkpt lat="42.74555" lon="0.1862">
        <ele>1936</ele>
        <time>2019-02-27T09:02:33Z</time>
      </trkpt>
      <trkpt lat="42.74555" lon="0.1862">
        <ele>1937</ele>
        <time>2019-02-27T09:02:34Z</time>
      </trkpt>
      <trkpt lat="42.74555" lon="0.1862">
        <ele>1937</ele>
        <time>2019-02-27T09:02:35Z</time>
      </trkpt>
      <trkpt lat="42.74555" lon="0.1862">
        <ele>1937</ele>
        <time>2019-02-27T09:02:36Z</time>
      </trkpt>
      <trkpt lat="42.74555" lon="0.1862">
        <ele>1937</ele>
        <time>2019-02-27T09:02:37Z</time>
      </trkpt>
      <trkpt lat="42.74549" lon="0.1861">
        <ele>1937</ele>
        <time>2019-02-27T09:02:38Z</time>
      </trkpt>
      <trkpt lat="42.74549" lon="0.1861">
        <ele>1937</ele>
        <time>2019-02-27T09:02:39Z</time>
      </trkpt>
      <trkpt lat="42.74549" lon="0.1861">
        <ele>1937</ele>
        <time>2019-02-27T09:02:40Z</time>
      </trkpt>
      <trkpt lat="42.74549" lon="0.1861">
        <ele>1937</ele>
        <time>2019-02-27T09:02:41Z</time>
      </trkpt>
      <trkpt lat="42.74549" lon="0.1861">
        <ele>1937</ele>
        <time>2019-02-27T09:02:42Z</time>
      </trkpt>
      <trkpt lat="42.74549" lon="0.1861">
        <ele>1937</ele>
        <time>2019-02-27T09:02:43Z</time>
      </trkpt>
      <trkpt lat="42.74549" lon="0.1861">
        <ele>1937</ele>
        <time>2019-02-27T09:02:44Z</time>
      </trkpt>
      <trkpt lat="42.74549" lon="0.1861">
        <ele>1937</ele>
        <time>2019-02-27T09:02:45Z</time>
      </trkpt>
      <trkpt lat="42.74549" lon="0.1861">
        <ele>1937</ele>
        <time>2019-02-27T09:02:46Z</time>
      </trkpt>
      <trkpt lat="42.74549" lon="0.1861">
        <ele>1937</ele>
        <time>2019-02-27T09:02:47Z</time>
      </trkpt>
      <trkpt lat="42.74549" lon="0.1861">
        <ele>1939</ele>
        <time>2019-02-27T09:02:48Z</time>
      </trkpt>
      <trkpt lat="42.74549" lon="0.1861">
        <ele>1939</ele>
        <time>2019-02-27T09:02:49Z</time>
      </trkpt>
      <trkpt lat="42.74549" lon="0.1861">
        <ele>1939</ele>
        <time>2019-02-27T09:02:50Z</time>
      </trkpt>
      <trkpt lat="42.74549" lon="0.1861">
        <ele>1939</ele>
        <time>2019-02-27T09:02:51Z</time>
      </trkpt>
      <trkpt lat="42.74549" lon="0.1861">
        <ele>1939</ele>
        <time>2019-02-27T09:02:52Z</time>
      </trkpt>
      <trkpt lat="42.74549" lon="0.1861">
        <ele>1939</ele>
        <time>2019-02-27T09:02:53Z</time>
      </trkpt>
      <trkpt lat="42.7454" lon="0.18609">
        <ele>1939</ele>
        <time>2019-02-27T09:02:54Z</time>
      </trkpt>
      <trkpt lat="42.7454" lon="0.18609">
        <ele>1939</ele>
        <time>2019-02-27T09:02:55Z</time>
      </trkpt>
      <trkpt lat="42.7454" lon="0.18609">
        <ele>1939</ele>
        <time>2019-02-27T09:02:56Z</time>
      </trkpt>
      <trkpt lat="42.7454" lon="0.18609">
        <ele>1940</ele>
        <time>2019-02-27T09:02:57Z</time>
      </trkpt>
      <trkpt lat="42.7454" lon="0.18609">
        <ele>1940</ele>
        <time>2019-02-27T09:02:58Z</time>
      </trkpt>
      <trkpt lat="42.7454" lon="0.18609">
        <ele>1940</ele>
        <time>2019-02-27T09:02:59Z</time>
      </trkpt>
      <trkpt lat="42.7454" lon="0.18609">
        <ele>1940</ele>
        <time>2019-02-27T09:03:00Z</time>
      </trkpt>
      <trkpt lat="42.7454" lon="0.18609">
        <ele>1940</ele>
        <time>2019-02-27T09:03:01Z</time>
      </trkpt>
      <trkpt lat="42.7454" lon="0.18609">
        <ele>1940</ele>
        <time>2019-02-27T09:03:02Z</time>
      </trkpt>
      <trkpt lat="42.7454" lon="0.18609">
        <ele>1941</ele>
        <time>2019-02-27T09:03:03Z</time>
      </trkpt>
      <trkpt lat="42.7454" lon="0.18609">
        <ele>1941</ele>
        <time>2019-02-27T09:03:04Z</time>
      </trkpt>
      <trkpt lat="42.7454" lon="0.18609">
        <ele>1941</ele>
        <time>2019-02-27T09:03:05Z</time>
      </trkpt>
      <trkpt lat="42.7454" lon="0.18609">
        <ele>1941</ele>
        <time>2019-02-27T09:03:06Z</time>
      </trkpt>
      <trkpt lat="42.7454" lon="0.18609">
        <ele>1941</ele>
        <time>2019-02-27T09:03:07Z</time>
      </trkpt>
      <trkpt lat="42.7454" lon="0.18609">
        <ele>1941</ele>
        <time>2019-02-27T09:03:08Z</time>
      </trkpt>
      <trkpt lat="42.7453" lon="0.18609">
        <ele>1941</ele>
        <time>2019-02-27T09:03:09Z</time>
      </trkpt>
      <trkpt lat="42.7453" lon="0.18609">
        <ele>1941</ele>
        <time>2019-02-27T09:03:10Z</time>
      </trkpt>
      <trkpt lat="42.7453" lon="0.18609">
        <ele>1942</ele>
        <time>2019-02-27T09:03:11Z</time>
      </trkpt>
      <trkpt lat="42.7453" lon="0.18609">
        <ele>1942</ele>
        <time>2019-02-27T09:03:12Z</time>
      </trkpt>
      <trkpt lat="42.7453" lon="0.18609">
        <ele>1942</ele>
        <time>2019-02-27T09:03:13Z</time>
      </trkpt>
      <trkpt lat="42.7453" lon="0.18609">
        <ele>1942</ele>
        <time>2019-02-27T09:03:14Z</time>
      </trkpt>
      <trkpt lat="42.7453" lon="0.18609">
        <ele>1942</ele>
        <time>2019-02-27T09:03:15Z</time>
      </trkpt>
      <trkpt lat="42.7453" lon="0.18609">
        <ele>1942</ele>
        <time>2019-02-27T09:03:16Z</time>
      </trkpt>
      <trkpt lat="42.7453" lon="0.18609">
        <ele>1942</ele>
        <time>2019-02-27T09:03:17Z</time>
      </trkpt>
      <trkpt lat="42.7453" lon="0.18609">
        <ele>1942</ele>
        <time>2019-02-27T09:03:18Z</time>
      </trkpt>
      <trkpt lat="42.7453" lon="0.18609">
        <ele>1942</ele>
        <time>2019-02-27T09:03:19Z</time>
      </trkpt>
      <trkpt lat="42.7453" lon="0.18609">
        <ele>1943</ele>
        <time>2019-02-27T09:03:20Z</time>
      </trkpt>
      <trkpt lat="42.7453" lon="0.18609">
        <ele>1943</ele>
        <time>2019-02-27T09:03:21Z</time>
      </trkpt>
      <trkpt lat="42.74521" lon="0.18612">
        <ele>1944</ele>
        <time>2019-02-27T09:03:22Z</time>
      </trkpt>
      <trkpt lat="42.74521" lon="0.18612">
        <ele>1944</ele>
        <time>2019-02-27T09:03:23Z</time>
      </trkpt>
      <trkpt lat="42.74521" lon="0.18612">
        <ele>1944</ele>
        <time>2019-02-27T09:03:24Z</time>
      </trkpt>
      <trkpt lat="42.74521" lon="0.18612">
        <ele>1944</ele>
        <time>2019-02-27T09:03:25Z</time>
      </trkpt>
      <trkpt lat="42.74521" lon="0.18612">
        <ele>1945</ele>
        <time>2019-02-27T09:03:26Z</time>
      </trkpt>
      <trkpt lat="42.74521" lon="0.18612">
        <ele>1945</ele>
        <time>2019-02-27T09:03:27Z</time>
      </trkpt>
      <trkpt lat="42.74521" lon="0.18612">
        <ele>1944</ele>
        <time>2019-02-27T09:03:28Z</time>
      </trkpt>
      <trkpt lat="42.74521" lon="0.18612">
        <ele>1944</ele>
        <time>2019-02-27T09:03:29Z</time>
      </trkpt>
      <trkpt lat="42.74521" lon="0.18612">
        <ele>1944</ele>
        <time>2019-02-27T09:03:30Z</time>
      </trkpt>
      <trkpt lat="42.74521" lon="0.18612">
        <ele>1944</ele>
        <time>2019-02-27T09:03:31Z</time>
      </trkpt>
      <trkpt lat="42.74521" lon="0.18612">
        <ele>1944</ele>
        <time>2019-02-27T09:03:32Z</time>
      </trkpt>
      <trkpt lat="42.74521" lon="0.18612">
        <ele>1945</ele>
        <time>2019-02-27T09:03:33Z</time>
      </trkpt>
      <trkpt lat="42.74511" lon="0.18613">
        <ele>1945</ele>
        <time>2019-02-27T09:03:34Z</time>
      </trkpt>
      <trkpt lat="42.74511" lon="0.18613">
        <ele>1945</ele>
        <time>2019-02-27T09:03:35Z</time>
      </trkpt>
      <trkpt lat="42.74511" lon="0.18613">
        <ele>1945</ele>
        <time>2019-02-27T09:03:36Z</time>
      </trkpt>
      <trkpt lat="42.74511" lon="0.18613">
        <ele>1945</ele>
        <time>2019-02-27T09:03:37Z</time>
      </trkpt>
      <trkpt lat="42.74511" lon="0.18613">
        <ele>1945</ele>
        <time>2019-02-27T09:03:38Z</time>
      </trkpt>
      <trkpt lat="42.74511" lon="0.18613">
        <ele>1946</ele>
        <time>2019-02-27T09:03:39Z</time>
      </trkpt>
      <trkpt lat="42.74511" lon="0.18613">
        <ele>1946</ele>
        <time>2019-02-27T09:03:40Z</time>
      </trkpt>
      <trkpt lat="42.74511" lon="0.18613">
        <ele>1946</ele>
        <time>2019-02-27T09:03:41Z</time>
      </trkpt>
      <trkpt lat="42.74511" lon="0.18613">
        <ele>1946</ele>
        <time>2019-02-27T09:03:42Z</time>
      </trkpt>
      <trkpt lat="42.74511" lon="0.18613">
        <ele>1946</ele>
        <time>2019-02-27T09:03:43Z</time>
      </trkpt>
      <trkpt lat="42.74511" lon="0.18613">
        <ele>1946</ele>
        <time>2019-02-27T09:03:44Z</time>
      </trkpt>
      <trkpt lat="42.74511" lon="0.18613">
        <ele>1947</ele>
        <time>2019-02-27T09:03:45Z</time>
      </trkpt>
      <trkpt lat="42.74511" lon="0.18613">
        <ele>1947</ele>
        <time>2019-02-27T09:03:46Z</time>
      </trkpt>
      <trkpt lat="42.74511" lon="0.18613">
        <ele>1947</ele>
        <time>2019-02-27T09:03:47Z</time>
      </trkpt>
      <trkpt lat="42.74511" lon="0.18613">
        <ele>1947</ele>
        <time>2019-02-27T09:03:48Z</time>
      </trkpt>
      <trkpt lat="42.74511" lon="0.18613">
        <ele>1947</ele>
        <time>2019-02-27T09:03:49Z</time>
      </trkpt>
      <trkpt lat="42.74502" lon="0.18614">
        <ele>1947</ele>
        <time>2019-02-27T09:03:50Z</time>
      </trkpt>
      <trkpt lat="42.74502" lon="0.18614">
        <ele>1947</ele>
        <time>2019-02-27T09:03:51Z</time>
      </trkpt>
      <trkpt lat="42.74502" lon="0.18614">
        <ele>1947</ele>
        <time>2019-02-27T09:03:52Z</time>
      </trkpt>
      <trkpt lat="42.74502" lon="0.18614">
        <ele>1947</ele>
        <time>2019-02-27T09:03:53Z</time>
      </trkpt>
      <trkpt lat="42.74502" lon="0.18614">
        <ele>1948</ele>
        <time>2019-02-27T09:03:54Z</time>
      </trkpt>
      <trkpt lat="42.74502" lon="0.18614">
        <ele>1948</ele>
        <time>2019-02-27T09:03:55Z</time>
      </trkpt>
      <trkpt lat="42.74502" lon="0.18614">
        <ele>1948</ele>
        <time>2019-02-27T09:03:56Z</time>
      </trkpt>
      <trkpt lat="42.74502" lon="0.18614">
        <ele>1948</ele>
        <time>2019-02-27T09:03:57Z</time>
      </trkpt>
      <trkpt lat="42.74502" lon="0.18614">
        <ele>1948</ele>
        <time>2019-02-27T09:03:58Z</time>
      </trkpt>
      <trkpt lat="42.74502" lon="0.18614">
        <ele>1948</ele>
        <time>2019-02-27T09:03:59Z</time>
      </trkpt>
      <trkpt lat="42.74493" lon="0.18618">
        <ele>1948</ele>
        <time>2019-02-27T09:04:00Z</time>
      </trkpt>
      <trkpt lat="42.74493" lon="0.18618">
        <ele>1948</ele>
        <time>2019-02-27T09:04:01Z</time>
      </trkpt>
      <trkpt lat="42.74493" lon="0.18618">
        <ele>1948</ele>
        <time>2019-02-27T09:04:02Z</time>
      </trkpt>
      <trkpt lat="42.74493" lon="0.18618">
        <ele>1948</ele>
        <time>2019-02-27T09:04:03Z</time>
      </trkpt>
      <trkpt lat="42.74493" lon="0.18618">
        <ele>1948</ele>
        <time>2019-02-27T09:04:04Z</time>
      </trkpt>
      <trkpt lat="42.74493" lon="0.18618">
        <ele>1948</ele>
        <time>2019-02-27T09:04:05Z</time>
      </trkpt>
      <trkpt lat="42.74493" lon="0.18618">
        <ele>1948</ele>
        <time>2019-02-27T09:04:06Z</time>
      </trkpt>
      <trkpt lat="42.74493" lon="0.18618">
        <ele>1949</ele>
        <time>2019-02-27T09:04:07Z</time>
      </trkpt>
      <trkpt lat="42.74493" lon="0.18618">
        <ele>1949</ele>
        <time>2019-02-27T09:04:08Z</time>
      </trkpt>
      <trkpt lat="42.74493" lon="0.18618">
        <ele>1949</ele>
        <time>2019-02-27T09:04:09Z</time>
      </trkpt>
      <trkpt lat="42.74493" lon="0.18618">
        <ele>1949</ele>
        <time>2019-02-27T09:04:10Z</time>
      </trkpt>
      <trkpt lat="42.74493" lon="0.18618">
        <ele>1950</ele>
        <time>2019-02-27T09:04:11Z</time>
      </trkpt>
      <trkpt lat="42.74493" lon="0.18618">
        <ele>1950</ele>
        <time>2019-02-27T09:04:12Z</time>
      </trkpt>
      <trkpt lat="42.74493" lon="0.18618">
        <ele>1950</ele>
        <time>2019-02-27T09:04:13Z</time>
      </trkpt>
      <trkpt lat="42.74493" lon="0.18618">
        <ele>1950</ele>
        <time>2019-02-27T09:04:14Z</time>
      </trkpt>
      <trkpt lat="42.74493" lon="0.18618">
        <ele>1950</ele>
        <time>2019-02-27T09:04:15Z</time>
      </trkpt>
      <trkpt lat="42.74493" lon="0.18618">
        <ele>1950</ele>
        <time>2019-02-27T09:04:16Z</time>
      </trkpt>
      <trkpt lat="42.74493" lon="0.18618">
        <ele>1950</ele>
        <time>2019-02-27T09:04:17Z</time>
      </trkpt>
      <trkpt lat="42.74493" lon="0.18618">
        <ele>1951</ele>
        <time>2019-02-27T09:04:18Z</time>
      </trkpt>
      <trkpt lat="42.74493" lon="0.18618">
        <ele>1951</ele>
        <time>2019-02-27T09:04:19Z</time>
      </trkpt>
      <trkpt lat="42.74493" lon="0.18618">
        <ele>1951</ele>
        <time>2019-02-27T09:04:20Z</time>
      </trkpt>
      <trkpt lat="42.74493" lon="0.18618">
        <ele>1951</ele>
        <time>2019-02-27T09:04:21Z</time>
      </trkpt>
      <trkpt lat="42.74493" lon="0.18618">
        <ele>1951</ele>
        <time>2019-02-27T09:04:22Z</time>
      </trkpt>
      <trkpt lat="42.74493" lon="0.18618">
        <ele>1951</ele>
        <time>2019-02-27T09:04:23Z</time>
      </trkpt>
      <trkpt lat="42.74493" lon="0.18618">
        <ele>1951</ele>
        <time>2019-02-27T09:04:24Z</time>
      </trkpt>
      <trkpt lat="42.74493" lon="0.18618">
        <ele>1952</ele>
        <time>2019-02-27T09:04:25Z</time>
      </trkpt>
      <trkpt lat="42.74493" lon="0.18618">
        <ele>1952</ele>
        <time>2019-02-27T09:04:26Z</time>
      </trkpt>
      <trkpt lat="42.74484" lon="0.18618">
        <ele>1952</ele>
        <time>2019-02-27T09:04:27Z</time>
      </trkpt>
      <trkpt lat="42.74484" lon="0.18618">
        <ele>1952</ele>
        <time>2019-02-27T09:04:28Z</time>
      </trkpt>
      <trkpt lat="42.74484" lon="0.18618">
        <ele>1952</ele>
        <time>2019-02-27T09:04:29Z</time>
      </trkpt>
      <trkpt lat="42.74484" lon="0.18618">
        <ele>1952</ele>
        <time>2019-02-27T09:04:30Z</time>
      </trkpt>
      <trkpt lat="42.74484" lon="0.18618">
        <ele>1952</ele>
        <time>2019-02-27T09:04:31Z</time>
      </trkpt>
      <trkpt lat="42.74484" lon="0.18618">
        <ele>1952</ele>
        <time>2019-02-27T09:04:32Z</time>
      </trkpt>
      <trkpt lat="42.74484" lon="0.18618">
        <ele>1952</ele>
        <time>2019-02-27T09:04:33Z</time>
      </trkpt>
      <trkpt lat="42.74484" lon="0.18618">
        <ele>1952</ele>
        <time>2019-02-27T09:04:34Z</time>
      </trkpt>
      <trkpt lat="42.74484" lon="0.18618">
        <ele>1953</ele>
        <time>2019-02-27T09:04:35Z</time>
      </trkpt>
      <trkpt lat="42.74484" lon="0.18618">
        <ele>1953</ele>
        <time>2019-02-27T09:04:36Z</time>
      </trkpt>
      <trkpt lat="42.74484" lon="0.18618">
        <ele>1953</ele>
        <time>2019-02-27T09:04:37Z</time>
      </trkpt>
      <trkpt lat="42.74484" lon="0.18618">
        <ele>1953</ele>
        <time>2019-02-27T09:04:38Z</time>
      </trkpt>
      <trkpt lat="42.74484" lon="0.18618">
        <ele>1953</ele>
        <time>2019-02-27T09:04:39Z</time>
      </trkpt>
      <trkpt lat="42.74484" lon="0.18618">
        <ele>1953</ele>
        <time>2019-02-27T09:04:40Z</time>
      </trkpt>
      <trkpt lat="42.74484" lon="0.18618">
        <ele>1954</ele>
        <time>2019-02-27T09:04:41Z</time>
      </trkpt>
      <trkpt lat="42.74484" lon="0.18618">
        <ele>1954</ele>
        <time>2019-02-27T09:04:42Z</time>
      </trkpt>
      <trkpt lat="42.74484" lon="0.18618">
        <ele>1954</ele>
        <time>2019-02-27T09:04:43Z</time>
      </trkpt>
      <trkpt lat="42.74475" lon="0.18616">
        <ele>1954</ele>
        <time>2019-02-27T09:04:44Z</time>
      </trkpt>
      <trkpt lat="42.74475" lon="0.18616">
        <ele>1954</ele>
        <time>2019-02-27T09:04:45Z</time>
      </trkpt>
      <trkpt lat="42.74475" lon="0.18616">
        <ele>1954</ele>
        <time>2019-02-27T09:04:46Z</time>
      </trkpt>
      <trkpt lat="42.74475" lon="0.18616">
        <ele>1954</ele>
        <time>2019-02-27T09:04:47Z</time>
      </trkpt>
      <trkpt lat="42.74475" lon="0.18616">
        <ele>1954</ele>
        <time>2019-02-27T09:04:48Z</time>
      </trkpt>
      <trkpt lat="42.74475" lon="0.18616">
        <ele>1954</ele>
        <time>2019-02-27T09:04:49Z</time>
      </trkpt>
      <trkpt lat="42.74475" lon="0.18616">
        <ele>1954</ele>
        <time>2019-02-27T09:04:50Z</time>
      </trkpt>
      <trkpt lat="42.74475" lon="0.18616">
        <ele>1954</ele>
        <time>2019-02-27T09:04:51Z</time>
      </trkpt>
      <trkpt lat="42.74475" lon="0.18616">
        <ele>1955</ele>
        <time>2019-02-27T09:04:52Z</time>
      </trkpt>
      <trkpt lat="42.74475" lon="0.18616">
        <ele>1955</ele>
        <time>2019-02-27T09:04:53Z</time>
      </trkpt>
      <trkpt lat="42.74475" lon="0.18616">
        <ele>1955</ele>
        <time>2019-02-27T09:04:54Z</time>
      </trkpt>
      <trkpt lat="42.74475" lon="0.18616">
        <ele>1955</ele>
        <time>2019-02-27T09:04:55Z</time>
      </trkpt>
      <trkpt lat="42.74475" lon="0.18616">
        <ele>1955</ele>
        <time>2019-02-27T09:04:56Z</time>
      </trkpt>
      <trkpt lat="42.74475" lon="0.18616">
        <ele>1955</ele>
        <time>2019-02-27T09:04:57Z</time>
      </trkpt>
      <trkpt lat="42.74475" lon="0.18616">
        <ele>1955</ele>
        <time>2019-02-27T09:04:58Z</time>
      </trkpt>
      <trkpt lat="42.74475" lon="0.18616">
        <ele>1955</ele>
        <time>2019-02-27T09:04:59Z</time>
      </trkpt>
      <trkpt lat="42.74475" lon="0.18616">
        <ele>1956</ele>
        <time>2019-02-27T09:05:00Z</time>
      </trkpt>
      <trkpt lat="42.74475" lon="0.18616">
        <ele>1956</ele>
        <time>2019-02-27T09:05:01Z</time>
      </trkpt>
      <trkpt lat="42.74466" lon="0.18617">
        <ele>1956</ele>
        <time>2019-02-27T09:05:02Z</time>
      </trkpt>
      <trkpt lat="42.74466" lon="0.18617">
        <ele>1956</ele>
        <time>2019-02-27T09:05:03Z</time>
      </trkpt>
      <trkpt lat="42.74466" lon="0.18617">
        <ele>1956</ele>
        <time>2019-02-27T09:05:04Z</time>
      </trkpt>
      <trkpt lat="42.74466" lon="0.18617">
        <ele>1956</ele>
        <time>2019-02-27T09:05:05Z</time>
      </trkpt>
      <trkpt lat="42.74466" lon="0.18617">
        <ele>1956</ele>
        <time>2019-02-27T09:05:06Z</time>
      </trkpt>
      <trkpt lat="42.74466" lon="0.18617">
        <ele>1956</ele>
        <time>2019-02-27T09:05:07Z</time>
      </trkpt>
      <trkpt lat="42.74466" lon="0.18617">
        <ele>1956</ele>
        <time>2019-02-27T09:05:08Z</time>
      </trkpt>
      <trkpt lat="42.74466" lon="0.18617">
        <ele>1956</ele>
        <time>2019-02-27T09:05:09Z</time>
      </trkpt>
      <trkpt lat="42.74466" lon="0.18617">
        <ele>1956</ele>
        <time>2019-02-27T09:05:10Z</time>
      </trkpt>
      <trkpt lat="42.74466" lon="0.18617">
        <ele>1957</ele>
        <time>2019-02-27T09:05:11Z</time>
      </trkpt>
      <trkpt lat="42.74466" lon="0.18617">
        <ele>1957</ele>
        <time>2019-02-27T09:05:12Z</time>
      </trkpt>
      <trkpt lat="42.74466" lon="0.18617">
        <ele>1957</ele>
        <time>2019-02-27T09:05:13Z</time>
      </trkpt>
      <trkpt lat="42.74466" lon="0.18617">
        <ele>1957</ele>
        <time>2019-02-27T09:05:14Z</time>
      </trkpt>
      <trkpt lat="42.74466" lon="0.18617">
        <ele>1958</ele>
        <time>2019-02-27T09:05:15Z</time>
      </trkpt>
      <trkpt lat="42.74466" lon="0.18617">
        <ele>1958</ele>
        <time>2019-02-27T09:05:16Z</time>
      </trkpt>
      <trkpt lat="42.74466" lon="0.18617">
        <ele>1958</ele>
        <time>2019-02-27T09:05:17Z</time>
      </trkpt>
      <trkpt lat="42.74466" lon="0.18617">
        <ele>1958</ele>
        <time>2019-02-27T09:05:18Z</time>
      </trkpt>
      <trkpt lat="42.74466" lon="0.18617">
        <ele>1958</ele>
        <time>2019-02-27T09:05:19Z</time>
      </trkpt>
      <trkpt lat="42.74456" lon="0.18619">
        <ele>1958</ele>
        <time>2019-02-27T09:05:20Z</time>
      </trkpt>
      <trkpt lat="42.74456" lon="0.18619">
        <ele>1958</ele>
        <time>2019-02-27T09:05:21Z</time>
      </trkpt>
      <trkpt lat="42.74456" lon="0.18619">
        <ele>1958</ele>
        <time>2019-02-27T09:05:22Z</time>
      </trkpt>
      <trkpt lat="42.74456" lon="0.18619">
        <ele>1958</ele>
        <time>2019-02-27T09:05:23Z</time>
      </trkpt>
      <trkpt lat="42.74456" lon="0.18619">
        <ele>1958</ele>
        <time>2019-02-27T09:05:24Z</time>
      </trkpt>
      <trkpt lat="42.74456" lon="0.18619">
        <ele>1959</ele>
        <time>2019-02-27T09:05:25Z</time>
      </trkpt>
      <trkpt lat="42.74456" lon="0.18619">
        <ele>1959</ele>
        <time>2019-02-27T09:05:26Z</time>
      </trkpt>
      <trkpt lat="42.74456" lon="0.18619">
        <ele>1959</ele>
        <time>2019-02-27T09:05:27Z</time>
      </trkpt>
      <trkpt lat="42.74456" lon="0.18619">
        <ele>1959</ele>
        <time>2019-02-27T09:05:28Z</time>
      </trkpt>
      <trkpt lat="42.74456" lon="0.18619">
        <ele>1959</ele>
        <time>2019-02-27T09:05:29Z</time>
      </trkpt>
      <trkpt lat="42.74456" lon="0.18619">
        <ele>1959</ele>
        <time>2019-02-27T09:05:30Z</time>
      </trkpt>
      <trkpt lat="42.74456" lon="0.18619">
        <ele>1959</ele>
        <time>2019-02-27T09:05:31Z</time>
      </trkpt>
      <trkpt lat="42.74456" lon="0.18619">
        <ele>1959</ele>
        <time>2019-02-27T09:05:32Z</time>
      </trkpt>
      <trkpt lat="42.74456" lon="0.18619">
        <ele>1960</ele>
        <time>2019-02-27T09:05:33Z</time>
      </trkpt>
      <trkpt lat="42.74456" lon="0.18619">
        <ele>1960</ele>
        <time>2019-02-27T09:05:34Z</time>
      </trkpt>
      <trkpt lat="42.74456" lon="0.18619">
        <ele>1960</ele>
        <time>2019-02-27T09:05:35Z</time>
      </trkpt>
      <trkpt lat="42.74456" lon="0.18619">
        <ele>1960</ele>
        <time>2019-02-27T09:05:36Z</time>
      </trkpt>
      <trkpt lat="42.74456" lon="0.18619">
        <ele>1960</ele>
        <time>2019-02-27T09:05:37Z</time>
      </trkpt>
      <trkpt lat="42.74448" lon="0.18624">
        <ele>1960</ele>
        <time>2019-02-27T09:05:38Z</time>
      </trkpt>
      <trkpt lat="42.74448" lon="0.18624">
        <ele>1960</ele>
        <time>2019-02-27T09:05:39Z</time>
      </trkpt>
      <trkpt lat="42.74448" lon="0.18624">
        <ele>1960</ele>
        <time>2019-02-27T09:05:40Z</time>
      </trkpt>
      <trkpt lat="42.74448" lon="0.18624">
        <ele>1960</ele>
        <time>2019-02-27T09:05:41Z</time>
      </trkpt>
      <trkpt lat="42.74448" lon="0.18624">
        <ele>1961</ele>
        <time>2019-02-27T09:05:42Z</time>
      </trkpt>
      <trkpt lat="42.74448" lon="0.18624">
        <ele>1961</ele>
        <time>2019-02-27T09:05:43Z</time>
      </trkpt>
      <trkpt lat="42.74448" lon="0.18624">
        <ele>1961</ele>
        <time>2019-02-27T09:05:44Z</time>
      </trkpt>
      <trkpt lat="42.74448" lon="0.18624">
        <ele>1961</ele>
        <time>2019-02-27T09:05:45Z</time>
      </trkpt>
      <trkpt lat="42.74448" lon="0.18624">
        <ele>1961</ele>
        <time>2019-02-27T09:05:46Z</time>
      </trkpt>
      <trkpt lat="42.74448" lon="0.18624">
        <ele>1961</ele>
        <time>2019-02-27T09:05:47Z</time>
      </trkpt>
      <trkpt lat="42.74448" lon="0.18624">
        <ele>1961</ele>
        <time>2019-02-27T09:05:48Z</time>
      </trkpt>
      <trkpt lat="42.74439" lon="0.18629">
        <ele>1961</ele>
        <time>2019-02-27T09:05:49Z</time>
      </trkpt>
      <trkpt lat="42.74439" lon="0.18629">
        <ele>1961</ele>
        <time>2019-02-27T09:05:50Z</time>
      </trkpt>
      <trkpt lat="42.74439" lon="0.18629">
        <ele>1961</ele>
        <time>2019-02-27T09:05:51Z</time>
      </trkpt>
      <trkpt lat="42.74439" lon="0.18629">
        <ele>1961</ele>
        <time>2019-02-27T09:05:52Z</time>
      </trkpt>
      <trkpt lat="42.74439" lon="0.18629">
        <ele>1961</ele>
        <time>2019-02-27T09:05:53Z</time>
      </trkpt>
      <trkpt lat="42.74439" lon="0.18629">
        <ele>1961</ele>
        <time>2019-02-27T09:05:54Z</time>
      </trkpt>
      <trkpt lat="42.74439" lon="0.18629">
        <ele>1961</ele>
        <time>2019-02-27T09:05:55Z</time>
      </trkpt>
      <trkpt lat="42.74439" lon="0.18629">
        <ele>1961</ele>
        <time>2019-02-27T09:05:56Z</time>
      </trkpt>
      <trkpt lat="42.74439" lon="0.18629">
        <ele>1962</ele>
        <time>2019-02-27T09:05:57Z</time>
      </trkpt>
      <trkpt lat="42.74439" lon="0.18629">
        <ele>1962</ele>
        <time>2019-02-27T09:05:58Z</time>
      </trkpt>
      <trkpt lat="42.74439" lon="0.18629">
        <ele>1962</ele>
        <time>2019-02-27T09:05:59Z</time>
      </trkpt>
      <trkpt lat="42.74439" lon="0.18629">
        <ele>1963</ele>
        <time>2019-02-27T09:06:00Z</time>
      </trkpt>
      <trkpt lat="42.74439" lon="0.18629">
        <ele>1963</ele>
        <time>2019-02-27T09:06:01Z</time>
      </trkpt>
      <trkpt lat="42.74439" lon="0.18629">
        <ele>1963</ele>
        <time>2019-02-27T09:06:02Z</time>
      </trkpt>
      <trkpt lat="42.74429" lon="0.18632">
        <ele>1963</ele>
        <time>2019-02-27T09:06:03Z</time>
      </trkpt>
      <trkpt lat="42.74429" lon="0.18632">
        <ele>1963</ele>
        <time>2019-02-27T09:06:04Z</time>
      </trkpt>
      <trkpt lat="42.74429" lon="0.18632">
        <ele>1963</ele>
        <time>2019-02-27T09:06:05Z</time>
      </trkpt>
      <trkpt lat="42.74429" lon="0.18632">
        <ele>1963</ele>
        <time>2019-02-27T09:06:06Z</time>
      </trkpt>
      <trkpt lat="42.74429" lon="0.18632">
        <ele>1963</ele>
        <time>2019-02-27T09:06:07Z</time>
      </trkpt>
      <trkpt lat="42.74429" lon="0.18632">
        <ele>1963</ele>
        <time>2019-02-27T09:06:08Z</time>
      </trkpt>
      <trkpt lat="42.74429" lon="0.18632">
        <ele>1963</ele>
        <time>2019-02-27T09:06:09Z</time>
      </trkpt>
      <trkpt lat="42.74429" lon="0.18632">
        <ele>1963</ele>
        <time>2019-02-27T09:06:10Z</time>
      </trkpt>
      <trkpt lat="42.74429" lon="0.18632">
        <ele>1963</ele>
        <time>2019-02-27T09:06:11Z</time>
      </trkpt>
      <trkpt lat="42.74429" lon="0.18632">
        <ele>1963</ele>
        <time>2019-02-27T09:06:12Z</time>
      </trkpt>
      <trkpt lat="42.74429" lon="0.18632">
        <ele>1963</ele>
        <time>2019-02-27T09:06:13Z</time>
      </trkpt>
      <trkpt lat="42.74429" lon="0.18632">
        <ele>1963</ele>
        <time>2019-02-27T09:06:14Z</time>
      </trkpt>
      <trkpt lat="42.74429" lon="0.18632">
        <ele>1963</ele>
        <time>2019-02-27T09:06:15Z</time>
      </trkpt>
      <trkpt lat="42.74429" lon="0.18632">
        <ele>1963</ele>
        <time>2019-02-27T09:06:16Z</time>
      </trkpt>
      <trkpt lat="42.74429" lon="0.18632">
        <ele>1965</ele>
        <time>2019-02-27T09:06:17Z</time>
      </trkpt>
      <trkpt lat="42.74429" lon="0.18632">
        <ele>1965</ele>
        <time>2019-02-27T09:06:18Z</time>
      </trkpt>
      <trkpt lat="42.74429" lon="0.18632">
        <ele>1965</ele>
        <time>2019-02-27T09:06:19Z</time>
      </trkpt>
      <trkpt lat="42.74429" lon="0.18632">
        <ele>1965</ele>
        <time>2019-02-27T09:06:20Z</time>
      </trkpt>
      <trkpt lat="42.74429" lon="0.18632">
        <ele>1966</ele>
        <time>2019-02-27T09:06:21Z</time>
      </trkpt>
      <trkpt lat="42.74429" lon="0.18632">
        <ele>1966</ele>
        <time>2019-02-27T09:06:22Z</time>
      </trkpt>
      <trkpt lat="42.74427" lon="0.1862">
        <ele>1966</ele>
        <time>2019-02-27T09:06:23Z</time>
      </trkpt>
      <trkpt lat="42.74427" lon="0.1862">
        <ele>1966</ele>
        <time>2019-02-27T09:06:24Z</time>
      </trkpt>
      <trkpt lat="42.74427" lon="0.1862">
        <ele>1966</ele>
        <time>2019-02-27T09:06:25Z</time>
      </trkpt>
      <trkpt lat="42.74427" lon="0.1862">
        <ele>1966</ele>
        <time>2019-02-27T09:06:26Z</time>
      </trkpt>
      <trkpt lat="42.74427" lon="0.1862">
        <ele>1966</ele>
        <time>2019-02-27T09:06:27Z</time>
      </trkpt>
      <trkpt lat="42.74427" lon="0.1862">
        <ele>1967</ele>
        <time>2019-02-27T09:06:28Z</time>
      </trkpt>
      <trkpt lat="42.74427" lon="0.1862">
        <ele>1967</ele>
        <time>2019-02-27T09:06:29Z</time>
      </trkpt>
      <trkpt lat="42.74427" lon="0.1862">
        <ele>1967</ele>
        <time>2019-02-27T09:06:30Z</time>
      </trkpt>
      <trkpt lat="42.74427" lon="0.1862">
        <ele>1967</ele>
        <time>2019-02-27T09:06:31Z</time>
      </trkpt>
      <trkpt lat="42.74427" lon="0.1862">
        <ele>1967</ele>
        <time>2019-02-27T09:06:32Z</time>
      </trkpt>
      <trkpt lat="42.74427" lon="0.1862">
        <ele>1967</ele>
        <time>2019-02-27T09:06:33Z</time>
      </trkpt>
      <trkpt lat="42.74431" lon="0.18609">
        <ele>1967</ele>
        <time>2019-02-27T09:06:34Z</time>
      </trkpt>
      <trkpt lat="42.74431" lon="0.18609">
        <ele>1967</ele>
        <time>2019-02-27T09:06:35Z</time>
      </trkpt>
      <trkpt lat="42.74431" lon="0.18609">
        <ele>1967</ele>
        <time>2019-02-27T09:06:36Z</time>
      </trkpt>
      <trkpt lat="42.74431" lon="0.18609">
        <ele>1967</ele>
        <time>2019-02-27T09:06:37Z</time>
      </trkpt>
      <trkpt lat="42.74431" lon="0.18609">
        <ele>1968</ele>
        <time>2019-02-27T09:06:38Z</time>
      </trkpt>
      <trkpt lat="42.74431" lon="0.18609">
        <ele>1968</ele>
        <time>2019-02-27T09:06:39Z</time>
      </trkpt>
      <trkpt lat="42.74431" lon="0.18609">
        <ele>1968</ele>
        <time>2019-02-27T09:06:40Z</time>
      </trkpt>
      <trkpt lat="42.74431" lon="0.18609">
        <ele>1968</ele>
        <time>2019-02-27T09:06:41Z</time>
      </trkpt>
      <trkpt lat="42.74431" lon="0.18609">
        <ele>1969</ele>
        <time>2019-02-27T09:06:42Z</time>
      </trkpt>
      <trkpt lat="42.74431" lon="0.18609">
        <ele>1969</ele>
        <time>2019-02-27T09:06:43Z</time>
      </trkpt>
      <trkpt lat="42.74431" lon="0.18609">
        <ele>1969</ele>
        <time>2019-02-27T09:06:44Z</time>
      </trkpt>
      <trkpt lat="42.74431" lon="0.18609">
        <ele>1969</ele>
        <time>2019-02-27T09:06:45Z</time>
      </trkpt>
      <trkpt lat="42.74431" lon="0.18609">
        <ele>1969</ele>
        <time>2019-02-27T09:06:46Z</time>
      </trkpt>
      <trkpt lat="42.74431" lon="0.18609">
        <ele>1969</ele>
        <time>2019-02-27T09:06:47Z</time>
      </trkpt>
      <trkpt lat="42.74431" lon="0.18609">
        <ele>1969</ele>
        <time>2019-02-27T09:06:48Z</time>
      </trkpt>
      <trkpt lat="42.74433" lon="0.18596">
        <ele>1969</ele>
        <time>2019-02-27T09:06:49Z</time>
      </trkpt>
      <trkpt lat="42.74433" lon="0.18596">
        <ele>1969</ele>
        <time>2019-02-27T09:06:50Z</time>
      </trkpt>
      <trkpt lat="42.74433" lon="0.18596">
        <ele>1969</ele>
        <time>2019-02-27T09:06:51Z</time>
      </trkpt>
      <trkpt lat="42.74433" lon="0.18596">
        <ele>1970</ele>
        <time>2019-02-27T09:06:52Z</time>
      </trkpt>
      <trkpt lat="42.74433" lon="0.18596">
        <ele>1970</ele>
        <time>2019-02-27T09:06:53Z</time>
      </trkpt>
      <trkpt lat="42.74433" lon="0.18596">
        <ele>1970</ele>
        <time>2019-02-27T09:06:54Z</time>
      </trkpt>
      <trkpt lat="42.74433" lon="0.18596">
        <ele>1970</ele>
        <time>2019-02-27T09:06:55Z</time>
      </trkpt>
      <trkpt lat="42.74433" lon="0.18596">
        <ele>1970</ele>
        <time>2019-02-27T09:06:56Z</time>
      </trkpt>
      <trkpt lat="42.74433" lon="0.18596">
        <ele>1970</ele>
        <time>2019-02-27T09:06:57Z</time>
      </trkpt>
      <trkpt lat="42.74433" lon="0.18596">
        <ele>1970</ele>
        <time>2019-02-27T09:06:58Z</time>
      </trkpt>
      <trkpt lat="42.74433" lon="0.18596">
        <ele>1970</ele>
        <time>2019-02-27T09:06:59Z</time>
      </trkpt>
      <trkpt lat="42.74433" lon="0.18596">
        <ele>1970</ele>
        <time>2019-02-27T09:07:00Z</time>
      </trkpt>
      <trkpt lat="42.74433" lon="0.18596">
        <ele>1970</ele>
        <time>2019-02-27T09:07:01Z</time>
      </trkpt>
      <trkpt lat="42.74433" lon="0.18596">
        <ele>1970</ele>
        <time>2019-02-27T09:07:02Z</time>
      </trkpt>
      <trkpt lat="42.74433" lon="0.18596">
        <ele>1970</ele>
        <time>2019-02-27T09:07:03Z</time>
      </trkpt>
      <trkpt lat="42.74433" lon="0.18596">
        <ele>1971</ele>
        <time>2019-02-27T09:07:04Z</time>
      </trkpt>
      <trkpt lat="42.74433" lon="0.18596">
        <ele>1971</ele>
        <time>2019-02-27T09:07:05Z</time>
      </trkpt>
      <trkpt lat="42.74433" lon="0.18596">
        <ele>1971</ele>
        <time>2019-02-27T09:07:06Z</time>
      </trkpt>
      <trkpt lat="42.74432" lon="0.18584">
        <ele>1971</ele>
        <time>2019-02-27T09:07:07Z</time>
      </trkpt>
      <trkpt lat="42.74432" lon="0.18584">
        <ele>1971</ele>
        <time>2019-02-27T09:07:08Z</time>
      </trkpt>
      <trkpt lat="42.74432" lon="0.18584">
        <ele>1971</ele>
        <time>2019-02-27T09:07:09Z</time>
      </trkpt>
      <trkpt lat="42.74432" lon="0.18584">
        <ele>1971</ele>
        <time>2019-02-27T09:07:10Z</time>
      </trkpt>
      <trkpt lat="42.74432" lon="0.18584">
        <ele>1971</ele>
        <time>2019-02-27T09:07:11Z</time>
      </trkpt>
      <trkpt lat="42.74432" lon="0.18584">
        <ele>1971</ele>
        <time>2019-02-27T09:07:12Z</time>
      </trkpt>
      <trkpt lat="42.74432" lon="0.18584">
        <ele>1971</ele>
        <time>2019-02-27T09:07:13Z</time>
      </trkpt>
      <trkpt lat="42.74432" lon="0.18584">
        <ele>1971</ele>
        <time>2019-02-27T09:07:14Z</time>
      </trkpt>
      <trkpt lat="42.74432" lon="0.18584">
        <ele>1971</ele>
        <time>2019-02-27T09:07:15Z</time>
      </trkpt>
      <trkpt lat="42.74432" lon="0.18584">
        <ele>1971</ele>
        <time>2019-02-27T09:07:16Z</time>
      </trkpt>
      <trkpt lat="42.74432" lon="0.18584">
        <ele>1971</ele>
        <time>2019-02-27T09:07:17Z</time>
      </trkpt>
      <trkpt lat="42.74431" lon="0.18576">
        <ele>1972</ele>
        <time>2019-02-27T09:07:18Z</time>
      </trkpt>
      <trkpt lat="42.74431" lon="0.18576">
        <ele>1972</ele>
        <time>2019-02-27T09:07:19Z</time>
      </trkpt>
      <trkpt lat="42.74431" lon="0.18576">
        <ele>1972</ele>
        <time>2019-02-27T09:07:20Z</time>
      </trkpt>
      <trkpt lat="42.74431" lon="0.18576">
        <ele>1973</ele>
        <time>2019-02-27T09:07:21Z</time>
      </trkpt>
      <trkpt lat="42.74431" lon="0.18576">
        <ele>1973</ele>
        <time>2019-02-27T09:07:22Z</time>
      </trkpt>
      <trkpt lat="42.74431" lon="0.18576">
        <ele>1973</ele>
        <time>2019-02-27T09:07:23Z</time>
      </trkpt>
      <trkpt lat="42.74431" lon="0.18576">
        <ele>1973</ele>
        <time>2019-02-27T09:07:24Z</time>
      </trkpt>
      <trkpt lat="42.74431" lon="0.18576">
        <ele>1973</ele>
        <time>2019-02-27T09:07:25Z</time>
      </trkpt>
      <trkpt lat="42.74431" lon="0.18576">
        <ele>1973</ele>
        <time>2019-02-27T09:07:26Z</time>
      </trkpt>
      <trkpt lat="42.74431" lon="0.18576">
        <ele>1973</ele>
        <time>2019-02-27T09:07:27Z</time>
      </trkpt>
      <trkpt lat="42.74431" lon="0.18576">
        <ele>1973</ele>
        <time>2019-02-27T09:07:28Z</time>
      </trkpt>
      <trkpt lat="42.74431" lon="0.18576">
        <ele>1973</ele>
        <time>2019-02-27T09:07:29Z</time>
      </trkpt>
      <trkpt lat="42.74431" lon="0.18576">
        <ele>1973</ele>
        <time>2019-02-27T09:07:30Z</time>
      </trkpt>
      <trkpt lat="42.74431" lon="0.18576">
        <ele>1973</ele>
        <time>2019-02-27T09:07:31Z</time>
      </trkpt>
      <trkpt lat="42.74431" lon="0.18576">
        <ele>1973</ele>
        <time>2019-02-27T09:07:32Z</time>
      </trkpt>
      <trkpt lat="42.74431" lon="0.18576">
        <ele>1974</ele>
        <time>2019-02-27T09:07:33Z</time>
      </trkpt>
      <trkpt lat="42.74431" lon="0.18576">
        <ele>1974</ele>
        <time>2019-02-27T09:07:34Z</time>
      </trkpt>
      <trkpt lat="42.74431" lon="0.18576">
        <ele>1974</ele>
        <time>2019-02-27T09:07:35Z</time>
      </trkpt>
      <trkpt lat="42.74431" lon="0.18576">
        <ele>1974</ele>
        <time>2019-02-27T09:07:36Z</time>
      </trkpt>
      <trkpt lat="42.74431" lon="0.18576">
        <ele>1974</ele>
        <time>2019-02-27T09:07:37Z</time>
      </trkpt>
      <trkpt lat="42.74428" lon="0.18564">
        <ele>1975</ele>
        <time>2019-02-27T09:07:38Z</time>
      </trkpt>
      <trkpt lat="42.74428" lon="0.18564">
        <ele>1975</ele>
        <time>2019-02-27T09:07:39Z</time>
      </trkpt>
      <trkpt lat="42.74428" lon="0.18564">
        <ele>1975</ele>
        <time>2019-02-27T09:07:40Z</time>
      </trkpt>
      <trkpt lat="42.74428" lon="0.18564">
        <ele>1975</ele>
        <time>2019-02-27T09:07:41Z</time>
      </trkpt>
      <trkpt lat="42.74428" lon="0.18564">
        <ele>1975</ele>
        <time>2019-02-27T09:07:42Z</time>
      </trkpt>
      <trkpt lat="42.74428" lon="0.18564">
        <ele>1975</ele>
        <time>2019-02-27T09:07:43Z</time>
      </trkpt>
      <trkpt lat="42.74428" lon="0.18564">
        <ele>1976</ele>
        <time>2019-02-27T09:07:44Z</time>
      </trkpt>
      <trkpt lat="42.74428" lon="0.18564">
        <ele>1976</ele>
        <time>2019-02-27T09:07:45Z</time>
      </trkpt>
      <trkpt lat="42.74428" lon="0.18564">
        <ele>1976</ele>
        <time>2019-02-27T09:07:46Z</time>
      </trkpt>
      <trkpt lat="42.74428" lon="0.18564">
        <ele>1976</ele>
        <time>2019-02-27T09:07:47Z</time>
      </trkpt>
      <trkpt lat="42.74428" lon="0.18564">
        <ele>1976</ele>
        <time>2019-02-27T09:07:48Z</time>
      </trkpt>
      <trkpt lat="42.74428" lon="0.18564">
        <ele>1976</ele>
        <time>2019-02-27T09:07:49Z</time>
      </trkpt>
      <trkpt lat="42.74428" lon="0.18564">
        <ele>1976</ele>
        <time>2019-02-27T09:07:50Z</time>
      </trkpt>
      <trkpt lat="42.74428" lon="0.18564">
        <ele>1976</ele>
        <time>2019-02-27T09:07:51Z</time>
      </trkpt>
      <trkpt lat="42.74428" lon="0.18564">
        <ele>1976</ele>
        <time>2019-02-27T09:07:52Z</time>
      </trkpt>
      <trkpt lat="42.74428" lon="0.18564">
        <ele>1977</ele>
        <time>2019-02-27T09:07:53Z</time>
      </trkpt>
      <trkpt lat="42.74428" lon="0.18564">
        <ele>1977</ele>
        <time>2019-02-27T09:07:54Z</time>
      </trkpt>
      <trkpt lat="42.74428" lon="0.18564">
        <ele>1977</ele>
        <time>2019-02-27T09:07:55Z</time>
      </trkpt>
      <trkpt lat="42.74428" lon="0.18551">
        <ele>1977</ele>
        <time>2019-02-27T09:07:56Z</time>
      </trkpt>
      <trkpt lat="42.74428" lon="0.18551">
        <ele>1977</ele>
        <time>2019-02-27T09:07:57Z</time>
      </trkpt>
      <trkpt lat="42.74428" lon="0.18551">
        <ele>1977</ele>
        <time>2019-02-27T09:07:58Z</time>
      </trkpt>
      <trkpt lat="42.74428" lon="0.18551">
        <ele>1977</ele>
        <time>2019-02-27T09:07:59Z</time>
      </trkpt>
      <trkpt lat="42.74428" lon="0.18551">
        <ele>1978</ele>
        <time>2019-02-27T09:08:00Z</time>
      </trkpt>
      <trkpt lat="42.74428" lon="0.18551">
        <ele>1978</ele>
        <time>2019-02-27T09:08:01Z</time>
      </trkpt>
      <trkpt lat="42.74428" lon="0.18551">
        <ele>1978</ele>
        <time>2019-02-27T09:08:02Z</time>
      </trkpt>
      <trkpt lat="42.74428" lon="0.18551">
        <ele>1978</ele>
        <time>2019-02-27T09:08:03Z</time>
      </trkpt>
      <trkpt lat="42.74428" lon="0.18551">
        <ele>1978</ele>
        <time>2019-02-27T09:08:04Z</time>
      </trkpt>
      <trkpt lat="42.74428" lon="0.18551">
        <ele>1978</ele>
        <time>2019-02-27T09:08:05Z</time>
      </trkpt>
      <trkpt lat="42.74428" lon="0.18551">
        <ele>1978</ele>
        <time>2019-02-27T09:08:06Z</time>
      </trkpt>
      <trkpt lat="42.74428" lon="0.18551">
        <ele>1978</ele>
        <time>2019-02-27T09:08:07Z</time>
      </trkpt>
      <trkpt lat="42.74428" lon="0.18551">
        <ele>1978</ele>
        <time>2019-02-27T09:08:08Z</time>
      </trkpt>
      <trkpt lat="42.74428" lon="0.18551">
        <ele>1978</ele>
        <time>2019-02-27T09:08:09Z</time>
      </trkpt>
      <trkpt lat="42.74428" lon="0.18551">
        <ele>1978</ele>
        <time>2019-02-27T09:08:10Z</time>
      </trkpt>
      <trkpt lat="42.74426" lon="0.18538">
        <ele>1978</ele>
        <time>2019-02-27T09:08:11Z</time>
      </trkpt>
      <trkpt lat="42.74426" lon="0.18538">
        <ele>1978</ele>
        <time>2019-02-27T09:08:12Z</time>
      </trkpt>
      <trkpt lat="42.74426" lon="0.18538">
        <ele>1978</ele>
        <time>2019-02-27T09:08:13Z</time>
      </trkpt>
      <trkpt lat="42.74426" lon="0.18538">
        <ele>1979</ele>
        <time>2019-02-27T09:08:14Z</time>
      </trkpt>
      <trkpt lat="42.74426" lon="0.18538">
        <ele>1979</ele>
        <time>2019-02-27T09:08:15Z</time>
      </trkpt>
      <trkpt lat="42.74426" lon="0.18538">
        <ele>1979</ele>
        <time>2019-02-27T09:08:16Z</time>
      </trkpt>
      <trkpt lat="42.74426" lon="0.18538">
        <ele>1979</ele>
        <time>2019-02-27T09:08:17Z</time>
      </trkpt>
      <trkpt lat="42.74426" lon="0.18538">
        <ele>1979</ele>
        <time>2019-02-27T09:08:18Z</time>
      </trkpt>
      <trkpt lat="42.74426" lon="0.18538">
        <ele>1979</ele>
        <time>2019-02-27T09:08:19Z</time>
      </trkpt>
      <trkpt lat="42.74426" lon="0.18538">
        <ele>1979</ele>
        <time>2019-02-27T09:08:20Z</time>
      </trkpt>
      <trkpt lat="42.74426" lon="0.18538">
        <ele>1979</ele>
        <time>2019-02-27T09:08:21Z</time>
      </trkpt>
      <trkpt lat="42.74426" lon="0.18538">
        <ele>1979</ele>
        <time>2019-02-27T09:08:22Z</time>
      </trkpt>
      <trkpt lat="42.74426" lon="0.18538">
        <ele>1979</ele>
        <time>2019-02-27T09:08:23Z</time>
      </trkpt>
      <trkpt lat="42.74426" lon="0.18538">
        <ele>1979</ele>
        <time>2019-02-27T09:08:24Z</time>
      </trkpt>
      <trkpt lat="42.74426" lon="0.18538">
        <ele>1979</ele>
        <time>2019-02-27T09:08:25Z</time>
      </trkpt>
      <trkpt lat="42.74426" lon="0.18538">
        <ele>1980</ele>
        <time>2019-02-27T09:08:26Z</time>
      </trkpt>
      <trkpt lat="42.74426" lon="0.18538">
        <ele>1980</ele>
        <time>2019-02-27T09:08:27Z</time>
      </trkpt>
      <trkpt lat="42.74426" lon="0.18538">
        <ele>1980</ele>
        <time>2019-02-27T09:08:28Z</time>
      </trkpt>
      <trkpt lat="42.74426" lon="0.18538">
        <ele>1980</ele>
        <time>2019-02-27T09:08:29Z</time>
      </trkpt>
      <trkpt lat="42.74426" lon="0.18538">
        <ele>1980</ele>
        <time>2019-02-27T09:08:30Z</time>
      </trkpt>
      <trkpt lat="42.74426" lon="0.18538">
        <ele>1981</ele>
        <time>2019-02-27T09:08:31Z</time>
      </trkpt>
      <trkpt lat="42.74427" lon="0.18526">
        <ele>1981</ele>
        <time>2019-02-27T09:08:32Z</time>
      </trkpt>
      <trkpt lat="42.74427" lon="0.18526">
        <ele>1981</ele>
        <time>2019-02-27T09:08:33Z</time>
      </trkpt>
      <trkpt lat="42.74427" lon="0.18526">
        <ele>1981</ele>
        <time>2019-02-27T09:08:34Z</time>
      </trkpt>
      <trkpt lat="42.74427" lon="0.18526">
        <ele>1981</ele>
        <time>2019-02-27T09:08:35Z</time>
      </trkpt>
      <trkpt lat="42.74427" lon="0.18526">
        <ele>1981</ele>
        <time>2019-02-27T09:08:36Z</time>
      </trkpt>
      <trkpt lat="42.74427" lon="0.18526">
        <ele>1981</ele>
        <time>2019-02-27T09:08:37Z</time>
      </trkpt>
      <trkpt lat="42.74427" lon="0.18526">
        <ele>1981</ele>
        <time>2019-02-27T09:08:38Z</time>
      </trkpt>
      <trkpt lat="42.74427" lon="0.18526">
        <ele>1981</ele>
        <time>2019-02-27T09:08:39Z</time>
      </trkpt>
      <trkpt lat="42.74427" lon="0.18526">
        <ele>1982</ele>
        <time>2019-02-27T09:08:40Z</time>
      </trkpt>
      <trkpt lat="42.74427" lon="0.18526">
        <ele>1982</ele>
        <time>2019-02-27T09:08:41Z</time>
      </trkpt>
      <trkpt lat="42.74427" lon="0.18526">
        <ele>1982</ele>
        <time>2019-02-27T09:08:42Z</time>
      </trkpt>
      <trkpt lat="42.74427" lon="0.18526">
        <ele>1982</ele>
        <time>2019-02-27T09:08:43Z</time>
      </trkpt>
      <trkpt lat="42.74426" lon="0.18514">
        <ele>1982</ele>
        <time>2019-02-27T09:08:44Z</time>
      </trkpt>
      <trkpt lat="42.74426" lon="0.18514">
        <ele>1982</ele>
        <time>2019-02-27T09:08:45Z</time>
      </trkpt>
      <trkpt lat="42.74426" lon="0.18514">
        <ele>1982</ele>
        <time>2019-02-27T09:08:46Z</time>
      </trkpt>
      <trkpt lat="42.74426" lon="0.18514">
        <ele>1982</ele>
        <time>2019-02-27T09:08:47Z</time>
      </trkpt>
      <trkpt lat="42.74426" lon="0.18514">
        <ele>1982</ele>
        <time>2019-02-27T09:08:48Z</time>
      </trkpt>
      <trkpt lat="42.74426" lon="0.18514">
        <ele>1982</ele>
        <time>2019-02-27T09:08:49Z</time>
      </trkpt>
      <trkpt lat="42.74426" lon="0.18514">
        <ele>1982</ele>
        <time>2019-02-27T09:08:50Z</time>
      </trkpt>
      <trkpt lat="42.74426" lon="0.18514">
        <ele>1983</ele>
        <time>2019-02-27T09:08:51Z</time>
      </trkpt>
      <trkpt lat="42.74426" lon="0.18514">
        <ele>1983</ele>
        <time>2019-02-27T09:08:52Z</time>
      </trkpt>
      <trkpt lat="42.74426" lon="0.18514">
        <ele>1983</ele>
        <time>2019-02-27T09:08:53Z</time>
      </trkpt>
      <trkpt lat="42.74426" lon="0.18514">
        <ele>1983</ele>
        <time>2019-02-27T09:08:54Z</time>
      </trkpt>
      <trkpt lat="42.74426" lon="0.18514">
        <ele>1983</ele>
        <time>2019-02-27T09:08:55Z</time>
      </trkpt>
      <trkpt lat="42.74426" lon="0.18514">
        <ele>1983</ele>
        <time>2019-02-27T09:08:56Z</time>
      </trkpt>
      <trkpt lat="42.74426" lon="0.18514">
        <ele>1983</ele>
        <time>2019-02-27T09:08:57Z</time>
      </trkpt>
      <trkpt lat="42.74426" lon="0.18514">
        <ele>1984</ele>
        <time>2019-02-27T09:08:58Z</time>
      </trkpt>
      <trkpt lat="42.74426" lon="0.18514">
        <ele>1984</ele>
        <time>2019-02-27T09:08:59Z</time>
      </trkpt>
      <trkpt lat="42.74426" lon="0.18514">
        <ele>1984</ele>
        <time>2019-02-27T09:09:00Z</time>
      </trkpt>
      <trkpt lat="42.74426" lon="0.18514">
        <ele>1984</ele>
        <time>2019-02-27T09:09:01Z</time>
      </trkpt>
      <trkpt lat="42.74426" lon="0.18514">
        <ele>1984</ele>
        <time>2019-02-27T09:09:02Z</time>
      </trkpt>
      <trkpt lat="42.74428" lon="0.18501">
        <ele>1984</ele>
        <time>2019-02-27T09:09:03Z</time>
      </trkpt>
      <trkpt lat="42.74428" lon="0.18501">
        <ele>1984</ele>
        <time>2019-02-27T09:09:04Z</time>
      </trkpt>
      <trkpt lat="42.74428" lon="0.18501">
        <ele>1984</ele>
        <time>2019-02-27T09:09:05Z</time>
      </trkpt>
      <trkpt lat="42.74428" lon="0.18501">
        <ele>1984</ele>
        <time>2019-02-27T09:09:06Z</time>
      </trkpt>
      <trkpt lat="42.74428" lon="0.18501">
        <ele>1985</ele>
        <time>2019-02-27T09:09:07Z</time>
      </trkpt>
      <trkpt lat="42.74428" lon="0.18501">
        <ele>1985</ele>
        <time>2019-02-27T09:09:08Z</time>
      </trkpt>
      <trkpt lat="42.74428" lon="0.18501">
        <ele>1985</ele>
        <time>2019-02-27T09:09:09Z</time>
      </trkpt>
      <trkpt lat="42.74428" lon="0.18501">
        <ele>1985</ele>
        <time>2019-02-27T09:09:10Z</time>
      </trkpt>
      <trkpt lat="42.74428" lon="0.18501">
        <ele>1985</ele>
        <time>2019-02-27T09:09:11Z</time>
      </trkpt>
      <trkpt lat="42.74428" lon="0.18501">
        <ele>1985</ele>
        <time>2019-02-27T09:09:12Z</time>
      </trkpt>
      <trkpt lat="42.74428" lon="0.18501">
        <ele>1985</ele>
        <time>2019-02-27T09:09:13Z</time>
      </trkpt>
      <trkpt lat="42.74428" lon="0.18501">
        <ele>1985</ele>
        <time>2019-02-27T09:09:14Z</time>
      </trkpt>
      <trkpt lat="42.74428" lon="0.18501">
        <ele>1985</ele>
        <time>2019-02-27T09:09:15Z</time>
      </trkpt>
      <trkpt lat="42.74428" lon="0.18501">
        <ele>1986</ele>
        <time>2019-02-27T09:09:16Z</time>
      </trkpt>
      <trkpt lat="42.74428" lon="0.18501">
        <ele>1986</ele>
        <time>2019-02-27T09:09:17Z</time>
      </trkpt>
      <trkpt lat="42.74428" lon="0.18501">
        <ele>1986</ele>
        <time>2019-02-27T09:09:18Z</time>
      </trkpt>
      <trkpt lat="42.74428" lon="0.18501">
        <ele>1986</ele>
        <time>2019-02-27T09:09:19Z</time>
      </trkpt>
      <trkpt lat="42.74428" lon="0.18501">
        <ele>1986</ele>
        <time>2019-02-27T09:09:20Z</time>
      </trkpt>
      <trkpt lat="42.74428" lon="0.18501">
        <ele>1986</ele>
        <time>2019-02-27T09:09:21Z</time>
      </trkpt>
      <trkpt lat="42.74428" lon="0.18488">
        <ele>1986</ele>
        <time>2019-02-27T09:09:22Z</time>
      </trkpt>
      <trkpt lat="42.74428" lon="0.18488">
        <ele>1986</ele>
        <time>2019-02-27T09:09:23Z</time>
      </trkpt>
      <trkpt lat="42.74428" lon="0.18488">
        <ele>1986</ele>
        <time>2019-02-27T09:09:24Z</time>
      </trkpt>
      <trkpt lat="42.74428" lon="0.18488">
        <ele>1986</ele>
        <time>2019-02-27T09:09:25Z</time>
      </trkpt>
      <trkpt lat="42.74428" lon="0.18488">
        <ele>1987</ele>
        <time>2019-02-27T09:09:26Z</time>
      </trkpt>
      <trkpt lat="42.74428" lon="0.18488">
        <ele>1987</ele>
        <time>2019-02-27T09:09:27Z</time>
      </trkpt>
      <trkpt lat="42.74428" lon="0.18488">
        <ele>1987</ele>
        <time>2019-02-27T09:09:28Z</time>
      </trkpt>
      <trkpt lat="42.74428" lon="0.18488">
        <ele>1987</ele>
        <time>2019-02-27T09:09:29Z</time>
      </trkpt>
      <trkpt lat="42.74428" lon="0.18488">
        <ele>1987</ele>
        <time>2019-02-27T09:09:30Z</time>
      </trkpt>
      <trkpt lat="42.74428" lon="0.18488">
        <ele>1988</ele>
        <time>2019-02-27T09:09:31Z</time>
      </trkpt>
      <trkpt lat="42.74428" lon="0.18488">
        <ele>1988</ele>
        <time>2019-02-27T09:09:32Z</time>
      </trkpt>
      <trkpt lat="42.74428" lon="0.18488">
        <ele>1988</ele>
        <time>2019-02-27T09:09:33Z</time>
      </trkpt>
      <trkpt lat="42.74428" lon="0.18488">
        <ele>1988</ele>
        <time>2019-02-27T09:09:34Z</time>
      </trkpt>
      <trkpt lat="42.74428" lon="0.18488">
        <ele>1988</ele>
        <time>2019-02-27T09:09:35Z</time>
      </trkpt>
      <trkpt lat="42.74428" lon="0.18488">
        <ele>1989</ele>
        <time>2019-02-27T09:09:36Z</time>
      </trkpt>
      <trkpt lat="42.74428" lon="0.18488">
        <ele>1989</ele>
        <time>2019-02-27T09:09:37Z</time>
      </trkpt>
      <trkpt lat="42.74428" lon="0.18488">
        <ele>1988</ele>
        <time>2019-02-27T09:09:38Z</time>
      </trkpt>
      <trkpt lat="42.74428" lon="0.18488">
        <ele>1988</ele>
        <time>2019-02-27T09:09:39Z</time>
      </trkpt>
      <trkpt lat="42.74428" lon="0.18488">
        <ele>1988</ele>
        <time>2019-02-27T09:09:40Z</time>
      </trkpt>
      <trkpt lat="42.74428" lon="0.18488">
        <ele>1988</ele>
        <time>2019-02-27T09:09:41Z</time>
      </trkpt>
      <trkpt lat="42.74428" lon="0.18488">
        <ele>1988</ele>
        <time>2019-02-27T09:09:42Z</time>
      </trkpt>
      <trkpt lat="42.74428" lon="0.18488">
        <ele>1988</ele>
        <time>2019-02-27T09:09:43Z</time>
      </trkpt>
      <trkpt lat="42.74428" lon="0.18488">
        <ele>1988</ele>
        <time>2019-02-27T09:09:44Z</time>
      </trkpt>
      <trkpt lat="42.74428" lon="0.18488">
        <ele>1988</ele>
        <time>2019-02-27T09:09:45Z</time>
      </trkpt>
      <trkpt lat="42.74428" lon="0.18488">
        <ele>1988</ele>
        <time>2019-02-27T09:09:46Z</time>
      </trkpt>
      <trkpt lat="42.74428" lon="0.18488">
        <ele>1988</ele>
        <time>2019-02-27T09:09:47Z</time>
      </trkpt>
      <trkpt lat="42.74428" lon="0.18488">
        <ele>1988</ele>
        <time>2019-02-27T09:09:48Z</time>
      </trkpt>
      <trkpt lat="42.74428" lon="0.18488">
        <ele>1988</ele>
        <time>2019-02-27T09:09:49Z</time>
      </trkpt>
      <trkpt lat="42.74428" lon="0.18488">
        <ele>1988</ele>
        <time>2019-02-27T09:09:50Z</time>
      </trkpt>
      <trkpt lat="42.74428" lon="0.18488">
        <ele>1988</ele>
        <time>2019-02-27T09:09:51Z</time>
      </trkpt>
      <trkpt lat="42.74428" lon="0.18488">
        <ele>1988</ele>
        <time>2019-02-27T09:09:52Z</time>
      </trkpt>
      <trkpt lat="42.74428" lon="0.18488">
        <ele>1988</ele>
        <time>2019-02-27T09:09:53Z</time>
      </trkpt>
      <trkpt lat="42.74428" lon="0.18488">
        <ele>1988</ele>
        <time>2019-02-27T09:09:54Z</time>
      </trkpt>
      <trkpt lat="42.74428" lon="0.18488">
        <ele>1988</ele>
        <time>2019-02-27T09:09:55Z</time>
      </trkpt>
      <trkpt lat="42.74428" lon="0.18488">
        <ele>1988</ele>
        <time>2019-02-27T09:09:56Z</time>
      </trkpt>
      <trkpt lat="42.74428" lon="0.18488">
        <ele>1988</ele>
        <time>2019-02-27T09:09:57Z</time>
      </trkpt>
      <trkpt lat="42.74428" lon="0.18488">
        <ele>1988</ele>
        <time>2019-02-27T09:09:58Z</time>
      </trkpt>
      <trkpt lat="42.74428" lon="0.18488">
        <ele>1988</ele>
        <time>2019-02-27T09:09:59Z</time>
      </trkpt>
      <trkpt lat="42.74428" lon="0.18488">
        <ele>1988</ele>
        <time>2019-02-27T09:10:00Z</time>
      </trkpt>
      <trkpt lat="42.74428" lon="0.18488">
        <ele>1988</ele>
        <time>2019-02-27T09:10:01Z</time>
      </trkpt>
      <trkpt lat="42.74428" lon="0.18488">
        <ele>1988</ele>
        <time>2019-02-27T09:10:02Z</time>
      </trkpt>
      <trkpt lat="42.74428" lon="0.18488">
        <ele>1988</ele>
        <time>2019-02-27T09:10:03Z</time>
      </trkpt>
      <trkpt lat="42.74428" lon="0.18488">
        <ele>1987</ele>
        <time>2019-02-27T09:10:04Z</time>
      </trkpt>
      <trkpt lat="42.74428" lon="0.18488">
        <ele>1987</ele>
        <time>2019-02-27T09:10:05Z</time>
      </trkpt>
      <trkpt lat="42.74428" lon="0.18488">
        <ele>1987</ele>
        <time>2019-02-27T09:10:06Z</time>
      </trkpt>
      <trkpt lat="42.74428" lon="0.18488">
        <ele>1988</ele>
        <time>2019-02-27T09:10:07Z</time>
      </trkpt>
      <trkpt lat="42.74428" lon="0.18488">
        <ele>1988</ele>
        <time>2019-02-27T09:10:08Z</time>
      </trkpt>
      <trkpt lat="42.74428" lon="0.18488">
        <ele>1989</ele>
        <time>2019-02-27T09:10:09Z</time>
      </trkpt>
      <trkpt lat="42.74428" lon="0.18488">
        <ele>1989</ele>
        <time>2019-02-27T09:10:10Z</time>
      </trkpt>
      <trkpt lat="42.74428" lon="0.18488">
        <ele>1988</ele>
        <time>2019-02-27T09:10:11Z</time>
      </trkpt>
      <trkpt lat="42.74428" lon="0.18488">
        <ele>1988</ele>
        <time>2019-02-27T09:10:12Z</time>
      </trkpt>
      <trkpt lat="42.74428" lon="0.18488">
        <ele>1988</ele>
        <time>2019-02-27T09:10:13Z</time>
      </trkpt>
      <trkpt lat="42.74428" lon="0.18488">
        <ele>1988</ele>
        <time>2019-02-27T09:10:14Z</time>
      </trkpt>
      <trkpt lat="42.74428" lon="0.18488">
        <ele>1988</ele>
        <time>2019-02-27T09:10:15Z</time>
      </trkpt>
      <trkpt lat="42.74428" lon="0.18488">
        <ele>1988</ele>
        <time>2019-02-27T09:10:16Z</time>
      </trkpt>
      <trkpt lat="42.74428" lon="0.18488">
        <ele>1988</ele>
        <time>2019-02-27T09:10:17Z</time>
      </trkpt>
      <trkpt lat="42.74427" lon="0.18482">
        <ele>1987</ele>
        <time>2019-02-27T09:10:18Z</time>
      </trkpt>
      <trkpt lat="42.74427" lon="0.18482">
        <ele>1988</ele>
        <time>2019-02-27T09:10:19Z</time>
      </trkpt>
      <trkpt lat="42.74427" lon="0.18482">
        <ele>1988</ele>
        <time>2019-02-27T09:10:20Z</time>
      </trkpt>
      <trkpt lat="42.74427" lon="0.18482">
        <ele>1988</ele>
        <time>2019-02-27T09:10:21Z</time>
      </trkpt>
      <trkpt lat="42.74427" lon="0.18482">
        <ele>1988</ele>
        <time>2019-02-27T09:10:22Z</time>
      </trkpt>
      <trkpt lat="42.74427" lon="0.18482">
        <ele>1988</ele>
        <time>2019-02-27T09:10:23Z</time>
      </trkpt>
      <trkpt lat="42.74427" lon="0.18482">
        <ele>1988</ele>
        <time>2019-02-27T09:10:24Z</time>
      </trkpt>
      <trkpt lat="42.74427" lon="0.18482">
        <ele>1988</ele>
        <time>2019-02-27T09:10:25Z</time>
      </trkpt>
      <trkpt lat="42.74427" lon="0.18482">
        <ele>1988</ele>
        <time>2019-02-27T09:10:26Z</time>
      </trkpt>
      <trkpt lat="42.74427" lon="0.18482">
        <ele>1988</ele>
        <time>2019-02-27T09:10:27Z</time>
      </trkpt>
      <trkpt lat="42.74427" lon="0.18482">
        <ele>1988</ele>
        <time>2019-02-27T09:10:28Z</time>
      </trkpt>
      <trkpt lat="42.74427" lon="0.18482">
        <ele>1988</ele>
        <time>2019-02-27T09:10:29Z</time>
      </trkpt>
      <trkpt lat="42.74427" lon="0.18482">
        <ele>1988</ele>
        <time>2019-02-27T09:10:30Z</time>
      </trkpt>
      <trkpt lat="42.74427" lon="0.18482">
        <ele>1988</ele>
        <time>2019-02-27T09:10:31Z</time>
      </trkpt>
      <trkpt lat="42.74427" lon="0.18482">
        <ele>1988</ele>
        <time>2019-02-27T09:10:32Z</time>
      </trkpt>
      <trkpt lat="42.74427" lon="0.18482">
        <ele>1988</ele>
        <time>2019-02-27T09:10:33Z</time>
      </trkpt>
      <trkpt lat="42.74427" lon="0.18482">
        <ele>1989</ele>
        <time>2019-02-27T09:10:34Z</time>
      </trkpt>
      <trkpt lat="42.74427" lon="0.18482">
        <ele>1989</ele>
        <time>2019-02-27T09:10:35Z</time>
      </trkpt>
      <trkpt lat="42.74427" lon="0.18482">
        <ele>1989</ele>
        <time>2019-02-27T09:10:36Z</time>
      </trkpt>
      <trkpt lat="42.74427" lon="0.18482">
        <ele>1989</ele>
        <time>2019-02-27T09:10:37Z</time>
      </trkpt>
      <trkpt lat="42.74427" lon="0.18482">
        <ele>1988</ele>
        <time>2019-02-27T09:10:38Z</time>
      </trkpt>
      <trkpt lat="42.74427" lon="0.18482">
        <ele>1988</ele>
        <time>2019-02-27T09:10:39Z</time>
      </trkpt>
      <trkpt lat="42.74427" lon="0.18482">
        <ele>1988</ele>
        <time>2019-02-27T09:10:40Z</time>
      </trkpt>
      <trkpt lat="42.74427" lon="0.18482">
        <ele>1988</ele>
        <time>2019-02-27T09:10:41Z</time>
      </trkpt>
      <trkpt lat="42.74427" lon="0.18482">
        <ele>1988</ele>
        <time>2019-02-27T09:10:42Z</time>
      </trkpt>
      <trkpt lat="42.74427" lon="0.18482">
        <ele>1988</ele>
        <time>2019-02-27T09:10:43Z</time>
      </trkpt>
      <trkpt lat="42.74427" lon="0.18482">
        <ele>1987</ele>
        <time>2019-02-27T09:10:44Z</time>
      </trkpt>
      <trkpt lat="42.74427" lon="0.18482">
        <ele>1987</ele>
        <time>2019-02-27T09:10:45Z</time>
      </trkpt>
      <trkpt lat="42.74427" lon="0.18482">
        <ele>1987</ele>
        <time>2019-02-27T09:10:46Z</time>
      </trkpt>
      <trkpt lat="42.74427" lon="0.18482">
        <ele>1987</ele>
        <time>2019-02-27T09:10:47Z</time>
      </trkpt>
      <trkpt lat="42.74427" lon="0.18482">
        <ele>1987</ele>
        <time>2019-02-27T09:10:48Z</time>
      </trkpt>
      <trkpt lat="42.74427" lon="0.18482">
        <ele>1987</ele>
        <time>2019-02-27T09:10:49Z</time>
      </trkpt>
      <trkpt lat="42.74427" lon="0.18482">
        <ele>1988</ele>
        <time>2019-02-27T09:10:50Z</time>
      </trkpt>
      <trkpt lat="42.74427" lon="0.18482">
        <ele>1989</ele>
        <time>2019-02-27T09:10:51Z</time>
      </trkpt>
      <trkpt lat="42.74427" lon="0.18482">
        <ele>1989</ele>
        <time>2019-02-27T09:10:52Z</time>
      </trkpt>
      <trkpt lat="42.74427" lon="0.18482">
        <ele>1989</ele>
        <time>2019-02-27T09:10:53Z</time>
      </trkpt>
      <trkpt lat="42.74427" lon="0.18482">
        <ele>1988</ele>
        <time>2019-02-27T09:10:54Z</time>
      </trkpt>
      <trkpt lat="42.74427" lon="0.18482">
        <ele>1988</ele>
        <time>2019-02-27T09:10:55Z</time>
      </trkpt>
      <trkpt lat="42.74427" lon="0.18482">
        <ele>1988</ele>
        <time>2019-02-27T09:10:56Z</time>
      </trkpt>
      <trkpt lat="42.74427" lon="0.18482">
        <ele>1988</ele>
        <time>2019-02-27T09:10:57Z</time>
      </trkpt>
      <trkpt lat="42.74427" lon="0.18482">
        <ele>1988</ele>
        <time>2019-02-27T09:10:58Z</time>
      </trkpt>
      <trkpt lat="42.74427" lon="0.18482">
        <ele>1988</ele>
        <time>2019-02-27T09:10:59Z</time>
      </trkpt>
      <trkpt lat="42.74427" lon="0.18482">
        <ele>1988</ele>
        <time>2019-02-27T09:11:00Z</time>
      </trkpt>
      <trkpt lat="42.74427" lon="0.18482">
        <ele>1988</ele>
        <time>2019-02-27T09:11:01Z</time>
      </trkpt>
      <trkpt lat="42.74427" lon="0.18482">
        <ele>1988</ele>
        <time>2019-02-27T09:11:02Z</time>
      </trkpt>
      <trkpt lat="42.74427" lon="0.18482">
        <ele>1988</ele>
        <time>2019-02-27T09:11:03Z</time>
      </trkpt>
      <trkpt lat="42.74427" lon="0.18482">
        <ele>1988</ele>
        <time>2019-02-27T09:11:04Z</time>
      </trkpt>
      <trkpt lat="42.74427" lon="0.18482">
        <ele>1988</ele>
        <time>2019-02-27T09:11:05Z</time>
      </trkpt>
      <trkpt lat="42.74427" lon="0.18482">
        <ele>1988</ele>
        <time>2019-02-27T09:11:06Z</time>
      </trkpt>
      <trkpt lat="42.74427" lon="0.18482">
        <ele>1988</ele>
        <time>2019-02-27T09:11:07Z</time>
      </trkpt>
      <trkpt lat="42.74427" lon="0.18482">
        <ele>1988</ele>
        <time>2019-02-27T09:11:08Z</time>
      </trkpt>
      <trkpt lat="42.74427" lon="0.18482">
        <ele>1988</ele>
        <time>2019-02-27T09:11:09Z</time>
      </trkpt>
      <trkpt lat="42.74427" lon="0.18482">
        <ele>1988</ele>
        <time>2019-02-27T09:11:10Z</time>
      </trkpt>
      <trkpt lat="42.74427" lon="0.18482">
        <ele>1988</ele>
        <time>2019-02-27T09:11:11Z</time>
      </trkpt>
      <trkpt lat="42.74427" lon="0.18482">
        <ele>1988</ele>
        <time>2019-02-27T09:11:12Z</time>
      </trkpt>
      <trkpt lat="42.74427" lon="0.18482">
        <ele>1988</ele>
        <time>2019-02-27T09:11:13Z</time>
      </trkpt>
      <trkpt lat="42.74427" lon="0.18482">
        <ele>1987</ele>
        <time>2019-02-27T09:11:14Z</time>
      </trkpt>
      <trkpt lat="42.74427" lon="0.18482">
        <ele>1987</ele>
        <time>2019-02-27T09:11:15Z</time>
      </trkpt>
      <trkpt lat="42.74427" lon="0.18482">
        <ele>1988</ele>
        <time>2019-02-27T09:11:16Z</time>
      </trkpt>
      <trkpt lat="42.74427" lon="0.18482">
        <ele>1988</ele>
        <time>2019-02-27T09:11:17Z</time>
      </trkpt>
      <trkpt lat="42.74427" lon="0.18482">
        <ele>1988</ele>
        <time>2019-02-27T09:11:18Z</time>
      </trkpt>
      <trkpt lat="42.74427" lon="0.18482">
        <ele>1988</ele>
        <time>2019-02-27T09:11:19Z</time>
      </trkpt>
      <trkpt lat="42.74427" lon="0.18482">
        <ele>1987</ele>
        <time>2019-02-27T09:11:20Z</time>
      </trkpt>
      <trkpt lat="42.74427" lon="0.18482">
        <ele>1987</ele>
        <time>2019-02-27T09:11:21Z</time>
      </trkpt>
      <trkpt lat="42.74427" lon="0.18482">
        <ele>1987</ele>
        <time>2019-02-27T09:11:22Z</time>
      </trkpt>
      <trkpt lat="42.74427" lon="0.18482">
        <ele>1987</ele>
        <time>2019-02-27T09:11:23Z</time>
      </trkpt>
      <trkpt lat="42.74427" lon="0.18482">
        <ele>1988</ele>
        <time>2019-02-27T09:11:24Z</time>
      </trkpt>
      <trkpt lat="42.74427" lon="0.18482">
        <ele>1988</ele>
        <time>2019-02-27T09:11:25Z</time>
      </trkpt>
      <trkpt lat="42.74427" lon="0.18482">
        <ele>1988</ele>
        <time>2019-02-27T09:11:26Z</time>
      </trkpt>
      <trkpt lat="42.74427" lon="0.18482">
        <ele>1988</ele>
        <time>2019-02-27T09:11:27Z</time>
      </trkpt>
      <trkpt lat="42.74427" lon="0.18482">
        <ele>1988</ele>
        <time>2019-02-27T09:11:28Z</time>
      </trkpt>
      <trkpt lat="42.74427" lon="0.18482">
        <ele>1988</ele>
        <time>2019-02-27T09:11:29Z</time>
      </trkpt>
      <trkpt lat="42.74427" lon="0.18482">
        <ele>1987</ele>
        <time>2019-02-27T09:11:30Z</time>
      </trkpt>
      <trkpt lat="42.74427" lon="0.18482">
        <ele>1987</ele>
        <time>2019-02-27T09:11:31Z</time>
      </trkpt>
      <trkpt lat="42.74427" lon="0.18482">
        <ele>1987</ele>
        <time>2019-02-27T09:11:32Z</time>
      </trkpt>
      <trkpt lat="42.74427" lon="0.18482">
        <ele>1987</ele>
        <time>2019-02-27T09:11:33Z</time>
      </trkpt>
      <trkpt lat="42.74427" lon="0.18482">
        <ele>1987</ele>
        <time>2019-02-27T09:11:34Z</time>
      </trkpt>
      <trkpt lat="42.74427" lon="0.18482">
        <ele>1987</ele>
        <time>2019-02-27T09:11:35Z</time>
      </trkpt>
      <trkpt lat="42.74427" lon="0.18482">
        <ele>1987</ele>
        <time>2019-02-27T09:11:36Z</time>
      </trkpt>
      <trkpt lat="42.74427" lon="0.18482">
        <ele>1988</ele>
        <time>2019-02-27T09:11:37Z</time>
      </trkpt>
      <trkpt lat="42.74427" lon="0.18482">
        <ele>1988</ele>
        <time>2019-02-27T09:11:38Z</time>
      </trkpt>
      <trkpt lat="42.74427" lon="0.18482">
        <ele>1988</ele>
        <time>2019-02-27T09:11:39Z</time>
      </trkpt>
      <trkpt lat="42.74427" lon="0.18482">
        <ele>1988</ele>
        <time>2019-02-27T09:11:40Z</time>
      </trkpt>
      <trkpt lat="42.74427" lon="0.18482">
        <ele>1988</ele>
        <time>2019-02-27T09:11:41Z</time>
      </trkpt>
      <trkpt lat="42.74427" lon="0.18482">
        <ele>1988</ele>
        <time>2019-02-27T09:11:42Z</time>
      </trkpt>
      <trkpt lat="42.74427" lon="0.18482">
        <ele>1988</ele>
        <time>2019-02-27T09:11:43Z</time>
      </trkpt>
      <trkpt lat="42.74427" lon="0.18482">
        <ele>1987</ele>
        <time>2019-02-27T09:11:44Z</time>
      </trkpt>
      <trkpt lat="42.74427" lon="0.18482">
        <ele>1987</ele>
        <time>2019-02-27T09:11:45Z</time>
      </trkpt>
      <trkpt lat="42.74427" lon="0.18482">
        <ele>1988</ele>
        <time>2019-02-27T09:11:46Z</time>
      </trkpt>
      <trkpt lat="42.74427" lon="0.18482">
        <ele>1988</ele>
        <time>2019-02-27T09:11:47Z</time>
      </trkpt>
      <trkpt lat="42.74427" lon="0.18482">
        <ele>1988</ele>
        <time>2019-02-27T09:11:48Z</time>
      </trkpt>
      <trkpt lat="42.74427" lon="0.18482">
        <ele>1988</ele>
        <time>2019-02-27T09:11:49Z</time>
      </trkpt>
      <trkpt lat="42.74427" lon="0.18482">
        <ele>1988</ele>
        <time>2019-02-27T09:11:50Z</time>
      </trkpt>
      <trkpt lat="42.74427" lon="0.18482">
        <ele>1988</ele>
        <time>2019-02-27T09:11:51Z</time>
      </trkpt>
      <trkpt lat="42.74427" lon="0.18482">
        <ele>1988</ele>
        <time>2019-02-27T09:11:52Z</time>
      </trkpt>
      <trkpt lat="42.74427" lon="0.18482">
        <ele>1988</ele>
        <time>2019-02-27T09:11:53Z</time>
      </trkpt>
      <trkpt lat="42.74427" lon="0.18482">
        <ele>1988</ele>
        <time>2019-02-27T09:11:54Z</time>
      </trkpt>
      <trkpt lat="42.74427" lon="0.18482">
        <ele>1988</ele>
        <time>2019-02-27T09:11:55Z</time>
      </trkpt>
      <trkpt lat="42.74427" lon="0.18482">
        <ele>1988</ele>
        <time>2019-02-27T09:11:56Z</time>
      </trkpt>
      <trkpt lat="42.74427" lon="0.18482">
        <ele>1988</ele>
        <time>2019-02-27T09:11:57Z</time>
      </trkpt>
      <trkpt lat="42.74427" lon="0.18482">
        <ele>1988</ele>
        <time>2019-02-27T09:11:58Z</time>
      </trkpt>
      <trkpt lat="42.74427" lon="0.18482">
        <ele>1988</ele>
        <time>2019-02-27T09:11:59Z</time>
      </trkpt>
      <trkpt lat="42.74427" lon="0.18482">
        <ele>1988</ele>
        <time>2019-02-27T09:12:00Z</time>
      </trkpt>
      <trkpt lat="42.74427" lon="0.18482">
        <ele>1988</ele>
        <time>2019-02-27T09:12:01Z</time>
      </trkpt>
      <trkpt lat="42.74427" lon="0.18482">
        <ele>1988</ele>
        <time>2019-02-27T09:12:02Z</time>
      </trkpt>
      <trkpt lat="42.74427" lon="0.18482">
        <ele>1988</ele>
        <time>2019-02-27T09:12:03Z</time>
      </trkpt>
      <trkpt lat="42.74427" lon="0.18482">
        <ele>1988</ele>
        <time>2019-02-27T09:12:04Z</time>
      </trkpt>
      <trkpt lat="42.74427" lon="0.18482">
        <ele>1989</ele>
        <time>2019-02-27T09:12:05Z</time>
      </trkpt>
      <trkpt lat="42.74427" lon="0.18482">
        <ele>1989</ele>
        <time>2019-02-27T09:12:06Z</time>
      </trkpt>
      <trkpt lat="42.74427" lon="0.18482">
        <ele>1988</ele>
        <time>2019-02-27T09:12:07Z</time>
      </trkpt>
      <trkpt lat="42.74427" lon="0.18482">
        <ele>1988</ele>
        <time>2019-02-27T09:12:08Z</time>
      </trkpt>
      <trkpt lat="42.74427" lon="0.18482">
        <ele>1988</ele>
        <time>2019-02-27T09:12:09Z</time>
      </trkpt>
      <trkpt lat="42.74427" lon="0.18482">
        <ele>1989</ele>
        <time>2019-02-27T09:12:10Z</time>
      </trkpt>
      <trkpt lat="42.74427" lon="0.18482">
        <ele>1989</ele>
        <time>2019-02-27T09:12:11Z</time>
      </trkpt>
      <trkpt lat="42.74427" lon="0.18482">
        <ele>1989</ele>
        <time>2019-02-27T09:12:12Z</time>
      </trkpt>
      <trkpt lat="42.74427" lon="0.18482">
        <ele>1989</ele>
        <time>2019-02-27T09:12:13Z</time>
      </trkpt>
      <trkpt lat="42.74418" lon="0.18482">
        <ele>1991</ele>
        <time>2019-02-27T09:12:14Z</time>
      </trkpt>
      <trkpt lat="42.74418" lon="0.18482">
        <ele>1991</ele>
        <time>2019-02-27T09:12:15Z</time>
      </trkpt>
      <trkpt lat="42.74418" lon="0.18482">
        <ele>1991</ele>
        <time>2019-02-27T09:12:16Z</time>
      </trkpt>
      <trkpt lat="42.74418" lon="0.18482">
        <ele>1991</ele>
        <time>2019-02-27T09:12:17Z</time>
      </trkpt>
      <trkpt lat="42.74418" lon="0.18482">
        <ele>1991</ele>
        <time>2019-02-27T09:12:18Z</time>
      </trkpt>
      <trkpt lat="42.74418" lon="0.18482">
        <ele>1991</ele>
        <time>2019-02-27T09:12:19Z</time>
      </trkpt>
      <trkpt lat="42.74418" lon="0.18482">
        <ele>1991</ele>
        <time>2019-02-27T09:12:20Z</time>
      </trkpt>
      <trkpt lat="42.74418" lon="0.18482">
        <ele>1992</ele>
        <time>2019-02-27T09:12:21Z</time>
      </trkpt>
      <trkpt lat="42.74418" lon="0.18482">
        <ele>1992</ele>
        <time>2019-02-27T09:12:22Z</time>
      </trkpt>
      <trkpt lat="42.74418" lon="0.18482">
        <ele>1992</ele>
        <time>2019-02-27T09:12:23Z</time>
      </trkpt>
      <trkpt lat="42.74418" lon="0.18482">
        <ele>1992</ele>
        <time>2019-02-27T09:12:24Z</time>
      </trkpt>
      <trkpt lat="42.74418" lon="0.18482">
        <ele>1993</ele>
        <time>2019-02-27T09:12:25Z</time>
      </trkpt>
      <trkpt lat="42.74418" lon="0.18482">
        <ele>1993</ele>
        <time>2019-02-27T09:12:26Z</time>
      </trkpt>
      <trkpt lat="42.74408" lon="0.18483">
        <ele>1993</ele>
        <time>2019-02-27T09:12:27Z</time>
      </trkpt>
      <trkpt lat="42.74408" lon="0.18483">
        <ele>1993</ele>
        <time>2019-02-27T09:12:28Z</time>
      </trkpt>
      <trkpt lat="42.74408" lon="0.18483">
        <ele>1993</ele>
        <time>2019-02-27T09:12:29Z</time>
      </trkpt>
      <trkpt lat="42.74408" lon="0.18483">
        <ele>1993</ele>
        <time>2019-02-27T09:12:30Z</time>
      </trkpt>
      <trkpt lat="42.74408" lon="0.18483">
        <ele>1993</ele>
        <time>2019-02-27T09:12:31Z</time>
      </trkpt>
      <trkpt lat="42.74408" lon="0.18483">
        <ele>1994</ele>
        <time>2019-02-27T09:12:32Z</time>
      </trkpt>
      <trkpt lat="42.74408" lon="0.18483">
        <ele>1994</ele>
        <time>2019-02-27T09:12:33Z</time>
      </trkpt>
      <trkpt lat="42.74408" lon="0.18483">
        <ele>1994</ele>
        <time>2019-02-27T09:12:34Z</time>
      </trkpt>
      <trkpt lat="42.74408" lon="0.18483">
        <ele>1994</ele>
        <time>2019-02-27T09:12:35Z</time>
      </trkpt>
      <trkpt lat="42.74408" lon="0.18483">
        <ele>1994</ele>
        <time>2019-02-27T09:12:36Z</time>
      </trkpt>
      <trkpt lat="42.74408" lon="0.18483">
        <ele>1995</ele>
        <time>2019-02-27T09:12:37Z</time>
      </trkpt>
      <trkpt lat="42.74408" lon="0.18483">
        <ele>1995</ele>
        <time>2019-02-27T09:12:38Z</time>
      </trkpt>
      <trkpt lat="42.74408" lon="0.18483">
        <ele>1995</ele>
        <time>2019-02-27T09:12:39Z</time>
      </trkpt>
      <trkpt lat="42.74408" lon="0.18483">
        <ele>1995</ele>
        <time>2019-02-27T09:12:40Z</time>
      </trkpt>
      <trkpt lat="42.74399" lon="0.18485">
        <ele>1995</ele>
        <time>2019-02-27T09:12:41Z</time>
      </trkpt>
      <trkpt lat="42.74399" lon="0.18485">
        <ele>1995</ele>
        <time>2019-02-27T09:12:42Z</time>
      </trkpt>
      <trkpt lat="42.74399" lon="0.18485">
        <ele>1996</ele>
        <time>2019-02-27T09:12:43Z</time>
      </trkpt>
      <trkpt lat="42.74399" lon="0.18485">
        <ele>1996</ele>
        <time>2019-02-27T09:12:44Z</time>
      </trkpt>
      <trkpt lat="42.74399" lon="0.18485">
        <ele>1996</ele>
        <time>2019-02-27T09:12:45Z</time>
      </trkpt>
      <trkpt lat="42.74399" lon="0.18485">
        <ele>1996</ele>
        <time>2019-02-27T09:12:46Z</time>
      </trkpt>
      <trkpt lat="42.74399" lon="0.18485">
        <ele>1996</ele>
        <time>2019-02-27T09:12:47Z</time>
      </trkpt>
      <trkpt lat="42.74399" lon="0.18485">
        <ele>1997</ele>
        <time>2019-02-27T09:12:48Z</time>
      </trkpt>
      <trkpt lat="42.74399" lon="0.18485">
        <ele>1997</ele>
        <time>2019-02-27T09:12:49Z</time>
      </trkpt>
      <trkpt lat="42.74399" lon="0.18485">
        <ele>1997</ele>
        <time>2019-02-27T09:12:50Z</time>
      </trkpt>
      <trkpt lat="42.74399" lon="0.18485">
        <ele>1997</ele>
        <time>2019-02-27T09:12:51Z</time>
      </trkpt>
      <trkpt lat="42.74399" lon="0.18485">
        <ele>1997</ele>
        <time>2019-02-27T09:12:52Z</time>
      </trkpt>
      <trkpt lat="42.74399" lon="0.18485">
        <ele>1997</ele>
        <time>2019-02-27T09:12:53Z</time>
      </trkpt>
      <trkpt lat="42.74399" lon="0.18485">
        <ele>1997</ele>
        <time>2019-02-27T09:12:54Z</time>
      </trkpt>
      <trkpt lat="42.74399" lon="0.18485">
        <ele>1997</ele>
        <time>2019-02-27T09:12:55Z</time>
      </trkpt>
      <trkpt lat="42.74399" lon="0.18485">
        <ele>1998</ele>
        <time>2019-02-27T09:12:56Z</time>
      </trkpt>
      <trkpt lat="42.74399" lon="0.18485">
        <ele>1998</ele>
        <time>2019-02-27T09:12:57Z</time>
      </trkpt>
      <trkpt lat="42.7439" lon="0.1849">
        <ele>1998</ele>
        <time>2019-02-27T09:12:58Z</time>
      </trkpt>
      <trkpt lat="42.7439" lon="0.1849">
        <ele>1998</ele>
        <time>2019-02-27T09:12:59Z</time>
      </trkpt>
      <trkpt lat="42.7439" lon="0.1849">
        <ele>1999</ele>
        <time>2019-02-27T09:13:00Z</time>
      </trkpt>
      <trkpt lat="42.7439" lon="0.1849">
        <ele>1999</ele>
        <time>2019-02-27T09:13:01Z</time>
      </trkpt>
      <trkpt lat="42.7439" lon="0.1849">
        <ele>1999</ele>
        <time>2019-02-27T09:13:02Z</time>
      </trkpt>
      <trkpt lat="42.7439" lon="0.1849">
        <ele>1999</ele>
        <time>2019-02-27T09:13:03Z</time>
      </trkpt>
      <trkpt lat="42.7439" lon="0.1849">
        <ele>1999</ele>
        <time>2019-02-27T09:13:04Z</time>
      </trkpt>
      <trkpt lat="42.7439" lon="0.1849">
        <ele>1999</ele>
        <time>2019-02-27T09:13:05Z</time>
      </trkpt>
      <trkpt lat="42.7439" lon="0.1849">
        <ele>2000</ele>
        <time>2019-02-27T09:13:06Z</time>
      </trkpt>
      <trkpt lat="42.7439" lon="0.1849">
        <ele>2000</ele>
        <time>2019-02-27T09:13:07Z</time>
      </trkpt>
      <trkpt lat="42.7439" lon="0.1849">
        <ele>2000</ele>
        <time>2019-02-27T09:13:08Z</time>
      </trkpt>
      <trkpt lat="42.7439" lon="0.1849">
        <ele>2000</ele>
        <time>2019-02-27T09:13:09Z</time>
      </trkpt>
      <trkpt lat="42.7439" lon="0.1849">
        <ele>2000</ele>
        <time>2019-02-27T09:13:10Z</time>
      </trkpt>
      <trkpt lat="42.7439" lon="0.1849">
        <ele>2000</ele>
        <time>2019-02-27T09:13:11Z</time>
      </trkpt>
      <trkpt lat="42.7439" lon="0.1849">
        <ele>2000</ele>
        <time>2019-02-27T09:13:12Z</time>
      </trkpt>
      <trkpt lat="42.7439" lon="0.1849">
        <ele>2000</ele>
        <time>2019-02-27T09:13:13Z</time>
      </trkpt>
      <trkpt lat="42.7439" lon="0.1849">
        <ele>2000</ele>
        <time>2019-02-27T09:13:14Z</time>
      </trkpt>
      <trkpt lat="42.7439" lon="0.1849">
        <ele>2000</ele>
        <time>2019-02-27T09:13:15Z</time>
      </trkpt>
      <trkpt lat="42.7439" lon="0.1849">
        <ele>2000</ele>
        <time>2019-02-27T09:13:16Z</time>
      </trkpt>
      <trkpt lat="42.7439" lon="0.1849">
        <ele>2000</ele>
        <time>2019-02-27T09:13:17Z</time>
      </trkpt>
      <trkpt lat="42.7439" lon="0.1849">
        <ele>2000</ele>
        <time>2019-02-27T09:13:18Z</time>
      </trkpt>
      <trkpt lat="42.7439" lon="0.1849">
        <ele>2001</ele>
        <time>2019-02-27T09:13:19Z</time>
      </trkpt>
      <trkpt lat="42.7439" lon="0.1849">
        <ele>2001</ele>
        <time>2019-02-27T09:13:20Z</time>
      </trkpt>
      <trkpt lat="42.7439" lon="0.1849">
        <ele>2001</ele>
        <time>2019-02-27T09:13:21Z</time>
      </trkpt>
      <trkpt lat="42.7439" lon="0.1849">
        <ele>2001</ele>
        <time>2019-02-27T09:13:22Z</time>
      </trkpt>
      <trkpt lat="42.7439" lon="0.1849">
        <ele>2001</ele>
        <time>2019-02-27T09:13:23Z</time>
      </trkpt>
      <trkpt lat="42.74384" lon="0.1848">
        <ele>2001</ele>
        <time>2019-02-27T09:13:24Z</time>
      </trkpt>
      <trkpt lat="42.74384" lon="0.1848">
        <ele>2001</ele>
        <time>2019-02-27T09:13:25Z</time>
      </trkpt>
      <trkpt lat="42.74384" lon="0.1848">
        <ele>2001</ele>
        <time>2019-02-27T09:13:26Z</time>
      </trkpt>
      <trkpt lat="42.74384" lon="0.1848">
        <ele>2001</ele>
        <time>2019-02-27T09:13:27Z</time>
      </trkpt>
      <trkpt lat="42.74384" lon="0.1848">
        <ele>2001</ele>
        <time>2019-02-27T09:13:28Z</time>
      </trkpt>
      <trkpt lat="42.74384" lon="0.1848">
        <ele>2002</ele>
        <time>2019-02-27T09:13:29Z</time>
      </trkpt>
      <trkpt lat="42.74384" lon="0.1848">
        <ele>2002</ele>
        <time>2019-02-27T09:13:30Z</time>
      </trkpt>
      <trkpt lat="42.74384" lon="0.1848">
        <ele>2002</ele>
        <time>2019-02-27T09:13:31Z</time>
      </trkpt>
      <trkpt lat="42.74384" lon="0.1848">
        <ele>2002</ele>
        <time>2019-02-27T09:13:32Z</time>
      </trkpt>
      <trkpt lat="42.74384" lon="0.1848">
        <ele>2002</ele>
        <time>2019-02-27T09:13:33Z</time>
      </trkpt>
      <trkpt lat="42.74384" lon="0.1848">
        <ele>2003</ele>
        <time>2019-02-27T09:13:34Z</time>
      </trkpt>
      <trkpt lat="42.74384" lon="0.18468">
        <ele>2003</ele>
        <time>2019-02-27T09:13:35Z</time>
      </trkpt>
      <trkpt lat="42.74384" lon="0.18468">
        <ele>2003</ele>
        <time>2019-02-27T09:13:36Z</time>
      </trkpt>
      <trkpt lat="42.74384" lon="0.18468">
        <ele>2003</ele>
        <time>2019-02-27T09:13:37Z</time>
      </trkpt>
      <trkpt lat="42.74384" lon="0.18468">
        <ele>2003</ele>
        <time>2019-02-27T09:13:38Z</time>
      </trkpt>
      <trkpt lat="42.74384" lon="0.18468">
        <ele>2003</ele>
        <time>2019-02-27T09:13:39Z</time>
      </trkpt>
      <trkpt lat="42.74384" lon="0.18468">
        <ele>2003</ele>
        <time>2019-02-27T09:13:40Z</time>
      </trkpt>
      <trkpt lat="42.74384" lon="0.18468">
        <ele>2003</ele>
        <time>2019-02-27T09:13:41Z</time>
      </trkpt>
      <trkpt lat="42.74384" lon="0.18468">
        <ele>2003</ele>
        <time>2019-02-27T09:13:42Z</time>
      </trkpt>
      <trkpt lat="42.74384" lon="0.18468">
        <ele>2003</ele>
        <time>2019-02-27T09:13:43Z</time>
      </trkpt>
      <trkpt lat="42.74384" lon="0.18468">
        <ele>2003</ele>
        <time>2019-02-27T09:13:44Z</time>
      </trkpt>
      <trkpt lat="42.74384" lon="0.18468">
        <ele>2003</ele>
        <time>2019-02-27T09:13:45Z</time>
      </trkpt>
      <trkpt lat="42.74384" lon="0.18468">
        <ele>2003</ele>
        <time>2019-02-27T09:13:46Z</time>
      </trkpt>
      <trkpt lat="42.74384" lon="0.18468">
        <ele>2003</ele>
        <time>2019-02-27T09:13:47Z</time>
      </trkpt>
      <trkpt lat="42.74384" lon="0.18468">
        <ele>2004</ele>
        <time>2019-02-27T09:13:48Z</time>
      </trkpt>
      <trkpt lat="42.74384" lon="0.18468">
        <ele>2004</ele>
        <time>2019-02-27T09:13:49Z</time>
      </trkpt>
      <trkpt lat="42.74382" lon="0.18456">
        <ele>2004</ele>
        <time>2019-02-27T09:13:50Z</time>
      </trkpt>
      <trkpt lat="42.74382" lon="0.18456">
        <ele>2004</ele>
        <time>2019-02-27T09:13:51Z</time>
      </trkpt>
      <trkpt lat="42.74382" lon="0.18456">
        <ele>2004</ele>
        <time>2019-02-27T09:13:52Z</time>
      </trkpt>
      <trkpt lat="42.74382" lon="0.18456">
        <ele>2004</ele>
        <time>2019-02-27T09:13:53Z</time>
      </trkpt>
      <trkpt lat="42.74382" lon="0.18456">
        <ele>2004</ele>
        <time>2019-02-27T09:13:54Z</time>
      </trkpt>
      <trkpt lat="42.74382" lon="0.18456">
        <ele>2005</ele>
        <time>2019-02-27T09:13:55Z</time>
      </trkpt>
      <trkpt lat="42.74382" lon="0.18456">
        <ele>2005</ele>
        <time>2019-02-27T09:13:56Z</time>
      </trkpt>
      <trkpt lat="42.74382" lon="0.18456">
        <ele>2005</ele>
        <time>2019-02-27T09:13:57Z</time>
      </trkpt>
      <trkpt lat="42.74382" lon="0.18456">
        <ele>2005</ele>
        <time>2019-02-27T09:13:58Z</time>
      </trkpt>
      <trkpt lat="42.74382" lon="0.18456">
        <ele>2005</ele>
        <time>2019-02-27T09:13:59Z</time>
      </trkpt>
      <trkpt lat="42.74382" lon="0.18456">
        <ele>2005</ele>
        <time>2019-02-27T09:14:00Z</time>
      </trkpt>
      <trkpt lat="42.74382" lon="0.18456">
        <ele>2005</ele>
        <time>2019-02-27T09:14:01Z</time>
      </trkpt>
      <trkpt lat="42.74382" lon="0.18456">
        <ele>2005</ele>
        <time>2019-02-27T09:14:02Z</time>
      </trkpt>
      <trkpt lat="42.74382" lon="0.18456">
        <ele>2005</ele>
        <time>2019-02-27T09:14:03Z</time>
      </trkpt>
      <trkpt lat="42.74381" lon="0.18442">
        <ele>2006</ele>
        <time>2019-02-27T09:14:04Z</time>
      </trkpt>
      <trkpt lat="42.74381" lon="0.18442">
        <ele>2006</ele>
        <time>2019-02-27T09:14:05Z</time>
      </trkpt>
      <trkpt lat="42.74381" lon="0.18442">
        <ele>2006</ele>
        <time>2019-02-27T09:14:06Z</time>
      </trkpt>
      <trkpt lat="42.74381" lon="0.18442">
        <ele>2006</ele>
        <time>2019-02-27T09:14:07Z</time>
      </trkpt>
      <trkpt lat="42.74381" lon="0.18442">
        <ele>2007</ele>
        <time>2019-02-27T09:14:08Z</time>
      </trkpt>
      <trkpt lat="42.74383" lon="0.18438">
        <ele>2007</ele>
        <time>2019-02-27T09:14:09Z</time>
      </trkpt>
      <trkpt lat="42.74383" lon="0.18438">
        <ele>2007</ele>
        <time>2019-02-27T09:14:10Z</time>
      </trkpt>
      <trkpt lat="42.74383" lon="0.18438">
        <ele>2007</ele>
        <time>2019-02-27T09:14:11Z</time>
      </trkpt>
      <trkpt lat="42.74383" lon="0.18438">
        <ele>2008</ele>
        <time>2019-02-27T09:14:12Z</time>
      </trkpt>
      <trkpt lat="42.74383" lon="0.18438">
        <ele>2008</ele>
        <time>2019-02-27T09:14:13Z</time>
      </trkpt>
      <trkpt lat="42.74383" lon="0.18438">
        <ele>2008</ele>
        <time>2019-02-27T09:14:14Z</time>
      </trkpt>
      <trkpt lat="42.74383" lon="0.18438">
        <ele>2008</ele>
        <time>2019-02-27T09:14:15Z</time>
      </trkpt>
      <trkpt lat="42.74383" lon="0.18438">
        <ele>2008</ele>
        <time>2019-02-27T09:14:16Z</time>
      </trkpt>
      <trkpt lat="42.74383" lon="0.18438">
        <ele>2008</ele>
        <time>2019-02-27T09:14:17Z</time>
      </trkpt>
      <trkpt lat="42.74383" lon="0.18438">
        <ele>2008</ele>
        <time>2019-02-27T09:14:18Z</time>
      </trkpt>
      <trkpt lat="42.74383" lon="0.18438">
        <ele>2008</ele>
        <time>2019-02-27T09:14:19Z</time>
      </trkpt>
      <trkpt lat="42.74383" lon="0.18438">
        <ele>2008</ele>
        <time>2019-02-27T09:14:20Z</time>
      </trkpt>
      <trkpt lat="42.7438" lon="0.18425">
        <ele>2008</ele>
        <time>2019-02-27T09:14:21Z</time>
      </trkpt>
      <trkpt lat="42.7438" lon="0.18425">
        <ele>2008</ele>
        <time>2019-02-27T09:14:22Z</time>
      </trkpt>
      <trkpt lat="42.7438" lon="0.18425">
        <ele>2009</ele>
        <time>2019-02-27T09:14:23Z</time>
      </trkpt>
      <trkpt lat="42.7438" lon="0.18425">
        <ele>2009</ele>
        <time>2019-02-27T09:14:24Z</time>
      </trkpt>
      <trkpt lat="42.7438" lon="0.18425">
        <ele>2009</ele>
        <time>2019-02-27T09:14:25Z</time>
      </trkpt>
      <trkpt lat="42.7438" lon="0.18425">
        <ele>2009</ele>
        <time>2019-02-27T09:14:26Z</time>
      </trkpt>
      <trkpt lat="42.7438" lon="0.18425">
        <ele>2009</ele>
        <time>2019-02-27T09:14:27Z</time>
      </trkpt>
      <trkpt lat="42.7438" lon="0.18425">
        <ele>2009</ele>
        <time>2019-02-27T09:14:28Z</time>
      </trkpt>
      <trkpt lat="42.7438" lon="0.18425">
        <ele>2009</ele>
        <time>2019-02-27T09:14:29Z</time>
      </trkpt>
      <trkpt lat="42.7438" lon="0.18425">
        <ele>2010</ele>
        <time>2019-02-27T09:14:30Z</time>
      </trkpt>
      <trkpt lat="42.7438" lon="0.18425">
        <ele>2010</ele>
        <time>2019-02-27T09:14:31Z</time>
      </trkpt>
      <trkpt lat="42.7438" lon="0.18425">
        <ele>2010</ele>
        <time>2019-02-27T09:14:32Z</time>
      </trkpt>
      <trkpt lat="42.74374" lon="0.18415">
        <ele>2010</ele>
        <time>2019-02-27T09:14:33Z</time>
      </trkpt>
      <trkpt lat="42.74374" lon="0.18415">
        <ele>2011</ele>
        <time>2019-02-27T09:14:34Z</time>
      </trkpt>
      <trkpt lat="42.74374" lon="0.18415">
        <ele>2011</ele>
        <time>2019-02-27T09:14:35Z</time>
      </trkpt>
      <trkpt lat="42.74374" lon="0.18415">
        <ele>2012</ele>
        <time>2019-02-27T09:14:36Z</time>
      </trkpt>
      <trkpt lat="42.74374" lon="0.18415">
        <ele>2012</ele>
        <time>2019-02-27T09:14:37Z</time>
      </trkpt>
      <trkpt lat="42.74374" lon="0.18415">
        <ele>2012</ele>
        <time>2019-02-27T09:14:38Z</time>
      </trkpt>
      <trkpt lat="42.74374" lon="0.18415">
        <ele>2011</ele>
        <time>2019-02-27T09:14:39Z</time>
      </trkpt>
      <trkpt lat="42.74374" lon="0.18415">
        <ele>2012</ele>
        <time>2019-02-27T09:14:40Z</time>
      </trkpt>
      <trkpt lat="42.74374" lon="0.18415">
        <ele>2012</ele>
        <time>2019-02-27T09:14:41Z</time>
      </trkpt>
      <trkpt lat="42.74374" lon="0.18415">
        <ele>2012</ele>
        <time>2019-02-27T09:14:42Z</time>
      </trkpt>
      <trkpt lat="42.74374" lon="0.18415">
        <ele>2012</ele>
        <time>2019-02-27T09:14:43Z</time>
      </trkpt>
      <trkpt lat="42.74374" lon="0.18415">
        <ele>2012</ele>
        <time>2019-02-27T09:14:44Z</time>
      </trkpt>
      <trkpt lat="42.74374" lon="0.18415">
        <ele>2012</ele>
        <time>2019-02-27T09:14:45Z</time>
      </trkpt>
      <trkpt lat="42.74374" lon="0.18415">
        <ele>2013</ele>
        <time>2019-02-27T09:14:46Z</time>
      </trkpt>
      <trkpt lat="42.74374" lon="0.18415">
        <ele>2013</ele>
        <time>2019-02-27T09:14:47Z</time>
      </trkpt>
      <trkpt lat="42.74374" lon="0.18415">
        <ele>2013</ele>
        <time>2019-02-27T09:14:48Z</time>
      </trkpt>
      <trkpt lat="42.74372" lon="0.18402">
        <ele>2013</ele>
        <time>2019-02-27T09:14:49Z</time>
      </trkpt>
      <trkpt lat="42.74372" lon="0.18402">
        <ele>2013</ele>
        <time>2019-02-27T09:14:50Z</time>
      </trkpt>
      <trkpt lat="42.74372" lon="0.18402">
        <ele>2013</ele>
        <time>2019-02-27T09:14:51Z</time>
      </trkpt>
      <trkpt lat="42.74372" lon="0.18402">
        <ele>2013</ele>
        <time>2019-02-27T09:14:52Z</time>
      </trkpt>
      <trkpt lat="42.74372" lon="0.18402">
        <ele>2013</ele>
        <time>2019-02-27T09:14:53Z</time>
      </trkpt>
      <trkpt lat="42.74372" lon="0.18402">
        <ele>2013</ele>
        <time>2019-02-27T09:14:54Z</time>
      </trkpt>
      <trkpt lat="42.74372" lon="0.18402">
        <ele>2013</ele>
        <time>2019-02-27T09:14:55Z</time>
      </trkpt>
      <trkpt lat="42.74372" lon="0.18402">
        <ele>2013</ele>
        <time>2019-02-27T09:14:56Z</time>
      </trkpt>
      <trkpt lat="42.74372" lon="0.18402">
        <ele>2014</ele>
        <time>2019-02-27T09:14:57Z</time>
      </trkpt>
      <trkpt lat="42.74372" lon="0.18402">
        <ele>2014</ele>
        <time>2019-02-27T09:14:58Z</time>
      </trkpt>
      <trkpt lat="42.74372" lon="0.18402">
        <ele>2014</ele>
        <time>2019-02-27T09:14:59Z</time>
      </trkpt>
      <trkpt lat="42.74371" lon="0.18389">
        <ele>2015</ele>
        <time>2019-02-27T09:15:00Z</time>
      </trkpt>
      <trkpt lat="42.74371" lon="0.18389">
        <ele>2015</ele>
        <time>2019-02-27T09:15:01Z</time>
      </trkpt>
      <trkpt lat="42.74371" lon="0.18389">
        <ele>2015</ele>
        <time>2019-02-27T09:15:02Z</time>
      </trkpt>
      <trkpt lat="42.74371" lon="0.18389">
        <ele>2015</ele>
        <time>2019-02-27T09:15:03Z</time>
      </trkpt>
      <trkpt lat="42.74371" lon="0.18389">
        <ele>2015</ele>
        <time>2019-02-27T09:15:04Z</time>
      </trkpt>
      <trkpt lat="42.74371" lon="0.18389">
        <ele>2015</ele>
        <time>2019-02-27T09:15:05Z</time>
      </trkpt>
      <trkpt lat="42.74371" lon="0.18389">
        <ele>2015</ele>
        <time>2019-02-27T09:15:06Z</time>
      </trkpt>
      <trkpt lat="42.74371" lon="0.18389">
        <ele>2015</ele>
        <time>2019-02-27T09:15:07Z</time>
      </trkpt>
      <trkpt lat="42.74371" lon="0.18389">
        <ele>2015</ele>
        <time>2019-02-27T09:15:08Z</time>
      </trkpt>
      <trkpt lat="42.74371" lon="0.18389">
        <ele>2017</ele>
        <time>2019-02-27T09:15:09Z</time>
      </trkpt>
      <trkpt lat="42.74371" lon="0.18389">
        <ele>2017</ele>
        <time>2019-02-27T09:15:10Z</time>
      </trkpt>
      <trkpt lat="42.74371" lon="0.18389">
        <ele>2017</ele>
        <time>2019-02-27T09:15:11Z</time>
      </trkpt>
      <trkpt lat="42.74371" lon="0.18389">
        <ele>2017</ele>
        <time>2019-02-27T09:15:12Z</time>
      </trkpt>
      <trkpt lat="42.7437" lon="0.18376">
        <ele>2018</ele>
        <time>2019-02-27T09:15:13Z</time>
      </trkpt>
      <trkpt lat="42.7437" lon="0.18376">
        <ele>2018</ele>
        <time>2019-02-27T09:15:14Z</time>
      </trkpt>
      <trkpt lat="42.7437" lon="0.18376">
        <ele>2018</ele>
        <time>2019-02-27T09:15:15Z</time>
      </trkpt>
      <trkpt lat="42.7437" lon="0.18376">
        <ele>2018</ele>
        <time>2019-02-27T09:15:16Z</time>
      </trkpt>
      <trkpt lat="42.7437" lon="0.18376">
        <ele>2018</ele>
        <time>2019-02-27T09:15:17Z</time>
      </trkpt>
      <trkpt lat="42.7437" lon="0.18376">
        <ele>2018</ele>
        <time>2019-02-27T09:15:18Z</time>
      </trkpt>
      <trkpt lat="42.7437" lon="0.18376">
        <ele>2019</ele>
        <time>2019-02-27T09:15:19Z</time>
      </trkpt>
      <trkpt lat="42.7437" lon="0.18376">
        <ele>2019</ele>
        <time>2019-02-27T09:15:20Z</time>
      </trkpt>
      <trkpt lat="42.7437" lon="0.18376">
        <ele>2019</ele>
        <time>2019-02-27T09:15:21Z</time>
      </trkpt>
      <trkpt lat="42.7437" lon="0.18376">
        <ele>2019</ele>
        <time>2019-02-27T09:15:22Z</time>
      </trkpt>
      <trkpt lat="42.7437" lon="0.18376">
        <ele>2019</ele>
        <time>2019-02-27T09:15:23Z</time>
      </trkpt>
      <trkpt lat="42.7437" lon="0.18376">
        <ele>2020</ele>
        <time>2019-02-27T09:15:24Z</time>
      </trkpt>
      <trkpt lat="42.7437" lon="0.18376">
        <ele>2020</ele>
        <time>2019-02-27T09:15:25Z</time>
      </trkpt>
      <trkpt lat="42.74369" lon="0.18364">
        <ele>2020</ele>
        <time>2019-02-27T09:15:26Z</time>
      </trkpt>
      <trkpt lat="42.74369" lon="0.18364">
        <ele>2020</ele>
        <time>2019-02-27T09:15:27Z</time>
      </trkpt>
      <trkpt lat="42.74369" lon="0.18364">
        <ele>2020</ele>
        <time>2019-02-27T09:15:28Z</time>
      </trkpt>
      <trkpt lat="42.74369" lon="0.18364">
        <ele>2020</ele>
        <time>2019-02-27T09:15:29Z</time>
      </trkpt>
      <trkpt lat="42.74369" lon="0.18364">
        <ele>2020</ele>
        <time>2019-02-27T09:15:30Z</time>
      </trkpt>
      <trkpt lat="42.74369" lon="0.18364">
        <ele>2020</ele>
        <time>2019-02-27T09:15:31Z</time>
      </trkpt>
      <trkpt lat="42.74369" lon="0.18364">
        <ele>2020</ele>
        <time>2019-02-27T09:15:32Z</time>
      </trkpt>
      <trkpt lat="42.74369" lon="0.18364">
        <ele>2021</ele>
        <time>2019-02-27T09:15:33Z</time>
      </trkpt>
      <trkpt lat="42.74369" lon="0.18364">
        <ele>2021</ele>
        <time>2019-02-27T09:15:34Z</time>
      </trkpt>
      <trkpt lat="42.74369" lon="0.18364">
        <ele>2021</ele>
        <time>2019-02-27T09:15:35Z</time>
      </trkpt>
      <trkpt lat="42.74369" lon="0.18364">
        <ele>2021</ele>
        <time>2019-02-27T09:15:36Z</time>
      </trkpt>
      <trkpt lat="42.74369" lon="0.18364">
        <ele>2021</ele>
        <time>2019-02-27T09:15:37Z</time>
      </trkpt>
      <trkpt lat="42.74369" lon="0.18364">
        <ele>2022</ele>
        <time>2019-02-27T09:15:38Z</time>
      </trkpt>
      <trkpt lat="42.74369" lon="0.18364">
        <ele>2022</ele>
        <time>2019-02-27T09:15:39Z</time>
      </trkpt>
      <trkpt lat="42.74373" lon="0.18353">
        <ele>2022</ele>
        <time>2019-02-27T09:15:40Z</time>
      </trkpt>
      <trkpt lat="42.74373" lon="0.18353">
        <ele>2022</ele>
        <time>2019-02-27T09:15:41Z</time>
      </trkpt>
      <trkpt lat="42.74373" lon="0.18353">
        <ele>2022</ele>
        <time>2019-02-27T09:15:42Z</time>
      </trkpt>
      <trkpt lat="42.74373" lon="0.18353">
        <ele>2022</ele>
        <time>2019-02-27T09:15:43Z</time>
      </trkpt>
      <trkpt lat="42.74373" lon="0.18353">
        <ele>2023</ele>
        <time>2019-02-27T09:15:44Z</time>
      </trkpt>
      <trkpt lat="42.74373" lon="0.18353">
        <ele>2023</ele>
        <time>2019-02-27T09:15:45Z</time>
      </trkpt>
      <trkpt lat="42.74373" lon="0.18353">
        <ele>2023</ele>
        <time>2019-02-27T09:15:46Z</time>
      </trkpt>
      <trkpt lat="42.74373" lon="0.18353">
        <ele>2023</ele>
        <time>2019-02-27T09:15:47Z</time>
      </trkpt>
      <trkpt lat="42.74373" lon="0.18353">
        <ele>2023</ele>
        <time>2019-02-27T09:15:48Z</time>
      </trkpt>
      <trkpt lat="42.74373" lon="0.18353">
        <ele>2023</ele>
        <time>2019-02-27T09:15:49Z</time>
      </trkpt>
      <trkpt lat="42.74373" lon="0.18353">
        <ele>2023</ele>
        <time>2019-02-27T09:15:50Z</time>
      </trkpt>
      <trkpt lat="42.74373" lon="0.18353">
        <ele>2023</ele>
        <time>2019-02-27T09:15:51Z</time>
      </trkpt>
      <trkpt lat="42.74373" lon="0.18353">
        <ele>2023</ele>
        <time>2019-02-27T09:15:52Z</time>
      </trkpt>
      <trkpt lat="42.74373" lon="0.18353">
        <ele>2023</ele>
        <time>2019-02-27T09:15:53Z</time>
      </trkpt>
      <trkpt lat="42.74373" lon="0.18353">
        <ele>2023</ele>
        <time>2019-02-27T09:15:54Z</time>
      </trkpt>
      <trkpt lat="42.74373" lon="0.18353">
        <ele>2023</ele>
        <time>2019-02-27T09:15:55Z</time>
      </trkpt>
      <trkpt lat="42.74373" lon="0.18353">
        <ele>2024</ele>
        <time>2019-02-27T09:15:56Z</time>
      </trkpt>
      <trkpt lat="42.74373" lon="0.18353">
        <ele>2024</ele>
        <time>2019-02-27T09:15:57Z</time>
      </trkpt>
      <trkpt lat="42.74373" lon="0.18353">
        <ele>2024</ele>
        <time>2019-02-27T09:15:58Z</time>
      </trkpt>
      <trkpt lat="42.74373" lon="0.18353">
        <ele>2023</ele>
        <time>2019-02-27T09:15:59Z</time>
      </trkpt>
      <trkpt lat="42.74373" lon="0.18353">
        <ele>2023</ele>
        <time>2019-02-27T09:16:00Z</time>
      </trkpt>
      <trkpt lat="42.74373" lon="0.18353">
        <ele>2023</ele>
        <time>2019-02-27T09:16:01Z</time>
      </trkpt>
      <trkpt lat="42.74373" lon="0.18353">
        <ele>2023</ele>
        <time>2019-02-27T09:16:02Z</time>
      </trkpt>
      <trkpt lat="42.74373" lon="0.18353">
        <ele>2023</ele>
        <time>2019-02-27T09:16:03Z</time>
      </trkpt>
      <trkpt lat="42.74373" lon="0.18353">
        <ele>2023</ele>
        <time>2019-02-27T09:16:04Z</time>
      </trkpt>
      <trkpt lat="42.74373" lon="0.18353">
        <ele>2023</ele>
        <time>2019-02-27T09:16:05Z</time>
      </trkpt>
      <trkpt lat="42.74373" lon="0.18353">
        <ele>2023</ele>
        <time>2019-02-27T09:16:06Z</time>
      </trkpt>
      <trkpt lat="42.74373" lon="0.18353">
        <ele>2023</ele>
        <time>2019-02-27T09:16:07Z</time>
      </trkpt>
      <trkpt lat="42.74373" lon="0.18353">
        <ele>2024</ele>
        <time>2019-02-27T09:16:08Z</time>
      </trkpt>
      <trkpt lat="42.74373" lon="0.18353">
        <ele>2024</ele>
        <time>2019-02-27T09:16:09Z</time>
      </trkpt>
      <trkpt lat="42.74373" lon="0.18353">
        <ele>2024</ele>
        <time>2019-02-27T09:16:10Z</time>
      </trkpt>
      <trkpt lat="42.74373" lon="0.18353">
        <ele>2024</ele>
        <time>2019-02-27T09:16:11Z</time>
      </trkpt>
      <trkpt lat="42.74373" lon="0.18353">
        <ele>2024</ele>
        <time>2019-02-27T09:16:12Z</time>
      </trkpt>
      <trkpt lat="42.74373" lon="0.18353">
        <ele>2024</ele>
        <time>2019-02-27T09:16:13Z</time>
      </trkpt>
      <trkpt lat="42.74373" lon="0.18353">
        <ele>2024</ele>
        <time>2019-02-27T09:16:14Z</time>
      </trkpt>
      <trkpt lat="42.74373" lon="0.18353">
        <ele>2023</ele>
        <time>2019-02-27T09:16:15Z</time>
      </trkpt>
      <trkpt lat="42.74373" lon="0.18353">
        <ele>2023</ele>
        <time>2019-02-27T09:16:16Z</time>
      </trkpt>
      <trkpt lat="42.74373" lon="0.18353">
        <ele>2023</ele>
        <time>2019-02-27T09:16:17Z</time>
      </trkpt>
      <trkpt lat="42.74373" lon="0.18353">
        <ele>2024</ele>
        <time>2019-02-27T09:16:18Z</time>
      </trkpt>
      <trkpt lat="42.74373" lon="0.18353">
        <ele>2024</ele>
        <time>2019-02-27T09:16:19Z</time>
      </trkpt>
      <trkpt lat="42.74373" lon="0.18353">
        <ele>2024</ele>
        <time>2019-02-27T09:16:20Z</time>
      </trkpt>
      <trkpt lat="42.74373" lon="0.18353">
        <ele>2024</ele>
        <time>2019-02-27T09:16:21Z</time>
      </trkpt>
      <trkpt lat="42.74373" lon="0.18353">
        <ele>2024</ele>
        <time>2019-02-27T09:16:22Z</time>
      </trkpt>
      <trkpt lat="42.74373" lon="0.18353">
        <ele>2024</ele>
        <time>2019-02-27T09:16:23Z</time>
      </trkpt>
      <trkpt lat="42.74373" lon="0.18353">
        <ele>2024</ele>
        <time>2019-02-27T09:16:24Z</time>
      </trkpt>
      <trkpt lat="42.74373" lon="0.18353">
        <ele>2023</ele>
        <time>2019-02-27T09:16:25Z</time>
      </trkpt>
      <trkpt lat="42.74373" lon="0.18353">
        <ele>2023</ele>
        <time>2019-02-27T09:16:26Z</time>
      </trkpt>
      <trkpt lat="42.74373" lon="0.18353">
        <ele>2023</ele>
        <time>2019-02-27T09:16:27Z</time>
      </trkpt>
      <trkpt lat="42.74373" lon="0.18353">
        <ele>2023</ele>
        <time>2019-02-27T09:16:28Z</time>
      </trkpt>
      <trkpt lat="42.74373" lon="0.18353">
        <ele>2023</ele>
        <time>2019-02-27T09:16:29Z</time>
      </trkpt>
      <trkpt lat="42.74373" lon="0.18353">
        <ele>2023</ele>
        <time>2019-02-27T09:16:30Z</time>
      </trkpt>
      <trkpt lat="42.74373" lon="0.18353">
        <ele>2023</ele>
        <time>2019-02-27T09:16:31Z</time>
      </trkpt>
      <trkpt lat="42.74373" lon="0.18353">
        <ele>2023</ele>
        <time>2019-02-27T09:16:32Z</time>
      </trkpt>
      <trkpt lat="42.74373" lon="0.18353">
        <ele>2023</ele>
        <time>2019-02-27T09:16:33Z</time>
      </trkpt>
      <trkpt lat="42.74373" lon="0.18353">
        <ele>2023</ele>
        <time>2019-02-27T09:16:34Z</time>
      </trkpt>
      <trkpt lat="42.74373" lon="0.18353">
        <ele>2023</ele>
        <time>2019-02-27T09:16:35Z</time>
      </trkpt>
      <trkpt lat="42.74373" lon="0.18353">
        <ele>2023</ele>
        <time>2019-02-27T09:16:36Z</time>
      </trkpt>
      <trkpt lat="42.74373" lon="0.18353">
        <ele>2023</ele>
        <time>2019-02-27T09:16:37Z</time>
      </trkpt>
      <trkpt lat="42.74373" lon="0.18353">
        <ele>2023</ele>
        <time>2019-02-27T09:16:38Z</time>
      </trkpt>
      <trkpt lat="42.74373" lon="0.18353">
        <ele>2023</ele>
        <time>2019-02-27T09:16:39Z</time>
      </trkpt>
      <trkpt lat="42.74373" lon="0.18353">
        <ele>2023</ele>
        <time>2019-02-27T09:16:40Z</time>
      </trkpt>
      <trkpt lat="42.74373" lon="0.18353">
        <ele>2023</ele>
        <time>2019-02-27T09:16:41Z</time>
      </trkpt>
      <trkpt lat="42.74373" lon="0.18353">
        <ele>2023</ele>
        <time>2019-02-27T09:16:42Z</time>
      </trkpt>
      <trkpt lat="42.74373" lon="0.18353">
        <ele>2023</ele>
        <time>2019-02-27T09:16:43Z</time>
      </trkpt>
      <trkpt lat="42.74373" lon="0.18353">
        <ele>2023</ele>
        <time>2019-02-27T09:16:44Z</time>
      </trkpt>
      <trkpt lat="42.74373" lon="0.18353">
        <ele>2023</ele>
        <time>2019-02-27T09:16:45Z</time>
      </trkpt>
      <trkpt lat="42.74373" lon="0.18353">
        <ele>2023</ele>
        <time>2019-02-27T09:16:46Z</time>
      </trkpt>
      <trkpt lat="42.74373" lon="0.18353">
        <ele>2023</ele>
        <time>2019-02-27T09:16:47Z</time>
      </trkpt>
      <trkpt lat="42.74373" lon="0.18353">
        <ele>2023</ele>
        <time>2019-02-27T09:16:48Z</time>
      </trkpt>
      <trkpt lat="42.74373" lon="0.18353">
        <ele>2023</ele>
        <time>2019-02-27T09:16:49Z</time>
      </trkpt>
      <trkpt lat="42.74373" lon="0.18353">
        <ele>2023</ele>
        <time>2019-02-27T09:16:50Z</time>
      </trkpt>
      <trkpt lat="42.74373" lon="0.18353">
        <ele>2023</ele>
        <time>2019-02-27T09:16:51Z</time>
      </trkpt>
      <trkpt lat="42.74373" lon="0.18353">
        <ele>2023</ele>
        <time>2019-02-27T09:16:52Z</time>
      </trkpt>
      <trkpt lat="42.74373" lon="0.18353">
        <ele>2023</ele>
        <time>2019-02-27T09:16:53Z</time>
      </trkpt>
      <trkpt lat="42.74373" lon="0.18353">
        <ele>2023</ele>
        <time>2019-02-27T09:16:54Z</time>
      </trkpt>
      <trkpt lat="42.74373" lon="0.18353">
        <ele>2023</ele>
        <time>2019-02-27T09:16:55Z</time>
      </trkpt>
      <trkpt lat="42.74373" lon="0.18353">
        <ele>2023</ele>
        <time>2019-02-27T09:16:56Z</time>
      </trkpt>
      <trkpt lat="42.74373" lon="0.18353">
        <ele>2023</ele>
        <time>2019-02-27T09:16:57Z</time>
      </trkpt>
      <trkpt lat="42.74373" lon="0.18353">
        <ele>2023</ele>
        <time>2019-02-27T09:16:58Z</time>
      </trkpt>
      <trkpt lat="42.74373" lon="0.18353">
        <ele>2023</ele>
        <time>2019-02-27T09:16:59Z</time>
      </trkpt>
      <trkpt lat="42.74373" lon="0.18353">
        <ele>2023</ele>
        <time>2019-02-27T09:17:00Z</time>
      </trkpt>
      <trkpt lat="42.74373" lon="0.18353">
        <ele>2023</ele>
        <time>2019-02-27T09:17:01Z</time>
      </trkpt>
      <trkpt lat="42.74373" lon="0.18353">
        <ele>2023</ele>
        <time>2019-02-27T09:17:02Z</time>
      </trkpt>
      <trkpt lat="42.74373" lon="0.18353">
        <ele>2023</ele>
        <time>2019-02-27T09:17:03Z</time>
      </trkpt>
      <trkpt lat="42.74373" lon="0.18353">
        <ele>2023</ele>
        <time>2019-02-27T09:17:04Z</time>
      </trkpt>
      <trkpt lat="42.74373" lon="0.18353">
        <ele>2023</ele>
        <time>2019-02-27T09:17:05Z</time>
      </trkpt>
      <trkpt lat="42.74373" lon="0.18353">
        <ele>2024</ele>
        <time>2019-02-27T09:17:06Z</time>
      </trkpt>
      <trkpt lat="42.74373" lon="0.18353">
        <ele>2024</ele>
        <time>2019-02-27T09:17:07Z</time>
      </trkpt>
      <trkpt lat="42.74373" lon="0.18353">
        <ele>2024</ele>
        <time>2019-02-27T09:17:08Z</time>
      </trkpt>
      <trkpt lat="42.74373" lon="0.18353">
        <ele>2023</ele>
        <time>2019-02-27T09:17:09Z</time>
      </trkpt>
      <trkpt lat="42.74373" lon="0.18353">
        <ele>2023</ele>
        <time>2019-02-27T09:17:10Z</time>
      </trkpt>
      <trkpt lat="42.74373" lon="0.18353">
        <ele>2023</ele>
        <time>2019-02-27T09:17:11Z</time>
      </trkpt>
      <trkpt lat="42.74373" lon="0.18353">
        <ele>2023</ele>
        <time>2019-02-27T09:17:12Z</time>
      </trkpt>
      <trkpt lat="42.74373" lon="0.18353">
        <ele>2023</ele>
        <time>2019-02-27T09:17:13Z</time>
      </trkpt>
      <trkpt lat="42.74373" lon="0.18353">
        <ele>2024</ele>
        <time>2019-02-27T09:17:14Z</time>
      </trkpt>
      <trkpt lat="42.74373" lon="0.18353">
        <ele>2024</ele>
        <time>2019-02-27T09:17:15Z</time>
      </trkpt>
      <trkpt lat="42.74373" lon="0.18353">
        <ele>2024</ele>
        <time>2019-02-27T09:17:16Z</time>
      </trkpt>
      <trkpt lat="42.74373" lon="0.18353">
        <ele>2024</ele>
        <time>2019-02-27T09:17:17Z</time>
      </trkpt>
      <trkpt lat="42.74373" lon="0.18353">
        <ele>2024</ele>
        <time>2019-02-27T09:17:18Z</time>
      </trkpt>
      <trkpt lat="42.74373" lon="0.18353">
        <ele>2024</ele>
        <time>2019-02-27T09:17:19Z</time>
      </trkpt>
      <trkpt lat="42.74373" lon="0.18353">
        <ele>2024</ele>
        <time>2019-02-27T09:17:20Z</time>
      </trkpt>
      <trkpt lat="42.74373" lon="0.18353">
        <ele>2024</ele>
        <time>2019-02-27T09:17:21Z</time>
      </trkpt>
      <trkpt lat="42.74373" lon="0.18353">
        <ele>2024</ele>
        <time>2019-02-27T09:17:22Z</time>
      </trkpt>
      <trkpt lat="42.74373" lon="0.18353">
        <ele>2024</ele>
        <time>2019-02-27T09:17:23Z</time>
      </trkpt>
      <trkpt lat="42.74373" lon="0.18353">
        <ele>2024</ele>
        <time>2019-02-27T09:17:24Z</time>
      </trkpt>
      <trkpt lat="42.74373" lon="0.18353">
        <ele>2024</ele>
        <time>2019-02-27T09:17:25Z</time>
      </trkpt>
      <trkpt lat="42.74373" lon="0.18353">
        <ele>2024</ele>
        <time>2019-02-27T09:17:26Z</time>
      </trkpt>
      <trkpt lat="42.74373" lon="0.18353">
        <ele>2024</ele>
        <time>2019-02-27T09:17:27Z</time>
      </trkpt>
      <trkpt lat="42.74373" lon="0.18353">
        <ele>2024</ele>
        <time>2019-02-27T09:17:28Z</time>
      </trkpt>
      <trkpt lat="42.74373" lon="0.18353">
        <ele>2024</ele>
        <time>2019-02-27T09:17:29Z</time>
      </trkpt>
      <trkpt lat="42.74373" lon="0.18353">
        <ele>2024</ele>
        <time>2019-02-27T09:17:30Z</time>
      </trkpt>
      <trkpt lat="42.74373" lon="0.18353">
        <ele>2024</ele>
        <time>2019-02-27T09:17:31Z</time>
      </trkpt>
      <trkpt lat="42.74373" lon="0.18353">
        <ele>2024</ele>
        <time>2019-02-27T09:17:32Z</time>
      </trkpt>
      <trkpt lat="42.74373" lon="0.18353">
        <ele>2024</ele>
        <time>2019-02-27T09:17:33Z</time>
      </trkpt>
      <trkpt lat="42.74373" lon="0.18353">
        <ele>2024</ele>
        <time>2019-02-27T09:17:34Z</time>
      </trkpt>
      <trkpt lat="42.74373" lon="0.18353">
        <ele>2024</ele>
        <time>2019-02-27T09:17:35Z</time>
      </trkpt>
      <trkpt lat="42.74373" lon="0.18353">
        <ele>2024</ele>
        <time>2019-02-27T09:17:36Z</time>
      </trkpt>
      <trkpt lat="42.74373" lon="0.18353">
        <ele>2024</ele>
        <time>2019-02-27T09:17:37Z</time>
      </trkpt>
      <trkpt lat="42.74373" lon="0.18353">
        <ele>2024</ele>
        <time>2019-02-27T09:17:38Z</time>
      </trkpt>
      <trkpt lat="42.74373" lon="0.18353">
        <ele>2024</ele>
        <time>2019-02-27T09:17:39Z</time>
      </trkpt>
      <trkpt lat="42.74373" lon="0.18353">
        <ele>2024</ele>
        <time>2019-02-27T09:17:40Z</time>
      </trkpt>
      <trkpt lat="42.74373" lon="0.18353">
        <ele>2024</ele>
        <time>2019-02-27T09:17:41Z</time>
      </trkpt>
      <trkpt lat="42.74373" lon="0.18353">
        <ele>2024</ele>
        <time>2019-02-27T09:17:42Z</time>
      </trkpt>
      <trkpt lat="42.74373" lon="0.18353">
        <ele>2024</ele>
        <time>2019-02-27T09:17:43Z</time>
      </trkpt>
      <trkpt lat="42.74373" lon="0.18353">
        <ele>2024</ele>
        <time>2019-02-27T09:17:44Z</time>
      </trkpt>
      <trkpt lat="42.74373" lon="0.18353">
        <ele>2024</ele>
        <time>2019-02-27T09:17:45Z</time>
      </trkpt>
      <trkpt lat="42.74373" lon="0.18353">
        <ele>2024</ele>
        <time>2019-02-27T09:17:46Z</time>
      </trkpt>
      <trkpt lat="42.74373" lon="0.18353">
        <ele>2024</ele>
        <time>2019-02-27T09:17:47Z</time>
      </trkpt>
      <trkpt lat="42.74373" lon="0.18353">
        <ele>2024</ele>
        <time>2019-02-27T09:17:48Z</time>
      </trkpt>
      <trkpt lat="42.74373" lon="0.18353">
        <ele>2024</ele>
        <time>2019-02-27T09:17:49Z</time>
      </trkpt>
      <trkpt lat="42.74373" lon="0.18353">
        <ele>2024</ele>
        <time>2019-02-27T09:17:50Z</time>
      </trkpt>
      <trkpt lat="42.74373" lon="0.18353">
        <ele>2024</ele>
        <time>2019-02-27T09:17:51Z</time>
      </trkpt>
      <trkpt lat="42.74373" lon="0.18353">
        <ele>2024</ele>
        <time>2019-02-27T09:17:52Z</time>
      </trkpt>
      <trkpt lat="42.74373" lon="0.18353">
        <ele>2024</ele>
        <time>2019-02-27T09:17:53Z</time>
      </trkpt>
      <trkpt lat="42.74373" lon="0.18353">
        <ele>2024</ele>
        <time>2019-02-27T09:17:54Z</time>
      </trkpt>
      <trkpt lat="42.74373" lon="0.18353">
        <ele>2024</ele>
        <time>2019-02-27T09:17:55Z</time>
      </trkpt>
      <trkpt lat="42.74373" lon="0.18353">
        <ele>2024</ele>
        <time>2019-02-27T09:17:56Z</time>
      </trkpt>
      <trkpt lat="42.74373" lon="0.18353">
        <ele>2024</ele>
        <time>2019-02-27T09:17:57Z</time>
      </trkpt>
      <trkpt lat="42.74373" lon="0.18353">
        <ele>2024</ele>
        <time>2019-02-27T09:17:58Z</time>
      </trkpt>
      <trkpt lat="42.74373" lon="0.18353">
        <ele>2024</ele>
        <time>2019-02-27T09:17:59Z</time>
      </trkpt>
      <trkpt lat="42.74373" lon="0.18353">
        <ele>2024</ele>
        <time>2019-02-27T09:18:00Z</time>
      </trkpt>
      <trkpt lat="42.74373" lon="0.18353">
        <ele>2024</ele>
        <time>2019-02-27T09:18:01Z</time>
      </trkpt>
      <trkpt lat="42.74373" lon="0.18353">
        <ele>2024</ele>
        <time>2019-02-27T09:18:02Z</time>
      </trkpt>
      <trkpt lat="42.74373" lon="0.18353">
        <ele>2024</ele>
        <time>2019-02-27T09:18:03Z</time>
      </trkpt>
      <trkpt lat="42.74373" lon="0.18353">
        <ele>2024</ele>
        <time>2019-02-27T09:18:04Z</time>
      </trkpt>
      <trkpt lat="42.74373" lon="0.18353">
        <ele>2024</ele>
        <time>2019-02-27T09:18:05Z</time>
      </trkpt>
      <trkpt lat="42.74373" lon="0.18353">
        <ele>2024</ele>
        <time>2019-02-27T09:18:06Z</time>
      </trkpt>
      <trkpt lat="42.74373" lon="0.18353">
        <ele>2023</ele>
        <time>2019-02-27T09:18:07Z</time>
      </trkpt>
      <trkpt lat="42.74373" lon="0.18353">
        <ele>2023</ele>
        <time>2019-02-27T09:18:08Z</time>
      </trkpt>
      <trkpt lat="42.74373" lon="0.18353">
        <ele>2023</ele>
        <time>2019-02-27T09:18:09Z</time>
      </trkpt>
      <trkpt lat="42.74373" lon="0.18353">
        <ele>2023</ele>
        <time>2019-02-27T09:18:10Z</time>
      </trkpt>
      <trkpt lat="42.74373" lon="0.18353">
        <ele>2023</ele>
        <time>2019-02-27T09:18:11Z</time>
      </trkpt>
      <trkpt lat="42.74373" lon="0.18353">
        <ele>2023</ele>
        <time>2019-02-27T09:18:12Z</time>
      </trkpt>
      <trkpt lat="42.74373" lon="0.18353">
        <ele>2023</ele>
        <time>2019-02-27T09:18:13Z</time>
      </trkpt>
      <trkpt lat="42.74373" lon="0.18353">
        <ele>2023</ele>
        <time>2019-02-27T09:18:14Z</time>
      </trkpt>
      <trkpt lat="42.74373" lon="0.18353">
        <ele>2023</ele>
        <time>2019-02-27T09:18:15Z</time>
      </trkpt>
      <trkpt lat="42.74373" lon="0.18353">
        <ele>2023</ele>
        <time>2019-02-27T09:18:16Z</time>
      </trkpt>
      <trkpt lat="42.74373" lon="0.18353">
        <ele>2023</ele>
        <time>2019-02-27T09:18:17Z</time>
      </trkpt>
      <trkpt lat="42.74373" lon="0.18353">
        <ele>2024</ele>
        <time>2019-02-27T09:18:18Z</time>
      </trkpt>
      <trkpt lat="42.74373" lon="0.18353">
        <ele>2024</ele>
        <time>2019-02-27T09:18:19Z</time>
      </trkpt>
      <trkpt lat="42.74373" lon="0.18353">
        <ele>2024</ele>
        <time>2019-02-27T09:18:20Z</time>
      </trkpt>
      <trkpt lat="42.74373" lon="0.18353">
        <ele>2024</ele>
        <time>2019-02-27T09:18:21Z</time>
      </trkpt>
      <trkpt lat="42.74373" lon="0.18353">
        <ele>2024</ele>
        <time>2019-02-27T09:18:22Z</time>
      </trkpt>
      <trkpt lat="42.74373" lon="0.18353">
        <ele>2024</ele>
        <time>2019-02-27T09:18:23Z</time>
      </trkpt>
      <trkpt lat="42.74373" lon="0.18353">
        <ele>2024</ele>
        <time>2019-02-27T09:18:24Z</time>
      </trkpt>
      <trkpt lat="42.74373" lon="0.18353">
        <ele>2024</ele>
        <time>2019-02-27T09:18:25Z</time>
      </trkpt>
      <trkpt lat="42.74373" lon="0.18353">
        <ele>2024</ele>
        <time>2019-02-27T09:18:26Z</time>
      </trkpt>
      <trkpt lat="42.74373" lon="0.18353">
        <ele>2024</ele>
        <time>2019-02-27T09:18:27Z</time>
      </trkpt>
      <trkpt lat="42.74373" lon="0.18353">
        <ele>2024</ele>
        <time>2019-02-27T09:18:28Z</time>
      </trkpt>
      <trkpt lat="42.74373" lon="0.18353">
        <ele>2024</ele>
        <time>2019-02-27T09:18:29Z</time>
      </trkpt>
      <trkpt lat="42.74373" lon="0.18353">
        <ele>2024</ele>
        <time>2019-02-27T09:18:30Z</time>
      </trkpt>
      <trkpt lat="42.74373" lon="0.18353">
        <ele>2024</ele>
        <time>2019-02-27T09:18:31Z</time>
      </trkpt>
      <trkpt lat="42.74373" lon="0.18353">
        <ele>2024</ele>
        <time>2019-02-27T09:18:32Z</time>
      </trkpt>
      <trkpt lat="42.74373" lon="0.18353">
        <ele>2024</ele>
        <time>2019-02-27T09:18:33Z</time>
      </trkpt>
      <trkpt lat="42.74373" lon="0.18353">
        <ele>2024</ele>
        <time>2019-02-27T09:18:34Z</time>
      </trkpt>
      <trkpt lat="42.74373" lon="0.18353">
        <ele>2023</ele>
        <time>2019-02-27T09:18:35Z</time>
      </trkpt>
      <trkpt lat="42.74373" lon="0.18353">
        <ele>2023</ele>
        <time>2019-02-27T09:18:36Z</time>
      </trkpt>
      <trkpt lat="42.74373" lon="0.18353">
        <ele>2023</ele>
        <time>2019-02-27T09:18:37Z</time>
      </trkpt>
      <trkpt lat="42.74373" lon="0.18353">
        <ele>2024</ele>
        <time>2019-02-27T09:18:38Z</time>
      </trkpt>
      <trkpt lat="42.74373" lon="0.18353">
        <ele>2025</ele>
        <time>2019-02-27T09:18:39Z</time>
      </trkpt>
      <trkpt lat="42.74372" lon="0.18341">
        <ele>2025</ele>
        <time>2019-02-27T09:18:40Z</time>
      </trkpt>
      <trkpt lat="42.74372" lon="0.18341">
        <ele>2027</ele>
        <time>2019-02-27T09:18:41Z</time>
      </trkpt>
      <trkpt lat="42.74372" lon="0.18341">
        <ele>2027</ele>
        <time>2019-02-27T09:18:42Z</time>
      </trkpt>
      <trkpt lat="42.74372" lon="0.18341">
        <ele>2027</ele>
        <time>2019-02-27T09:18:43Z</time>
      </trkpt>
      <trkpt lat="42.74372" lon="0.18341">
        <ele>2027</ele>
        <time>2019-02-27T09:18:44Z</time>
      </trkpt>
      <trkpt lat="42.74372" lon="0.18341">
        <ele>2026</ele>
        <time>2019-02-27T09:18:45Z</time>
      </trkpt>
      <trkpt lat="42.74372" lon="0.18341">
        <ele>2027</ele>
        <time>2019-02-27T09:18:46Z</time>
      </trkpt>
      <trkpt lat="42.74372" lon="0.18341">
        <ele>2027</ele>
        <time>2019-02-27T09:18:47Z</time>
      </trkpt>
      <trkpt lat="42.74372" lon="0.18341">
        <ele>2027</ele>
        <time>2019-02-27T09:18:48Z</time>
      </trkpt>
      <trkpt lat="42.74372" lon="0.18341">
        <ele>2028</ele>
        <time>2019-02-27T09:18:49Z</time>
      </trkpt>
      <trkpt lat="42.74372" lon="0.18341">
        <ele>2028</ele>
        <time>2019-02-27T09:18:50Z</time>
      </trkpt>
      <trkpt lat="42.74372" lon="0.18341">
        <ele>2029</ele>
        <time>2019-02-27T09:18:51Z</time>
      </trkpt>
      <trkpt lat="42.74372" lon="0.18341">
        <ele>2029</ele>
        <time>2019-02-27T09:18:52Z</time>
      </trkpt>
      <trkpt lat="42.74363" lon="0.18337">
        <ele>2029</ele>
        <time>2019-02-27T09:18:53Z</time>
      </trkpt>
      <trkpt lat="42.74363" lon="0.18337">
        <ele>2029</ele>
        <time>2019-02-27T09:18:54Z</time>
      </trkpt>
      <trkpt lat="42.74363" lon="0.18337">
        <ele>2029</ele>
        <time>2019-02-27T09:18:55Z</time>
      </trkpt>
      <trkpt lat="42.74363" lon="0.18337">
        <ele>2029</ele>
        <time>2019-02-27T09:18:56Z</time>
      </trkpt>
      <trkpt lat="42.74363" lon="0.18337">
        <ele>2029</ele>
        <time>2019-02-27T09:18:57Z</time>
      </trkpt>
      <trkpt lat="42.74363" lon="0.18337">
        <ele>2029</ele>
        <time>2019-02-27T09:18:58Z</time>
      </trkpt>
      <trkpt lat="42.74363" lon="0.18337">
        <ele>2029</ele>
        <time>2019-02-27T09:18:59Z</time>
      </trkpt>
      <trkpt lat="42.74363" lon="0.18337">
        <ele>2029</ele>
        <time>2019-02-27T09:19:00Z</time>
      </trkpt>
      <trkpt lat="42.74363" lon="0.18337">
        <ele>2030</ele>
        <time>2019-02-27T09:19:01Z</time>
      </trkpt>
      <trkpt lat="42.74363" lon="0.18337">
        <ele>2030</ele>
        <time>2019-02-27T09:19:02Z</time>
      </trkpt>
      <trkpt lat="42.74363" lon="0.18337">
        <ele>2030</ele>
        <time>2019-02-27T09:19:03Z</time>
      </trkpt>
      <trkpt lat="42.74363" lon="0.18337">
        <ele>2031</ele>
        <time>2019-02-27T09:19:04Z</time>
      </trkpt>
      <trkpt lat="42.74363" lon="0.18337">
        <ele>2031</ele>
        <time>2019-02-27T09:19:05Z</time>
      </trkpt>
      <trkpt lat="42.74354" lon="0.18335">
        <ele>2031</ele>
        <time>2019-02-27T09:19:06Z</time>
      </trkpt>
      <trkpt lat="42.74354" lon="0.18335">
        <ele>2031</ele>
        <time>2019-02-27T09:19:07Z</time>
      </trkpt>
      <trkpt lat="42.74354" lon="0.18335">
        <ele>2032</ele>
        <time>2019-02-27T09:19:08Z</time>
      </trkpt>
      <trkpt lat="42.74354" lon="0.18335">
        <ele>2032</ele>
        <time>2019-02-27T09:19:09Z</time>
      </trkpt>
      <trkpt lat="42.74354" lon="0.18335">
        <ele>2032</ele>
        <time>2019-02-27T09:19:10Z</time>
      </trkpt>
      <trkpt lat="42.74354" lon="0.18335">
        <ele>2032</ele>
        <time>2019-02-27T09:19:11Z</time>
      </trkpt>
      <trkpt lat="42.74354" lon="0.18335">
        <ele>2033</ele>
        <time>2019-02-27T09:19:12Z</time>
      </trkpt>
      <trkpt lat="42.74354" lon="0.18335">
        <ele>2033</ele>
        <time>2019-02-27T09:19:13Z</time>
      </trkpt>
      <trkpt lat="42.74354" lon="0.18335">
        <ele>2033</ele>
        <time>2019-02-27T09:19:14Z</time>
      </trkpt>
      <trkpt lat="42.74354" lon="0.18335">
        <ele>2033</ele>
        <time>2019-02-27T09:19:15Z</time>
      </trkpt>
      <trkpt lat="42.74354" lon="0.18335">
        <ele>2033</ele>
        <time>2019-02-27T09:19:16Z</time>
      </trkpt>
      <trkpt lat="42.74354" lon="0.18335">
        <ele>2033</ele>
        <time>2019-02-27T09:19:17Z</time>
      </trkpt>
      <trkpt lat="42.74354" lon="0.18335">
        <ele>2033</ele>
        <time>2019-02-27T09:19:18Z</time>
      </trkpt>
      <trkpt lat="42.74354" lon="0.18335">
        <ele>2033</ele>
        <time>2019-02-27T09:19:19Z</time>
      </trkpt>
      <trkpt lat="42.74354" lon="0.18335">
        <ele>2033</ele>
        <time>2019-02-27T09:19:20Z</time>
      </trkpt>
      <trkpt lat="42.74354" lon="0.18335">
        <ele>2033</ele>
        <time>2019-02-27T09:19:21Z</time>
      </trkpt>
      <trkpt lat="42.74354" lon="0.18335">
        <ele>2033</ele>
        <time>2019-02-27T09:19:22Z</time>
      </trkpt>
      <trkpt lat="42.74346" lon="0.1833">
        <ele>2034</ele>
        <time>2019-02-27T09:19:23Z</time>
      </trkpt>
      <trkpt lat="42.74346" lon="0.1833">
        <ele>2034</ele>
        <time>2019-02-27T09:19:24Z</time>
      </trkpt>
      <trkpt lat="42.74346" lon="0.1833">
        <ele>2034</ele>
        <time>2019-02-27T09:19:25Z</time>
      </trkpt>
      <trkpt lat="42.74346" lon="0.1833">
        <ele>2034</ele>
        <time>2019-02-27T09:19:26Z</time>
      </trkpt>
      <trkpt lat="42.74346" lon="0.1833">
        <ele>2035</ele>
        <time>2019-02-27T09:19:27Z</time>
      </trkpt>
      <trkpt lat="42.74346" lon="0.1833">
        <ele>2035</ele>
        <time>2019-02-27T09:19:28Z</time>
      </trkpt>
      <trkpt lat="42.74346" lon="0.1833">
        <ele>2035</ele>
        <time>2019-02-27T09:19:29Z</time>
      </trkpt>
      <trkpt lat="42.74346" lon="0.1833">
        <ele>2035</ele>
        <time>2019-02-27T09:19:30Z</time>
      </trkpt>
      <trkpt lat="42.74346" lon="0.1833">
        <ele>2035</ele>
        <time>2019-02-27T09:19:31Z</time>
      </trkpt>
      <trkpt lat="42.74346" lon="0.1833">
        <ele>2035</ele>
        <time>2019-02-27T09:19:32Z</time>
      </trkpt>
      <trkpt lat="42.74346" lon="0.1833">
        <ele>2035</ele>
        <time>2019-02-27T09:19:33Z</time>
      </trkpt>
      <trkpt lat="42.74346" lon="0.1833">
        <ele>2036</ele>
        <time>2019-02-27T09:19:34Z</time>
      </trkpt>
      <trkpt lat="42.74346" lon="0.1833">
        <ele>2036</ele>
        <time>2019-02-27T09:19:35Z</time>
      </trkpt>
      <trkpt lat="42.74346" lon="0.1833">
        <ele>2036</ele>
        <time>2019-02-27T09:19:36Z</time>
      </trkpt>
      <trkpt lat="42.74337" lon="0.18327">
        <ele>2036</ele>
        <time>2019-02-27T09:19:37Z</time>
      </trkpt>
      <trkpt lat="42.74337" lon="0.18327">
        <ele>2036</ele>
        <time>2019-02-27T09:19:38Z</time>
      </trkpt>
      <trkpt lat="42.74337" lon="0.18327">
        <ele>2036</ele>
        <time>2019-02-27T09:19:39Z</time>
      </trkpt>
      <trkpt lat="42.74337" lon="0.18327">
        <ele>2036</ele>
        <time>2019-02-27T09:19:40Z</time>
      </trkpt>
      <trkpt lat="42.74337" lon="0.18327">
        <ele>2036</ele>
        <time>2019-02-27T09:19:41Z</time>
      </trkpt>
      <trkpt lat="42.74337" lon="0.18327">
        <ele>2036</ele>
        <time>2019-02-27T09:19:42Z</time>
      </trkpt>
      <trkpt lat="42.74337" lon="0.18327">
        <ele>2036</ele>
        <time>2019-02-27T09:19:43Z</time>
      </trkpt>
      <trkpt lat="42.74337" lon="0.18327">
        <ele>2037</ele>
        <time>2019-02-27T09:19:44Z</time>
      </trkpt>
      <trkpt lat="42.74337" lon="0.18327">
        <ele>2037</ele>
        <time>2019-02-27T09:19:45Z</time>
      </trkpt>
      <trkpt lat="42.74337" lon="0.18327">
        <ele>2037</ele>
        <time>2019-02-27T09:19:46Z</time>
      </trkpt>
      <trkpt lat="42.74337" lon="0.18327">
        <ele>2037</ele>
        <time>2019-02-27T09:19:47Z</time>
      </trkpt>
      <trkpt lat="42.74337" lon="0.18327">
        <ele>2037</ele>
        <time>2019-02-27T09:19:48Z</time>
      </trkpt>
      <trkpt lat="42.74337" lon="0.18327">
        <ele>2038</ele>
        <time>2019-02-27T09:19:49Z</time>
      </trkpt>
      <trkpt lat="42.74337" lon="0.18327">
        <ele>2038</ele>
        <time>2019-02-27T09:19:50Z</time>
      </trkpt>
      <trkpt lat="42.74337" lon="0.18327">
        <ele>2038</ele>
        <time>2019-02-27T09:19:51Z</time>
      </trkpt>
      <trkpt lat="42.74337" lon="0.18327">
        <ele>2038</ele>
        <time>2019-02-27T09:19:52Z</time>
      </trkpt>
      <trkpt lat="42.74337" lon="0.18327">
        <ele>2038</ele>
        <time>2019-02-27T09:19:53Z</time>
      </trkpt>
      <trkpt lat="42.74337" lon="0.18327">
        <ele>2038</ele>
        <time>2019-02-27T09:19:54Z</time>
      </trkpt>
      <trkpt lat="42.74337" lon="0.18327">
        <ele>2038</ele>
        <time>2019-02-27T09:19:55Z</time>
      </trkpt>
      <trkpt lat="42.74327" lon="0.18326">
        <ele>2038</ele>
        <time>2019-02-27T09:19:56Z</time>
      </trkpt>
      <trkpt lat="42.74327" lon="0.18326">
        <ele>2038</ele>
        <time>2019-02-27T09:19:57Z</time>
      </trkpt>
      <trkpt lat="42.74327" lon="0.18326">
        <ele>2038</ele>
        <time>2019-02-27T09:19:58Z</time>
      </trkpt>
      <trkpt lat="42.74327" lon="0.18326">
        <ele>2038</ele>
        <time>2019-02-27T09:19:59Z</time>
      </trkpt>
      <trkpt lat="42.74327" lon="0.18326">
        <ele>2039</ele>
        <time>2019-02-27T09:20:00Z</time>
      </trkpt>
      <trkpt lat="42.74327" lon="0.18326">
        <ele>2039</ele>
        <time>2019-02-27T09:20:01Z</time>
      </trkpt>
      <trkpt lat="42.74327" lon="0.18326">
        <ele>2040</ele>
        <time>2019-02-27T09:20:02Z</time>
      </trkpt>
      <trkpt lat="42.74327" lon="0.18326">
        <ele>2040</ele>
        <time>2019-02-27T09:20:03Z</time>
      </trkpt>
      <trkpt lat="42.74327" lon="0.18326">
        <ele>2040</ele>
        <time>2019-02-27T09:20:04Z</time>
      </trkpt>
      <trkpt lat="42.74327" lon="0.18326">
        <ele>2040</ele>
        <time>2019-02-27T09:20:05Z</time>
      </trkpt>
      <trkpt lat="42.74327" lon="0.18326">
        <ele>2041</ele>
        <time>2019-02-27T09:20:06Z</time>
      </trkpt>
      <trkpt lat="42.74327" lon="0.18326">
        <ele>2041</ele>
        <time>2019-02-27T09:20:07Z</time>
      </trkpt>
      <trkpt lat="42.74327" lon="0.18326">
        <ele>2041</ele>
        <time>2019-02-27T09:20:08Z</time>
      </trkpt>
      <trkpt lat="42.74327" lon="0.18326">
        <ele>2041</ele>
        <time>2019-02-27T09:20:09Z</time>
      </trkpt>
      <trkpt lat="42.74318" lon="0.18325">
        <ele>2041</ele>
        <time>2019-02-27T09:20:10Z</time>
      </trkpt>
      <trkpt lat="42.74318" lon="0.18325">
        <ele>2041</ele>
        <time>2019-02-27T09:20:11Z</time>
      </trkpt>
      <trkpt lat="42.74318" lon="0.18325">
        <ele>2041</ele>
        <time>2019-02-27T09:20:12Z</time>
      </trkpt>
      <trkpt lat="42.74318" lon="0.18325">
        <ele>2041</ele>
        <time>2019-02-27T09:20:13Z</time>
      </trkpt>
      <trkpt lat="42.74318" lon="0.18325">
        <ele>2041</ele>
        <time>2019-02-27T09:20:14Z</time>
      </trkpt>
      <trkpt lat="42.74318" lon="0.18325">
        <ele>2041</ele>
        <time>2019-02-27T09:20:15Z</time>
      </trkpt>
      <trkpt lat="42.74318" lon="0.18325">
        <ele>2043</ele>
        <time>2019-02-27T09:20:16Z</time>
      </trkpt>
      <trkpt lat="42.74318" lon="0.18325">
        <ele>2043</ele>
        <time>2019-02-27T09:20:17Z</time>
      </trkpt>
      <trkpt lat="42.74318" lon="0.18325">
        <ele>2041</ele>
        <time>2019-02-27T09:20:18Z</time>
      </trkpt>
      <trkpt lat="42.74318" lon="0.18325">
        <ele>2041</ele>
        <time>2019-02-27T09:20:19Z</time>
      </trkpt>
      <trkpt lat="42.74318" lon="0.18325">
        <ele>2043</ele>
        <time>2019-02-27T09:20:20Z</time>
      </trkpt>
      <trkpt lat="42.74318" lon="0.18325">
        <ele>2043</ele>
        <time>2019-02-27T09:20:21Z</time>
      </trkpt>
      <trkpt lat="42.74318" lon="0.18325">
        <ele>2044</ele>
        <time>2019-02-27T09:20:22Z</time>
      </trkpt>
      <trkpt lat="42.74318" lon="0.18325">
        <ele>2044</ele>
        <time>2019-02-27T09:20:23Z</time>
      </trkpt>
      <trkpt lat="42.74318" lon="0.18325">
        <ele>2044</ele>
        <time>2019-02-27T09:20:24Z</time>
      </trkpt>
      <trkpt lat="42.74318" lon="0.18325">
        <ele>2044</ele>
        <time>2019-02-27T09:20:25Z</time>
      </trkpt>
      <trkpt lat="42.74318" lon="0.18325">
        <ele>2044</ele>
        <time>2019-02-27T09:20:26Z</time>
      </trkpt>
      <trkpt lat="42.74318" lon="0.18325">
        <ele>2044</ele>
        <time>2019-02-27T09:20:27Z</time>
      </trkpt>
      <trkpt lat="42.74311" lon="0.18316">
        <ele>2044</ele>
        <time>2019-02-27T09:20:28Z</time>
      </trkpt>
      <trkpt lat="42.74311" lon="0.18316">
        <ele>2044</ele>
        <time>2019-02-27T09:20:29Z</time>
      </trkpt>
      <trkpt lat="42.74311" lon="0.18316">
        <ele>2044</ele>
        <time>2019-02-27T09:20:30Z</time>
      </trkpt>
      <trkpt lat="42.74311" lon="0.18316">
        <ele>2045</ele>
        <time>2019-02-27T09:20:31Z</time>
      </trkpt>
      <trkpt lat="42.74311" lon="0.18316">
        <ele>2045</ele>
        <time>2019-02-27T09:20:32Z</time>
      </trkpt>
      <trkpt lat="42.74311" lon="0.18316">
        <ele>2045</ele>
        <time>2019-02-27T09:20:33Z</time>
      </trkpt>
      <trkpt lat="42.74311" lon="0.18316">
        <ele>2045</ele>
        <time>2019-02-27T09:20:34Z</time>
      </trkpt>
      <trkpt lat="42.74311" lon="0.18316">
        <ele>2045</ele>
        <time>2019-02-27T09:20:35Z</time>
      </trkpt>
      <trkpt lat="42.74311" lon="0.18316">
        <ele>2045</ele>
        <time>2019-02-27T09:20:36Z</time>
      </trkpt>
      <trkpt lat="42.74311" lon="0.18316">
        <ele>2045</ele>
        <time>2019-02-27T09:20:37Z</time>
      </trkpt>
      <trkpt lat="42.74311" lon="0.18316">
        <ele>2046</ele>
        <time>2019-02-27T09:20:38Z</time>
      </trkpt>
      <trkpt lat="42.74311" lon="0.18316">
        <ele>2046</ele>
        <time>2019-02-27T09:20:39Z</time>
      </trkpt>
      <trkpt lat="42.74311" lon="0.18316">
        <ele>2046</ele>
        <time>2019-02-27T09:20:40Z</time>
      </trkpt>
      <trkpt lat="42.74311" lon="0.18316">
        <ele>2046</ele>
        <time>2019-02-27T09:20:41Z</time>
      </trkpt>
      <trkpt lat="42.74311" lon="0.18316">
        <ele>2046</ele>
        <time>2019-02-27T09:20:42Z</time>
      </trkpt>
      <trkpt lat="42.74311" lon="0.18316">
        <ele>2046</ele>
        <time>2019-02-27T09:20:43Z</time>
      </trkpt>
      <trkpt lat="42.7431" lon="0.18303">
        <ele>2046</ele>
        <time>2019-02-27T09:20:44Z</time>
      </trkpt>
      <trkpt lat="42.7431" lon="0.18303">
        <ele>2046</ele>
        <time>2019-02-27T09:20:45Z</time>
      </trkpt>
      <trkpt lat="42.7431" lon="0.18303">
        <ele>2047</ele>
        <time>2019-02-27T09:20:46Z</time>
      </trkpt>
      <trkpt lat="42.7431" lon="0.18303">
        <ele>2047</ele>
        <time>2019-02-27T09:20:47Z</time>
      </trkpt>
      <trkpt lat="42.7431" lon="0.18303">
        <ele>2047</ele>
        <time>2019-02-27T09:20:48Z</time>
      </trkpt>
      <trkpt lat="42.7431" lon="0.18303">
        <ele>2047</ele>
        <time>2019-02-27T09:20:49Z</time>
      </trkpt>
      <trkpt lat="42.7431" lon="0.18303">
        <ele>2047</ele>
        <time>2019-02-27T09:20:50Z</time>
      </trkpt>
      <trkpt lat="42.7431" lon="0.18303">
        <ele>2047</ele>
        <time>2019-02-27T09:20:51Z</time>
      </trkpt>
      <trkpt lat="42.7431" lon="0.18303">
        <ele>2047</ele>
        <time>2019-02-27T09:20:52Z</time>
      </trkpt>
      <trkpt lat="42.7431" lon="0.18303">
        <ele>2047</ele>
        <time>2019-02-27T09:20:53Z</time>
      </trkpt>
      <trkpt lat="42.7431" lon="0.18303">
        <ele>2047</ele>
        <time>2019-02-27T09:20:54Z</time>
      </trkpt>
      <trkpt lat="42.7431" lon="0.18303">
        <ele>2047</ele>
        <time>2019-02-27T09:20:55Z</time>
      </trkpt>
      <trkpt lat="42.7431" lon="0.18303">
        <ele>2047</ele>
        <time>2019-02-27T09:20:56Z</time>
      </trkpt>
      <trkpt lat="42.7431" lon="0.18303">
        <ele>2047</ele>
        <time>2019-02-27T09:20:57Z</time>
      </trkpt>
      <trkpt lat="42.7431" lon="0.18303">
        <ele>2047</ele>
        <time>2019-02-27T09:20:58Z</time>
      </trkpt>
      <trkpt lat="42.7431" lon="0.18303">
        <ele>2047</ele>
        <time>2019-02-27T09:20:59Z</time>
      </trkpt>
      <trkpt lat="42.7431" lon="0.18303">
        <ele>2047</ele>
        <time>2019-02-27T09:21:00Z</time>
      </trkpt>
      <trkpt lat="42.7431" lon="0.18303">
        <ele>2048</ele>
        <time>2019-02-27T09:21:01Z</time>
      </trkpt>
      <trkpt lat="42.7431" lon="0.18303">
        <ele>2048</ele>
        <time>2019-02-27T09:21:02Z</time>
      </trkpt>
      <trkpt lat="42.7431" lon="0.18303">
        <ele>2048</ele>
        <time>2019-02-27T09:21:03Z</time>
      </trkpt>
      <trkpt lat="42.7431" lon="0.18303">
        <ele>2048</ele>
        <time>2019-02-27T09:21:04Z</time>
      </trkpt>
      <trkpt lat="42.7431" lon="0.18303">
        <ele>2048</ele>
        <time>2019-02-27T09:21:05Z</time>
      </trkpt>
      <trkpt lat="42.7431" lon="0.18303">
        <ele>2048</ele>
        <time>2019-02-27T09:21:06Z</time>
      </trkpt>
      <trkpt lat="42.7431" lon="0.18303">
        <ele>2048</ele>
        <time>2019-02-27T09:21:07Z</time>
      </trkpt>
      <trkpt lat="42.7431" lon="0.18303">
        <ele>2048</ele>
        <time>2019-02-27T09:21:08Z</time>
      </trkpt>
      <trkpt lat="42.7431" lon="0.18303">
        <ele>2047</ele>
        <time>2019-02-27T09:21:09Z</time>
      </trkpt>
      <trkpt lat="42.7431" lon="0.18303">
        <ele>2047</ele>
        <time>2019-02-27T09:21:10Z</time>
      </trkpt>
      <trkpt lat="42.7431" lon="0.18303">
        <ele>2047</ele>
        <time>2019-02-27T09:21:11Z</time>
      </trkpt>
      <trkpt lat="42.7431" lon="0.18303">
        <ele>2047</ele>
        <time>2019-02-27T09:21:12Z</time>
      </trkpt>
      <trkpt lat="42.7431" lon="0.18303">
        <ele>2047</ele>
        <time>2019-02-27T09:21:13Z</time>
      </trkpt>
      <trkpt lat="42.7431" lon="0.18303">
        <ele>2048</ele>
        <time>2019-02-27T09:21:14Z</time>
      </trkpt>
      <trkpt lat="42.7431" lon="0.18303">
        <ele>2048</ele>
        <time>2019-02-27T09:21:15Z</time>
      </trkpt>
      <trkpt lat="42.7431" lon="0.18303">
        <ele>2048</ele>
        <time>2019-02-27T09:21:16Z</time>
      </trkpt>
      <trkpt lat="42.7431" lon="0.18303">
        <ele>2048</ele>
        <time>2019-02-27T09:21:17Z</time>
      </trkpt>
      <trkpt lat="42.7431" lon="0.18303">
        <ele>2048</ele>
        <time>2019-02-27T09:21:18Z</time>
      </trkpt>
      <trkpt lat="42.7431" lon="0.18303">
        <ele>2048</ele>
        <time>2019-02-27T09:21:19Z</time>
      </trkpt>
      <trkpt lat="42.7431" lon="0.18303">
        <ele>2048</ele>
        <time>2019-02-27T09:21:20Z</time>
      </trkpt>
      <trkpt lat="42.7431" lon="0.18303">
        <ele>2048</ele>
        <time>2019-02-27T09:21:21Z</time>
      </trkpt>
      <trkpt lat="42.7431" lon="0.18303">
        <ele>2048</ele>
        <time>2019-02-27T09:21:22Z</time>
      </trkpt>
      <trkpt lat="42.7431" lon="0.18303">
        <ele>2048</ele>
        <time>2019-02-27T09:21:23Z</time>
      </trkpt>
      <trkpt lat="42.7431" lon="0.18303">
        <ele>2047</ele>
        <time>2019-02-27T09:21:24Z</time>
      </trkpt>
      <trkpt lat="42.7431" lon="0.18303">
        <ele>2047</ele>
        <time>2019-02-27T09:21:25Z</time>
      </trkpt>
      <trkpt lat="42.7431" lon="0.18303">
        <ele>2047</ele>
        <time>2019-02-27T09:21:26Z</time>
      </trkpt>
      <trkpt lat="42.7431" lon="0.18303">
        <ele>2047</ele>
        <time>2019-02-27T09:21:27Z</time>
      </trkpt>
      <trkpt lat="42.7431" lon="0.18303">
        <ele>2047</ele>
        <time>2019-02-27T09:21:28Z</time>
      </trkpt>
      <trkpt lat="42.7431" lon="0.18303">
        <ele>2047</ele>
        <time>2019-02-27T09:21:29Z</time>
      </trkpt>
      <trkpt lat="42.7431" lon="0.18303">
        <ele>2047</ele>
        <time>2019-02-27T09:21:30Z</time>
      </trkpt>
      <trkpt lat="42.7431" lon="0.18303">
        <ele>2047</ele>
        <time>2019-02-27T09:21:31Z</time>
      </trkpt>
      <trkpt lat="42.7431" lon="0.18303">
        <ele>2047</ele>
        <time>2019-02-27T09:21:32Z</time>
      </trkpt>
      <trkpt lat="42.7431" lon="0.18303">
        <ele>2047</ele>
        <time>2019-02-27T09:21:33Z</time>
      </trkpt>
      <trkpt lat="42.7431" lon="0.18303">
        <ele>2048</ele>
        <time>2019-02-27T09:21:34Z</time>
      </trkpt>
      <trkpt lat="42.7431" lon="0.18303">
        <ele>2048</ele>
        <time>2019-02-27T09:21:35Z</time>
      </trkpt>
      <trkpt lat="42.7431" lon="0.18303">
        <ele>2048</ele>
        <time>2019-02-27T09:21:36Z</time>
      </trkpt>
      <trkpt lat="42.7431" lon="0.18303">
        <ele>2048</ele>
        <time>2019-02-27T09:21:37Z</time>
      </trkpt>
      <trkpt lat="42.7431" lon="0.18303">
        <ele>2048</ele>
        <time>2019-02-27T09:21:38Z</time>
      </trkpt>
      <trkpt lat="42.7431" lon="0.18303">
        <ele>2048</ele>
        <time>2019-02-27T09:21:39Z</time>
      </trkpt>
      <trkpt lat="42.7431" lon="0.18303">
        <ele>2048</ele>
        <time>2019-02-27T09:21:40Z</time>
      </trkpt>
      <trkpt lat="42.7431" lon="0.18303">
        <ele>2048</ele>
        <time>2019-02-27T09:21:41Z</time>
      </trkpt>
      <trkpt lat="42.7431" lon="0.18303">
        <ele>2048</ele>
        <time>2019-02-27T09:21:42Z</time>
      </trkpt>
      <trkpt lat="42.7431" lon="0.18303">
        <ele>2048</ele>
        <time>2019-02-27T09:21:43Z</time>
      </trkpt>
      <trkpt lat="42.7431" lon="0.18303">
        <ele>2047</ele>
        <time>2019-02-27T09:21:44Z</time>
      </trkpt>
      <trkpt lat="42.7431" lon="0.18303">
        <ele>2047</ele>
        <time>2019-02-27T09:21:45Z</time>
      </trkpt>
      <trkpt lat="42.7431" lon="0.18303">
        <ele>2047</ele>
        <time>2019-02-27T09:21:46Z</time>
      </trkpt>
      <trkpt lat="42.7431" lon="0.18303">
        <ele>2047</ele>
        <time>2019-02-27T09:21:47Z</time>
      </trkpt>
      <trkpt lat="42.7431" lon="0.18303">
        <ele>2047</ele>
        <time>2019-02-27T09:21:48Z</time>
      </trkpt>
      <trkpt lat="42.7431" lon="0.18303">
        <ele>2048</ele>
        <time>2019-02-27T09:21:49Z</time>
      </trkpt>
      <trkpt lat="42.7431" lon="0.18303">
        <ele>2048</ele>
        <time>2019-02-27T09:21:50Z</time>
      </trkpt>
      <trkpt lat="42.7431" lon="0.18303">
        <ele>2047</ele>
        <time>2019-02-27T09:21:51Z</time>
      </trkpt>
      <trkpt lat="42.7431" lon="0.18303">
        <ele>2047</ele>
        <time>2019-02-27T09:21:52Z</time>
      </trkpt>
      <trkpt lat="42.7431" lon="0.18303">
        <ele>2047</ele>
        <time>2019-02-27T09:21:53Z</time>
      </trkpt>
      <trkpt lat="42.7431" lon="0.18303">
        <ele>2048</ele>
        <time>2019-02-27T09:21:54Z</time>
      </trkpt>
      <trkpt lat="42.7431" lon="0.18303">
        <ele>2048</ele>
        <time>2019-02-27T09:21:55Z</time>
      </trkpt>
      <trkpt lat="42.7431" lon="0.18303">
        <ele>2048</ele>
        <time>2019-02-27T09:21:56Z</time>
      </trkpt>
      <trkpt lat="42.7431" lon="0.18303">
        <ele>2048</ele>
        <time>2019-02-27T09:21:57Z</time>
      </trkpt>
      <trkpt lat="42.7431" lon="0.18303">
        <ele>2048</ele>
        <time>2019-02-27T09:21:58Z</time>
      </trkpt>
      <trkpt lat="42.7431" lon="0.18303">
        <ele>2048</ele>
        <time>2019-02-27T09:21:59Z</time>
      </trkpt>
      <trkpt lat="42.7431" lon="0.18303">
        <ele>2048</ele>
        <time>2019-02-27T09:22:00Z</time>
      </trkpt>
      <trkpt lat="42.7431" lon="0.18303">
        <ele>2048</ele>
        <time>2019-02-27T09:22:01Z</time>
      </trkpt>
      <trkpt lat="42.7431" lon="0.18303">
        <ele>2048</ele>
        <time>2019-02-27T09:22:02Z</time>
      </trkpt>
      <trkpt lat="42.7431" lon="0.18303">
        <ele>2047</ele>
        <time>2019-02-27T09:22:03Z</time>
      </trkpt>
      <trkpt lat="42.7431" lon="0.18303">
        <ele>2047</ele>
        <time>2019-02-27T09:22:04Z</time>
      </trkpt>
      <trkpt lat="42.7431" lon="0.18303">
        <ele>2048</ele>
        <time>2019-02-27T09:22:05Z</time>
      </trkpt>
      <trkpt lat="42.7431" lon="0.18303">
        <ele>2048</ele>
        <time>2019-02-27T09:22:06Z</time>
      </trkpt>
      <trkpt lat="42.7431" lon="0.18303">
        <ele>2048</ele>
        <time>2019-02-27T09:22:07Z</time>
      </trkpt>
      <trkpt lat="42.7431" lon="0.18303">
        <ele>2048</ele>
        <time>2019-02-27T09:22:08Z</time>
      </trkpt>
      <trkpt lat="42.7431" lon="0.18303">
        <ele>2048</ele>
        <time>2019-02-27T09:22:09Z</time>
      </trkpt>
      <trkpt lat="42.7431" lon="0.18303">
        <ele>2048</ele>
        <time>2019-02-27T09:22:10Z</time>
      </trkpt>
      <trkpt lat="42.7431" lon="0.18303">
        <ele>2048</ele>
        <time>2019-02-27T09:22:11Z</time>
      </trkpt>
      <trkpt lat="42.7431" lon="0.18303">
        <ele>2048</ele>
        <time>2019-02-27T09:22:12Z</time>
      </trkpt>
      <trkpt lat="42.7431" lon="0.18303">
        <ele>2048</ele>
        <time>2019-02-27T09:22:13Z</time>
      </trkpt>
      <trkpt lat="42.7431" lon="0.18303">
        <ele>2048</ele>
        <time>2019-02-27T09:22:14Z</time>
      </trkpt>
      <trkpt lat="42.7431" lon="0.18303">
        <ele>2048</ele>
        <time>2019-02-27T09:22:15Z</time>
      </trkpt>
      <trkpt lat="42.7431" lon="0.18303">
        <ele>2048</ele>
        <time>2019-02-27T09:22:16Z</time>
      </trkpt>
      <trkpt lat="42.7431" lon="0.18303">
        <ele>2048</ele>
        <time>2019-02-27T09:22:17Z</time>
      </trkpt>
      <trkpt lat="42.7431" lon="0.18303">
        <ele>2048</ele>
        <time>2019-02-27T09:22:18Z</time>
      </trkpt>
      <trkpt lat="42.7431" lon="0.18303">
        <ele>2048</ele>
        <time>2019-02-27T09:22:19Z</time>
      </trkpt>
      <trkpt lat="42.7431" lon="0.18303">
        <ele>2048</ele>
        <time>2019-02-27T09:22:20Z</time>
      </trkpt>
      <trkpt lat="42.7431" lon="0.18303">
        <ele>2048</ele>
        <time>2019-02-27T09:22:21Z</time>
      </trkpt>
      <trkpt lat="42.7431" lon="0.18303">
        <ele>2048</ele>
        <time>2019-02-27T09:22:22Z</time>
      </trkpt>
      <trkpt lat="42.7431" lon="0.18303">
        <ele>2048</ele>
        <time>2019-02-27T09:22:23Z</time>
      </trkpt>
      <trkpt lat="42.7431" lon="0.18303">
        <ele>2048</ele>
        <time>2019-02-27T09:22:24Z</time>
      </trkpt>
      <trkpt lat="42.7431" lon="0.18303">
        <ele>2049</ele>
        <time>2019-02-27T09:22:25Z</time>
      </trkpt>
      <trkpt lat="42.7431" lon="0.18303">
        <ele>2049</ele>
        <time>2019-02-27T09:22:26Z</time>
      </trkpt>
      <trkpt lat="42.7431" lon="0.18303">
        <ele>2049</ele>
        <time>2019-02-27T09:22:27Z</time>
      </trkpt>
      <trkpt lat="42.7431" lon="0.18303">
        <ele>2049</ele>
        <time>2019-02-27T09:22:28Z</time>
      </trkpt>
      <trkpt lat="42.74307" lon="0.18291">
        <ele>2049</ele>
        <time>2019-02-27T09:22:29Z</time>
      </trkpt>
      <trkpt lat="42.74307" lon="0.18291">
        <ele>2049</ele>
        <time>2019-02-27T09:22:30Z</time>
      </trkpt>
      <trkpt lat="42.74307" lon="0.18291">
        <ele>2049</ele>
        <time>2019-02-27T09:22:31Z</time>
      </trkpt>
      <trkpt lat="42.74307" lon="0.18291">
        <ele>2049</ele>
        <time>2019-02-27T09:22:32Z</time>
      </trkpt>
      <trkpt lat="42.74307" lon="0.18291">
        <ele>2050</ele>
        <time>2019-02-27T09:22:33Z</time>
      </trkpt>
      <trkpt lat="42.74307" lon="0.18291">
        <ele>2051</ele>
        <time>2019-02-27T09:22:34Z</time>
      </trkpt>
      <trkpt lat="42.74307" lon="0.18291">
        <ele>2051</ele>
        <time>2019-02-27T09:22:35Z</time>
      </trkpt>
      <trkpt lat="42.74307" lon="0.18291">
        <ele>2051</ele>
        <time>2019-02-27T09:22:36Z</time>
      </trkpt>
      <trkpt lat="42.74307" lon="0.18291">
        <ele>2051</ele>
        <time>2019-02-27T09:22:37Z</time>
      </trkpt>
      <trkpt lat="42.74307" lon="0.18291">
        <ele>2050</ele>
        <time>2019-02-27T09:22:38Z</time>
      </trkpt>
      <trkpt lat="42.74307" lon="0.18291">
        <ele>2051</ele>
        <time>2019-02-27T09:22:39Z</time>
      </trkpt>
      <trkpt lat="42.74307" lon="0.18291">
        <ele>2051</ele>
        <time>2019-02-27T09:22:40Z</time>
      </trkpt>
      <trkpt lat="42.74307" lon="0.18291">
        <ele>2051</ele>
        <time>2019-02-27T09:22:41Z</time>
      </trkpt>
      <trkpt lat="42.74307" lon="0.18291">
        <ele>2051</ele>
        <time>2019-02-27T09:22:42Z</time>
      </trkpt>
      <trkpt lat="42.74307" lon="0.18291">
        <ele>2051</ele>
        <time>2019-02-27T09:22:43Z</time>
      </trkpt>
      <trkpt lat="42.74307" lon="0.18291">
        <ele>2052</ele>
        <time>2019-02-27T09:22:44Z</time>
      </trkpt>
      <trkpt lat="42.74307" lon="0.18291">
        <ele>2052</ele>
        <time>2019-02-27T09:22:45Z</time>
      </trkpt>
      <trkpt lat="42.74307" lon="0.18291">
        <ele>2052</ele>
        <time>2019-02-27T09:22:46Z</time>
      </trkpt>
      <trkpt lat="42.74307" lon="0.18291">
        <ele>2052</ele>
        <time>2019-02-27T09:22:47Z</time>
      </trkpt>
      <trkpt lat="42.74307" lon="0.18291">
        <ele>2052</ele>
        <time>2019-02-27T09:22:48Z</time>
      </trkpt>
      <trkpt lat="42.74303" lon="0.18279">
        <ele>2052</ele>
        <time>2019-02-27T09:22:49Z</time>
      </trkpt>
      <trkpt lat="42.74303" lon="0.18279">
        <ele>2052</ele>
        <time>2019-02-27T09:22:50Z</time>
      </trkpt>
      <trkpt lat="42.74303" lon="0.18279">
        <ele>2053</ele>
        <time>2019-02-27T09:22:51Z</time>
      </trkpt>
      <trkpt lat="42.74303" lon="0.18279">
        <ele>2053</ele>
        <time>2019-02-27T09:22:52Z</time>
      </trkpt>
      <trkpt lat="42.74303" lon="0.18279">
        <ele>2053</ele>
        <time>2019-02-27T09:22:53Z</time>
      </trkpt>
      <trkpt lat="42.74303" lon="0.18279">
        <ele>2053</ele>
        <time>2019-02-27T09:22:54Z</time>
      </trkpt>
      <trkpt lat="42.74303" lon="0.18279">
        <ele>2053</ele>
        <time>2019-02-27T09:22:55Z</time>
      </trkpt>
      <trkpt lat="42.74303" lon="0.18279">
        <ele>2053</ele>
        <time>2019-02-27T09:22:56Z</time>
      </trkpt>
      <trkpt lat="42.74303" lon="0.18279">
        <ele>2053</ele>
        <time>2019-02-27T09:22:57Z</time>
      </trkpt>
      <trkpt lat="42.74303" lon="0.18279">
        <ele>2053</ele>
        <time>2019-02-27T09:22:58Z</time>
      </trkpt>
      <trkpt lat="42.74303" lon="0.18279">
        <ele>2054</ele>
        <time>2019-02-27T09:22:59Z</time>
      </trkpt>
      <trkpt lat="42.74303" lon="0.18279">
        <ele>2054</ele>
        <time>2019-02-27T09:23:00Z</time>
      </trkpt>
      <trkpt lat="42.74303" lon="0.18279">
        <ele>2054</ele>
        <time>2019-02-27T09:23:01Z</time>
      </trkpt>
      <trkpt lat="42.74303" lon="0.18279">
        <ele>2054</ele>
        <time>2019-02-27T09:23:02Z</time>
      </trkpt>
      <trkpt lat="42.74303" lon="0.18279">
        <ele>2055</ele>
        <time>2019-02-27T09:23:03Z</time>
      </trkpt>
      <trkpt lat="42.74303" lon="0.18279">
        <ele>2055</ele>
        <time>2019-02-27T09:23:04Z</time>
      </trkpt>
      <trkpt lat="42.74303" lon="0.18279">
        <ele>2055</ele>
        <time>2019-02-27T09:23:05Z</time>
      </trkpt>
      <trkpt lat="42.74303" lon="0.18279">
        <ele>2055</ele>
        <time>2019-02-27T09:23:06Z</time>
      </trkpt>
      <trkpt lat="42.74303" lon="0.18279">
        <ele>2055</ele>
        <time>2019-02-27T09:23:07Z</time>
      </trkpt>
      <trkpt lat="42.74303" lon="0.18279">
        <ele>2055</ele>
        <time>2019-02-27T09:23:08Z</time>
      </trkpt>
      <trkpt lat="42.74303" lon="0.18279">
        <ele>2055</ele>
        <time>2019-02-27T09:23:09Z</time>
      </trkpt>
      <trkpt lat="42.74299" lon="0.18267">
        <ele>2055</ele>
        <time>2019-02-27T09:23:10Z</time>
      </trkpt>
      <trkpt lat="42.74299" lon="0.18267">
        <ele>2055</ele>
        <time>2019-02-27T09:23:11Z</time>
      </trkpt>
      <trkpt lat="42.74299" lon="0.18267">
        <ele>2055</ele>
        <time>2019-02-27T09:23:12Z</time>
      </trkpt>
      <trkpt lat="42.74299" lon="0.18267">
        <ele>2055</ele>
        <time>2019-02-27T09:23:13Z</time>
      </trkpt>
      <trkpt lat="42.74299" lon="0.18267">
        <ele>2055</ele>
        <time>2019-02-27T09:23:14Z</time>
      </trkpt>
      <trkpt lat="42.74299" lon="0.18267">
        <ele>2055</ele>
        <time>2019-02-27T09:23:15Z</time>
      </trkpt>
      <trkpt lat="42.74299" lon="0.18267">
        <ele>2055</ele>
        <time>2019-02-27T09:23:16Z</time>
      </trkpt>
      <trkpt lat="42.74299" lon="0.18267">
        <ele>2055</ele>
        <time>2019-02-27T09:23:17Z</time>
      </trkpt>
      <trkpt lat="42.74299" lon="0.18267">
        <ele>2056</ele>
        <time>2019-02-27T09:23:18Z</time>
      </trkpt>
      <trkpt lat="42.74299" lon="0.18267">
        <ele>2056</ele>
        <time>2019-02-27T09:23:19Z</time>
      </trkpt>
      <trkpt lat="42.74299" lon="0.18267">
        <ele>2056</ele>
        <time>2019-02-27T09:23:20Z</time>
      </trkpt>
      <trkpt lat="42.74299" lon="0.18267">
        <ele>2056</ele>
        <time>2019-02-27T09:23:21Z</time>
      </trkpt>
      <trkpt lat="42.74299" lon="0.18267">
        <ele>2056</ele>
        <time>2019-02-27T09:23:22Z</time>
      </trkpt>
      <trkpt lat="42.74299" lon="0.18267">
        <ele>2056</ele>
        <time>2019-02-27T09:23:23Z</time>
      </trkpt>
      <trkpt lat="42.74299" lon="0.18267">
        <ele>2056</ele>
        <time>2019-02-27T09:23:24Z</time>
      </trkpt>
      <trkpt lat="42.74299" lon="0.18267">
        <ele>2056</ele>
        <time>2019-02-27T09:23:25Z</time>
      </trkpt>
      <trkpt lat="42.74299" lon="0.18267">
        <ele>2056</ele>
        <time>2019-02-27T09:23:26Z</time>
      </trkpt>
      <trkpt lat="42.74299" lon="0.18267">
        <ele>2056</ele>
        <time>2019-02-27T09:23:27Z</time>
      </trkpt>
      <trkpt lat="42.74299" lon="0.18267">
        <ele>2057</ele>
        <time>2019-02-27T09:23:28Z</time>
      </trkpt>
      <trkpt lat="42.74299" lon="0.18267">
        <ele>2057</ele>
        <time>2019-02-27T09:23:29Z</time>
      </trkpt>
      <trkpt lat="42.74299" lon="0.18267">
        <ele>2057</ele>
        <time>2019-02-27T09:23:30Z</time>
      </trkpt>
      <trkpt lat="42.74299" lon="0.18267">
        <ele>2057</ele>
        <time>2019-02-27T09:23:31Z</time>
      </trkpt>
      <trkpt lat="42.74299" lon="0.18267">
        <ele>2057</ele>
        <time>2019-02-27T09:23:32Z</time>
      </trkpt>
      <trkpt lat="42.74299" lon="0.18267">
        <ele>2057</ele>
        <time>2019-02-27T09:23:33Z</time>
      </trkpt>
      <trkpt lat="42.74299" lon="0.18267">
        <ele>2057</ele>
        <time>2019-02-27T09:23:34Z</time>
      </trkpt>
      <trkpt lat="42.74297" lon="0.18255">
        <ele>2057</ele>
        <time>2019-02-27T09:23:35Z</time>
      </trkpt>
      <trkpt lat="42.74297" lon="0.18255">
        <ele>2057</ele>
        <time>2019-02-27T09:23:36Z</time>
      </trkpt>
      <trkpt lat="42.74297" lon="0.18255">
        <ele>2057</ele>
        <time>2019-02-27T09:23:37Z</time>
      </trkpt>
      <trkpt lat="42.74297" lon="0.18255">
        <ele>2058</ele>
        <time>2019-02-27T09:23:38Z</time>
      </trkpt>
      <trkpt lat="42.74297" lon="0.18255">
        <ele>2059</ele>
        <time>2019-02-27T09:23:39Z</time>
      </trkpt>
      <trkpt lat="42.74297" lon="0.18255">
        <ele>2059</ele>
        <time>2019-02-27T09:23:40Z</time>
      </trkpt>
      <trkpt lat="42.74297" lon="0.18255">
        <ele>2059</ele>
        <time>2019-02-27T09:23:41Z</time>
      </trkpt>
      <trkpt lat="42.74297" lon="0.18255">
        <ele>2059</ele>
        <time>2019-02-27T09:23:42Z</time>
      </trkpt>
      <trkpt lat="42.74297" lon="0.18255">
        <ele>2058</ele>
        <time>2019-02-27T09:23:43Z</time>
      </trkpt>
      <trkpt lat="42.74297" lon="0.18255">
        <ele>2058</ele>
        <time>2019-02-27T09:23:44Z</time>
      </trkpt>
      <trkpt lat="42.74297" lon="0.18255">
        <ele>2058</ele>
        <time>2019-02-27T09:23:45Z</time>
      </trkpt>
      <trkpt lat="42.74297" lon="0.18255">
        <ele>2058</ele>
        <time>2019-02-27T09:23:46Z</time>
      </trkpt>
      <trkpt lat="42.74297" lon="0.18255">
        <ele>2059</ele>
        <time>2019-02-27T09:23:47Z</time>
      </trkpt>
      <trkpt lat="42.74297" lon="0.18255">
        <ele>2059</ele>
        <time>2019-02-27T09:23:48Z</time>
      </trkpt>
      <trkpt lat="42.74297" lon="0.18255">
        <ele>2059</ele>
        <time>2019-02-27T09:23:49Z</time>
      </trkpt>
      <trkpt lat="42.74297" lon="0.18255">
        <ele>2059</ele>
        <time>2019-02-27T09:23:50Z</time>
      </trkpt>
      <trkpt lat="42.74297" lon="0.18255">
        <ele>2059</ele>
        <time>2019-02-27T09:23:51Z</time>
      </trkpt>
      <trkpt lat="42.74297" lon="0.18255">
        <ele>2059</ele>
        <time>2019-02-27T09:23:52Z</time>
      </trkpt>
      <trkpt lat="42.74293" lon="0.18244">
        <ele>2059</ele>
        <time>2019-02-27T09:23:53Z</time>
      </trkpt>
      <trkpt lat="42.74293" lon="0.18244">
        <ele>2059</ele>
        <time>2019-02-27T09:23:54Z</time>
      </trkpt>
      <trkpt lat="42.74293" lon="0.18244">
        <ele>2059</ele>
        <time>2019-02-27T09:23:55Z</time>
      </trkpt>
      <trkpt lat="42.74293" lon="0.18244">
        <ele>2059</ele>
        <time>2019-02-27T09:23:56Z</time>
      </trkpt>
      <trkpt lat="42.74293" lon="0.18244">
        <ele>2059</ele>
        <time>2019-02-27T09:23:57Z</time>
      </trkpt>
      <trkpt lat="42.74293" lon="0.18244">
        <ele>2059</ele>
        <time>2019-02-27T09:23:58Z</time>
      </trkpt>
      <trkpt lat="42.74293" lon="0.18244">
        <ele>2059</ele>
        <time>2019-02-27T09:23:59Z</time>
      </trkpt>
      <trkpt lat="42.74293" lon="0.18244">
        <ele>2060</ele>
        <time>2019-02-27T09:24:00Z</time>
      </trkpt>
      <trkpt lat="42.74293" lon="0.18244">
        <ele>2060</ele>
        <time>2019-02-27T09:24:01Z</time>
      </trkpt>
      <trkpt lat="42.74293" lon="0.18244">
        <ele>2060</ele>
        <time>2019-02-27T09:24:02Z</time>
      </trkpt>
      <trkpt lat="42.74293" lon="0.18244">
        <ele>2060</ele>
        <time>2019-02-27T09:24:03Z</time>
      </trkpt>
      <trkpt lat="42.74293" lon="0.18244">
        <ele>2060</ele>
        <time>2019-02-27T09:24:04Z</time>
      </trkpt>
      <trkpt lat="42.74293" lon="0.18244">
        <ele>2061</ele>
        <time>2019-02-27T09:24:05Z</time>
      </trkpt>
      <trkpt lat="42.74293" lon="0.18244">
        <ele>2061</ele>
        <time>2019-02-27T09:24:06Z</time>
      </trkpt>
      <trkpt lat="42.74293" lon="0.18244">
        <ele>2061</ele>
        <time>2019-02-27T09:24:07Z</time>
      </trkpt>
      <trkpt lat="42.74293" lon="0.18244">
        <ele>2061</ele>
        <time>2019-02-27T09:24:08Z</time>
      </trkpt>
      <trkpt lat="42.74293" lon="0.18244">
        <ele>2061</ele>
        <time>2019-02-27T09:24:09Z</time>
      </trkpt>
      <trkpt lat="42.74293" lon="0.18244">
        <ele>2061</ele>
        <time>2019-02-27T09:24:10Z</time>
      </trkpt>
      <trkpt lat="42.74293" lon="0.18244">
        <ele>2061</ele>
        <time>2019-02-27T09:24:11Z</time>
      </trkpt>
      <trkpt lat="42.74293" lon="0.18244">
        <ele>2061</ele>
        <time>2019-02-27T09:24:12Z</time>
      </trkpt>
      <trkpt lat="42.74293" lon="0.18244">
        <ele>2061</ele>
        <time>2019-02-27T09:24:13Z</time>
      </trkpt>
      <trkpt lat="42.74293" lon="0.18244">
        <ele>2061</ele>
        <time>2019-02-27T09:24:14Z</time>
      </trkpt>
      <trkpt lat="42.74288" lon="0.18232">
        <ele>2061</ele>
        <time>2019-02-27T09:24:15Z</time>
      </trkpt>
      <trkpt lat="42.74288" lon="0.18232">
        <ele>2062</ele>
        <time>2019-02-27T09:24:16Z</time>
      </trkpt>
      <trkpt lat="42.74288" lon="0.18232">
        <ele>2062</ele>
        <time>2019-02-27T09:24:17Z</time>
      </trkpt>
      <trkpt lat="42.74288" lon="0.18232">
        <ele>2062</ele>
        <time>2019-02-27T09:24:18Z</time>
      </trkpt>
      <trkpt lat="42.74288" lon="0.18232">
        <ele>2062</ele>
        <time>2019-02-27T09:24:19Z</time>
      </trkpt>
      <trkpt lat="42.74288" lon="0.18232">
        <ele>2062</ele>
        <time>2019-02-27T09:24:20Z</time>
      </trkpt>
      <trkpt lat="42.74288" lon="0.18232">
        <ele>2063</ele>
        <time>2019-02-27T09:24:21Z</time>
      </trkpt>
      <trkpt lat="42.74288" lon="0.18232">
        <ele>2063</ele>
        <time>2019-02-27T09:24:22Z</time>
      </trkpt>
      <trkpt lat="42.74288" lon="0.18232">
        <ele>2063</ele>
        <time>2019-02-27T09:24:23Z</time>
      </trkpt>
      <trkpt lat="42.74288" lon="0.18232">
        <ele>2063</ele>
        <time>2019-02-27T09:24:24Z</time>
      </trkpt>
      <trkpt lat="42.74288" lon="0.18232">
        <ele>2063</ele>
        <time>2019-02-27T09:24:25Z</time>
      </trkpt>
      <trkpt lat="42.74288" lon="0.18232">
        <ele>2063</ele>
        <time>2019-02-27T09:24:26Z</time>
      </trkpt>
      <trkpt lat="42.74288" lon="0.18232">
        <ele>2063</ele>
        <time>2019-02-27T09:24:27Z</time>
      </trkpt>
      <trkpt lat="42.74288" lon="0.18232">
        <ele>2063</ele>
        <time>2019-02-27T09:24:28Z</time>
      </trkpt>
      <trkpt lat="42.74288" lon="0.18232">
        <ele>2063</ele>
        <time>2019-02-27T09:24:29Z</time>
      </trkpt>
      <trkpt lat="42.74288" lon="0.18232">
        <ele>2064</ele>
        <time>2019-02-27T09:24:30Z</time>
      </trkpt>
      <trkpt lat="42.74288" lon="0.18232">
        <ele>2064</ele>
        <time>2019-02-27T09:24:31Z</time>
      </trkpt>
      <trkpt lat="42.74288" lon="0.18232">
        <ele>2064</ele>
        <time>2019-02-27T09:24:32Z</time>
      </trkpt>
      <trkpt lat="42.74285" lon="0.18221">
        <ele>2064</ele>
        <time>2019-02-27T09:24:33Z</time>
      </trkpt>
      <trkpt lat="42.74285" lon="0.18221">
        <ele>2064</ele>
        <time>2019-02-27T09:24:34Z</time>
      </trkpt>
      <trkpt lat="42.74285" lon="0.18221">
        <ele>2064</ele>
        <time>2019-02-27T09:24:35Z</time>
      </trkpt>
      <trkpt lat="42.74285" lon="0.18221">
        <ele>2064</ele>
        <time>2019-02-27T09:24:36Z</time>
      </trkpt>
      <trkpt lat="42.74285" lon="0.18221">
        <ele>2064</ele>
        <time>2019-02-27T09:24:37Z</time>
      </trkpt>
      <trkpt lat="42.74285" lon="0.18221">
        <ele>2064</ele>
        <time>2019-02-27T09:24:38Z</time>
      </trkpt>
      <trkpt lat="42.74285" lon="0.18221">
        <ele>2064</ele>
        <time>2019-02-27T09:24:39Z</time>
      </trkpt>
      <trkpt lat="42.74285" lon="0.18221">
        <ele>2064</ele>
        <time>2019-02-27T09:24:40Z</time>
      </trkpt>
      <trkpt lat="42.74285" lon="0.18221">
        <ele>2064</ele>
        <time>2019-02-27T09:24:41Z</time>
      </trkpt>
      <trkpt lat="42.74285" lon="0.18221">
        <ele>2064</ele>
        <time>2019-02-27T09:24:42Z</time>
      </trkpt>
      <trkpt lat="42.74285" lon="0.18221">
        <ele>2064</ele>
        <time>2019-02-27T09:24:43Z</time>
      </trkpt>
      <trkpt lat="42.74285" lon="0.18221">
        <ele>2064</ele>
        <time>2019-02-27T09:24:44Z</time>
      </trkpt>
      <trkpt lat="42.74285" lon="0.18221">
        <ele>2064</ele>
        <time>2019-02-27T09:24:45Z</time>
      </trkpt>
      <trkpt lat="42.74285" lon="0.18221">
        <ele>2064</ele>
        <time>2019-02-27T09:24:46Z</time>
      </trkpt>
      <trkpt lat="42.74285" lon="0.18221">
        <ele>2064</ele>
        <time>2019-02-27T09:24:47Z</time>
      </trkpt>
      <trkpt lat="42.74285" lon="0.18221">
        <ele>2064</ele>
        <time>2019-02-27T09:24:48Z</time>
      </trkpt>
      <trkpt lat="42.74285" lon="0.18221">
        <ele>2064</ele>
        <time>2019-02-27T09:24:49Z</time>
      </trkpt>
      <trkpt lat="42.74285" lon="0.18221">
        <ele>2064</ele>
        <time>2019-02-27T09:24:50Z</time>
      </trkpt>
      <trkpt lat="42.74285" lon="0.18221">
        <ele>2064</ele>
        <time>2019-02-27T09:24:51Z</time>
      </trkpt>
      <trkpt lat="42.74285" lon="0.18221">
        <ele>2064</ele>
        <time>2019-02-27T09:24:52Z</time>
      </trkpt>
      <trkpt lat="42.74285" lon="0.18221">
        <ele>2064</ele>
        <time>2019-02-27T09:24:53Z</time>
      </trkpt>
      <trkpt lat="42.74285" lon="0.18221">
        <ele>2064</ele>
        <time>2019-02-27T09:24:54Z</time>
      </trkpt>
      <trkpt lat="42.74285" lon="0.18221">
        <ele>2064</ele>
        <time>2019-02-27T09:24:55Z</time>
      </trkpt>
      <trkpt lat="42.74285" lon="0.18221">
        <ele>2064</ele>
        <time>2019-02-27T09:24:56Z</time>
      </trkpt>
      <trkpt lat="42.74285" lon="0.18221">
        <ele>2065</ele>
        <time>2019-02-27T09:24:57Z</time>
      </trkpt>
      <trkpt lat="42.74285" lon="0.18221">
        <ele>2065</ele>
        <time>2019-02-27T09:24:58Z</time>
      </trkpt>
      <trkpt lat="42.74285" lon="0.18221">
        <ele>2065</ele>
        <time>2019-02-27T09:24:59Z</time>
      </trkpt>
      <trkpt lat="42.74285" lon="0.18221">
        <ele>2065</ele>
        <time>2019-02-27T09:25:00Z</time>
      </trkpt>
      <trkpt lat="42.74285" lon="0.18221">
        <ele>2065</ele>
        <time>2019-02-27T09:25:01Z</time>
      </trkpt>
      <trkpt lat="42.74285" lon="0.18221">
        <ele>2065</ele>
        <time>2019-02-27T09:25:02Z</time>
      </trkpt>
      <trkpt lat="42.74285" lon="0.18221">
        <ele>2065</ele>
        <time>2019-02-27T09:25:03Z</time>
      </trkpt>
      <trkpt lat="42.74285" lon="0.18221">
        <ele>2065</ele>
        <time>2019-02-27T09:25:04Z</time>
      </trkpt>
      <trkpt lat="42.74285" lon="0.18221">
        <ele>2065</ele>
        <time>2019-02-27T09:25:05Z</time>
      </trkpt>
      <trkpt lat="42.74285" lon="0.18221">
        <ele>2065</ele>
        <time>2019-02-27T09:25:06Z</time>
      </trkpt>
      <trkpt lat="42.74285" lon="0.18221">
        <ele>2065</ele>
        <time>2019-02-27T09:25:07Z</time>
      </trkpt>
      <trkpt lat="42.74285" lon="0.18221">
        <ele>2065</ele>
        <time>2019-02-27T09:25:08Z</time>
      </trkpt>
      <trkpt lat="42.74285" lon="0.18221">
        <ele>2065</ele>
        <time>2019-02-27T09:25:09Z</time>
      </trkpt>
      <trkpt lat="42.74285" lon="0.18221">
        <ele>2065</ele>
        <time>2019-02-27T09:25:10Z</time>
      </trkpt>
      <trkpt lat="42.74285" lon="0.18221">
        <ele>2065</ele>
        <time>2019-02-27T09:25:11Z</time>
      </trkpt>
      <trkpt lat="42.74285" lon="0.18221">
        <ele>2065</ele>
        <time>2019-02-27T09:25:12Z</time>
      </trkpt>
      <trkpt lat="42.74285" lon="0.18221">
        <ele>2065</ele>
        <time>2019-02-27T09:25:13Z</time>
      </trkpt>
      <trkpt lat="42.74285" lon="0.18221">
        <ele>2065</ele>
        <time>2019-02-27T09:25:14Z</time>
      </trkpt>
      <trkpt lat="42.74285" lon="0.18221">
        <ele>2065</ele>
        <time>2019-02-27T09:25:15Z</time>
      </trkpt>
      <trkpt lat="42.74285" lon="0.18221">
        <ele>2065</ele>
        <time>2019-02-27T09:25:16Z</time>
      </trkpt>
      <trkpt lat="42.74285" lon="0.18221">
        <ele>2065</ele>
        <time>2019-02-27T09:25:17Z</time>
      </trkpt>
      <trkpt lat="42.74285" lon="0.18221">
        <ele>2066</ele>
        <time>2019-02-27T09:25:18Z</time>
      </trkpt>
      <trkpt lat="42.74285" lon="0.18221">
        <ele>2066</ele>
        <time>2019-02-27T09:25:19Z</time>
      </trkpt>
      <trkpt lat="42.74285" lon="0.18221">
        <ele>2066</ele>
        <time>2019-02-27T09:25:20Z</time>
      </trkpt>
      <trkpt lat="42.74285" lon="0.18221">
        <ele>2066</ele>
        <time>2019-02-27T09:25:21Z</time>
      </trkpt>
      <trkpt lat="42.74285" lon="0.18221">
        <ele>2066</ele>
        <time>2019-02-27T09:25:22Z</time>
      </trkpt>
      <trkpt lat="42.74285" lon="0.18221">
        <ele>2066</ele>
        <time>2019-02-27T09:25:23Z</time>
      </trkpt>
      <trkpt lat="42.74285" lon="0.18221">
        <ele>2066</ele>
        <time>2019-02-27T09:25:24Z</time>
      </trkpt>
      <trkpt lat="42.74285" lon="0.18221">
        <ele>2066</ele>
        <time>2019-02-27T09:25:25Z</time>
      </trkpt>
      <trkpt lat="42.74285" lon="0.18221">
        <ele>2066</ele>
        <time>2019-02-27T09:25:26Z</time>
      </trkpt>
      <trkpt lat="42.74285" lon="0.18221">
        <ele>2066</ele>
        <time>2019-02-27T09:25:27Z</time>
      </trkpt>
      <trkpt lat="42.74285" lon="0.18221">
        <ele>2066</ele>
        <time>2019-02-27T09:25:28Z</time>
      </trkpt>
      <trkpt lat="42.74285" lon="0.18221">
        <ele>2066</ele>
        <time>2019-02-27T09:25:29Z</time>
      </trkpt>
      <trkpt lat="42.74285" lon="0.18221">
        <ele>2066</ele>
        <time>2019-02-27T09:25:30Z</time>
      </trkpt>
      <trkpt lat="42.74282" lon="0.18209">
        <ele>2067</ele>
        <time>2019-02-27T09:25:31Z</time>
      </trkpt>
      <trkpt lat="42.74282" lon="0.18209">
        <ele>2067</ele>
        <time>2019-02-27T09:25:32Z</time>
      </trkpt>
      <trkpt lat="42.74282" lon="0.18209">
        <ele>2066</ele>
        <time>2019-02-27T09:25:33Z</time>
      </trkpt>
      <trkpt lat="42.74282" lon="0.18209">
        <ele>2066</ele>
        <time>2019-02-27T09:25:34Z</time>
      </trkpt>
      <trkpt lat="42.74282" lon="0.18209">
        <ele>2066</ele>
        <time>2019-02-27T09:25:35Z</time>
      </trkpt>
      <trkpt lat="42.74282" lon="0.18209">
        <ele>2067</ele>
        <time>2019-02-27T09:25:36Z</time>
      </trkpt>
      <trkpt lat="42.74282" lon="0.18209">
        <ele>2067</ele>
        <time>2019-02-27T09:25:37Z</time>
      </trkpt>
      <trkpt lat="42.74282" lon="0.18209">
        <ele>2067</ele>
        <time>2019-02-27T09:25:38Z</time>
      </trkpt>
      <trkpt lat="42.74282" lon="0.18209">
        <ele>2067</ele>
        <time>2019-02-27T09:25:39Z</time>
      </trkpt>
      <trkpt lat="42.74282" lon="0.18209">
        <ele>2067</ele>
        <time>2019-02-27T09:25:40Z</time>
      </trkpt>
      <trkpt lat="42.74282" lon="0.18209">
        <ele>2069</ele>
        <time>2019-02-27T09:25:41Z</time>
      </trkpt>
      <trkpt lat="42.74282" lon="0.18209">
        <ele>2069</ele>
        <time>2019-02-27T09:25:42Z</time>
      </trkpt>
      <trkpt lat="42.74282" lon="0.18209">
        <ele>2067</ele>
        <time>2019-02-27T09:25:43Z</time>
      </trkpt>
      <trkpt lat="42.74282" lon="0.18209">
        <ele>2069</ele>
        <time>2019-02-27T09:25:44Z</time>
      </trkpt>
      <trkpt lat="42.74282" lon="0.18209">
        <ele>2069</ele>
        <time>2019-02-27T09:25:45Z</time>
      </trkpt>
      <trkpt lat="42.74282" lon="0.18209">
        <ele>2069</ele>
        <time>2019-02-27T09:25:46Z</time>
      </trkpt>
      <trkpt lat="42.74282" lon="0.18209">
        <ele>2069</ele>
        <time>2019-02-27T09:25:47Z</time>
      </trkpt>
      <trkpt lat="42.7428" lon="0.18197">
        <ele>2069</ele>
        <time>2019-02-27T09:25:48Z</time>
      </trkpt>
      <trkpt lat="42.7428" lon="0.18197">
        <ele>2070</ele>
        <time>2019-02-27T09:25:49Z</time>
      </trkpt>
      <trkpt lat="42.7428" lon="0.18197">
        <ele>2070</ele>
        <time>2019-02-27T09:25:50Z</time>
      </trkpt>
      <trkpt lat="42.7428" lon="0.18197">
        <ele>2070</ele>
        <time>2019-02-27T09:25:51Z</time>
      </trkpt>
      <trkpt lat="42.7428" lon="0.18197">
        <ele>2070</ele>
        <time>2019-02-27T09:25:52Z</time>
      </trkpt>
      <trkpt lat="42.7428" lon="0.18197">
        <ele>2070</ele>
        <time>2019-02-27T09:25:53Z</time>
      </trkpt>
      <trkpt lat="42.7428" lon="0.18197">
        <ele>2070</ele>
        <time>2019-02-27T09:25:54Z</time>
      </trkpt>
      <trkpt lat="42.7428" lon="0.18197">
        <ele>2070</ele>
        <time>2019-02-27T09:25:55Z</time>
      </trkpt>
      <trkpt lat="42.7428" lon="0.18197">
        <ele>2070</ele>
        <time>2019-02-27T09:25:56Z</time>
      </trkpt>
      <trkpt lat="42.7428" lon="0.18197">
        <ele>2071</ele>
        <time>2019-02-27T09:25:57Z</time>
      </trkpt>
      <trkpt lat="42.7428" lon="0.18197">
        <ele>2071</ele>
        <time>2019-02-27T09:25:58Z</time>
      </trkpt>
      <trkpt lat="42.7428" lon="0.18197">
        <ele>2071</ele>
        <time>2019-02-27T09:25:59Z</time>
      </trkpt>
      <trkpt lat="42.7428" lon="0.18197">
        <ele>2071</ele>
        <time>2019-02-27T09:26:00Z</time>
      </trkpt>
      <trkpt lat="42.7428" lon="0.18197">
        <ele>2071</ele>
        <time>2019-02-27T09:26:01Z</time>
      </trkpt>
      <trkpt lat="42.7428" lon="0.18197">
        <ele>2071</ele>
        <time>2019-02-27T09:26:02Z</time>
      </trkpt>
      <trkpt lat="42.7428" lon="0.18197">
        <ele>2071</ele>
        <time>2019-02-27T09:26:03Z</time>
      </trkpt>
      <trkpt lat="42.7428" lon="0.18197">
        <ele>2071</ele>
        <time>2019-02-27T09:26:04Z</time>
      </trkpt>
      <trkpt lat="42.7428" lon="0.18197">
        <ele>2071</ele>
        <time>2019-02-27T09:26:05Z</time>
      </trkpt>
      <trkpt lat="42.7428" lon="0.18197">
        <ele>2071</ele>
        <time>2019-02-27T09:26:06Z</time>
      </trkpt>
      <trkpt lat="42.7428" lon="0.18197">
        <ele>2071</ele>
        <time>2019-02-27T09:26:07Z</time>
      </trkpt>
      <trkpt lat="42.7428" lon="0.18197">
        <ele>2071</ele>
        <time>2019-02-27T09:26:08Z</time>
      </trkpt>
      <trkpt lat="42.74278" lon="0.18185">
        <ele>2071</ele>
        <time>2019-02-27T09:26:09Z</time>
      </trkpt>
      <trkpt lat="42.74278" lon="0.18185">
        <ele>2072</ele>
        <time>2019-02-27T09:26:10Z</time>
      </trkpt>
      <trkpt lat="42.74278" lon="0.18185">
        <ele>2072</ele>
        <time>2019-02-27T09:26:11Z</time>
      </trkpt>
      <trkpt lat="42.74278" lon="0.18185">
        <ele>2072</ele>
        <time>2019-02-27T09:26:12Z</time>
      </trkpt>
      <trkpt lat="42.74278" lon="0.18185">
        <ele>2072</ele>
        <time>2019-02-27T09:26:13Z</time>
      </trkpt>
      <trkpt lat="42.74278" lon="0.18185">
        <ele>2072</ele>
        <time>2019-02-27T09:26:14Z</time>
      </trkpt>
      <trkpt lat="42.74278" lon="0.18185">
        <ele>2072</ele>
        <time>2019-02-27T09:26:15Z</time>
      </trkpt>
      <trkpt lat="42.74278" lon="0.18185">
        <ele>2072</ele>
        <time>2019-02-27T09:26:16Z</time>
      </trkpt>
      <trkpt lat="42.74278" lon="0.18185">
        <ele>2072</ele>
        <time>2019-02-27T09:26:17Z</time>
      </trkpt>
      <trkpt lat="42.74278" lon="0.18185">
        <ele>2072</ele>
        <time>2019-02-27T09:26:18Z</time>
      </trkpt>
      <trkpt lat="42.74278" lon="0.18185">
        <ele>2073</ele>
        <time>2019-02-27T09:26:19Z</time>
      </trkpt>
      <trkpt lat="42.74278" lon="0.18185">
        <ele>2073</ele>
        <time>2019-02-27T09:26:20Z</time>
      </trkpt>
      <trkpt lat="42.74278" lon="0.18185">
        <ele>2073</ele>
        <time>2019-02-27T09:26:21Z</time>
      </trkpt>
      <trkpt lat="42.74278" lon="0.18185">
        <ele>2073</ele>
        <time>2019-02-27T09:26:22Z</time>
      </trkpt>
      <trkpt lat="42.74278" lon="0.18185">
        <ele>2073</ele>
        <time>2019-02-27T09:26:23Z</time>
      </trkpt>
      <trkpt lat="42.74278" lon="0.18185">
        <ele>2073</ele>
        <time>2019-02-27T09:26:24Z</time>
      </trkpt>
      <trkpt lat="42.74278" lon="0.18185">
        <ele>2074</ele>
        <time>2019-02-27T09:26:25Z</time>
      </trkpt>
      <trkpt lat="42.74278" lon="0.18185">
        <ele>2074</ele>
        <time>2019-02-27T09:26:26Z</time>
      </trkpt>
      <trkpt lat="42.74276" lon="0.18173">
        <ele>2074</ele>
        <time>2019-02-27T09:26:27Z</time>
      </trkpt>
      <trkpt lat="42.74276" lon="0.18173">
        <ele>2074</ele>
        <time>2019-02-27T09:26:28Z</time>
      </trkpt>
      <trkpt lat="42.74276" lon="0.18173">
        <ele>2074</ele>
        <time>2019-02-27T09:26:29Z</time>
      </trkpt>
      <trkpt lat="42.74276" lon="0.18173">
        <ele>2074</ele>
        <time>2019-02-27T09:26:30Z</time>
      </trkpt>
      <trkpt lat="42.74276" lon="0.18173">
        <ele>2074</ele>
        <time>2019-02-27T09:26:31Z</time>
      </trkpt>
      <trkpt lat="42.74276" lon="0.18173">
        <ele>2074</ele>
        <time>2019-02-27T09:26:32Z</time>
      </trkpt>
      <trkpt lat="42.74276" lon="0.18173">
        <ele>2074</ele>
        <time>2019-02-27T09:26:33Z</time>
      </trkpt>
      <trkpt lat="42.74276" lon="0.18173">
        <ele>2074</ele>
        <time>2019-02-27T09:26:34Z</time>
      </trkpt>
      <trkpt lat="42.74276" lon="0.18173">
        <ele>2074</ele>
        <time>2019-02-27T09:26:35Z</time>
      </trkpt>
      <trkpt lat="42.74276" lon="0.18173">
        <ele>2075</ele>
        <time>2019-02-27T09:26:36Z</time>
      </trkpt>
      <trkpt lat="42.74276" lon="0.18173">
        <ele>2075</ele>
        <time>2019-02-27T09:26:37Z</time>
      </trkpt>
      <trkpt lat="42.74276" lon="0.18173">
        <ele>2075</ele>
        <time>2019-02-27T09:26:38Z</time>
      </trkpt>
      <trkpt lat="42.74276" lon="0.18173">
        <ele>2075</ele>
        <time>2019-02-27T09:26:39Z</time>
      </trkpt>
      <trkpt lat="42.74276" lon="0.18173">
        <ele>2075</ele>
        <time>2019-02-27T09:26:40Z</time>
      </trkpt>
      <trkpt lat="42.74276" lon="0.18173">
        <ele>2075</ele>
        <time>2019-02-27T09:26:41Z</time>
      </trkpt>
      <trkpt lat="42.74276" lon="0.18173">
        <ele>2076</ele>
        <time>2019-02-27T09:26:42Z</time>
      </trkpt>
      <trkpt lat="42.74276" lon="0.18173">
        <ele>2076</ele>
        <time>2019-02-27T09:26:43Z</time>
      </trkpt>
      <trkpt lat="42.74276" lon="0.18173">
        <ele>2076</ele>
        <time>2019-02-27T09:26:44Z</time>
      </trkpt>
      <trkpt lat="42.74276" lon="0.18173">
        <ele>2076</ele>
        <time>2019-02-27T09:26:45Z</time>
      </trkpt>
      <trkpt lat="42.74276" lon="0.18173">
        <ele>2076</ele>
        <time>2019-02-27T09:26:46Z</time>
      </trkpt>
      <trkpt lat="42.74276" lon="0.1816">
        <ele>2076</ele>
        <time>2019-02-27T09:26:47Z</time>
      </trkpt>
      <trkpt lat="42.74276" lon="0.1816">
        <ele>2076</ele>
        <time>2019-02-27T09:26:48Z</time>
      </trkpt>
      <trkpt lat="42.74276" lon="0.1816">
        <ele>2076</ele>
        <time>2019-02-27T09:26:49Z</time>
      </trkpt>
      <trkpt lat="42.74276" lon="0.1816">
        <ele>2076</ele>
        <time>2019-02-27T09:26:50Z</time>
      </trkpt>
      <trkpt lat="42.74276" lon="0.1816">
        <ele>2076</ele>
        <time>2019-02-27T09:26:51Z</time>
      </trkpt>
      <trkpt lat="42.74276" lon="0.1816">
        <ele>2076</ele>
        <time>2019-02-27T09:26:52Z</time>
      </trkpt>
      <trkpt lat="42.74276" lon="0.1816">
        <ele>2076</ele>
        <time>2019-02-27T09:26:53Z</time>
      </trkpt>
      <trkpt lat="42.74276" lon="0.1816">
        <ele>2077</ele>
        <time>2019-02-27T09:26:54Z</time>
      </trkpt>
      <trkpt lat="42.74276" lon="0.1816">
        <ele>2077</ele>
        <time>2019-02-27T09:26:55Z</time>
      </trkpt>
      <trkpt lat="42.74276" lon="0.1816">
        <ele>2077</ele>
        <time>2019-02-27T09:26:56Z</time>
      </trkpt>
      <trkpt lat="42.74276" lon="0.1816">
        <ele>2077</ele>
        <time>2019-02-27T09:26:57Z</time>
      </trkpt>
      <trkpt lat="42.74276" lon="0.1816">
        <ele>2077</ele>
        <time>2019-02-27T09:26:58Z</time>
      </trkpt>
      <trkpt lat="42.74276" lon="0.1816">
        <ele>2077</ele>
        <time>2019-02-27T09:26:59Z</time>
      </trkpt>
      <trkpt lat="42.74276" lon="0.1816">
        <ele>2077</ele>
        <time>2019-02-27T09:27:00Z</time>
      </trkpt>
      <trkpt lat="42.74276" lon="0.1816">
        <ele>2078</ele>
        <time>2019-02-27T09:27:01Z</time>
      </trkpt>
      <trkpt lat="42.74276" lon="0.1816">
        <ele>2078</ele>
        <time>2019-02-27T09:27:02Z</time>
      </trkpt>
      <trkpt lat="42.74275" lon="0.18147">
        <ele>2077</ele>
        <time>2019-02-27T09:27:03Z</time>
      </trkpt>
      <trkpt lat="42.74275" lon="0.18147">
        <ele>2077</ele>
        <time>2019-02-27T09:27:04Z</time>
      </trkpt>
      <trkpt lat="42.74275" lon="0.18147">
        <ele>2077</ele>
        <time>2019-02-27T09:27:05Z</time>
      </trkpt>
      <trkpt lat="42.74275" lon="0.18147">
        <ele>2077</ele>
        <time>2019-02-27T09:27:06Z</time>
      </trkpt>
      <trkpt lat="42.74275" lon="0.18147">
        <ele>2077</ele>
        <time>2019-02-27T09:27:07Z</time>
      </trkpt>
      <trkpt lat="42.74275" lon="0.18147">
        <ele>2077</ele>
        <time>2019-02-27T09:27:08Z</time>
      </trkpt>
      <trkpt lat="42.74275" lon="0.18147">
        <ele>2078</ele>
        <time>2019-02-27T09:27:09Z</time>
      </trkpt>
      <trkpt lat="42.74275" lon="0.18147">
        <ele>2079</ele>
        <time>2019-02-27T09:27:10Z</time>
      </trkpt>
      <trkpt lat="42.74275" lon="0.18147">
        <ele>2079</ele>
        <time>2019-02-27T09:27:11Z</time>
      </trkpt>
      <trkpt lat="42.74275" lon="0.18147">
        <ele>2079</ele>
        <time>2019-02-27T09:27:12Z</time>
      </trkpt>
      <trkpt lat="42.74275" lon="0.18147">
        <ele>2079</ele>
        <time>2019-02-27T09:27:13Z</time>
      </trkpt>
      <trkpt lat="42.74275" lon="0.18147">
        <ele>2079</ele>
        <time>2019-02-27T09:27:14Z</time>
      </trkpt>
      <trkpt lat="42.74275" lon="0.18147">
        <ele>2079</ele>
        <time>2019-02-27T09:27:15Z</time>
      </trkpt>
      <trkpt lat="42.74275" lon="0.18147">
        <ele>2079</ele>
        <time>2019-02-27T09:27:16Z</time>
      </trkpt>
      <trkpt lat="42.74275" lon="0.18147">
        <ele>2080</ele>
        <time>2019-02-27T09:27:17Z</time>
      </trkpt>
      <trkpt lat="42.74275" lon="0.18147">
        <ele>2080</ele>
        <time>2019-02-27T09:27:18Z</time>
      </trkpt>
      <trkpt lat="42.74275" lon="0.18147">
        <ele>2080</ele>
        <time>2019-02-27T09:27:19Z</time>
      </trkpt>
      <trkpt lat="42.74275" lon="0.18147">
        <ele>2080</ele>
        <time>2019-02-27T09:27:20Z</time>
      </trkpt>
      <trkpt lat="42.74275" lon="0.18147">
        <ele>2080</ele>
        <time>2019-02-27T09:27:21Z</time>
      </trkpt>
      <trkpt lat="42.74275" lon="0.18147">
        <ele>2080</ele>
        <time>2019-02-27T09:27:22Z</time>
      </trkpt>
      <trkpt lat="42.74279" lon="0.18136">
        <ele>2080</ele>
        <time>2019-02-27T09:27:23Z</time>
      </trkpt>
      <trkpt lat="42.74279" lon="0.18136">
        <ele>2080</ele>
        <time>2019-02-27T09:27:24Z</time>
      </trkpt>
      <trkpt lat="42.74279" lon="0.18136">
        <ele>2080</ele>
        <time>2019-02-27T09:27:25Z</time>
      </trkpt>
      <trkpt lat="42.74279" lon="0.18136">
        <ele>2081</ele>
        <time>2019-02-27T09:27:26Z</time>
      </trkpt>
      <trkpt lat="42.74279" lon="0.18136">
        <ele>2081</ele>
        <time>2019-02-27T09:27:27Z</time>
      </trkpt>
      <trkpt lat="42.74279" lon="0.18136">
        <ele>2081</ele>
        <time>2019-02-27T09:27:28Z</time>
      </trkpt>
      <trkpt lat="42.74279" lon="0.18136">
        <ele>2081</ele>
        <time>2019-02-27T09:27:29Z</time>
      </trkpt>
      <trkpt lat="42.74279" lon="0.18136">
        <ele>2082</ele>
        <time>2019-02-27T09:27:30Z</time>
      </trkpt>
      <trkpt lat="42.74279" lon="0.18136">
        <ele>2082</ele>
        <time>2019-02-27T09:27:31Z</time>
      </trkpt>
      <trkpt lat="42.74279" lon="0.18136">
        <ele>2082</ele>
        <time>2019-02-27T09:27:32Z</time>
      </trkpt>
      <trkpt lat="42.74279" lon="0.18136">
        <ele>2082</ele>
        <time>2019-02-27T09:27:33Z</time>
      </trkpt>
      <trkpt lat="42.74279" lon="0.18136">
        <ele>2082</ele>
        <time>2019-02-27T09:27:34Z</time>
      </trkpt>
      <trkpt lat="42.74279" lon="0.18136">
        <ele>2082</ele>
        <time>2019-02-27T09:27:35Z</time>
      </trkpt>
      <trkpt lat="42.74279" lon="0.18136">
        <ele>2082</ele>
        <time>2019-02-27T09:27:36Z</time>
      </trkpt>
      <trkpt lat="42.74279" lon="0.18136">
        <ele>2082</ele>
        <time>2019-02-27T09:27:37Z</time>
      </trkpt>
      <trkpt lat="42.74279" lon="0.18136">
        <ele>2082</ele>
        <time>2019-02-27T09:27:38Z</time>
      </trkpt>
      <trkpt lat="42.74279" lon="0.18136">
        <ele>2082</ele>
        <time>2019-02-27T09:27:39Z</time>
      </trkpt>
      <trkpt lat="42.74279" lon="0.18136">
        <ele>2082</ele>
        <time>2019-02-27T09:27:40Z</time>
      </trkpt>
      <trkpt lat="42.74279" lon="0.18136">
        <ele>2083</ele>
        <time>2019-02-27T09:27:41Z</time>
      </trkpt>
      <trkpt lat="42.74279" lon="0.18136">
        <ele>2083</ele>
        <time>2019-02-27T09:27:42Z</time>
      </trkpt>
      <trkpt lat="42.74279" lon="0.18136">
        <ele>2084</ele>
        <time>2019-02-27T09:27:43Z</time>
      </trkpt>
      <trkpt lat="42.74279" lon="0.18136">
        <ele>2084</ele>
        <time>2019-02-27T09:27:44Z</time>
      </trkpt>
      <trkpt lat="42.74281" lon="0.18123">
        <ele>2084</ele>
        <time>2019-02-27T09:27:45Z</time>
      </trkpt>
      <trkpt lat="42.74281" lon="0.18123">
        <ele>2084</ele>
        <time>2019-02-27T09:27:46Z</time>
      </trkpt>
      <trkpt lat="42.74281" lon="0.18123">
        <ele>2084</ele>
        <time>2019-02-27T09:27:47Z</time>
      </trkpt>
      <trkpt lat="42.74281" lon="0.18123">
        <ele>2083</ele>
        <time>2019-02-27T09:27:48Z</time>
      </trkpt>
      <trkpt lat="42.74281" lon="0.18123">
        <ele>2083</ele>
        <time>2019-02-27T09:27:49Z</time>
      </trkpt>
      <trkpt lat="42.74281" lon="0.18123">
        <ele>2084</ele>
        <time>2019-02-27T09:27:50Z</time>
      </trkpt>
      <trkpt lat="42.74281" lon="0.18123">
        <ele>2084</ele>
        <time>2019-02-27T09:27:51Z</time>
      </trkpt>
      <trkpt lat="42.74281" lon="0.18123">
        <ele>2084</ele>
        <time>2019-02-27T09:27:52Z</time>
      </trkpt>
      <trkpt lat="42.74281" lon="0.18123">
        <ele>2084</ele>
        <time>2019-02-27T09:27:53Z</time>
      </trkpt>
      <trkpt lat="42.74281" lon="0.18123">
        <ele>2085</ele>
        <time>2019-02-27T09:27:54Z</time>
      </trkpt>
      <trkpt lat="42.74281" lon="0.18123">
        <ele>2085</ele>
        <time>2019-02-27T09:27:55Z</time>
      </trkpt>
      <trkpt lat="42.74281" lon="0.18123">
        <ele>2085</ele>
        <time>2019-02-27T09:27:56Z</time>
      </trkpt>
      <trkpt lat="42.74281" lon="0.18123">
        <ele>2085</ele>
        <time>2019-02-27T09:27:57Z</time>
      </trkpt>
      <trkpt lat="42.74281" lon="0.18123">
        <ele>2085</ele>
        <time>2019-02-27T09:27:58Z</time>
      </trkpt>
      <trkpt lat="42.74281" lon="0.18123">
        <ele>2085</ele>
        <time>2019-02-27T09:27:59Z</time>
      </trkpt>
      <trkpt lat="42.74281" lon="0.18123">
        <ele>2085</ele>
        <time>2019-02-27T09:28:00Z</time>
      </trkpt>
      <trkpt lat="42.74281" lon="0.18123">
        <ele>2086</ele>
        <time>2019-02-27T09:28:01Z</time>
      </trkpt>
      <trkpt lat="42.74281" lon="0.18123">
        <ele>2086</ele>
        <time>2019-02-27T09:28:02Z</time>
      </trkpt>
      <trkpt lat="42.74281" lon="0.18123">
        <ele>2086</ele>
        <time>2019-02-27T09:28:03Z</time>
      </trkpt>
      <trkpt lat="42.74281" lon="0.18123">
        <ele>2086</ele>
        <time>2019-02-27T09:28:04Z</time>
      </trkpt>
      <trkpt lat="42.74281" lon="0.18123">
        <ele>2086</ele>
        <time>2019-02-27T09:28:05Z</time>
      </trkpt>
      <trkpt lat="42.74284" lon="0.18111">
        <ele>2086</ele>
        <time>2019-02-27T09:28:06Z</time>
      </trkpt>
      <trkpt lat="42.74284" lon="0.18111">
        <ele>2086</ele>
        <time>2019-02-27T09:28:07Z</time>
      </trkpt>
      <trkpt lat="42.74284" lon="0.18111">
        <ele>2086</ele>
        <time>2019-02-27T09:28:08Z</time>
      </trkpt>
      <trkpt lat="42.74284" lon="0.18111">
        <ele>2086</ele>
        <time>2019-02-27T09:28:09Z</time>
      </trkpt>
      <trkpt lat="42.74284" lon="0.18111">
        <ele>2086</ele>
        <time>2019-02-27T09:28:10Z</time>
      </trkpt>
      <trkpt lat="42.74284" lon="0.18111">
        <ele>2086</ele>
        <time>2019-02-27T09:28:11Z</time>
      </trkpt>
      <trkpt lat="42.74284" lon="0.18111">
        <ele>2086</ele>
        <time>2019-02-27T09:28:12Z</time>
      </trkpt>
      <trkpt lat="42.74284" lon="0.18111">
        <ele>2086</ele>
        <time>2019-02-27T09:28:13Z</time>
      </trkpt>
      <trkpt lat="42.74284" lon="0.18111">
        <ele>2086</ele>
        <time>2019-02-27T09:28:14Z</time>
      </trkpt>
      <trkpt lat="42.74284" lon="0.18111">
        <ele>2086</ele>
        <time>2019-02-27T09:28:15Z</time>
      </trkpt>
      <trkpt lat="42.74284" lon="0.18111">
        <ele>2086</ele>
        <time>2019-02-27T09:28:16Z</time>
      </trkpt>
      <trkpt lat="42.74284" lon="0.18111">
        <ele>2086</ele>
        <time>2019-02-27T09:28:17Z</time>
      </trkpt>
      <trkpt lat="42.74284" lon="0.18111">
        <ele>2086</ele>
        <time>2019-02-27T09:28:18Z</time>
      </trkpt>
      <trkpt lat="42.74284" lon="0.18111">
        <ele>2086</ele>
        <time>2019-02-27T09:28:19Z</time>
      </trkpt>
      <trkpt lat="42.74284" lon="0.18111">
        <ele>2086</ele>
        <time>2019-02-27T09:28:20Z</time>
      </trkpt>
      <trkpt lat="42.74284" lon="0.18111">
        <ele>2086</ele>
        <time>2019-02-27T09:28:21Z</time>
      </trkpt>
      <trkpt lat="42.74284" lon="0.18111">
        <ele>2086</ele>
        <time>2019-02-27T09:28:22Z</time>
      </trkpt>
      <trkpt lat="42.74284" lon="0.18111">
        <ele>2086</ele>
        <time>2019-02-27T09:28:23Z</time>
      </trkpt>
      <trkpt lat="42.74284" lon="0.18111">
        <ele>2086</ele>
        <time>2019-02-27T09:28:24Z</time>
      </trkpt>
      <trkpt lat="42.74284" lon="0.18111">
        <ele>2086</ele>
        <time>2019-02-27T09:28:25Z</time>
      </trkpt>
      <trkpt lat="42.74284" lon="0.18111">
        <ele>2086</ele>
        <time>2019-02-27T09:28:26Z</time>
      </trkpt>
      <trkpt lat="42.74284" lon="0.18111">
        <ele>2086</ele>
        <time>2019-02-27T09:28:27Z</time>
      </trkpt>
      <trkpt lat="42.74284" lon="0.18111">
        <ele>2086</ele>
        <time>2019-02-27T09:28:28Z</time>
      </trkpt>
      <trkpt lat="42.74284" lon="0.18111">
        <ele>2086</ele>
        <time>2019-02-27T09:28:29Z</time>
      </trkpt>
      <trkpt lat="42.74284" lon="0.18111">
        <ele>2086</ele>
        <time>2019-02-27T09:28:30Z</time>
      </trkpt>
      <trkpt lat="42.74284" lon="0.18111">
        <ele>2087</ele>
        <time>2019-02-27T09:28:31Z</time>
      </trkpt>
      <trkpt lat="42.74284" lon="0.18111">
        <ele>2087</ele>
        <time>2019-02-27T09:28:32Z</time>
      </trkpt>
      <trkpt lat="42.74284" lon="0.18111">
        <ele>2087</ele>
        <time>2019-02-27T09:28:33Z</time>
      </trkpt>
      <trkpt lat="42.74284" lon="0.18111">
        <ele>2087</ele>
        <time>2019-02-27T09:28:34Z</time>
      </trkpt>
      <trkpt lat="42.74284" lon="0.18111">
        <ele>2087</ele>
        <time>2019-02-27T09:28:35Z</time>
      </trkpt>
      <trkpt lat="42.74284" lon="0.18111">
        <ele>2087</ele>
        <time>2019-02-27T09:28:36Z</time>
      </trkpt>
      <trkpt lat="42.74284" lon="0.18111">
        <ele>2087</ele>
        <time>2019-02-27T09:28:37Z</time>
      </trkpt>
      <trkpt lat="42.74284" lon="0.18111">
        <ele>2087</ele>
        <time>2019-02-27T09:28:38Z</time>
      </trkpt>
      <trkpt lat="42.74284" lon="0.18111">
        <ele>2087</ele>
        <time>2019-02-27T09:28:39Z</time>
      </trkpt>
      <trkpt lat="42.74284" lon="0.18111">
        <ele>2087</ele>
        <time>2019-02-27T09:28:40Z</time>
      </trkpt>
      <trkpt lat="42.74284" lon="0.18111">
        <ele>2088</ele>
        <time>2019-02-27T09:28:41Z</time>
      </trkpt>
      <trkpt lat="42.74284" lon="0.18111">
        <ele>2088</ele>
        <time>2019-02-27T09:28:42Z</time>
      </trkpt>
      <trkpt lat="42.74284" lon="0.18111">
        <ele>2088</ele>
        <time>2019-02-27T09:28:43Z</time>
      </trkpt>
      <trkpt lat="42.74284" lon="0.18111">
        <ele>2088</ele>
        <time>2019-02-27T09:28:44Z</time>
      </trkpt>
      <trkpt lat="42.74284" lon="0.18111">
        <ele>2088</ele>
        <time>2019-02-27T09:28:45Z</time>
      </trkpt>
      <trkpt lat="42.74284" lon="0.18111">
        <ele>2089</ele>
        <time>2019-02-27T09:28:46Z</time>
      </trkpt>
      <trkpt lat="42.74284" lon="0.18111">
        <ele>2089</ele>
        <time>2019-02-27T09:28:47Z</time>
      </trkpt>
      <trkpt lat="42.74284" lon="0.18111">
        <ele>2090</ele>
        <time>2019-02-27T09:28:48Z</time>
      </trkpt>
      <trkpt lat="42.74284" lon="0.18111">
        <ele>2090</ele>
        <time>2019-02-27T09:28:49Z</time>
      </trkpt>
      <trkpt lat="42.74284" lon="0.18111">
        <ele>2090</ele>
        <time>2019-02-27T09:28:50Z</time>
      </trkpt>
      <trkpt lat="42.74284" lon="0.18111">
        <ele>2090</ele>
        <time>2019-02-27T09:28:51Z</time>
      </trkpt>
      <trkpt lat="42.74284" lon="0.18111">
        <ele>2089</ele>
        <time>2019-02-27T09:28:52Z</time>
      </trkpt>
      <trkpt lat="42.74284" lon="0.18111">
        <ele>2089</ele>
        <time>2019-02-27T09:28:53Z</time>
      </trkpt>
      <trkpt lat="42.74284" lon="0.18111">
        <ele>2089</ele>
        <time>2019-02-27T09:28:54Z</time>
      </trkpt>
      <trkpt lat="42.74284" lon="0.18111">
        <ele>2089</ele>
        <time>2019-02-27T09:28:55Z</time>
      </trkpt>
      <trkpt lat="42.74284" lon="0.18111">
        <ele>2089</ele>
        <time>2019-02-27T09:28:56Z</time>
      </trkpt>
      <trkpt lat="42.74284" lon="0.18111">
        <ele>2089</ele>
        <time>2019-02-27T09:28:57Z</time>
      </trkpt>
      <trkpt lat="42.74284" lon="0.18111">
        <ele>2089</ele>
        <time>2019-02-27T09:28:58Z</time>
      </trkpt>
      <trkpt lat="42.74284" lon="0.18111">
        <ele>2090</ele>
        <time>2019-02-27T09:28:59Z</time>
      </trkpt>
      <trkpt lat="42.74284" lon="0.18111">
        <ele>2090</ele>
        <time>2019-02-27T09:29:00Z</time>
      </trkpt>
      <trkpt lat="42.74284" lon="0.18111">
        <ele>2090</ele>
        <time>2019-02-27T09:29:01Z</time>
      </trkpt>
      <trkpt lat="42.74284" lon="0.18111">
        <ele>2090</ele>
        <time>2019-02-27T09:29:02Z</time>
      </trkpt>
      <trkpt lat="42.74284" lon="0.18111">
        <ele>2090</ele>
        <time>2019-02-27T09:29:03Z</time>
      </trkpt>
      <trkpt lat="42.74284" lon="0.18111">
        <ele>2090</ele>
        <time>2019-02-27T09:29:04Z</time>
      </trkpt>
      <trkpt lat="42.74284" lon="0.18111">
        <ele>2090</ele>
        <time>2019-02-27T09:29:05Z</time>
      </trkpt>
      <trkpt lat="42.74284" lon="0.18111">
        <ele>2090</ele>
        <time>2019-02-27T09:29:06Z</time>
      </trkpt>
      <trkpt lat="42.74284" lon="0.18111">
        <ele>2090</ele>
        <time>2019-02-27T09:29:07Z</time>
      </trkpt>
      <trkpt lat="42.74284" lon="0.18111">
        <ele>2091</ele>
        <time>2019-02-27T09:29:08Z</time>
      </trkpt>
      <trkpt lat="42.74284" lon="0.18111">
        <ele>2091</ele>
        <time>2019-02-27T09:29:09Z</time>
      </trkpt>
      <trkpt lat="42.74284" lon="0.18111">
        <ele>2091</ele>
        <time>2019-02-27T09:29:10Z</time>
      </trkpt>
      <trkpt lat="42.74284" lon="0.18111">
        <ele>2092</ele>
        <time>2019-02-27T09:29:11Z</time>
      </trkpt>
      <trkpt lat="42.74284" lon="0.18111">
        <ele>2092</ele>
        <time>2019-02-27T09:29:12Z</time>
      </trkpt>
      <trkpt lat="42.74284" lon="0.18111">
        <ele>2092</ele>
        <time>2019-02-27T09:29:13Z</time>
      </trkpt>
      <trkpt lat="42.74284" lon="0.18111">
        <ele>2092</ele>
        <time>2019-02-27T09:29:14Z</time>
      </trkpt>
      <trkpt lat="42.74284" lon="0.18111">
        <ele>2091</ele>
        <time>2019-02-27T09:29:15Z</time>
      </trkpt>
      <trkpt lat="42.74284" lon="0.18111">
        <ele>2091</ele>
        <time>2019-02-27T09:29:16Z</time>
      </trkpt>
      <trkpt lat="42.74284" lon="0.18111">
        <ele>2091</ele>
        <time>2019-02-27T09:29:17Z</time>
      </trkpt>
      <trkpt lat="42.74284" lon="0.18111">
        <ele>2091</ele>
        <time>2019-02-27T09:29:18Z</time>
      </trkpt>
      <trkpt lat="42.74284" lon="0.18111">
        <ele>2091</ele>
        <time>2019-02-27T09:29:19Z</time>
      </trkpt>
      <trkpt lat="42.74276" lon="0.18104">
        <ele>2091</ele>
        <time>2019-02-27T09:29:20Z</time>
      </trkpt>
      <trkpt lat="42.74276" lon="0.18104">
        <ele>2092</ele>
        <time>2019-02-27T09:29:21Z</time>
      </trkpt>
      <trkpt lat="42.74276" lon="0.18104">
        <ele>2092</ele>
        <time>2019-02-27T09:29:22Z</time>
      </trkpt>
      <trkpt lat="42.74276" lon="0.18104">
        <ele>2092</ele>
        <time>2019-02-27T09:29:23Z</time>
      </trkpt>
      <trkpt lat="42.74276" lon="0.18104">
        <ele>2093</ele>
        <time>2019-02-27T09:29:24Z</time>
      </trkpt>
      <trkpt lat="42.74276" lon="0.18104">
        <ele>2093</ele>
        <time>2019-02-27T09:29:25Z</time>
      </trkpt>
      <trkpt lat="42.74276" lon="0.18104">
        <ele>2093</ele>
        <time>2019-02-27T09:29:26Z</time>
      </trkpt>
      <trkpt lat="42.74276" lon="0.18104">
        <ele>2093</ele>
        <time>2019-02-27T09:29:27Z</time>
      </trkpt>
      <trkpt lat="42.74276" lon="0.18104">
        <ele>2093</ele>
        <time>2019-02-27T09:29:28Z</time>
      </trkpt>
      <trkpt lat="42.74276" lon="0.18104">
        <ele>2093</ele>
        <time>2019-02-27T09:29:29Z</time>
      </trkpt>
      <trkpt lat="42.74276" lon="0.18104">
        <ele>2093</ele>
        <time>2019-02-27T09:29:30Z</time>
      </trkpt>
      <trkpt lat="42.74276" lon="0.18104">
        <ele>2093</ele>
        <time>2019-02-27T09:29:31Z</time>
      </trkpt>
      <trkpt lat="42.74276" lon="0.18104">
        <ele>2093</ele>
        <time>2019-02-27T09:29:32Z</time>
      </trkpt>
      <trkpt lat="42.74276" lon="0.18104">
        <ele>2093</ele>
        <time>2019-02-27T09:29:33Z</time>
      </trkpt>
      <trkpt lat="42.74276" lon="0.18104">
        <ele>2095</ele>
        <time>2019-02-27T09:29:34Z</time>
      </trkpt>
      <trkpt lat="42.74276" lon="0.18104">
        <ele>2095</ele>
        <time>2019-02-27T09:29:35Z</time>
      </trkpt>
      <trkpt lat="42.74276" lon="0.18104">
        <ele>2095</ele>
        <time>2019-02-27T09:29:36Z</time>
      </trkpt>
      <trkpt lat="42.74276" lon="0.18104">
        <ele>2096</ele>
        <time>2019-02-27T09:29:37Z</time>
      </trkpt>
      <trkpt lat="42.74276" lon="0.18104">
        <ele>2096</ele>
        <time>2019-02-27T09:29:38Z</time>
      </trkpt>
      <trkpt lat="42.74267" lon="0.18108">
        <ele>2096</ele>
        <time>2019-02-27T09:29:39Z</time>
      </trkpt>
      <trkpt lat="42.74267" lon="0.18108">
        <ele>2096</ele>
        <time>2019-02-27T09:29:40Z</time>
      </trkpt>
      <trkpt lat="42.74267" lon="0.18108">
        <ele>2096</ele>
        <time>2019-02-27T09:29:41Z</time>
      </trkpt>
      <trkpt lat="42.74267" lon="0.18108">
        <ele>2096</ele>
        <time>2019-02-27T09:29:42Z</time>
      </trkpt>
      <trkpt lat="42.74267" lon="0.18108">
        <ele>2096</ele>
        <time>2019-02-27T09:29:43Z</time>
      </trkpt>
      <trkpt lat="42.74267" lon="0.18108">
        <ele>2096</ele>
        <time>2019-02-27T09:29:44Z</time>
      </trkpt>
      <trkpt lat="42.74267" lon="0.18108">
        <ele>2096</ele>
        <time>2019-02-27T09:29:45Z</time>
      </trkpt>
      <trkpt lat="42.74267" lon="0.18108">
        <ele>2096</ele>
        <time>2019-02-27T09:29:46Z</time>
      </trkpt>
      <trkpt lat="42.74267" lon="0.18108">
        <ele>2096</ele>
        <time>2019-02-27T09:29:47Z</time>
      </trkpt>
      <trkpt lat="42.74267" lon="0.18108">
        <ele>2096</ele>
        <time>2019-02-27T09:29:48Z</time>
      </trkpt>
      <trkpt lat="42.74267" lon="0.18108">
        <ele>2096</ele>
        <time>2019-02-27T09:29:49Z</time>
      </trkpt>
      <trkpt lat="42.74267" lon="0.18108">
        <ele>2096</ele>
        <time>2019-02-27T09:29:50Z</time>
      </trkpt>
      <trkpt lat="42.74267" lon="0.18108">
        <ele>2096</ele>
        <time>2019-02-27T09:29:51Z</time>
      </trkpt>
      <trkpt lat="42.74267" lon="0.18108">
        <ele>2096</ele>
        <time>2019-02-27T09:29:52Z</time>
      </trkpt>
      <trkpt lat="42.74267" lon="0.18108">
        <ele>2096</ele>
        <time>2019-02-27T09:29:53Z</time>
      </trkpt>
      <trkpt lat="42.74267" lon="0.18108">
        <ele>2096</ele>
        <time>2019-02-27T09:29:54Z</time>
      </trkpt>
      <trkpt lat="42.74267" lon="0.18108">
        <ele>2096</ele>
        <time>2019-02-27T09:29:55Z</time>
      </trkpt>
      <trkpt lat="42.74267" lon="0.18108">
        <ele>2096</ele>
        <time>2019-02-27T09:29:56Z</time>
      </trkpt>
      <trkpt lat="42.74267" lon="0.18108">
        <ele>2096</ele>
        <time>2019-02-27T09:29:57Z</time>
      </trkpt>
      <trkpt lat="42.74267" lon="0.18108">
        <ele>2096</ele>
        <time>2019-02-27T09:29:58Z</time>
      </trkpt>
      <trkpt lat="42.74267" lon="0.18108">
        <ele>2096</ele>
        <time>2019-02-27T09:29:59Z</time>
      </trkpt>
      <trkpt lat="42.74267" lon="0.18108">
        <ele>2096</ele>
        <time>2019-02-27T09:30:00Z</time>
      </trkpt>
      <trkpt lat="42.74267" lon="0.18108">
        <ele>2096</ele>
        <time>2019-02-27T09:30:01Z</time>
      </trkpt>
      <trkpt lat="42.74267" lon="0.18108">
        <ele>2095</ele>
        <time>2019-02-27T09:30:02Z</time>
      </trkpt>
      <trkpt lat="42.74267" lon="0.18108">
        <ele>2095</ele>
        <time>2019-02-27T09:30:03Z</time>
      </trkpt>
      <trkpt lat="42.74267" lon="0.18108">
        <ele>2095</ele>
        <time>2019-02-27T09:30:04Z</time>
      </trkpt>
      <trkpt lat="42.74267" lon="0.18108">
        <ele>2096</ele>
        <time>2019-02-27T09:30:05Z</time>
      </trkpt>
      <trkpt lat="42.74267" lon="0.18108">
        <ele>2096</ele>
        <time>2019-02-27T09:30:06Z</time>
      </trkpt>
      <trkpt lat="42.74267" lon="0.18108">
        <ele>2096</ele>
        <time>2019-02-27T09:30:07Z</time>
      </trkpt>
      <trkpt lat="42.74267" lon="0.18108">
        <ele>2096</ele>
        <time>2019-02-27T09:30:08Z</time>
      </trkpt>
      <trkpt lat="42.74267" lon="0.18108">
        <ele>2096</ele>
        <time>2019-02-27T09:30:09Z</time>
      </trkpt>
      <trkpt lat="42.74267" lon="0.18108">
        <ele>2096</ele>
        <time>2019-02-27T09:30:10Z</time>
      </trkpt>
      <trkpt lat="42.74267" lon="0.18108">
        <ele>2096</ele>
        <time>2019-02-27T09:30:11Z</time>
      </trkpt>
      <trkpt lat="42.74267" lon="0.18108">
        <ele>2097</ele>
        <time>2019-02-27T09:30:12Z</time>
      </trkpt>
      <trkpt lat="42.74267" lon="0.18108">
        <ele>2097</ele>
        <time>2019-02-27T09:30:13Z</time>
      </trkpt>
      <trkpt lat="42.74267" lon="0.18108">
        <ele>2097</ele>
        <time>2019-02-27T09:30:14Z</time>
      </trkpt>
      <trkpt lat="42.74267" lon="0.18108">
        <ele>2098</ele>
        <time>2019-02-27T09:30:15Z</time>
      </trkpt>
      <trkpt lat="42.74267" lon="0.18108">
        <ele>2098</ele>
        <time>2019-02-27T09:30:16Z</time>
      </trkpt>
      <trkpt lat="42.74267" lon="0.18108">
        <ele>2098</ele>
        <time>2019-02-27T09:30:17Z</time>
      </trkpt>
      <trkpt lat="42.74267" lon="0.18108">
        <ele>2098</ele>
        <time>2019-02-27T09:30:18Z</time>
      </trkpt>
      <trkpt lat="42.74267" lon="0.18108">
        <ele>2098</ele>
        <time>2019-02-27T09:30:19Z</time>
      </trkpt>
      <trkpt lat="42.74267" lon="0.18108">
        <ele>2098</ele>
        <time>2019-02-27T09:30:20Z</time>
      </trkpt>
      <trkpt lat="42.74267" lon="0.18108">
        <ele>2098</ele>
        <time>2019-02-27T09:30:21Z</time>
      </trkpt>
      <trkpt lat="42.74267" lon="0.18108">
        <ele>2098</ele>
        <time>2019-02-27T09:30:22Z</time>
      </trkpt>
      <trkpt lat="42.74267" lon="0.18108">
        <ele>2099</ele>
        <time>2019-02-27T09:30:23Z</time>
      </trkpt>
      <trkpt lat="42.74267" lon="0.18108">
        <ele>2099</ele>
        <time>2019-02-27T09:30:24Z</time>
      </trkpt>
      <trkpt lat="42.74267" lon="0.18108">
        <ele>2099</ele>
        <time>2019-02-27T09:30:25Z</time>
      </trkpt>
      <trkpt lat="42.74267" lon="0.18108">
        <ele>2099</ele>
        <time>2019-02-27T09:30:26Z</time>
      </trkpt>
      <trkpt lat="42.74264" lon="0.18095">
        <ele>2099</ele>
        <time>2019-02-27T09:30:27Z</time>
      </trkpt>
      <trkpt lat="42.74264" lon="0.18095">
        <ele>2099</ele>
        <time>2019-02-27T09:30:28Z</time>
      </trkpt>
      <trkpt lat="42.74264" lon="0.18095">
        <ele>2099</ele>
        <time>2019-02-27T09:30:29Z</time>
      </trkpt>
      <trkpt lat="42.74264" lon="0.18095">
        <ele>2100</ele>
        <time>2019-02-27T09:30:30Z</time>
      </trkpt>
      <trkpt lat="42.74264" lon="0.18095">
        <ele>2100</ele>
        <time>2019-02-27T09:30:31Z</time>
      </trkpt>
      <trkpt lat="42.74264" lon="0.18095">
        <ele>2100</ele>
        <time>2019-02-27T09:30:32Z</time>
      </trkpt>
      <trkpt lat="42.74264" lon="0.18095">
        <ele>2100</ele>
        <time>2019-02-27T09:30:33Z</time>
      </trkpt>
      <trkpt lat="42.74264" lon="0.18095">
        <ele>2100</ele>
        <time>2019-02-27T09:30:34Z</time>
      </trkpt>
      <trkpt lat="42.74264" lon="0.18095">
        <ele>2100</ele>
        <time>2019-02-27T09:30:35Z</time>
      </trkpt>
      <trkpt lat="42.74264" lon="0.18095">
        <ele>2100</ele>
        <time>2019-02-27T09:30:36Z</time>
      </trkpt>
      <trkpt lat="42.74264" lon="0.18095">
        <ele>2100</ele>
        <time>2019-02-27T09:30:37Z</time>
      </trkpt>
      <trkpt lat="42.74264" lon="0.18095">
        <ele>2100</ele>
        <time>2019-02-27T09:30:38Z</time>
      </trkpt>
      <trkpt lat="42.74264" lon="0.18095">
        <ele>2100</ele>
        <time>2019-02-27T09:30:39Z</time>
      </trkpt>
      <trkpt lat="42.74264" lon="0.18095">
        <ele>2100</ele>
        <time>2019-02-27T09:30:40Z</time>
      </trkpt>
      <trkpt lat="42.74264" lon="0.18095">
        <ele>2100</ele>
        <time>2019-02-27T09:30:41Z</time>
      </trkpt>
      <trkpt lat="42.74264" lon="0.18095">
        <ele>2101</ele>
        <time>2019-02-27T09:30:42Z</time>
      </trkpt>
      <trkpt lat="42.74264" lon="0.18095">
        <ele>2101</ele>
        <time>2019-02-27T09:30:43Z</time>
      </trkpt>
      <trkpt lat="42.74263" lon="0.18083">
        <ele>2101</ele>
        <time>2019-02-27T09:30:44Z</time>
      </trkpt>
      <trkpt lat="42.74263" lon="0.18083">
        <ele>2101</ele>
        <time>2019-02-27T09:30:45Z</time>
      </trkpt>
      <trkpt lat="42.74263" lon="0.18083">
        <ele>2101</ele>
        <time>2019-02-27T09:30:46Z</time>
      </trkpt>
      <trkpt lat="42.74263" lon="0.18083">
        <ele>2101</ele>
        <time>2019-02-27T09:30:47Z</time>
      </trkpt>
      <trkpt lat="42.74263" lon="0.18083">
        <ele>2101</ele>
        <time>2019-02-27T09:30:48Z</time>
      </trkpt>
      <trkpt lat="42.74263" lon="0.18083">
        <ele>2101</ele>
        <time>2019-02-27T09:30:49Z</time>
      </trkpt>
      <trkpt lat="42.74263" lon="0.18083">
        <ele>2101</ele>
        <time>2019-02-27T09:30:50Z</time>
      </trkpt>
      <trkpt lat="42.74263" lon="0.18083">
        <ele>2101</ele>
        <time>2019-02-27T09:30:51Z</time>
      </trkpt>
      <trkpt lat="42.74263" lon="0.18083">
        <ele>2101</ele>
        <time>2019-02-27T09:30:52Z</time>
      </trkpt>
      <trkpt lat="42.74263" lon="0.18083">
        <ele>2101</ele>
        <time>2019-02-27T09:30:53Z</time>
      </trkpt>
      <trkpt lat="42.74263" lon="0.18083">
        <ele>2101</ele>
        <time>2019-02-27T09:30:54Z</time>
      </trkpt>
      <trkpt lat="42.74263" lon="0.18083">
        <ele>2102</ele>
        <time>2019-02-27T09:30:55Z</time>
      </trkpt>
      <trkpt lat="42.74263" lon="0.18083">
        <ele>2102</ele>
        <time>2019-02-27T09:30:56Z</time>
      </trkpt>
      <trkpt lat="42.74263" lon="0.18083">
        <ele>2102</ele>
        <time>2019-02-27T09:30:57Z</time>
      </trkpt>
      <trkpt lat="42.74263" lon="0.18083">
        <ele>2103</ele>
        <time>2019-02-27T09:30:58Z</time>
      </trkpt>
      <trkpt lat="42.74263" lon="0.18083">
        <ele>2103</ele>
        <time>2019-02-27T09:30:59Z</time>
      </trkpt>
      <trkpt lat="42.74263" lon="0.18083">
        <ele>2103</ele>
        <time>2019-02-27T09:31:00Z</time>
      </trkpt>
      <trkpt lat="42.74263" lon="0.18083">
        <ele>2103</ele>
        <time>2019-02-27T09:31:01Z</time>
      </trkpt>
      <trkpt lat="42.74263" lon="0.18083">
        <ele>2103</ele>
        <time>2019-02-27T09:31:02Z</time>
      </trkpt>
      <trkpt lat="42.74263" lon="0.18083">
        <ele>2103</ele>
        <time>2019-02-27T09:31:03Z</time>
      </trkpt>
      <trkpt lat="42.74263" lon="0.18083">
        <ele>2103</ele>
        <time>2019-02-27T09:31:04Z</time>
      </trkpt>
      <trkpt lat="42.74263" lon="0.18083">
        <ele>2103</ele>
        <time>2019-02-27T09:31:05Z</time>
      </trkpt>
      <trkpt lat="42.74263" lon="0.18083">
        <ele>2103</ele>
        <time>2019-02-27T09:31:06Z</time>
      </trkpt>
      <trkpt lat="42.74263" lon="0.18083">
        <ele>2103</ele>
        <time>2019-02-27T09:31:07Z</time>
      </trkpt>
      <trkpt lat="42.74263" lon="0.18083">
        <ele>2103</ele>
        <time>2019-02-27T09:31:08Z</time>
      </trkpt>
      <trkpt lat="42.74263" lon="0.18083">
        <ele>2103</ele>
        <time>2019-02-27T09:31:09Z</time>
      </trkpt>
      <trkpt lat="42.74263" lon="0.18083">
        <ele>2103</ele>
        <time>2019-02-27T09:31:10Z</time>
      </trkpt>
      <trkpt lat="42.74263" lon="0.18083">
        <ele>2103</ele>
        <time>2019-02-27T09:31:11Z</time>
      </trkpt>
      <trkpt lat="42.74263" lon="0.18083">
        <ele>2103</ele>
        <time>2019-02-27T09:31:12Z</time>
      </trkpt>
      <trkpt lat="42.74263" lon="0.18083">
        <ele>2103</ele>
        <time>2019-02-27T09:31:13Z</time>
      </trkpt>
      <trkpt lat="42.74263" lon="0.18083">
        <ele>2103</ele>
        <time>2019-02-27T09:31:14Z</time>
      </trkpt>
      <trkpt lat="42.74263" lon="0.18083">
        <ele>2104</ele>
        <time>2019-02-27T09:31:15Z</time>
      </trkpt>
      <trkpt lat="42.74257" lon="0.18079">
        <ele>2104</ele>
        <time>2019-02-27T09:31:16Z</time>
      </trkpt>
      <trkpt lat="42.74257" lon="0.18079">
        <ele>2104</ele>
        <time>2019-02-27T09:31:17Z</time>
      </trkpt>
      <trkpt lat="42.74257" lon="0.18079">
        <ele>2104</ele>
        <time>2019-02-27T09:31:18Z</time>
      </trkpt>
      <trkpt lat="42.74257" lon="0.18079">
        <ele>2104</ele>
        <time>2019-02-27T09:31:19Z</time>
      </trkpt>
      <trkpt lat="42.74257" lon="0.18079">
        <ele>2105</ele>
        <time>2019-02-27T09:31:20Z</time>
      </trkpt>
      <trkpt lat="42.74257" lon="0.18079">
        <ele>2105</ele>
        <time>2019-02-27T09:31:21Z</time>
      </trkpt>
      <trkpt lat="42.74257" lon="0.18079">
        <ele>2105</ele>
        <time>2019-02-27T09:31:22Z</time>
      </trkpt>
      <trkpt lat="42.74257" lon="0.18079">
        <ele>2105</ele>
        <time>2019-02-27T09:31:23Z</time>
      </trkpt>
      <trkpt lat="42.74257" lon="0.18079">
        <ele>2105</ele>
        <time>2019-02-27T09:31:24Z</time>
      </trkpt>
      <trkpt lat="42.74257" lon="0.18079">
        <ele>2105</ele>
        <time>2019-02-27T09:31:25Z</time>
      </trkpt>
      <trkpt lat="42.74257" lon="0.18079">
        <ele>2105</ele>
        <time>2019-02-27T09:31:26Z</time>
      </trkpt>
      <trkpt lat="42.74257" lon="0.18079">
        <ele>2105</ele>
        <time>2019-02-27T09:31:27Z</time>
      </trkpt>
      <trkpt lat="42.74257" lon="0.18079">
        <ele>2106</ele>
        <time>2019-02-27T09:31:28Z</time>
      </trkpt>
      <trkpt lat="42.74257" lon="0.18079">
        <ele>2106</ele>
        <time>2019-02-27T09:31:29Z</time>
      </trkpt>
      <trkpt lat="42.74257" lon="0.18079">
        <ele>2106</ele>
        <time>2019-02-27T09:31:30Z</time>
      </trkpt>
      <trkpt lat="42.74257" lon="0.18079">
        <ele>2106</ele>
        <time>2019-02-27T09:31:31Z</time>
      </trkpt>
      <trkpt lat="42.74257" lon="0.18079">
        <ele>2107</ele>
        <time>2019-02-27T09:31:32Z</time>
      </trkpt>
      <trkpt lat="42.74257" lon="0.18079">
        <ele>2107</ele>
        <time>2019-02-27T09:31:33Z</time>
      </trkpt>
      <trkpt lat="42.74257" lon="0.18079">
        <ele>2107</ele>
        <time>2019-02-27T09:31:34Z</time>
      </trkpt>
      <trkpt lat="42.74252" lon="0.1809">
        <ele>2107</ele>
        <time>2019-02-27T09:31:35Z</time>
      </trkpt>
      <trkpt lat="42.74252" lon="0.1809">
        <ele>2107</ele>
        <time>2019-02-27T09:31:36Z</time>
      </trkpt>
      <trkpt lat="42.74252" lon="0.1809">
        <ele>2107</ele>
        <time>2019-02-27T09:31:37Z</time>
      </trkpt>
      <trkpt lat="42.74252" lon="0.1809">
        <ele>2107</ele>
        <time>2019-02-27T09:31:38Z</time>
      </trkpt>
      <trkpt lat="42.74252" lon="0.1809">
        <ele>2107</ele>
        <time>2019-02-27T09:31:39Z</time>
      </trkpt>
      <trkpt lat="42.74252" lon="0.1809">
        <ele>2107</ele>
        <time>2019-02-27T09:31:40Z</time>
      </trkpt>
      <trkpt lat="42.74252" lon="0.1809">
        <ele>2107</ele>
        <time>2019-02-27T09:31:41Z</time>
      </trkpt>
      <trkpt lat="42.74252" lon="0.1809">
        <ele>2107</ele>
        <time>2019-02-27T09:31:42Z</time>
      </trkpt>
      <trkpt lat="42.74252" lon="0.1809">
        <ele>2107</ele>
        <time>2019-02-27T09:31:43Z</time>
      </trkpt>
      <trkpt lat="42.74252" lon="0.1809">
        <ele>2107</ele>
        <time>2019-02-27T09:31:44Z</time>
      </trkpt>
      <trkpt lat="42.74252" lon="0.1809">
        <ele>2107</ele>
        <time>2019-02-27T09:31:45Z</time>
      </trkpt>
      <trkpt lat="42.74252" lon="0.1809">
        <ele>2108</ele>
        <time>2019-02-27T09:31:46Z</time>
      </trkpt>
      <trkpt lat="42.74252" lon="0.1809">
        <ele>2108</ele>
        <time>2019-02-27T09:31:47Z</time>
      </trkpt>
      <trkpt lat="42.74252" lon="0.1809">
        <ele>2108</ele>
        <time>2019-02-27T09:31:48Z</time>
      </trkpt>
      <trkpt lat="42.74252" lon="0.1809">
        <ele>2108</ele>
        <time>2019-02-27T09:31:49Z</time>
      </trkpt>
      <trkpt lat="42.74252" lon="0.1809">
        <ele>2109</ele>
        <time>2019-02-27T09:31:50Z</time>
      </trkpt>
      <trkpt lat="42.74252" lon="0.1809">
        <ele>2109</ele>
        <time>2019-02-27T09:31:51Z</time>
      </trkpt>
      <trkpt lat="42.74252" lon="0.1809">
        <ele>2109</ele>
        <time>2019-02-27T09:31:52Z</time>
      </trkpt>
      <trkpt lat="42.74252" lon="0.1809">
        <ele>2109</ele>
        <time>2019-02-27T09:31:53Z</time>
      </trkpt>
      <trkpt lat="42.74252" lon="0.1809">
        <ele>2109</ele>
        <time>2019-02-27T09:31:54Z</time>
      </trkpt>
      <trkpt lat="42.74252" lon="0.1809">
        <ele>2109</ele>
        <time>2019-02-27T09:31:55Z</time>
      </trkpt>
      <trkpt lat="42.74252" lon="0.1809">
        <ele>2109</ele>
        <time>2019-02-27T09:31:56Z</time>
      </trkpt>
      <trkpt lat="42.74252" lon="0.1809">
        <ele>2109</ele>
        <time>2019-02-27T09:31:57Z</time>
      </trkpt>
      <trkpt lat="42.74252" lon="0.1809">
        <ele>2109</ele>
        <time>2019-02-27T09:31:58Z</time>
      </trkpt>
      <trkpt lat="42.74252" lon="0.1809">
        <ele>2109</ele>
        <time>2019-02-27T09:31:59Z</time>
      </trkpt>
      <trkpt lat="42.74252" lon="0.1809">
        <ele>2109</ele>
        <time>2019-02-27T09:32:00Z</time>
      </trkpt>
      <trkpt lat="42.74252" lon="0.1809">
        <ele>2109</ele>
        <time>2019-02-27T09:32:01Z</time>
      </trkpt>
      <trkpt lat="42.74252" lon="0.1809">
        <ele>2109</ele>
        <time>2019-02-27T09:32:02Z</time>
      </trkpt>
      <trkpt lat="42.74252" lon="0.1809">
        <ele>2109</ele>
        <time>2019-02-27T09:32:03Z</time>
      </trkpt>
      <trkpt lat="42.74252" lon="0.1809">
        <ele>2108</ele>
        <time>2019-02-27T09:32:04Z</time>
      </trkpt>
      <trkpt lat="42.74252" lon="0.1809">
        <ele>2108</ele>
        <time>2019-02-27T09:32:05Z</time>
      </trkpt>
      <trkpt lat="42.74252" lon="0.1809">
        <ele>2108</ele>
        <time>2019-02-27T09:32:06Z</time>
      </trkpt>
      <trkpt lat="42.74252" lon="0.1809">
        <ele>2108</ele>
        <time>2019-02-27T09:32:07Z</time>
      </trkpt>
      <trkpt lat="42.74252" lon="0.1809">
        <ele>2108</ele>
        <time>2019-02-27T09:32:08Z</time>
      </trkpt>
      <trkpt lat="42.74252" lon="0.1809">
        <ele>2108</ele>
        <time>2019-02-27T09:32:09Z</time>
      </trkpt>
      <trkpt lat="42.74252" lon="0.1809">
        <ele>2109</ele>
        <time>2019-02-27T09:32:10Z</time>
      </trkpt>
      <trkpt lat="42.74252" lon="0.1809">
        <ele>2109</ele>
        <time>2019-02-27T09:32:11Z</time>
      </trkpt>
      <trkpt lat="42.74252" lon="0.1809">
        <ele>2109</ele>
        <time>2019-02-27T09:32:12Z</time>
      </trkpt>
      <trkpt lat="42.74252" lon="0.1809">
        <ele>2109</ele>
        <time>2019-02-27T09:32:13Z</time>
      </trkpt>
      <trkpt lat="42.74252" lon="0.1809">
        <ele>2110</ele>
        <time>2019-02-27T09:32:14Z</time>
      </trkpt>
      <trkpt lat="42.74252" lon="0.1809">
        <ele>2110</ele>
        <time>2019-02-27T09:32:15Z</time>
      </trkpt>
      <trkpt lat="42.74252" lon="0.1809">
        <ele>2110</ele>
        <time>2019-02-27T09:32:16Z</time>
      </trkpt>
      <trkpt lat="42.74252" lon="0.1809">
        <ele>2110</ele>
        <time>2019-02-27T09:32:17Z</time>
      </trkpt>
      <trkpt lat="42.74252" lon="0.1809">
        <ele>2110</ele>
        <time>2019-02-27T09:32:18Z</time>
      </trkpt>
      <trkpt lat="42.74252" lon="0.1809">
        <ele>2110</ele>
        <time>2019-02-27T09:32:19Z</time>
      </trkpt>
      <trkpt lat="42.74252" lon="0.1809">
        <ele>2111</ele>
        <time>2019-02-27T09:32:20Z</time>
      </trkpt>
      <trkpt lat="42.74252" lon="0.1809">
        <ele>2111</ele>
        <time>2019-02-27T09:32:21Z</time>
      </trkpt>
      <trkpt lat="42.74245" lon="0.18083">
        <ele>2111</ele>
        <time>2019-02-27T09:32:22Z</time>
      </trkpt>
      <trkpt lat="42.74245" lon="0.18083">
        <ele>2111</ele>
        <time>2019-02-27T09:32:23Z</time>
      </trkpt>
      <trkpt lat="42.74245" lon="0.18083">
        <ele>2111</ele>
        <time>2019-02-27T09:32:24Z</time>
      </trkpt>
      <trkpt lat="42.74245" lon="0.18083">
        <ele>2111</ele>
        <time>2019-02-27T09:32:25Z</time>
      </trkpt>
      <trkpt lat="42.74245" lon="0.18083">
        <ele>2111</ele>
        <time>2019-02-27T09:32:26Z</time>
      </trkpt>
      <trkpt lat="42.74245" lon="0.18083">
        <ele>2111</ele>
        <time>2019-02-27T09:32:27Z</time>
      </trkpt>
      <trkpt lat="42.74245" lon="0.18083">
        <ele>2111</ele>
        <time>2019-02-27T09:32:28Z</time>
      </trkpt>
      <trkpt lat="42.74245" lon="0.18083">
        <ele>2112</ele>
        <time>2019-02-27T09:32:29Z</time>
      </trkpt>
      <trkpt lat="42.74245" lon="0.18083">
        <ele>2112</ele>
        <time>2019-02-27T09:32:30Z</time>
      </trkpt>
      <trkpt lat="42.74245" lon="0.18083">
        <ele>2112</ele>
        <time>2019-02-27T09:32:31Z</time>
      </trkpt>
      <trkpt lat="42.74245" lon="0.18083">
        <ele>2112</ele>
        <time>2019-02-27T09:32:32Z</time>
      </trkpt>
      <trkpt lat="42.74245" lon="0.18083">
        <ele>2112</ele>
        <time>2019-02-27T09:32:33Z</time>
      </trkpt>
      <trkpt lat="42.74245" lon="0.18083">
        <ele>2112</ele>
        <time>2019-02-27T09:32:34Z</time>
      </trkpt>
      <trkpt lat="42.74245" lon="0.18083">
        <ele>2112</ele>
        <time>2019-02-27T09:32:35Z</time>
      </trkpt>
      <trkpt lat="42.74245" lon="0.18083">
        <ele>2112</ele>
        <time>2019-02-27T09:32:36Z</time>
      </trkpt>
      <trkpt lat="42.74242" lon="0.18071">
        <ele>2112</ele>
        <time>2019-02-27T09:32:37Z</time>
      </trkpt>
      <trkpt lat="42.74242" lon="0.18071">
        <ele>2113</ele>
        <time>2019-02-27T09:32:38Z</time>
      </trkpt>
      <trkpt lat="42.74242" lon="0.18071">
        <ele>2113</ele>
        <time>2019-02-27T09:32:39Z</time>
      </trkpt>
      <trkpt lat="42.74242" lon="0.18071">
        <ele>2113</ele>
        <time>2019-02-27T09:32:40Z</time>
      </trkpt>
      <trkpt lat="42.74242" lon="0.18071">
        <ele>2113</ele>
        <time>2019-02-27T09:32:41Z</time>
      </trkpt>
      <trkpt lat="42.74242" lon="0.18071">
        <ele>2113</ele>
        <time>2019-02-27T09:32:42Z</time>
      </trkpt>
      <trkpt lat="42.74242" lon="0.18071">
        <ele>2113</ele>
        <time>2019-02-27T09:32:43Z</time>
      </trkpt>
      <trkpt lat="42.74242" lon="0.18071">
        <ele>2113</ele>
        <time>2019-02-27T09:32:44Z</time>
      </trkpt>
      <trkpt lat="42.74242" lon="0.18071">
        <ele>2113</ele>
        <time>2019-02-27T09:32:45Z</time>
      </trkpt>
      <trkpt lat="42.74242" lon="0.18071">
        <ele>2113</ele>
        <time>2019-02-27T09:32:46Z</time>
      </trkpt>
      <trkpt lat="42.74242" lon="0.18071">
        <ele>2114</ele>
        <time>2019-02-27T09:32:47Z</time>
      </trkpt>
      <trkpt lat="42.74242" lon="0.18071">
        <ele>2115</ele>
        <time>2019-02-27T09:32:48Z</time>
      </trkpt>
      <trkpt lat="42.74242" lon="0.18071">
        <ele>2115</ele>
        <time>2019-02-27T09:32:49Z</time>
      </trkpt>
      <trkpt lat="42.74242" lon="0.18071">
        <ele>2115</ele>
        <time>2019-02-27T09:32:50Z</time>
      </trkpt>
      <trkpt lat="42.74242" lon="0.18071">
        <ele>2115</ele>
        <time>2019-02-27T09:32:51Z</time>
      </trkpt>
      <trkpt lat="42.74242" lon="0.18071">
        <ele>2115</ele>
        <time>2019-02-27T09:32:52Z</time>
      </trkpt>
      <trkpt lat="42.74242" lon="0.18071">
        <ele>2115</ele>
        <time>2019-02-27T09:32:53Z</time>
      </trkpt>
      <trkpt lat="42.74242" lon="0.18071">
        <ele>2115</ele>
        <time>2019-02-27T09:32:54Z</time>
      </trkpt>
      <trkpt lat="42.74242" lon="0.18071">
        <ele>2115</ele>
        <time>2019-02-27T09:32:55Z</time>
      </trkpt>
      <trkpt lat="42.74242" lon="0.18071">
        <ele>2115</ele>
        <time>2019-02-27T09:32:56Z</time>
      </trkpt>
      <trkpt lat="42.74243" lon="0.18059">
        <ele>2115</ele>
        <time>2019-02-27T09:32:57Z</time>
      </trkpt>
      <trkpt lat="42.74243" lon="0.18059">
        <ele>2115</ele>
        <time>2019-02-27T09:32:58Z</time>
      </trkpt>
      <trkpt lat="42.74243" lon="0.18059">
        <ele>2116</ele>
        <time>2019-02-27T09:32:59Z</time>
      </trkpt>
      <trkpt lat="42.74243" lon="0.18059">
        <ele>2116</ele>
        <time>2019-02-27T09:33:00Z</time>
      </trkpt>
      <trkpt lat="42.74243" lon="0.18059">
        <ele>2116</ele>
        <time>2019-02-27T09:33:01Z</time>
      </trkpt>
      <trkpt lat="42.74243" lon="0.18059">
        <ele>2116</ele>
        <time>2019-02-27T09:33:02Z</time>
      </trkpt>
      <trkpt lat="42.74243" lon="0.18059">
        <ele>2116</ele>
        <time>2019-02-27T09:33:03Z</time>
      </trkpt>
      <trkpt lat="42.74243" lon="0.18059">
        <ele>2116</ele>
        <time>2019-02-27T09:33:04Z</time>
      </trkpt>
      <trkpt lat="42.74243" lon="0.18059">
        <ele>2116</ele>
        <time>2019-02-27T09:33:05Z</time>
      </trkpt>
      <trkpt lat="42.74243" lon="0.18059">
        <ele>2116</ele>
        <time>2019-02-27T09:33:06Z</time>
      </trkpt>
      <trkpt lat="42.74243" lon="0.18059">
        <ele>2117</ele>
        <time>2019-02-27T09:33:07Z</time>
      </trkpt>
      <trkpt lat="42.74243" lon="0.18059">
        <ele>2117</ele>
        <time>2019-02-27T09:33:08Z</time>
      </trkpt>
      <trkpt lat="42.74243" lon="0.18059">
        <ele>2117</ele>
        <time>2019-02-27T09:33:09Z</time>
      </trkpt>
      <trkpt lat="42.74243" lon="0.18059">
        <ele>2117</ele>
        <time>2019-02-27T09:33:10Z</time>
      </trkpt>
      <trkpt lat="42.74243" lon="0.18059">
        <ele>2117</ele>
        <time>2019-02-27T09:33:11Z</time>
      </trkpt>
      <trkpt lat="42.74243" lon="0.18059">
        <ele>2117</ele>
        <time>2019-02-27T09:33:12Z</time>
      </trkpt>
      <trkpt lat="42.74243" lon="0.18059">
        <ele>2117</ele>
        <time>2019-02-27T09:33:13Z</time>
      </trkpt>
      <trkpt lat="42.74243" lon="0.18059">
        <ele>2117</ele>
        <time>2019-02-27T09:33:14Z</time>
      </trkpt>
      <trkpt lat="42.74243" lon="0.18059">
        <ele>2117</ele>
        <time>2019-02-27T09:33:15Z</time>
      </trkpt>
      <trkpt lat="42.74243" lon="0.18059">
        <ele>2117</ele>
        <time>2019-02-27T09:33:16Z</time>
      </trkpt>
      <trkpt lat="42.74243" lon="0.18059">
        <ele>2117</ele>
        <time>2019-02-27T09:33:17Z</time>
      </trkpt>
      <trkpt lat="42.74243" lon="0.18059">
        <ele>2117</ele>
        <time>2019-02-27T09:33:18Z</time>
      </trkpt>
      <trkpt lat="42.74243" lon="0.18059">
        <ele>2117</ele>
        <time>2019-02-27T09:33:19Z</time>
      </trkpt>
      <trkpt lat="42.74243" lon="0.18059">
        <ele>2117</ele>
        <time>2019-02-27T09:33:20Z</time>
      </trkpt>
      <trkpt lat="42.74243" lon="0.18059">
        <ele>2117</ele>
        <time>2019-02-27T09:33:21Z</time>
      </trkpt>
      <trkpt lat="42.74243" lon="0.18059">
        <ele>2117</ele>
        <time>2019-02-27T09:33:22Z</time>
      </trkpt>
      <trkpt lat="42.74243" lon="0.18059">
        <ele>2118</ele>
        <time>2019-02-27T09:33:23Z</time>
      </trkpt>
      <trkpt lat="42.74243" lon="0.18059">
        <ele>2118</ele>
        <time>2019-02-27T09:33:24Z</time>
      </trkpt>
      <trkpt lat="42.74243" lon="0.18059">
        <ele>2118</ele>
        <time>2019-02-27T09:33:25Z</time>
      </trkpt>
      <trkpt lat="42.74243" lon="0.18059">
        <ele>2118</ele>
        <time>2019-02-27T09:33:26Z</time>
      </trkpt>
      <trkpt lat="42.74243" lon="0.18059">
        <ele>2118</ele>
        <time>2019-02-27T09:33:27Z</time>
      </trkpt>
      <trkpt lat="42.74243" lon="0.18059">
        <ele>2118</ele>
        <time>2019-02-27T09:33:28Z</time>
      </trkpt>
      <trkpt lat="42.74243" lon="0.18059">
        <ele>2118</ele>
        <time>2019-02-27T09:33:29Z</time>
      </trkpt>
      <trkpt lat="42.74243" lon="0.18059">
        <ele>2119</ele>
        <time>2019-02-27T09:33:30Z</time>
      </trkpt>
      <trkpt lat="42.74243" lon="0.18059">
        <ele>2119</ele>
        <time>2019-02-27T09:33:31Z</time>
      </trkpt>
      <trkpt lat="42.74243" lon="0.18059">
        <ele>2119</ele>
        <time>2019-02-27T09:33:32Z</time>
      </trkpt>
      <trkpt lat="42.74243" lon="0.18059">
        <ele>2119</ele>
        <time>2019-02-27T09:33:33Z</time>
      </trkpt>
      <trkpt lat="42.74243" lon="0.18059">
        <ele>2119</ele>
        <time>2019-02-27T09:33:34Z</time>
      </trkpt>
      <trkpt lat="42.74243" lon="0.18059">
        <ele>2119</ele>
        <time>2019-02-27T09:33:35Z</time>
      </trkpt>
      <trkpt lat="42.74243" lon="0.18059">
        <ele>2119</ele>
        <time>2019-02-27T09:33:36Z</time>
      </trkpt>
      <trkpt lat="42.74243" lon="0.18059">
        <ele>2119</ele>
        <time>2019-02-27T09:33:37Z</time>
      </trkpt>
      <trkpt lat="42.74243" lon="0.18059">
        <ele>2119</ele>
        <time>2019-02-27T09:33:38Z</time>
      </trkpt>
      <trkpt lat="42.74234" lon="0.18059">
        <ele>2119</ele>
        <time>2019-02-27T09:33:39Z</time>
      </trkpt>
      <trkpt lat="42.74234" lon="0.18059">
        <ele>2121</ele>
        <time>2019-02-27T09:33:40Z</time>
      </trkpt>
      <trkpt lat="42.74234" lon="0.18059">
        <ele>2121</ele>
        <time>2019-02-27T09:33:41Z</time>
      </trkpt>
      <trkpt lat="42.74234" lon="0.18059">
        <ele>2121</ele>
        <time>2019-02-27T09:33:42Z</time>
      </trkpt>
      <trkpt lat="42.74234" lon="0.18059">
        <ele>2122</ele>
        <time>2019-02-27T09:33:43Z</time>
      </trkpt>
      <trkpt lat="42.74234" lon="0.18059">
        <ele>2122</ele>
        <time>2019-02-27T09:33:44Z</time>
      </trkpt>
      <trkpt lat="42.74234" lon="0.18059">
        <ele>2122</ele>
        <time>2019-02-27T09:33:45Z</time>
      </trkpt>
      <trkpt lat="42.74234" lon="0.18059">
        <ele>2122</ele>
        <time>2019-02-27T09:33:46Z</time>
      </trkpt>
      <trkpt lat="42.74234" lon="0.18059">
        <ele>2122</ele>
        <time>2019-02-27T09:33:47Z</time>
      </trkpt>
      <trkpt lat="42.74234" lon="0.18059">
        <ele>2122</ele>
        <time>2019-02-27T09:33:48Z</time>
      </trkpt>
      <trkpt lat="42.74234" lon="0.18059">
        <ele>2122</ele>
        <time>2019-02-27T09:33:49Z</time>
      </trkpt>
      <trkpt lat="42.74234" lon="0.18059">
        <ele>2122</ele>
        <time>2019-02-27T09:33:50Z</time>
      </trkpt>
      <trkpt lat="42.74234" lon="0.18059">
        <ele>2122</ele>
        <time>2019-02-27T09:33:51Z</time>
      </trkpt>
      <trkpt lat="42.74234" lon="0.18059">
        <ele>2123</ele>
        <time>2019-02-27T09:33:52Z</time>
      </trkpt>
      <trkpt lat="42.74234" lon="0.18059">
        <ele>2123</ele>
        <time>2019-02-27T09:33:53Z</time>
      </trkpt>
      <trkpt lat="42.74234" lon="0.18059">
        <ele>2123</ele>
        <time>2019-02-27T09:33:54Z</time>
      </trkpt>
      <trkpt lat="42.74234" lon="0.18059">
        <ele>2123</ele>
        <time>2019-02-27T09:33:55Z</time>
      </trkpt>
      <trkpt lat="42.74234" lon="0.18059">
        <ele>2123</ele>
        <time>2019-02-27T09:33:56Z</time>
      </trkpt>
      <trkpt lat="42.74234" lon="0.18059">
        <ele>2123</ele>
        <time>2019-02-27T09:33:57Z</time>
      </trkpt>
      <trkpt lat="42.74227" lon="0.18065">
        <ele>2123</ele>
        <time>2019-02-27T09:33:58Z</time>
      </trkpt>
      <trkpt lat="42.74227" lon="0.18065">
        <ele>2123</ele>
        <time>2019-02-27T09:33:59Z</time>
      </trkpt>
      <trkpt lat="42.74227" lon="0.18065">
        <ele>2123</ele>
        <time>2019-02-27T09:34:00Z</time>
      </trkpt>
      <trkpt lat="42.74227" lon="0.18065">
        <ele>2124</ele>
        <time>2019-02-27T09:34:01Z</time>
      </trkpt>
      <trkpt lat="42.74227" lon="0.18065">
        <ele>2124</ele>
        <time>2019-02-27T09:34:02Z</time>
      </trkpt>
      <trkpt lat="42.74227" lon="0.18065">
        <ele>2124</ele>
        <time>2019-02-27T09:34:03Z</time>
      </trkpt>
      <trkpt lat="42.74227" lon="0.18065">
        <ele>2124</ele>
        <time>2019-02-27T09:34:04Z</time>
      </trkpt>
      <trkpt lat="42.74227" lon="0.18065">
        <ele>2124</ele>
        <time>2019-02-27T09:34:05Z</time>
      </trkpt>
      <trkpt lat="42.74227" lon="0.18065">
        <ele>2124</ele>
        <time>2019-02-27T09:34:06Z</time>
      </trkpt>
      <trkpt lat="42.74227" lon="0.18065">
        <ele>2124</ele>
        <time>2019-02-27T09:34:07Z</time>
      </trkpt>
      <trkpt lat="42.74227" lon="0.18065">
        <ele>2125</ele>
        <time>2019-02-27T09:34:08Z</time>
      </trkpt>
      <trkpt lat="42.74227" lon="0.18065">
        <ele>2125</ele>
        <time>2019-02-27T09:34:09Z</time>
      </trkpt>
      <trkpt lat="42.74227" lon="0.18065">
        <ele>2125</ele>
        <time>2019-02-27T09:34:10Z</time>
      </trkpt>
      <trkpt lat="42.74227" lon="0.18065">
        <ele>2125</ele>
        <time>2019-02-27T09:34:11Z</time>
      </trkpt>
      <trkpt lat="42.74227" lon="0.18065">
        <ele>2125</ele>
        <time>2019-02-27T09:34:12Z</time>
      </trkpt>
      <trkpt lat="42.74227" lon="0.18065">
        <ele>2125</ele>
        <time>2019-02-27T09:34:13Z</time>
      </trkpt>
      <trkpt lat="42.74227" lon="0.18065">
        <ele>2125</ele>
        <time>2019-02-27T09:34:14Z</time>
      </trkpt>
      <trkpt lat="42.74227" lon="0.18065">
        <ele>2125</ele>
        <time>2019-02-27T09:34:15Z</time>
      </trkpt>
      <trkpt lat="42.74227" lon="0.18065">
        <ele>2126</ele>
        <time>2019-02-27T09:34:16Z</time>
      </trkpt>
      <trkpt lat="42.7422" lon="0.18074">
        <ele>2126</ele>
        <time>2019-02-27T09:34:17Z</time>
      </trkpt>
      <trkpt lat="42.7422" lon="0.18074">
        <ele>2126</ele>
        <time>2019-02-27T09:34:18Z</time>
      </trkpt>
      <trkpt lat="42.7422" lon="0.18074">
        <ele>2126</ele>
        <time>2019-02-27T09:34:19Z</time>
      </trkpt>
      <trkpt lat="42.7422" lon="0.18074">
        <ele>2126</ele>
        <time>2019-02-27T09:34:20Z</time>
      </trkpt>
      <trkpt lat="42.7422" lon="0.18074">
        <ele>2126</ele>
        <time>2019-02-27T09:34:21Z</time>
      </trkpt>
      <trkpt lat="42.7422" lon="0.18074">
        <ele>2126</ele>
        <time>2019-02-27T09:34:22Z</time>
      </trkpt>
      <trkpt lat="42.7422" lon="0.18074">
        <ele>2126</ele>
        <time>2019-02-27T09:34:23Z</time>
      </trkpt>
      <trkpt lat="42.7422" lon="0.18074">
        <ele>2126</ele>
        <time>2019-02-27T09:34:24Z</time>
      </trkpt>
      <trkpt lat="42.7422" lon="0.18074">
        <ele>2126</ele>
        <time>2019-02-27T09:34:25Z</time>
      </trkpt>
      <trkpt lat="42.7422" lon="0.18074">
        <ele>2126</ele>
        <time>2019-02-27T09:34:26Z</time>
      </trkpt>
      <trkpt lat="42.7422" lon="0.18074">
        <ele>2127</ele>
        <time>2019-02-27T09:34:27Z</time>
      </trkpt>
      <trkpt lat="42.7422" lon="0.18074">
        <ele>2127</ele>
        <time>2019-02-27T09:34:28Z</time>
      </trkpt>
      <trkpt lat="42.7422" lon="0.18074">
        <ele>2127</ele>
        <time>2019-02-27T09:34:29Z</time>
      </trkpt>
      <trkpt lat="42.7422" lon="0.18074">
        <ele>2127</ele>
        <time>2019-02-27T09:34:30Z</time>
      </trkpt>
      <trkpt lat="42.7422" lon="0.18074">
        <ele>2127</ele>
        <time>2019-02-27T09:34:31Z</time>
      </trkpt>
      <trkpt lat="42.7422" lon="0.18074">
        <ele>2127</ele>
        <time>2019-02-27T09:34:32Z</time>
      </trkpt>
      <trkpt lat="42.7422" lon="0.18074">
        <ele>2127</ele>
        <time>2019-02-27T09:34:33Z</time>
      </trkpt>
      <trkpt lat="42.7422" lon="0.18074">
        <ele>2128</ele>
        <time>2019-02-27T09:34:34Z</time>
      </trkpt>
      <trkpt lat="42.74213" lon="0.18082">
        <ele>2128</ele>
        <time>2019-02-27T09:34:35Z</time>
      </trkpt>
      <trkpt lat="42.74213" lon="0.18082">
        <ele>2128</ele>
        <time>2019-02-27T09:34:36Z</time>
      </trkpt>
      <trkpt lat="42.74213" lon="0.18082">
        <ele>2128</ele>
        <time>2019-02-27T09:34:37Z</time>
      </trkpt>
      <trkpt lat="42.74213" lon="0.18082">
        <ele>2128</ele>
        <time>2019-02-27T09:34:38Z</time>
      </trkpt>
      <trkpt lat="42.74213" lon="0.18082">
        <ele>2128</ele>
        <time>2019-02-27T09:34:39Z</time>
      </trkpt>
      <trkpt lat="42.74213" lon="0.18082">
        <ele>2128</ele>
        <time>2019-02-27T09:34:40Z</time>
      </trkpt>
      <trkpt lat="42.74213" lon="0.18082">
        <ele>2128</ele>
        <time>2019-02-27T09:34:41Z</time>
      </trkpt>
      <trkpt lat="42.74213" lon="0.18082">
        <ele>2128</ele>
        <time>2019-02-27T09:34:42Z</time>
      </trkpt>
      <trkpt lat="42.74213" lon="0.18082">
        <ele>2128</ele>
        <time>2019-02-27T09:34:43Z</time>
      </trkpt>
      <trkpt lat="42.74213" lon="0.18082">
        <ele>2128</ele>
        <time>2019-02-27T09:34:44Z</time>
      </trkpt>
      <trkpt lat="42.74213" lon="0.18082">
        <ele>2128</ele>
        <time>2019-02-27T09:34:45Z</time>
      </trkpt>
      <trkpt lat="42.74213" lon="0.18082">
        <ele>2128</ele>
        <time>2019-02-27T09:34:46Z</time>
      </trkpt>
      <trkpt lat="42.74213" lon="0.18082">
        <ele>2129</ele>
        <time>2019-02-27T09:34:47Z</time>
      </trkpt>
      <trkpt lat="42.74213" lon="0.18082">
        <ele>2129</ele>
        <time>2019-02-27T09:34:48Z</time>
      </trkpt>
      <trkpt lat="42.74213" lon="0.18082">
        <ele>2129</ele>
        <time>2019-02-27T09:34:49Z</time>
      </trkpt>
      <trkpt lat="42.74213" lon="0.18082">
        <ele>2130</ele>
        <time>2019-02-27T09:34:50Z</time>
      </trkpt>
      <trkpt lat="42.74213" lon="0.18082">
        <ele>2130</ele>
        <time>2019-02-27T09:34:51Z</time>
      </trkpt>
      <trkpt lat="42.74213" lon="0.18082">
        <ele>2130</ele>
        <time>2019-02-27T09:34:52Z</time>
      </trkpt>
      <trkpt lat="42.74213" lon="0.18082">
        <ele>2130</ele>
        <time>2019-02-27T09:34:53Z</time>
      </trkpt>
      <trkpt lat="42.74213" lon="0.18082">
        <ele>2130</ele>
        <time>2019-02-27T09:34:54Z</time>
      </trkpt>
      <trkpt lat="42.74213" lon="0.18082">
        <ele>2130</ele>
        <time>2019-02-27T09:34:55Z</time>
      </trkpt>
      <trkpt lat="42.74213" lon="0.18082">
        <ele>2130</ele>
        <time>2019-02-27T09:34:56Z</time>
      </trkpt>
      <trkpt lat="42.74213" lon="0.18082">
        <ele>2130</ele>
        <time>2019-02-27T09:34:57Z</time>
      </trkpt>
      <trkpt lat="42.74209" lon="0.18081">
        <ele>2130</ele>
        <time>2019-02-27T09:34:58Z</time>
      </trkpt>
      <trkpt lat="42.74209" lon="0.18081">
        <ele>2130</ele>
        <time>2019-02-27T09:34:59Z</time>
      </trkpt>
      <trkpt lat="42.74209" lon="0.18081">
        <ele>2130</ele>
        <time>2019-02-27T09:35:00Z</time>
      </trkpt>
      <trkpt lat="42.74208" lon="0.18079">
        <ele>2130</ele>
        <time>2019-02-27T09:35:01Z</time>
      </trkpt>
      <trkpt lat="42.74208" lon="0.18079">
        <ele>2130</ele>
        <time>2019-02-27T09:35:02Z</time>
      </trkpt>
      <trkpt lat="42.74208" lon="0.18079">
        <ele>2131</ele>
        <time>2019-02-27T09:35:03Z</time>
      </trkpt>
      <trkpt lat="42.74208" lon="0.18079">
        <ele>2131</ele>
        <time>2019-02-27T09:35:04Z</time>
      </trkpt>
      <trkpt lat="42.74207" lon="0.18076">
        <ele>2131</ele>
        <time>2019-02-27T09:35:05Z</time>
      </trkpt>
      <trkpt lat="42.74207" lon="0.18076">
        <ele>2131</ele>
        <time>2019-02-27T09:35:06Z</time>
      </trkpt>
      <trkpt lat="42.74207" lon="0.18076">
        <ele>2131</ele>
        <time>2019-02-27T09:35:07Z</time>
      </trkpt>
      <trkpt lat="42.74207" lon="0.18076">
        <ele>2131</ele>
        <time>2019-02-27T09:35:08Z</time>
      </trkpt>
      <trkpt lat="42.74206" lon="0.18074">
        <ele>2131</ele>
        <time>2019-02-27T09:35:09Z</time>
      </trkpt>
      <trkpt lat="42.74206" lon="0.18074">
        <ele>2132</ele>
        <time>2019-02-27T09:35:10Z</time>
      </trkpt>
      <trkpt lat="42.74206" lon="0.18074">
        <ele>2132</ele>
        <time>2019-02-27T09:35:11Z</time>
      </trkpt>
      <trkpt lat="42.74206" lon="0.18074">
        <ele>2132</ele>
        <time>2019-02-27T09:35:12Z</time>
      </trkpt>
      <trkpt lat="42.74205" lon="0.18071">
        <ele>2132</ele>
        <time>2019-02-27T09:35:13Z</time>
      </trkpt>
      <trkpt lat="42.74205" lon="0.18071">
        <ele>2132</ele>
        <time>2019-02-27T09:35:14Z</time>
      </trkpt>
      <trkpt lat="42.74205" lon="0.18071">
        <ele>2132</ele>
        <time>2019-02-27T09:35:15Z</time>
      </trkpt>
      <trkpt lat="42.74205" lon="0.18071">
        <ele>2132</ele>
        <time>2019-02-27T09:35:16Z</time>
      </trkpt>
      <trkpt lat="42.74204" lon="0.18069">
        <ele>2132</ele>
        <time>2019-02-27T09:35:17Z</time>
      </trkpt>
      <trkpt lat="42.74204" lon="0.18069">
        <ele>2132</ele>
        <time>2019-02-27T09:35:18Z</time>
      </trkpt>
      <trkpt lat="42.74204" lon="0.18069">
        <ele>2133</ele>
        <time>2019-02-27T09:35:19Z</time>
      </trkpt>
      <trkpt lat="42.74204" lon="0.18069">
        <ele>2134</ele>
        <time>2019-02-27T09:35:20Z</time>
      </trkpt>
      <trkpt lat="42.74203" lon="0.18066">
        <ele>2134</ele>
        <time>2019-02-27T09:35:21Z</time>
      </trkpt>
      <trkpt lat="42.74203" lon="0.18066">
        <ele>2133</ele>
        <time>2019-02-27T09:35:22Z</time>
      </trkpt>
      <trkpt lat="42.74203" lon="0.18066">
        <ele>2133</ele>
        <time>2019-02-27T09:35:23Z</time>
      </trkpt>
      <trkpt lat="42.74203" lon="0.18066">
        <ele>2133</ele>
        <time>2019-02-27T09:35:24Z</time>
      </trkpt>
      <trkpt lat="42.74202" lon="0.18064">
        <ele>2133</ele>
        <time>2019-02-27T09:35:25Z</time>
      </trkpt>
      <trkpt lat="42.74202" lon="0.18064">
        <ele>2133</ele>
        <time>2019-02-27T09:35:26Z</time>
      </trkpt>
      <trkpt lat="42.74202" lon="0.18064">
        <ele>2133</ele>
        <time>2019-02-27T09:35:27Z</time>
      </trkpt>
      <trkpt lat="42.74202" lon="0.18064">
        <ele>2133</ele>
        <time>2019-02-27T09:35:28Z</time>
      </trkpt>
      <trkpt lat="42.74202" lon="0.18061">
        <ele>2134</ele>
        <time>2019-02-27T09:35:29Z</time>
      </trkpt>
      <trkpt lat="42.74202" lon="0.18061">
        <ele>2134</ele>
        <time>2019-02-27T09:35:30Z</time>
      </trkpt>
      <trkpt lat="42.74202" lon="0.18061">
        <ele>2134</ele>
        <time>2019-02-27T09:35:31Z</time>
      </trkpt>
      <trkpt lat="42.74202" lon="0.18061">
        <ele>2134</ele>
        <time>2019-02-27T09:35:32Z</time>
      </trkpt>
      <trkpt lat="42.74201" lon="0.18058">
        <ele>2134</ele>
        <time>2019-02-27T09:35:33Z</time>
      </trkpt>
      <trkpt lat="42.74201" lon="0.18058">
        <ele>2134</ele>
        <time>2019-02-27T09:35:34Z</time>
      </trkpt>
      <trkpt lat="42.74201" lon="0.18058">
        <ele>2134</ele>
        <time>2019-02-27T09:35:35Z</time>
      </trkpt>
      <trkpt lat="42.74201" lon="0.18058">
        <ele>2134</ele>
        <time>2019-02-27T09:35:36Z</time>
      </trkpt>
      <trkpt lat="42.74201" lon="0.18056">
        <ele>2134</ele>
        <time>2019-02-27T09:35:37Z</time>
      </trkpt>
      <trkpt lat="42.74201" lon="0.18056">
        <ele>2134</ele>
        <time>2019-02-27T09:35:38Z</time>
      </trkpt>
      <trkpt lat="42.74201" lon="0.18056">
        <ele>2134</ele>
        <time>2019-02-27T09:35:39Z</time>
      </trkpt>
      <trkpt lat="42.74201" lon="0.18056">
        <ele>2134</ele>
        <time>2019-02-27T09:35:40Z</time>
      </trkpt>
      <trkpt lat="42.742" lon="0.18053">
        <ele>2135</ele>
        <time>2019-02-27T09:35:41Z</time>
      </trkpt>
      <trkpt lat="42.742" lon="0.18053">
        <ele>2135</ele>
        <time>2019-02-27T09:35:42Z</time>
      </trkpt>
      <trkpt lat="42.742" lon="0.18053">
        <ele>2135</ele>
        <time>2019-02-27T09:35:43Z</time>
      </trkpt>
      <trkpt lat="42.742" lon="0.18053">
        <ele>2135</ele>
        <time>2019-02-27T09:35:44Z</time>
      </trkpt>
      <trkpt lat="42.742" lon="0.1805">
        <ele>2135</ele>
        <time>2019-02-27T09:35:45Z</time>
      </trkpt>
      <trkpt lat="42.742" lon="0.1805">
        <ele>2136</ele>
        <time>2019-02-27T09:35:46Z</time>
      </trkpt>
      <trkpt lat="42.742" lon="0.1805">
        <ele>2136</ele>
        <time>2019-02-27T09:35:47Z</time>
      </trkpt>
      <trkpt lat="42.742" lon="0.1805">
        <ele>2136</ele>
        <time>2019-02-27T09:35:48Z</time>
      </trkpt>
      <trkpt lat="42.742" lon="0.18048">
        <ele>2136</ele>
        <time>2019-02-27T09:35:49Z</time>
      </trkpt>
      <trkpt lat="42.742" lon="0.18048">
        <ele>2136</ele>
        <time>2019-02-27T09:35:50Z</time>
      </trkpt>
      <trkpt lat="42.742" lon="0.18048">
        <ele>2136</ele>
        <time>2019-02-27T09:35:51Z</time>
      </trkpt>
      <trkpt lat="42.742" lon="0.18048">
        <ele>2136</ele>
        <time>2019-02-27T09:35:52Z</time>
      </trkpt>
      <trkpt lat="42.742" lon="0.18048">
        <ele>2136</ele>
        <time>2019-02-27T09:35:53Z</time>
      </trkpt>
      <trkpt lat="42.742" lon="0.18048">
        <ele>2136</ele>
        <time>2019-02-27T09:35:54Z</time>
      </trkpt>
      <trkpt lat="42.742" lon="0.18048">
        <ele>2136</ele>
        <time>2019-02-27T09:35:55Z</time>
      </trkpt>
      <trkpt lat="42.742" lon="0.18048">
        <ele>2137</ele>
        <time>2019-02-27T09:35:56Z</time>
      </trkpt>
      <trkpt lat="42.742" lon="0.18048">
        <ele>2138</ele>
        <time>2019-02-27T09:35:57Z</time>
      </trkpt>
      <trkpt lat="42.742" lon="0.18048">
        <ele>2138</ele>
        <time>2019-02-27T09:35:58Z</time>
      </trkpt>
      <trkpt lat="42.742" lon="0.18048">
        <ele>2138</ele>
        <time>2019-02-27T09:35:59Z</time>
      </trkpt>
      <trkpt lat="42.742" lon="0.18048">
        <ele>2138</ele>
        <time>2019-02-27T09:36:00Z</time>
      </trkpt>
      <trkpt lat="42.742" lon="0.18048">
        <ele>2138</ele>
        <time>2019-02-27T09:36:01Z</time>
      </trkpt>
      <trkpt lat="42.742" lon="0.18048">
        <ele>2138</ele>
        <time>2019-02-27T09:36:02Z</time>
      </trkpt>
      <trkpt lat="42.742" lon="0.18048">
        <ele>2138</ele>
        <time>2019-02-27T09:36:03Z</time>
      </trkpt>
      <trkpt lat="42.742" lon="0.18048">
        <ele>2138</ele>
        <time>2019-02-27T09:36:04Z</time>
      </trkpt>
      <trkpt lat="42.74199" lon="0.18041">
        <ele>2138</ele>
        <time>2019-02-27T09:36:05Z</time>
      </trkpt>
      <trkpt lat="42.74199" lon="0.18041">
        <ele>2138</ele>
        <time>2019-02-27T09:36:06Z</time>
      </trkpt>
      <trkpt lat="42.74199" lon="0.18041">
        <ele>2138</ele>
        <time>2019-02-27T09:36:07Z</time>
      </trkpt>
      <trkpt lat="42.74199" lon="0.18041">
        <ele>2138</ele>
        <time>2019-02-27T09:36:08Z</time>
      </trkpt>
      <trkpt lat="42.74199" lon="0.18041">
        <ele>2138</ele>
        <time>2019-02-27T09:36:09Z</time>
      </trkpt>
      <trkpt lat="42.74199" lon="0.18041">
        <ele>2138</ele>
        <time>2019-02-27T09:36:10Z</time>
      </trkpt>
      <trkpt lat="42.74199" lon="0.18041">
        <ele>2138</ele>
        <time>2019-02-27T09:36:11Z</time>
      </trkpt>
      <trkpt lat="42.74199" lon="0.18041">
        <ele>2138</ele>
        <time>2019-02-27T09:36:12Z</time>
      </trkpt>
      <trkpt lat="42.74199" lon="0.18041">
        <ele>2138</ele>
        <time>2019-02-27T09:36:13Z</time>
      </trkpt>
      <trkpt lat="42.74199" lon="0.18041">
        <ele>2138</ele>
        <time>2019-02-27T09:36:14Z</time>
      </trkpt>
      <trkpt lat="42.74199" lon="0.18041">
        <ele>2138</ele>
        <time>2019-02-27T09:36:15Z</time>
      </trkpt>
      <trkpt lat="42.74199" lon="0.18041">
        <ele>2138</ele>
        <time>2019-02-27T09:36:16Z</time>
      </trkpt>
      <trkpt lat="42.74199" lon="0.18041">
        <ele>2138</ele>
        <time>2019-02-27T09:36:17Z</time>
      </trkpt>
      <trkpt lat="42.74199" lon="0.18041">
        <ele>2138</ele>
        <time>2019-02-27T09:36:18Z</time>
      </trkpt>
      <trkpt lat="42.74199" lon="0.18041">
        <ele>2138</ele>
        <time>2019-02-27T09:36:19Z</time>
      </trkpt>
      <trkpt lat="42.74197" lon="0.1804">
        <ele>2138</ele>
        <time>2019-02-27T09:36:20Z</time>
      </trkpt>
      <trkpt lat="42.74197" lon="0.1804">
        <ele>2139</ele>
        <time>2019-02-27T09:36:21Z</time>
      </trkpt>
      <trkpt lat="42.74197" lon="0.1804">
        <ele>2139</ele>
        <time>2019-02-27T09:36:22Z</time>
      </trkpt>
      <trkpt lat="42.74195" lon="0.18039">
        <ele>2140</ele>
        <time>2019-02-27T09:36:23Z</time>
      </trkpt>
      <trkpt lat="42.74195" lon="0.18039">
        <ele>2140</ele>
        <time>2019-02-27T09:36:24Z</time>
      </trkpt>
      <trkpt lat="42.74195" lon="0.18039">
        <ele>2140</ele>
        <time>2019-02-27T09:36:25Z</time>
      </trkpt>
      <trkpt lat="42.74195" lon="0.18039">
        <ele>2141</ele>
        <time>2019-02-27T09:36:26Z</time>
      </trkpt>
      <trkpt lat="42.74193" lon="0.18038">
        <ele>2141</ele>
        <time>2019-02-27T09:36:27Z</time>
      </trkpt>
      <trkpt lat="42.74193" lon="0.18038">
        <ele>2141</ele>
        <time>2019-02-27T09:36:28Z</time>
      </trkpt>
      <trkpt lat="42.74193" lon="0.18038">
        <ele>2141</ele>
        <time>2019-02-27T09:36:29Z</time>
      </trkpt>
      <trkpt lat="42.74193" lon="0.18038">
        <ele>2141</ele>
        <time>2019-02-27T09:36:30Z</time>
      </trkpt>
      <trkpt lat="42.74192" lon="0.18036">
        <ele>2141</ele>
        <time>2019-02-27T09:36:31Z</time>
      </trkpt>
      <trkpt lat="42.74192" lon="0.18036">
        <ele>2142</ele>
        <time>2019-02-27T09:36:32Z</time>
      </trkpt>
      <trkpt lat="42.74192" lon="0.18036">
        <ele>2142</ele>
        <time>2019-02-27T09:36:33Z</time>
      </trkpt>
      <trkpt lat="42.74192" lon="0.18036">
        <ele>2142</ele>
        <time>2019-02-27T09:36:34Z</time>
      </trkpt>
      <trkpt lat="42.74192" lon="0.18036">
        <ele>2142</ele>
        <time>2019-02-27T09:36:35Z</time>
      </trkpt>
      <trkpt lat="42.7419" lon="0.18034">
        <ele>2142</ele>
        <time>2019-02-27T09:36:36Z</time>
      </trkpt>
      <trkpt lat="42.7419" lon="0.18034">
        <ele>2142</ele>
        <time>2019-02-27T09:36:37Z</time>
      </trkpt>
      <trkpt lat="42.7419" lon="0.18034">
        <ele>2143</ele>
        <time>2019-02-27T09:36:38Z</time>
      </trkpt>
      <trkpt lat="42.7419" lon="0.18034">
        <ele>2143</ele>
        <time>2019-02-27T09:36:39Z</time>
      </trkpt>
      <trkpt lat="42.74188" lon="0.18033">
        <ele>2143</ele>
        <time>2019-02-27T09:36:40Z</time>
      </trkpt>
      <trkpt lat="42.74188" lon="0.18033">
        <ele>2143</ele>
        <time>2019-02-27T09:36:41Z</time>
      </trkpt>
      <trkpt lat="42.74188" lon="0.18033">
        <ele>2143</ele>
        <time>2019-02-27T09:36:42Z</time>
      </trkpt>
      <trkpt lat="42.74188" lon="0.18033">
        <ele>2143</ele>
        <time>2019-02-27T09:36:43Z</time>
      </trkpt>
      <trkpt lat="42.74186" lon="0.18031">
        <ele>2143</ele>
        <time>2019-02-27T09:36:44Z</time>
      </trkpt>
      <trkpt lat="42.74186" lon="0.18031">
        <ele>2144</ele>
        <time>2019-02-27T09:36:45Z</time>
      </trkpt>
      <trkpt lat="42.74186" lon="0.18031">
        <ele>2144</ele>
        <time>2019-02-27T09:36:46Z</time>
      </trkpt>
      <trkpt lat="42.74186" lon="0.18031">
        <ele>2144</ele>
        <time>2019-02-27T09:36:47Z</time>
      </trkpt>
      <trkpt lat="42.74184" lon="0.1803">
        <ele>2145</ele>
        <time>2019-02-27T09:36:48Z</time>
      </trkpt>
      <trkpt lat="42.74184" lon="0.1803">
        <ele>2145</ele>
        <time>2019-02-27T09:36:49Z</time>
      </trkpt>
      <trkpt lat="42.74184" lon="0.1803">
        <ele>2145</ele>
        <time>2019-02-27T09:36:50Z</time>
      </trkpt>
      <trkpt lat="42.74184" lon="0.1803">
        <ele>2145</ele>
        <time>2019-02-27T09:36:51Z</time>
      </trkpt>
      <trkpt lat="42.74184" lon="0.1803">
        <ele>2145</ele>
        <time>2019-02-27T09:36:52Z</time>
      </trkpt>
      <trkpt lat="42.74183" lon="0.18029">
        <ele>2145</ele>
        <time>2019-02-27T09:36:53Z</time>
      </trkpt>
      <trkpt lat="42.74183" lon="0.18029">
        <ele>2145</ele>
        <time>2019-02-27T09:36:54Z</time>
      </trkpt>
      <trkpt lat="42.74183" lon="0.18029">
        <ele>2147</ele>
        <time>2019-02-27T09:36:55Z</time>
      </trkpt>
      <trkpt lat="42.74183" lon="0.18029">
        <ele>2147</ele>
        <time>2019-02-27T09:36:56Z</time>
      </trkpt>
      <trkpt lat="42.74181" lon="0.18027">
        <ele>2147</ele>
        <time>2019-02-27T09:36:57Z</time>
      </trkpt>
      <trkpt lat="42.74181" lon="0.18027">
        <ele>2147</ele>
        <time>2019-02-27T09:36:58Z</time>
      </trkpt>
      <trkpt lat="42.74181" lon="0.18027">
        <ele>2148</ele>
        <time>2019-02-27T09:36:59Z</time>
      </trkpt>
      <trkpt lat="42.74181" lon="0.18027">
        <ele>2148</ele>
        <time>2019-02-27T09:37:00Z</time>
      </trkpt>
      <trkpt lat="42.74181" lon="0.18027">
        <ele>2148</ele>
        <time>2019-02-27T09:37:01Z</time>
      </trkpt>
      <trkpt lat="42.74179" lon="0.18026">
        <ele>2148</ele>
        <time>2019-02-27T09:37:02Z</time>
      </trkpt>
      <trkpt lat="42.74179" lon="0.18026">
        <ele>2148</ele>
        <time>2019-02-27T09:37:03Z</time>
      </trkpt>
      <trkpt lat="42.74179" lon="0.18026">
        <ele>2148</ele>
        <time>2019-02-27T09:37:04Z</time>
      </trkpt>
      <trkpt lat="42.74179" lon="0.18026">
        <ele>2148</ele>
        <time>2019-02-27T09:37:05Z</time>
      </trkpt>
      <trkpt lat="42.74177" lon="0.18024">
        <ele>2149</ele>
        <time>2019-02-27T09:37:06Z</time>
      </trkpt>
      <trkpt lat="42.74177" lon="0.18024">
        <ele>2150</ele>
        <time>2019-02-27T09:37:07Z</time>
      </trkpt>
      <trkpt lat="42.74177" lon="0.18024">
        <ele>2150</ele>
        <time>2019-02-27T09:37:08Z</time>
      </trkpt>
      <trkpt lat="42.74177" lon="0.18024">
        <ele>2150</ele>
        <time>2019-02-27T09:37:09Z</time>
      </trkpt>
      <trkpt lat="42.74176" lon="0.18023">
        <ele>2150</ele>
        <time>2019-02-27T09:37:10Z</time>
      </trkpt>
      <trkpt lat="42.74176" lon="0.18023">
        <ele>2150</ele>
        <time>2019-02-27T09:37:11Z</time>
      </trkpt>
      <trkpt lat="42.74176" lon="0.18023">
        <ele>2150</ele>
        <time>2019-02-27T09:37:12Z</time>
      </trkpt>
      <trkpt lat="42.74174" lon="0.18022">
        <ele>2150</ele>
        <time>2019-02-27T09:37:13Z</time>
      </trkpt>
      <trkpt lat="42.74174" lon="0.18022">
        <ele>2151</ele>
        <time>2019-02-27T09:37:14Z</time>
      </trkpt>
      <trkpt lat="42.74174" lon="0.18022">
        <ele>2151</ele>
        <time>2019-02-27T09:37:15Z</time>
      </trkpt>
      <trkpt lat="42.74174" lon="0.18022">
        <ele>2151</ele>
        <time>2019-02-27T09:37:16Z</time>
      </trkpt>
      <trkpt lat="42.74172" lon="0.18021">
        <ele>2151</ele>
        <time>2019-02-27T09:37:17Z</time>
      </trkpt>
      <trkpt lat="42.74172" lon="0.18021">
        <ele>2151</ele>
        <time>2019-02-27T09:37:18Z</time>
      </trkpt>
      <trkpt lat="42.74172" lon="0.18021">
        <ele>2152</ele>
        <time>2019-02-27T09:37:19Z</time>
      </trkpt>
      <trkpt lat="42.74172" lon="0.18021">
        <ele>2152</ele>
        <time>2019-02-27T09:37:20Z</time>
      </trkpt>
      <trkpt lat="42.7417" lon="0.1802">
        <ele>2152</ele>
        <time>2019-02-27T09:37:21Z</time>
      </trkpt>
      <trkpt lat="42.7417" lon="0.1802">
        <ele>2152</ele>
        <time>2019-02-27T09:37:22Z</time>
      </trkpt>
      <trkpt lat="42.7417" lon="0.1802">
        <ele>2152</ele>
        <time>2019-02-27T09:37:23Z</time>
      </trkpt>
      <trkpt lat="42.7417" lon="0.1802">
        <ele>2152</ele>
        <time>2019-02-27T09:37:24Z</time>
      </trkpt>
      <trkpt lat="42.74169" lon="0.18018">
        <ele>2153</ele>
        <time>2019-02-27T09:37:25Z</time>
      </trkpt>
      <trkpt lat="42.74169" lon="0.18018">
        <ele>2153</ele>
        <time>2019-02-27T09:37:26Z</time>
      </trkpt>
      <trkpt lat="42.74169" lon="0.18018">
        <ele>2153</ele>
        <time>2019-02-27T09:37:27Z</time>
      </trkpt>
      <trkpt lat="42.74169" lon="0.18018">
        <ele>2153</ele>
        <time>2019-02-27T09:37:28Z</time>
      </trkpt>
      <trkpt lat="42.74169" lon="0.18018">
        <ele>2153</ele>
        <time>2019-02-27T09:37:29Z</time>
      </trkpt>
      <trkpt lat="42.74167" lon="0.18016">
        <ele>2153</ele>
        <time>2019-02-27T09:37:30Z</time>
      </trkpt>
      <trkpt lat="42.74167" lon="0.18016">
        <ele>2153</ele>
        <time>2019-02-27T09:37:31Z</time>
      </trkpt>
      <trkpt lat="42.74167" lon="0.18016">
        <ele>2154</ele>
        <time>2019-02-27T09:37:32Z</time>
      </trkpt>
      <trkpt lat="42.74167" lon="0.18016">
        <ele>2154</ele>
        <time>2019-02-27T09:37:33Z</time>
      </trkpt>
      <trkpt lat="42.74167" lon="0.18016">
        <ele>2154</ele>
        <time>2019-02-27T09:37:34Z</time>
      </trkpt>
      <trkpt lat="42.74165" lon="0.18015">
        <ele>2155</ele>
        <time>2019-02-27T09:37:35Z</time>
      </trkpt>
      <trkpt lat="42.74165" lon="0.18015">
        <ele>2155</ele>
        <time>2019-02-27T09:37:36Z</time>
      </trkpt>
      <trkpt lat="42.74165" lon="0.18015">
        <ele>2156</ele>
        <time>2019-02-27T09:37:37Z</time>
      </trkpt>
      <trkpt lat="42.74165" lon="0.18015">
        <ele>2156</ele>
        <time>2019-02-27T09:37:38Z</time>
      </trkpt>
      <trkpt lat="42.74165" lon="0.18015">
        <ele>2156</ele>
        <time>2019-02-27T09:37:39Z</time>
      </trkpt>
      <trkpt lat="42.74164" lon="0.18013">
        <ele>2156</ele>
        <time>2019-02-27T09:37:40Z</time>
      </trkpt>
      <trkpt lat="42.74164" lon="0.18013">
        <ele>2156</ele>
        <time>2019-02-27T09:37:41Z</time>
      </trkpt>
      <trkpt lat="42.74164" lon="0.18013">
        <ele>2156</ele>
        <time>2019-02-27T09:37:42Z</time>
      </trkpt>
      <trkpt lat="42.74164" lon="0.18013">
        <ele>2156</ele>
        <time>2019-02-27T09:37:43Z</time>
      </trkpt>
      <trkpt lat="42.74164" lon="0.18013">
        <ele>2156</ele>
        <time>2019-02-27T09:37:44Z</time>
      </trkpt>
      <trkpt lat="42.74164" lon="0.18013">
        <ele>2156</ele>
        <time>2019-02-27T09:37:45Z</time>
      </trkpt>
      <trkpt lat="42.74162" lon="0.18011">
        <ele>2157</ele>
        <time>2019-02-27T09:37:46Z</time>
      </trkpt>
      <trkpt lat="42.74162" lon="0.18011">
        <ele>2157</ele>
        <time>2019-02-27T09:37:47Z</time>
      </trkpt>
      <trkpt lat="42.74162" lon="0.18011">
        <ele>2157</ele>
        <time>2019-02-27T09:37:48Z</time>
      </trkpt>
      <trkpt lat="42.74162" lon="0.18011">
        <ele>2157</ele>
        <time>2019-02-27T09:37:49Z</time>
      </trkpt>
      <trkpt lat="42.74162" lon="0.18011">
        <ele>2157</ele>
        <time>2019-02-27T09:37:50Z</time>
      </trkpt>
      <trkpt lat="42.7416" lon="0.18011">
        <ele>2157</ele>
        <time>2019-02-27T09:37:51Z</time>
      </trkpt>
      <trkpt lat="42.7416" lon="0.18011">
        <ele>2157</ele>
        <time>2019-02-27T09:37:52Z</time>
      </trkpt>
      <trkpt lat="42.7416" lon="0.18011">
        <ele>2158</ele>
        <time>2019-02-27T09:37:53Z</time>
      </trkpt>
      <trkpt lat="42.7416" lon="0.18011">
        <ele>2158</ele>
        <time>2019-02-27T09:37:54Z</time>
      </trkpt>
      <trkpt lat="42.74158" lon="0.18011">
        <ele>2158</ele>
        <time>2019-02-27T09:37:55Z</time>
      </trkpt>
      <trkpt lat="42.74158" lon="0.18011">
        <ele>2158</ele>
        <time>2019-02-27T09:37:56Z</time>
      </trkpt>
      <trkpt lat="42.74158" lon="0.18011">
        <ele>2159</ele>
        <time>2019-02-27T09:37:57Z</time>
      </trkpt>
      <trkpt lat="42.74158" lon="0.18011">
        <ele>2159</ele>
        <time>2019-02-27T09:37:58Z</time>
      </trkpt>
      <trkpt lat="42.74156" lon="0.18011">
        <ele>2159</ele>
        <time>2019-02-27T09:37:59Z</time>
      </trkpt>
      <trkpt lat="42.74156" lon="0.18011">
        <ele>2160</ele>
        <time>2019-02-27T09:38:00Z</time>
      </trkpt>
      <trkpt lat="42.74156" lon="0.18011">
        <ele>2160</ele>
        <time>2019-02-27T09:38:01Z</time>
      </trkpt>
      <trkpt lat="42.74156" lon="0.18011">
        <ele>2160</ele>
        <time>2019-02-27T09:38:02Z</time>
      </trkpt>
      <trkpt lat="42.74154" lon="0.18011">
        <ele>2160</ele>
        <time>2019-02-27T09:38:03Z</time>
      </trkpt>
      <trkpt lat="42.74154" lon="0.18011">
        <ele>2160</ele>
        <time>2019-02-27T09:38:04Z</time>
      </trkpt>
      <trkpt lat="42.74154" lon="0.18011">
        <ele>2160</ele>
        <time>2019-02-27T09:38:05Z</time>
      </trkpt>
      <trkpt lat="42.74154" lon="0.18011">
        <ele>2160</ele>
        <time>2019-02-27T09:38:06Z</time>
      </trkpt>
      <trkpt lat="42.74151" lon="0.1801">
        <ele>2161</ele>
        <time>2019-02-27T09:38:07Z</time>
      </trkpt>
      <trkpt lat="42.74151" lon="0.1801">
        <ele>2161</ele>
        <time>2019-02-27T09:38:08Z</time>
      </trkpt>
      <trkpt lat="42.74151" lon="0.1801">
        <ele>2162</ele>
        <time>2019-02-27T09:38:09Z</time>
      </trkpt>
      <trkpt lat="42.74151" lon="0.1801">
        <ele>2162</ele>
        <time>2019-02-27T09:38:10Z</time>
      </trkpt>
      <trkpt lat="42.7415" lon="0.18007">
        <ele>2162</ele>
        <time>2019-02-27T09:38:11Z</time>
      </trkpt>
      <trkpt lat="42.7415" lon="0.18007">
        <ele>2162</ele>
        <time>2019-02-27T09:38:12Z</time>
      </trkpt>
      <trkpt lat="42.7415" lon="0.18007">
        <ele>2162</ele>
        <time>2019-02-27T09:38:13Z</time>
      </trkpt>
      <trkpt lat="42.7415" lon="0.18007">
        <ele>2162</ele>
        <time>2019-02-27T09:38:14Z</time>
      </trkpt>
      <trkpt lat="42.7415" lon="0.18007">
        <ele>2162</ele>
        <time>2019-02-27T09:38:15Z</time>
      </trkpt>
      <trkpt lat="42.74148" lon="0.18006">
        <ele>2163</ele>
        <time>2019-02-27T09:38:16Z</time>
      </trkpt>
      <trkpt lat="42.74148" lon="0.18006">
        <ele>2163</ele>
        <time>2019-02-27T09:38:17Z</time>
      </trkpt>
      <trkpt lat="42.74148" lon="0.18006">
        <ele>2163</ele>
        <time>2019-02-27T09:38:18Z</time>
      </trkpt>
      <trkpt lat="42.74148" lon="0.18006">
        <ele>2163</ele>
        <time>2019-02-27T09:38:19Z</time>
      </trkpt>
      <trkpt lat="42.74148" lon="0.18006">
        <ele>2163</ele>
        <time>2019-02-27T09:38:20Z</time>
      </trkpt>
      <trkpt lat="42.74147" lon="0.18004">
        <ele>2163</ele>
        <time>2019-02-27T09:38:21Z</time>
      </trkpt>
      <trkpt lat="42.74147" lon="0.18004">
        <ele>2163</ele>
        <time>2019-02-27T09:38:22Z</time>
      </trkpt>
      <trkpt lat="42.74147" lon="0.18004">
        <ele>2163</ele>
        <time>2019-02-27T09:38:23Z</time>
      </trkpt>
      <trkpt lat="42.74147" lon="0.18004">
        <ele>2164</ele>
        <time>2019-02-27T09:38:24Z</time>
      </trkpt>
      <trkpt lat="42.74147" lon="0.18004">
        <ele>2164</ele>
        <time>2019-02-27T09:38:25Z</time>
      </trkpt>
      <trkpt lat="42.74145" lon="0.18002">
        <ele>2164</ele>
        <time>2019-02-27T09:38:26Z</time>
      </trkpt>
      <trkpt lat="42.74145" lon="0.18002">
        <ele>2165</ele>
        <time>2019-02-27T09:38:27Z</time>
      </trkpt>
      <trkpt lat="42.74145" lon="0.18002">
        <ele>2165</ele>
        <time>2019-02-27T09:38:28Z</time>
      </trkpt>
      <trkpt lat="42.74145" lon="0.18002">
        <ele>2165</ele>
        <time>2019-02-27T09:38:29Z</time>
      </trkpt>
      <trkpt lat="42.74144" lon="0.18">
        <ele>2165</ele>
        <time>2019-02-27T09:38:30Z</time>
      </trkpt>
      <trkpt lat="42.74144" lon="0.18">
        <ele>2165</ele>
        <time>2019-02-27T09:38:31Z</time>
      </trkpt>
      <trkpt lat="42.74144" lon="0.18">
        <ele>2165</ele>
        <time>2019-02-27T09:38:32Z</time>
      </trkpt>
      <trkpt lat="42.74144" lon="0.18">
        <ele>2165</ele>
        <time>2019-02-27T09:38:33Z</time>
      </trkpt>
      <trkpt lat="42.74144" lon="0.18">
        <ele>2165</ele>
        <time>2019-02-27T09:38:34Z</time>
      </trkpt>
      <trkpt lat="42.74144" lon="0.18">
        <ele>2166</ele>
        <time>2019-02-27T09:38:35Z</time>
      </trkpt>
      <trkpt lat="42.74143" lon="0.17998">
        <ele>2166</ele>
        <time>2019-02-27T09:38:36Z</time>
      </trkpt>
      <trkpt lat="42.74143" lon="0.17998">
        <ele>2167</ele>
        <time>2019-02-27T09:38:37Z</time>
      </trkpt>
      <trkpt lat="42.74143" lon="0.17998">
        <ele>2167</ele>
        <time>2019-02-27T09:38:38Z</time>
      </trkpt>
      <trkpt lat="42.74143" lon="0.17998">
        <ele>2167</ele>
        <time>2019-02-27T09:38:39Z</time>
      </trkpt>
      <trkpt lat="42.74143" lon="0.17998">
        <ele>2167</ele>
        <time>2019-02-27T09:38:40Z</time>
      </trkpt>
      <trkpt lat="42.74141" lon="0.17996">
        <ele>2167</ele>
        <time>2019-02-27T09:38:41Z</time>
      </trkpt>
      <trkpt lat="42.74141" lon="0.17996">
        <ele>2167</ele>
        <time>2019-02-27T09:38:42Z</time>
      </trkpt>
      <trkpt lat="42.74141" lon="0.17996">
        <ele>2167</ele>
        <time>2019-02-27T09:38:43Z</time>
      </trkpt>
      <trkpt lat="42.74141" lon="0.17996">
        <ele>2168</ele>
        <time>2019-02-27T09:38:44Z</time>
      </trkpt>
      <trkpt lat="42.74141" lon="0.17996">
        <ele>2168</ele>
        <time>2019-02-27T09:38:45Z</time>
      </trkpt>
      <trkpt lat="42.7414" lon="0.17994">
        <ele>2168</ele>
        <time>2019-02-27T09:38:46Z</time>
      </trkpt>
      <trkpt lat="42.7414" lon="0.17994">
        <ele>2168</ele>
        <time>2019-02-27T09:38:47Z</time>
      </trkpt>
      <trkpt lat="42.7414" lon="0.17994">
        <ele>2168</ele>
        <time>2019-02-27T09:38:48Z</time>
      </trkpt>
      <trkpt lat="42.7414" lon="0.17994">
        <ele>2168</ele>
        <time>2019-02-27T09:38:49Z</time>
      </trkpt>
      <trkpt lat="42.7414" lon="0.17994">
        <ele>2168</ele>
        <time>2019-02-27T09:38:50Z</time>
      </trkpt>
      <trkpt lat="42.7414" lon="0.17994">
        <ele>2168</ele>
        <time>2019-02-27T09:38:51Z</time>
      </trkpt>
      <trkpt lat="42.7414" lon="0.17994">
        <ele>2168</ele>
        <time>2019-02-27T09:38:52Z</time>
      </trkpt>
      <trkpt lat="42.74139" lon="0.17991">
        <ele>2169</ele>
        <time>2019-02-27T09:38:53Z</time>
      </trkpt>
      <trkpt lat="42.74139" lon="0.17991">
        <ele>2169</ele>
        <time>2019-02-27T09:38:54Z</time>
      </trkpt>
      <trkpt lat="42.74139" lon="0.17991">
        <ele>2169</ele>
        <time>2019-02-27T09:38:55Z</time>
      </trkpt>
      <trkpt lat="42.74139" lon="0.17991">
        <ele>2169</ele>
        <time>2019-02-27T09:38:56Z</time>
      </trkpt>
      <trkpt lat="42.74138" lon="0.1799">
        <ele>2169</ele>
        <time>2019-02-27T09:38:57Z</time>
      </trkpt>
      <trkpt lat="42.74138" lon="0.1799">
        <ele>2169</ele>
        <time>2019-02-27T09:38:58Z</time>
      </trkpt>
      <trkpt lat="42.74138" lon="0.1799">
        <ele>2169</ele>
        <time>2019-02-27T09:38:59Z</time>
      </trkpt>
      <trkpt lat="42.74138" lon="0.1799">
        <ele>2169</ele>
        <time>2019-02-27T09:39:00Z</time>
      </trkpt>
      <trkpt lat="42.74138" lon="0.1799">
        <ele>2169</ele>
        <time>2019-02-27T09:39:01Z</time>
      </trkpt>
      <trkpt lat="42.74138" lon="0.1799">
        <ele>2170</ele>
        <time>2019-02-27T09:39:02Z</time>
      </trkpt>
      <trkpt lat="42.74138" lon="0.1799">
        <ele>2170</ele>
        <time>2019-02-27T09:39:03Z</time>
      </trkpt>
      <trkpt lat="42.74138" lon="0.1799">
        <ele>2170</ele>
        <time>2019-02-27T09:39:04Z</time>
      </trkpt>
      <trkpt lat="42.74138" lon="0.1799">
        <ele>2170</ele>
        <time>2019-02-27T09:39:05Z</time>
      </trkpt>
      <trkpt lat="42.74138" lon="0.1799">
        <ele>2170</ele>
        <time>2019-02-27T09:39:06Z</time>
      </trkpt>
      <trkpt lat="42.74137" lon="0.17987">
        <ele>2171</ele>
        <time>2019-02-27T09:39:07Z</time>
      </trkpt>
      <trkpt lat="42.74137" lon="0.17987">
        <ele>2171</ele>
        <time>2019-02-27T09:39:08Z</time>
      </trkpt>
      <trkpt lat="42.74137" lon="0.17987">
        <ele>2171</ele>
        <time>2019-02-27T09:39:09Z</time>
      </trkpt>
      <trkpt lat="42.74137" lon="0.17987">
        <ele>2173</ele>
        <time>2019-02-27T09:39:10Z</time>
      </trkpt>
      <trkpt lat="42.74137" lon="0.17987">
        <ele>2173</ele>
        <time>2019-02-27T09:39:11Z</time>
      </trkpt>
      <trkpt lat="42.74137" lon="0.17987">
        <ele>2173</ele>
        <time>2019-02-27T09:39:12Z</time>
      </trkpt>
      <trkpt lat="42.74136" lon="0.17985">
        <ele>2173</ele>
        <time>2019-02-27T09:39:13Z</time>
      </trkpt>
      <trkpt lat="42.74136" lon="0.17985">
        <ele>2173</ele>
        <time>2019-02-27T09:39:14Z</time>
      </trkpt>
      <trkpt lat="42.74136" lon="0.17985">
        <ele>2173</ele>
        <time>2019-02-27T09:39:15Z</time>
      </trkpt>
      <trkpt lat="42.74136" lon="0.17985">
        <ele>2173</ele>
        <time>2019-02-27T09:39:16Z</time>
      </trkpt>
      <trkpt lat="42.74136" lon="0.17985">
        <ele>2174</ele>
        <time>2019-02-27T09:39:17Z</time>
      </trkpt>
      <trkpt lat="42.74135" lon="0.17982">
        <ele>2174</ele>
        <time>2019-02-27T09:39:18Z</time>
      </trkpt>
      <trkpt lat="42.74135" lon="0.17982">
        <ele>2174</ele>
        <time>2019-02-27T09:39:19Z</time>
      </trkpt>
      <trkpt lat="42.74135" lon="0.17982">
        <ele>2174</ele>
        <time>2019-02-27T09:39:20Z</time>
      </trkpt>
      <trkpt lat="42.74135" lon="0.17982">
        <ele>2174</ele>
        <time>2019-02-27T09:39:21Z</time>
      </trkpt>
      <trkpt lat="42.74135" lon="0.17982">
        <ele>2174</ele>
        <time>2019-02-27T09:39:22Z</time>
      </trkpt>
      <trkpt lat="42.74134" lon="0.1798">
        <ele>2174</ele>
        <time>2019-02-27T09:39:23Z</time>
      </trkpt>
      <trkpt lat="42.74134" lon="0.1798">
        <ele>2174</ele>
        <time>2019-02-27T09:39:24Z</time>
      </trkpt>
      <trkpt lat="42.74134" lon="0.1798">
        <ele>2174</ele>
        <time>2019-02-27T09:39:25Z</time>
      </trkpt>
      <trkpt lat="42.74134" lon="0.1798">
        <ele>2175</ele>
        <time>2019-02-27T09:39:26Z</time>
      </trkpt>
      <trkpt lat="42.74133" lon="0.17977">
        <ele>2175</ele>
        <time>2019-02-27T09:39:27Z</time>
      </trkpt>
      <trkpt lat="42.74133" lon="0.17977">
        <ele>2175</ele>
        <time>2019-02-27T09:39:28Z</time>
      </trkpt>
      <trkpt lat="42.74133" lon="0.17977">
        <ele>2175</ele>
        <time>2019-02-27T09:39:29Z</time>
      </trkpt>
      <trkpt lat="42.74133" lon="0.17975">
        <ele>2175</ele>
        <time>2019-02-27T09:39:30Z</time>
      </trkpt>
      <trkpt lat="42.74133" lon="0.17975">
        <ele>2176</ele>
        <time>2019-02-27T09:39:31Z</time>
      </trkpt>
      <trkpt lat="42.74133" lon="0.17975">
        <ele>2176</ele>
        <time>2019-02-27T09:39:32Z</time>
      </trkpt>
      <trkpt lat="42.74133" lon="0.17975">
        <ele>2176</ele>
        <time>2019-02-27T09:39:33Z</time>
      </trkpt>
      <trkpt lat="42.74131" lon="0.17973">
        <ele>2176</ele>
        <time>2019-02-27T09:39:34Z</time>
      </trkpt>
      <trkpt lat="42.74131" lon="0.17973">
        <ele>2176</ele>
        <time>2019-02-27T09:39:35Z</time>
      </trkpt>
      <trkpt lat="42.74131" lon="0.17973">
        <ele>2177</ele>
        <time>2019-02-27T09:39:36Z</time>
      </trkpt>
      <trkpt lat="42.74131" lon="0.17973">
        <ele>2178</ele>
        <time>2019-02-27T09:39:37Z</time>
      </trkpt>
      <trkpt lat="42.74131" lon="0.17973">
        <ele>2178</ele>
        <time>2019-02-27T09:39:38Z</time>
      </trkpt>
      <trkpt lat="42.7413" lon="0.1797">
        <ele>2178</ele>
        <time>2019-02-27T09:39:39Z</time>
      </trkpt>
      <trkpt lat="42.7413" lon="0.1797">
        <ele>2178</ele>
        <time>2019-02-27T09:39:40Z</time>
      </trkpt>
      <trkpt lat="42.7413" lon="0.1797">
        <ele>2178</ele>
        <time>2019-02-27T09:39:41Z</time>
      </trkpt>
      <trkpt lat="42.7413" lon="0.1797">
        <ele>2178</ele>
        <time>2019-02-27T09:39:42Z</time>
      </trkpt>
      <trkpt lat="42.7413" lon="0.1797">
        <ele>2178</ele>
        <time>2019-02-27T09:39:43Z</time>
      </trkpt>
      <trkpt lat="42.7413" lon="0.1797">
        <ele>2178</ele>
        <time>2019-02-27T09:39:44Z</time>
      </trkpt>
      <trkpt lat="42.74129" lon="0.17968">
        <ele>2179</ele>
        <time>2019-02-27T09:39:45Z</time>
      </trkpt>
      <trkpt lat="42.74129" lon="0.17968">
        <ele>2179</ele>
        <time>2019-02-27T09:39:46Z</time>
      </trkpt>
      <trkpt lat="42.74129" lon="0.17968">
        <ele>2179</ele>
        <time>2019-02-27T09:39:47Z</time>
      </trkpt>
      <trkpt lat="42.74129" lon="0.17968">
        <ele>2179</ele>
        <time>2019-02-27T09:39:48Z</time>
      </trkpt>
      <trkpt lat="42.74128" lon="0.17966">
        <ele>2179</ele>
        <time>2019-02-27T09:39:49Z</time>
      </trkpt>
      <trkpt lat="42.74128" lon="0.17966">
        <ele>2179</ele>
        <time>2019-02-27T09:39:50Z</time>
      </trkpt>
      <trkpt lat="42.74128" lon="0.17966">
        <ele>2179</ele>
        <time>2019-02-27T09:39:51Z</time>
      </trkpt>
      <trkpt lat="42.74127" lon="0.17964">
        <ele>2179</ele>
        <time>2019-02-27T09:39:52Z</time>
      </trkpt>
      <trkpt lat="42.74127" lon="0.17964">
        <ele>2180</ele>
        <time>2019-02-27T09:39:53Z</time>
      </trkpt>
      <trkpt lat="42.74127" lon="0.17964">
        <ele>2180</ele>
        <time>2019-02-27T09:39:54Z</time>
      </trkpt>
      <trkpt lat="42.74127" lon="0.17964">
        <ele>2180</ele>
        <time>2019-02-27T09:39:55Z</time>
      </trkpt>
      <trkpt lat="42.74126" lon="0.17961">
        <ele>2180</ele>
        <time>2019-02-27T09:39:56Z</time>
      </trkpt>
      <trkpt lat="42.74126" lon="0.17961">
        <ele>2181</ele>
        <time>2019-02-27T09:39:57Z</time>
      </trkpt>
      <trkpt lat="42.74126" lon="0.17961">
        <ele>2181</ele>
        <time>2019-02-27T09:39:58Z</time>
      </trkpt>
      <trkpt lat="42.74126" lon="0.17961">
        <ele>2181</ele>
        <time>2019-02-27T09:39:59Z</time>
      </trkpt>
      <trkpt lat="42.74126" lon="0.17959">
        <ele>2181</ele>
        <time>2019-02-27T09:40:00Z</time>
      </trkpt>
      <trkpt lat="42.74126" lon="0.17959">
        <ele>2181</ele>
        <time>2019-02-27T09:40:01Z</time>
      </trkpt>
      <trkpt lat="42.74126" lon="0.17959">
        <ele>2181</ele>
        <time>2019-02-27T09:40:02Z</time>
      </trkpt>
      <trkpt lat="42.74126" lon="0.17959">
        <ele>2182</ele>
        <time>2019-02-27T09:40:03Z</time>
      </trkpt>
      <trkpt lat="42.74125" lon="0.17956">
        <ele>2182</ele>
        <time>2019-02-27T09:40:04Z</time>
      </trkpt>
      <trkpt lat="42.74125" lon="0.17956">
        <ele>2182</ele>
        <time>2019-02-27T09:40:05Z</time>
      </trkpt>
      <trkpt lat="42.74125" lon="0.17956">
        <ele>2182</ele>
        <time>2019-02-27T09:40:06Z</time>
      </trkpt>
      <trkpt lat="42.74125" lon="0.17956">
        <ele>2182</ele>
        <time>2019-02-27T09:40:07Z</time>
      </trkpt>
      <trkpt lat="42.74124" lon="0.17954">
        <ele>2182</ele>
        <time>2019-02-27T09:40:08Z</time>
      </trkpt>
      <trkpt lat="42.74124" lon="0.17954">
        <ele>2182</ele>
        <time>2019-02-27T09:40:09Z</time>
      </trkpt>
      <trkpt lat="42.74124" lon="0.17954">
        <ele>2182</ele>
        <time>2019-02-27T09:40:10Z</time>
      </trkpt>
      <trkpt lat="42.74124" lon="0.17954">
        <ele>2183</ele>
        <time>2019-02-27T09:40:11Z</time>
      </trkpt>
      <trkpt lat="42.74124" lon="0.17954">
        <ele>2184</ele>
        <time>2019-02-27T09:40:12Z</time>
      </trkpt>
      <trkpt lat="42.74124" lon="0.17951">
        <ele>2184</ele>
        <time>2019-02-27T09:40:13Z</time>
      </trkpt>
      <trkpt lat="42.74124" lon="0.17951">
        <ele>2184</ele>
        <time>2019-02-27T09:40:14Z</time>
      </trkpt>
      <trkpt lat="42.74124" lon="0.17951">
        <ele>2184</ele>
        <time>2019-02-27T09:40:15Z</time>
      </trkpt>
      <trkpt lat="42.74124" lon="0.17951">
        <ele>2184</ele>
        <time>2019-02-27T09:40:16Z</time>
      </trkpt>
      <trkpt lat="42.74124" lon="0.17951">
        <ele>2184</ele>
        <time>2019-02-27T09:40:17Z</time>
      </trkpt>
      <trkpt lat="42.74124" lon="0.17951">
        <ele>2184</ele>
        <time>2019-02-27T09:40:18Z</time>
      </trkpt>
      <trkpt lat="42.74124" lon="0.17951">
        <ele>2184</ele>
        <time>2019-02-27T09:40:19Z</time>
      </trkpt>
      <trkpt lat="42.74124" lon="0.17949">
        <ele>2184</ele>
        <time>2019-02-27T09:40:20Z</time>
      </trkpt>
      <trkpt lat="42.74124" lon="0.17949">
        <ele>2184</ele>
        <time>2019-02-27T09:40:21Z</time>
      </trkpt>
      <trkpt lat="42.74124" lon="0.17949">
        <ele>2184</ele>
        <time>2019-02-27T09:40:22Z</time>
      </trkpt>
      <trkpt lat="42.74124" lon="0.17949">
        <ele>2185</ele>
        <time>2019-02-27T09:40:23Z</time>
      </trkpt>
      <trkpt lat="42.74123" lon="0.17946">
        <ele>2185</ele>
        <time>2019-02-27T09:40:24Z</time>
      </trkpt>
      <trkpt lat="42.74123" lon="0.17946">
        <ele>2185</ele>
        <time>2019-02-27T09:40:25Z</time>
      </trkpt>
      <trkpt lat="42.74123" lon="0.17946">
        <ele>2185</ele>
        <time>2019-02-27T09:40:26Z</time>
      </trkpt>
      <trkpt lat="42.74123" lon="0.17946">
        <ele>2185</ele>
        <time>2019-02-27T09:40:27Z</time>
      </trkpt>
      <trkpt lat="42.74123" lon="0.17943">
        <ele>2186</ele>
        <time>2019-02-27T09:40:28Z</time>
      </trkpt>
      <trkpt lat="42.74123" lon="0.17943">
        <ele>2186</ele>
        <time>2019-02-27T09:40:29Z</time>
      </trkpt>
      <trkpt lat="42.74123" lon="0.17943">
        <ele>2186</ele>
        <time>2019-02-27T09:40:30Z</time>
      </trkpt>
      <trkpt lat="42.74123" lon="0.17943">
        <ele>2186</ele>
        <time>2019-02-27T09:40:31Z</time>
      </trkpt>
      <trkpt lat="42.74123" lon="0.17943">
        <ele>2186</ele>
        <time>2019-02-27T09:40:32Z</time>
      </trkpt>
      <trkpt lat="42.74124" lon="0.1794">
        <ele>2186</ele>
        <time>2019-02-27T09:40:33Z</time>
      </trkpt>
      <trkpt lat="42.74124" lon="0.1794">
        <ele>2187</ele>
        <time>2019-02-27T09:40:34Z</time>
      </trkpt>
      <trkpt lat="42.74124" lon="0.1794">
        <ele>2188</ele>
        <time>2019-02-27T09:40:35Z</time>
      </trkpt>
      <trkpt lat="42.74125" lon="0.17938">
        <ele>2188</ele>
        <time>2019-02-27T09:40:36Z</time>
      </trkpt>
      <trkpt lat="42.74125" lon="0.17938">
        <ele>2188</ele>
        <time>2019-02-27T09:40:37Z</time>
      </trkpt>
      <trkpt lat="42.74125" lon="0.17938">
        <ele>2188</ele>
        <time>2019-02-27T09:40:38Z</time>
      </trkpt>
      <trkpt lat="42.74126" lon="0.17935">
        <ele>2188</ele>
        <time>2019-02-27T09:40:39Z</time>
      </trkpt>
      <trkpt lat="42.74126" lon="0.17935">
        <ele>2188</ele>
        <time>2019-02-27T09:40:40Z</time>
      </trkpt>
      <trkpt lat="42.74126" lon="0.17935">
        <ele>2188</ele>
        <time>2019-02-27T09:40:41Z</time>
      </trkpt>
      <trkpt lat="42.74126" lon="0.17932">
        <ele>2188</ele>
        <time>2019-02-27T09:40:42Z</time>
      </trkpt>
      <trkpt lat="42.74126" lon="0.17932">
        <ele>2188</ele>
        <time>2019-02-27T09:40:43Z</time>
      </trkpt>
      <trkpt lat="42.74126" lon="0.17932">
        <ele>2188</ele>
        <time>2019-02-27T09:40:44Z</time>
      </trkpt>
      <trkpt lat="42.74126" lon="0.17932">
        <ele>2188</ele>
        <time>2019-02-27T09:40:45Z</time>
      </trkpt>
      <trkpt lat="42.74126" lon="0.1793">
        <ele>2188</ele>
        <time>2019-02-27T09:40:46Z</time>
      </trkpt>
      <trkpt lat="42.74126" lon="0.1793">
        <ele>2189</ele>
        <time>2019-02-27T09:40:47Z</time>
      </trkpt>
      <trkpt lat="42.74126" lon="0.1793">
        <ele>2189</ele>
        <time>2019-02-27T09:40:48Z</time>
      </trkpt>
      <trkpt lat="42.74126" lon="0.1793">
        <ele>2189</ele>
        <time>2019-02-27T09:40:49Z</time>
      </trkpt>
      <trkpt lat="42.74126" lon="0.17927">
        <ele>2189</ele>
        <time>2019-02-27T09:40:50Z</time>
      </trkpt>
      <trkpt lat="42.74126" lon="0.17927">
        <ele>2190</ele>
        <time>2019-02-27T09:40:51Z</time>
      </trkpt>
      <trkpt lat="42.74126" lon="0.17927">
        <ele>2190</ele>
        <time>2019-02-27T09:40:52Z</time>
      </trkpt>
      <trkpt lat="42.74126" lon="0.17927">
        <ele>2190</ele>
        <time>2019-02-27T09:40:53Z</time>
      </trkpt>
      <trkpt lat="42.74126" lon="0.17924">
        <ele>2190</ele>
        <time>2019-02-27T09:40:54Z</time>
      </trkpt>
      <trkpt lat="42.74126" lon="0.17924">
        <ele>2190</ele>
        <time>2019-02-27T09:40:55Z</time>
      </trkpt>
      <trkpt lat="42.74126" lon="0.17924">
        <ele>2190</ele>
        <time>2019-02-27T09:40:56Z</time>
      </trkpt>
      <trkpt lat="42.74126" lon="0.17924">
        <ele>2190</ele>
        <time>2019-02-27T09:40:57Z</time>
      </trkpt>
      <trkpt lat="42.74126" lon="0.17924">
        <ele>2191</ele>
        <time>2019-02-27T09:40:58Z</time>
      </trkpt>
      <trkpt lat="42.74126" lon="0.17921">
        <ele>2192</ele>
        <time>2019-02-27T09:40:59Z</time>
      </trkpt>
      <trkpt lat="42.74126" lon="0.17921">
        <ele>2192</ele>
        <time>2019-02-27T09:41:00Z</time>
      </trkpt>
      <trkpt lat="42.74126" lon="0.17921">
        <ele>2192</ele>
        <time>2019-02-27T09:41:01Z</time>
      </trkpt>
      <trkpt lat="42.74126" lon="0.17921">
        <ele>2192</ele>
        <time>2019-02-27T09:41:02Z</time>
      </trkpt>
      <trkpt lat="42.74126" lon="0.17921">
        <ele>2192</ele>
        <time>2019-02-27T09:41:03Z</time>
      </trkpt>
      <trkpt lat="42.74126" lon="0.17918">
        <ele>2192</ele>
        <time>2019-02-27T09:41:04Z</time>
      </trkpt>
      <trkpt lat="42.74126" lon="0.17918">
        <ele>2192</ele>
        <time>2019-02-27T09:41:05Z</time>
      </trkpt>
      <trkpt lat="42.74126" lon="0.17918">
        <ele>2192</ele>
        <time>2019-02-27T09:41:06Z</time>
      </trkpt>
      <trkpt lat="42.74126" lon="0.17918">
        <ele>2192</ele>
        <time>2019-02-27T09:41:07Z</time>
      </trkpt>
      <trkpt lat="42.74126" lon="0.17916">
        <ele>2192</ele>
        <time>2019-02-27T09:41:08Z</time>
      </trkpt>
      <trkpt lat="42.74126" lon="0.17916">
        <ele>2192</ele>
        <time>2019-02-27T09:41:09Z</time>
      </trkpt>
      <trkpt lat="42.74126" lon="0.17916">
        <ele>2193</ele>
        <time>2019-02-27T09:41:10Z</time>
      </trkpt>
      <trkpt lat="42.74126" lon="0.17916">
        <ele>2193</ele>
        <time>2019-02-27T09:41:11Z</time>
      </trkpt>
      <trkpt lat="42.74126" lon="0.17913">
        <ele>2194</ele>
        <time>2019-02-27T09:41:12Z</time>
      </trkpt>
      <trkpt lat="42.74126" lon="0.17913">
        <ele>2194</ele>
        <time>2019-02-27T09:41:13Z</time>
      </trkpt>
      <trkpt lat="42.74126" lon="0.17913">
        <ele>2194</ele>
        <time>2019-02-27T09:41:14Z</time>
      </trkpt>
      <trkpt lat="42.74126" lon="0.17913">
        <ele>2194</ele>
        <time>2019-02-27T09:41:15Z</time>
      </trkpt>
      <trkpt lat="42.74127" lon="0.1791">
        <ele>2194</ele>
        <time>2019-02-27T09:41:16Z</time>
      </trkpt>
      <trkpt lat="42.74127" lon="0.1791">
        <ele>2194</ele>
        <time>2019-02-27T09:41:17Z</time>
      </trkpt>
      <trkpt lat="42.74127" lon="0.1791">
        <ele>2194</ele>
        <time>2019-02-27T09:41:18Z</time>
      </trkpt>
      <trkpt lat="42.74127" lon="0.1791">
        <ele>2195</ele>
        <time>2019-02-27T09:41:19Z</time>
      </trkpt>
      <trkpt lat="42.74127" lon="0.1791">
        <ele>2195</ele>
        <time>2019-02-27T09:41:20Z</time>
      </trkpt>
      <trkpt lat="42.74127" lon="0.17908">
        <ele>2195</ele>
        <time>2019-02-27T09:41:21Z</time>
      </trkpt>
      <trkpt lat="42.74127" lon="0.17908">
        <ele>2196</ele>
        <time>2019-02-27T09:41:22Z</time>
      </trkpt>
      <trkpt lat="42.74127" lon="0.17908">
        <ele>2196</ele>
        <time>2019-02-27T09:41:23Z</time>
      </trkpt>
      <trkpt lat="42.74127" lon="0.17908">
        <ele>2196</ele>
        <time>2019-02-27T09:41:24Z</time>
      </trkpt>
      <trkpt lat="42.74127" lon="0.17908">
        <ele>2196</ele>
        <time>2019-02-27T09:41:25Z</time>
      </trkpt>
      <trkpt lat="42.74127" lon="0.17904">
        <ele>2196</ele>
        <time>2019-02-27T09:41:26Z</time>
      </trkpt>
      <trkpt lat="42.74127" lon="0.17904">
        <ele>2197</ele>
        <time>2019-02-27T09:41:27Z</time>
      </trkpt>
      <trkpt lat="42.74127" lon="0.17904">
        <ele>2197</ele>
        <time>2019-02-27T09:41:28Z</time>
      </trkpt>
      <trkpt lat="42.74127" lon="0.17902">
        <ele>2196</ele>
        <time>2019-02-27T09:41:29Z</time>
      </trkpt>
      <trkpt lat="42.74127" lon="0.17902">
        <ele>2196</ele>
        <time>2019-02-27T09:41:30Z</time>
      </trkpt>
      <trkpt lat="42.74127" lon="0.17902">
        <ele>2197</ele>
        <time>2019-02-27T09:41:31Z</time>
      </trkpt>
      <trkpt lat="42.74127" lon="0.17902">
        <ele>2197</ele>
        <time>2019-02-27T09:41:32Z</time>
      </trkpt>
      <trkpt lat="42.74127" lon="0.17902">
        <ele>2199</ele>
        <time>2019-02-27T09:41:33Z</time>
      </trkpt>
      <trkpt lat="42.74126" lon="0.17899">
        <ele>2199</ele>
        <time>2019-02-27T09:41:34Z</time>
      </trkpt>
      <trkpt lat="42.74126" lon="0.17899">
        <ele>2199</ele>
        <time>2019-02-27T09:41:35Z</time>
      </trkpt>
      <trkpt lat="42.74126" lon="0.17899">
        <ele>2199</ele>
        <time>2019-02-27T09:41:36Z</time>
      </trkpt>
      <trkpt lat="42.74126" lon="0.17899">
        <ele>2199</ele>
        <time>2019-02-27T09:41:37Z</time>
      </trkpt>
      <trkpt lat="42.74126" lon="0.17899">
        <ele>2200</ele>
        <time>2019-02-27T09:41:38Z</time>
      </trkpt>
      <trkpt lat="42.74125" lon="0.17897">
        <ele>2200</ele>
        <time>2019-02-27T09:41:39Z</time>
      </trkpt>
      <trkpt lat="42.74125" lon="0.17897">
        <ele>2200</ele>
        <time>2019-02-27T09:41:40Z</time>
      </trkpt>
      <trkpt lat="42.74125" lon="0.17897">
        <ele>2200</ele>
        <time>2019-02-27T09:41:41Z</time>
      </trkpt>
      <trkpt lat="42.74125" lon="0.17897">
        <ele>2200</ele>
        <time>2019-02-27T09:41:42Z</time>
      </trkpt>
      <trkpt lat="42.74123" lon="0.17895">
        <ele>2200</ele>
        <time>2019-02-27T09:41:43Z</time>
      </trkpt>
      <trkpt lat="42.74123" lon="0.17895">
        <ele>2201</ele>
        <time>2019-02-27T09:41:44Z</time>
      </trkpt>
      <trkpt lat="42.74123" lon="0.17895">
        <ele>2201</ele>
        <time>2019-02-27T09:41:45Z</time>
      </trkpt>
      <trkpt lat="42.74123" lon="0.17895">
        <ele>2201</ele>
        <time>2019-02-27T09:41:46Z</time>
      </trkpt>
      <trkpt lat="42.74122" lon="0.17894">
        <ele>2202</ele>
        <time>2019-02-27T09:41:47Z</time>
      </trkpt>
      <trkpt lat="42.74122" lon="0.17894">
        <ele>2202</ele>
        <time>2019-02-27T09:41:48Z</time>
      </trkpt>
      <trkpt lat="42.74122" lon="0.17894">
        <ele>2202</ele>
        <time>2019-02-27T09:41:49Z</time>
      </trkpt>
      <trkpt lat="42.74122" lon="0.17894">
        <ele>2202</ele>
        <time>2019-02-27T09:41:50Z</time>
      </trkpt>
      <trkpt lat="42.7412" lon="0.17893">
        <ele>2202</ele>
        <time>2019-02-27T09:41:51Z</time>
      </trkpt>
      <trkpt lat="42.7412" lon="0.17893">
        <ele>2202</ele>
        <time>2019-02-27T09:41:52Z</time>
      </trkpt>
      <trkpt lat="42.7412" lon="0.17893">
        <ele>2202</ele>
        <time>2019-02-27T09:41:53Z</time>
      </trkpt>
      <trkpt lat="42.7412" lon="0.17893">
        <ele>2202</ele>
        <time>2019-02-27T09:41:54Z</time>
      </trkpt>
      <trkpt lat="42.74118" lon="0.17891">
        <ele>2203</ele>
        <time>2019-02-27T09:41:55Z</time>
      </trkpt>
      <trkpt lat="42.74118" lon="0.17891">
        <ele>2203</ele>
        <time>2019-02-27T09:41:56Z</time>
      </trkpt>
      <trkpt lat="42.74118" lon="0.17891">
        <ele>2203</ele>
        <time>2019-02-27T09:41:57Z</time>
      </trkpt>
      <trkpt lat="42.74118" lon="0.17891">
        <ele>2203</ele>
        <time>2019-02-27T09:41:58Z</time>
      </trkpt>
      <trkpt lat="42.74118" lon="0.17891">
        <ele>2204</ele>
        <time>2019-02-27T09:41:59Z</time>
      </trkpt>
      <trkpt lat="42.74116" lon="0.17891">
        <ele>2204</ele>
        <time>2019-02-27T09:42:00Z</time>
      </trkpt>
      <trkpt lat="42.74116" lon="0.17891">
        <ele>2204</ele>
        <time>2019-02-27T09:42:01Z</time>
      </trkpt>
      <trkpt lat="42.74116" lon="0.17891">
        <ele>2204</ele>
        <time>2019-02-27T09:42:02Z</time>
      </trkpt>
      <trkpt lat="42.74116" lon="0.17891">
        <ele>2205</ele>
        <time>2019-02-27T09:42:03Z</time>
      </trkpt>
      <trkpt lat="42.74114" lon="0.1789">
        <ele>2205</ele>
        <time>2019-02-27T09:42:04Z</time>
      </trkpt>
      <trkpt lat="42.74114" lon="0.1789">
        <ele>2205</ele>
        <time>2019-02-27T09:42:05Z</time>
      </trkpt>
      <trkpt lat="42.74114" lon="0.1789">
        <ele>2205</ele>
        <time>2019-02-27T09:42:06Z</time>
      </trkpt>
      <trkpt lat="42.74114" lon="0.1789">
        <ele>2205</ele>
        <time>2019-02-27T09:42:07Z</time>
      </trkpt>
      <trkpt lat="42.74112" lon="0.17889">
        <ele>2205</ele>
        <time>2019-02-27T09:42:08Z</time>
      </trkpt>
      <trkpt lat="42.74112" lon="0.17889">
        <ele>2205</ele>
        <time>2019-02-27T09:42:09Z</time>
      </trkpt>
      <trkpt lat="42.74112" lon="0.17889">
        <ele>2205</ele>
        <time>2019-02-27T09:42:10Z</time>
      </trkpt>
      <trkpt lat="42.74112" lon="0.17889">
        <ele>2205</ele>
        <time>2019-02-27T09:42:11Z</time>
      </trkpt>
      <trkpt lat="42.7411" lon="0.17889">
        <ele>2206</ele>
        <time>2019-02-27T09:42:12Z</time>
      </trkpt>
      <trkpt lat="42.7411" lon="0.17889">
        <ele>2206</ele>
        <time>2019-02-27T09:42:13Z</time>
      </trkpt>
      <trkpt lat="42.7411" lon="0.17889">
        <ele>2206</ele>
        <time>2019-02-27T09:42:14Z</time>
      </trkpt>
      <trkpt lat="42.7411" lon="0.17889">
        <ele>2206</ele>
        <time>2019-02-27T09:42:15Z</time>
      </trkpt>
      <trkpt lat="42.74109" lon="0.17887">
        <ele>2206</ele>
        <time>2019-02-27T09:42:16Z</time>
      </trkpt>
      <trkpt lat="42.74109" lon="0.17887">
        <ele>2207</ele>
        <time>2019-02-27T09:42:17Z</time>
      </trkpt>
      <trkpt lat="42.74109" lon="0.17887">
        <ele>2207</ele>
        <time>2019-02-27T09:42:18Z</time>
      </trkpt>
      <trkpt lat="42.74109" lon="0.17887">
        <ele>2207</ele>
        <time>2019-02-27T09:42:19Z</time>
      </trkpt>
      <trkpt lat="42.74109" lon="0.17884">
        <ele>2207</ele>
        <time>2019-02-27T09:42:20Z</time>
      </trkpt>
      <trkpt lat="42.74109" lon="0.17884">
        <ele>2207</ele>
        <time>2019-02-27T09:42:21Z</time>
      </trkpt>
      <trkpt lat="42.74109" lon="0.17884">
        <ele>2207</ele>
        <time>2019-02-27T09:42:22Z</time>
      </trkpt>
      <trkpt lat="42.74109" lon="0.17884">
        <ele>2208</ele>
        <time>2019-02-27T09:42:23Z</time>
      </trkpt>
      <trkpt lat="42.74109" lon="0.17884">
        <ele>2208</ele>
        <time>2019-02-27T09:42:24Z</time>
      </trkpt>
      <trkpt lat="42.74109" lon="0.17884">
        <ele>2207</ele>
        <time>2019-02-27T09:42:25Z</time>
      </trkpt>
      <trkpt lat="42.74109" lon="0.17884">
        <ele>2207</ele>
        <time>2019-02-27T09:42:26Z</time>
      </trkpt>
      <trkpt lat="42.74109" lon="0.17884">
        <ele>2207</ele>
        <time>2019-02-27T09:42:27Z</time>
      </trkpt>
      <trkpt lat="42.74109" lon="0.17884">
        <ele>2208</ele>
        <time>2019-02-27T09:42:28Z</time>
      </trkpt>
      <trkpt lat="42.74109" lon="0.17884">
        <ele>2208</ele>
        <time>2019-02-27T09:42:29Z</time>
      </trkpt>
      <trkpt lat="42.74109" lon="0.17884">
        <ele>2208</ele>
        <time>2019-02-27T09:42:30Z</time>
      </trkpt>
      <trkpt lat="42.74109" lon="0.17884">
        <ele>2208</ele>
        <time>2019-02-27T09:42:31Z</time>
      </trkpt>
      <trkpt lat="42.74109" lon="0.17884">
        <ele>2208</ele>
        <time>2019-02-27T09:42:32Z</time>
      </trkpt>
      <trkpt lat="42.74109" lon="0.17884">
        <ele>2208</ele>
        <time>2019-02-27T09:42:33Z</time>
      </trkpt>
      <trkpt lat="42.74109" lon="0.17884">
        <ele>2208</ele>
        <time>2019-02-27T09:42:34Z</time>
      </trkpt>
      <trkpt lat="42.74109" lon="0.17884">
        <ele>2208</ele>
        <time>2019-02-27T09:42:35Z</time>
      </trkpt>
      <trkpt lat="42.74109" lon="0.17884">
        <ele>2208</ele>
        <time>2019-02-27T09:42:36Z</time>
      </trkpt>
      <trkpt lat="42.7411" lon="0.17882">
        <ele>2208</ele>
        <time>2019-02-27T09:42:37Z</time>
      </trkpt>
      <trkpt lat="42.7411" lon="0.17882">
        <ele>2208</ele>
        <time>2019-02-27T09:42:38Z</time>
      </trkpt>
      <trkpt lat="42.7411" lon="0.17882">
        <ele>2208</ele>
        <time>2019-02-27T09:42:39Z</time>
      </trkpt>
      <trkpt lat="42.74111" lon="0.1788">
        <ele>2208</ele>
        <time>2019-02-27T09:42:40Z</time>
      </trkpt>
      <trkpt lat="42.74111" lon="0.1788">
        <ele>2208</ele>
        <time>2019-02-27T09:42:41Z</time>
      </trkpt>
      <trkpt lat="42.74111" lon="0.1788">
        <ele>2208</ele>
        <time>2019-02-27T09:42:42Z</time>
      </trkpt>
      <trkpt lat="42.74112" lon="0.17877">
        <ele>2208</ele>
        <time>2019-02-27T09:42:43Z</time>
      </trkpt>
      <trkpt lat="42.74112" lon="0.17877">
        <ele>2208</ele>
        <time>2019-02-27T09:42:44Z</time>
      </trkpt>
      <trkpt lat="42.74112" lon="0.17877">
        <ele>2208</ele>
        <time>2019-02-27T09:42:45Z</time>
      </trkpt>
      <trkpt lat="42.74113" lon="0.17875">
        <ele>2208</ele>
        <time>2019-02-27T09:42:46Z</time>
      </trkpt>
      <trkpt lat="42.74113" lon="0.17875">
        <ele>2208</ele>
        <time>2019-02-27T09:42:47Z</time>
      </trkpt>
      <trkpt lat="42.74113" lon="0.17875">
        <ele>2208</ele>
        <time>2019-02-27T09:42:48Z</time>
      </trkpt>
      <trkpt lat="42.74115" lon="0.17872">
        <ele>2209</ele>
        <time>2019-02-27T09:42:49Z</time>
      </trkpt>
      <trkpt lat="42.74115" lon="0.17872">
        <ele>2209</ele>
        <time>2019-02-27T09:42:50Z</time>
      </trkpt>
      <trkpt lat="42.74115" lon="0.17872">
        <ele>2209</ele>
        <time>2019-02-27T09:42:51Z</time>
      </trkpt>
      <trkpt lat="42.74116" lon="0.1787">
        <ele>2209</ele>
        <time>2019-02-27T09:42:52Z</time>
      </trkpt>
      <trkpt lat="42.74116" lon="0.1787">
        <ele>2209</ele>
        <time>2019-02-27T09:42:53Z</time>
      </trkpt>
      <trkpt lat="42.74116" lon="0.1787">
        <ele>2210</ele>
        <time>2019-02-27T09:42:54Z</time>
      </trkpt>
      <trkpt lat="42.74116" lon="0.1787">
        <ele>2210</ele>
        <time>2019-02-27T09:42:55Z</time>
      </trkpt>
      <trkpt lat="42.74117" lon="0.17868">
        <ele>2210</ele>
        <time>2019-02-27T09:42:56Z</time>
      </trkpt>
      <trkpt lat="42.74117" lon="0.17868">
        <ele>2210</ele>
        <time>2019-02-27T09:42:57Z</time>
      </trkpt>
      <trkpt lat="42.74117" lon="0.17868">
        <ele>2210</ele>
        <time>2019-02-27T09:42:58Z</time>
      </trkpt>
      <trkpt lat="42.74117" lon="0.17868">
        <ele>2210</ele>
        <time>2019-02-27T09:42:59Z</time>
      </trkpt>
      <trkpt lat="42.74118" lon="0.17865">
        <ele>2210</ele>
        <time>2019-02-27T09:43:00Z</time>
      </trkpt>
      <trkpt lat="42.74118" lon="0.17865">
        <ele>2211</ele>
        <time>2019-02-27T09:43:01Z</time>
      </trkpt>
      <trkpt lat="42.74118" lon="0.17865">
        <ele>2211</ele>
        <time>2019-02-27T09:43:02Z</time>
      </trkpt>
      <trkpt lat="42.74119" lon="0.17863">
        <ele>2211</ele>
        <time>2019-02-27T09:43:03Z</time>
      </trkpt>
      <trkpt lat="42.74119" lon="0.17863">
        <ele>2211</ele>
        <time>2019-02-27T09:43:04Z</time>
      </trkpt>
      <trkpt lat="42.74119" lon="0.17863">
        <ele>2211</ele>
        <time>2019-02-27T09:43:05Z</time>
      </trkpt>
      <trkpt lat="42.7412" lon="0.1786">
        <ele>2211</ele>
        <time>2019-02-27T09:43:06Z</time>
      </trkpt>
      <trkpt lat="42.7412" lon="0.1786">
        <ele>2211</ele>
        <time>2019-02-27T09:43:07Z</time>
      </trkpt>
      <trkpt lat="42.7412" lon="0.1786">
        <ele>2211</ele>
        <time>2019-02-27T09:43:08Z</time>
      </trkpt>
      <trkpt lat="42.74122" lon="0.17858">
        <ele>2212</ele>
        <time>2019-02-27T09:43:09Z</time>
      </trkpt>
      <trkpt lat="42.74122" lon="0.17858">
        <ele>2212</ele>
        <time>2019-02-27T09:43:10Z</time>
      </trkpt>
      <trkpt lat="42.74122" lon="0.17858">
        <ele>2212</ele>
        <time>2019-02-27T09:43:11Z</time>
      </trkpt>
      <trkpt lat="42.74124" lon="0.17857">
        <ele>2212</ele>
        <time>2019-02-27T09:43:12Z</time>
      </trkpt>
      <trkpt lat="42.74124" lon="0.17857">
        <ele>2212</ele>
        <time>2019-02-27T09:43:13Z</time>
      </trkpt>
      <trkpt lat="42.74124" lon="0.17857">
        <ele>2212</ele>
        <time>2019-02-27T09:43:14Z</time>
      </trkpt>
      <trkpt lat="42.74125" lon="0.17855">
        <ele>2212</ele>
        <time>2019-02-27T09:43:15Z</time>
      </trkpt>
      <trkpt lat="42.74125" lon="0.17855">
        <ele>2212</ele>
        <time>2019-02-27T09:43:16Z</time>
      </trkpt>
      <trkpt lat="42.74125" lon="0.17855">
        <ele>2212</ele>
        <time>2019-02-27T09:43:17Z</time>
      </trkpt>
      <trkpt lat="42.74127" lon="0.17853">
        <ele>2212</ele>
        <time>2019-02-27T09:43:18Z</time>
      </trkpt>
      <trkpt lat="42.74127" lon="0.17853">
        <ele>2213</ele>
        <time>2019-02-27T09:43:19Z</time>
      </trkpt>
      <trkpt lat="42.74127" lon="0.17853">
        <ele>2213</ele>
        <time>2019-02-27T09:43:20Z</time>
      </trkpt>
      <trkpt lat="42.74129" lon="0.17852">
        <ele>2213</ele>
        <time>2019-02-27T09:43:21Z</time>
      </trkpt>
      <trkpt lat="42.74129" lon="0.17852">
        <ele>2213</ele>
        <time>2019-02-27T09:43:22Z</time>
      </trkpt>
      <trkpt lat="42.74129" lon="0.17852">
        <ele>2213</ele>
        <time>2019-02-27T09:43:23Z</time>
      </trkpt>
      <trkpt lat="42.74131" lon="0.1785">
        <ele>2214</ele>
        <time>2019-02-27T09:43:24Z</time>
      </trkpt>
      <trkpt lat="42.74131" lon="0.1785">
        <ele>2214</ele>
        <time>2019-02-27T09:43:25Z</time>
      </trkpt>
      <trkpt lat="42.74131" lon="0.1785">
        <ele>2214</ele>
        <time>2019-02-27T09:43:26Z</time>
      </trkpt>
      <trkpt lat="42.74133" lon="0.17849">
        <ele>2214</ele>
        <time>2019-02-27T09:43:27Z</time>
      </trkpt>
      <trkpt lat="42.74133" lon="0.17849">
        <ele>2214</ele>
        <time>2019-02-27T09:43:28Z</time>
      </trkpt>
      <trkpt lat="42.74133" lon="0.17849">
        <ele>2214</ele>
        <time>2019-02-27T09:43:29Z</time>
      </trkpt>
      <trkpt lat="42.74133" lon="0.17849">
        <ele>2214</ele>
        <time>2019-02-27T09:43:30Z</time>
      </trkpt>
      <trkpt lat="42.74133" lon="0.17849">
        <ele>2214</ele>
        <time>2019-02-27T09:43:31Z</time>
      </trkpt>
      <trkpt lat="42.74133" lon="0.17849">
        <ele>2214</ele>
        <time>2019-02-27T09:43:32Z</time>
      </trkpt>
      <trkpt lat="42.74133" lon="0.17849">
        <ele>2214</ele>
        <time>2019-02-27T09:43:33Z</time>
      </trkpt>
      <trkpt lat="42.74133" lon="0.17849">
        <ele>2214</ele>
        <time>2019-02-27T09:43:34Z</time>
      </trkpt>
      <trkpt lat="42.74133" lon="0.17849">
        <ele>2214</ele>
        <time>2019-02-27T09:43:35Z</time>
      </trkpt>
      <trkpt lat="42.74133" lon="0.17849">
        <ele>2214</ele>
        <time>2019-02-27T09:43:36Z</time>
      </trkpt>
      <trkpt lat="42.74133" lon="0.17849">
        <ele>2214</ele>
        <time>2019-02-27T09:43:37Z</time>
      </trkpt>
      <trkpt lat="42.74133" lon="0.17849">
        <ele>2214</ele>
        <time>2019-02-27T09:43:38Z</time>
      </trkpt>
      <trkpt lat="42.74133" lon="0.17849">
        <ele>2214</ele>
        <time>2019-02-27T09:43:39Z</time>
      </trkpt>
      <trkpt lat="42.74133" lon="0.17849">
        <ele>2214</ele>
        <time>2019-02-27T09:43:40Z</time>
      </trkpt>
      <trkpt lat="42.74133" lon="0.17849">
        <ele>2214</ele>
        <time>2019-02-27T09:43:41Z</time>
      </trkpt>
      <trkpt lat="42.74133" lon="0.17849">
        <ele>2214</ele>
        <time>2019-02-27T09:43:42Z</time>
      </trkpt>
      <trkpt lat="42.74133" lon="0.17849">
        <ele>2214</ele>
        <time>2019-02-27T09:43:43Z</time>
      </trkpt>
      <trkpt lat="42.74133" lon="0.17849">
        <ele>2214</ele>
        <time>2019-02-27T09:43:44Z</time>
      </trkpt>
      <trkpt lat="42.74133" lon="0.17849">
        <ele>2214</ele>
        <time>2019-02-27T09:43:45Z</time>
      </trkpt>
      <trkpt lat="42.74133" lon="0.17849">
        <ele>2214</ele>
        <time>2019-02-27T09:43:46Z</time>
      </trkpt>
      <trkpt lat="42.74133" lon="0.17849">
        <ele>2214</ele>
        <time>2019-02-27T09:43:47Z</time>
      </trkpt>
      <trkpt lat="42.74135" lon="0.17848">
        <ele>2214</ele>
        <time>2019-02-27T09:43:48Z</time>
      </trkpt>
      <trkpt lat="42.74135" lon="0.17848">
        <ele>2214</ele>
        <time>2019-02-27T09:43:49Z</time>
      </trkpt>
      <trkpt lat="42.74135" lon="0.17848">
        <ele>2214</ele>
        <time>2019-02-27T09:43:50Z</time>
      </trkpt>
      <trkpt lat="42.74137" lon="0.17847">
        <ele>2214</ele>
        <time>2019-02-27T09:43:51Z</time>
      </trkpt>
      <trkpt lat="42.74137" lon="0.17847">
        <ele>2215</ele>
        <time>2019-02-27T09:43:52Z</time>
      </trkpt>
      <trkpt lat="42.74137" lon="0.17847">
        <ele>2215</ele>
        <time>2019-02-27T09:43:53Z</time>
      </trkpt>
      <trkpt lat="42.74138" lon="0.17845">
        <ele>2215</ele>
        <time>2019-02-27T09:43:54Z</time>
      </trkpt>
      <trkpt lat="42.74138" lon="0.17845">
        <ele>2216</ele>
        <time>2019-02-27T09:43:55Z</time>
      </trkpt>
      <trkpt lat="42.74138" lon="0.17845">
        <ele>2216</ele>
        <time>2019-02-27T09:43:56Z</time>
      </trkpt>
      <trkpt lat="42.7414" lon="0.17843">
        <ele>2216</ele>
        <time>2019-02-27T09:43:57Z</time>
      </trkpt>
      <trkpt lat="42.7414" lon="0.17843">
        <ele>2216</ele>
        <time>2019-02-27T09:43:58Z</time>
      </trkpt>
      <trkpt lat="42.7414" lon="0.17843">
        <ele>2216</ele>
        <time>2019-02-27T09:43:59Z</time>
      </trkpt>
      <trkpt lat="42.74142" lon="0.17842">
        <ele>2216</ele>
        <time>2019-02-27T09:44:00Z</time>
      </trkpt>
      <trkpt lat="42.74142" lon="0.17842">
        <ele>2217</ele>
        <time>2019-02-27T09:44:01Z</time>
      </trkpt>
      <trkpt lat="42.74142" lon="0.17842">
        <ele>2217</ele>
        <time>2019-02-27T09:44:02Z</time>
      </trkpt>
      <trkpt lat="42.74144" lon="0.17841">
        <ele>2217</ele>
        <time>2019-02-27T09:44:03Z</time>
      </trkpt>
      <trkpt lat="42.74144" lon="0.17841">
        <ele>2217</ele>
        <time>2019-02-27T09:44:04Z</time>
      </trkpt>
      <trkpt lat="42.74144" lon="0.17841">
        <ele>2217</ele>
        <time>2019-02-27T09:44:05Z</time>
      </trkpt>
      <trkpt lat="42.74144" lon="0.17841">
        <ele>2217</ele>
        <time>2019-02-27T09:44:06Z</time>
      </trkpt>
      <trkpt lat="42.74144" lon="0.17841">
        <ele>2217</ele>
        <time>2019-02-27T09:44:07Z</time>
      </trkpt>
      <trkpt lat="42.74144" lon="0.17841">
        <ele>2217</ele>
        <time>2019-02-27T09:44:08Z</time>
      </trkpt>
      <trkpt lat="42.74144" lon="0.17841">
        <ele>2217</ele>
        <time>2019-02-27T09:44:09Z</time>
      </trkpt>
      <trkpt lat="42.74144" lon="0.17841">
        <ele>2217</ele>
        <time>2019-02-27T09:44:10Z</time>
      </trkpt>
      <trkpt lat="42.74144" lon="0.17841">
        <ele>2217</ele>
        <time>2019-02-27T09:44:11Z</time>
      </trkpt>
      <trkpt lat="42.74144" lon="0.17841">
        <ele>2217</ele>
        <time>2019-02-27T09:44:12Z</time>
      </trkpt>
      <trkpt lat="42.74144" lon="0.17841">
        <ele>2217</ele>
        <time>2019-02-27T09:44:13Z</time>
      </trkpt>
      <trkpt lat="42.74144" lon="0.17841">
        <ele>2217</ele>
        <time>2019-02-27T09:44:14Z</time>
      </trkpt>
      <trkpt lat="42.74144" lon="0.17841">
        <ele>2217</ele>
        <time>2019-02-27T09:44:15Z</time>
      </trkpt>
      <trkpt lat="42.74144" lon="0.17841">
        <ele>2217</ele>
        <time>2019-02-27T09:44:16Z</time>
      </trkpt>
      <trkpt lat="42.74144" lon="0.17841">
        <ele>2217</ele>
        <time>2019-02-27T09:44:17Z</time>
      </trkpt>
      <trkpt lat="42.74144" lon="0.17841">
        <ele>2216</ele>
        <time>2019-02-27T09:44:18Z</time>
      </trkpt>
      <trkpt lat="42.74144" lon="0.17841">
        <ele>2216</ele>
        <time>2019-02-27T09:44:19Z</time>
      </trkpt>
      <trkpt lat="42.74144" lon="0.17841">
        <ele>2216</ele>
        <time>2019-02-27T09:44:20Z</time>
      </trkpt>
      <trkpt lat="42.74144" lon="0.17841">
        <ele>2216</ele>
        <time>2019-02-27T09:44:21Z</time>
      </trkpt>
      <trkpt lat="42.74145" lon="0.17839">
        <ele>2216</ele>
        <time>2019-02-27T09:44:22Z</time>
      </trkpt>
      <trkpt lat="42.74145" lon="0.17839">
        <ele>2216</ele>
        <time>2019-02-27T09:44:23Z</time>
      </trkpt>
      <trkpt lat="42.74145" lon="0.17839">
        <ele>2216</ele>
        <time>2019-02-27T09:44:24Z</time>
      </trkpt>
      <trkpt lat="42.74145" lon="0.17839">
        <ele>2216</ele>
        <time>2019-02-27T09:44:25Z</time>
      </trkpt>
      <trkpt lat="42.74145" lon="0.17839">
        <ele>2216</ele>
        <time>2019-02-27T09:44:26Z</time>
      </trkpt>
      <trkpt lat="42.74145" lon="0.17839">
        <ele>2216</ele>
        <time>2019-02-27T09:44:27Z</time>
      </trkpt>
      <trkpt lat="42.74145" lon="0.17839">
        <ele>2216</ele>
        <time>2019-02-27T09:44:28Z</time>
      </trkpt>
      <trkpt lat="42.74145" lon="0.17839">
        <ele>2216</ele>
        <time>2019-02-27T09:44:29Z</time>
      </trkpt>
      <trkpt lat="42.74145" lon="0.17839">
        <ele>2217</ele>
        <time>2019-02-27T09:44:30Z</time>
      </trkpt>
      <trkpt lat="42.74145" lon="0.17839">
        <ele>2217</ele>
        <time>2019-02-27T09:44:31Z</time>
      </trkpt>
      <trkpt lat="42.74145" lon="0.17839">
        <ele>2217</ele>
        <time>2019-02-27T09:44:32Z</time>
      </trkpt>
      <trkpt lat="42.74145" lon="0.17839">
        <ele>2217</ele>
        <time>2019-02-27T09:44:33Z</time>
      </trkpt>
      <trkpt lat="42.74145" lon="0.17839">
        <ele>2217</ele>
        <time>2019-02-27T09:44:34Z</time>
      </trkpt>
      <trkpt lat="42.74145" lon="0.17839">
        <ele>2217</ele>
        <time>2019-02-27T09:44:35Z</time>
      </trkpt>
      <trkpt lat="42.74145" lon="0.17839">
        <ele>2217</ele>
        <time>2019-02-27T09:44:36Z</time>
      </trkpt>
      <trkpt lat="42.74145" lon="0.17839">
        <ele>2217</ele>
        <time>2019-02-27T09:44:37Z</time>
      </trkpt>
      <trkpt lat="42.74145" lon="0.17839">
        <ele>2217</ele>
        <time>2019-02-27T09:44:38Z</time>
      </trkpt>
      <trkpt lat="42.74145" lon="0.17839">
        <ele>2217</ele>
        <time>2019-02-27T09:44:39Z</time>
      </trkpt>
      <trkpt lat="42.74145" lon="0.17839">
        <ele>2217</ele>
        <time>2019-02-27T09:44:40Z</time>
      </trkpt>
      <trkpt lat="42.74145" lon="0.17839">
        <ele>2217</ele>
        <time>2019-02-27T09:44:41Z</time>
      </trkpt>
      <trkpt lat="42.74145" lon="0.17839">
        <ele>2217</ele>
        <time>2019-02-27T09:44:42Z</time>
      </trkpt>
      <trkpt lat="42.74145" lon="0.17839">
        <ele>2217</ele>
        <time>2019-02-27T09:44:43Z</time>
      </trkpt>
      <trkpt lat="42.74145" lon="0.17839">
        <ele>2217</ele>
        <time>2019-02-27T09:44:44Z</time>
      </trkpt>
      <trkpt lat="42.74145" lon="0.17839">
        <ele>2217</ele>
        <time>2019-02-27T09:44:45Z</time>
      </trkpt>
      <trkpt lat="42.74145" lon="0.17839">
        <ele>2217</ele>
        <time>2019-02-27T09:44:46Z</time>
      </trkpt>
      <trkpt lat="42.74145" lon="0.17839">
        <ele>2217</ele>
        <time>2019-02-27T09:44:47Z</time>
      </trkpt>
      <trkpt lat="42.74145" lon="0.17839">
        <ele>2217</ele>
        <time>2019-02-27T09:44:48Z</time>
      </trkpt>
      <trkpt lat="42.74145" lon="0.17839">
        <ele>2217</ele>
        <time>2019-02-27T09:44:49Z</time>
      </trkpt>
      <trkpt lat="42.74145" lon="0.17839">
        <ele>2217</ele>
        <time>2019-02-27T09:44:50Z</time>
      </trkpt>
      <trkpt lat="42.74145" lon="0.17839">
        <ele>2217</ele>
        <time>2019-02-27T09:44:51Z</time>
      </trkpt>
      <trkpt lat="42.74145" lon="0.17839">
        <ele>2217</ele>
        <time>2019-02-27T09:44:52Z</time>
      </trkpt>
      <trkpt lat="42.74145" lon="0.17839">
        <ele>2217</ele>
        <time>2019-02-27T09:44:53Z</time>
      </trkpt>
      <trkpt lat="42.74145" lon="0.17839">
        <ele>2217</ele>
        <time>2019-02-27T09:44:54Z</time>
      </trkpt>
      <trkpt lat="42.74145" lon="0.17839">
        <ele>2217</ele>
        <time>2019-02-27T09:44:55Z</time>
      </trkpt>
      <trkpt lat="42.74145" lon="0.17839">
        <ele>2217</ele>
        <time>2019-02-27T09:44:56Z</time>
      </trkpt>
      <trkpt lat="42.74145" lon="0.17839">
        <ele>2217</ele>
        <time>2019-02-27T09:44:57Z</time>
      </trkpt>
      <trkpt lat="42.74145" lon="0.17839">
        <ele>2217</ele>
        <time>2019-02-27T09:44:58Z</time>
      </trkpt>
      <trkpt lat="42.74145" lon="0.17839">
        <ele>2217</ele>
        <time>2019-02-27T09:44:59Z</time>
      </trkpt>
      <trkpt lat="42.74145" lon="0.17839">
        <ele>2217</ele>
        <time>2019-02-27T09:45:00Z</time>
      </trkpt>
      <trkpt lat="42.74145" lon="0.17839">
        <ele>2217</ele>
        <time>2019-02-27T09:45:01Z</time>
      </trkpt>
      <trkpt lat="42.74145" lon="0.17839">
        <ele>2217</ele>
        <time>2019-02-27T09:45:02Z</time>
      </trkpt>
      <trkpt lat="42.74145" lon="0.17839">
        <ele>2217</ele>
        <time>2019-02-27T09:45:03Z</time>
      </trkpt>
      <trkpt lat="42.74145" lon="0.17839">
        <ele>2217</ele>
        <time>2019-02-27T09:45:04Z</time>
      </trkpt>
      <trkpt lat="42.74145" lon="0.17839">
        <ele>2217</ele>
        <time>2019-02-27T09:45:05Z</time>
      </trkpt>
      <trkpt lat="42.74145" lon="0.17839">
        <ele>2217</ele>
        <time>2019-02-27T09:45:06Z</time>
      </trkpt>
      <trkpt lat="42.74145" lon="0.17839">
        <ele>2217</ele>
        <time>2019-02-27T09:45:07Z</time>
      </trkpt>
      <trkpt lat="42.74145" lon="0.17839">
        <ele>2217</ele>
        <time>2019-02-27T09:45:08Z</time>
      </trkpt>
      <trkpt lat="42.74145" lon="0.17839">
        <ele>2217</ele>
        <time>2019-02-27T09:45:09Z</time>
      </trkpt>
      <trkpt lat="42.74145" lon="0.17839">
        <ele>2217</ele>
        <time>2019-02-27T09:45:10Z</time>
      </trkpt>
      <trkpt lat="42.74145" lon="0.17839">
        <ele>2217</ele>
        <time>2019-02-27T09:45:11Z</time>
      </trkpt>
      <trkpt lat="42.74145" lon="0.17839">
        <ele>2217</ele>
        <time>2019-02-27T09:45:12Z</time>
      </trkpt>
      <trkpt lat="42.74145" lon="0.17839">
        <ele>2217</ele>
        <time>2019-02-27T09:45:13Z</time>
      </trkpt>
      <trkpt lat="42.74145" lon="0.17839">
        <ele>2217</ele>
        <time>2019-02-27T09:45:14Z</time>
      </trkpt>
      <trkpt lat="42.74145" lon="0.17839">
        <ele>2217</ele>
        <time>2019-02-27T09:45:15Z</time>
      </trkpt>
      <trkpt lat="42.74145" lon="0.17839">
        <ele>2218</ele>
        <time>2019-02-27T09:45:16Z</time>
      </trkpt>
      <trkpt lat="42.74145" lon="0.17839">
        <ele>2218</ele>
        <time>2019-02-27T09:45:17Z</time>
      </trkpt>
      <trkpt lat="42.74145" lon="0.17839">
        <ele>2218</ele>
        <time>2019-02-27T09:45:18Z</time>
      </trkpt>
      <trkpt lat="42.74145" lon="0.17839">
        <ele>2218</ele>
        <time>2019-02-27T09:45:19Z</time>
      </trkpt>
      <trkpt lat="42.74145" lon="0.17839">
        <ele>2218</ele>
        <time>2019-02-27T09:45:20Z</time>
      </trkpt>
      <trkpt lat="42.74145" lon="0.17839">
        <ele>2218</ele>
        <time>2019-02-27T09:45:21Z</time>
      </trkpt>
      <trkpt lat="42.74145" lon="0.17839">
        <ele>2218</ele>
        <time>2019-02-27T09:45:22Z</time>
      </trkpt>
      <trkpt lat="42.74145" lon="0.17839">
        <ele>2218</ele>
        <time>2019-02-27T09:45:23Z</time>
      </trkpt>
      <trkpt lat="42.74145" lon="0.17839">
        <ele>2218</ele>
        <time>2019-02-27T09:45:24Z</time>
      </trkpt>
      <trkpt lat="42.74145" lon="0.17839">
        <ele>2217</ele>
        <time>2019-02-27T09:45:25Z</time>
      </trkpt>
      <trkpt lat="42.74145" lon="0.17839">
        <ele>2217</ele>
        <time>2019-02-27T09:45:26Z</time>
      </trkpt>
      <trkpt lat="42.74145" lon="0.17839">
        <ele>2218</ele>
        <time>2019-02-27T09:45:27Z</time>
      </trkpt>
      <trkpt lat="42.74145" lon="0.17839">
        <ele>2218</ele>
        <time>2019-02-27T09:45:28Z</time>
      </trkpt>
      <trkpt lat="42.74145" lon="0.17839">
        <ele>2218</ele>
        <time>2019-02-27T09:45:29Z</time>
      </trkpt>
      <trkpt lat="42.74145" lon="0.17839">
        <ele>2218</ele>
        <time>2019-02-27T09:45:30Z</time>
      </trkpt>
      <trkpt lat="42.74145" lon="0.17839">
        <ele>2218</ele>
        <time>2019-02-27T09:45:31Z</time>
      </trkpt>
      <trkpt lat="42.74145" lon="0.17839">
        <ele>2218</ele>
        <time>2019-02-27T09:45:32Z</time>
      </trkpt>
      <trkpt lat="42.74145" lon="0.17839">
        <ele>2218</ele>
        <time>2019-02-27T09:45:33Z</time>
      </trkpt>
      <trkpt lat="42.74145" lon="0.17839">
        <ele>2218</ele>
        <time>2019-02-27T09:45:34Z</time>
      </trkpt>
      <trkpt lat="42.74145" lon="0.17839">
        <ele>2218</ele>
        <time>2019-02-27T09:45:35Z</time>
      </trkpt>
      <trkpt lat="42.74145" lon="0.17839">
        <ele>2218</ele>
        <time>2019-02-27T09:45:36Z</time>
      </trkpt>
      <trkpt lat="42.74145" lon="0.17839">
        <ele>2218</ele>
        <time>2019-02-27T09:45:37Z</time>
      </trkpt>
      <trkpt lat="42.74145" lon="0.17839">
        <ele>2218</ele>
        <time>2019-02-27T09:45:38Z</time>
      </trkpt>
      <trkpt lat="42.74145" lon="0.17839">
        <ele>2218</ele>
        <time>2019-02-27T09:45:39Z</time>
      </trkpt>
      <trkpt lat="42.74145" lon="0.17839">
        <ele>2217</ele>
        <time>2019-02-27T09:45:40Z</time>
      </trkpt>
      <trkpt lat="42.74145" lon="0.17839">
        <ele>2217</ele>
        <time>2019-02-27T09:45:41Z</time>
      </trkpt>
      <trkpt lat="42.74145" lon="0.17839">
        <ele>2217</ele>
        <time>2019-02-27T09:45:42Z</time>
      </trkpt>
      <trkpt lat="42.74145" lon="0.17839">
        <ele>2217</ele>
        <time>2019-02-27T09:45:43Z</time>
      </trkpt>
      <trkpt lat="42.74145" lon="0.17839">
        <ele>2217</ele>
        <time>2019-02-27T09:45:44Z</time>
      </trkpt>
      <trkpt lat="42.74145" lon="0.17839">
        <ele>2217</ele>
        <time>2019-02-27T09:45:45Z</time>
      </trkpt>
      <trkpt lat="42.74145" lon="0.17839">
        <ele>2217</ele>
        <time>2019-02-27T09:45:46Z</time>
      </trkpt>
      <trkpt lat="42.74145" lon="0.17839">
        <ele>2217</ele>
        <time>2019-02-27T09:45:47Z</time>
      </trkpt>
      <trkpt lat="42.74145" lon="0.17839">
        <ele>2218</ele>
        <time>2019-02-27T09:45:48Z</time>
      </trkpt>
      <trkpt lat="42.74145" lon="0.17839">
        <ele>2218</ele>
        <time>2019-02-27T09:45:49Z</time>
      </trkpt>
      <trkpt lat="42.74145" lon="0.17839">
        <ele>2218</ele>
        <time>2019-02-27T09:45:50Z</time>
      </trkpt>
      <trkpt lat="42.74145" lon="0.17839">
        <ele>2218</ele>
        <time>2019-02-27T09:45:51Z</time>
      </trkpt>
      <trkpt lat="42.74145" lon="0.17839">
        <ele>2218</ele>
        <time>2019-02-27T09:45:52Z</time>
      </trkpt>
      <trkpt lat="42.74145" lon="0.17839">
        <ele>2218</ele>
        <time>2019-02-27T09:45:53Z</time>
      </trkpt>
      <trkpt lat="42.74145" lon="0.17839">
        <ele>2218</ele>
        <time>2019-02-27T09:45:54Z</time>
      </trkpt>
      <trkpt lat="42.74145" lon="0.17839">
        <ele>2218</ele>
        <time>2019-02-27T09:45:55Z</time>
      </trkpt>
      <trkpt lat="42.74145" lon="0.17839">
        <ele>2218</ele>
        <time>2019-02-27T09:45:56Z</time>
      </trkpt>
      <trkpt lat="42.74145" lon="0.17839">
        <ele>2218</ele>
        <time>2019-02-27T09:45:57Z</time>
      </trkpt>
      <trkpt lat="42.74145" lon="0.17839">
        <ele>2218</ele>
        <time>2019-02-27T09:45:58Z</time>
      </trkpt>
      <trkpt lat="42.74145" lon="0.17839">
        <ele>2217</ele>
        <time>2019-02-27T09:45:59Z</time>
      </trkpt>
      <trkpt lat="42.74145" lon="0.17839">
        <ele>2217</ele>
        <time>2019-02-27T09:46:00Z</time>
      </trkpt>
      <trkpt lat="42.74145" lon="0.17839">
        <ele>2217</ele>
        <time>2019-02-27T09:46:01Z</time>
      </trkpt>
      <trkpt lat="42.74145" lon="0.17839">
        <ele>2217</ele>
        <time>2019-02-27T09:46:02Z</time>
      </trkpt>
      <trkpt lat="42.74145" lon="0.17839">
        <ele>2217</ele>
        <time>2019-02-27T09:46:03Z</time>
      </trkpt>
      <trkpt lat="42.74145" lon="0.17839">
        <ele>2217</ele>
        <time>2019-02-27T09:46:04Z</time>
      </trkpt>
      <trkpt lat="42.74145" lon="0.17839">
        <ele>2217</ele>
        <time>2019-02-27T09:46:05Z</time>
      </trkpt>
      <trkpt lat="42.74145" lon="0.17839">
        <ele>2217</ele>
        <time>2019-02-27T09:46:06Z</time>
      </trkpt>
      <trkpt lat="42.74145" lon="0.17839">
        <ele>2217</ele>
        <time>2019-02-27T09:46:07Z</time>
      </trkpt>
      <trkpt lat="42.74145" lon="0.17839">
        <ele>2217</ele>
        <time>2019-02-27T09:46:08Z</time>
      </trkpt>
      <trkpt lat="42.74145" lon="0.17839">
        <ele>2217</ele>
        <time>2019-02-27T09:46:09Z</time>
      </trkpt>
      <trkpt lat="42.74145" lon="0.17839">
        <ele>2217</ele>
        <time>2019-02-27T09:46:10Z</time>
      </trkpt>
      <trkpt lat="42.74145" lon="0.17839">
        <ele>2217</ele>
        <time>2019-02-27T09:46:11Z</time>
      </trkpt>
      <trkpt lat="42.74145" lon="0.17839">
        <ele>2217</ele>
        <time>2019-02-27T09:46:12Z</time>
      </trkpt>
      <trkpt lat="42.74145" lon="0.17839">
        <ele>2217</ele>
        <time>2019-02-27T09:46:13Z</time>
      </trkpt>
      <trkpt lat="42.74145" lon="0.17837">
        <ele>2217</ele>
        <time>2019-02-27T09:46:14Z</time>
      </trkpt>
      <trkpt lat="42.74145" lon="0.17837">
        <ele>2217</ele>
        <time>2019-02-27T09:46:15Z</time>
      </trkpt>
      <trkpt lat="42.74145" lon="0.17837">
        <ele>2217</ele>
        <time>2019-02-27T09:46:16Z</time>
      </trkpt>
      <trkpt lat="42.74145" lon="0.17837">
        <ele>2217</ele>
        <time>2019-02-27T09:46:17Z</time>
      </trkpt>
      <trkpt lat="42.74145" lon="0.17837">
        <ele>2217</ele>
        <time>2019-02-27T09:46:18Z</time>
      </trkpt>
      <trkpt lat="42.74145" lon="0.17837">
        <ele>2217</ele>
        <time>2019-02-27T09:46:19Z</time>
      </trkpt>
      <trkpt lat="42.74145" lon="0.17837">
        <ele>2217</ele>
        <time>2019-02-27T09:46:20Z</time>
      </trkpt>
      <trkpt lat="42.74145" lon="0.17837">
        <ele>2217</ele>
        <time>2019-02-27T09:46:21Z</time>
      </trkpt>
      <trkpt lat="42.74145" lon="0.17837">
        <ele>2217</ele>
        <time>2019-02-27T09:46:22Z</time>
      </trkpt>
      <trkpt lat="42.74145" lon="0.17837">
        <ele>2217</ele>
        <time>2019-02-27T09:46:23Z</time>
      </trkpt>
      <trkpt lat="42.74145" lon="0.17837">
        <ele>2217</ele>
        <time>2019-02-27T09:46:24Z</time>
      </trkpt>
      <trkpt lat="42.74145" lon="0.17837">
        <ele>2217</ele>
        <time>2019-02-27T09:46:25Z</time>
      </trkpt>
      <trkpt lat="42.74145" lon="0.17837">
        <ele>2217</ele>
        <time>2019-02-27T09:46:26Z</time>
      </trkpt>
      <trkpt lat="42.74145" lon="0.17837">
        <ele>2217</ele>
        <time>2019-02-27T09:46:27Z</time>
      </trkpt>
      <trkpt lat="42.74145" lon="0.17837">
        <ele>2217</ele>
        <time>2019-02-27T09:46:28Z</time>
      </trkpt>
      <trkpt lat="42.74145" lon="0.17837">
        <ele>2218</ele>
        <time>2019-02-27T09:46:29Z</time>
      </trkpt>
      <trkpt lat="42.74145" lon="0.17837">
        <ele>2218</ele>
        <time>2019-02-27T09:46:30Z</time>
      </trkpt>
      <trkpt lat="42.74145" lon="0.17837">
        <ele>2218</ele>
        <time>2019-02-27T09:46:31Z</time>
      </trkpt>
      <trkpt lat="42.74144" lon="0.17839">
        <ele>2218</ele>
        <time>2019-02-27T09:46:32Z</time>
      </trkpt>
      <trkpt lat="42.74144" lon="0.17839">
        <ele>2218</ele>
        <time>2019-02-27T09:46:33Z</time>
      </trkpt>
      <trkpt lat="42.74144" lon="0.17839">
        <ele>2217</ele>
        <time>2019-02-27T09:46:34Z</time>
      </trkpt>
      <trkpt lat="42.74144" lon="0.17839">
        <ele>2217</ele>
        <time>2019-02-27T09:46:35Z</time>
      </trkpt>
      <trkpt lat="42.74144" lon="0.17839">
        <ele>2217</ele>
        <time>2019-02-27T09:46:36Z</time>
      </trkpt>
      <trkpt lat="42.74144" lon="0.17839">
        <ele>2217</ele>
        <time>2019-02-27T09:46:37Z</time>
      </trkpt>
      <trkpt lat="42.74144" lon="0.17839">
        <ele>2217</ele>
        <time>2019-02-27T09:46:38Z</time>
      </trkpt>
      <trkpt lat="42.74144" lon="0.17839">
        <ele>2217</ele>
        <time>2019-02-27T09:46:39Z</time>
      </trkpt>
      <trkpt lat="42.74144" lon="0.17839">
        <ele>2217</ele>
        <time>2019-02-27T09:46:40Z</time>
      </trkpt>
      <trkpt lat="42.74144" lon="0.17839">
        <ele>2217</ele>
        <time>2019-02-27T09:46:41Z</time>
      </trkpt>
      <trkpt lat="42.74144" lon="0.17839">
        <ele>2217</ele>
        <time>2019-02-27T09:46:42Z</time>
      </trkpt>
      <trkpt lat="42.74144" lon="0.17839">
        <ele>2217</ele>
        <time>2019-02-27T09:46:43Z</time>
      </trkpt>
      <trkpt lat="42.74144" lon="0.17839">
        <ele>2217</ele>
        <time>2019-02-27T09:46:44Z</time>
      </trkpt>
      <trkpt lat="42.74144" lon="0.17839">
        <ele>2217</ele>
        <time>2019-02-27T09:46:45Z</time>
      </trkpt>
      <trkpt lat="42.74144" lon="0.17839">
        <ele>2217</ele>
        <time>2019-02-27T09:46:46Z</time>
      </trkpt>
      <trkpt lat="42.74144" lon="0.17839">
        <ele>2217</ele>
        <time>2019-02-27T09:46:47Z</time>
      </trkpt>
      <trkpt lat="42.74144" lon="0.17839">
        <ele>2217</ele>
        <time>2019-02-27T09:46:48Z</time>
      </trkpt>
      <trkpt lat="42.74144" lon="0.17839">
        <ele>2217</ele>
        <time>2019-02-27T09:46:49Z</time>
      </trkpt>
      <trkpt lat="42.74144" lon="0.17839">
        <ele>2217</ele>
        <time>2019-02-27T09:46:50Z</time>
      </trkpt>
      <trkpt lat="42.74144" lon="0.17839">
        <ele>2218</ele>
        <time>2019-02-27T09:46:51Z</time>
      </trkpt>
      <trkpt lat="42.74144" lon="0.17839">
        <ele>2218</ele>
        <time>2019-02-27T09:46:52Z</time>
      </trkpt>
      <trkpt lat="42.74144" lon="0.17839">
        <ele>2218</ele>
        <time>2019-02-27T09:46:53Z</time>
      </trkpt>
      <trkpt lat="42.74144" lon="0.17839">
        <ele>2218</ele>
        <time>2019-02-27T09:46:54Z</time>
      </trkpt>
      <trkpt lat="42.74144" lon="0.17839">
        <ele>2218</ele>
        <time>2019-02-27T09:46:55Z</time>
      </trkpt>
      <trkpt lat="42.74144" lon="0.17839">
        <ele>2218</ele>
        <time>2019-02-27T09:46:56Z</time>
      </trkpt>
      <trkpt lat="42.74144" lon="0.17839">
        <ele>2218</ele>
        <time>2019-02-27T09:46:57Z</time>
      </trkpt>
      <trkpt lat="42.74144" lon="0.17839">
        <ele>2217</ele>
        <time>2019-02-27T09:46:58Z</time>
      </trkpt>
      <trkpt lat="42.74144" lon="0.17839">
        <ele>2217</ele>
        <time>2019-02-27T09:46:59Z</time>
      </trkpt>
      <trkpt lat="42.74144" lon="0.17839">
        <ele>2217</ele>
        <time>2019-02-27T09:47:00Z</time>
      </trkpt>
      <trkpt lat="42.74144" lon="0.17839">
        <ele>2217</ele>
        <time>2019-02-27T09:47:01Z</time>
      </trkpt>
      <trkpt lat="42.74144" lon="0.17839">
        <ele>2217</ele>
        <time>2019-02-27T09:47:02Z</time>
      </trkpt>
      <trkpt lat="42.74144" lon="0.17839">
        <ele>2217</ele>
        <time>2019-02-27T09:47:03Z</time>
      </trkpt>
      <trkpt lat="42.74144" lon="0.17839">
        <ele>2218</ele>
        <time>2019-02-27T09:47:04Z</time>
      </trkpt>
      <trkpt lat="42.74144" lon="0.17839">
        <ele>2218</ele>
        <time>2019-02-27T09:47:05Z</time>
      </trkpt>
      <trkpt lat="42.74144" lon="0.17839">
        <ele>2218</ele>
        <time>2019-02-27T09:47:06Z</time>
      </trkpt>
      <trkpt lat="42.74146" lon="0.1784">
        <ele>2218</ele>
        <time>2019-02-27T09:47:07Z</time>
      </trkpt>
      <trkpt lat="42.74146" lon="0.1784">
        <ele>2218</ele>
        <time>2019-02-27T09:47:08Z</time>
      </trkpt>
      <trkpt lat="42.74146" lon="0.1784">
        <ele>2218</ele>
        <time>2019-02-27T09:47:09Z</time>
      </trkpt>
      <trkpt lat="42.74146" lon="0.1784">
        <ele>2218</ele>
        <time>2019-02-27T09:47:10Z</time>
      </trkpt>
      <trkpt lat="42.74146" lon="0.1784">
        <ele>2218</ele>
        <time>2019-02-27T09:47:11Z</time>
      </trkpt>
      <trkpt lat="42.74146" lon="0.1784">
        <ele>2218</ele>
        <time>2019-02-27T09:47:12Z</time>
      </trkpt>
      <trkpt lat="42.74146" lon="0.1784">
        <ele>2218</ele>
        <time>2019-02-27T09:47:13Z</time>
      </trkpt>
      <trkpt lat="42.74146" lon="0.1784">
        <ele>2218</ele>
        <time>2019-02-27T09:47:14Z</time>
      </trkpt>
      <trkpt lat="42.74146" lon="0.1784">
        <ele>2218</ele>
        <time>2019-02-27T09:47:15Z</time>
      </trkpt>
      <trkpt lat="42.74146" lon="0.1784">
        <ele>2218</ele>
        <time>2019-02-27T09:47:16Z</time>
      </trkpt>
      <trkpt lat="42.74146" lon="0.1784">
        <ele>2217</ele>
        <time>2019-02-27T09:47:17Z</time>
      </trkpt>
      <trkpt lat="42.74146" lon="0.1784">
        <ele>2217</ele>
        <time>2019-02-27T09:47:18Z</time>
      </trkpt>
      <trkpt lat="42.74146" lon="0.1784">
        <ele>2217</ele>
        <time>2019-02-27T09:47:19Z</time>
      </trkpt>
      <trkpt lat="42.74146" lon="0.1784">
        <ele>2217</ele>
        <time>2019-02-27T09:47:20Z</time>
      </trkpt>
      <trkpt lat="42.74146" lon="0.1784">
        <ele>2217</ele>
        <time>2019-02-27T09:47:21Z</time>
      </trkpt>
      <trkpt lat="42.74146" lon="0.1784">
        <ele>2216</ele>
        <time>2019-02-27T09:47:22Z</time>
      </trkpt>
      <trkpt lat="42.74146" lon="0.1784">
        <ele>2216</ele>
        <time>2019-02-27T09:47:23Z</time>
      </trkpt>
      <trkpt lat="42.74146" lon="0.1784">
        <ele>2216</ele>
        <time>2019-02-27T09:47:24Z</time>
      </trkpt>
      <trkpt lat="42.74146" lon="0.1784">
        <ele>2216</ele>
        <time>2019-02-27T09:47:25Z</time>
      </trkpt>
      <trkpt lat="42.74146" lon="0.1784">
        <ele>2216</ele>
        <time>2019-02-27T09:47:26Z</time>
      </trkpt>
      <trkpt lat="42.74146" lon="0.1784">
        <ele>2217</ele>
        <time>2019-02-27T09:47:27Z</time>
      </trkpt>
      <trkpt lat="42.74146" lon="0.1784">
        <ele>2217</ele>
        <time>2019-02-27T09:47:28Z</time>
      </trkpt>
      <trkpt lat="42.74146" lon="0.17837">
        <ele>2217</ele>
        <time>2019-02-27T09:47:29Z</time>
      </trkpt>
      <trkpt lat="42.74146" lon="0.17837">
        <ele>2217</ele>
        <time>2019-02-27T09:47:30Z</time>
      </trkpt>
      <trkpt lat="42.74146" lon="0.17837">
        <ele>2217</ele>
        <time>2019-02-27T09:47:31Z</time>
      </trkpt>
      <trkpt lat="42.74146" lon="0.17837">
        <ele>2217</ele>
        <time>2019-02-27T09:47:32Z</time>
      </trkpt>
      <trkpt lat="42.74146" lon="0.17837">
        <ele>2217</ele>
        <time>2019-02-27T09:47:33Z</time>
      </trkpt>
      <trkpt lat="42.74146" lon="0.17837">
        <ele>2217</ele>
        <time>2019-02-27T09:47:34Z</time>
      </trkpt>
      <trkpt lat="42.74146" lon="0.17837">
        <ele>2217</ele>
        <time>2019-02-27T09:47:35Z</time>
      </trkpt>
      <trkpt lat="42.74146" lon="0.17837">
        <ele>2217</ele>
        <time>2019-02-27T09:47:36Z</time>
      </trkpt>
      <trkpt lat="42.74146" lon="0.17837">
        <ele>2217</ele>
        <time>2019-02-27T09:47:37Z</time>
      </trkpt>
      <trkpt lat="42.74146" lon="0.17837">
        <ele>2217</ele>
        <time>2019-02-27T09:47:38Z</time>
      </trkpt>
      <trkpt lat="42.74146" lon="0.17837">
        <ele>2217</ele>
        <time>2019-02-27T09:47:39Z</time>
      </trkpt>
      <trkpt lat="42.74146" lon="0.17837">
        <ele>2217</ele>
        <time>2019-02-27T09:47:40Z</time>
      </trkpt>
      <trkpt lat="42.74146" lon="0.17837">
        <ele>2217</ele>
        <time>2019-02-27T09:47:41Z</time>
      </trkpt>
      <trkpt lat="42.74146" lon="0.17837">
        <ele>2217</ele>
        <time>2019-02-27T09:47:42Z</time>
      </trkpt>
      <trkpt lat="42.74146" lon="0.17837">
        <ele>2217</ele>
        <time>2019-02-27T09:47:43Z</time>
      </trkpt>
      <trkpt lat="42.74146" lon="0.17837">
        <ele>2217</ele>
        <time>2019-02-27T09:47:44Z</time>
      </trkpt>
      <trkpt lat="42.74146" lon="0.17837">
        <ele>2217</ele>
        <time>2019-02-27T09:47:45Z</time>
      </trkpt>
      <trkpt lat="42.74146" lon="0.17837">
        <ele>2217</ele>
        <time>2019-02-27T09:47:46Z</time>
      </trkpt>
      <trkpt lat="42.74146" lon="0.17837">
        <ele>2217</ele>
        <time>2019-02-27T09:47:47Z</time>
      </trkpt>
      <trkpt lat="42.74146" lon="0.17837">
        <ele>2217</ele>
        <time>2019-02-27T09:47:48Z</time>
      </trkpt>
      <trkpt lat="42.74146" lon="0.17837">
        <ele>2217</ele>
        <time>2019-02-27T09:47:49Z</time>
      </trkpt>
      <trkpt lat="42.74146" lon="0.17837">
        <ele>2217</ele>
        <time>2019-02-27T09:47:50Z</time>
      </trkpt>
      <trkpt lat="42.74146" lon="0.17837">
        <ele>2217</ele>
        <time>2019-02-27T09:47:51Z</time>
      </trkpt>
      <trkpt lat="42.74146" lon="0.17837">
        <ele>2217</ele>
        <time>2019-02-27T09:47:52Z</time>
      </trkpt>
      <trkpt lat="42.74146" lon="0.17837">
        <ele>2217</ele>
        <time>2019-02-27T09:47:53Z</time>
      </trkpt>
      <trkpt lat="42.74146" lon="0.17837">
        <ele>2217</ele>
        <time>2019-02-27T09:47:54Z</time>
      </trkpt>
      <trkpt lat="42.74146" lon="0.17837">
        <ele>2217</ele>
        <time>2019-02-27T09:47:55Z</time>
      </trkpt>
      <trkpt lat="42.74146" lon="0.17837">
        <ele>2217</ele>
        <time>2019-02-27T09:47:56Z</time>
      </trkpt>
      <trkpt lat="42.74146" lon="0.17837">
        <ele>2217</ele>
        <time>2019-02-27T09:47:57Z</time>
      </trkpt>
      <trkpt lat="42.74146" lon="0.17837">
        <ele>2217</ele>
        <time>2019-02-27T09:47:58Z</time>
      </trkpt>
      <trkpt lat="42.74146" lon="0.17837">
        <ele>2217</ele>
        <time>2019-02-27T09:47:59Z</time>
      </trkpt>
      <trkpt lat="42.74146" lon="0.17837">
        <ele>2217</ele>
        <time>2019-02-27T09:48:00Z</time>
      </trkpt>
      <trkpt lat="42.74146" lon="0.17837">
        <ele>2217</ele>
        <time>2019-02-27T09:48:01Z</time>
      </trkpt>
      <trkpt lat="42.74146" lon="0.17837">
        <ele>2217</ele>
        <time>2019-02-27T09:48:02Z</time>
      </trkpt>
      <trkpt lat="42.74146" lon="0.17837">
        <ele>2217</ele>
        <time>2019-02-27T09:48:03Z</time>
      </trkpt>
      <trkpt lat="42.74146" lon="0.17837">
        <ele>2217</ele>
        <time>2019-02-27T09:48:04Z</time>
      </trkpt>
      <trkpt lat="42.74146" lon="0.17837">
        <ele>2217</ele>
        <time>2019-02-27T09:48:05Z</time>
      </trkpt>
      <trkpt lat="42.74146" lon="0.17837">
        <ele>2217</ele>
        <time>2019-02-27T09:48:06Z</time>
      </trkpt>
      <trkpt lat="42.74146" lon="0.17837">
        <ele>2217</ele>
        <time>2019-02-27T09:48:07Z</time>
      </trkpt>
      <trkpt lat="42.74146" lon="0.17837">
        <ele>2217</ele>
        <time>2019-02-27T09:48:08Z</time>
      </trkpt>
      <trkpt lat="42.74146" lon="0.17837">
        <ele>2217</ele>
        <time>2019-02-27T09:48:09Z</time>
      </trkpt>
      <trkpt lat="42.74146" lon="0.17837">
        <ele>2217</ele>
        <time>2019-02-27T09:48:10Z</time>
      </trkpt>
      <trkpt lat="42.74146" lon="0.17837">
        <ele>2217</ele>
        <time>2019-02-27T09:48:11Z</time>
      </trkpt>
      <trkpt lat="42.74146" lon="0.17837">
        <ele>2217</ele>
        <time>2019-02-27T09:48:12Z</time>
      </trkpt>
      <trkpt lat="42.74146" lon="0.17837">
        <ele>2217</ele>
        <time>2019-02-27T09:48:13Z</time>
      </trkpt>
      <trkpt lat="42.74146" lon="0.17837">
        <ele>2217</ele>
        <time>2019-02-27T09:48:14Z</time>
      </trkpt>
      <trkpt lat="42.74146" lon="0.17837">
        <ele>2217</ele>
        <time>2019-02-27T09:48:15Z</time>
      </trkpt>
      <trkpt lat="42.74146" lon="0.17837">
        <ele>2217</ele>
        <time>2019-02-27T09:48:16Z</time>
      </trkpt>
      <trkpt lat="42.74146" lon="0.17837">
        <ele>2217</ele>
        <time>2019-02-27T09:48:17Z</time>
      </trkpt>
      <trkpt lat="42.74146" lon="0.17837">
        <ele>2217</ele>
        <time>2019-02-27T09:48:18Z</time>
      </trkpt>
      <trkpt lat="42.74146" lon="0.17837">
        <ele>2217</ele>
        <time>2019-02-27T09:48:19Z</time>
      </trkpt>
      <trkpt lat="42.74146" lon="0.17837">
        <ele>2217</ele>
        <time>2019-02-27T09:48:20Z</time>
      </trkpt>
      <trkpt lat="42.74146" lon="0.17837">
        <ele>2217</ele>
        <time>2019-02-27T09:48:21Z</time>
      </trkpt>
      <trkpt lat="42.74146" lon="0.17837">
        <ele>2217</ele>
        <time>2019-02-27T09:48:22Z</time>
      </trkpt>
      <trkpt lat="42.74146" lon="0.17837">
        <ele>2217</ele>
        <time>2019-02-27T09:48:23Z</time>
      </trkpt>
      <trkpt lat="42.74146" lon="0.17837">
        <ele>2217</ele>
        <time>2019-02-27T09:48:24Z</time>
      </trkpt>
      <trkpt lat="42.74146" lon="0.17837">
        <ele>2217</ele>
        <time>2019-02-27T09:48:25Z</time>
      </trkpt>
      <trkpt lat="42.74146" lon="0.17837">
        <ele>2217</ele>
        <time>2019-02-27T09:48:26Z</time>
      </trkpt>
      <trkpt lat="42.74146" lon="0.17837">
        <ele>2217</ele>
        <time>2019-02-27T09:48:27Z</time>
      </trkpt>
      <trkpt lat="42.74146" lon="0.17837">
        <ele>2216</ele>
        <time>2019-02-27T09:48:28Z</time>
      </trkpt>
      <trkpt lat="42.74146" lon="0.17837">
        <ele>2216</ele>
        <time>2019-02-27T09:48:29Z</time>
      </trkpt>
      <trkpt lat="42.74146" lon="0.17837">
        <ele>2216</ele>
        <time>2019-02-27T09:48:30Z</time>
      </trkpt>
      <trkpt lat="42.74146" lon="0.17837">
        <ele>2216</ele>
        <time>2019-02-27T09:48:31Z</time>
      </trkpt>
      <trkpt lat="42.74146" lon="0.17837">
        <ele>2217</ele>
        <time>2019-02-27T09:48:32Z</time>
      </trkpt>
      <trkpt lat="42.74146" lon="0.17837">
        <ele>2218</ele>
        <time>2019-02-27T09:48:33Z</time>
      </trkpt>
      <trkpt lat="42.74146" lon="0.17837">
        <ele>2218</ele>
        <time>2019-02-27T09:48:34Z</time>
      </trkpt>
      <trkpt lat="42.74146" lon="0.17837">
        <ele>2218</ele>
        <time>2019-02-27T09:48:35Z</time>
      </trkpt>
      <trkpt lat="42.74146" lon="0.17837">
        <ele>2218</ele>
        <time>2019-02-27T09:48:36Z</time>
      </trkpt>
      <trkpt lat="42.74146" lon="0.17837">
        <ele>2217</ele>
        <time>2019-02-27T09:48:37Z</time>
      </trkpt>
      <trkpt lat="42.74146" lon="0.17837">
        <ele>2217</ele>
        <time>2019-02-27T09:48:38Z</time>
      </trkpt>
      <trkpt lat="42.74146" lon="0.17837">
        <ele>2216</ele>
        <time>2019-02-27T09:48:39Z</time>
      </trkpt>
      <trkpt lat="42.74146" lon="0.17837">
        <ele>2216</ele>
        <time>2019-02-27T09:48:40Z</time>
      </trkpt>
      <trkpt lat="42.74146" lon="0.17837">
        <ele>2217</ele>
        <time>2019-02-27T09:48:41Z</time>
      </trkpt>
      <trkpt lat="42.74146" lon="0.17837">
        <ele>2217</ele>
        <time>2019-02-27T09:48:42Z</time>
      </trkpt>
      <trkpt lat="42.74146" lon="0.17837">
        <ele>2217</ele>
        <time>2019-02-27T09:48:43Z</time>
      </trkpt>
      <trkpt lat="42.74146" lon="0.17837">
        <ele>2217</ele>
        <time>2019-02-27T09:48:44Z</time>
      </trkpt>
      <trkpt lat="42.74146" lon="0.17837">
        <ele>2217</ele>
        <time>2019-02-27T09:48:45Z</time>
      </trkpt>
      <trkpt lat="42.74146" lon="0.17837">
        <ele>2217</ele>
        <time>2019-02-27T09:48:46Z</time>
      </trkpt>
      <trkpt lat="42.74146" lon="0.17837">
        <ele>2217</ele>
        <time>2019-02-27T09:48:47Z</time>
      </trkpt>
      <trkpt lat="42.74146" lon="0.17837">
        <ele>2217</ele>
        <time>2019-02-27T09:48:48Z</time>
      </trkpt>
      <trkpt lat="42.74146" lon="0.17837">
        <ele>2218</ele>
        <time>2019-02-27T09:48:49Z</time>
      </trkpt>
      <trkpt lat="42.74146" lon="0.17837">
        <ele>2218</ele>
        <time>2019-02-27T09:48:50Z</time>
      </trkpt>
      <trkpt lat="42.74146" lon="0.17837">
        <ele>2218</ele>
        <time>2019-02-27T09:48:51Z</time>
      </trkpt>
      <trkpt lat="42.74146" lon="0.17837">
        <ele>2217</ele>
        <time>2019-02-27T09:48:52Z</time>
      </trkpt>
      <trkpt lat="42.74146" lon="0.17837">
        <ele>2217</ele>
        <time>2019-02-27T09:48:53Z</time>
      </trkpt>
      <trkpt lat="42.74146" lon="0.17837">
        <ele>2217</ele>
        <time>2019-02-27T09:48:54Z</time>
      </trkpt>
      <trkpt lat="42.74146" lon="0.17837">
        <ele>2217</ele>
        <time>2019-02-27T09:48:55Z</time>
      </trkpt>
      <trkpt lat="42.74146" lon="0.17837">
        <ele>2217</ele>
        <time>2019-02-27T09:48:56Z</time>
      </trkpt>
      <trkpt lat="42.74146" lon="0.17837">
        <ele>2217</ele>
        <time>2019-02-27T09:48:57Z</time>
      </trkpt>
      <trkpt lat="42.74146" lon="0.17837">
        <ele>2217</ele>
        <time>2019-02-27T09:48:58Z</time>
      </trkpt>
      <trkpt lat="42.74146" lon="0.17837">
        <ele>2218</ele>
        <time>2019-02-27T09:48:59Z</time>
      </trkpt>
      <trkpt lat="42.74146" lon="0.17837">
        <ele>2218</ele>
        <time>2019-02-27T09:49:00Z</time>
      </trkpt>
      <trkpt lat="42.74146" lon="0.17837">
        <ele>2218</ele>
        <time>2019-02-27T09:49:01Z</time>
      </trkpt>
      <trkpt lat="42.74146" lon="0.17837">
        <ele>2218</ele>
        <time>2019-02-27T09:49:02Z</time>
      </trkpt>
      <trkpt lat="42.74146" lon="0.17837">
        <ele>2218</ele>
        <time>2019-02-27T09:49:03Z</time>
      </trkpt>
      <trkpt lat="42.74146" lon="0.17837">
        <ele>2218</ele>
        <time>2019-02-27T09:49:04Z</time>
      </trkpt>
      <trkpt lat="42.74146" lon="0.17837">
        <ele>2218</ele>
        <time>2019-02-27T09:49:05Z</time>
      </trkpt>
      <trkpt lat="42.74146" lon="0.17837">
        <ele>2218</ele>
        <time>2019-02-27T09:49:06Z</time>
      </trkpt>
      <trkpt lat="42.74146" lon="0.17837">
        <ele>2218</ele>
        <time>2019-02-27T09:49:07Z</time>
      </trkpt>
      <trkpt lat="42.74146" lon="0.17837">
        <ele>2218</ele>
        <time>2019-02-27T09:49:08Z</time>
      </trkpt>
      <trkpt lat="42.74146" lon="0.17837">
        <ele>2218</ele>
        <time>2019-02-27T09:49:09Z</time>
      </trkpt>
      <trkpt lat="42.74146" lon="0.17837">
        <ele>2218</ele>
        <time>2019-02-27T09:49:10Z</time>
      </trkpt>
      <trkpt lat="42.74146" lon="0.17837">
        <ele>2218</ele>
        <time>2019-02-27T09:49:11Z</time>
      </trkpt>
      <trkpt lat="42.74146" lon="0.17837">
        <ele>2218</ele>
        <time>2019-02-27T09:49:12Z</time>
      </trkpt>
      <trkpt lat="42.74146" lon="0.17837">
        <ele>2218</ele>
        <time>2019-02-27T09:49:13Z</time>
      </trkpt>
      <trkpt lat="42.74146" lon="0.17837">
        <ele>2218</ele>
        <time>2019-02-27T09:49:14Z</time>
      </trkpt>
      <trkpt lat="42.74146" lon="0.17837">
        <ele>2218</ele>
        <time>2019-02-27T09:49:15Z</time>
      </trkpt>
      <trkpt lat="42.74146" lon="0.17837">
        <ele>2218</ele>
        <time>2019-02-27T09:49:16Z</time>
      </trkpt>
      <trkpt lat="42.74146" lon="0.17837">
        <ele>2218</ele>
        <time>2019-02-27T09:49:17Z</time>
      </trkpt>
      <trkpt lat="42.74146" lon="0.17837">
        <ele>2218</ele>
        <time>2019-02-27T09:49:18Z</time>
      </trkpt>
      <trkpt lat="42.74146" lon="0.17837">
        <ele>2218</ele>
        <time>2019-02-27T09:49:19Z</time>
      </trkpt>
      <trkpt lat="42.74146" lon="0.17837">
        <ele>2218</ele>
        <time>2019-02-27T09:49:20Z</time>
      </trkpt>
      <trkpt lat="42.74146" lon="0.17837">
        <ele>2218</ele>
        <time>2019-02-27T09:49:21Z</time>
      </trkpt>
      <trkpt lat="42.74146" lon="0.17837">
        <ele>2218</ele>
        <time>2019-02-27T09:49:22Z</time>
      </trkpt>
      <trkpt lat="42.74146" lon="0.17837">
        <ele>2218</ele>
        <time>2019-02-27T09:49:23Z</time>
      </trkpt>
      <trkpt lat="42.74146" lon="0.17837">
        <ele>2218</ele>
        <time>2019-02-27T09:49:24Z</time>
      </trkpt>
      <trkpt lat="42.74146" lon="0.17837">
        <ele>2218</ele>
        <time>2019-02-27T09:49:25Z</time>
      </trkpt>
      <trkpt lat="42.74146" lon="0.17837">
        <ele>2218</ele>
        <time>2019-02-27T09:49:26Z</time>
      </trkpt>
      <trkpt lat="42.74146" lon="0.17837">
        <ele>2218</ele>
        <time>2019-02-27T09:49:27Z</time>
      </trkpt>
      <trkpt lat="42.74146" lon="0.17837">
        <ele>2218</ele>
        <time>2019-02-27T09:49:28Z</time>
      </trkpt>
      <trkpt lat="42.74146" lon="0.17837">
        <ele>2218</ele>
        <time>2019-02-27T09:49:29Z</time>
      </trkpt>
      <trkpt lat="42.74146" lon="0.17837">
        <ele>2217</ele>
        <time>2019-02-27T09:49:30Z</time>
      </trkpt>
      <trkpt lat="42.74146" lon="0.17837">
        <ele>2217</ele>
        <time>2019-02-27T09:49:31Z</time>
      </trkpt>
      <trkpt lat="42.74146" lon="0.17837">
        <ele>2217</ele>
        <time>2019-02-27T09:49:32Z</time>
      </trkpt>
      <trkpt lat="42.74144" lon="0.17838">
        <ele>2217</ele>
        <time>2019-02-27T09:49:33Z</time>
      </trkpt>
      <trkpt lat="42.74144" lon="0.17838">
        <ele>2217</ele>
        <time>2019-02-27T09:49:34Z</time>
      </trkpt>
      <trkpt lat="42.74144" lon="0.17838">
        <ele>2217</ele>
        <time>2019-02-27T09:49:35Z</time>
      </trkpt>
      <trkpt lat="42.74144" lon="0.17838">
        <ele>2217</ele>
        <time>2019-02-27T09:49:36Z</time>
      </trkpt>
      <trkpt lat="42.74144" lon="0.17838">
        <ele>2217</ele>
        <time>2019-02-27T09:49:37Z</time>
      </trkpt>
      <trkpt lat="42.74144" lon="0.17838">
        <ele>2217</ele>
        <time>2019-02-27T09:49:38Z</time>
      </trkpt>
      <trkpt lat="42.74144" lon="0.17838">
        <ele>2217</ele>
        <time>2019-02-27T09:49:39Z</time>
      </trkpt>
      <trkpt lat="42.74144" lon="0.17838">
        <ele>2217</ele>
        <time>2019-02-27T09:49:40Z</time>
      </trkpt>
      <trkpt lat="42.74144" lon="0.17838">
        <ele>2217</ele>
        <time>2019-02-27T09:49:41Z</time>
      </trkpt>
      <trkpt lat="42.74144" lon="0.17838">
        <ele>2217</ele>
        <time>2019-02-27T09:49:42Z</time>
      </trkpt>
      <trkpt lat="42.74144" lon="0.17838">
        <ele>2217</ele>
        <time>2019-02-27T09:49:43Z</time>
      </trkpt>
      <trkpt lat="42.74144" lon="0.17838">
        <ele>2217</ele>
        <time>2019-02-27T09:49:44Z</time>
      </trkpt>
      <trkpt lat="42.74144" lon="0.17838">
        <ele>2217</ele>
        <time>2019-02-27T09:49:45Z</time>
      </trkpt>
      <trkpt lat="42.74144" lon="0.17838">
        <ele>2217</ele>
        <time>2019-02-27T09:49:46Z</time>
      </trkpt>
      <trkpt lat="42.74144" lon="0.17838">
        <ele>2217</ele>
        <time>2019-02-27T09:49:47Z</time>
      </trkpt>
      <trkpt lat="42.74144" lon="0.17838">
        <ele>2217</ele>
        <time>2019-02-27T09:49:48Z</time>
      </trkpt>
      <trkpt lat="42.74144" lon="0.17838">
        <ele>2217</ele>
        <time>2019-02-27T09:49:49Z</time>
      </trkpt>
      <trkpt lat="42.74144" lon="0.17838">
        <ele>2217</ele>
        <time>2019-02-27T09:49:50Z</time>
      </trkpt>
      <trkpt lat="42.74144" lon="0.17838">
        <ele>2217</ele>
        <time>2019-02-27T09:49:51Z</time>
      </trkpt>
      <trkpt lat="42.74144" lon="0.17838">
        <ele>2217</ele>
        <time>2019-02-27T09:49:52Z</time>
      </trkpt>
      <trkpt lat="42.74144" lon="0.17838">
        <ele>2217</ele>
        <time>2019-02-27T09:49:53Z</time>
      </trkpt>
      <trkpt lat="42.74144" lon="0.17838">
        <ele>2217</ele>
        <time>2019-02-27T09:49:54Z</time>
      </trkpt>
      <trkpt lat="42.74144" lon="0.17838">
        <ele>2217</ele>
        <time>2019-02-27T09:49:55Z</time>
      </trkpt>
      <trkpt lat="42.74144" lon="0.17838">
        <ele>2217</ele>
        <time>2019-02-27T09:49:56Z</time>
      </trkpt>
      <trkpt lat="42.74144" lon="0.17838">
        <ele>2217</ele>
        <time>2019-02-27T09:49:57Z</time>
      </trkpt>
      <trkpt lat="42.74144" lon="0.17838">
        <ele>2217</ele>
        <time>2019-02-27T09:49:58Z</time>
      </trkpt>
      <trkpt lat="42.74144" lon="0.17838">
        <ele>2217</ele>
        <time>2019-02-27T09:49:59Z</time>
      </trkpt>
      <trkpt lat="42.74144" lon="0.17838">
        <ele>2218</ele>
        <time>2019-02-27T09:50:00Z</time>
      </trkpt>
      <trkpt lat="42.74144" lon="0.17838">
        <ele>2218</ele>
        <time>2019-02-27T09:50:01Z</time>
      </trkpt>
      <trkpt lat="42.74144" lon="0.17838">
        <ele>2218</ele>
        <time>2019-02-27T09:50:02Z</time>
      </trkpt>
      <trkpt lat="42.74144" lon="0.17838">
        <ele>2218</ele>
        <time>2019-02-27T09:50:03Z</time>
      </trkpt>
      <trkpt lat="42.74144" lon="0.17838">
        <ele>2218</ele>
        <time>2019-02-27T09:50:04Z</time>
      </trkpt>
      <trkpt lat="42.74144" lon="0.17838">
        <ele>2218</ele>
        <time>2019-02-27T09:50:05Z</time>
      </trkpt>
      <trkpt lat="42.74144" lon="0.17838">
        <ele>2218</ele>
        <time>2019-02-27T09:50:06Z</time>
      </trkpt>
      <trkpt lat="42.74144" lon="0.17838">
        <ele>2218</ele>
        <time>2019-02-27T09:50:07Z</time>
      </trkpt>
      <trkpt lat="42.74144" lon="0.17838">
        <ele>2218</ele>
        <time>2019-02-27T09:50:08Z</time>
      </trkpt>
      <trkpt lat="42.74144" lon="0.17838">
        <ele>2217</ele>
        <time>2019-02-27T09:50:09Z</time>
      </trkpt>
      <trkpt lat="42.74144" lon="0.17838">
        <ele>2217</ele>
        <time>2019-02-27T09:50:10Z</time>
      </trkpt>
      <trkpt lat="42.74144" lon="0.17838">
        <ele>2217</ele>
        <time>2019-02-27T09:50:11Z</time>
      </trkpt>
      <trkpt lat="42.74144" lon="0.17838">
        <ele>2218</ele>
        <time>2019-02-27T09:50:12Z</time>
      </trkpt>
      <trkpt lat="42.74144" lon="0.17838">
        <ele>2218</ele>
        <time>2019-02-27T09:50:13Z</time>
      </trkpt>
      <trkpt lat="42.74144" lon="0.17838">
        <ele>2218</ele>
        <time>2019-02-27T09:50:14Z</time>
      </trkpt>
      <trkpt lat="42.74144" lon="0.17838">
        <ele>2217</ele>
        <time>2019-02-27T09:50:15Z</time>
      </trkpt>
      <trkpt lat="42.74144" lon="0.17838">
        <ele>2217</ele>
        <time>2019-02-27T09:50:16Z</time>
      </trkpt>
      <trkpt lat="42.74144" lon="0.17838">
        <ele>2218</ele>
        <time>2019-02-27T09:50:17Z</time>
      </trkpt>
      <trkpt lat="42.74144" lon="0.17838">
        <ele>2218</ele>
        <time>2019-02-27T09:50:18Z</time>
      </trkpt>
      <trkpt lat="42.74144" lon="0.17838">
        <ele>2218</ele>
        <time>2019-02-27T09:50:19Z</time>
      </trkpt>
      <trkpt lat="42.74144" lon="0.17838">
        <ele>2218</ele>
        <time>2019-02-27T09:50:20Z</time>
      </trkpt>
      <trkpt lat="42.74144" lon="0.17838">
        <ele>2218</ele>
        <time>2019-02-27T09:50:21Z</time>
      </trkpt>
      <trkpt lat="42.74144" lon="0.17838">
        <ele>2218</ele>
        <time>2019-02-27T09:50:22Z</time>
      </trkpt>
      <trkpt lat="42.74144" lon="0.17838">
        <ele>2218</ele>
        <time>2019-02-27T09:50:23Z</time>
      </trkpt>
      <trkpt lat="42.74146" lon="0.17839">
        <ele>2218</ele>
        <time>2019-02-27T09:50:24Z</time>
      </trkpt>
      <trkpt lat="42.74146" lon="0.17839">
        <ele>2218</ele>
        <time>2019-02-27T09:50:25Z</time>
      </trkpt>
      <trkpt lat="42.74146" lon="0.17839">
        <ele>2218</ele>
        <time>2019-02-27T09:50:26Z</time>
      </trkpt>
      <trkpt lat="42.74146" lon="0.17839">
        <ele>2218</ele>
        <time>2019-02-27T09:50:27Z</time>
      </trkpt>
      <trkpt lat="42.74146" lon="0.17839">
        <ele>2217</ele>
        <time>2019-02-27T09:50:28Z</time>
      </trkpt>
      <trkpt lat="42.74146" lon="0.17839">
        <ele>2217</ele>
        <time>2019-02-27T09:50:29Z</time>
      </trkpt>
      <trkpt lat="42.74146" lon="0.17839">
        <ele>2217</ele>
        <time>2019-02-27T09:50:30Z</time>
      </trkpt>
      <trkpt lat="42.74146" lon="0.17839">
        <ele>2217</ele>
        <time>2019-02-27T09:50:31Z</time>
      </trkpt>
      <trkpt lat="42.74146" lon="0.17839">
        <ele>2217</ele>
        <time>2019-02-27T09:50:32Z</time>
      </trkpt>
      <trkpt lat="42.74146" lon="0.17839">
        <ele>2217</ele>
        <time>2019-02-27T09:50:33Z</time>
      </trkpt>
      <trkpt lat="42.74146" lon="0.17839">
        <ele>2217</ele>
        <time>2019-02-27T09:50:34Z</time>
      </trkpt>
      <trkpt lat="42.74146" lon="0.17839">
        <ele>2218</ele>
        <time>2019-02-27T09:50:35Z</time>
      </trkpt>
      <trkpt lat="42.74146" lon="0.17839">
        <ele>2218</ele>
        <time>2019-02-27T09:50:36Z</time>
      </trkpt>
      <trkpt lat="42.74146" lon="0.17839">
        <ele>2218</ele>
        <time>2019-02-27T09:50:37Z</time>
      </trkpt>
      <trkpt lat="42.74146" lon="0.17839">
        <ele>2217</ele>
        <time>2019-02-27T09:50:38Z</time>
      </trkpt>
      <trkpt lat="42.74146" lon="0.17839">
        <ele>2217</ele>
        <time>2019-02-27T09:50:39Z</time>
      </trkpt>
      <trkpt lat="42.74146" lon="0.17839">
        <ele>2217</ele>
        <time>2019-02-27T09:50:40Z</time>
      </trkpt>
      <trkpt lat="42.74146" lon="0.17839">
        <ele>2217</ele>
        <time>2019-02-27T09:50:41Z</time>
      </trkpt>
      <trkpt lat="42.74146" lon="0.17839">
        <ele>2218</ele>
        <time>2019-02-27T09:50:42Z</time>
      </trkpt>
      <trkpt lat="42.74146" lon="0.17839">
        <ele>2218</ele>
        <time>2019-02-27T09:50:43Z</time>
      </trkpt>
      <trkpt lat="42.74146" lon="0.17839">
        <ele>2218</ele>
        <time>2019-02-27T09:50:44Z</time>
      </trkpt>
      <trkpt lat="42.74146" lon="0.17839">
        <ele>2218</ele>
        <time>2019-02-27T09:50:45Z</time>
      </trkpt>
      <trkpt lat="42.74146" lon="0.17839">
        <ele>2218</ele>
        <time>2019-02-27T09:50:46Z</time>
      </trkpt>
      <trkpt lat="42.74146" lon="0.17839">
        <ele>2218</ele>
        <time>2019-02-27T09:50:47Z</time>
      </trkpt>
      <trkpt lat="42.74146" lon="0.17839">
        <ele>2218</ele>
        <time>2019-02-27T09:50:48Z</time>
      </trkpt>
      <trkpt lat="42.74146" lon="0.17839">
        <ele>2218</ele>
        <time>2019-02-27T09:50:49Z</time>
      </trkpt>
      <trkpt lat="42.74146" lon="0.17839">
        <ele>2218</ele>
        <time>2019-02-27T09:50:50Z</time>
      </trkpt>
      <trkpt lat="42.74146" lon="0.17839">
        <ele>2218</ele>
        <time>2019-02-27T09:50:51Z</time>
      </trkpt>
      <trkpt lat="42.74146" lon="0.17839">
        <ele>2217</ele>
        <time>2019-02-27T09:50:52Z</time>
      </trkpt>
      <trkpt lat="42.74146" lon="0.17839">
        <ele>2217</ele>
        <time>2019-02-27T09:50:53Z</time>
      </trkpt>
      <trkpt lat="42.74146" lon="0.17839">
        <ele>2217</ele>
        <time>2019-02-27T09:50:54Z</time>
      </trkpt>
      <trkpt lat="42.74146" lon="0.17839">
        <ele>2217</ele>
        <time>2019-02-27T09:50:55Z</time>
      </trkpt>
      <trkpt lat="42.74146" lon="0.17839">
        <ele>2217</ele>
        <time>2019-02-27T09:50:56Z</time>
      </trkpt>
      <trkpt lat="42.74146" lon="0.17839">
        <ele>2218</ele>
        <time>2019-02-27T09:50:57Z</time>
      </trkpt>
      <trkpt lat="42.74146" lon="0.17839">
        <ele>2218</ele>
        <time>2019-02-27T09:50:58Z</time>
      </trkpt>
      <trkpt lat="42.74146" lon="0.17839">
        <ele>2218</ele>
        <time>2019-02-27T09:50:59Z</time>
      </trkpt>
      <trkpt lat="42.74144" lon="0.17837">
        <ele>2217</ele>
        <time>2019-02-27T09:51:00Z</time>
      </trkpt>
      <trkpt lat="42.74144" lon="0.17837">
        <ele>2218</ele>
        <time>2019-02-27T09:51:01Z</time>
      </trkpt>
      <trkpt lat="42.74144" lon="0.17837">
        <ele>2218</ele>
        <time>2019-02-27T09:51:02Z</time>
      </trkpt>
      <trkpt lat="42.74144" lon="0.17837">
        <ele>2217</ele>
        <time>2019-02-27T09:51:03Z</time>
      </trkpt>
      <trkpt lat="42.74144" lon="0.17837">
        <ele>2217</ele>
        <time>2019-02-27T09:51:04Z</time>
      </trkpt>
      <trkpt lat="42.74144" lon="0.17837">
        <ele>2217</ele>
        <time>2019-02-27T09:51:05Z</time>
      </trkpt>
      <trkpt lat="42.74144" lon="0.17837">
        <ele>2218</ele>
        <time>2019-02-27T09:51:06Z</time>
      </trkpt>
      <trkpt lat="42.74144" lon="0.17837">
        <ele>2218</ele>
        <time>2019-02-27T09:51:07Z</time>
      </trkpt>
      <trkpt lat="42.74144" lon="0.17837">
        <ele>2218</ele>
        <time>2019-02-27T09:51:08Z</time>
      </trkpt>
      <trkpt lat="42.74144" lon="0.17837">
        <ele>2218</ele>
        <time>2019-02-27T09:51:09Z</time>
      </trkpt>
      <trkpt lat="42.74144" lon="0.17837">
        <ele>2218</ele>
        <time>2019-02-27T09:51:10Z</time>
      </trkpt>
      <trkpt lat="42.74144" lon="0.17837">
        <ele>2218</ele>
        <time>2019-02-27T09:51:11Z</time>
      </trkpt>
      <trkpt lat="42.74144" lon="0.17837">
        <ele>2218</ele>
        <time>2019-02-27T09:51:12Z</time>
      </trkpt>
      <trkpt lat="42.74144" lon="0.17837">
        <ele>2218</ele>
        <time>2019-02-27T09:51:13Z</time>
      </trkpt>
      <trkpt lat="42.74144" lon="0.17837">
        <ele>2218</ele>
        <time>2019-02-27T09:51:14Z</time>
      </trkpt>
      <trkpt lat="42.74144" lon="0.17837">
        <ele>2218</ele>
        <time>2019-02-27T09:51:15Z</time>
      </trkpt>
      <trkpt lat="42.74144" lon="0.17837">
        <ele>2218</ele>
        <time>2019-02-27T09:51:16Z</time>
      </trkpt>
      <trkpt lat="42.74144" lon="0.17837">
        <ele>2218</ele>
        <time>2019-02-27T09:51:17Z</time>
      </trkpt>
      <trkpt lat="42.74144" lon="0.17837">
        <ele>2218</ele>
        <time>2019-02-27T09:51:18Z</time>
      </trkpt>
      <trkpt lat="42.74144" lon="0.17837">
        <ele>2218</ele>
        <time>2019-02-27T09:51:19Z</time>
      </trkpt>
      <trkpt lat="42.74144" lon="0.17837">
        <ele>2218</ele>
        <time>2019-02-27T09:51:20Z</time>
      </trkpt>
      <trkpt lat="42.74144" lon="0.17837">
        <ele>2218</ele>
        <time>2019-02-27T09:51:21Z</time>
      </trkpt>
      <trkpt lat="42.74144" lon="0.17837">
        <ele>2217</ele>
        <time>2019-02-27T09:51:22Z</time>
      </trkpt>
      <trkpt lat="42.74144" lon="0.17837">
        <ele>2218</ele>
        <time>2019-02-27T09:51:23Z</time>
      </trkpt>
      <trkpt lat="42.74144" lon="0.17837">
        <ele>2218</ele>
        <time>2019-02-27T09:51:24Z</time>
      </trkpt>
      <trkpt lat="42.74144" lon="0.17837">
        <ele>2218</ele>
        <time>2019-02-27T09:51:25Z</time>
      </trkpt>
      <trkpt lat="42.74144" lon="0.17837">
        <ele>2218</ele>
        <time>2019-02-27T09:51:26Z</time>
      </trkpt>
      <trkpt lat="42.74143" lon="0.17836">
        <ele>2218</ele>
        <time>2019-02-27T09:51:27Z</time>
      </trkpt>
      <trkpt lat="42.74143" lon="0.17836">
        <ele>2218</ele>
        <time>2019-02-27T09:51:28Z</time>
      </trkpt>
      <trkpt lat="42.74143" lon="0.17836">
        <ele>2218</ele>
        <time>2019-02-27T09:51:29Z</time>
      </trkpt>
      <trkpt lat="42.74143" lon="0.17836">
        <ele>2218</ele>
        <time>2019-02-27T09:51:30Z</time>
      </trkpt>
      <trkpt lat="42.7414" lon="0.17835">
        <ele>2218</ele>
        <time>2019-02-27T09:51:31Z</time>
      </trkpt>
      <trkpt lat="42.7414" lon="0.17835">
        <ele>2218</ele>
        <time>2019-02-27T09:51:32Z</time>
      </trkpt>
      <trkpt lat="42.74138" lon="0.17835">
        <ele>2218</ele>
        <time>2019-02-27T09:51:33Z</time>
      </trkpt>
      <trkpt lat="42.74138" lon="0.17835">
        <ele>2218</ele>
        <time>2019-02-27T09:51:34Z</time>
      </trkpt>
      <trkpt lat="42.74135" lon="0.17835">
        <ele>2218</ele>
        <time>2019-02-27T09:51:35Z</time>
      </trkpt>
      <trkpt lat="42.74135" lon="0.17835">
        <ele>2218</ele>
        <time>2019-02-27T09:51:36Z</time>
      </trkpt>
      <trkpt lat="42.74133" lon="0.17836">
        <ele>2218</ele>
        <time>2019-02-27T09:51:37Z</time>
      </trkpt>
      <trkpt lat="42.74133" lon="0.17836">
        <ele>2217</ele>
        <time>2019-02-27T09:51:38Z</time>
      </trkpt>
      <trkpt lat="42.7413" lon="0.17836">
        <ele>2217</ele>
        <time>2019-02-27T09:51:39Z</time>
      </trkpt>
      <trkpt lat="42.7413" lon="0.17836">
        <ele>2217</ele>
        <time>2019-02-27T09:51:40Z</time>
      </trkpt>
      <trkpt lat="42.7413" lon="0.17836">
        <ele>2217</ele>
        <time>2019-02-27T09:51:41Z</time>
      </trkpt>
      <trkpt lat="42.7413" lon="0.17836">
        <ele>2217</ele>
        <time>2019-02-27T09:51:42Z</time>
      </trkpt>
      <trkpt lat="42.7413" lon="0.17836">
        <ele>2217</ele>
        <time>2019-02-27T09:51:43Z</time>
      </trkpt>
      <trkpt lat="42.7413" lon="0.17836">
        <ele>2217</ele>
        <time>2019-02-27T09:51:44Z</time>
      </trkpt>
      <trkpt lat="42.7413" lon="0.17836">
        <ele>2217</ele>
        <time>2019-02-27T09:51:45Z</time>
      </trkpt>
      <trkpt lat="42.7413" lon="0.17836">
        <ele>2217</ele>
        <time>2019-02-27T09:51:46Z</time>
      </trkpt>
      <trkpt lat="42.7413" lon="0.17836">
        <ele>2216</ele>
        <time>2019-02-27T09:51:47Z</time>
      </trkpt>
      <trkpt lat="42.7413" lon="0.17836">
        <ele>2216</ele>
        <time>2019-02-27T09:51:48Z</time>
      </trkpt>
      <trkpt lat="42.7413" lon="0.17836">
        <ele>2216</ele>
        <time>2019-02-27T09:51:49Z</time>
      </trkpt>
      <trkpt lat="42.7413" lon="0.17836">
        <ele>2216</ele>
        <time>2019-02-27T09:51:50Z</time>
      </trkpt>
      <trkpt lat="42.7413" lon="0.17836">
        <ele>2216</ele>
        <time>2019-02-27T09:51:51Z</time>
      </trkpt>
      <trkpt lat="42.7413" lon="0.17836">
        <ele>2216</ele>
        <time>2019-02-27T09:51:52Z</time>
      </trkpt>
      <trkpt lat="42.7413" lon="0.17836">
        <ele>2216</ele>
        <time>2019-02-27T09:51:53Z</time>
      </trkpt>
      <trkpt lat="42.7413" lon="0.17836">
        <ele>2216</ele>
        <time>2019-02-27T09:51:54Z</time>
      </trkpt>
      <trkpt lat="42.7413" lon="0.17836">
        <ele>2216</ele>
        <time>2019-02-27T09:51:55Z</time>
      </trkpt>
      <trkpt lat="42.7413" lon="0.17836">
        <ele>2216</ele>
        <time>2019-02-27T09:51:56Z</time>
      </trkpt>
      <trkpt lat="42.7413" lon="0.17836">
        <ele>2216</ele>
        <time>2019-02-27T09:51:57Z</time>
      </trkpt>
      <trkpt lat="42.7413" lon="0.17836">
        <ele>2216</ele>
        <time>2019-02-27T09:51:58Z</time>
      </trkpt>
      <trkpt lat="42.7413" lon="0.17836">
        <ele>2216</ele>
        <time>2019-02-27T09:51:59Z</time>
      </trkpt>
      <trkpt lat="42.7413" lon="0.17836">
        <ele>2216</ele>
        <time>2019-02-27T09:52:00Z</time>
      </trkpt>
      <trkpt lat="42.7413" lon="0.17836">
        <ele>2216</ele>
        <time>2019-02-27T09:52:01Z</time>
      </trkpt>
      <trkpt lat="42.7413" lon="0.17836">
        <ele>2216</ele>
        <time>2019-02-27T09:52:02Z</time>
      </trkpt>
      <trkpt lat="42.7413" lon="0.17836">
        <ele>2216</ele>
        <time>2019-02-27T09:52:03Z</time>
      </trkpt>
      <trkpt lat="42.7413" lon="0.17836">
        <ele>2216</ele>
        <time>2019-02-27T09:52:04Z</time>
      </trkpt>
      <trkpt lat="42.7413" lon="0.17836">
        <ele>2216</ele>
        <time>2019-02-27T09:52:05Z</time>
      </trkpt>
      <trkpt lat="42.7413" lon="0.17836">
        <ele>2216</ele>
        <time>2019-02-27T09:52:06Z</time>
      </trkpt>
      <trkpt lat="42.7413" lon="0.17836">
        <ele>2216</ele>
        <time>2019-02-27T09:52:07Z</time>
      </trkpt>
      <trkpt lat="42.7413" lon="0.17836">
        <ele>2216</ele>
        <time>2019-02-27T09:52:08Z</time>
      </trkpt>
      <trkpt lat="42.7413" lon="0.17836">
        <ele>2216</ele>
        <time>2019-02-27T09:52:09Z</time>
      </trkpt>
      <trkpt lat="42.7413" lon="0.17836">
        <ele>2216</ele>
        <time>2019-02-27T09:52:10Z</time>
      </trkpt>
      <trkpt lat="42.7413" lon="0.17836">
        <ele>2216</ele>
        <time>2019-02-27T09:52:11Z</time>
      </trkpt>
      <trkpt lat="42.7413" lon="0.17836">
        <ele>2216</ele>
        <time>2019-02-27T09:52:12Z</time>
      </trkpt>
      <trkpt lat="42.7413" lon="0.17836">
        <ele>2216</ele>
        <time>2019-02-27T09:52:13Z</time>
      </trkpt>
      <trkpt lat="42.7413" lon="0.17836">
        <ele>2216</ele>
        <time>2019-02-27T09:52:14Z</time>
      </trkpt>
      <trkpt lat="42.7413" lon="0.17836">
        <ele>2216</ele>
        <time>2019-02-27T09:52:15Z</time>
      </trkpt>
      <trkpt lat="42.7413" lon="0.17836">
        <ele>2216</ele>
        <time>2019-02-27T09:52:16Z</time>
      </trkpt>
      <trkpt lat="42.7413" lon="0.17836">
        <ele>2216</ele>
        <time>2019-02-27T09:52:17Z</time>
      </trkpt>
      <trkpt lat="42.7413" lon="0.17836">
        <ele>2216</ele>
        <time>2019-02-27T09:52:18Z</time>
      </trkpt>
      <trkpt lat="42.7413" lon="0.17836">
        <ele>2216</ele>
        <time>2019-02-27T09:52:19Z</time>
      </trkpt>
      <trkpt lat="42.7413" lon="0.17836">
        <ele>2216</ele>
        <time>2019-02-27T09:52:20Z</time>
      </trkpt>
      <trkpt lat="42.7413" lon="0.17836">
        <ele>2217</ele>
        <time>2019-02-27T09:52:21Z</time>
      </trkpt>
      <trkpt lat="42.7413" lon="0.17836">
        <ele>2217</ele>
        <time>2019-02-27T09:52:22Z</time>
      </trkpt>
      <trkpt lat="42.7413" lon="0.17836">
        <ele>2217</ele>
        <time>2019-02-27T09:52:23Z</time>
      </trkpt>
      <trkpt lat="42.7413" lon="0.17836">
        <ele>2217</ele>
        <time>2019-02-27T09:52:24Z</time>
      </trkpt>
      <trkpt lat="42.7413" lon="0.17836">
        <ele>2217</ele>
        <time>2019-02-27T09:52:25Z</time>
      </trkpt>
      <trkpt lat="42.7413" lon="0.17836">
        <ele>2216</ele>
        <time>2019-02-27T09:52:26Z</time>
      </trkpt>
      <trkpt lat="42.7413" lon="0.17836">
        <ele>2216</ele>
        <time>2019-02-27T09:52:27Z</time>
      </trkpt>
      <trkpt lat="42.7413" lon="0.17836">
        <ele>2216</ele>
        <time>2019-02-27T09:52:28Z</time>
      </trkpt>
      <trkpt lat="42.7413" lon="0.17836">
        <ele>2216</ele>
        <time>2019-02-27T09:52:29Z</time>
      </trkpt>
      <trkpt lat="42.7413" lon="0.17836">
        <ele>2216</ele>
        <time>2019-02-27T09:52:30Z</time>
      </trkpt>
      <trkpt lat="42.7413" lon="0.17836">
        <ele>2216</ele>
        <time>2019-02-27T09:52:31Z</time>
      </trkpt>
      <trkpt lat="42.7413" lon="0.17836">
        <ele>2216</ele>
        <time>2019-02-27T09:52:32Z</time>
      </trkpt>
      <trkpt lat="42.7413" lon="0.17836">
        <ele>2216</ele>
        <time>2019-02-27T09:52:33Z</time>
      </trkpt>
      <trkpt lat="42.7413" lon="0.17836">
        <ele>2216</ele>
        <time>2019-02-27T09:52:34Z</time>
      </trkpt>
      <trkpt lat="42.7413" lon="0.17836">
        <ele>2216</ele>
        <time>2019-02-27T09:52:35Z</time>
      </trkpt>
      <trkpt lat="42.7413" lon="0.17836">
        <ele>2217</ele>
        <time>2019-02-27T09:52:36Z</time>
      </trkpt>
      <trkpt lat="42.7413" lon="0.17836">
        <ele>2217</ele>
        <time>2019-02-27T09:52:37Z</time>
      </trkpt>
      <trkpt lat="42.7413" lon="0.17836">
        <ele>2217</ele>
        <time>2019-02-27T09:52:38Z</time>
      </trkpt>
      <trkpt lat="42.7413" lon="0.17836">
        <ele>2217</ele>
        <time>2019-02-27T09:52:39Z</time>
      </trkpt>
      <trkpt lat="42.7413" lon="0.17836">
        <ele>2217</ele>
        <time>2019-02-27T09:52:40Z</time>
      </trkpt>
      <trkpt lat="42.7413" lon="0.17836">
        <ele>2217</ele>
        <time>2019-02-27T09:52:41Z</time>
      </trkpt>
      <trkpt lat="42.7413" lon="0.17836">
        <ele>2217</ele>
        <time>2019-02-27T09:52:42Z</time>
      </trkpt>
      <trkpt lat="42.7413" lon="0.17836">
        <ele>2217</ele>
        <time>2019-02-27T09:52:43Z</time>
      </trkpt>
      <trkpt lat="42.7413" lon="0.17836">
        <ele>2217</ele>
        <time>2019-02-27T09:52:44Z</time>
      </trkpt>
      <trkpt lat="42.7413" lon="0.17836">
        <ele>2217</ele>
        <time>2019-02-27T09:52:45Z</time>
      </trkpt>
      <trkpt lat="42.7413" lon="0.17836">
        <ele>2217</ele>
        <time>2019-02-27T09:52:46Z</time>
      </trkpt>
      <trkpt lat="42.7413" lon="0.17836">
        <ele>2217</ele>
        <time>2019-02-27T09:52:47Z</time>
      </trkpt>
      <trkpt lat="42.7413" lon="0.17836">
        <ele>2217</ele>
        <time>2019-02-27T09:52:48Z</time>
      </trkpt>
      <trkpt lat="42.7413" lon="0.17836">
        <ele>2217</ele>
        <time>2019-02-27T09:52:49Z</time>
      </trkpt>
      <trkpt lat="42.7413" lon="0.17836">
        <ele>2217</ele>
        <time>2019-02-27T09:52:50Z</time>
      </trkpt>
      <trkpt lat="42.7413" lon="0.17836">
        <ele>2217</ele>
        <time>2019-02-27T09:52:51Z</time>
      </trkpt>
      <trkpt lat="42.7413" lon="0.17836">
        <ele>2217</ele>
        <time>2019-02-27T09:52:52Z</time>
      </trkpt>
      <trkpt lat="42.7413" lon="0.17836">
        <ele>2217</ele>
        <time>2019-02-27T09:52:53Z</time>
      </trkpt>
      <trkpt lat="42.7413" lon="0.17836">
        <ele>2217</ele>
        <time>2019-02-27T09:52:54Z</time>
      </trkpt>
      <trkpt lat="42.7413" lon="0.17836">
        <ele>2216</ele>
        <time>2019-02-27T09:52:55Z</time>
      </trkpt>
      <trkpt lat="42.7413" lon="0.17836">
        <ele>2216</ele>
        <time>2019-02-27T09:52:56Z</time>
      </trkpt>
      <trkpt lat="42.7413" lon="0.17836">
        <ele>2216</ele>
        <time>2019-02-27T09:52:57Z</time>
      </trkpt>
      <trkpt lat="42.7413" lon="0.17836">
        <ele>2217</ele>
        <time>2019-02-27T09:52:58Z</time>
      </trkpt>
      <trkpt lat="42.7413" lon="0.17836">
        <ele>2217</ele>
        <time>2019-02-27T09:52:59Z</time>
      </trkpt>
      <trkpt lat="42.7413" lon="0.17836">
        <ele>2217</ele>
        <time>2019-02-27T09:53:00Z</time>
      </trkpt>
      <trkpt lat="42.7413" lon="0.17836">
        <ele>2217</ele>
        <time>2019-02-27T09:53:01Z</time>
      </trkpt>
      <trkpt lat="42.7413" lon="0.17836">
        <ele>2217</ele>
        <time>2019-02-27T09:53:02Z</time>
      </trkpt>
      <trkpt lat="42.7413" lon="0.17836">
        <ele>2217</ele>
        <time>2019-02-27T09:53:03Z</time>
      </trkpt>
      <trkpt lat="42.7413" lon="0.17836">
        <ele>2217</ele>
        <time>2019-02-27T09:53:04Z</time>
      </trkpt>
      <trkpt lat="42.7413" lon="0.17836">
        <ele>2217</ele>
        <time>2019-02-27T09:53:05Z</time>
      </trkpt>
      <trkpt lat="42.7413" lon="0.17836">
        <ele>2217</ele>
        <time>2019-02-27T09:53:06Z</time>
      </trkpt>
      <trkpt lat="42.7413" lon="0.17836">
        <ele>2217</ele>
        <time>2019-02-27T09:53:07Z</time>
      </trkpt>
      <trkpt lat="42.7413" lon="0.17836">
        <ele>2217</ele>
        <time>2019-02-27T09:53:08Z</time>
      </trkpt>
      <trkpt lat="42.7413" lon="0.17836">
        <ele>2217</ele>
        <time>2019-02-27T09:53:09Z</time>
      </trkpt>
      <trkpt lat="42.7413" lon="0.17836">
        <ele>2217</ele>
        <time>2019-02-27T09:53:10Z</time>
      </trkpt>
      <trkpt lat="42.7413" lon="0.17836">
        <ele>2217</ele>
        <time>2019-02-27T09:53:11Z</time>
      </trkpt>
      <trkpt lat="42.7413" lon="0.17836">
        <ele>2217</ele>
        <time>2019-02-27T09:53:12Z</time>
      </trkpt>
      <trkpt lat="42.7413" lon="0.17836">
        <ele>2217</ele>
        <time>2019-02-27T09:53:13Z</time>
      </trkpt>
      <trkpt lat="42.7413" lon="0.17836">
        <ele>2217</ele>
        <time>2019-02-27T09:53:14Z</time>
      </trkpt>
      <trkpt lat="42.7413" lon="0.17836">
        <ele>2217</ele>
        <time>2019-02-27T09:53:15Z</time>
      </trkpt>
      <trkpt lat="42.7413" lon="0.17836">
        <ele>2217</ele>
        <time>2019-02-27T09:53:16Z</time>
      </trkpt>
      <trkpt lat="42.7413" lon="0.17836">
        <ele>2217</ele>
        <time>2019-02-27T09:53:17Z</time>
      </trkpt>
      <trkpt lat="42.7413" lon="0.17836">
        <ele>2217</ele>
        <time>2019-02-27T09:53:18Z</time>
      </trkpt>
      <trkpt lat="42.7413" lon="0.17836">
        <ele>2217</ele>
        <time>2019-02-27T09:53:19Z</time>
      </trkpt>
      <trkpt lat="42.7413" lon="0.17836">
        <ele>2217</ele>
        <time>2019-02-27T09:53:20Z</time>
      </trkpt>
      <trkpt lat="42.7413" lon="0.17836">
        <ele>2217</ele>
        <time>2019-02-27T09:53:21Z</time>
      </trkpt>
      <trkpt lat="42.7413" lon="0.17836">
        <ele>2217</ele>
        <time>2019-02-27T09:53:22Z</time>
      </trkpt>
      <trkpt lat="42.7413" lon="0.17836">
        <ele>2217</ele>
        <time>2019-02-27T09:53:23Z</time>
      </trkpt>
      <trkpt lat="42.7413" lon="0.17836">
        <ele>2217</ele>
        <time>2019-02-27T09:53:24Z</time>
      </trkpt>
      <trkpt lat="42.7413" lon="0.17836">
        <ele>2217</ele>
        <time>2019-02-27T09:53:25Z</time>
      </trkpt>
      <trkpt lat="42.7413" lon="0.17836">
        <ele>2217</ele>
        <time>2019-02-27T09:53:26Z</time>
      </trkpt>
      <trkpt lat="42.7413" lon="0.17836">
        <ele>2217</ele>
        <time>2019-02-27T09:53:27Z</time>
      </trkpt>
      <trkpt lat="42.7413" lon="0.17836">
        <ele>2217</ele>
        <time>2019-02-27T09:53:28Z</time>
      </trkpt>
      <trkpt lat="42.7413" lon="0.17836">
        <ele>2217</ele>
        <time>2019-02-27T09:53:29Z</time>
      </trkpt>
      <trkpt lat="42.7413" lon="0.17836">
        <ele>2217</ele>
        <time>2019-02-27T09:53:30Z</time>
      </trkpt>
      <trkpt lat="42.7413" lon="0.17836">
        <ele>2217</ele>
        <time>2019-02-27T09:53:31Z</time>
      </trkpt>
      <trkpt lat="42.7413" lon="0.17836">
        <ele>2217</ele>
        <time>2019-02-27T09:53:32Z</time>
      </trkpt>
      <trkpt lat="42.7413" lon="0.17836">
        <ele>2217</ele>
        <time>2019-02-27T09:53:33Z</time>
      </trkpt>
      <trkpt lat="42.7413" lon="0.17836">
        <ele>2217</ele>
        <time>2019-02-27T09:53:34Z</time>
      </trkpt>
      <trkpt lat="42.7413" lon="0.17836">
        <ele>2216</ele>
        <time>2019-02-27T09:53:35Z</time>
      </trkpt>
      <trkpt lat="42.7413" lon="0.17836">
        <ele>2216</ele>
        <time>2019-02-27T09:53:36Z</time>
      </trkpt>
      <trkpt lat="42.7413" lon="0.17836">
        <ele>2216</ele>
        <time>2019-02-27T09:53:37Z</time>
      </trkpt>
      <trkpt lat="42.7413" lon="0.17836">
        <ele>2216</ele>
        <time>2019-02-27T09:53:38Z</time>
      </trkpt>
      <trkpt lat="42.7413" lon="0.17836">
        <ele>2217</ele>
        <time>2019-02-27T09:53:39Z</time>
      </trkpt>
      <trkpt lat="42.7413" lon="0.17836">
        <ele>2217</ele>
        <time>2019-02-27T09:53:40Z</time>
      </trkpt>
      <trkpt lat="42.7413" lon="0.17836">
        <ele>2216</ele>
        <time>2019-02-27T09:53:41Z</time>
      </trkpt>
      <trkpt lat="42.7413" lon="0.17836">
        <ele>2216</ele>
        <time>2019-02-27T09:53:42Z</time>
      </trkpt>
      <trkpt lat="42.7413" lon="0.17836">
        <ele>2216</ele>
        <time>2019-02-27T09:53:43Z</time>
      </trkpt>
      <trkpt lat="42.7413" lon="0.17836">
        <ele>2216</ele>
        <time>2019-02-27T09:53:44Z</time>
      </trkpt>
      <trkpt lat="42.7413" lon="0.17836">
        <ele>2216</ele>
        <time>2019-02-27T09:53:45Z</time>
      </trkpt>
      <trkpt lat="42.7413" lon="0.17836">
        <ele>2216</ele>
        <time>2019-02-27T09:53:46Z</time>
      </trkpt>
      <trkpt lat="42.7413" lon="0.17836">
        <ele>2217</ele>
        <time>2019-02-27T09:53:47Z</time>
      </trkpt>
      <trkpt lat="42.7413" lon="0.17836">
        <ele>2217</ele>
        <time>2019-02-27T09:53:48Z</time>
      </trkpt>
      <trkpt lat="42.7413" lon="0.17836">
        <ele>2217</ele>
        <time>2019-02-27T09:53:49Z</time>
      </trkpt>
      <trkpt lat="42.7413" lon="0.17836">
        <ele>2217</ele>
        <time>2019-02-27T09:53:50Z</time>
      </trkpt>
      <trkpt lat="42.7413" lon="0.17836">
        <ele>2217</ele>
        <time>2019-02-27T09:53:51Z</time>
      </trkpt>
      <trkpt lat="42.7413" lon="0.17836">
        <ele>2217</ele>
        <time>2019-02-27T09:53:52Z</time>
      </trkpt>
      <trkpt lat="42.7413" lon="0.17836">
        <ele>2217</ele>
        <time>2019-02-27T09:53:53Z</time>
      </trkpt>
      <trkpt lat="42.7413" lon="0.17836">
        <ele>2217</ele>
        <time>2019-02-27T09:53:54Z</time>
      </trkpt>
      <trkpt lat="42.7413" lon="0.17836">
        <ele>2217</ele>
        <time>2019-02-27T09:53:55Z</time>
      </trkpt>
      <trkpt lat="42.7413" lon="0.17836">
        <ele>2217</ele>
        <time>2019-02-27T09:53:56Z</time>
      </trkpt>
      <trkpt lat="42.7413" lon="0.17836">
        <ele>2217</ele>
        <time>2019-02-27T09:53:57Z</time>
      </trkpt>
      <trkpt lat="42.7413" lon="0.17836">
        <ele>2217</ele>
        <time>2019-02-27T09:53:58Z</time>
      </trkpt>
      <trkpt lat="42.7413" lon="0.17836">
        <ele>2217</ele>
        <time>2019-02-27T09:53:59Z</time>
      </trkpt>
      <trkpt lat="42.7413" lon="0.17836">
        <ele>2217</ele>
        <time>2019-02-27T09:54:00Z</time>
      </trkpt>
      <trkpt lat="42.7413" lon="0.17836">
        <ele>2217</ele>
        <time>2019-02-27T09:54:01Z</time>
      </trkpt>
      <trkpt lat="42.7413" lon="0.17836">
        <ele>2217</ele>
        <time>2019-02-27T09:54:02Z</time>
      </trkpt>
      <trkpt lat="42.7413" lon="0.17836">
        <ele>2217</ele>
        <time>2019-02-27T09:54:03Z</time>
      </trkpt>
      <trkpt lat="42.7413" lon="0.17836">
        <ele>2217</ele>
        <time>2019-02-27T09:54:04Z</time>
      </trkpt>
      <trkpt lat="42.7413" lon="0.17836">
        <ele>2216</ele>
        <time>2019-02-27T09:54:05Z</time>
      </trkpt>
      <trkpt lat="42.7413" lon="0.17836">
        <ele>2216</ele>
        <time>2019-02-27T09:54:06Z</time>
      </trkpt>
      <trkpt lat="42.7413" lon="0.17836">
        <ele>2216</ele>
        <time>2019-02-27T09:54:07Z</time>
      </trkpt>
      <trkpt lat="42.7413" lon="0.17836">
        <ele>2216</ele>
        <time>2019-02-27T09:54:08Z</time>
      </trkpt>
      <trkpt lat="42.7413" lon="0.17836">
        <ele>2216</ele>
        <time>2019-02-27T09:54:09Z</time>
      </trkpt>
      <trkpt lat="42.7413" lon="0.17836">
        <ele>2216</ele>
        <time>2019-02-27T09:54:10Z</time>
      </trkpt>
      <trkpt lat="42.7413" lon="0.17836">
        <ele>2216</ele>
        <time>2019-02-27T09:54:11Z</time>
      </trkpt>
      <trkpt lat="42.7413" lon="0.17836">
        <ele>2216</ele>
        <time>2019-02-27T09:54:12Z</time>
      </trkpt>
      <trkpt lat="42.7413" lon="0.17836">
        <ele>2216</ele>
        <time>2019-02-27T09:54:13Z</time>
      </trkpt>
      <trkpt lat="42.7413" lon="0.17836">
        <ele>2216</ele>
        <time>2019-02-27T09:54:14Z</time>
      </trkpt>
      <trkpt lat="42.7413" lon="0.17836">
        <ele>2216</ele>
        <time>2019-02-27T09:54:15Z</time>
      </trkpt>
      <trkpt lat="42.7413" lon="0.17836">
        <ele>2217</ele>
        <time>2019-02-27T09:54:16Z</time>
      </trkpt>
      <trkpt lat="42.7413" lon="0.17836">
        <ele>2217</ele>
        <time>2019-02-27T09:54:17Z</time>
      </trkpt>
      <trkpt lat="42.7413" lon="0.17836">
        <ele>2217</ele>
        <time>2019-02-27T09:54:18Z</time>
      </trkpt>
      <trkpt lat="42.7413" lon="0.17836">
        <ele>2216</ele>
        <time>2019-02-27T09:54:19Z</time>
      </trkpt>
      <trkpt lat="42.7413" lon="0.17836">
        <ele>2216</ele>
        <time>2019-02-27T09:54:20Z</time>
      </trkpt>
      <trkpt lat="42.7413" lon="0.17836">
        <ele>2216</ele>
        <time>2019-02-27T09:54:21Z</time>
      </trkpt>
      <trkpt lat="42.7413" lon="0.17836">
        <ele>2217</ele>
        <time>2019-02-27T09:54:22Z</time>
      </trkpt>
      <trkpt lat="42.7413" lon="0.17836">
        <ele>2217</ele>
        <time>2019-02-27T09:54:23Z</time>
      </trkpt>
      <trkpt lat="42.7413" lon="0.17836">
        <ele>2217</ele>
        <time>2019-02-27T09:54:24Z</time>
      </trkpt>
      <trkpt lat="42.7413" lon="0.17836">
        <ele>2216</ele>
        <time>2019-02-27T09:54:25Z</time>
      </trkpt>
      <trkpt lat="42.7413" lon="0.17836">
        <ele>2216</ele>
        <time>2019-02-27T09:54:26Z</time>
      </trkpt>
      <trkpt lat="42.7413" lon="0.17836">
        <ele>2216</ele>
        <time>2019-02-27T09:54:27Z</time>
      </trkpt>
      <trkpt lat="42.7413" lon="0.17836">
        <ele>2216</ele>
        <time>2019-02-27T09:54:28Z</time>
      </trkpt>
      <trkpt lat="42.7413" lon="0.17836">
        <ele>2216</ele>
        <time>2019-02-27T09:54:29Z</time>
      </trkpt>
      <trkpt lat="42.7413" lon="0.17836">
        <ele>2217</ele>
        <time>2019-02-27T09:54:30Z</time>
      </trkpt>
      <trkpt lat="42.7413" lon="0.17836">
        <ele>2217</ele>
        <time>2019-02-27T09:54:31Z</time>
      </trkpt>
      <trkpt lat="42.7413" lon="0.17836">
        <ele>2217</ele>
        <time>2019-02-27T09:54:32Z</time>
      </trkpt>
      <trkpt lat="42.7413" lon="0.17836">
        <ele>2216</ele>
        <time>2019-02-27T09:54:33Z</time>
      </trkpt>
      <trkpt lat="42.7413" lon="0.17836">
        <ele>2216</ele>
        <time>2019-02-27T09:54:34Z</time>
      </trkpt>
      <trkpt lat="42.7413" lon="0.17836">
        <ele>2216</ele>
        <time>2019-02-27T09:54:35Z</time>
      </trkpt>
      <trkpt lat="42.7413" lon="0.17836">
        <ele>2216</ele>
        <time>2019-02-27T09:54:36Z</time>
      </trkpt>
      <trkpt lat="42.7413" lon="0.17836">
        <ele>2217</ele>
        <time>2019-02-27T09:54:37Z</time>
      </trkpt>
      <trkpt lat="42.7413" lon="0.17836">
        <ele>2217</ele>
        <time>2019-02-27T09:54:38Z</time>
      </trkpt>
      <trkpt lat="42.7413" lon="0.17836">
        <ele>2217</ele>
        <time>2019-02-27T09:54:39Z</time>
      </trkpt>
      <trkpt lat="42.7413" lon="0.17836">
        <ele>2217</ele>
        <time>2019-02-27T09:54:40Z</time>
      </trkpt>
      <trkpt lat="42.7413" lon="0.17836">
        <ele>2217</ele>
        <time>2019-02-27T09:54:41Z</time>
      </trkpt>
      <trkpt lat="42.7413" lon="0.17836">
        <ele>2217</ele>
        <time>2019-02-27T09:54:42Z</time>
      </trkpt>
      <trkpt lat="42.7413" lon="0.17836">
        <ele>2217</ele>
        <time>2019-02-27T09:54:43Z</time>
      </trkpt>
      <trkpt lat="42.7413" lon="0.17836">
        <ele>2217</ele>
        <time>2019-02-27T09:54:44Z</time>
      </trkpt>
      <trkpt lat="42.7413" lon="0.17836">
        <ele>2217</ele>
        <time>2019-02-27T09:54:45Z</time>
      </trkpt>
      <trkpt lat="42.7413" lon="0.17836">
        <ele>2217</ele>
        <time>2019-02-27T09:54:46Z</time>
      </trkpt>
      <trkpt lat="42.7413" lon="0.17836">
        <ele>2217</ele>
        <time>2019-02-27T09:54:47Z</time>
      </trkpt>
      <trkpt lat="42.7413" lon="0.17836">
        <ele>2217</ele>
        <time>2019-02-27T09:54:48Z</time>
      </trkpt>
      <trkpt lat="42.74128" lon="0.17838">
        <ele>2217</ele>
        <time>2019-02-27T09:54:49Z</time>
      </trkpt>
      <trkpt lat="42.74128" lon="0.17838">
        <ele>2217</ele>
        <time>2019-02-27T09:54:50Z</time>
      </trkpt>
      <trkpt lat="42.74128" lon="0.17838">
        <ele>2217</ele>
        <time>2019-02-27T09:54:51Z</time>
      </trkpt>
      <trkpt lat="42.74128" lon="0.17838">
        <ele>2217</ele>
        <time>2019-02-27T09:54:52Z</time>
      </trkpt>
      <trkpt lat="42.74126" lon="0.17838">
        <ele>2217</ele>
        <time>2019-02-27T09:54:53Z</time>
      </trkpt>
      <trkpt lat="42.74126" lon="0.17838">
        <ele>2217</ele>
        <time>2019-02-27T09:54:54Z</time>
      </trkpt>
      <trkpt lat="42.74126" lon="0.17838">
        <ele>2217</ele>
        <time>2019-02-27T09:54:55Z</time>
      </trkpt>
      <trkpt lat="42.74126" lon="0.17838">
        <ele>2217</ele>
        <time>2019-02-27T09:54:56Z</time>
      </trkpt>
      <trkpt lat="42.74126" lon="0.17838">
        <ele>2217</ele>
        <time>2019-02-27T09:54:57Z</time>
      </trkpt>
      <trkpt lat="42.74124" lon="0.17838">
        <ele>2218</ele>
        <time>2019-02-27T09:54:58Z</time>
      </trkpt>
      <trkpt lat="42.74124" lon="0.17838">
        <ele>2218</ele>
        <time>2019-02-27T09:54:59Z</time>
      </trkpt>
      <trkpt lat="42.74124" lon="0.17838">
        <ele>2218</ele>
        <time>2019-02-27T09:55:00Z</time>
      </trkpt>
      <trkpt lat="42.74124" lon="0.17838">
        <ele>2218</ele>
        <time>2019-02-27T09:55:01Z</time>
      </trkpt>
      <trkpt lat="42.74122" lon="0.17838">
        <ele>2218</ele>
        <time>2019-02-27T09:55:02Z</time>
      </trkpt>
      <trkpt lat="42.74122" lon="0.17838">
        <ele>2218</ele>
        <time>2019-02-27T09:55:03Z</time>
      </trkpt>
      <trkpt lat="42.74122" lon="0.17838">
        <ele>2218</ele>
        <time>2019-02-27T09:55:04Z</time>
      </trkpt>
      <trkpt lat="42.74122" lon="0.17838">
        <ele>2218</ele>
        <time>2019-02-27T09:55:05Z</time>
      </trkpt>
      <trkpt lat="42.7412" lon="0.17838">
        <ele>2218</ele>
        <time>2019-02-27T09:55:06Z</time>
      </trkpt>
      <trkpt lat="42.7412" lon="0.17838">
        <ele>2218</ele>
        <time>2019-02-27T09:55:07Z</time>
      </trkpt>
      <trkpt lat="42.7412" lon="0.17838">
        <ele>2218</ele>
        <time>2019-02-27T09:55:08Z</time>
      </trkpt>
      <trkpt lat="42.7412" lon="0.17838">
        <ele>2218</ele>
        <time>2019-02-27T09:55:09Z</time>
      </trkpt>
      <trkpt lat="42.74118" lon="0.17838">
        <ele>2219</ele>
        <time>2019-02-27T09:55:10Z</time>
      </trkpt>
      <trkpt lat="42.74118" lon="0.17838">
        <ele>2219</ele>
        <time>2019-02-27T09:55:11Z</time>
      </trkpt>
      <trkpt lat="42.74118" lon="0.17838">
        <ele>2219</ele>
        <time>2019-02-27T09:55:12Z</time>
      </trkpt>
      <trkpt lat="42.74118" lon="0.17838">
        <ele>2219</ele>
        <time>2019-02-27T09:55:13Z</time>
      </trkpt>
      <trkpt lat="42.74116" lon="0.17838">
        <ele>2219</ele>
        <time>2019-02-27T09:55:14Z</time>
      </trkpt>
      <trkpt lat="42.74116" lon="0.17838">
        <ele>2219</ele>
        <time>2019-02-27T09:55:15Z</time>
      </trkpt>
      <trkpt lat="42.74116" lon="0.17838">
        <ele>2219</ele>
        <time>2019-02-27T09:55:16Z</time>
      </trkpt>
      <trkpt lat="42.74116" lon="0.17838">
        <ele>2219</ele>
        <time>2019-02-27T09:55:17Z</time>
      </trkpt>
      <trkpt lat="42.74116" lon="0.17838">
        <ele>2219</ele>
        <time>2019-02-27T09:55:18Z</time>
      </trkpt>
      <trkpt lat="42.74116" lon="0.17838">
        <ele>2219</ele>
        <time>2019-02-27T09:55:19Z</time>
      </trkpt>
      <trkpt lat="42.74113" lon="0.17838">
        <ele>2220</ele>
        <time>2019-02-27T09:55:20Z</time>
      </trkpt>
      <trkpt lat="42.74113" lon="0.17838">
        <ele>2220</ele>
        <time>2019-02-27T09:55:21Z</time>
      </trkpt>
      <trkpt lat="42.74113" lon="0.17838">
        <ele>2220</ele>
        <time>2019-02-27T09:55:22Z</time>
      </trkpt>
      <trkpt lat="42.74113" lon="0.17838">
        <ele>2220</ele>
        <time>2019-02-27T09:55:23Z</time>
      </trkpt>
      <trkpt lat="42.74113" lon="0.17838">
        <ele>2220</ele>
        <time>2019-02-27T09:55:24Z</time>
      </trkpt>
      <trkpt lat="42.74113" lon="0.17838">
        <ele>2220</ele>
        <time>2019-02-27T09:55:25Z</time>
      </trkpt>
      <trkpt lat="42.74111" lon="0.17838">
        <ele>2220</ele>
        <time>2019-02-27T09:55:26Z</time>
      </trkpt>
      <trkpt lat="42.74111" lon="0.17838">
        <ele>2220</ele>
        <time>2019-02-27T09:55:27Z</time>
      </trkpt>
      <trkpt lat="42.74109" lon="0.17838">
        <ele>2220</ele>
        <time>2019-02-27T09:55:28Z</time>
      </trkpt>
      <trkpt lat="42.74109" lon="0.17838">
        <ele>2221</ele>
        <time>2019-02-27T09:55:29Z</time>
      </trkpt>
      <trkpt lat="42.74109" lon="0.17838">
        <ele>2221</ele>
        <time>2019-02-27T09:55:30Z</time>
      </trkpt>
      <trkpt lat="42.74107" lon="0.17838">
        <ele>2221</ele>
        <time>2019-02-27T09:55:31Z</time>
      </trkpt>
      <trkpt lat="42.74107" lon="0.17838">
        <ele>2221</ele>
        <time>2019-02-27T09:55:32Z</time>
      </trkpt>
      <trkpt lat="42.74107" lon="0.17838">
        <ele>2221</ele>
        <time>2019-02-27T09:55:33Z</time>
      </trkpt>
      <trkpt lat="42.74107" lon="0.17838">
        <ele>2221</ele>
        <time>2019-02-27T09:55:34Z</time>
      </trkpt>
      <trkpt lat="42.74105" lon="0.17839">
        <ele>2221</ele>
        <time>2019-02-27T09:55:35Z</time>
      </trkpt>
      <trkpt lat="42.74105" lon="0.17839">
        <ele>2222</ele>
        <time>2019-02-27T09:55:36Z</time>
      </trkpt>
      <trkpt lat="42.74105" lon="0.17839">
        <ele>2222</ele>
        <time>2019-02-27T09:55:37Z</time>
      </trkpt>
      <trkpt lat="42.74103" lon="0.17839">
        <ele>2223</ele>
        <time>2019-02-27T09:55:38Z</time>
      </trkpt>
      <trkpt lat="42.74103" lon="0.17839">
        <ele>2223</ele>
        <time>2019-02-27T09:55:39Z</time>
      </trkpt>
      <trkpt lat="42.74103" lon="0.17839">
        <ele>2222</ele>
        <time>2019-02-27T09:55:40Z</time>
      </trkpt>
      <trkpt lat="42.74101" lon="0.1784">
        <ele>2222</ele>
        <time>2019-02-27T09:55:41Z</time>
      </trkpt>
      <trkpt lat="42.74101" lon="0.1784">
        <ele>2222</ele>
        <time>2019-02-27T09:55:42Z</time>
      </trkpt>
      <trkpt lat="42.74101" lon="0.1784">
        <ele>2223</ele>
        <time>2019-02-27T09:55:43Z</time>
      </trkpt>
      <trkpt lat="42.74101" lon="0.1784">
        <ele>2223</ele>
        <time>2019-02-27T09:55:44Z</time>
      </trkpt>
      <trkpt lat="42.74099" lon="0.1784">
        <ele>2223</ele>
        <time>2019-02-27T09:55:45Z</time>
      </trkpt>
      <trkpt lat="42.74099" lon="0.1784">
        <ele>2223</ele>
        <time>2019-02-27T09:55:46Z</time>
      </trkpt>
      <trkpt lat="42.74099" lon="0.1784">
        <ele>2223</ele>
        <time>2019-02-27T09:55:47Z</time>
      </trkpt>
      <trkpt lat="42.74099" lon="0.1784">
        <ele>2223</ele>
        <time>2019-02-27T09:55:48Z</time>
      </trkpt>
      <trkpt lat="42.74097" lon="0.1784">
        <ele>2223</ele>
        <time>2019-02-27T09:55:49Z</time>
      </trkpt>
      <trkpt lat="42.74097" lon="0.1784">
        <ele>2224</ele>
        <time>2019-02-27T09:55:50Z</time>
      </trkpt>
      <trkpt lat="42.74097" lon="0.1784">
        <ele>2224</ele>
        <time>2019-02-27T09:55:51Z</time>
      </trkpt>
      <trkpt lat="42.74094" lon="0.1784">
        <ele>2224</ele>
        <time>2019-02-27T09:55:52Z</time>
      </trkpt>
      <trkpt lat="42.74094" lon="0.1784">
        <ele>2224</ele>
        <time>2019-02-27T09:55:53Z</time>
      </trkpt>
      <trkpt lat="42.74093" lon="0.1784">
        <ele>2225</ele>
        <time>2019-02-27T09:55:54Z</time>
      </trkpt>
      <trkpt lat="42.74093" lon="0.1784">
        <ele>2225</ele>
        <time>2019-02-27T09:55:55Z</time>
      </trkpt>
      <trkpt lat="42.74093" lon="0.1784">
        <ele>2225</ele>
        <time>2019-02-27T09:55:56Z</time>
      </trkpt>
      <trkpt lat="42.74093" lon="0.1784">
        <ele>2225</ele>
        <time>2019-02-27T09:55:57Z</time>
      </trkpt>
      <trkpt lat="42.7409" lon="0.1784">
        <ele>2225</ele>
        <time>2019-02-27T09:55:58Z</time>
      </trkpt>
      <trkpt lat="42.7409" lon="0.1784">
        <ele>2225</ele>
        <time>2019-02-27T09:55:59Z</time>
      </trkpt>
      <trkpt lat="42.7409" lon="0.1784">
        <ele>2225</ele>
        <time>2019-02-27T09:56:00Z</time>
      </trkpt>
      <trkpt lat="42.7409" lon="0.1784">
        <ele>2225</ele>
        <time>2019-02-27T09:56:01Z</time>
      </trkpt>
      <trkpt lat="42.74088" lon="0.1784">
        <ele>2225</ele>
        <time>2019-02-27T09:56:02Z</time>
      </trkpt>
      <trkpt lat="42.74088" lon="0.1784">
        <ele>2226</ele>
        <time>2019-02-27T09:56:03Z</time>
      </trkpt>
      <trkpt lat="42.74088" lon="0.1784">
        <ele>2226</ele>
        <time>2019-02-27T09:56:04Z</time>
      </trkpt>
      <trkpt lat="42.74088" lon="0.1784">
        <ele>2226</ele>
        <time>2019-02-27T09:56:05Z</time>
      </trkpt>
      <trkpt lat="42.74088" lon="0.1784">
        <ele>2226</ele>
        <time>2019-02-27T09:56:06Z</time>
      </trkpt>
      <trkpt lat="42.74088" lon="0.1784">
        <ele>2226</ele>
        <time>2019-02-27T09:56:07Z</time>
      </trkpt>
      <trkpt lat="42.74088" lon="0.1784">
        <ele>2226</ele>
        <time>2019-02-27T09:56:08Z</time>
      </trkpt>
      <trkpt lat="42.74088" lon="0.1784">
        <ele>2226</ele>
        <time>2019-02-27T09:56:09Z</time>
      </trkpt>
      <trkpt lat="42.74088" lon="0.1784">
        <ele>2226</ele>
        <time>2019-02-27T09:56:10Z</time>
      </trkpt>
      <trkpt lat="42.74088" lon="0.1784">
        <ele>2226</ele>
        <time>2019-02-27T09:56:11Z</time>
      </trkpt>
      <trkpt lat="42.74088" lon="0.1784">
        <ele>2226</ele>
        <time>2019-02-27T09:56:12Z</time>
      </trkpt>
      <trkpt lat="42.74088" lon="0.1784">
        <ele>2226</ele>
        <time>2019-02-27T09:56:13Z</time>
      </trkpt>
      <trkpt lat="42.74086" lon="0.1784">
        <ele>2226</ele>
        <time>2019-02-27T09:56:14Z</time>
      </trkpt>
      <trkpt lat="42.74086" lon="0.1784">
        <ele>2226</ele>
        <time>2019-02-27T09:56:15Z</time>
      </trkpt>
      <trkpt lat="42.74086" lon="0.1784">
        <ele>2226</ele>
        <time>2019-02-27T09:56:16Z</time>
      </trkpt>
      <trkpt lat="42.74086" lon="0.1784">
        <ele>2226</ele>
        <time>2019-02-27T09:56:17Z</time>
      </trkpt>
      <trkpt lat="42.74084" lon="0.1784">
        <ele>2226</ele>
        <time>2019-02-27T09:56:18Z</time>
      </trkpt>
      <trkpt lat="42.74084" lon="0.1784">
        <ele>2227</ele>
        <time>2019-02-27T09:56:19Z</time>
      </trkpt>
      <trkpt lat="42.74084" lon="0.1784">
        <ele>2227</ele>
        <time>2019-02-27T09:56:20Z</time>
      </trkpt>
      <trkpt lat="42.74084" lon="0.1784">
        <ele>2227</ele>
        <time>2019-02-27T09:56:21Z</time>
      </trkpt>
      <trkpt lat="42.74081" lon="0.1784">
        <ele>2227</ele>
        <time>2019-02-27T09:56:22Z</time>
      </trkpt>
      <trkpt lat="42.74081" lon="0.1784">
        <ele>2228</ele>
        <time>2019-02-27T09:56:23Z</time>
      </trkpt>
      <trkpt lat="42.74081" lon="0.1784">
        <ele>2228</ele>
        <time>2019-02-27T09:56:24Z</time>
      </trkpt>
      <trkpt lat="42.74081" lon="0.1784">
        <ele>2228</ele>
        <time>2019-02-27T09:56:25Z</time>
      </trkpt>
      <trkpt lat="42.74079" lon="0.17841">
        <ele>2228</ele>
        <time>2019-02-27T09:56:26Z</time>
      </trkpt>
      <trkpt lat="42.74079" lon="0.17841">
        <ele>2228</ele>
        <time>2019-02-27T09:56:27Z</time>
      </trkpt>
      <trkpt lat="42.74079" lon="0.17841">
        <ele>2228</ele>
        <time>2019-02-27T09:56:28Z</time>
      </trkpt>
      <trkpt lat="42.74079" lon="0.17841">
        <ele>2229</ele>
        <time>2019-02-27T09:56:29Z</time>
      </trkpt>
      <trkpt lat="42.74077" lon="0.17842">
        <ele>2229</ele>
        <time>2019-02-27T09:56:30Z</time>
      </trkpt>
      <trkpt lat="42.74077" lon="0.17842">
        <ele>2230</ele>
        <time>2019-02-27T09:56:31Z</time>
      </trkpt>
      <trkpt lat="42.74077" lon="0.17842">
        <ele>2230</ele>
        <time>2019-02-27T09:56:32Z</time>
      </trkpt>
      <trkpt lat="42.74075" lon="0.17842">
        <ele>2230</ele>
        <time>2019-02-27T09:56:33Z</time>
      </trkpt>
      <trkpt lat="42.74075" lon="0.17842">
        <ele>2230</ele>
        <time>2019-02-27T09:56:34Z</time>
      </trkpt>
      <trkpt lat="42.74075" lon="0.17842">
        <ele>2229</ele>
        <time>2019-02-27T09:56:35Z</time>
      </trkpt>
      <trkpt lat="42.74075" lon="0.17842">
        <ele>2230</ele>
        <time>2019-02-27T09:56:36Z</time>
      </trkpt>
      <trkpt lat="42.74073" lon="0.17843">
        <ele>2230</ele>
        <time>2019-02-27T09:56:37Z</time>
      </trkpt>
      <trkpt lat="42.74073" lon="0.17843">
        <ele>2230</ele>
        <time>2019-02-27T09:56:38Z</time>
      </trkpt>
      <trkpt lat="42.74073" lon="0.17843">
        <ele>2230</ele>
        <time>2019-02-27T09:56:39Z</time>
      </trkpt>
      <trkpt lat="42.74071" lon="0.17843">
        <ele>2230</ele>
        <time>2019-02-27T09:56:40Z</time>
      </trkpt>
      <trkpt lat="42.74071" lon="0.17843">
        <ele>2230</ele>
        <time>2019-02-27T09:56:41Z</time>
      </trkpt>
      <trkpt lat="42.74071" lon="0.17843">
        <ele>2230</ele>
        <time>2019-02-27T09:56:42Z</time>
      </trkpt>
      <trkpt lat="42.74071" lon="0.17843">
        <ele>2230</ele>
        <time>2019-02-27T09:56:43Z</time>
      </trkpt>
      <trkpt lat="42.74068" lon="0.17844">
        <ele>2230</ele>
        <time>2019-02-27T09:56:44Z</time>
      </trkpt>
      <trkpt lat="42.74068" lon="0.17844">
        <ele>2230</ele>
        <time>2019-02-27T09:56:45Z</time>
      </trkpt>
      <trkpt lat="42.74068" lon="0.17844">
        <ele>2231</ele>
        <time>2019-02-27T09:56:46Z</time>
      </trkpt>
      <trkpt lat="42.74068" lon="0.17844">
        <ele>2231</ele>
        <time>2019-02-27T09:56:47Z</time>
      </trkpt>
      <trkpt lat="42.74066" lon="0.17845">
        <ele>2231</ele>
        <time>2019-02-27T09:56:48Z</time>
      </trkpt>
      <trkpt lat="42.74066" lon="0.17845">
        <ele>2231</ele>
        <time>2019-02-27T09:56:49Z</time>
      </trkpt>
      <trkpt lat="42.74066" lon="0.17845">
        <ele>2232</ele>
        <time>2019-02-27T09:56:50Z</time>
      </trkpt>
      <trkpt lat="42.74066" lon="0.17845">
        <ele>2232</ele>
        <time>2019-02-27T09:56:51Z</time>
      </trkpt>
      <trkpt lat="42.74064" lon="0.17846">
        <ele>2232</ele>
        <time>2019-02-27T09:56:52Z</time>
      </trkpt>
      <trkpt lat="42.74064" lon="0.17846">
        <ele>2232</ele>
        <time>2019-02-27T09:56:53Z</time>
      </trkpt>
      <trkpt lat="42.74064" lon="0.17846">
        <ele>2232</ele>
        <time>2019-02-27T09:56:54Z</time>
      </trkpt>
      <trkpt lat="42.74064" lon="0.17846">
        <ele>2232</ele>
        <time>2019-02-27T09:56:55Z</time>
      </trkpt>
      <trkpt lat="42.74062" lon="0.17846">
        <ele>2232</ele>
        <time>2019-02-27T09:56:56Z</time>
      </trkpt>
      <trkpt lat="42.74062" lon="0.17846">
        <ele>2233</ele>
        <time>2019-02-27T09:56:57Z</time>
      </trkpt>
      <trkpt lat="42.74062" lon="0.17846">
        <ele>2233</ele>
        <time>2019-02-27T09:56:58Z</time>
      </trkpt>
      <trkpt lat="42.74062" lon="0.17846">
        <ele>2233</ele>
        <time>2019-02-27T09:56:59Z</time>
      </trkpt>
      <trkpt lat="42.74062" lon="0.17846">
        <ele>2233</ele>
        <time>2019-02-27T09:57:00Z</time>
      </trkpt>
      <trkpt lat="42.7406" lon="0.17847">
        <ele>2233</ele>
        <time>2019-02-27T09:57:01Z</time>
      </trkpt>
      <trkpt lat="42.7406" lon="0.17847">
        <ele>2233</ele>
        <time>2019-02-27T09:57:02Z</time>
      </trkpt>
      <trkpt lat="42.7406" lon="0.17847">
        <ele>2233</ele>
        <time>2019-02-27T09:57:03Z</time>
      </trkpt>
      <trkpt lat="42.7406" lon="0.17847">
        <ele>2235</ele>
        <time>2019-02-27T09:57:04Z</time>
      </trkpt>
      <trkpt lat="42.74058" lon="0.17847">
        <ele>2235</ele>
        <time>2019-02-27T09:57:05Z</time>
      </trkpt>
      <trkpt lat="42.74058" lon="0.17847">
        <ele>2235</ele>
        <time>2019-02-27T09:57:06Z</time>
      </trkpt>
      <trkpt lat="42.74058" lon="0.17847">
        <ele>2235</ele>
        <time>2019-02-27T09:57:07Z</time>
      </trkpt>
      <trkpt lat="42.74056" lon="0.17848">
        <ele>2235</ele>
        <time>2019-02-27T09:57:08Z</time>
      </trkpt>
      <trkpt lat="42.74056" lon="0.17848">
        <ele>2236</ele>
        <time>2019-02-27T09:57:09Z</time>
      </trkpt>
      <trkpt lat="42.74056" lon="0.17848">
        <ele>2236</ele>
        <time>2019-02-27T09:57:10Z</time>
      </trkpt>
      <trkpt lat="42.74055" lon="0.17849">
        <ele>2236</ele>
        <time>2019-02-27T09:57:11Z</time>
      </trkpt>
      <trkpt lat="42.74055" lon="0.17849">
        <ele>2236</ele>
        <time>2019-02-27T09:57:12Z</time>
      </trkpt>
      <trkpt lat="42.74055" lon="0.17849">
        <ele>2236</ele>
        <time>2019-02-27T09:57:13Z</time>
      </trkpt>
      <trkpt lat="42.74055" lon="0.17849">
        <ele>2236</ele>
        <time>2019-02-27T09:57:14Z</time>
      </trkpt>
      <trkpt lat="42.74055" lon="0.17849">
        <ele>2236</ele>
        <time>2019-02-27T09:57:15Z</time>
      </trkpt>
      <trkpt lat="42.74053" lon="0.1785">
        <ele>2236</ele>
        <time>2019-02-27T09:57:16Z</time>
      </trkpt>
      <trkpt lat="42.74053" lon="0.1785">
        <ele>2236</ele>
        <time>2019-02-27T09:57:17Z</time>
      </trkpt>
      <trkpt lat="42.74053" lon="0.1785">
        <ele>2236</ele>
        <time>2019-02-27T09:57:18Z</time>
      </trkpt>
      <trkpt lat="42.74053" lon="0.1785">
        <ele>2236</ele>
        <time>2019-02-27T09:57:19Z</time>
      </trkpt>
      <trkpt lat="42.74051" lon="0.17852">
        <ele>2237</ele>
        <time>2019-02-27T09:57:20Z</time>
      </trkpt>
      <trkpt lat="42.74051" lon="0.17852">
        <ele>2237</ele>
        <time>2019-02-27T09:57:21Z</time>
      </trkpt>
      <trkpt lat="42.74051" lon="0.17852">
        <ele>2237</ele>
        <time>2019-02-27T09:57:22Z</time>
      </trkpt>
      <trkpt lat="42.74051" lon="0.17852">
        <ele>2237</ele>
        <time>2019-02-27T09:57:23Z</time>
      </trkpt>
      <trkpt lat="42.7405" lon="0.17854">
        <ele>2237</ele>
        <time>2019-02-27T09:57:24Z</time>
      </trkpt>
      <trkpt lat="42.7405" lon="0.17854">
        <ele>2237</ele>
        <time>2019-02-27T09:57:25Z</time>
      </trkpt>
      <trkpt lat="42.7405" lon="0.17854">
        <ele>2237</ele>
        <time>2019-02-27T09:57:26Z</time>
      </trkpt>
      <trkpt lat="42.7405" lon="0.17854">
        <ele>2237</ele>
        <time>2019-02-27T09:57:27Z</time>
      </trkpt>
      <trkpt lat="42.74048" lon="0.17855">
        <ele>2237</ele>
        <time>2019-02-27T09:57:28Z</time>
      </trkpt>
      <trkpt lat="42.74048" lon="0.17855">
        <ele>2237</ele>
        <time>2019-02-27T09:57:29Z</time>
      </trkpt>
      <trkpt lat="42.74048" lon="0.17855">
        <ele>2238</ele>
        <time>2019-02-27T09:57:30Z</time>
      </trkpt>
      <trkpt lat="42.74048" lon="0.17855">
        <ele>2238</ele>
        <time>2019-02-27T09:57:31Z</time>
      </trkpt>
      <trkpt lat="42.74046" lon="0.17856">
        <ele>2238</ele>
        <time>2019-02-27T09:57:32Z</time>
      </trkpt>
      <trkpt lat="42.74046" lon="0.17856">
        <ele>2238</ele>
        <time>2019-02-27T09:57:33Z</time>
      </trkpt>
      <trkpt lat="42.74046" lon="0.17856">
        <ele>2238</ele>
        <time>2019-02-27T09:57:34Z</time>
      </trkpt>
      <trkpt lat="42.74044" lon="0.17857">
        <ele>2238</ele>
        <time>2019-02-27T09:57:35Z</time>
      </trkpt>
      <trkpt lat="42.74044" lon="0.17857">
        <ele>2238</ele>
        <time>2019-02-27T09:57:36Z</time>
      </trkpt>
      <trkpt lat="42.74044" lon="0.17857">
        <ele>2239</ele>
        <time>2019-02-27T09:57:37Z</time>
      </trkpt>
      <trkpt lat="42.74044" lon="0.17857">
        <ele>2239</ele>
        <time>2019-02-27T09:57:38Z</time>
      </trkpt>
      <trkpt lat="42.74042" lon="0.17859">
        <ele>2239</ele>
        <time>2019-02-27T09:57:39Z</time>
      </trkpt>
      <trkpt lat="42.74042" lon="0.17859">
        <ele>2239</ele>
        <time>2019-02-27T09:57:40Z</time>
      </trkpt>
      <trkpt lat="42.74042" lon="0.17859">
        <ele>2239</ele>
        <time>2019-02-27T09:57:41Z</time>
      </trkpt>
      <trkpt lat="42.74041" lon="0.1786">
        <ele>2239</ele>
        <time>2019-02-27T09:57:42Z</time>
      </trkpt>
      <trkpt lat="42.74041" lon="0.1786">
        <ele>2239</ele>
        <time>2019-02-27T09:57:43Z</time>
      </trkpt>
      <trkpt lat="42.74041" lon="0.1786">
        <ele>2239</ele>
        <time>2019-02-27T09:57:44Z</time>
      </trkpt>
      <trkpt lat="42.74041" lon="0.1786">
        <ele>2239</ele>
        <time>2019-02-27T09:57:45Z</time>
      </trkpt>
      <trkpt lat="42.74039" lon="0.17861">
        <ele>2239</ele>
        <time>2019-02-27T09:57:46Z</time>
      </trkpt>
      <trkpt lat="42.74039" lon="0.17861">
        <ele>2239</ele>
        <time>2019-02-27T09:57:47Z</time>
      </trkpt>
      <trkpt lat="42.74039" lon="0.17861">
        <ele>2239</ele>
        <time>2019-02-27T09:57:48Z</time>
      </trkpt>
      <trkpt lat="42.74039" lon="0.17861">
        <ele>2240</ele>
        <time>2019-02-27T09:57:49Z</time>
      </trkpt>
      <trkpt lat="42.74037" lon="0.17863">
        <ele>2240</ele>
        <time>2019-02-27T09:57:50Z</time>
      </trkpt>
      <trkpt lat="42.74037" lon="0.17863">
        <ele>2240</ele>
        <time>2019-02-27T09:57:51Z</time>
      </trkpt>
      <trkpt lat="42.74037" lon="0.17863">
        <ele>2240</ele>
        <time>2019-02-27T09:57:52Z</time>
      </trkpt>
      <trkpt lat="42.74037" lon="0.17863">
        <ele>2240</ele>
        <time>2019-02-27T09:57:53Z</time>
      </trkpt>
      <trkpt lat="42.74035" lon="0.17864">
        <ele>2241</ele>
        <time>2019-02-27T09:57:54Z</time>
      </trkpt>
      <trkpt lat="42.74035" lon="0.17864">
        <ele>2241</ele>
        <time>2019-02-27T09:57:55Z</time>
      </trkpt>
      <trkpt lat="42.74035" lon="0.17864">
        <ele>2241</ele>
        <time>2019-02-27T09:57:56Z</time>
      </trkpt>
      <trkpt lat="42.74035" lon="0.17864">
        <ele>2241</ele>
        <time>2019-02-27T09:57:57Z</time>
      </trkpt>
      <trkpt lat="42.74033" lon="0.17865">
        <ele>2241</ele>
        <time>2019-02-27T09:57:58Z</time>
      </trkpt>
      <trkpt lat="42.74033" lon="0.17865">
        <ele>2241</ele>
        <time>2019-02-27T09:57:59Z</time>
      </trkpt>
      <trkpt lat="42.74033" lon="0.17865">
        <ele>2241</ele>
        <time>2019-02-27T09:58:00Z</time>
      </trkpt>
      <trkpt lat="42.74033" lon="0.17865">
        <ele>2241</ele>
        <time>2019-02-27T09:58:01Z</time>
      </trkpt>
      <trkpt lat="42.74031" lon="0.17867">
        <ele>2241</ele>
        <time>2019-02-27T09:58:02Z</time>
      </trkpt>
      <trkpt lat="42.74031" lon="0.17867">
        <ele>2241</ele>
        <time>2019-02-27T09:58:03Z</time>
      </trkpt>
      <trkpt lat="42.74031" lon="0.17867">
        <ele>2241</ele>
        <time>2019-02-27T09:58:04Z</time>
      </trkpt>
      <trkpt lat="42.7403" lon="0.17869">
        <ele>2241</ele>
        <time>2019-02-27T09:58:05Z</time>
      </trkpt>
      <trkpt lat="42.7403" lon="0.17869">
        <ele>2241</ele>
        <time>2019-02-27T09:58:06Z</time>
      </trkpt>
      <trkpt lat="42.7403" lon="0.17869">
        <ele>2241</ele>
        <time>2019-02-27T09:58:07Z</time>
      </trkpt>
      <trkpt lat="42.7403" lon="0.17869">
        <ele>2241</ele>
        <time>2019-02-27T09:58:08Z</time>
      </trkpt>
      <trkpt lat="42.74028" lon="0.1787">
        <ele>2242</ele>
        <time>2019-02-27T09:58:09Z</time>
      </trkpt>
      <trkpt lat="42.74028" lon="0.1787">
        <ele>2242</ele>
        <time>2019-02-27T09:58:10Z</time>
      </trkpt>
      <trkpt lat="42.74028" lon="0.1787">
        <ele>2243</ele>
        <time>2019-02-27T09:58:11Z</time>
      </trkpt>
      <trkpt lat="42.74028" lon="0.1787">
        <ele>2243</ele>
        <time>2019-02-27T09:58:12Z</time>
      </trkpt>
      <trkpt lat="42.74026" lon="0.17872">
        <ele>2243</ele>
        <time>2019-02-27T09:58:13Z</time>
      </trkpt>
      <trkpt lat="42.74026" lon="0.17872">
        <ele>2243</ele>
        <time>2019-02-27T09:58:14Z</time>
      </trkpt>
      <trkpt lat="42.74026" lon="0.17872">
        <ele>2243</ele>
        <time>2019-02-27T09:58:15Z</time>
      </trkpt>
      <trkpt lat="42.74026" lon="0.17872">
        <ele>2243</ele>
        <time>2019-02-27T09:58:16Z</time>
      </trkpt>
      <trkpt lat="42.74026" lon="0.17872">
        <ele>2243</ele>
        <time>2019-02-27T09:58:17Z</time>
      </trkpt>
      <trkpt lat="42.74026" lon="0.17872">
        <ele>2243</ele>
        <time>2019-02-27T09:58:18Z</time>
      </trkpt>
      <trkpt lat="42.74026" lon="0.17872">
        <ele>2243</ele>
        <time>2019-02-27T09:58:19Z</time>
      </trkpt>
      <trkpt lat="42.74026" lon="0.17872">
        <ele>2243</ele>
        <time>2019-02-27T09:58:20Z</time>
      </trkpt>
      <trkpt lat="42.74026" lon="0.17872">
        <ele>2243</ele>
        <time>2019-02-27T09:58:21Z</time>
      </trkpt>
      <trkpt lat="42.74026" lon="0.17872">
        <ele>2243</ele>
        <time>2019-02-27T09:58:22Z</time>
      </trkpt>
      <trkpt lat="42.74026" lon="0.17872">
        <ele>2243</ele>
        <time>2019-02-27T09:58:23Z</time>
      </trkpt>
      <trkpt lat="42.74024" lon="0.17873">
        <ele>2243</ele>
        <time>2019-02-27T09:58:24Z</time>
      </trkpt>
      <trkpt lat="42.74024" lon="0.17873">
        <ele>2244</ele>
        <time>2019-02-27T09:58:25Z</time>
      </trkpt>
      <trkpt lat="42.74024" lon="0.17873">
        <ele>2244</ele>
        <time>2019-02-27T09:58:26Z</time>
      </trkpt>
      <trkpt lat="42.74023" lon="0.17875">
        <ele>2244</ele>
        <time>2019-02-27T09:58:27Z</time>
      </trkpt>
      <trkpt lat="42.74023" lon="0.17875">
        <ele>2244</ele>
        <time>2019-02-27T09:58:28Z</time>
      </trkpt>
      <trkpt lat="42.74023" lon="0.17875">
        <ele>2244</ele>
        <time>2019-02-27T09:58:29Z</time>
      </trkpt>
      <trkpt lat="42.74023" lon="0.17875">
        <ele>2244</ele>
        <time>2019-02-27T09:58:30Z</time>
      </trkpt>
      <trkpt lat="42.74023" lon="0.17875">
        <ele>2244</ele>
        <time>2019-02-27T09:58:31Z</time>
      </trkpt>
      <trkpt lat="42.74021" lon="0.17876">
        <ele>2244</ele>
        <time>2019-02-27T09:58:32Z</time>
      </trkpt>
      <trkpt lat="42.74021" lon="0.17876">
        <ele>2245</ele>
        <time>2019-02-27T09:58:33Z</time>
      </trkpt>
      <trkpt lat="42.74021" lon="0.17876">
        <ele>2245</ele>
        <time>2019-02-27T09:58:34Z</time>
      </trkpt>
      <trkpt lat="42.74021" lon="0.17876">
        <ele>2245</ele>
        <time>2019-02-27T09:58:35Z</time>
      </trkpt>
      <trkpt lat="42.74021" lon="0.17876">
        <ele>2245</ele>
        <time>2019-02-27T09:58:36Z</time>
      </trkpt>
      <trkpt lat="42.74021" lon="0.17876">
        <ele>2245</ele>
        <time>2019-02-27T09:58:37Z</time>
      </trkpt>
      <trkpt lat="42.74019" lon="0.17876">
        <ele>2245</ele>
        <time>2019-02-27T09:58:38Z</time>
      </trkpt>
      <trkpt lat="42.74019" lon="0.17876">
        <ele>2245</ele>
        <time>2019-02-27T09:58:39Z</time>
      </trkpt>
      <trkpt lat="42.74019" lon="0.17876">
        <ele>2245</ele>
        <time>2019-02-27T09:58:40Z</time>
      </trkpt>
      <trkpt lat="42.74019" lon="0.17873">
        <ele>2245</ele>
        <time>2019-02-27T09:58:41Z</time>
      </trkpt>
      <trkpt lat="42.74019" lon="0.17873">
        <ele>2245</ele>
        <time>2019-02-27T09:58:42Z</time>
      </trkpt>
      <trkpt lat="42.74019" lon="0.17873">
        <ele>2245</ele>
        <time>2019-02-27T09:58:43Z</time>
      </trkpt>
      <trkpt lat="42.74019" lon="0.17873">
        <ele>2245</ele>
        <time>2019-02-27T09:58:44Z</time>
      </trkpt>
      <trkpt lat="42.74019" lon="0.17871">
        <ele>2245</ele>
        <time>2019-02-27T09:58:45Z</time>
      </trkpt>
      <trkpt lat="42.74019" lon="0.17871">
        <ele>2246</ele>
        <time>2019-02-27T09:58:46Z</time>
      </trkpt>
      <trkpt lat="42.74019" lon="0.17871">
        <ele>2246</ele>
        <time>2019-02-27T09:58:47Z</time>
      </trkpt>
      <trkpt lat="42.74019" lon="0.17871">
        <ele>2246</ele>
        <time>2019-02-27T09:58:48Z</time>
      </trkpt>
      <trkpt lat="42.7402" lon="0.17868">
        <ele>2246</ele>
        <time>2019-02-27T09:58:49Z</time>
      </trkpt>
      <trkpt lat="42.7402" lon="0.17868">
        <ele>2246</ele>
        <time>2019-02-27T09:58:50Z</time>
      </trkpt>
      <trkpt lat="42.7402" lon="0.17868">
        <ele>2246</ele>
        <time>2019-02-27T09:58:51Z</time>
      </trkpt>
      <trkpt lat="42.7402" lon="0.17868">
        <ele>2246</ele>
        <time>2019-02-27T09:58:52Z</time>
      </trkpt>
      <trkpt lat="42.7402" lon="0.17864">
        <ele>2246</ele>
        <time>2019-02-27T09:58:53Z</time>
      </trkpt>
      <trkpt lat="42.7402" lon="0.17864">
        <ele>2246</ele>
        <time>2019-02-27T09:58:54Z</time>
      </trkpt>
      <trkpt lat="42.7402" lon="0.17864">
        <ele>2246</ele>
        <time>2019-02-27T09:58:55Z</time>
      </trkpt>
      <trkpt lat="42.7402" lon="0.17862">
        <ele>2246</ele>
        <time>2019-02-27T09:58:56Z</time>
      </trkpt>
      <trkpt lat="42.7402" lon="0.17862">
        <ele>2247</ele>
        <time>2019-02-27T09:58:57Z</time>
      </trkpt>
      <trkpt lat="42.7402" lon="0.17862">
        <ele>2247</ele>
        <time>2019-02-27T09:58:58Z</time>
      </trkpt>
      <trkpt lat="42.7402" lon="0.17862">
        <ele>2247</ele>
        <time>2019-02-27T09:58:59Z</time>
      </trkpt>
      <trkpt lat="42.7402" lon="0.17859">
        <ele>2247</ele>
        <time>2019-02-27T09:59:00Z</time>
      </trkpt>
      <trkpt lat="42.7402" lon="0.17859">
        <ele>2247</ele>
        <time>2019-02-27T09:59:01Z</time>
      </trkpt>
      <trkpt lat="42.7402" lon="0.17859">
        <ele>2247</ele>
        <time>2019-02-27T09:59:02Z</time>
      </trkpt>
      <trkpt lat="42.7402" lon="0.17859">
        <ele>2247</ele>
        <time>2019-02-27T09:59:03Z</time>
      </trkpt>
      <trkpt lat="42.7402" lon="0.17856">
        <ele>2247</ele>
        <time>2019-02-27T09:59:04Z</time>
      </trkpt>
      <trkpt lat="42.7402" lon="0.17856">
        <ele>2247</ele>
        <time>2019-02-27T09:59:05Z</time>
      </trkpt>
      <trkpt lat="42.7402" lon="0.17856">
        <ele>2248</ele>
        <time>2019-02-27T09:59:06Z</time>
      </trkpt>
      <trkpt lat="42.7402" lon="0.17856">
        <ele>2248</ele>
        <time>2019-02-27T09:59:07Z</time>
      </trkpt>
      <trkpt lat="42.7402" lon="0.17856">
        <ele>2248</ele>
        <time>2019-02-27T09:59:08Z</time>
      </trkpt>
      <trkpt lat="42.7402" lon="0.17854">
        <ele>2248</ele>
        <time>2019-02-27T09:59:09Z</time>
      </trkpt>
      <trkpt lat="42.7402" lon="0.17854">
        <ele>2249</ele>
        <time>2019-02-27T09:59:10Z</time>
      </trkpt>
      <trkpt lat="42.7402" lon="0.17854">
        <ele>2249</ele>
        <time>2019-02-27T09:59:11Z</time>
      </trkpt>
      <trkpt lat="42.7402" lon="0.17851">
        <ele>2249</ele>
        <time>2019-02-27T09:59:12Z</time>
      </trkpt>
      <trkpt lat="42.7402" lon="0.17851">
        <ele>2249</ele>
        <time>2019-02-27T09:59:13Z</time>
      </trkpt>
      <trkpt lat="42.7402" lon="0.17851">
        <ele>2250</ele>
        <time>2019-02-27T09:59:14Z</time>
      </trkpt>
      <trkpt lat="42.7402" lon="0.17851">
        <ele>2250</ele>
        <time>2019-02-27T09:59:15Z</time>
      </trkpt>
      <trkpt lat="42.74021" lon="0.17848">
        <ele>2250</ele>
        <time>2019-02-27T09:59:16Z</time>
      </trkpt>
      <trkpt lat="42.74021" lon="0.17848">
        <ele>2250</ele>
        <time>2019-02-27T09:59:17Z</time>
      </trkpt>
      <trkpt lat="42.74021" lon="0.17848">
        <ele>2250</ele>
        <time>2019-02-27T09:59:18Z</time>
      </trkpt>
      <trkpt lat="42.74021" lon="0.17845">
        <ele>2250</ele>
        <time>2019-02-27T09:59:19Z</time>
      </trkpt>
      <trkpt lat="42.74021" lon="0.17845">
        <ele>2250</ele>
        <time>2019-02-27T09:59:20Z</time>
      </trkpt>
      <trkpt lat="42.74021" lon="0.17845">
        <ele>2250</ele>
        <time>2019-02-27T09:59:21Z</time>
      </trkpt>
      <trkpt lat="42.74021" lon="0.17845">
        <ele>2250</ele>
        <time>2019-02-27T09:59:22Z</time>
      </trkpt>
      <trkpt lat="42.74022" lon="0.17843">
        <ele>2250</ele>
        <time>2019-02-27T09:59:23Z</time>
      </trkpt>
      <trkpt lat="42.74022" lon="0.17843">
        <ele>2250</ele>
        <time>2019-02-27T09:59:24Z</time>
      </trkpt>
      <trkpt lat="42.74022" lon="0.17843">
        <ele>2250</ele>
        <time>2019-02-27T09:59:25Z</time>
      </trkpt>
      <trkpt lat="42.74022" lon="0.17843">
        <ele>2251</ele>
        <time>2019-02-27T09:59:26Z</time>
      </trkpt>
      <trkpt lat="42.74022" lon="0.1784">
        <ele>2251</ele>
        <time>2019-02-27T09:59:27Z</time>
      </trkpt>
      <trkpt lat="42.74022" lon="0.1784">
        <ele>2251</ele>
        <time>2019-02-27T09:59:28Z</time>
      </trkpt>
      <trkpt lat="42.74022" lon="0.1784">
        <ele>2251</ele>
        <time>2019-02-27T09:59:29Z</time>
      </trkpt>
      <trkpt lat="42.74022" lon="0.1784">
        <ele>2251</ele>
        <time>2019-02-27T09:59:30Z</time>
      </trkpt>
      <trkpt lat="42.74022" lon="0.1784">
        <ele>2252</ele>
        <time>2019-02-27T09:59:31Z</time>
      </trkpt>
      <trkpt lat="42.74022" lon="0.1784">
        <ele>2252</ele>
        <time>2019-02-27T09:59:32Z</time>
      </trkpt>
      <trkpt lat="42.74022" lon="0.1784">
        <ele>2252</ele>
        <time>2019-02-27T09:59:33Z</time>
      </trkpt>
      <trkpt lat="42.74022" lon="0.1784">
        <ele>2252</ele>
        <time>2019-02-27T09:59:34Z</time>
      </trkpt>
      <trkpt lat="42.74022" lon="0.1784">
        <ele>2252</ele>
        <time>2019-02-27T09:59:35Z</time>
      </trkpt>
      <trkpt lat="42.74022" lon="0.1783">
        <ele>2252</ele>
        <time>2019-02-27T09:59:36Z</time>
      </trkpt>
      <trkpt lat="42.74022" lon="0.1783">
        <ele>2252</ele>
        <time>2019-02-27T09:59:37Z</time>
      </trkpt>
      <trkpt lat="42.74022" lon="0.1783">
        <ele>2252</ele>
        <time>2019-02-27T09:59:38Z</time>
      </trkpt>
      <trkpt lat="42.74022" lon="0.1783">
        <ele>2252</ele>
        <time>2019-02-27T09:59:39Z</time>
      </trkpt>
      <trkpt lat="42.74022" lon="0.1783">
        <ele>2253</ele>
        <time>2019-02-27T09:59:40Z</time>
      </trkpt>
      <trkpt lat="42.74023" lon="0.17827">
        <ele>2253</ele>
        <time>2019-02-27T09:59:41Z</time>
      </trkpt>
      <trkpt lat="42.74023" lon="0.17827">
        <ele>2253</ele>
        <time>2019-02-27T09:59:42Z</time>
      </trkpt>
      <trkpt lat="42.74023" lon="0.17827">
        <ele>2253</ele>
        <time>2019-02-27T09:59:43Z</time>
      </trkpt>
      <trkpt lat="42.74023" lon="0.17827">
        <ele>2253</ele>
        <time>2019-02-27T09:59:44Z</time>
      </trkpt>
      <trkpt lat="42.74023" lon="0.17827">
        <ele>2253</ele>
        <time>2019-02-27T09:59:45Z</time>
      </trkpt>
      <trkpt lat="42.74024" lon="0.17825">
        <ele>2253</ele>
        <time>2019-02-27T09:59:46Z</time>
      </trkpt>
      <trkpt lat="42.74024" lon="0.17825">
        <ele>2253</ele>
        <time>2019-02-27T09:59:47Z</time>
      </trkpt>
      <trkpt lat="42.74024" lon="0.17825">
        <ele>2253</ele>
        <time>2019-02-27T09:59:48Z</time>
      </trkpt>
      <trkpt lat="42.74024" lon="0.17825">
        <ele>2253</ele>
        <time>2019-02-27T09:59:49Z</time>
      </trkpt>
      <trkpt lat="42.74024" lon="0.17825">
        <ele>2253</ele>
        <time>2019-02-27T09:59:50Z</time>
      </trkpt>
      <trkpt lat="42.74025" lon="0.17822">
        <ele>2253</ele>
        <time>2019-02-27T09:59:51Z</time>
      </trkpt>
      <trkpt lat="42.74025" lon="0.17822">
        <ele>2253</ele>
        <time>2019-02-27T09:59:52Z</time>
      </trkpt>
      <trkpt lat="42.74025" lon="0.17822">
        <ele>2253</ele>
        <time>2019-02-27T09:59:53Z</time>
      </trkpt>
      <trkpt lat="42.74025" lon="0.17822">
        <ele>2253</ele>
        <time>2019-02-27T09:59:54Z</time>
      </trkpt>
      <trkpt lat="42.74025" lon="0.17819">
        <ele>2253</ele>
        <time>2019-02-27T09:59:55Z</time>
      </trkpt>
      <trkpt lat="42.74025" lon="0.17819">
        <ele>2253</ele>
        <time>2019-02-27T09:59:56Z</time>
      </trkpt>
      <trkpt lat="42.74025" lon="0.17819">
        <ele>2253</ele>
        <time>2019-02-27T09:59:57Z</time>
      </trkpt>
      <trkpt lat="42.74025" lon="0.17819">
        <ele>2254</ele>
        <time>2019-02-27T09:59:58Z</time>
      </trkpt>
      <trkpt lat="42.74025" lon="0.17816">
        <ele>2254</ele>
        <time>2019-02-27T09:59:59Z</time>
      </trkpt>
      <trkpt lat="42.74025" lon="0.17816">
        <ele>2254</ele>
        <time>2019-02-27T10:00:00Z</time>
      </trkpt>
      <trkpt lat="42.74025" lon="0.17816">
        <ele>2254</ele>
        <time>2019-02-27T10:00:01Z</time>
      </trkpt>
      <trkpt lat="42.74025" lon="0.17816">
        <ele>2254</ele>
        <time>2019-02-27T10:00:02Z</time>
      </trkpt>
      <trkpt lat="42.74026" lon="0.17813">
        <ele>2254</ele>
        <time>2019-02-27T10:00:03Z</time>
      </trkpt>
      <trkpt lat="42.74026" lon="0.17813">
        <ele>2254</ele>
        <time>2019-02-27T10:00:04Z</time>
      </trkpt>
      <trkpt lat="42.74026" lon="0.17813">
        <ele>2255</ele>
        <time>2019-02-27T10:00:05Z</time>
      </trkpt>
      <trkpt lat="42.74026" lon="0.17813">
        <ele>2255</ele>
        <time>2019-02-27T10:00:06Z</time>
      </trkpt>
      <trkpt lat="42.74026" lon="0.17811">
        <ele>2255</ele>
        <time>2019-02-27T10:00:07Z</time>
      </trkpt>
      <trkpt lat="42.74026" lon="0.17811">
        <ele>2255</ele>
        <time>2019-02-27T10:00:08Z</time>
      </trkpt>
      <trkpt lat="42.74026" lon="0.17811">
        <ele>2256</ele>
        <time>2019-02-27T10:00:09Z</time>
      </trkpt>
      <trkpt lat="42.74026" lon="0.17808">
        <ele>2256</ele>
        <time>2019-02-27T10:00:10Z</time>
      </trkpt>
      <trkpt lat="42.74026" lon="0.17808">
        <ele>2256</ele>
        <time>2019-02-27T10:00:11Z</time>
      </trkpt>
      <trkpt lat="42.74026" lon="0.17808">
        <ele>2256</ele>
        <time>2019-02-27T10:00:12Z</time>
      </trkpt>
      <trkpt lat="42.74026" lon="0.17808">
        <ele>2256</ele>
        <time>2019-02-27T10:00:13Z</time>
      </trkpt>
      <trkpt lat="42.74026" lon="0.17805">
        <ele>2256</ele>
        <time>2019-02-27T10:00:14Z</time>
      </trkpt>
      <trkpt lat="42.74026" lon="0.17805">
        <ele>2256</ele>
        <time>2019-02-27T10:00:15Z</time>
      </trkpt>
      <trkpt lat="42.74026" lon="0.17805">
        <ele>2256</ele>
        <time>2019-02-27T10:00:16Z</time>
      </trkpt>
      <trkpt lat="42.74026" lon="0.17802">
        <ele>2256</ele>
        <time>2019-02-27T10:00:17Z</time>
      </trkpt>
      <trkpt lat="42.74026" lon="0.17802">
        <ele>2256</ele>
        <time>2019-02-27T10:00:18Z</time>
      </trkpt>
      <trkpt lat="42.74026" lon="0.17802">
        <ele>2257</ele>
        <time>2019-02-27T10:00:19Z</time>
      </trkpt>
      <trkpt lat="42.74026" lon="0.17802">
        <ele>2257</ele>
        <time>2019-02-27T10:00:20Z</time>
      </trkpt>
      <trkpt lat="42.74027" lon="0.17799">
        <ele>2257</ele>
        <time>2019-02-27T10:00:21Z</time>
      </trkpt>
      <trkpt lat="42.74027" lon="0.17799">
        <ele>2257</ele>
        <time>2019-02-27T10:00:22Z</time>
      </trkpt>
      <trkpt lat="42.74027" lon="0.17799">
        <ele>2257</ele>
        <time>2019-02-27T10:00:23Z</time>
      </trkpt>
      <trkpt lat="42.74027" lon="0.17799">
        <ele>2257</ele>
        <time>2019-02-27T10:00:24Z</time>
      </trkpt>
      <trkpt lat="42.74027" lon="0.17796">
        <ele>2257</ele>
        <time>2019-02-27T10:00:25Z</time>
      </trkpt>
      <trkpt lat="42.74027" lon="0.17796">
        <ele>2257</ele>
        <time>2019-02-27T10:00:26Z</time>
      </trkpt>
      <trkpt lat="42.74027" lon="0.17796">
        <ele>2257</ele>
        <time>2019-02-27T10:00:27Z</time>
      </trkpt>
      <trkpt lat="42.74027" lon="0.17796">
        <ele>2257</ele>
        <time>2019-02-27T10:00:28Z</time>
      </trkpt>
      <trkpt lat="42.74027" lon="0.17793">
        <ele>2258</ele>
        <time>2019-02-27T10:00:29Z</time>
      </trkpt>
      <trkpt lat="42.74027" lon="0.17793">
        <ele>2258</ele>
        <time>2019-02-27T10:00:30Z</time>
      </trkpt>
      <trkpt lat="42.74027" lon="0.17793">
        <ele>2258</ele>
        <time>2019-02-27T10:00:31Z</time>
      </trkpt>
      <trkpt lat="42.74027" lon="0.17793">
        <ele>2258</ele>
        <time>2019-02-27T10:00:32Z</time>
      </trkpt>
      <trkpt lat="42.74027" lon="0.17793">
        <ele>2258</ele>
        <time>2019-02-27T10:00:33Z</time>
      </trkpt>
      <trkpt lat="42.74027" lon="0.1779">
        <ele>2258</ele>
        <time>2019-02-27T10:00:34Z</time>
      </trkpt>
      <trkpt lat="42.74027" lon="0.1779">
        <ele>2258</ele>
        <time>2019-02-27T10:00:35Z</time>
      </trkpt>
      <trkpt lat="42.74027" lon="0.1779">
        <ele>2258</ele>
        <time>2019-02-27T10:00:36Z</time>
      </trkpt>
      <trkpt lat="42.74027" lon="0.1779">
        <ele>2258</ele>
        <time>2019-02-27T10:00:37Z</time>
      </trkpt>
      <trkpt lat="42.74027" lon="0.17787">
        <ele>2258</ele>
        <time>2019-02-27T10:00:38Z</time>
      </trkpt>
      <trkpt lat="42.74027" lon="0.17787">
        <ele>2258</ele>
        <time>2019-02-27T10:00:39Z</time>
      </trkpt>
      <trkpt lat="42.74027" lon="0.17787">
        <ele>2258</ele>
        <time>2019-02-27T10:00:40Z</time>
      </trkpt>
      <trkpt lat="42.74027" lon="0.17787">
        <ele>2258</ele>
        <time>2019-02-27T10:00:41Z</time>
      </trkpt>
      <trkpt lat="42.74027" lon="0.17784">
        <ele>2258</ele>
        <time>2019-02-27T10:00:42Z</time>
      </trkpt>
      <trkpt lat="42.74027" lon="0.17784">
        <ele>2258</ele>
        <time>2019-02-27T10:00:43Z</time>
      </trkpt>
      <trkpt lat="42.74027" lon="0.17784">
        <ele>2258</ele>
        <time>2019-02-27T10:00:44Z</time>
      </trkpt>
      <trkpt lat="42.74027" lon="0.17784">
        <ele>2258</ele>
        <time>2019-02-27T10:00:45Z</time>
      </trkpt>
      <trkpt lat="42.74027" lon="0.17781">
        <ele>2258</ele>
        <time>2019-02-27T10:00:46Z</time>
      </trkpt>
      <trkpt lat="42.74027" lon="0.17781">
        <ele>2258</ele>
        <time>2019-02-27T10:00:47Z</time>
      </trkpt>
      <trkpt lat="42.74027" lon="0.17781">
        <ele>2258</ele>
        <time>2019-02-27T10:00:48Z</time>
      </trkpt>
      <trkpt lat="42.74027" lon="0.17781">
        <ele>2258</ele>
        <time>2019-02-27T10:00:49Z</time>
      </trkpt>
      <trkpt lat="42.74027" lon="0.17781">
        <ele>2258</ele>
        <time>2019-02-27T10:00:50Z</time>
      </trkpt>
      <trkpt lat="42.74027" lon="0.17778">
        <ele>2258</ele>
        <time>2019-02-27T10:00:51Z</time>
      </trkpt>
      <trkpt lat="42.74027" lon="0.17778">
        <ele>2258</ele>
        <time>2019-02-27T10:00:52Z</time>
      </trkpt>
      <trkpt lat="42.74027" lon="0.17778">
        <ele>2258</ele>
        <time>2019-02-27T10:00:53Z</time>
      </trkpt>
      <trkpt lat="42.74027" lon="0.17778">
        <ele>2259</ele>
        <time>2019-02-27T10:00:54Z</time>
      </trkpt>
      <trkpt lat="42.74028" lon="0.17775">
        <ele>2259</ele>
        <time>2019-02-27T10:00:55Z</time>
      </trkpt>
      <trkpt lat="42.74028" lon="0.17775">
        <ele>2259</ele>
        <time>2019-02-27T10:00:56Z</time>
      </trkpt>
      <trkpt lat="42.74028" lon="0.17775">
        <ele>2259</ele>
        <time>2019-02-27T10:00:57Z</time>
      </trkpt>
      <trkpt lat="42.74028" lon="0.17775">
        <ele>2259</ele>
        <time>2019-02-27T10:00:58Z</time>
      </trkpt>
      <trkpt lat="42.74028" lon="0.17772">
        <ele>2259</ele>
        <time>2019-02-27T10:00:59Z</time>
      </trkpt>
      <trkpt lat="42.74028" lon="0.17772">
        <ele>2259</ele>
        <time>2019-02-27T10:01:00Z</time>
      </trkpt>
      <trkpt lat="42.74028" lon="0.17772">
        <ele>2261</ele>
        <time>2019-02-27T10:01:01Z</time>
      </trkpt>
      <trkpt lat="42.74028" lon="0.17772">
        <ele>2261</ele>
        <time>2019-02-27T10:01:02Z</time>
      </trkpt>
      <trkpt lat="42.74028" lon="0.17769">
        <ele>2261</ele>
        <time>2019-02-27T10:01:03Z</time>
      </trkpt>
      <trkpt lat="42.74028" lon="0.17769">
        <ele>2261</ele>
        <time>2019-02-27T10:01:04Z</time>
      </trkpt>
      <trkpt lat="42.74028" lon="0.17769">
        <ele>2261</ele>
        <time>2019-02-27T10:01:05Z</time>
      </trkpt>
      <trkpt lat="42.74028" lon="0.17767">
        <ele>2261</ele>
        <time>2019-02-27T10:01:06Z</time>
      </trkpt>
      <trkpt lat="42.74028" lon="0.17767">
        <ele>2261</ele>
        <time>2019-02-27T10:01:07Z</time>
      </trkpt>
      <trkpt lat="42.74028" lon="0.17767">
        <ele>2261</ele>
        <time>2019-02-27T10:01:08Z</time>
      </trkpt>
      <trkpt lat="42.74029" lon="0.17764">
        <ele>2261</ele>
        <time>2019-02-27T10:01:09Z</time>
      </trkpt>
      <trkpt lat="42.74029" lon="0.17764">
        <ele>2261</ele>
        <time>2019-02-27T10:01:10Z</time>
      </trkpt>
      <trkpt lat="42.74029" lon="0.17764">
        <ele>2261</ele>
        <time>2019-02-27T10:01:11Z</time>
      </trkpt>
      <trkpt lat="42.74029" lon="0.17761">
        <ele>2262</ele>
        <time>2019-02-27T10:01:12Z</time>
      </trkpt>
      <trkpt lat="42.74029" lon="0.17761">
        <ele>2262</ele>
        <time>2019-02-27T10:01:13Z</time>
      </trkpt>
      <trkpt lat="42.74029" lon="0.17761">
        <ele>2262</ele>
        <time>2019-02-27T10:01:14Z</time>
      </trkpt>
      <trkpt lat="42.74029" lon="0.17761">
        <ele>2262</ele>
        <time>2019-02-27T10:01:15Z</time>
      </trkpt>
      <trkpt lat="42.74029" lon="0.17759">
        <ele>2262</ele>
        <time>2019-02-27T10:01:16Z</time>
      </trkpt>
      <trkpt lat="42.74029" lon="0.17759">
        <ele>2262</ele>
        <time>2019-02-27T10:01:17Z</time>
      </trkpt>
      <trkpt lat="42.74029" lon="0.17759">
        <ele>2262</ele>
        <time>2019-02-27T10:01:18Z</time>
      </trkpt>
      <trkpt lat="42.74029" lon="0.17759">
        <ele>2262</ele>
        <time>2019-02-27T10:01:19Z</time>
      </trkpt>
      <trkpt lat="42.74029" lon="0.17756">
        <ele>2262</ele>
        <time>2019-02-27T10:01:20Z</time>
      </trkpt>
      <trkpt lat="42.74029" lon="0.17756">
        <ele>2262</ele>
        <time>2019-02-27T10:01:21Z</time>
      </trkpt>
      <trkpt lat="42.74029" lon="0.17756">
        <ele>2263</ele>
        <time>2019-02-27T10:01:22Z</time>
      </trkpt>
      <trkpt lat="42.74029" lon="0.17756">
        <ele>2263</ele>
        <time>2019-02-27T10:01:23Z</time>
      </trkpt>
      <trkpt lat="42.74029" lon="0.17756">
        <ele>2263</ele>
        <time>2019-02-27T10:01:24Z</time>
      </trkpt>
      <trkpt lat="42.7403" lon="0.17753">
        <ele>2263</ele>
        <time>2019-02-27T10:01:25Z</time>
      </trkpt>
      <trkpt lat="42.7403" lon="0.17753">
        <ele>2263</ele>
        <time>2019-02-27T10:01:26Z</time>
      </trkpt>
      <trkpt lat="42.7403" lon="0.17753">
        <ele>2263</ele>
        <time>2019-02-27T10:01:27Z</time>
      </trkpt>
      <trkpt lat="42.7403" lon="0.17753">
        <ele>2263</ele>
        <time>2019-02-27T10:01:28Z</time>
      </trkpt>
      <trkpt lat="42.7403" lon="0.17753">
        <ele>2263</ele>
        <time>2019-02-27T10:01:29Z</time>
      </trkpt>
      <trkpt lat="42.74031" lon="0.17751">
        <ele>2263</ele>
        <time>2019-02-27T10:01:30Z</time>
      </trkpt>
      <trkpt lat="42.74031" lon="0.17751">
        <ele>2263</ele>
        <time>2019-02-27T10:01:31Z</time>
      </trkpt>
      <trkpt lat="42.74031" lon="0.17751">
        <ele>2263</ele>
        <time>2019-02-27T10:01:32Z</time>
      </trkpt>
      <trkpt lat="42.74031" lon="0.17751">
        <ele>2263</ele>
        <time>2019-02-27T10:01:33Z</time>
      </trkpt>
      <trkpt lat="42.74031" lon="0.17748">
        <ele>2264</ele>
        <time>2019-02-27T10:01:34Z</time>
      </trkpt>
      <trkpt lat="42.74031" lon="0.17748">
        <ele>2264</ele>
        <time>2019-02-27T10:01:35Z</time>
      </trkpt>
      <trkpt lat="42.74031" lon="0.17748">
        <ele>2264</ele>
        <time>2019-02-27T10:01:36Z</time>
      </trkpt>
      <trkpt lat="42.74031" lon="0.17748">
        <ele>2264</ele>
        <time>2019-02-27T10:01:37Z</time>
      </trkpt>
      <trkpt lat="42.74033" lon="0.17746">
        <ele>2264</ele>
        <time>2019-02-27T10:01:38Z</time>
      </trkpt>
      <trkpt lat="42.74033" lon="0.17746">
        <ele>2264</ele>
        <time>2019-02-27T10:01:39Z</time>
      </trkpt>
      <trkpt lat="42.74033" lon="0.17746">
        <ele>2265</ele>
        <time>2019-02-27T10:01:40Z</time>
      </trkpt>
      <trkpt lat="42.74033" lon="0.17746">
        <ele>2265</ele>
        <time>2019-02-27T10:01:41Z</time>
      </trkpt>
      <trkpt lat="42.74034" lon="0.17743">
        <ele>2265</ele>
        <time>2019-02-27T10:01:42Z</time>
      </trkpt>
      <trkpt lat="42.74034" lon="0.17743">
        <ele>2265</ele>
        <time>2019-02-27T10:01:43Z</time>
      </trkpt>
      <trkpt lat="42.74034" lon="0.17743">
        <ele>2265</ele>
        <time>2019-02-27T10:01:44Z</time>
      </trkpt>
      <trkpt lat="42.74034" lon="0.17743">
        <ele>2265</ele>
        <time>2019-02-27T10:01:45Z</time>
      </trkpt>
      <trkpt lat="42.74035" lon="0.1774">
        <ele>2265</ele>
        <time>2019-02-27T10:01:46Z</time>
      </trkpt>
      <trkpt lat="42.74035" lon="0.1774">
        <ele>2265</ele>
        <time>2019-02-27T10:01:47Z</time>
      </trkpt>
      <trkpt lat="42.74035" lon="0.1774">
        <ele>2265</ele>
        <time>2019-02-27T10:01:48Z</time>
      </trkpt>
      <trkpt lat="42.74035" lon="0.1774">
        <ele>2265</ele>
        <time>2019-02-27T10:01:49Z</time>
      </trkpt>
      <trkpt lat="42.74036" lon="0.17738">
        <ele>2265</ele>
        <time>2019-02-27T10:01:50Z</time>
      </trkpt>
      <trkpt lat="42.74036" lon="0.17738">
        <ele>2265</ele>
        <time>2019-02-27T10:01:51Z</time>
      </trkpt>
      <trkpt lat="42.74036" lon="0.17738">
        <ele>2265</ele>
        <time>2019-02-27T10:01:52Z</time>
      </trkpt>
      <trkpt lat="42.74036" lon="0.17738">
        <ele>2265</ele>
        <time>2019-02-27T10:01:53Z</time>
      </trkpt>
      <trkpt lat="42.74037" lon="0.17736">
        <ele>2266</ele>
        <time>2019-02-27T10:01:54Z</time>
      </trkpt>
      <trkpt lat="42.74037" lon="0.17736">
        <ele>2266</ele>
        <time>2019-02-27T10:01:55Z</time>
      </trkpt>
      <trkpt lat="42.74037" lon="0.17736">
        <ele>2266</ele>
        <time>2019-02-27T10:01:56Z</time>
      </trkpt>
      <trkpt lat="42.74037" lon="0.17736">
        <ele>2266</ele>
        <time>2019-02-27T10:01:57Z</time>
      </trkpt>
      <trkpt lat="42.74038" lon="0.17733">
        <ele>2266</ele>
        <time>2019-02-27T10:01:58Z</time>
      </trkpt>
      <trkpt lat="42.74038" lon="0.17733">
        <ele>2266</ele>
        <time>2019-02-27T10:01:59Z</time>
      </trkpt>
      <trkpt lat="42.74038" lon="0.17733">
        <ele>2266</ele>
        <time>2019-02-27T10:02:00Z</time>
      </trkpt>
      <trkpt lat="42.74038" lon="0.17733">
        <ele>2266</ele>
        <time>2019-02-27T10:02:01Z</time>
      </trkpt>
      <trkpt lat="42.74039" lon="0.17731">
        <ele>2266</ele>
        <time>2019-02-27T10:02:02Z</time>
      </trkpt>
      <trkpt lat="42.74039" lon="0.17731">
        <ele>2266</ele>
        <time>2019-02-27T10:02:03Z</time>
      </trkpt>
      <trkpt lat="42.74039" lon="0.17731">
        <ele>2267</ele>
        <time>2019-02-27T10:02:04Z</time>
      </trkpt>
      <trkpt lat="42.74039" lon="0.17731">
        <ele>2267</ele>
        <time>2019-02-27T10:02:05Z</time>
      </trkpt>
      <trkpt lat="42.74039" lon="0.17729">
        <ele>2267</ele>
        <time>2019-02-27T10:02:06Z</time>
      </trkpt>
      <trkpt lat="42.74039" lon="0.17729">
        <ele>2267</ele>
        <time>2019-02-27T10:02:07Z</time>
      </trkpt>
      <trkpt lat="42.74039" lon="0.17729">
        <ele>2267</ele>
        <time>2019-02-27T10:02:08Z</time>
      </trkpt>
      <trkpt lat="42.74039" lon="0.17729">
        <ele>2267</ele>
        <time>2019-02-27T10:02:09Z</time>
      </trkpt>
      <trkpt lat="42.74039" lon="0.17729">
        <ele>2267</ele>
        <time>2019-02-27T10:02:10Z</time>
      </trkpt>
      <trkpt lat="42.7404" lon="0.17726">
        <ele>2267</ele>
        <time>2019-02-27T10:02:11Z</time>
      </trkpt>
      <trkpt lat="42.7404" lon="0.17726">
        <ele>2267</ele>
        <time>2019-02-27T10:02:12Z</time>
      </trkpt>
      <trkpt lat="42.7404" lon="0.17726">
        <ele>2267</ele>
        <time>2019-02-27T10:02:13Z</time>
      </trkpt>
      <trkpt lat="42.7404" lon="0.17726">
        <ele>2267</ele>
        <time>2019-02-27T10:02:14Z</time>
      </trkpt>
      <trkpt lat="42.7404" lon="0.17726">
        <ele>2267</ele>
        <time>2019-02-27T10:02:15Z</time>
      </trkpt>
      <trkpt lat="42.7404" lon="0.17726">
        <ele>2267</ele>
        <time>2019-02-27T10:02:16Z</time>
      </trkpt>
      <trkpt lat="42.7404" lon="0.17726">
        <ele>2267</ele>
        <time>2019-02-27T10:02:17Z</time>
      </trkpt>
      <trkpt lat="42.74041" lon="0.17724">
        <ele>2267</ele>
        <time>2019-02-27T10:02:18Z</time>
      </trkpt>
      <trkpt lat="42.74041" lon="0.17724">
        <ele>2267</ele>
        <time>2019-02-27T10:02:19Z</time>
      </trkpt>
      <trkpt lat="42.74041" lon="0.17724">
        <ele>2267</ele>
        <time>2019-02-27T10:02:20Z</time>
      </trkpt>
      <trkpt lat="42.74041" lon="0.17724">
        <ele>2267</ele>
        <time>2019-02-27T10:02:21Z</time>
      </trkpt>
      <trkpt lat="42.74041" lon="0.17724">
        <ele>2267</ele>
        <time>2019-02-27T10:02:22Z</time>
      </trkpt>
      <trkpt lat="42.74041" lon="0.17724">
        <ele>2267</ele>
        <time>2019-02-27T10:02:23Z</time>
      </trkpt>
      <trkpt lat="42.74041" lon="0.17724">
        <ele>2268</ele>
        <time>2019-02-27T10:02:24Z</time>
      </trkpt>
      <trkpt lat="42.74041" lon="0.17724">
        <ele>2268</ele>
        <time>2019-02-27T10:02:25Z</time>
      </trkpt>
      <trkpt lat="42.74042" lon="0.17721">
        <ele>2268</ele>
        <time>2019-02-27T10:02:26Z</time>
      </trkpt>
      <trkpt lat="42.74042" lon="0.17721">
        <ele>2268</ele>
        <time>2019-02-27T10:02:27Z</time>
      </trkpt>
      <trkpt lat="42.74042" lon="0.17721">
        <ele>2268</ele>
        <time>2019-02-27T10:02:28Z</time>
      </trkpt>
      <trkpt lat="42.74042" lon="0.17721">
        <ele>2268</ele>
        <time>2019-02-27T10:02:29Z</time>
      </trkpt>
      <trkpt lat="42.74042" lon="0.17721">
        <ele>2268</ele>
        <time>2019-02-27T10:02:30Z</time>
      </trkpt>
      <trkpt lat="42.74042" lon="0.17718">
        <ele>2268</ele>
        <time>2019-02-27T10:02:31Z</time>
      </trkpt>
      <trkpt lat="42.74042" lon="0.17718">
        <ele>2268</ele>
        <time>2019-02-27T10:02:32Z</time>
      </trkpt>
      <trkpt lat="42.74042" lon="0.17718">
        <ele>2269</ele>
        <time>2019-02-27T10:02:33Z</time>
      </trkpt>
      <trkpt lat="42.74042" lon="0.17718">
        <ele>2269</ele>
        <time>2019-02-27T10:02:34Z</time>
      </trkpt>
      <trkpt lat="42.74043" lon="0.17715">
        <ele>2269</ele>
        <time>2019-02-27T10:02:35Z</time>
      </trkpt>
      <trkpt lat="42.74043" lon="0.17715">
        <ele>2269</ele>
        <time>2019-02-27T10:02:36Z</time>
      </trkpt>
      <trkpt lat="42.74043" lon="0.17715">
        <ele>2269</ele>
        <time>2019-02-27T10:02:37Z</time>
      </trkpt>
      <trkpt lat="42.74043" lon="0.17715">
        <ele>2269</ele>
        <time>2019-02-27T10:02:38Z</time>
      </trkpt>
      <trkpt lat="42.74043" lon="0.17712">
        <ele>2270</ele>
        <time>2019-02-27T10:02:39Z</time>
      </trkpt>
      <trkpt lat="42.74043" lon="0.17712">
        <ele>2270</ele>
        <time>2019-02-27T10:02:40Z</time>
      </trkpt>
      <trkpt lat="42.74043" lon="0.17712">
        <ele>2270</ele>
        <time>2019-02-27T10:02:41Z</time>
      </trkpt>
      <trkpt lat="42.74043" lon="0.17712">
        <ele>2270</ele>
        <time>2019-02-27T10:02:42Z</time>
      </trkpt>
      <trkpt lat="42.74044" lon="0.17709">
        <ele>2270</ele>
        <time>2019-02-27T10:02:43Z</time>
      </trkpt>
      <trkpt lat="42.74044" lon="0.17709">
        <ele>2270</ele>
        <time>2019-02-27T10:02:44Z</time>
      </trkpt>
      <trkpt lat="42.74044" lon="0.17709">
        <ele>2270</ele>
        <time>2019-02-27T10:02:45Z</time>
      </trkpt>
      <trkpt lat="42.74044" lon="0.17709">
        <ele>2270</ele>
        <time>2019-02-27T10:02:46Z</time>
      </trkpt>
      <trkpt lat="42.74044" lon="0.17707">
        <ele>2270</ele>
        <time>2019-02-27T10:02:47Z</time>
      </trkpt>
      <trkpt lat="42.74044" lon="0.17707">
        <ele>2271</ele>
        <time>2019-02-27T10:02:48Z</time>
      </trkpt>
      <trkpt lat="42.74044" lon="0.17707">
        <ele>2271</ele>
        <time>2019-02-27T10:02:49Z</time>
      </trkpt>
      <trkpt lat="42.74044" lon="0.17707">
        <ele>2271</ele>
        <time>2019-02-27T10:02:50Z</time>
      </trkpt>
      <trkpt lat="42.74045" lon="0.17704">
        <ele>2271</ele>
        <time>2019-02-27T10:02:51Z</time>
      </trkpt>
      <trkpt lat="42.74045" lon="0.17704">
        <ele>2271</ele>
        <time>2019-02-27T10:02:52Z</time>
      </trkpt>
      <trkpt lat="42.74045" lon="0.17704">
        <ele>2271</ele>
        <time>2019-02-27T10:02:53Z</time>
      </trkpt>
      <trkpt lat="42.74045" lon="0.17704">
        <ele>2271</ele>
        <time>2019-02-27T10:02:54Z</time>
      </trkpt>
      <trkpt lat="42.74045" lon="0.17701">
        <ele>2271</ele>
        <time>2019-02-27T10:02:55Z</time>
      </trkpt>
      <trkpt lat="42.74045" lon="0.17701">
        <ele>2271</ele>
        <time>2019-02-27T10:02:56Z</time>
      </trkpt>
      <trkpt lat="42.74045" lon="0.17701">
        <ele>2272</ele>
        <time>2019-02-27T10:02:57Z</time>
      </trkpt>
      <trkpt lat="42.74045" lon="0.17701">
        <ele>2272</ele>
        <time>2019-02-27T10:02:58Z</time>
      </trkpt>
      <trkpt lat="42.74046" lon="0.17698">
        <ele>2272</ele>
        <time>2019-02-27T10:02:59Z</time>
      </trkpt>
      <trkpt lat="42.74046" lon="0.17698">
        <ele>2272</ele>
        <time>2019-02-27T10:03:00Z</time>
      </trkpt>
      <trkpt lat="42.74046" lon="0.17698">
        <ele>2272</ele>
        <time>2019-02-27T10:03:01Z</time>
      </trkpt>
      <trkpt lat="42.74047" lon="0.17696">
        <ele>2272</ele>
        <time>2019-02-27T10:03:02Z</time>
      </trkpt>
      <trkpt lat="42.74047" lon="0.17696">
        <ele>2272</ele>
        <time>2019-02-27T10:03:03Z</time>
      </trkpt>
      <trkpt lat="42.74047" lon="0.17696">
        <ele>2272</ele>
        <time>2019-02-27T10:03:04Z</time>
      </trkpt>
      <trkpt lat="42.74047" lon="0.17696">
        <ele>2272</ele>
        <time>2019-02-27T10:03:05Z</time>
      </trkpt>
      <trkpt lat="42.74048" lon="0.17693">
        <ele>2272</ele>
        <time>2019-02-27T10:03:06Z</time>
      </trkpt>
      <trkpt lat="42.74048" lon="0.17693">
        <ele>2272</ele>
        <time>2019-02-27T10:03:07Z</time>
      </trkpt>
      <trkpt lat="42.74048" lon="0.17693">
        <ele>2273</ele>
        <time>2019-02-27T10:03:08Z</time>
      </trkpt>
      <trkpt lat="42.74048" lon="0.17693">
        <ele>2273</ele>
        <time>2019-02-27T10:03:09Z</time>
      </trkpt>
      <trkpt lat="42.74047" lon="0.17691">
        <ele>2273</ele>
        <time>2019-02-27T10:03:10Z</time>
      </trkpt>
      <trkpt lat="42.74047" lon="0.17691">
        <ele>2273</ele>
        <time>2019-02-27T10:03:11Z</time>
      </trkpt>
      <trkpt lat="42.74047" lon="0.17691">
        <ele>2274</ele>
        <time>2019-02-27T10:03:12Z</time>
      </trkpt>
      <trkpt lat="42.74047" lon="0.17691">
        <ele>2274</ele>
        <time>2019-02-27T10:03:13Z</time>
      </trkpt>
      <trkpt lat="42.74048" lon="0.17688">
        <ele>2274</ele>
        <time>2019-02-27T10:03:15Z</time>
      </trkpt>
      <trkpt lat="42.74048" lon="0.17688">
        <ele>2274</ele>
        <time>2019-02-27T10:03:16Z</time>
      </trkpt>
      <trkpt lat="42.74048" lon="0.17688">
        <ele>2274</ele>
        <time>2019-02-27T10:03:17Z</time>
      </trkpt>
      <trkpt lat="42.74048" lon="0.17688">
        <ele>2274</ele>
        <time>2019-02-27T10:03:18Z</time>
      </trkpt>
      <trkpt lat="42.74049" lon="0.17686">
        <ele>2274</ele>
        <time>2019-02-27T10:03:19Z</time>
      </trkpt>
      <trkpt lat="42.74049" lon="0.17686">
        <ele>2274</ele>
        <time>2019-02-27T10:03:20Z</time>
      </trkpt>
      <trkpt lat="42.74049" lon="0.17686">
        <ele>2274</ele>
        <time>2019-02-27T10:03:21Z</time>
      </trkpt>
      <trkpt lat="42.74049" lon="0.17686">
        <ele>2274</ele>
        <time>2019-02-27T10:03:22Z</time>
      </trkpt>
      <trkpt lat="42.74049" lon="0.17683">
        <ele>2274</ele>
        <time>2019-02-27T10:03:23Z</time>
      </trkpt>
      <trkpt lat="42.74049" lon="0.17683">
        <ele>2274</ele>
        <time>2019-02-27T10:03:24Z</time>
      </trkpt>
      <trkpt lat="42.74049" lon="0.17683">
        <ele>2274</ele>
        <time>2019-02-27T10:03:25Z</time>
      </trkpt>
      <trkpt lat="42.74049" lon="0.17683">
        <ele>2274</ele>
        <time>2019-02-27T10:03:26Z</time>
      </trkpt>
      <trkpt lat="42.7405" lon="0.1768">
        <ele>2274</ele>
        <time>2019-02-27T10:03:27Z</time>
      </trkpt>
      <trkpt lat="42.7405" lon="0.1768">
        <ele>2275</ele>
        <time>2019-02-27T10:03:28Z</time>
      </trkpt>
      <trkpt lat="42.7405" lon="0.1768">
        <ele>2275</ele>
        <time>2019-02-27T10:03:29Z</time>
      </trkpt>
      <trkpt lat="42.7405" lon="0.1768">
        <ele>2275</ele>
        <time>2019-02-27T10:03:30Z</time>
      </trkpt>
      <trkpt lat="42.7405" lon="0.1768">
        <ele>2275</ele>
        <time>2019-02-27T10:03:31Z</time>
      </trkpt>
      <trkpt lat="42.7405" lon="0.17677">
        <ele>2275</ele>
        <time>2019-02-27T10:03:32Z</time>
      </trkpt>
      <trkpt lat="42.7405" lon="0.17677">
        <ele>2275</ele>
        <time>2019-02-27T10:03:33Z</time>
      </trkpt>
      <trkpt lat="42.7405" lon="0.17677">
        <ele>2275</ele>
        <time>2019-02-27T10:03:34Z</time>
      </trkpt>
      <trkpt lat="42.7405" lon="0.17677">
        <ele>2276</ele>
        <time>2019-02-27T10:03:35Z</time>
      </trkpt>
      <trkpt lat="42.74051" lon="0.17675">
        <ele>2276</ele>
        <time>2019-02-27T10:03:36Z</time>
      </trkpt>
      <trkpt lat="42.74051" lon="0.17675">
        <ele>2276</ele>
        <time>2019-02-27T10:03:37Z</time>
      </trkpt>
      <trkpt lat="42.74051" lon="0.17675">
        <ele>2276</ele>
        <time>2019-02-27T10:03:38Z</time>
      </trkpt>
      <trkpt lat="42.74051" lon="0.17675">
        <ele>2276</ele>
        <time>2019-02-27T10:03:39Z</time>
      </trkpt>
      <trkpt lat="42.74051" lon="0.17672">
        <ele>2276</ele>
        <time>2019-02-27T10:03:40Z</time>
      </trkpt>
      <trkpt lat="42.74051" lon="0.17672">
        <ele>2276</ele>
        <time>2019-02-27T10:03:41Z</time>
      </trkpt>
      <trkpt lat="42.74051" lon="0.17672">
        <ele>2276</ele>
        <time>2019-02-27T10:03:42Z</time>
      </trkpt>
      <trkpt lat="42.74051" lon="0.17672">
        <ele>2276</ele>
        <time>2019-02-27T10:03:43Z</time>
      </trkpt>
      <trkpt lat="42.74051" lon="0.17669">
        <ele>2276</ele>
        <time>2019-02-27T10:03:44Z</time>
      </trkpt>
      <trkpt lat="42.74051" lon="0.17669">
        <ele>2276</ele>
        <time>2019-02-27T10:03:45Z</time>
      </trkpt>
      <trkpt lat="42.74051" lon="0.17669">
        <ele>2276</ele>
        <time>2019-02-27T10:03:46Z</time>
      </trkpt>
      <trkpt lat="42.74051" lon="0.17667">
        <ele>2277</ele>
        <time>2019-02-27T10:03:47Z</time>
      </trkpt>
      <trkpt lat="42.74051" lon="0.17667">
        <ele>2277</ele>
        <time>2019-02-27T10:03:48Z</time>
      </trkpt>
      <trkpt lat="42.74051" lon="0.17667">
        <ele>2277</ele>
        <time>2019-02-27T10:03:49Z</time>
      </trkpt>
      <trkpt lat="42.74051" lon="0.17665">
        <ele>2277</ele>
        <time>2019-02-27T10:03:50Z</time>
      </trkpt>
      <trkpt lat="42.74051" lon="0.17665">
        <ele>2277</ele>
        <time>2019-02-27T10:03:51Z</time>
      </trkpt>
      <trkpt lat="42.74051" lon="0.17665">
        <ele>2277</ele>
        <time>2019-02-27T10:03:52Z</time>
      </trkpt>
      <trkpt lat="42.74051" lon="0.17665">
        <ele>2277</ele>
        <time>2019-02-27T10:03:53Z</time>
      </trkpt>
      <trkpt lat="42.74052" lon="0.17662">
        <ele>2277</ele>
        <time>2019-02-27T10:03:54Z</time>
      </trkpt>
      <trkpt lat="42.74052" lon="0.17662">
        <ele>2277</ele>
        <time>2019-02-27T10:03:55Z</time>
      </trkpt>
      <trkpt lat="42.74052" lon="0.17662">
        <ele>2277</ele>
        <time>2019-02-27T10:03:56Z</time>
      </trkpt>
      <trkpt lat="42.74052" lon="0.17659">
        <ele>2277</ele>
        <time>2019-02-27T10:03:57Z</time>
      </trkpt>
      <trkpt lat="42.74052" lon="0.17659">
        <ele>2278</ele>
        <time>2019-02-27T10:03:58Z</time>
      </trkpt>
      <trkpt lat="42.74052" lon="0.17659">
        <ele>2278</ele>
        <time>2019-02-27T10:03:59Z</time>
      </trkpt>
      <trkpt lat="42.74052" lon="0.17656">
        <ele>2278</ele>
        <time>2019-02-27T10:04:00Z</time>
      </trkpt>
      <trkpt lat="42.74052" lon="0.17656">
        <ele>2278</ele>
        <time>2019-02-27T10:04:01Z</time>
      </trkpt>
      <trkpt lat="42.74052" lon="0.17656">
        <ele>2278</ele>
        <time>2019-02-27T10:04:02Z</time>
      </trkpt>
      <trkpt lat="42.74052" lon="0.17656">
        <ele>2278</ele>
        <time>2019-02-27T10:04:03Z</time>
      </trkpt>
      <trkpt lat="42.74052" lon="0.17654">
        <ele>2278</ele>
        <time>2019-02-27T10:04:04Z</time>
      </trkpt>
      <trkpt lat="42.74052" lon="0.17654">
        <ele>2279</ele>
        <time>2019-02-27T10:04:05Z</time>
      </trkpt>
      <trkpt lat="42.74052" lon="0.17654">
        <ele>2279</ele>
        <time>2019-02-27T10:04:06Z</time>
      </trkpt>
      <trkpt lat="42.74052" lon="0.17651">
        <ele>2279</ele>
        <time>2019-02-27T10:04:07Z</time>
      </trkpt>
      <trkpt lat="42.74052" lon="0.17651">
        <ele>2279</ele>
        <time>2019-02-27T10:04:08Z</time>
      </trkpt>
      <trkpt lat="42.74052" lon="0.17651">
        <ele>2279</ele>
        <time>2019-02-27T10:04:09Z</time>
      </trkpt>
      <trkpt lat="42.74052" lon="0.17651">
        <ele>2279</ele>
        <time>2019-02-27T10:04:10Z</time>
      </trkpt>
      <trkpt lat="42.74052" lon="0.17651">
        <ele>2279</ele>
        <time>2019-02-27T10:04:11Z</time>
      </trkpt>
      <trkpt lat="42.74053" lon="0.17648">
        <ele>2279</ele>
        <time>2019-02-27T10:04:12Z</time>
      </trkpt>
      <trkpt lat="42.74053" lon="0.17648">
        <ele>2280</ele>
        <time>2019-02-27T10:04:13Z</time>
      </trkpt>
      <trkpt lat="42.74053" lon="0.17648">
        <ele>2280</ele>
        <time>2019-02-27T10:04:14Z</time>
      </trkpt>
      <trkpt lat="42.74053" lon="0.17648">
        <ele>2280</ele>
        <time>2019-02-27T10:04:15Z</time>
      </trkpt>
      <trkpt lat="42.74053" lon="0.17645">
        <ele>2280</ele>
        <time>2019-02-27T10:04:16Z</time>
      </trkpt>
      <trkpt lat="42.74053" lon="0.17645">
        <ele>2280</ele>
        <time>2019-02-27T10:04:17Z</time>
      </trkpt>
      <trkpt lat="42.74053" lon="0.17645">
        <ele>2280</ele>
        <time>2019-02-27T10:04:18Z</time>
      </trkpt>
      <trkpt lat="42.74053" lon="0.17645">
        <ele>2280</ele>
        <time>2019-02-27T10:04:19Z</time>
      </trkpt>
      <trkpt lat="42.74053" lon="0.17642">
        <ele>2280</ele>
        <time>2019-02-27T10:04:20Z</time>
      </trkpt>
      <trkpt lat="42.74053" lon="0.17642">
        <ele>2280</ele>
        <time>2019-02-27T10:04:21Z</time>
      </trkpt>
      <trkpt lat="42.74053" lon="0.17642">
        <ele>2280</ele>
        <time>2019-02-27T10:04:22Z</time>
      </trkpt>
      <trkpt lat="42.74053" lon="0.17642">
        <ele>2280</ele>
        <time>2019-02-27T10:04:23Z</time>
      </trkpt>
      <trkpt lat="42.74054" lon="0.1764">
        <ele>2280</ele>
        <time>2019-02-27T10:04:24Z</time>
      </trkpt>
      <trkpt lat="42.74054" lon="0.1764">
        <ele>2280</ele>
        <time>2019-02-27T10:04:25Z</time>
      </trkpt>
      <trkpt lat="42.74054" lon="0.1764">
        <ele>2280</ele>
        <time>2019-02-27T10:04:26Z</time>
      </trkpt>
      <trkpt lat="42.74054" lon="0.1764">
        <ele>2280</ele>
        <time>2019-02-27T10:04:27Z</time>
      </trkpt>
      <trkpt lat="42.74054" lon="0.1764">
        <ele>2281</ele>
        <time>2019-02-27T10:04:28Z</time>
      </trkpt>
      <trkpt lat="42.74055" lon="0.17637">
        <ele>2281</ele>
        <time>2019-02-27T10:04:29Z</time>
      </trkpt>
      <trkpt lat="42.74055" lon="0.17637">
        <ele>2281</ele>
        <time>2019-02-27T10:04:30Z</time>
      </trkpt>
      <trkpt lat="42.74055" lon="0.17637">
        <ele>2281</ele>
        <time>2019-02-27T10:04:31Z</time>
      </trkpt>
      <trkpt lat="42.74055" lon="0.17637">
        <ele>2281</ele>
        <time>2019-02-27T10:04:32Z</time>
      </trkpt>
      <trkpt lat="42.74055" lon="0.17637">
        <ele>2281</ele>
        <time>2019-02-27T10:04:33Z</time>
      </trkpt>
      <trkpt lat="42.74056" lon="0.17634">
        <ele>2282</ele>
        <time>2019-02-27T10:04:34Z</time>
      </trkpt>
      <trkpt lat="42.74056" lon="0.17634">
        <ele>2282</ele>
        <time>2019-02-27T10:04:35Z</time>
      </trkpt>
      <trkpt lat="42.74056" lon="0.17634">
        <ele>2282</ele>
        <time>2019-02-27T10:04:36Z</time>
      </trkpt>
      <trkpt lat="42.74056" lon="0.17634">
        <ele>2282</ele>
        <time>2019-02-27T10:04:37Z</time>
      </trkpt>
      <trkpt lat="42.74057" lon="0.17632">
        <ele>2282</ele>
        <time>2019-02-27T10:04:38Z</time>
      </trkpt>
      <trkpt lat="42.74057" lon="0.17632">
        <ele>2282</ele>
        <time>2019-02-27T10:04:39Z</time>
      </trkpt>
      <trkpt lat="42.74057" lon="0.17632">
        <ele>2282</ele>
        <time>2019-02-27T10:04:40Z</time>
      </trkpt>
      <trkpt lat="42.74058" lon="0.17629">
        <ele>2282</ele>
        <time>2019-02-27T10:04:41Z</time>
      </trkpt>
      <trkpt lat="42.74058" lon="0.17629">
        <ele>2282</ele>
        <time>2019-02-27T10:04:42Z</time>
      </trkpt>
      <trkpt lat="42.74058" lon="0.17629">
        <ele>2282</ele>
        <time>2019-02-27T10:04:43Z</time>
      </trkpt>
      <trkpt lat="42.74058" lon="0.17629">
        <ele>2282</ele>
        <time>2019-02-27T10:04:44Z</time>
      </trkpt>
      <trkpt lat="42.74059" lon="0.17627">
        <ele>2282</ele>
        <time>2019-02-27T10:04:45Z</time>
      </trkpt>
      <trkpt lat="42.74059" lon="0.17627">
        <ele>2282</ele>
        <time>2019-02-27T10:04:46Z</time>
      </trkpt>
      <trkpt lat="42.74059" lon="0.17627">
        <ele>2282</ele>
        <time>2019-02-27T10:04:47Z</time>
      </trkpt>
      <trkpt lat="42.74059" lon="0.17627">
        <ele>2282</ele>
        <time>2019-02-27T10:04:48Z</time>
      </trkpt>
      <trkpt lat="42.74059" lon="0.17627">
        <ele>2283</ele>
        <time>2019-02-27T10:04:49Z</time>
      </trkpt>
      <trkpt lat="42.74059" lon="0.17627">
        <ele>2283</ele>
        <time>2019-02-27T10:04:50Z</time>
      </trkpt>
      <trkpt lat="42.7406" lon="0.17625">
        <ele>2283</ele>
        <time>2019-02-27T10:04:51Z</time>
      </trkpt>
      <trkpt lat="42.7406" lon="0.17625">
        <ele>2283</ele>
        <time>2019-02-27T10:04:52Z</time>
      </trkpt>
      <trkpt lat="42.7406" lon="0.17625">
        <ele>2283</ele>
        <time>2019-02-27T10:04:53Z</time>
      </trkpt>
      <trkpt lat="42.7406" lon="0.17625">
        <ele>2283</ele>
        <time>2019-02-27T10:04:54Z</time>
      </trkpt>
      <trkpt lat="42.7406" lon="0.17625">
        <ele>2283</ele>
        <time>2019-02-27T10:04:55Z</time>
      </trkpt>
      <trkpt lat="42.74061" lon="0.17622">
        <ele>2283</ele>
        <time>2019-02-27T10:04:56Z</time>
      </trkpt>
      <trkpt lat="42.74061" lon="0.17622">
        <ele>2283</ele>
        <time>2019-02-27T10:04:57Z</time>
      </trkpt>
      <trkpt lat="42.74061" lon="0.17622">
        <ele>2283</ele>
        <time>2019-02-27T10:04:58Z</time>
      </trkpt>
      <trkpt lat="42.74061" lon="0.17622">
        <ele>2284</ele>
        <time>2019-02-27T10:04:59Z</time>
      </trkpt>
      <trkpt lat="42.74061" lon="0.17622">
        <ele>2284</ele>
        <time>2019-02-27T10:05:00Z</time>
      </trkpt>
      <trkpt lat="42.74062" lon="0.17619">
        <ele>2284</ele>
        <time>2019-02-27T10:05:01Z</time>
      </trkpt>
      <trkpt lat="42.74062" lon="0.17619">
        <ele>2284</ele>
        <time>2019-02-27T10:05:02Z</time>
      </trkpt>
      <trkpt lat="42.74062" lon="0.17619">
        <ele>2285</ele>
        <time>2019-02-27T10:05:03Z</time>
      </trkpt>
      <trkpt lat="42.74062" lon="0.17619">
        <ele>2285</ele>
        <time>2019-02-27T10:05:04Z</time>
      </trkpt>
      <trkpt lat="42.74062" lon="0.17619">
        <ele>2285</ele>
        <time>2019-02-27T10:05:05Z</time>
      </trkpt>
      <trkpt lat="42.74062" lon="0.17617">
        <ele>2287</ele>
        <time>2019-02-27T10:05:06Z</time>
      </trkpt>
      <trkpt lat="42.74062" lon="0.17617">
        <ele>2287</ele>
        <time>2019-02-27T10:05:07Z</time>
      </trkpt>
      <trkpt lat="42.74062" lon="0.17617">
        <ele>2285</ele>
        <time>2019-02-27T10:05:08Z</time>
      </trkpt>
      <trkpt lat="42.74062" lon="0.17617">
        <ele>2285</ele>
        <time>2019-02-27T10:05:09Z</time>
      </trkpt>
      <trkpt lat="42.74063" lon="0.17615">
        <ele>2285</ele>
        <time>2019-02-27T10:05:10Z</time>
      </trkpt>
      <trkpt lat="42.74063" lon="0.17615">
        <ele>2285</ele>
        <time>2019-02-27T10:05:11Z</time>
      </trkpt>
      <trkpt lat="42.74063" lon="0.17615">
        <ele>2285</ele>
        <time>2019-02-27T10:05:12Z</time>
      </trkpt>
      <trkpt lat="42.74063" lon="0.17615">
        <ele>2285</ele>
        <time>2019-02-27T10:05:13Z</time>
      </trkpt>
      <trkpt lat="42.74064" lon="0.17612">
        <ele>2287</ele>
        <time>2019-02-27T10:05:14Z</time>
      </trkpt>
      <trkpt lat="42.74064" lon="0.17612">
        <ele>2287</ele>
        <time>2019-02-27T10:05:15Z</time>
      </trkpt>
      <trkpt lat="42.74064" lon="0.17612">
        <ele>2287</ele>
        <time>2019-02-27T10:05:16Z</time>
      </trkpt>
      <trkpt lat="42.74064" lon="0.17612">
        <ele>2287</ele>
        <time>2019-02-27T10:05:17Z</time>
      </trkpt>
      <trkpt lat="42.74064" lon="0.17612">
        <ele>2287</ele>
        <time>2019-02-27T10:05:18Z</time>
      </trkpt>
      <trkpt lat="42.74064" lon="0.1761">
        <ele>2287</ele>
        <time>2019-02-27T10:05:19Z</time>
      </trkpt>
      <trkpt lat="42.74064" lon="0.1761">
        <ele>2288</ele>
        <time>2019-02-27T10:05:20Z</time>
      </trkpt>
      <trkpt lat="42.74064" lon="0.1761">
        <ele>2288</ele>
        <time>2019-02-27T10:05:21Z</time>
      </trkpt>
      <trkpt lat="42.74064" lon="0.1761">
        <ele>2288</ele>
        <time>2019-02-27T10:05:22Z</time>
      </trkpt>
      <trkpt lat="42.74065" lon="0.17607">
        <ele>2288</ele>
        <time>2019-02-27T10:05:23Z</time>
      </trkpt>
      <trkpt lat="42.74065" lon="0.17607">
        <ele>2288</ele>
        <time>2019-02-27T10:05:24Z</time>
      </trkpt>
      <trkpt lat="42.74065" lon="0.17607">
        <ele>2288</ele>
        <time>2019-02-27T10:05:25Z</time>
      </trkpt>
      <trkpt lat="42.74065" lon="0.17607">
        <ele>2288</ele>
        <time>2019-02-27T10:05:26Z</time>
      </trkpt>
      <trkpt lat="42.74065" lon="0.17607">
        <ele>2288</ele>
        <time>2019-02-27T10:05:27Z</time>
      </trkpt>
      <trkpt lat="42.74065" lon="0.17605">
        <ele>2288</ele>
        <time>2019-02-27T10:05:28Z</time>
      </trkpt>
      <trkpt lat="42.74065" lon="0.17605">
        <ele>2289</ele>
        <time>2019-02-27T10:05:29Z</time>
      </trkpt>
      <trkpt lat="42.74065" lon="0.17605">
        <ele>2289</ele>
        <time>2019-02-27T10:05:30Z</time>
      </trkpt>
      <trkpt lat="42.74065" lon="0.17605">
        <ele>2289</ele>
        <time>2019-02-27T10:05:31Z</time>
      </trkpt>
      <trkpt lat="42.74065" lon="0.17602">
        <ele>2289</ele>
        <time>2019-02-27T10:05:32Z</time>
      </trkpt>
      <trkpt lat="42.74065" lon="0.17602">
        <ele>2289</ele>
        <time>2019-02-27T10:05:33Z</time>
      </trkpt>
      <trkpt lat="42.74065" lon="0.17602">
        <ele>2289</ele>
        <time>2019-02-27T10:05:34Z</time>
      </trkpt>
      <trkpt lat="42.74065" lon="0.17602">
        <ele>2289</ele>
        <time>2019-02-27T10:05:35Z</time>
      </trkpt>
      <trkpt lat="42.74065" lon="0.176">
        <ele>2289</ele>
        <time>2019-02-27T10:05:36Z</time>
      </trkpt>
      <trkpt lat="42.74065" lon="0.176">
        <ele>2289</ele>
        <time>2019-02-27T10:05:37Z</time>
      </trkpt>
      <trkpt lat="42.74065" lon="0.176">
        <ele>2289</ele>
        <time>2019-02-27T10:05:38Z</time>
      </trkpt>
      <trkpt lat="42.74065" lon="0.176">
        <ele>2289</ele>
        <time>2019-02-27T10:05:39Z</time>
      </trkpt>
      <trkpt lat="42.74065" lon="0.17597">
        <ele>2289</ele>
        <time>2019-02-27T10:05:40Z</time>
      </trkpt>
      <trkpt lat="42.74065" lon="0.17597">
        <ele>2289</ele>
        <time>2019-02-27T10:05:41Z</time>
      </trkpt>
      <trkpt lat="42.74065" lon="0.17597">
        <ele>2289</ele>
        <time>2019-02-27T10:05:42Z</time>
      </trkpt>
      <trkpt lat="42.74065" lon="0.17597">
        <ele>2289</ele>
        <time>2019-02-27T10:05:43Z</time>
      </trkpt>
      <trkpt lat="42.74065" lon="0.17597">
        <ele>2289</ele>
        <time>2019-02-27T10:05:44Z</time>
      </trkpt>
      <trkpt lat="42.74064" lon="0.17594">
        <ele>2290</ele>
        <time>2019-02-27T10:05:45Z</time>
      </trkpt>
      <trkpt lat="42.74064" lon="0.17594">
        <ele>2290</ele>
        <time>2019-02-27T10:05:46Z</time>
      </trkpt>
      <trkpt lat="42.74064" lon="0.17594">
        <ele>2290</ele>
        <time>2019-02-27T10:05:47Z</time>
      </trkpt>
      <trkpt lat="42.74064" lon="0.17594">
        <ele>2290</ele>
        <time>2019-02-27T10:05:48Z</time>
      </trkpt>
      <trkpt lat="42.74064" lon="0.17592">
        <ele>2290</ele>
        <time>2019-02-27T10:05:49Z</time>
      </trkpt>
      <trkpt lat="42.74064" lon="0.17592">
        <ele>2290</ele>
        <time>2019-02-27T10:05:50Z</time>
      </trkpt>
      <trkpt lat="42.74064" lon="0.17592">
        <ele>2290</ele>
        <time>2019-02-27T10:05:51Z</time>
      </trkpt>
      <trkpt lat="42.74064" lon="0.17592">
        <ele>2290</ele>
        <time>2019-02-27T10:05:52Z</time>
      </trkpt>
      <trkpt lat="42.74063" lon="0.17589">
        <ele>2290</ele>
        <time>2019-02-27T10:05:53Z</time>
      </trkpt>
      <trkpt lat="42.74063" lon="0.17589">
        <ele>2291</ele>
        <time>2019-02-27T10:05:54Z</time>
      </trkpt>
      <trkpt lat="42.74063" lon="0.17589">
        <ele>2291</ele>
        <time>2019-02-27T10:05:55Z</time>
      </trkpt>
      <trkpt lat="42.74063" lon="0.17589">
        <ele>2291</ele>
        <time>2019-02-27T10:05:56Z</time>
      </trkpt>
      <trkpt lat="42.74063" lon="0.17586">
        <ele>2291</ele>
        <time>2019-02-27T10:05:57Z</time>
      </trkpt>
      <trkpt lat="42.74063" lon="0.17586">
        <ele>2291</ele>
        <time>2019-02-27T10:05:58Z</time>
      </trkpt>
      <trkpt lat="42.74063" lon="0.17586">
        <ele>2291</ele>
        <time>2019-02-27T10:05:59Z</time>
      </trkpt>
      <trkpt lat="42.74063" lon="0.17586">
        <ele>2292</ele>
        <time>2019-02-27T10:06:00Z</time>
      </trkpt>
      <trkpt lat="42.74062" lon="0.17584">
        <ele>2292</ele>
        <time>2019-02-27T10:06:01Z</time>
      </trkpt>
      <trkpt lat="42.74062" lon="0.17584">
        <ele>2292</ele>
        <time>2019-02-27T10:06:02Z</time>
      </trkpt>
      <trkpt lat="42.74062" lon="0.17584">
        <ele>2292</ele>
        <time>2019-02-27T10:06:03Z</time>
      </trkpt>
      <trkpt lat="42.74062" lon="0.17584">
        <ele>2292</ele>
        <time>2019-02-27T10:06:04Z</time>
      </trkpt>
      <trkpt lat="42.74062" lon="0.17581">
        <ele>2293</ele>
        <time>2019-02-27T10:06:05Z</time>
      </trkpt>
      <trkpt lat="42.74062" lon="0.17581">
        <ele>2293</ele>
        <time>2019-02-27T10:06:06Z</time>
      </trkpt>
      <trkpt lat="42.74062" lon="0.17581">
        <ele>2293</ele>
        <time>2019-02-27T10:06:07Z</time>
      </trkpt>
      <trkpt lat="42.74062" lon="0.17581">
        <ele>2293</ele>
        <time>2019-02-27T10:06:08Z</time>
      </trkpt>
      <trkpt lat="42.74062" lon="0.17579">
        <ele>2292</ele>
        <time>2019-02-27T10:06:09Z</time>
      </trkpt>
      <trkpt lat="42.74062" lon="0.17579">
        <ele>2292</ele>
        <time>2019-02-27T10:06:10Z</time>
      </trkpt>
      <trkpt lat="42.74062" lon="0.17579">
        <ele>2292</ele>
        <time>2019-02-27T10:06:11Z</time>
      </trkpt>
      <trkpt lat="42.74062" lon="0.17579">
        <ele>2292</ele>
        <time>2019-02-27T10:06:12Z</time>
      </trkpt>
      <trkpt lat="42.74062" lon="0.17579">
        <ele>2292</ele>
        <time>2019-02-27T10:06:13Z</time>
      </trkpt>
      <trkpt lat="42.74061" lon="0.17576">
        <ele>2293</ele>
        <time>2019-02-27T10:06:14Z</time>
      </trkpt>
      <trkpt lat="42.74061" lon="0.17576">
        <ele>2293</ele>
        <time>2019-02-27T10:06:15Z</time>
      </trkpt>
      <trkpt lat="42.74061" lon="0.17576">
        <ele>2293</ele>
        <time>2019-02-27T10:06:16Z</time>
      </trkpt>
      <trkpt lat="42.74061" lon="0.17576">
        <ele>2293</ele>
        <time>2019-02-27T10:06:17Z</time>
      </trkpt>
      <trkpt lat="42.7406" lon="0.17574">
        <ele>2293</ele>
        <time>2019-02-27T10:06:18Z</time>
      </trkpt>
      <trkpt lat="42.7406" lon="0.17574">
        <ele>2293</ele>
        <time>2019-02-27T10:06:19Z</time>
      </trkpt>
      <trkpt lat="42.7406" lon="0.17574">
        <ele>2293</ele>
        <time>2019-02-27T10:06:20Z</time>
      </trkpt>
      <trkpt lat="42.7406" lon="0.17574">
        <ele>2293</ele>
        <time>2019-02-27T10:06:21Z</time>
      </trkpt>
      <trkpt lat="42.7406" lon="0.17571">
        <ele>2293</ele>
        <time>2019-02-27T10:06:22Z</time>
      </trkpt>
      <trkpt lat="42.7406" lon="0.17571">
        <ele>2293</ele>
        <time>2019-02-27T10:06:23Z</time>
      </trkpt>
      <trkpt lat="42.7406" lon="0.17571">
        <ele>2293</ele>
        <time>2019-02-27T10:06:24Z</time>
      </trkpt>
      <trkpt lat="42.7406" lon="0.17571">
        <ele>2293</ele>
        <time>2019-02-27T10:06:25Z</time>
      </trkpt>
      <trkpt lat="42.74059" lon="0.17568">
        <ele>2293</ele>
        <time>2019-02-27T10:06:26Z</time>
      </trkpt>
      <trkpt lat="42.74059" lon="0.17568">
        <ele>2293</ele>
        <time>2019-02-27T10:06:27Z</time>
      </trkpt>
      <trkpt lat="42.74059" lon="0.17568">
        <ele>2293</ele>
        <time>2019-02-27T10:06:28Z</time>
      </trkpt>
      <trkpt lat="42.74059" lon="0.17568">
        <ele>2293</ele>
        <time>2019-02-27T10:06:29Z</time>
      </trkpt>
      <trkpt lat="42.74059" lon="0.17566">
        <ele>2293</ele>
        <time>2019-02-27T10:06:30Z</time>
      </trkpt>
      <trkpt lat="42.74059" lon="0.17566">
        <ele>2293</ele>
        <time>2019-02-27T10:06:31Z</time>
      </trkpt>
      <trkpt lat="42.74059" lon="0.17566">
        <ele>2294</ele>
        <time>2019-02-27T10:06:32Z</time>
      </trkpt>
      <trkpt lat="42.74059" lon="0.17566">
        <ele>2294</ele>
        <time>2019-02-27T10:06:33Z</time>
      </trkpt>
      <trkpt lat="42.74059" lon="0.17563">
        <ele>2294</ele>
        <time>2019-02-27T10:06:34Z</time>
      </trkpt>
      <trkpt lat="42.74059" lon="0.17563">
        <ele>2294</ele>
        <time>2019-02-27T10:06:35Z</time>
      </trkpt>
      <trkpt lat="42.74059" lon="0.17563">
        <ele>2294</ele>
        <time>2019-02-27T10:06:36Z</time>
      </trkpt>
      <trkpt lat="42.74059" lon="0.17563">
        <ele>2294</ele>
        <time>2019-02-27T10:06:37Z</time>
      </trkpt>
      <trkpt lat="42.74058" lon="0.17561">
        <ele>2294</ele>
        <time>2019-02-27T10:06:38Z</time>
      </trkpt>
      <trkpt lat="42.74058" lon="0.17561">
        <ele>2294</ele>
        <time>2019-02-27T10:06:39Z</time>
      </trkpt>
      <trkpt lat="42.74058" lon="0.17561">
        <ele>2294</ele>
        <time>2019-02-27T10:06:40Z</time>
      </trkpt>
      <trkpt lat="42.74058" lon="0.17561">
        <ele>2294</ele>
        <time>2019-02-27T10:06:41Z</time>
      </trkpt>
      <trkpt lat="42.74058" lon="0.17558">
        <ele>2294</ele>
        <time>2019-02-27T10:06:42Z</time>
      </trkpt>
      <trkpt lat="42.74058" lon="0.17558">
        <ele>2295</ele>
        <time>2019-02-27T10:06:43Z</time>
      </trkpt>
      <trkpt lat="42.74058" lon="0.17558">
        <ele>2295</ele>
        <time>2019-02-27T10:06:44Z</time>
      </trkpt>
      <trkpt lat="42.74058" lon="0.17558">
        <ele>2295</ele>
        <time>2019-02-27T10:06:45Z</time>
      </trkpt>
      <trkpt lat="42.74058" lon="0.17556">
        <ele>2295</ele>
        <time>2019-02-27T10:06:46Z</time>
      </trkpt>
      <trkpt lat="42.74058" lon="0.17556">
        <ele>2295</ele>
        <time>2019-02-27T10:06:47Z</time>
      </trkpt>
      <trkpt lat="42.74058" lon="0.17556">
        <ele>2295</ele>
        <time>2019-02-27T10:06:48Z</time>
      </trkpt>
      <trkpt lat="42.74058" lon="0.17556">
        <ele>2295</ele>
        <time>2019-02-27T10:06:49Z</time>
      </trkpt>
      <trkpt lat="42.74058" lon="0.17556">
        <ele>2295</ele>
        <time>2019-02-27T10:06:50Z</time>
      </trkpt>
      <trkpt lat="42.74057" lon="0.17553">
        <ele>2295</ele>
        <time>2019-02-27T10:06:51Z</time>
      </trkpt>
      <trkpt lat="42.74057" lon="0.17553">
        <ele>2296</ele>
        <time>2019-02-27T10:06:52Z</time>
      </trkpt>
      <trkpt lat="42.74057" lon="0.17553">
        <ele>2296</ele>
        <time>2019-02-27T10:06:53Z</time>
      </trkpt>
      <trkpt lat="42.74057" lon="0.17553">
        <ele>2296</ele>
        <time>2019-02-27T10:06:54Z</time>
      </trkpt>
      <trkpt lat="42.74057" lon="0.17553">
        <ele>2296</ele>
        <time>2019-02-27T10:06:55Z</time>
      </trkpt>
      <trkpt lat="42.74057" lon="0.1755">
        <ele>2296</ele>
        <time>2019-02-27T10:06:56Z</time>
      </trkpt>
      <trkpt lat="42.74057" lon="0.1755">
        <ele>2296</ele>
        <time>2019-02-27T10:06:57Z</time>
      </trkpt>
      <trkpt lat="42.74057" lon="0.1755">
        <ele>2296</ele>
        <time>2019-02-27T10:06:58Z</time>
      </trkpt>
      <trkpt lat="42.74057" lon="0.1755">
        <ele>2296</ele>
        <time>2019-02-27T10:06:59Z</time>
      </trkpt>
      <trkpt lat="42.74057" lon="0.1755">
        <ele>2296</ele>
        <time>2019-02-27T10:07:00Z</time>
      </trkpt>
      <trkpt lat="42.74057" lon="0.17548">
        <ele>2296</ele>
        <time>2019-02-27T10:07:01Z</time>
      </trkpt>
      <trkpt lat="42.74057" lon="0.17548">
        <ele>2296</ele>
        <time>2019-02-27T10:07:02Z</time>
      </trkpt>
      <trkpt lat="42.74057" lon="0.17548">
        <ele>2296</ele>
        <time>2019-02-27T10:07:03Z</time>
      </trkpt>
      <trkpt lat="42.74057" lon="0.17548">
        <ele>2296</ele>
        <time>2019-02-27T10:07:04Z</time>
      </trkpt>
      <trkpt lat="42.74057" lon="0.17548">
        <ele>2297</ele>
        <time>2019-02-27T10:07:05Z</time>
      </trkpt>
      <trkpt lat="42.74057" lon="0.17545">
        <ele>2297</ele>
        <time>2019-02-27T10:07:06Z</time>
      </trkpt>
      <trkpt lat="42.74057" lon="0.17545">
        <ele>2297</ele>
        <time>2019-02-27T10:07:07Z</time>
      </trkpt>
      <trkpt lat="42.74057" lon="0.17545">
        <ele>2297</ele>
        <time>2019-02-27T10:07:08Z</time>
      </trkpt>
      <trkpt lat="42.74057" lon="0.17545">
        <ele>2297</ele>
        <time>2019-02-27T10:07:09Z</time>
      </trkpt>
      <trkpt lat="42.74058" lon="0.17542">
        <ele>2297</ele>
        <time>2019-02-27T10:07:10Z</time>
      </trkpt>
      <trkpt lat="42.74058" lon="0.17542">
        <ele>2297</ele>
        <time>2019-02-27T10:07:11Z</time>
      </trkpt>
      <trkpt lat="42.74058" lon="0.17542">
        <ele>2297</ele>
        <time>2019-02-27T10:07:12Z</time>
      </trkpt>
      <trkpt lat="42.74058" lon="0.17542">
        <ele>2297</ele>
        <time>2019-02-27T10:07:13Z</time>
      </trkpt>
      <trkpt lat="42.74058" lon="0.17539">
        <ele>2298</ele>
        <time>2019-02-27T10:07:14Z</time>
      </trkpt>
      <trkpt lat="42.74058" lon="0.17539">
        <ele>2298</ele>
        <time>2019-02-27T10:07:15Z</time>
      </trkpt>
      <trkpt lat="42.74058" lon="0.17539">
        <ele>2298</ele>
        <time>2019-02-27T10:07:16Z</time>
      </trkpt>
      <trkpt lat="42.74058" lon="0.17539">
        <ele>2298</ele>
        <time>2019-02-27T10:07:17Z</time>
      </trkpt>
      <trkpt lat="42.74058" lon="0.17536">
        <ele>2298</ele>
        <time>2019-02-27T10:07:18Z</time>
      </trkpt>
      <trkpt lat="42.74058" lon="0.17536">
        <ele>2298</ele>
        <time>2019-02-27T10:07:19Z</time>
      </trkpt>
      <trkpt lat="42.74058" lon="0.17536">
        <ele>2298</ele>
        <time>2019-02-27T10:07:20Z</time>
      </trkpt>
      <trkpt lat="42.74058" lon="0.17536">
        <ele>2298</ele>
        <time>2019-02-27T10:07:21Z</time>
      </trkpt>
      <trkpt lat="42.74058" lon="0.17533">
        <ele>2299</ele>
        <time>2019-02-27T10:07:22Z</time>
      </trkpt>
      <trkpt lat="42.74058" lon="0.17533">
        <ele>2299</ele>
        <time>2019-02-27T10:07:23Z</time>
      </trkpt>
      <trkpt lat="42.74058" lon="0.17533">
        <ele>2299</ele>
        <time>2019-02-27T10:07:24Z</time>
      </trkpt>
      <trkpt lat="42.74058" lon="0.17533">
        <ele>2299</ele>
        <time>2019-02-27T10:07:25Z</time>
      </trkpt>
      <trkpt lat="42.74059" lon="0.1753">
        <ele>2299</ele>
        <time>2019-02-27T10:07:26Z</time>
      </trkpt>
      <trkpt lat="42.74059" lon="0.1753">
        <ele>2299</ele>
        <time>2019-02-27T10:07:27Z</time>
      </trkpt>
      <trkpt lat="42.74059" lon="0.1753">
        <ele>2299</ele>
        <time>2019-02-27T10:07:28Z</time>
      </trkpt>
      <trkpt lat="42.74059" lon="0.1753">
        <ele>2300</ele>
        <time>2019-02-27T10:07:29Z</time>
      </trkpt>
      <trkpt lat="42.74059" lon="0.17528">
        <ele>2300</ele>
        <time>2019-02-27T10:07:30Z</time>
      </trkpt>
      <trkpt lat="42.74059" lon="0.17528">
        <ele>2300</ele>
        <time>2019-02-27T10:07:31Z</time>
      </trkpt>
      <trkpt lat="42.74059" lon="0.17528">
        <ele>2300</ele>
        <time>2019-02-27T10:07:32Z</time>
      </trkpt>
      <trkpt lat="42.74059" lon="0.17528">
        <ele>2300</ele>
        <time>2019-02-27T10:07:33Z</time>
      </trkpt>
      <trkpt lat="42.7406" lon="0.17525">
        <ele>2300</ele>
        <time>2019-02-27T10:07:34Z</time>
      </trkpt>
      <trkpt lat="42.7406" lon="0.17525">
        <ele>2300</ele>
        <time>2019-02-27T10:07:35Z</time>
      </trkpt>
      <trkpt lat="42.7406" lon="0.17525">
        <ele>2300</ele>
        <time>2019-02-27T10:07:36Z</time>
      </trkpt>
      <trkpt lat="42.7406" lon="0.17525">
        <ele>2300</ele>
        <time>2019-02-27T10:07:37Z</time>
      </trkpt>
      <trkpt lat="42.74061" lon="0.17523">
        <ele>2300</ele>
        <time>2019-02-27T10:07:38Z</time>
      </trkpt>
      <trkpt lat="42.74061" lon="0.17523">
        <ele>2301</ele>
        <time>2019-02-27T10:07:39Z</time>
      </trkpt>
      <trkpt lat="42.74061" lon="0.17523">
        <ele>2301</ele>
        <time>2019-02-27T10:07:40Z</time>
      </trkpt>
      <trkpt lat="42.74061" lon="0.17523">
        <ele>2301</ele>
        <time>2019-02-27T10:07:41Z</time>
      </trkpt>
      <trkpt lat="42.74062" lon="0.17521">
        <ele>2301</ele>
        <time>2019-02-27T10:07:42Z</time>
      </trkpt>
      <trkpt lat="42.74062" lon="0.17521">
        <ele>2301</ele>
        <time>2019-02-27T10:07:43Z</time>
      </trkpt>
      <trkpt lat="42.74062" lon="0.17521">
        <ele>2301</ele>
        <time>2019-02-27T10:07:44Z</time>
      </trkpt>
      <trkpt lat="42.74062" lon="0.17521">
        <ele>2302</ele>
        <time>2019-02-27T10:07:45Z</time>
      </trkpt>
      <trkpt lat="42.74062" lon="0.17521">
        <ele>2302</ele>
        <time>2019-02-27T10:07:46Z</time>
      </trkpt>
      <trkpt lat="42.74064" lon="0.17519">
        <ele>2302</ele>
        <time>2019-02-27T10:07:47Z</time>
      </trkpt>
      <trkpt lat="42.74064" lon="0.17519">
        <ele>2302</ele>
        <time>2019-02-27T10:07:48Z</time>
      </trkpt>
      <trkpt lat="42.74064" lon="0.17519">
        <ele>2302</ele>
        <time>2019-02-27T10:07:49Z</time>
      </trkpt>
      <trkpt lat="42.74064" lon="0.17519">
        <ele>2302</ele>
        <time>2019-02-27T10:07:50Z</time>
      </trkpt>
      <trkpt lat="42.74065" lon="0.17517">
        <ele>2302</ele>
        <time>2019-02-27T10:07:51Z</time>
      </trkpt>
      <trkpt lat="42.74065" lon="0.17517">
        <ele>2302</ele>
        <time>2019-02-27T10:07:52Z</time>
      </trkpt>
      <trkpt lat="42.74065" lon="0.17517">
        <ele>2302</ele>
        <time>2019-02-27T10:07:53Z</time>
      </trkpt>
      <trkpt lat="42.74065" lon="0.17517">
        <ele>2302</ele>
        <time>2019-02-27T10:07:54Z</time>
      </trkpt>
      <trkpt lat="42.74065" lon="0.17517">
        <ele>2302</ele>
        <time>2019-02-27T10:07:55Z</time>
      </trkpt>
      <trkpt lat="42.74065" lon="0.17517">
        <ele>2303</ele>
        <time>2019-02-27T10:07:56Z</time>
      </trkpt>
      <trkpt lat="42.74065" lon="0.17517">
        <ele>2303</ele>
        <time>2019-02-27T10:07:57Z</time>
      </trkpt>
      <trkpt lat="42.74065" lon="0.17517">
        <ele>2303</ele>
        <time>2019-02-27T10:07:58Z</time>
      </trkpt>
      <trkpt lat="42.74068" lon="0.17514">
        <ele>2303</ele>
        <time>2019-02-27T10:07:59Z</time>
      </trkpt>
      <trkpt lat="42.74068" lon="0.17514">
        <ele>2303</ele>
        <time>2019-02-27T10:08:00Z</time>
      </trkpt>
      <trkpt lat="42.74068" lon="0.17514">
        <ele>2303</ele>
        <time>2019-02-27T10:08:01Z</time>
      </trkpt>
      <trkpt lat="42.74068" lon="0.17514">
        <ele>2303</ele>
        <time>2019-02-27T10:08:02Z</time>
      </trkpt>
      <trkpt lat="42.74068" lon="0.17514">
        <ele>2303</ele>
        <time>2019-02-27T10:08:03Z</time>
      </trkpt>
      <trkpt lat="42.74068" lon="0.17514">
        <ele>2303</ele>
        <time>2019-02-27T10:08:04Z</time>
      </trkpt>
      <trkpt lat="42.74068" lon="0.17514">
        <ele>2303</ele>
        <time>2019-02-27T10:08:05Z</time>
      </trkpt>
      <trkpt lat="42.74068" lon="0.17514">
        <ele>2303</ele>
        <time>2019-02-27T10:08:06Z</time>
      </trkpt>
      <trkpt lat="42.7407" lon="0.17513">
        <ele>2303</ele>
        <time>2019-02-27T10:08:07Z</time>
      </trkpt>
      <trkpt lat="42.7407" lon="0.17513">
        <ele>2304</ele>
        <time>2019-02-27T10:08:08Z</time>
      </trkpt>
      <trkpt lat="42.7407" lon="0.17513">
        <ele>2304</ele>
        <time>2019-02-27T10:08:09Z</time>
      </trkpt>
      <trkpt lat="42.74072" lon="0.17511">
        <ele>2304</ele>
        <time>2019-02-27T10:08:10Z</time>
      </trkpt>
      <trkpt lat="42.74072" lon="0.17511">
        <ele>2304</ele>
        <time>2019-02-27T10:08:11Z</time>
      </trkpt>
      <trkpt lat="42.74072" lon="0.17511">
        <ele>2305</ele>
        <time>2019-02-27T10:08:12Z</time>
      </trkpt>
      <trkpt lat="42.74073" lon="0.1751">
        <ele>2305</ele>
        <time>2019-02-27T10:08:13Z</time>
      </trkpt>
      <trkpt lat="42.74073" lon="0.1751">
        <ele>2305</ele>
        <time>2019-02-27T10:08:14Z</time>
      </trkpt>
      <trkpt lat="42.74073" lon="0.1751">
        <ele>2305</ele>
        <time>2019-02-27T10:08:15Z</time>
      </trkpt>
      <trkpt lat="42.74073" lon="0.1751">
        <ele>2305</ele>
        <time>2019-02-27T10:08:16Z</time>
      </trkpt>
      <trkpt lat="42.74075" lon="0.17509">
        <ele>2305</ele>
        <time>2019-02-27T10:08:17Z</time>
      </trkpt>
      <trkpt lat="42.74075" lon="0.17509">
        <ele>2305</ele>
        <time>2019-02-27T10:08:18Z</time>
      </trkpt>
      <trkpt lat="42.74075" lon="0.17509">
        <ele>2305</ele>
        <time>2019-02-27T10:08:19Z</time>
      </trkpt>
      <trkpt lat="42.74075" lon="0.17509">
        <ele>2305</ele>
        <time>2019-02-27T10:08:20Z</time>
      </trkpt>
      <trkpt lat="42.74075" lon="0.17509">
        <ele>2305</ele>
        <time>2019-02-27T10:08:21Z</time>
      </trkpt>
      <trkpt lat="42.74076" lon="0.17507">
        <ele>2305</ele>
        <time>2019-02-27T10:08:22Z</time>
      </trkpt>
      <trkpt lat="42.74076" lon="0.17507">
        <ele>2305</ele>
        <time>2019-02-27T10:08:23Z</time>
      </trkpt>
      <trkpt lat="42.74076" lon="0.17507">
        <ele>2305</ele>
        <time>2019-02-27T10:08:24Z</time>
      </trkpt>
      <trkpt lat="42.74076" lon="0.17507">
        <ele>2305</ele>
        <time>2019-02-27T10:08:25Z</time>
      </trkpt>
      <trkpt lat="42.74076" lon="0.17507">
        <ele>2306</ele>
        <time>2019-02-27T10:08:26Z</time>
      </trkpt>
      <trkpt lat="42.74076" lon="0.17507">
        <ele>2306</ele>
        <time>2019-02-27T10:08:27Z</time>
      </trkpt>
      <trkpt lat="42.74078" lon="0.17506">
        <ele>2306</ele>
        <time>2019-02-27T10:08:28Z</time>
      </trkpt>
      <trkpt lat="42.74078" lon="0.17506">
        <ele>2306</ele>
        <time>2019-02-27T10:08:29Z</time>
      </trkpt>
      <trkpt lat="42.74078" lon="0.17506">
        <ele>2306</ele>
        <time>2019-02-27T10:08:30Z</time>
      </trkpt>
      <trkpt lat="42.74078" lon="0.17506">
        <ele>2306</ele>
        <time>2019-02-27T10:08:31Z</time>
      </trkpt>
      <trkpt lat="42.74078" lon="0.17506">
        <ele>2306</ele>
        <time>2019-02-27T10:08:32Z</time>
      </trkpt>
      <trkpt lat="42.74079" lon="0.17505">
        <ele>2306</ele>
        <time>2019-02-27T10:08:33Z</time>
      </trkpt>
      <trkpt lat="42.74079" lon="0.17505">
        <ele>2306</ele>
        <time>2019-02-27T10:08:34Z</time>
      </trkpt>
      <trkpt lat="42.74079" lon="0.17505">
        <ele>2306</ele>
        <time>2019-02-27T10:08:35Z</time>
      </trkpt>
      <trkpt lat="42.74079" lon="0.17505">
        <ele>2306</ele>
        <time>2019-02-27T10:08:36Z</time>
      </trkpt>
      <trkpt lat="42.74079" lon="0.17505">
        <ele>2307</ele>
        <time>2019-02-27T10:08:37Z</time>
      </trkpt>
      <trkpt lat="42.74079" lon="0.17505">
        <ele>2307</ele>
        <time>2019-02-27T10:08:38Z</time>
      </trkpt>
      <trkpt lat="42.74079" lon="0.17505">
        <ele>2307</ele>
        <time>2019-02-27T10:08:39Z</time>
      </trkpt>
      <trkpt lat="42.74081" lon="0.17504">
        <ele>2307</ele>
        <time>2019-02-27T10:08:40Z</time>
      </trkpt>
      <trkpt lat="42.74081" lon="0.17504">
        <ele>2307</ele>
        <time>2019-02-27T10:08:41Z</time>
      </trkpt>
      <trkpt lat="42.74081" lon="0.17504">
        <ele>2307</ele>
        <time>2019-02-27T10:08:42Z</time>
      </trkpt>
      <trkpt lat="42.74081" lon="0.17504">
        <ele>2307</ele>
        <time>2019-02-27T10:08:43Z</time>
      </trkpt>
      <trkpt lat="42.74081" lon="0.17504">
        <ele>2307</ele>
        <time>2019-02-27T10:08:44Z</time>
      </trkpt>
      <trkpt lat="42.74081" lon="0.17504">
        <ele>2307</ele>
        <time>2019-02-27T10:08:45Z</time>
      </trkpt>
      <trkpt lat="42.74081" lon="0.17504">
        <ele>2308</ele>
        <time>2019-02-27T10:08:46Z</time>
      </trkpt>
      <trkpt lat="42.74081" lon="0.17504">
        <ele>2308</ele>
        <time>2019-02-27T10:08:47Z</time>
      </trkpt>
      <trkpt lat="42.74081" lon="0.17504">
        <ele>2308</ele>
        <time>2019-02-27T10:08:48Z</time>
      </trkpt>
      <trkpt lat="42.74081" lon="0.17504">
        <ele>2308</ele>
        <time>2019-02-27T10:08:49Z</time>
      </trkpt>
      <trkpt lat="42.74082" lon="0.17501">
        <ele>2308</ele>
        <time>2019-02-27T10:08:50Z</time>
      </trkpt>
      <trkpt lat="42.74082" lon="0.17501">
        <ele>2308</ele>
        <time>2019-02-27T10:08:51Z</time>
      </trkpt>
      <trkpt lat="42.74082" lon="0.17501">
        <ele>2308</ele>
        <time>2019-02-27T10:08:52Z</time>
      </trkpt>
      <trkpt lat="42.74085" lon="0.175">
        <ele>2308</ele>
        <time>2019-02-27T10:08:53Z</time>
      </trkpt>
      <trkpt lat="42.74085" lon="0.175">
        <ele>2308</ele>
        <time>2019-02-27T10:08:54Z</time>
      </trkpt>
      <trkpt lat="42.74085" lon="0.175">
        <ele>2308</ele>
        <time>2019-02-27T10:08:55Z</time>
      </trkpt>
      <trkpt lat="42.74085" lon="0.175">
        <ele>2309</ele>
        <time>2019-02-27T10:08:56Z</time>
      </trkpt>
      <trkpt lat="42.74085" lon="0.175">
        <ele>2309</ele>
        <time>2019-02-27T10:08:57Z</time>
      </trkpt>
      <trkpt lat="42.74087" lon="0.17499">
        <ele>2309</ele>
        <time>2019-02-27T10:08:58Z</time>
      </trkpt>
      <trkpt lat="42.74087" lon="0.17499">
        <ele>2309</ele>
        <time>2019-02-27T10:08:59Z</time>
      </trkpt>
      <trkpt lat="42.74087" lon="0.17499">
        <ele>2309</ele>
        <time>2019-02-27T10:09:00Z</time>
      </trkpt>
      <trkpt lat="42.74087" lon="0.17499">
        <ele>2310</ele>
        <time>2019-02-27T10:09:01Z</time>
      </trkpt>
      <trkpt lat="42.74087" lon="0.17499">
        <ele>2310</ele>
        <time>2019-02-27T10:09:02Z</time>
      </trkpt>
      <trkpt lat="42.74089" lon="0.17498">
        <ele>2310</ele>
        <time>2019-02-27T10:09:03Z</time>
      </trkpt>
      <trkpt lat="42.74089" lon="0.17498">
        <ele>2309</ele>
        <time>2019-02-27T10:09:04Z</time>
      </trkpt>
      <trkpt lat="42.74089" lon="0.17498">
        <ele>2309</ele>
        <time>2019-02-27T10:09:05Z</time>
      </trkpt>
      <trkpt lat="42.74089" lon="0.17498">
        <ele>2309</ele>
        <time>2019-02-27T10:09:06Z</time>
      </trkpt>
      <trkpt lat="42.74089" lon="0.17498">
        <ele>2309</ele>
        <time>2019-02-27T10:09:07Z</time>
      </trkpt>
      <trkpt lat="42.74091" lon="0.17497">
        <ele>2310</ele>
        <time>2019-02-27T10:09:08Z</time>
      </trkpt>
      <trkpt lat="42.74091" lon="0.17497">
        <ele>2310</ele>
        <time>2019-02-27T10:09:09Z</time>
      </trkpt>
      <trkpt lat="42.74091" lon="0.17497">
        <ele>2310</ele>
        <time>2019-02-27T10:09:10Z</time>
      </trkpt>
      <trkpt lat="42.74091" lon="0.17497">
        <ele>2310</ele>
        <time>2019-02-27T10:09:11Z</time>
      </trkpt>
      <trkpt lat="42.74093" lon="0.17496">
        <ele>2310</ele>
        <time>2019-02-27T10:09:12Z</time>
      </trkpt>
      <trkpt lat="42.74093" lon="0.17496">
        <ele>2310</ele>
        <time>2019-02-27T10:09:13Z</time>
      </trkpt>
      <trkpt lat="42.74093" lon="0.17496">
        <ele>2310</ele>
        <time>2019-02-27T10:09:14Z</time>
      </trkpt>
      <trkpt lat="42.74093" lon="0.17496">
        <ele>2310</ele>
        <time>2019-02-27T10:09:15Z</time>
      </trkpt>
      <trkpt lat="42.74093" lon="0.17496">
        <ele>2310</ele>
        <time>2019-02-27T10:09:16Z</time>
      </trkpt>
      <trkpt lat="42.74093" lon="0.17496">
        <ele>2310</ele>
        <time>2019-02-27T10:09:17Z</time>
      </trkpt>
      <trkpt lat="42.74093" lon="0.17496">
        <ele>2310</ele>
        <time>2019-02-27T10:09:18Z</time>
      </trkpt>
      <trkpt lat="42.74093" lon="0.17496">
        <ele>2310</ele>
        <time>2019-02-27T10:09:19Z</time>
      </trkpt>
      <trkpt lat="42.74093" lon="0.17496">
        <ele>2310</ele>
        <time>2019-02-27T10:09:20Z</time>
      </trkpt>
      <trkpt lat="42.74093" lon="0.17496">
        <ele>2310</ele>
        <time>2019-02-27T10:09:21Z</time>
      </trkpt>
      <trkpt lat="42.74093" lon="0.17496">
        <ele>2310</ele>
        <time>2019-02-27T10:09:22Z</time>
      </trkpt>
      <trkpt lat="42.74093" lon="0.17496">
        <ele>2310</ele>
        <time>2019-02-27T10:09:23Z</time>
      </trkpt>
      <trkpt lat="42.74095" lon="0.17495">
        <ele>2310</ele>
        <time>2019-02-27T10:09:24Z</time>
      </trkpt>
      <trkpt lat="42.74095" lon="0.17495">
        <ele>2310</ele>
        <time>2019-02-27T10:09:25Z</time>
      </trkpt>
      <trkpt lat="42.74095" lon="0.17495">
        <ele>2310</ele>
        <time>2019-02-27T10:09:26Z</time>
      </trkpt>
      <trkpt lat="42.74097" lon="0.17494">
        <ele>2310</ele>
        <time>2019-02-27T10:09:27Z</time>
      </trkpt>
      <trkpt lat="42.74097" lon="0.17494">
        <ele>2310</ele>
        <time>2019-02-27T10:09:28Z</time>
      </trkpt>
      <trkpt lat="42.74097" lon="0.17494">
        <ele>2310</ele>
        <time>2019-02-27T10:09:29Z</time>
      </trkpt>
      <trkpt lat="42.74097" lon="0.17494">
        <ele>2310</ele>
        <time>2019-02-27T10:09:30Z</time>
      </trkpt>
      <trkpt lat="42.74097" lon="0.17494">
        <ele>2310</ele>
        <time>2019-02-27T10:09:31Z</time>
      </trkpt>
      <trkpt lat="42.74097" lon="0.17494">
        <ele>2311</ele>
        <time>2019-02-27T10:09:32Z</time>
      </trkpt>
      <trkpt lat="42.74097" lon="0.17494">
        <ele>2311</ele>
        <time>2019-02-27T10:09:33Z</time>
      </trkpt>
      <trkpt lat="42.74097" lon="0.17494">
        <ele>2311</ele>
        <time>2019-02-27T10:09:34Z</time>
      </trkpt>
      <trkpt lat="42.74097" lon="0.17494">
        <ele>2311</ele>
        <time>2019-02-27T10:09:35Z</time>
      </trkpt>
      <trkpt lat="42.74097" lon="0.17494">
        <ele>2311</ele>
        <time>2019-02-27T10:09:36Z</time>
      </trkpt>
      <trkpt lat="42.74095" lon="0.17493">
        <ele>2311</ele>
        <time>2019-02-27T10:09:37Z</time>
      </trkpt>
      <trkpt lat="42.74095" lon="0.17493">
        <ele>2311</ele>
        <time>2019-02-27T10:09:38Z</time>
      </trkpt>
      <trkpt lat="42.74095" lon="0.17493">
        <ele>2311</ele>
        <time>2019-02-27T10:09:39Z</time>
      </trkpt>
      <trkpt lat="42.74093" lon="0.17492">
        <ele>2311</ele>
        <time>2019-02-27T10:09:40Z</time>
      </trkpt>
      <trkpt lat="42.74093" lon="0.17492">
        <ele>2313</ele>
        <time>2019-02-27T10:09:41Z</time>
      </trkpt>
      <trkpt lat="42.74093" lon="0.17492">
        <ele>2313</ele>
        <time>2019-02-27T10:09:42Z</time>
      </trkpt>
      <trkpt lat="42.74093" lon="0.17492">
        <ele>2313</ele>
        <time>2019-02-27T10:09:43Z</time>
      </trkpt>
      <trkpt lat="42.74091" lon="0.17493">
        <ele>2313</ele>
        <time>2019-02-27T10:09:44Z</time>
      </trkpt>
      <trkpt lat="42.74091" lon="0.17493">
        <ele>2313</ele>
        <time>2019-02-27T10:09:45Z</time>
      </trkpt>
      <trkpt lat="42.74091" lon="0.17493">
        <ele>2313</ele>
        <time>2019-02-27T10:09:46Z</time>
      </trkpt>
      <trkpt lat="42.74089" lon="0.17491">
        <ele>2313</ele>
        <time>2019-02-27T10:09:47Z</time>
      </trkpt>
      <trkpt lat="42.74089" lon="0.17491">
        <ele>2313</ele>
        <time>2019-02-27T10:09:48Z</time>
      </trkpt>
      <trkpt lat="42.74089" lon="0.17491">
        <ele>2314</ele>
        <time>2019-02-27T10:09:49Z</time>
      </trkpt>
      <trkpt lat="42.74089" lon="0.17491">
        <ele>2314</ele>
        <time>2019-02-27T10:09:50Z</time>
      </trkpt>
      <trkpt lat="42.74087" lon="0.17489">
        <ele>2314</ele>
        <time>2019-02-27T10:09:51Z</time>
      </trkpt>
      <trkpt lat="42.74087" lon="0.17489">
        <ele>2314</ele>
        <time>2019-02-27T10:09:52Z</time>
      </trkpt>
      <trkpt lat="42.74087" lon="0.17489">
        <ele>2314</ele>
        <time>2019-02-27T10:09:53Z</time>
      </trkpt>
      <trkpt lat="42.74087" lon="0.17489">
        <ele>2314</ele>
        <time>2019-02-27T10:09:54Z</time>
      </trkpt>
      <trkpt lat="42.74085" lon="0.17488">
        <ele>2314</ele>
        <time>2019-02-27T10:09:55Z</time>
      </trkpt>
      <trkpt lat="42.74085" lon="0.17488">
        <ele>2314</ele>
        <time>2019-02-27T10:09:56Z</time>
      </trkpt>
      <trkpt lat="42.74085" lon="0.17488">
        <ele>2314</ele>
        <time>2019-02-27T10:09:57Z</time>
      </trkpt>
      <trkpt lat="42.74085" lon="0.17488">
        <ele>2314</ele>
        <time>2019-02-27T10:09:58Z</time>
      </trkpt>
      <trkpt lat="42.74085" lon="0.17488">
        <ele>2314</ele>
        <time>2019-02-27T10:09:59Z</time>
      </trkpt>
      <trkpt lat="42.74085" lon="0.17488">
        <ele>2314</ele>
        <time>2019-02-27T10:10:00Z</time>
      </trkpt>
      <trkpt lat="42.74085" lon="0.17488">
        <ele>2314</ele>
        <time>2019-02-27T10:10:01Z</time>
      </trkpt>
      <trkpt lat="42.74085" lon="0.17488">
        <ele>2314</ele>
        <time>2019-02-27T10:10:02Z</time>
      </trkpt>
      <trkpt lat="42.74085" lon="0.17488">
        <ele>2314</ele>
        <time>2019-02-27T10:10:03Z</time>
      </trkpt>
      <trkpt lat="42.74085" lon="0.17488">
        <ele>2314</ele>
        <time>2019-02-27T10:10:04Z</time>
      </trkpt>
      <trkpt lat="42.74085" lon="0.17488">
        <ele>2314</ele>
        <time>2019-02-27T10:10:05Z</time>
      </trkpt>
      <trkpt lat="42.74085" lon="0.17488">
        <ele>2314</ele>
        <time>2019-02-27T10:10:06Z</time>
      </trkpt>
      <trkpt lat="42.74085" lon="0.17488">
        <ele>2314</ele>
        <time>2019-02-27T10:10:07Z</time>
      </trkpt>
      <trkpt lat="42.74084" lon="0.17486">
        <ele>2315</ele>
        <time>2019-02-27T10:10:08Z</time>
      </trkpt>
      <trkpt lat="42.74084" lon="0.17486">
        <ele>2315</ele>
        <time>2019-02-27T10:10:09Z</time>
      </trkpt>
      <trkpt lat="42.74084" lon="0.17486">
        <ele>2315</ele>
        <time>2019-02-27T10:10:10Z</time>
      </trkpt>
      <trkpt lat="42.74084" lon="0.17486">
        <ele>2315</ele>
        <time>2019-02-27T10:10:11Z</time>
      </trkpt>
      <trkpt lat="42.74082" lon="0.17485">
        <ele>2315</ele>
        <time>2019-02-27T10:10:12Z</time>
      </trkpt>
      <trkpt lat="42.74082" lon="0.17485">
        <ele>2315</ele>
        <time>2019-02-27T10:10:13Z</time>
      </trkpt>
      <trkpt lat="42.74082" lon="0.17485">
        <ele>2315</ele>
        <time>2019-02-27T10:10:14Z</time>
      </trkpt>
      <trkpt lat="42.7408" lon="0.17484">
        <ele>2316</ele>
        <time>2019-02-27T10:10:15Z</time>
      </trkpt>
      <trkpt lat="42.7408" lon="0.17484">
        <ele>2316</ele>
        <time>2019-02-27T10:10:16Z</time>
      </trkpt>
      <trkpt lat="42.7408" lon="0.17484">
        <ele>2316</ele>
        <time>2019-02-27T10:10:17Z</time>
      </trkpt>
      <trkpt lat="42.7408" lon="0.17484">
        <ele>2316</ele>
        <time>2019-02-27T10:10:18Z</time>
      </trkpt>
      <trkpt lat="42.7408" lon="0.17484">
        <ele>2316</ele>
        <time>2019-02-27T10:10:19Z</time>
      </trkpt>
      <trkpt lat="42.7408" lon="0.17484">
        <ele>2316</ele>
        <time>2019-02-27T10:10:20Z</time>
      </trkpt>
      <trkpt lat="42.7408" lon="0.17484">
        <ele>2316</ele>
        <time>2019-02-27T10:10:21Z</time>
      </trkpt>
      <trkpt lat="42.7408" lon="0.17484">
        <ele>2316</ele>
        <time>2019-02-27T10:10:22Z</time>
      </trkpt>
      <trkpt lat="42.7408" lon="0.17484">
        <ele>2316</ele>
        <time>2019-02-27T10:10:23Z</time>
      </trkpt>
      <trkpt lat="42.7408" lon="0.17484">
        <ele>2316</ele>
        <time>2019-02-27T10:10:24Z</time>
      </trkpt>
      <trkpt lat="42.74075" lon="0.17484">
        <ele>2317</ele>
        <time>2019-02-27T10:10:25Z</time>
      </trkpt>
      <trkpt lat="42.74075" lon="0.17484">
        <ele>2317</ele>
        <time>2019-02-27T10:10:26Z</time>
      </trkpt>
      <trkpt lat="42.74075" lon="0.17484">
        <ele>2317</ele>
        <time>2019-02-27T10:10:27Z</time>
      </trkpt>
      <trkpt lat="42.74075" lon="0.17484">
        <ele>2317</ele>
        <time>2019-02-27T10:10:28Z</time>
      </trkpt>
      <trkpt lat="42.74075" lon="0.17484">
        <ele>2318</ele>
        <time>2019-02-27T10:10:29Z</time>
      </trkpt>
      <trkpt lat="42.74075" lon="0.17484">
        <ele>2318</ele>
        <time>2019-02-27T10:10:30Z</time>
      </trkpt>
      <trkpt lat="42.74075" lon="0.17484">
        <ele>2318</ele>
        <time>2019-02-27T10:10:31Z</time>
      </trkpt>
      <trkpt lat="42.74075" lon="0.17484">
        <ele>2318</ele>
        <time>2019-02-27T10:10:32Z</time>
      </trkpt>
      <trkpt lat="42.74075" lon="0.17484">
        <ele>2318</ele>
        <time>2019-02-27T10:10:33Z</time>
      </trkpt>
      <trkpt lat="42.74075" lon="0.17484">
        <ele>2318</ele>
        <time>2019-02-27T10:10:34Z</time>
      </trkpt>
      <trkpt lat="42.74074" lon="0.17482">
        <ele>2318</ele>
        <time>2019-02-27T10:10:35Z</time>
      </trkpt>
      <trkpt lat="42.74074" lon="0.17482">
        <ele>2318</ele>
        <time>2019-02-27T10:10:36Z</time>
      </trkpt>
      <trkpt lat="42.74074" lon="0.17482">
        <ele>2318</ele>
        <time>2019-02-27T10:10:37Z</time>
      </trkpt>
      <trkpt lat="42.74074" lon="0.17482">
        <ele>2318</ele>
        <time>2019-02-27T10:10:38Z</time>
      </trkpt>
      <trkpt lat="42.74074" lon="0.17482">
        <ele>2319</ele>
        <time>2019-02-27T10:10:39Z</time>
      </trkpt>
      <trkpt lat="42.74072" lon="0.17482">
        <ele>2319</ele>
        <time>2019-02-27T10:10:40Z</time>
      </trkpt>
      <trkpt lat="42.74072" lon="0.17482">
        <ele>2319</ele>
        <time>2019-02-27T10:10:41Z</time>
      </trkpt>
      <trkpt lat="42.74072" lon="0.17482">
        <ele>2319</ele>
        <time>2019-02-27T10:10:42Z</time>
      </trkpt>
      <trkpt lat="42.74072" lon="0.17482">
        <ele>2319</ele>
        <time>2019-02-27T10:10:43Z</time>
      </trkpt>
      <trkpt lat="42.7407" lon="0.17481">
        <ele>2319</ele>
        <time>2019-02-27T10:10:44Z</time>
      </trkpt>
      <trkpt lat="42.7407" lon="0.17481">
        <ele>2319</ele>
        <time>2019-02-27T10:10:45Z</time>
      </trkpt>
      <trkpt lat="42.7407" lon="0.17481">
        <ele>2319</ele>
        <time>2019-02-27T10:10:46Z</time>
      </trkpt>
      <trkpt lat="42.7407" lon="0.17481">
        <ele>2319</ele>
        <time>2019-02-27T10:10:47Z</time>
      </trkpt>
      <trkpt lat="42.7407" lon="0.17481">
        <ele>2319</ele>
        <time>2019-02-27T10:10:48Z</time>
      </trkpt>
      <trkpt lat="42.74068" lon="0.1748">
        <ele>2319</ele>
        <time>2019-02-27T10:10:49Z</time>
      </trkpt>
      <trkpt lat="42.74068" lon="0.1748">
        <ele>2320</ele>
        <time>2019-02-27T10:10:50Z</time>
      </trkpt>
      <trkpt lat="42.74068" lon="0.1748">
        <ele>2320</ele>
        <time>2019-02-27T10:10:51Z</time>
      </trkpt>
      <trkpt lat="42.74066" lon="0.1748">
        <ele>2320</ele>
        <time>2019-02-27T10:10:52Z</time>
      </trkpt>
      <trkpt lat="42.74066" lon="0.1748">
        <ele>2320</ele>
        <time>2019-02-27T10:10:53Z</time>
      </trkpt>
      <trkpt lat="42.74066" lon="0.1748">
        <ele>2320</ele>
        <time>2019-02-27T10:10:54Z</time>
      </trkpt>
      <trkpt lat="42.74066" lon="0.1748">
        <ele>2320</ele>
        <time>2019-02-27T10:10:55Z</time>
      </trkpt>
      <trkpt lat="42.74066" lon="0.1748">
        <ele>2320</ele>
        <time>2019-02-27T10:10:56Z</time>
      </trkpt>
      <trkpt lat="42.74064" lon="0.17478">
        <ele>2321</ele>
        <time>2019-02-27T10:10:57Z</time>
      </trkpt>
      <trkpt lat="42.74064" lon="0.17478">
        <ele>2321</ele>
        <time>2019-02-27T10:10:58Z</time>
      </trkpt>
      <trkpt lat="42.74064" lon="0.17478">
        <ele>2321</ele>
        <time>2019-02-27T10:10:59Z</time>
      </trkpt>
      <trkpt lat="42.74064" lon="0.17478">
        <ele>2321</ele>
        <time>2019-02-27T10:11:00Z</time>
      </trkpt>
      <trkpt lat="42.74062" lon="0.17478">
        <ele>2321</ele>
        <time>2019-02-27T10:11:01Z</time>
      </trkpt>
      <trkpt lat="42.74062" lon="0.17478">
        <ele>2321</ele>
        <time>2019-02-27T10:11:02Z</time>
      </trkpt>
      <trkpt lat="42.74062" lon="0.17478">
        <ele>2321</ele>
        <time>2019-02-27T10:11:03Z</time>
      </trkpt>
      <trkpt lat="42.74062" lon="0.17478">
        <ele>2321</ele>
        <time>2019-02-27T10:11:04Z</time>
      </trkpt>
      <trkpt lat="42.7406" lon="0.17477">
        <ele>2321</ele>
        <time>2019-02-27T10:11:05Z</time>
      </trkpt>
      <trkpt lat="42.7406" lon="0.17477">
        <ele>2321</ele>
        <time>2019-02-27T10:11:06Z</time>
      </trkpt>
      <trkpt lat="42.7406" lon="0.17477">
        <ele>2321</ele>
        <time>2019-02-27T10:11:07Z</time>
      </trkpt>
      <trkpt lat="42.7406" lon="0.17477">
        <ele>2321</ele>
        <time>2019-02-27T10:11:08Z</time>
      </trkpt>
      <trkpt lat="42.7406" lon="0.17477">
        <ele>2321</ele>
        <time>2019-02-27T10:11:09Z</time>
      </trkpt>
      <trkpt lat="42.74058" lon="0.17476">
        <ele>2322</ele>
        <time>2019-02-27T10:11:10Z</time>
      </trkpt>
      <trkpt lat="42.74058" lon="0.17476">
        <ele>2322</ele>
        <time>2019-02-27T10:11:11Z</time>
      </trkpt>
      <trkpt lat="42.74058" lon="0.17476">
        <ele>2322</ele>
        <time>2019-02-27T10:11:12Z</time>
      </trkpt>
      <trkpt lat="42.74058" lon="0.17476">
        <ele>2322</ele>
        <time>2019-02-27T10:11:13Z</time>
      </trkpt>
      <trkpt lat="42.74058" lon="0.17476">
        <ele>2322</ele>
        <time>2019-02-27T10:11:14Z</time>
      </trkpt>
      <trkpt lat="42.74056" lon="0.17475">
        <ele>2322</ele>
        <time>2019-02-27T10:11:15Z</time>
      </trkpt>
      <trkpt lat="42.74056" lon="0.17475">
        <ele>2322</ele>
        <time>2019-02-27T10:11:16Z</time>
      </trkpt>
      <trkpt lat="42.74056" lon="0.17475">
        <ele>2322</ele>
        <time>2019-02-27T10:11:17Z</time>
      </trkpt>
      <trkpt lat="42.74056" lon="0.17475">
        <ele>2322</ele>
        <time>2019-02-27T10:11:18Z</time>
      </trkpt>
      <trkpt lat="42.74056" lon="0.17475">
        <ele>2322</ele>
        <time>2019-02-27T10:11:19Z</time>
      </trkpt>
      <trkpt lat="42.74056" lon="0.17475">
        <ele>2322</ele>
        <time>2019-02-27T10:11:20Z</time>
      </trkpt>
      <trkpt lat="42.74054" lon="0.17473">
        <ele>2322</ele>
        <time>2019-02-27T10:11:21Z</time>
      </trkpt>
      <trkpt lat="42.74054" lon="0.17473">
        <ele>2323</ele>
        <time>2019-02-27T10:11:22Z</time>
      </trkpt>
      <trkpt lat="42.74054" lon="0.17473">
        <ele>2323</ele>
        <time>2019-02-27T10:11:23Z</time>
      </trkpt>
      <trkpt lat="42.74054" lon="0.17473">
        <ele>2323</ele>
        <time>2019-02-27T10:11:24Z</time>
      </trkpt>
      <trkpt lat="42.74054" lon="0.17473">
        <ele>2323</ele>
        <time>2019-02-27T10:11:25Z</time>
      </trkpt>
      <trkpt lat="42.74054" lon="0.17473">
        <ele>2323</ele>
        <time>2019-02-27T10:11:26Z</time>
      </trkpt>
      <trkpt lat="42.74054" lon="0.17473">
        <ele>2323</ele>
        <time>2019-02-27T10:11:27Z</time>
      </trkpt>
      <trkpt lat="42.74053" lon="0.17471">
        <ele>2323</ele>
        <time>2019-02-27T10:11:28Z</time>
      </trkpt>
      <trkpt lat="42.74053" lon="0.17471">
        <ele>2323</ele>
        <time>2019-02-27T10:11:29Z</time>
      </trkpt>
      <trkpt lat="42.74053" lon="0.17471">
        <ele>2323</ele>
        <time>2019-02-27T10:11:30Z</time>
      </trkpt>
      <trkpt lat="42.74053" lon="0.17471">
        <ele>2323</ele>
        <time>2019-02-27T10:11:31Z</time>
      </trkpt>
      <trkpt lat="42.74053" lon="0.17471">
        <ele>2323</ele>
        <time>2019-02-27T10:11:32Z</time>
      </trkpt>
      <trkpt lat="42.74053" lon="0.17471">
        <ele>2323</ele>
        <time>2019-02-27T10:11:33Z</time>
      </trkpt>
      <trkpt lat="42.74053" lon="0.17471">
        <ele>2323</ele>
        <time>2019-02-27T10:11:34Z</time>
      </trkpt>
      <trkpt lat="42.74053" lon="0.17471">
        <ele>2323</ele>
        <time>2019-02-27T10:11:35Z</time>
      </trkpt>
      <trkpt lat="42.74053" lon="0.17471">
        <ele>2323</ele>
        <time>2019-02-27T10:11:36Z</time>
      </trkpt>
      <trkpt lat="42.74053" lon="0.17471">
        <ele>2323</ele>
        <time>2019-02-27T10:11:37Z</time>
      </trkpt>
      <trkpt lat="42.74053" lon="0.17471">
        <ele>2323</ele>
        <time>2019-02-27T10:11:38Z</time>
      </trkpt>
      <trkpt lat="42.74053" lon="0.17471">
        <ele>2323</ele>
        <time>2019-02-27T10:11:39Z</time>
      </trkpt>
      <trkpt lat="42.74053" lon="0.17471">
        <ele>2323</ele>
        <time>2019-02-27T10:11:40Z</time>
      </trkpt>
      <trkpt lat="42.74053" lon="0.17471">
        <ele>2323</ele>
        <time>2019-02-27T10:11:41Z</time>
      </trkpt>
      <trkpt lat="42.74053" lon="0.17471">
        <ele>2323</ele>
        <time>2019-02-27T10:11:42Z</time>
      </trkpt>
      <trkpt lat="42.74053" lon="0.17471">
        <ele>2324</ele>
        <time>2019-02-27T10:11:43Z</time>
      </trkpt>
      <trkpt lat="42.74053" lon="0.17471">
        <ele>2324</ele>
        <time>2019-02-27T10:11:44Z</time>
      </trkpt>
      <trkpt lat="42.74053" lon="0.17471">
        <ele>2324</ele>
        <time>2019-02-27T10:11:45Z</time>
      </trkpt>
      <trkpt lat="42.74053" lon="0.17471">
        <ele>2324</ele>
        <time>2019-02-27T10:11:46Z</time>
      </trkpt>
      <trkpt lat="42.7405" lon="0.17472">
        <ele>2324</ele>
        <time>2019-02-27T10:11:47Z</time>
      </trkpt>
      <trkpt lat="42.7405" lon="0.17472">
        <ele>2324</ele>
        <time>2019-02-27T10:11:48Z</time>
      </trkpt>
      <trkpt lat="42.7405" lon="0.17472">
        <ele>2324</ele>
        <time>2019-02-27T10:11:49Z</time>
      </trkpt>
      <trkpt lat="42.74048" lon="0.17472">
        <ele>2324</ele>
        <time>2019-02-27T10:11:50Z</time>
      </trkpt>
      <trkpt lat="42.74048" lon="0.17472">
        <ele>2324</ele>
        <time>2019-02-27T10:11:51Z</time>
      </trkpt>
      <trkpt lat="42.74048" lon="0.17472">
        <ele>2324</ele>
        <time>2019-02-27T10:11:52Z</time>
      </trkpt>
      <trkpt lat="42.74048" lon="0.17472">
        <ele>2325</ele>
        <time>2019-02-27T10:11:53Z</time>
      </trkpt>
      <trkpt lat="42.74048" lon="0.17472">
        <ele>2325</ele>
        <time>2019-02-27T10:11:54Z</time>
      </trkpt>
      <trkpt lat="42.74048" lon="0.17472">
        <ele>2325</ele>
        <time>2019-02-27T10:11:55Z</time>
      </trkpt>
      <trkpt lat="42.74048" lon="0.17472">
        <ele>2325</ele>
        <time>2019-02-27T10:11:56Z</time>
      </trkpt>
      <trkpt lat="42.74048" lon="0.17472">
        <ele>2325</ele>
        <time>2019-02-27T10:11:57Z</time>
      </trkpt>
      <trkpt lat="42.74048" lon="0.17472">
        <ele>2325</ele>
        <time>2019-02-27T10:11:58Z</time>
      </trkpt>
      <trkpt lat="42.74045" lon="0.17472">
        <ele>2325</ele>
        <time>2019-02-27T10:11:59Z</time>
      </trkpt>
      <trkpt lat="42.74045" lon="0.17472">
        <ele>2326</ele>
        <time>2019-02-27T10:12:00Z</time>
      </trkpt>
      <trkpt lat="42.74045" lon="0.17472">
        <ele>2326</ele>
        <time>2019-02-27T10:12:01Z</time>
      </trkpt>
      <trkpt lat="42.74043" lon="0.17472">
        <ele>2326</ele>
        <time>2019-02-27T10:12:02Z</time>
      </trkpt>
      <trkpt lat="42.74043" lon="0.17472">
        <ele>2326</ele>
        <time>2019-02-27T10:12:03Z</time>
      </trkpt>
      <trkpt lat="42.74043" lon="0.17472">
        <ele>2326</ele>
        <time>2019-02-27T10:12:04Z</time>
      </trkpt>
      <trkpt lat="42.74041" lon="0.1747">
        <ele>2326</ele>
        <time>2019-02-27T10:12:05Z</time>
      </trkpt>
      <trkpt lat="42.74041" lon="0.1747">
        <ele>2326</ele>
        <time>2019-02-27T10:12:06Z</time>
      </trkpt>
      <trkpt lat="42.74041" lon="0.1747">
        <ele>2326</ele>
        <time>2019-02-27T10:12:07Z</time>
      </trkpt>
      <trkpt lat="42.74041" lon="0.1747">
        <ele>2326</ele>
        <time>2019-02-27T10:12:08Z</time>
      </trkpt>
      <trkpt lat="42.74039" lon="0.17471">
        <ele>2327</ele>
        <time>2019-02-27T10:12:09Z</time>
      </trkpt>
      <trkpt lat="42.74039" lon="0.17471">
        <ele>2327</ele>
        <time>2019-02-27T10:12:10Z</time>
      </trkpt>
      <trkpt lat="42.74039" lon="0.17471">
        <ele>2327</ele>
        <time>2019-02-27T10:12:11Z</time>
      </trkpt>
      <trkpt lat="42.74038" lon="0.17473">
        <ele>2327</ele>
        <time>2019-02-27T10:12:12Z</time>
      </trkpt>
      <trkpt lat="42.74038" lon="0.17473">
        <ele>2327</ele>
        <time>2019-02-27T10:12:13Z</time>
      </trkpt>
      <trkpt lat="42.74038" lon="0.17473">
        <ele>2327</ele>
        <time>2019-02-27T10:12:14Z</time>
      </trkpt>
      <trkpt lat="42.74038" lon="0.17473">
        <ele>2327</ele>
        <time>2019-02-27T10:12:15Z</time>
      </trkpt>
      <trkpt lat="42.74036" lon="0.17474">
        <ele>2327</ele>
        <time>2019-02-27T10:12:16Z</time>
      </trkpt>
      <trkpt lat="42.74036" lon="0.17474">
        <ele>2327</ele>
        <time>2019-02-27T10:12:17Z</time>
      </trkpt>
      <trkpt lat="42.74036" lon="0.17474">
        <ele>2327</ele>
        <time>2019-02-27T10:12:18Z</time>
      </trkpt>
      <trkpt lat="42.74036" lon="0.17474">
        <ele>2327</ele>
        <time>2019-02-27T10:12:19Z</time>
      </trkpt>
      <trkpt lat="42.74036" lon="0.17474">
        <ele>2327</ele>
        <time>2019-02-27T10:12:20Z</time>
      </trkpt>
      <trkpt lat="42.74036" lon="0.17474">
        <ele>2328</ele>
        <time>2019-02-27T10:12:21Z</time>
      </trkpt>
      <trkpt lat="42.74036" lon="0.17474">
        <ele>2328</ele>
        <time>2019-02-27T10:12:22Z</time>
      </trkpt>
      <trkpt lat="42.74034" lon="0.17474">
        <ele>2328</ele>
        <time>2019-02-27T10:12:23Z</time>
      </trkpt>
      <trkpt lat="42.74034" lon="0.17474">
        <ele>2329</ele>
        <time>2019-02-27T10:12:24Z</time>
      </trkpt>
      <trkpt lat="42.74034" lon="0.17474">
        <ele>2329</ele>
        <time>2019-02-27T10:12:25Z</time>
      </trkpt>
      <trkpt lat="42.74034" lon="0.17474">
        <ele>2329</ele>
        <time>2019-02-27T10:12:26Z</time>
      </trkpt>
      <trkpt lat="42.74034" lon="0.17471">
        <ele>2329</ele>
        <time>2019-02-27T10:12:27Z</time>
      </trkpt>
      <trkpt lat="42.74034" lon="0.17471">
        <ele>2329</ele>
        <time>2019-02-27T10:12:28Z</time>
      </trkpt>
      <trkpt lat="42.74034" lon="0.17471">
        <ele>2329</ele>
        <time>2019-02-27T10:12:29Z</time>
      </trkpt>
      <trkpt lat="42.74034" lon="0.17471">
        <ele>2329</ele>
        <time>2019-02-27T10:12:30Z</time>
      </trkpt>
      <trkpt lat="42.74034" lon="0.17471">
        <ele>2329</ele>
        <time>2019-02-27T10:12:31Z</time>
      </trkpt>
      <trkpt lat="42.74034" lon="0.17471">
        <ele>2329</ele>
        <time>2019-02-27T10:12:32Z</time>
      </trkpt>
      <trkpt lat="42.74034" lon="0.17471">
        <ele>2329</ele>
        <time>2019-02-27T10:12:33Z</time>
      </trkpt>
      <trkpt lat="42.74034" lon="0.17471">
        <ele>2329</ele>
        <time>2019-02-27T10:12:34Z</time>
      </trkpt>
      <trkpt lat="42.74034" lon="0.17471">
        <ele>2329</ele>
        <time>2019-02-27T10:12:35Z</time>
      </trkpt>
      <trkpt lat="42.74034" lon="0.17471">
        <ele>2329</ele>
        <time>2019-02-27T10:12:36Z</time>
      </trkpt>
      <trkpt lat="42.74034" lon="0.17471">
        <ele>2329</ele>
        <time>2019-02-27T10:12:37Z</time>
      </trkpt>
      <trkpt lat="42.74034" lon="0.17471">
        <ele>2329</ele>
        <time>2019-02-27T10:12:38Z</time>
      </trkpt>
      <trkpt lat="42.74034" lon="0.17471">
        <ele>2329</ele>
        <time>2019-02-27T10:12:39Z</time>
      </trkpt>
      <trkpt lat="42.74034" lon="0.17471">
        <ele>2329</ele>
        <time>2019-02-27T10:12:40Z</time>
      </trkpt>
      <trkpt lat="42.74034" lon="0.17471">
        <ele>2329</ele>
        <time>2019-02-27T10:12:41Z</time>
      </trkpt>
      <trkpt lat="42.74034" lon="0.17471">
        <ele>2329</ele>
        <time>2019-02-27T10:12:42Z</time>
      </trkpt>
      <trkpt lat="42.74034" lon="0.17471">
        <ele>2329</ele>
        <time>2019-02-27T10:12:43Z</time>
      </trkpt>
      <trkpt lat="42.74034" lon="0.17471">
        <ele>2329</ele>
        <time>2019-02-27T10:12:44Z</time>
      </trkpt>
      <trkpt lat="42.74034" lon="0.17471">
        <ele>2329</ele>
        <time>2019-02-27T10:12:45Z</time>
      </trkpt>
      <trkpt lat="42.74034" lon="0.17471">
        <ele>2329</ele>
        <time>2019-02-27T10:12:46Z</time>
      </trkpt>
      <trkpt lat="42.74034" lon="0.17471">
        <ele>2329</ele>
        <time>2019-02-27T10:12:47Z</time>
      </trkpt>
      <trkpt lat="42.74034" lon="0.17471">
        <ele>2330</ele>
        <time>2019-02-27T10:12:48Z</time>
      </trkpt>
      <trkpt lat="42.74034" lon="0.17471">
        <ele>2330</ele>
        <time>2019-02-27T10:12:49Z</time>
      </trkpt>
      <trkpt lat="42.74034" lon="0.17471">
        <ele>2330</ele>
        <time>2019-02-27T10:12:50Z</time>
      </trkpt>
      <trkpt lat="42.74034" lon="0.17471">
        <ele>2330</ele>
        <time>2019-02-27T10:12:51Z</time>
      </trkpt>
      <trkpt lat="42.74026" lon="0.17467">
        <ele>2330</ele>
        <time>2019-02-27T10:12:52Z</time>
      </trkpt>
      <trkpt lat="42.74026" lon="0.17467">
        <ele>2331</ele>
        <time>2019-02-27T10:12:53Z</time>
      </trkpt>
      <trkpt lat="42.74026" lon="0.17467">
        <ele>2331</ele>
        <time>2019-02-27T10:12:54Z</time>
      </trkpt>
      <trkpt lat="42.74026" lon="0.17467">
        <ele>2331</ele>
        <time>2019-02-27T10:12:55Z</time>
      </trkpt>
      <trkpt lat="42.74026" lon="0.17467">
        <ele>2331</ele>
        <time>2019-02-27T10:12:56Z</time>
      </trkpt>
      <trkpt lat="42.74026" lon="0.17467">
        <ele>2331</ele>
        <time>2019-02-27T10:12:57Z</time>
      </trkpt>
      <trkpt lat="42.74026" lon="0.17467">
        <ele>2331</ele>
        <time>2019-02-27T10:12:58Z</time>
      </trkpt>
      <trkpt lat="42.74026" lon="0.17467">
        <ele>2331</ele>
        <time>2019-02-27T10:12:59Z</time>
      </trkpt>
      <trkpt lat="42.74026" lon="0.17467">
        <ele>2331</ele>
        <time>2019-02-27T10:13:00Z</time>
      </trkpt>
      <trkpt lat="42.74026" lon="0.17467">
        <ele>2331</ele>
        <time>2019-02-27T10:13:01Z</time>
      </trkpt>
      <trkpt lat="42.74026" lon="0.17467">
        <ele>2331</ele>
        <time>2019-02-27T10:13:02Z</time>
      </trkpt>
      <trkpt lat="42.74026" lon="0.17467">
        <ele>2331</ele>
        <time>2019-02-27T10:13:03Z</time>
      </trkpt>
      <trkpt lat="42.74026" lon="0.17467">
        <ele>2331</ele>
        <time>2019-02-27T10:13:04Z</time>
      </trkpt>
      <trkpt lat="42.74026" lon="0.17467">
        <ele>2331</ele>
        <time>2019-02-27T10:13:05Z</time>
      </trkpt>
      <trkpt lat="42.74026" lon="0.17467">
        <ele>2331</ele>
        <time>2019-02-27T10:13:06Z</time>
      </trkpt>
      <trkpt lat="42.74023" lon="0.17466">
        <ele>2331</ele>
        <time>2019-02-27T10:13:07Z</time>
      </trkpt>
      <trkpt lat="42.74023" lon="0.17466">
        <ele>2331</ele>
        <time>2019-02-27T10:13:08Z</time>
      </trkpt>
      <trkpt lat="42.74023" lon="0.17466">
        <ele>2331</ele>
        <time>2019-02-27T10:13:09Z</time>
      </trkpt>
      <trkpt lat="42.74021" lon="0.17466">
        <ele>2332</ele>
        <time>2019-02-27T10:13:10Z</time>
      </trkpt>
      <trkpt lat="42.74021" lon="0.17466">
        <ele>2332</ele>
        <time>2019-02-27T10:13:11Z</time>
      </trkpt>
      <trkpt lat="42.74021" lon="0.17466">
        <ele>2332</ele>
        <time>2019-02-27T10:13:12Z</time>
      </trkpt>
      <trkpt lat="42.74021" lon="0.17466">
        <ele>2332</ele>
        <time>2019-02-27T10:13:13Z</time>
      </trkpt>
      <trkpt lat="42.74021" lon="0.17466">
        <ele>2332</ele>
        <time>2019-02-27T10:13:14Z</time>
      </trkpt>
      <trkpt lat="42.74021" lon="0.17466">
        <ele>2332</ele>
        <time>2019-02-27T10:13:15Z</time>
      </trkpt>
      <trkpt lat="42.74021" lon="0.17466">
        <ele>2332</ele>
        <time>2019-02-27T10:13:16Z</time>
      </trkpt>
      <trkpt lat="42.74021" lon="0.17466">
        <ele>2332</ele>
        <time>2019-02-27T10:13:17Z</time>
      </trkpt>
      <trkpt lat="42.74021" lon="0.17466">
        <ele>2332</ele>
        <time>2019-02-27T10:13:18Z</time>
      </trkpt>
      <trkpt lat="42.74021" lon="0.17466">
        <ele>2332</ele>
        <time>2019-02-27T10:13:19Z</time>
      </trkpt>
      <trkpt lat="42.74021" lon="0.17466">
        <ele>2332</ele>
        <time>2019-02-27T10:13:20Z</time>
      </trkpt>
      <trkpt lat="42.74021" lon="0.17466">
        <ele>2332</ele>
        <time>2019-02-27T10:13:21Z</time>
      </trkpt>
      <trkpt lat="42.74021" lon="0.17466">
        <ele>2332</ele>
        <time>2019-02-27T10:13:22Z</time>
      </trkpt>
      <trkpt lat="42.74021" lon="0.17466">
        <ele>2332</ele>
        <time>2019-02-27T10:13:23Z</time>
      </trkpt>
      <trkpt lat="42.74021" lon="0.17466">
        <ele>2332</ele>
        <time>2019-02-27T10:13:24Z</time>
      </trkpt>
      <trkpt lat="42.74021" lon="0.17466">
        <ele>2332</ele>
        <time>2019-02-27T10:13:25Z</time>
      </trkpt>
      <trkpt lat="42.74021" lon="0.17466">
        <ele>2332</ele>
        <time>2019-02-27T10:13:26Z</time>
      </trkpt>
      <trkpt lat="42.74021" lon="0.17466">
        <ele>2332</ele>
        <time>2019-02-27T10:13:27Z</time>
      </trkpt>
      <trkpt lat="42.74021" lon="0.17466">
        <ele>2332</ele>
        <time>2019-02-27T10:13:28Z</time>
      </trkpt>
      <trkpt lat="42.74021" lon="0.17466">
        <ele>2332</ele>
        <time>2019-02-27T10:13:29Z</time>
      </trkpt>
      <trkpt lat="42.74021" lon="0.17466">
        <ele>2332</ele>
        <time>2019-02-27T10:13:30Z</time>
      </trkpt>
      <trkpt lat="42.74021" lon="0.17466">
        <ele>2332</ele>
        <time>2019-02-27T10:13:31Z</time>
      </trkpt>
      <trkpt lat="42.74021" lon="0.17466">
        <ele>2332</ele>
        <time>2019-02-27T10:13:32Z</time>
      </trkpt>
      <trkpt lat="42.74021" lon="0.17466">
        <ele>2332</ele>
        <time>2019-02-27T10:13:33Z</time>
      </trkpt>
      <trkpt lat="42.74021" lon="0.17466">
        <ele>2332</ele>
        <time>2019-02-27T10:13:34Z</time>
      </trkpt>
      <trkpt lat="42.74021" lon="0.17466">
        <ele>2332</ele>
        <time>2019-02-27T10:13:35Z</time>
      </trkpt>
      <trkpt lat="42.74021" lon="0.17466">
        <ele>2332</ele>
        <time>2019-02-27T10:13:36Z</time>
      </trkpt>
      <trkpt lat="42.74021" lon="0.17466">
        <ele>2332</ele>
        <time>2019-02-27T10:13:37Z</time>
      </trkpt>
      <trkpt lat="42.74018" lon="0.17466">
        <ele>2333</ele>
        <time>2019-02-27T10:13:38Z</time>
      </trkpt>
      <trkpt lat="42.74018" lon="0.17466">
        <ele>2333</ele>
        <time>2019-02-27T10:13:39Z</time>
      </trkpt>
      <trkpt lat="42.74018" lon="0.17466">
        <ele>2333</ele>
        <time>2019-02-27T10:13:40Z</time>
      </trkpt>
      <trkpt lat="42.74018" lon="0.17466">
        <ele>2333</ele>
        <time>2019-02-27T10:13:41Z</time>
      </trkpt>
      <trkpt lat="42.74018" lon="0.17466">
        <ele>2333</ele>
        <time>2019-02-27T10:13:42Z</time>
      </trkpt>
      <trkpt lat="42.74018" lon="0.17466">
        <ele>2333</ele>
        <time>2019-02-27T10:13:43Z</time>
      </trkpt>
      <trkpt lat="42.74018" lon="0.17466">
        <ele>2333</ele>
        <time>2019-02-27T10:13:44Z</time>
      </trkpt>
      <trkpt lat="42.74018" lon="0.17466">
        <ele>2332</ele>
        <time>2019-02-27T10:13:45Z</time>
      </trkpt>
      <trkpt lat="42.74018" lon="0.17466">
        <ele>2332</ele>
        <time>2019-02-27T10:13:46Z</time>
      </trkpt>
      <trkpt lat="42.74018" lon="0.17466">
        <ele>2332</ele>
        <time>2019-02-27T10:13:47Z</time>
      </trkpt>
      <trkpt lat="42.74018" lon="0.17466">
        <ele>2332</ele>
        <time>2019-02-27T10:13:48Z</time>
      </trkpt>
      <trkpt lat="42.74016" lon="0.17466">
        <ele>2333</ele>
        <time>2019-02-27T10:13:49Z</time>
      </trkpt>
      <trkpt lat="42.74016" lon="0.17466">
        <ele>2333</ele>
        <time>2019-02-27T10:13:50Z</time>
      </trkpt>
      <trkpt lat="42.74016" lon="0.17466">
        <ele>2333</ele>
        <time>2019-02-27T10:13:51Z</time>
      </trkpt>
      <trkpt lat="42.74016" lon="0.17466">
        <ele>2333</ele>
        <time>2019-02-27T10:13:52Z</time>
      </trkpt>
      <trkpt lat="42.74016" lon="0.17466">
        <ele>2333</ele>
        <time>2019-02-27T10:13:53Z</time>
      </trkpt>
      <trkpt lat="42.74016" lon="0.17466">
        <ele>2333</ele>
        <time>2019-02-27T10:13:54Z</time>
      </trkpt>
      <trkpt lat="42.74016" lon="0.17466">
        <ele>2333</ele>
        <time>2019-02-27T10:13:55Z</time>
      </trkpt>
      <trkpt lat="42.74016" lon="0.17466">
        <ele>2333</ele>
        <time>2019-02-27T10:13:56Z</time>
      </trkpt>
      <trkpt lat="42.74016" lon="0.17466">
        <ele>2333</ele>
        <time>2019-02-27T10:13:57Z</time>
      </trkpt>
      <trkpt lat="42.74016" lon="0.17466">
        <ele>2333</ele>
        <time>2019-02-27T10:13:58Z</time>
      </trkpt>
      <trkpt lat="42.74016" lon="0.17466">
        <ele>2333</ele>
        <time>2019-02-27T10:13:59Z</time>
      </trkpt>
      <trkpt lat="42.74016" lon="0.17466">
        <ele>2333</ele>
        <time>2019-02-27T10:14:00Z</time>
      </trkpt>
      <trkpt lat="42.74016" lon="0.17466">
        <ele>2333</ele>
        <time>2019-02-27T10:14:01Z</time>
      </trkpt>
      <trkpt lat="42.74016" lon="0.17466">
        <ele>2333</ele>
        <time>2019-02-27T10:14:02Z</time>
      </trkpt>
      <trkpt lat="42.74016" lon="0.17466">
        <ele>2333</ele>
        <time>2019-02-27T10:14:03Z</time>
      </trkpt>
      <trkpt lat="42.74016" lon="0.17466">
        <ele>2333</ele>
        <time>2019-02-27T10:14:04Z</time>
      </trkpt>
      <trkpt lat="42.74016" lon="0.17466">
        <ele>2333</ele>
        <time>2019-02-27T10:14:05Z</time>
      </trkpt>
      <trkpt lat="42.74016" lon="0.17466">
        <ele>2333</ele>
        <time>2019-02-27T10:14:06Z</time>
      </trkpt>
      <trkpt lat="42.74016" lon="0.17466">
        <ele>2333</ele>
        <time>2019-02-27T10:14:07Z</time>
      </trkpt>
      <trkpt lat="42.74016" lon="0.17466">
        <ele>2333</ele>
        <time>2019-02-27T10:14:08Z</time>
      </trkpt>
      <trkpt lat="42.74016" lon="0.17466">
        <ele>2333</ele>
        <time>2019-02-27T10:14:09Z</time>
      </trkpt>
      <trkpt lat="42.74016" lon="0.17466">
        <ele>2333</ele>
        <time>2019-02-27T10:14:10Z</time>
      </trkpt>
      <trkpt lat="42.74016" lon="0.17466">
        <ele>2333</ele>
        <time>2019-02-27T10:14:11Z</time>
      </trkpt>
      <trkpt lat="42.74014" lon="0.17465">
        <ele>2333</ele>
        <time>2019-02-27T10:14:12Z</time>
      </trkpt>
      <trkpt lat="42.74014" lon="0.17465">
        <ele>2334</ele>
        <time>2019-02-27T10:14:13Z</time>
      </trkpt>
      <trkpt lat="42.74014" lon="0.17465">
        <ele>2334</ele>
        <time>2019-02-27T10:14:14Z</time>
      </trkpt>
      <trkpt lat="42.74014" lon="0.17465">
        <ele>2334</ele>
        <time>2019-02-27T10:14:15Z</time>
      </trkpt>
      <trkpt lat="42.74014" lon="0.17465">
        <ele>2334</ele>
        <time>2019-02-27T10:14:16Z</time>
      </trkpt>
      <trkpt lat="42.74014" lon="0.17465">
        <ele>2334</ele>
        <time>2019-02-27T10:14:17Z</time>
      </trkpt>
      <trkpt lat="42.74014" lon="0.17465">
        <ele>2334</ele>
        <time>2019-02-27T10:14:18Z</time>
      </trkpt>
      <trkpt lat="42.74014" lon="0.17465">
        <ele>2334</ele>
        <time>2019-02-27T10:14:19Z</time>
      </trkpt>
      <trkpt lat="42.74014" lon="0.17465">
        <ele>2334</ele>
        <time>2019-02-27T10:14:20Z</time>
      </trkpt>
      <trkpt lat="42.74014" lon="0.17465">
        <ele>2334</ele>
        <time>2019-02-27T10:14:21Z</time>
      </trkpt>
      <trkpt lat="42.74014" lon="0.17465">
        <ele>2335</ele>
        <time>2019-02-27T10:14:22Z</time>
      </trkpt>
      <trkpt lat="42.74014" lon="0.17465">
        <ele>2335</ele>
        <time>2019-02-27T10:14:23Z</time>
      </trkpt>
      <trkpt lat="42.74014" lon="0.17465">
        <ele>2335</ele>
        <time>2019-02-27T10:14:24Z</time>
      </trkpt>
      <trkpt lat="42.74015" lon="0.17462">
        <ele>2335</ele>
        <time>2019-02-27T10:14:25Z</time>
      </trkpt>
      <trkpt lat="42.74015" lon="0.17462">
        <ele>2335</ele>
        <time>2019-02-27T10:14:26Z</time>
      </trkpt>
      <trkpt lat="42.74015" lon="0.17462">
        <ele>2335</ele>
        <time>2019-02-27T10:14:27Z</time>
      </trkpt>
      <trkpt lat="42.74015" lon="0.17462">
        <ele>2335</ele>
        <time>2019-02-27T10:14:28Z</time>
      </trkpt>
      <trkpt lat="42.74015" lon="0.17462">
        <ele>2335</ele>
        <time>2019-02-27T10:14:29Z</time>
      </trkpt>
      <trkpt lat="42.74015" lon="0.17462">
        <ele>2336</ele>
        <time>2019-02-27T10:14:30Z</time>
      </trkpt>
      <trkpt lat="42.74015" lon="0.17462">
        <ele>2336</ele>
        <time>2019-02-27T10:14:31Z</time>
      </trkpt>
      <trkpt lat="42.74015" lon="0.17462">
        <ele>2336</ele>
        <time>2019-02-27T10:14:32Z</time>
      </trkpt>
      <trkpt lat="42.74015" lon="0.17462">
        <ele>2336</ele>
        <time>2019-02-27T10:14:33Z</time>
      </trkpt>
      <trkpt lat="42.74015" lon="0.17462">
        <ele>2335</ele>
        <time>2019-02-27T10:14:34Z</time>
      </trkpt>
      <trkpt lat="42.74015" lon="0.17462">
        <ele>2335</ele>
        <time>2019-02-27T10:14:35Z</time>
      </trkpt>
      <trkpt lat="42.74015" lon="0.17462">
        <ele>2335</ele>
        <time>2019-02-27T10:14:36Z</time>
      </trkpt>
      <trkpt lat="42.74015" lon="0.17462">
        <ele>2335</ele>
        <time>2019-02-27T10:14:37Z</time>
      </trkpt>
      <trkpt lat="42.74015" lon="0.17462">
        <ele>2335</ele>
        <time>2019-02-27T10:14:38Z</time>
      </trkpt>
      <trkpt lat="42.74015" lon="0.17462">
        <ele>2335</ele>
        <time>2019-02-27T10:14:39Z</time>
      </trkpt>
      <trkpt lat="42.74015" lon="0.17462">
        <ele>2335</ele>
        <time>2019-02-27T10:14:40Z</time>
      </trkpt>
      <trkpt lat="42.74015" lon="0.17462">
        <ele>2335</ele>
        <time>2019-02-27T10:14:41Z</time>
      </trkpt>
      <trkpt lat="42.74015" lon="0.17462">
        <ele>2335</ele>
        <time>2019-02-27T10:14:42Z</time>
      </trkpt>
      <trkpt lat="42.74015" lon="0.17462">
        <ele>2335</ele>
        <time>2019-02-27T10:14:43Z</time>
      </trkpt>
      <trkpt lat="42.74015" lon="0.17462">
        <ele>2335</ele>
        <time>2019-02-27T10:14:44Z</time>
      </trkpt>
      <trkpt lat="42.74015" lon="0.17462">
        <ele>2335</ele>
        <time>2019-02-27T10:14:45Z</time>
      </trkpt>
      <trkpt lat="42.74015" lon="0.17462">
        <ele>2335</ele>
        <time>2019-02-27T10:14:46Z</time>
      </trkpt>
      <trkpt lat="42.74015" lon="0.17462">
        <ele>2335</ele>
        <time>2019-02-27T10:14:47Z</time>
      </trkpt>
      <trkpt lat="42.74015" lon="0.17462">
        <ele>2335</ele>
        <time>2019-02-27T10:14:48Z</time>
      </trkpt>
      <trkpt lat="42.74015" lon="0.17462">
        <ele>2335</ele>
        <time>2019-02-27T10:14:49Z</time>
      </trkpt>
      <trkpt lat="42.74015" lon="0.17459">
        <ele>2335</ele>
        <time>2019-02-27T10:14:50Z</time>
      </trkpt>
      <trkpt lat="42.74015" lon="0.17459">
        <ele>2335</ele>
        <time>2019-02-27T10:14:51Z</time>
      </trkpt>
      <trkpt lat="42.74015" lon="0.17459">
        <ele>2336</ele>
        <time>2019-02-27T10:14:52Z</time>
      </trkpt>
      <trkpt lat="42.74015" lon="0.17459">
        <ele>2336</ele>
        <time>2019-02-27T10:14:53Z</time>
      </trkpt>
      <trkpt lat="42.74015" lon="0.17459">
        <ele>2335</ele>
        <time>2019-02-27T10:14:54Z</time>
      </trkpt>
      <trkpt lat="42.74015" lon="0.17459">
        <ele>2335</ele>
        <time>2019-02-27T10:14:55Z</time>
      </trkpt>
      <trkpt lat="42.74015" lon="0.17459">
        <ele>2335</ele>
        <time>2019-02-27T10:14:56Z</time>
      </trkpt>
      <trkpt lat="42.74015" lon="0.17459">
        <ele>2335</ele>
        <time>2019-02-27T10:14:57Z</time>
      </trkpt>
      <trkpt lat="42.74015" lon="0.17459">
        <ele>2335</ele>
        <time>2019-02-27T10:14:58Z</time>
      </trkpt>
      <trkpt lat="42.74015" lon="0.17459">
        <ele>2336</ele>
        <time>2019-02-27T10:14:59Z</time>
      </trkpt>
      <trkpt lat="42.74015" lon="0.17459">
        <ele>2336</ele>
        <time>2019-02-27T10:15:00Z</time>
      </trkpt>
      <trkpt lat="42.74015" lon="0.17459">
        <ele>2335</ele>
        <time>2019-02-27T10:15:01Z</time>
      </trkpt>
      <trkpt lat="42.74015" lon="0.17459">
        <ele>2335</ele>
        <time>2019-02-27T10:15:02Z</time>
      </trkpt>
      <trkpt lat="42.74015" lon="0.17459">
        <ele>2335</ele>
        <time>2019-02-27T10:15:03Z</time>
      </trkpt>
      <trkpt lat="42.74015" lon="0.17459">
        <ele>2335</ele>
        <time>2019-02-27T10:15:04Z</time>
      </trkpt>
      <trkpt lat="42.74015" lon="0.17459">
        <ele>2335</ele>
        <time>2019-02-27T10:15:05Z</time>
      </trkpt>
      <trkpt lat="42.74015" lon="0.17459">
        <ele>2335</ele>
        <time>2019-02-27T10:15:06Z</time>
      </trkpt>
      <trkpt lat="42.74015" lon="0.17459">
        <ele>2335</ele>
        <time>2019-02-27T10:15:07Z</time>
      </trkpt>
      <trkpt lat="42.74015" lon="0.17459">
        <ele>2335</ele>
        <time>2019-02-27T10:15:08Z</time>
      </trkpt>
      <trkpt lat="42.74018" lon="0.1746">
        <ele>2335</ele>
        <time>2019-02-27T10:15:09Z</time>
      </trkpt>
      <trkpt lat="42.74018" lon="0.1746">
        <ele>2335</ele>
        <time>2019-02-27T10:15:10Z</time>
      </trkpt>
      <trkpt lat="42.74018" lon="0.1746">
        <ele>2335</ele>
        <time>2019-02-27T10:15:11Z</time>
      </trkpt>
      <trkpt lat="42.74018" lon="0.1746">
        <ele>2335</ele>
        <time>2019-02-27T10:15:12Z</time>
      </trkpt>
      <trkpt lat="42.74018" lon="0.1746">
        <ele>2336</ele>
        <time>2019-02-27T10:15:13Z</time>
      </trkpt>
      <trkpt lat="42.74018" lon="0.1746">
        <ele>2336</ele>
        <time>2019-02-27T10:15:14Z</time>
      </trkpt>
      <trkpt lat="42.74018" lon="0.1746">
        <ele>2336</ele>
        <time>2019-02-27T10:15:15Z</time>
      </trkpt>
      <trkpt lat="42.7402" lon="0.17458">
        <ele>2336</ele>
        <time>2019-02-27T10:15:16Z</time>
      </trkpt>
      <trkpt lat="42.7402" lon="0.17458">
        <ele>2336</ele>
        <time>2019-02-27T10:15:17Z</time>
      </trkpt>
      <trkpt lat="42.7402" lon="0.17458">
        <ele>2336</ele>
        <time>2019-02-27T10:15:18Z</time>
      </trkpt>
      <trkpt lat="42.7402" lon="0.17458">
        <ele>2336</ele>
        <time>2019-02-27T10:15:19Z</time>
      </trkpt>
      <trkpt lat="42.7402" lon="0.17458">
        <ele>2336</ele>
        <time>2019-02-27T10:15:20Z</time>
      </trkpt>
      <trkpt lat="42.7402" lon="0.17458">
        <ele>2337</ele>
        <time>2019-02-27T10:15:21Z</time>
      </trkpt>
      <trkpt lat="42.7402" lon="0.17458">
        <ele>2337</ele>
        <time>2019-02-27T10:15:22Z</time>
      </trkpt>
      <trkpt lat="42.74021" lon="0.17456">
        <ele>2339</ele>
        <time>2019-02-27T10:15:23Z</time>
      </trkpt>
      <trkpt lat="42.74021" lon="0.17456">
        <ele>2339</ele>
        <time>2019-02-27T10:15:24Z</time>
      </trkpt>
      <trkpt lat="42.74021" lon="0.17456">
        <ele>2339</ele>
        <time>2019-02-27T10:15:25Z</time>
      </trkpt>
      <trkpt lat="42.74021" lon="0.17456">
        <ele>2339</ele>
        <time>2019-02-27T10:15:26Z</time>
      </trkpt>
      <trkpt lat="42.74021" lon="0.17456">
        <ele>2339</ele>
        <time>2019-02-27T10:15:27Z</time>
      </trkpt>
      <trkpt lat="42.74021" lon="0.17456">
        <ele>2339</ele>
        <time>2019-02-27T10:15:28Z</time>
      </trkpt>
      <trkpt lat="42.74023" lon="0.17454">
        <ele>2339</ele>
        <time>2019-02-27T10:15:29Z</time>
      </trkpt>
      <trkpt lat="42.74023" lon="0.17454">
        <ele>2339</ele>
        <time>2019-02-27T10:15:30Z</time>
      </trkpt>
      <trkpt lat="42.74023" lon="0.17454">
        <ele>2340</ele>
        <time>2019-02-27T10:15:31Z</time>
      </trkpt>
      <trkpt lat="42.74024" lon="0.17452">
        <ele>2340</ele>
        <time>2019-02-27T10:15:32Z</time>
      </trkpt>
      <trkpt lat="42.74024" lon="0.17452">
        <ele>2340</ele>
        <time>2019-02-27T10:15:33Z</time>
      </trkpt>
      <trkpt lat="42.74024" lon="0.17452">
        <ele>2340</ele>
        <time>2019-02-27T10:15:34Z</time>
      </trkpt>
      <trkpt lat="42.74026" lon="0.17451">
        <ele>2340</ele>
        <time>2019-02-27T10:15:35Z</time>
      </trkpt>
      <trkpt lat="42.74026" lon="0.17451">
        <ele>2340</ele>
        <time>2019-02-27T10:15:36Z</time>
      </trkpt>
      <trkpt lat="42.74026" lon="0.17451">
        <ele>2340</ele>
        <time>2019-02-27T10:15:37Z</time>
      </trkpt>
      <trkpt lat="42.74026" lon="0.17451">
        <ele>2340</ele>
        <time>2019-02-27T10:15:38Z</time>
      </trkpt>
      <trkpt lat="42.74028" lon="0.17449">
        <ele>2340</ele>
        <time>2019-02-27T10:15:39Z</time>
      </trkpt>
      <trkpt lat="42.74028" lon="0.17449">
        <ele>2340</ele>
        <time>2019-02-27T10:15:40Z</time>
      </trkpt>
      <trkpt lat="42.74028" lon="0.17449">
        <ele>2340</ele>
        <time>2019-02-27T10:15:41Z</time>
      </trkpt>
      <trkpt lat="42.74028" lon="0.17449">
        <ele>2340</ele>
        <time>2019-02-27T10:15:42Z</time>
      </trkpt>
      <trkpt lat="42.74028" lon="0.17449">
        <ele>2340</ele>
        <time>2019-02-27T10:15:43Z</time>
      </trkpt>
      <trkpt lat="42.74028" lon="0.17449">
        <ele>2340</ele>
        <time>2019-02-27T10:15:44Z</time>
      </trkpt>
      <trkpt lat="42.74028" lon="0.17449">
        <ele>2341</ele>
        <time>2019-02-27T10:15:45Z</time>
      </trkpt>
      <trkpt lat="42.74028" lon="0.17449">
        <ele>2341</ele>
        <time>2019-02-27T10:15:46Z</time>
      </trkpt>
      <trkpt lat="42.74028" lon="0.17449">
        <ele>2341</ele>
        <time>2019-02-27T10:15:47Z</time>
      </trkpt>
      <trkpt lat="42.74028" lon="0.17449">
        <ele>2341</ele>
        <time>2019-02-27T10:15:48Z</time>
      </trkpt>
      <trkpt lat="42.74028" lon="0.17449">
        <ele>2341</ele>
        <time>2019-02-27T10:15:49Z</time>
      </trkpt>
      <trkpt lat="42.74028" lon="0.17449">
        <ele>2341</ele>
        <time>2019-02-27T10:15:50Z</time>
      </trkpt>
      <trkpt lat="42.74028" lon="0.17449">
        <ele>2341</ele>
        <time>2019-02-27T10:15:51Z</time>
      </trkpt>
      <trkpt lat="42.74028" lon="0.17449">
        <ele>2341</ele>
        <time>2019-02-27T10:15:52Z</time>
      </trkpt>
      <trkpt lat="42.74028" lon="0.17449">
        <ele>2341</ele>
        <time>2019-02-27T10:15:53Z</time>
      </trkpt>
      <trkpt lat="42.74028" lon="0.17449">
        <ele>2341</ele>
        <time>2019-02-27T10:15:54Z</time>
      </trkpt>
      <trkpt lat="42.74028" lon="0.17449">
        <ele>2341</ele>
        <time>2019-02-27T10:15:55Z</time>
      </trkpt>
      <trkpt lat="42.74028" lon="0.17449">
        <ele>2341</ele>
        <time>2019-02-27T10:15:56Z</time>
      </trkpt>
      <trkpt lat="42.74028" lon="0.17449">
        <ele>2341</ele>
        <time>2019-02-27T10:15:57Z</time>
      </trkpt>
      <trkpt lat="42.74028" lon="0.17449">
        <ele>2341</ele>
        <time>2019-02-27T10:15:58Z</time>
      </trkpt>
      <trkpt lat="42.74031" lon="0.17448">
        <ele>2341</ele>
        <time>2019-02-27T10:15:59Z</time>
      </trkpt>
      <trkpt lat="42.74031" lon="0.17448">
        <ele>2341</ele>
        <time>2019-02-27T10:16:00Z</time>
      </trkpt>
      <trkpt lat="42.74031" lon="0.17448">
        <ele>2341</ele>
        <time>2019-02-27T10:16:01Z</time>
      </trkpt>
      <trkpt lat="42.74032" lon="0.17446">
        <ele>2341</ele>
        <time>2019-02-27T10:16:02Z</time>
      </trkpt>
      <trkpt lat="42.74032" lon="0.17446">
        <ele>2341</ele>
        <time>2019-02-27T10:16:03Z</time>
      </trkpt>
      <trkpt lat="42.74032" lon="0.17446">
        <ele>2341</ele>
        <time>2019-02-27T10:16:04Z</time>
      </trkpt>
      <trkpt lat="42.74032" lon="0.17446">
        <ele>2341</ele>
        <time>2019-02-27T10:16:05Z</time>
      </trkpt>
      <trkpt lat="42.74032" lon="0.17446">
        <ele>2342</ele>
        <time>2019-02-27T10:16:06Z</time>
      </trkpt>
      <trkpt lat="42.74032" lon="0.17446">
        <ele>2342</ele>
        <time>2019-02-27T10:16:07Z</time>
      </trkpt>
      <trkpt lat="42.74032" lon="0.17446">
        <ele>2342</ele>
        <time>2019-02-27T10:16:08Z</time>
      </trkpt>
      <trkpt lat="42.74032" lon="0.17446">
        <ele>2342</ele>
        <time>2019-02-27T10:16:09Z</time>
      </trkpt>
      <trkpt lat="42.74032" lon="0.17446">
        <ele>2342</ele>
        <time>2019-02-27T10:16:10Z</time>
      </trkpt>
      <trkpt lat="42.74032" lon="0.17446">
        <ele>2342</ele>
        <time>2019-02-27T10:16:11Z</time>
      </trkpt>
      <trkpt lat="42.74032" lon="0.17446">
        <ele>2342</ele>
        <time>2019-02-27T10:16:12Z</time>
      </trkpt>
      <trkpt lat="42.74032" lon="0.17446">
        <ele>2342</ele>
        <time>2019-02-27T10:16:13Z</time>
      </trkpt>
      <trkpt lat="42.74032" lon="0.17446">
        <ele>2342</ele>
        <time>2019-02-27T10:16:14Z</time>
      </trkpt>
      <trkpt lat="42.74032" lon="0.17446">
        <ele>2342</ele>
        <time>2019-02-27T10:16:15Z</time>
      </trkpt>
      <trkpt lat="42.74032" lon="0.17446">
        <ele>2342</ele>
        <time>2019-02-27T10:16:16Z</time>
      </trkpt>
      <trkpt lat="42.74032" lon="0.17446">
        <ele>2342</ele>
        <time>2019-02-27T10:16:17Z</time>
      </trkpt>
      <trkpt lat="42.74032" lon="0.17446">
        <ele>2342</ele>
        <time>2019-02-27T10:16:18Z</time>
      </trkpt>
      <trkpt lat="42.74032" lon="0.17446">
        <ele>2342</ele>
        <time>2019-02-27T10:16:19Z</time>
      </trkpt>
      <trkpt lat="42.74032" lon="0.17446">
        <ele>2342</ele>
        <time>2019-02-27T10:16:20Z</time>
      </trkpt>
      <trkpt lat="42.74032" lon="0.17446">
        <ele>2342</ele>
        <time>2019-02-27T10:16:21Z</time>
      </trkpt>
      <trkpt lat="42.74032" lon="0.17446">
        <ele>2342</ele>
        <time>2019-02-27T10:16:22Z</time>
      </trkpt>
      <trkpt lat="42.74032" lon="0.17446">
        <ele>2342</ele>
        <time>2019-02-27T10:16:23Z</time>
      </trkpt>
      <trkpt lat="42.74032" lon="0.17446">
        <ele>2342</ele>
        <time>2019-02-27T10:16:24Z</time>
      </trkpt>
      <trkpt lat="42.74032" lon="0.17446">
        <ele>2343</ele>
        <time>2019-02-27T10:16:25Z</time>
      </trkpt>
      <trkpt lat="42.74032" lon="0.17446">
        <ele>2343</ele>
        <time>2019-02-27T10:16:26Z</time>
      </trkpt>
      <trkpt lat="42.74032" lon="0.17446">
        <ele>2343</ele>
        <time>2019-02-27T10:16:27Z</time>
      </trkpt>
      <trkpt lat="42.74032" lon="0.17446">
        <ele>2343</ele>
        <time>2019-02-27T10:16:28Z</time>
      </trkpt>
      <trkpt lat="42.74032" lon="0.17446">
        <ele>2343</ele>
        <time>2019-02-27T10:16:29Z</time>
      </trkpt>
      <trkpt lat="42.74032" lon="0.17446">
        <ele>2343</ele>
        <time>2019-02-27T10:16:30Z</time>
      </trkpt>
      <trkpt lat="42.74032" lon="0.17446">
        <ele>2343</ele>
        <time>2019-02-27T10:16:31Z</time>
      </trkpt>
      <trkpt lat="42.74032" lon="0.17446">
        <ele>2343</ele>
        <time>2019-02-27T10:16:32Z</time>
      </trkpt>
      <trkpt lat="42.74032" lon="0.17446">
        <ele>2343</ele>
        <time>2019-02-27T10:16:33Z</time>
      </trkpt>
      <trkpt lat="42.74032" lon="0.17446">
        <ele>2343</ele>
        <time>2019-02-27T10:16:34Z</time>
      </trkpt>
      <trkpt lat="42.74032" lon="0.17446">
        <ele>2343</ele>
        <time>2019-02-27T10:16:35Z</time>
      </trkpt>
      <trkpt lat="42.74032" lon="0.17446">
        <ele>2342</ele>
        <time>2019-02-27T10:16:36Z</time>
      </trkpt>
      <trkpt lat="42.74032" lon="0.17446">
        <ele>2342</ele>
        <time>2019-02-27T10:16:37Z</time>
      </trkpt>
      <trkpt lat="42.74032" lon="0.17446">
        <ele>2342</ele>
        <time>2019-02-27T10:16:38Z</time>
      </trkpt>
      <trkpt lat="42.74032" lon="0.17446">
        <ele>2342</ele>
        <time>2019-02-27T10:16:39Z</time>
      </trkpt>
      <trkpt lat="42.74032" lon="0.17446">
        <ele>2343</ele>
        <time>2019-02-27T10:16:40Z</time>
      </trkpt>
      <trkpt lat="42.74032" lon="0.17446">
        <ele>2343</ele>
        <time>2019-02-27T10:16:41Z</time>
      </trkpt>
      <trkpt lat="42.74032" lon="0.17446">
        <ele>2343</ele>
        <time>2019-02-27T10:16:42Z</time>
      </trkpt>
      <trkpt lat="42.74032" lon="0.17446">
        <ele>2343</ele>
        <time>2019-02-27T10:16:43Z</time>
      </trkpt>
      <trkpt lat="42.74032" lon="0.17446">
        <ele>2343</ele>
        <time>2019-02-27T10:16:44Z</time>
      </trkpt>
      <trkpt lat="42.74032" lon="0.17446">
        <ele>2343</ele>
        <time>2019-02-27T10:16:45Z</time>
      </trkpt>
      <trkpt lat="42.74032" lon="0.17446">
        <ele>2343</ele>
        <time>2019-02-27T10:16:46Z</time>
      </trkpt>
      <trkpt lat="42.74032" lon="0.17446">
        <ele>2343</ele>
        <time>2019-02-27T10:16:47Z</time>
      </trkpt>
      <trkpt lat="42.74032" lon="0.17446">
        <ele>2343</ele>
        <time>2019-02-27T10:16:48Z</time>
      </trkpt>
      <trkpt lat="42.74033" lon="0.17442">
        <ele>2343</ele>
        <time>2019-02-27T10:16:49Z</time>
      </trkpt>
      <trkpt lat="42.74033" lon="0.17442">
        <ele>2344</ele>
        <time>2019-02-27T10:16:50Z</time>
      </trkpt>
      <trkpt lat="42.74033" lon="0.17442">
        <ele>2344</ele>
        <time>2019-02-27T10:16:51Z</time>
      </trkpt>
      <trkpt lat="42.74036" lon="0.17442">
        <ele>2344</ele>
        <time>2019-02-27T10:16:52Z</time>
      </trkpt>
      <trkpt lat="42.74036" lon="0.17442">
        <ele>2344</ele>
        <time>2019-02-27T10:16:53Z</time>
      </trkpt>
      <trkpt lat="42.74036" lon="0.17442">
        <ele>2344</ele>
        <time>2019-02-27T10:16:54Z</time>
      </trkpt>
      <trkpt lat="42.74037" lon="0.17443">
        <ele>2344</ele>
        <time>2019-02-27T10:16:55Z</time>
      </trkpt>
      <trkpt lat="42.74037" lon="0.17443">
        <ele>2344</ele>
        <time>2019-02-27T10:16:56Z</time>
      </trkpt>
      <trkpt lat="42.74037" lon="0.17443">
        <ele>2344</ele>
        <time>2019-02-27T10:16:57Z</time>
      </trkpt>
      <trkpt lat="42.74037" lon="0.17443">
        <ele>2344</ele>
        <time>2019-02-27T10:16:58Z</time>
      </trkpt>
      <trkpt lat="42.74037" lon="0.17443">
        <ele>2344</ele>
        <time>2019-02-27T10:16:59Z</time>
      </trkpt>
      <trkpt lat="42.74037" lon="0.17443">
        <ele>2344</ele>
        <time>2019-02-27T10:17:00Z</time>
      </trkpt>
      <trkpt lat="42.74037" lon="0.17443">
        <ele>2344</ele>
        <time>2019-02-27T10:17:01Z</time>
      </trkpt>
      <trkpt lat="42.74037" lon="0.17443">
        <ele>2344</ele>
        <time>2019-02-27T10:17:02Z</time>
      </trkpt>
      <trkpt lat="42.74037" lon="0.17443">
        <ele>2344</ele>
        <time>2019-02-27T10:17:03Z</time>
      </trkpt>
      <trkpt lat="42.74037" lon="0.17443">
        <ele>2344</ele>
        <time>2019-02-27T10:17:04Z</time>
      </trkpt>
      <trkpt lat="42.74037" lon="0.17443">
        <ele>2344</ele>
        <time>2019-02-27T10:17:05Z</time>
      </trkpt>
      <trkpt lat="42.74037" lon="0.17443">
        <ele>2344</ele>
        <time>2019-02-27T10:17:06Z</time>
      </trkpt>
      <trkpt lat="42.74037" lon="0.17443">
        <ele>2344</ele>
        <time>2019-02-27T10:17:07Z</time>
      </trkpt>
      <trkpt lat="42.74037" lon="0.17443">
        <ele>2344</ele>
        <time>2019-02-27T10:17:08Z</time>
      </trkpt>
      <trkpt lat="42.74037" lon="0.17443">
        <ele>2344</ele>
        <time>2019-02-27T10:17:09Z</time>
      </trkpt>
      <trkpt lat="42.74037" lon="0.17443">
        <ele>2344</ele>
        <time>2019-02-27T10:17:10Z</time>
      </trkpt>
      <trkpt lat="42.74037" lon="0.17443">
        <ele>2344</ele>
        <time>2019-02-27T10:17:11Z</time>
      </trkpt>
      <trkpt lat="42.74037" lon="0.17443">
        <ele>2344</ele>
        <time>2019-02-27T10:17:12Z</time>
      </trkpt>
      <trkpt lat="42.74037" lon="0.17443">
        <ele>2344</ele>
        <time>2019-02-27T10:17:13Z</time>
      </trkpt>
      <trkpt lat="42.74037" lon="0.17443">
        <ele>2344</ele>
        <time>2019-02-27T10:17:14Z</time>
      </trkpt>
      <trkpt lat="42.74037" lon="0.17443">
        <ele>2344</ele>
        <time>2019-02-27T10:17:15Z</time>
      </trkpt>
      <trkpt lat="42.74037" lon="0.17443">
        <ele>2344</ele>
        <time>2019-02-27T10:17:16Z</time>
      </trkpt>
      <trkpt lat="42.74037" lon="0.17443">
        <ele>2344</ele>
        <time>2019-02-27T10:17:17Z</time>
      </trkpt>
      <trkpt lat="42.74037" lon="0.17443">
        <ele>2344</ele>
        <time>2019-02-27T10:17:18Z</time>
      </trkpt>
      <trkpt lat="42.74034" lon="0.17445">
        <ele>2344</ele>
        <time>2019-02-27T10:17:19Z</time>
      </trkpt>
      <trkpt lat="42.74034" lon="0.17445">
        <ele>2344</ele>
        <time>2019-02-27T10:17:20Z</time>
      </trkpt>
      <trkpt lat="42.74034" lon="0.17445">
        <ele>2344</ele>
        <time>2019-02-27T10:17:21Z</time>
      </trkpt>
      <trkpt lat="42.74034" lon="0.17445">
        <ele>2345</ele>
        <time>2019-02-27T10:17:22Z</time>
      </trkpt>
      <trkpt lat="42.74034" lon="0.17445">
        <ele>2345</ele>
        <time>2019-02-27T10:17:23Z</time>
      </trkpt>
      <trkpt lat="42.74033" lon="0.17442">
        <ele>2345</ele>
        <time>2019-02-27T10:17:24Z</time>
      </trkpt>
      <trkpt lat="42.74033" lon="0.17442">
        <ele>2345</ele>
        <time>2019-02-27T10:17:25Z</time>
      </trkpt>
      <trkpt lat="42.74033" lon="0.17442">
        <ele>2345</ele>
        <time>2019-02-27T10:17:26Z</time>
      </trkpt>
      <trkpt lat="42.74033" lon="0.17442">
        <ele>2345</ele>
        <time>2019-02-27T10:17:27Z</time>
      </trkpt>
      <trkpt lat="42.74033" lon="0.17442">
        <ele>2345</ele>
        <time>2019-02-27T10:17:28Z</time>
      </trkpt>
      <trkpt lat="42.74033" lon="0.17442">
        <ele>2345</ele>
        <time>2019-02-27T10:17:29Z</time>
      </trkpt>
      <trkpt lat="42.74033" lon="0.17442">
        <ele>2345</ele>
        <time>2019-02-27T10:17:30Z</time>
      </trkpt>
      <trkpt lat="42.74033" lon="0.17442">
        <ele>2345</ele>
        <time>2019-02-27T10:17:31Z</time>
      </trkpt>
      <trkpt lat="42.74033" lon="0.17442">
        <ele>2345</ele>
        <time>2019-02-27T10:17:32Z</time>
      </trkpt>
      <trkpt lat="42.74033" lon="0.17442">
        <ele>2345</ele>
        <time>2019-02-27T10:17:33Z</time>
      </trkpt>
      <trkpt lat="42.74033" lon="0.17442">
        <ele>2346</ele>
        <time>2019-02-27T10:17:34Z</time>
      </trkpt>
      <trkpt lat="42.74033" lon="0.17442">
        <ele>2346</ele>
        <time>2019-02-27T10:17:35Z</time>
      </trkpt>
      <trkpt lat="42.74031" lon="0.1744">
        <ele>2346</ele>
        <time>2019-02-27T10:17:36Z</time>
      </trkpt>
      <trkpt lat="42.74031" lon="0.1744">
        <ele>2346</ele>
        <time>2019-02-27T10:17:37Z</time>
      </trkpt>
      <trkpt lat="42.74031" lon="0.1744">
        <ele>2346</ele>
        <time>2019-02-27T10:17:38Z</time>
      </trkpt>
      <trkpt lat="42.74031" lon="0.1744">
        <ele>2346</ele>
        <time>2019-02-27T10:17:39Z</time>
      </trkpt>
      <trkpt lat="42.74029" lon="0.17441">
        <ele>2346</ele>
        <time>2019-02-27T10:17:40Z</time>
      </trkpt>
      <trkpt lat="42.74029" lon="0.17441">
        <ele>2346</ele>
        <time>2019-02-27T10:17:41Z</time>
      </trkpt>
      <trkpt lat="42.74029" lon="0.17441">
        <ele>2346</ele>
        <time>2019-02-27T10:17:42Z</time>
      </trkpt>
      <trkpt lat="42.74029" lon="0.17441">
        <ele>2346</ele>
        <time>2019-02-27T10:17:43Z</time>
      </trkpt>
      <trkpt lat="42.74029" lon="0.17441">
        <ele>2346</ele>
        <time>2019-02-27T10:17:44Z</time>
      </trkpt>
      <trkpt lat="42.74029" lon="0.17441">
        <ele>2346</ele>
        <time>2019-02-27T10:17:45Z</time>
      </trkpt>
      <trkpt lat="42.74029" lon="0.17441">
        <ele>2346</ele>
        <time>2019-02-27T10:17:46Z</time>
      </trkpt>
      <trkpt lat="42.74029" lon="0.17441">
        <ele>2346</ele>
        <time>2019-02-27T10:17:47Z</time>
      </trkpt>
      <trkpt lat="42.74029" lon="0.17441">
        <ele>2346</ele>
        <time>2019-02-27T10:17:48Z</time>
      </trkpt>
      <trkpt lat="42.74029" lon="0.17441">
        <ele>2347</ele>
        <time>2019-02-27T10:17:49Z</time>
      </trkpt>
      <trkpt lat="42.74029" lon="0.17441">
        <ele>2347</ele>
        <time>2019-02-27T10:17:50Z</time>
      </trkpt>
      <trkpt lat="42.74029" lon="0.17441">
        <ele>2347</ele>
        <time>2019-02-27T10:17:51Z</time>
      </trkpt>
      <trkpt lat="42.74029" lon="0.17441">
        <ele>2347</ele>
        <time>2019-02-27T10:17:52Z</time>
      </trkpt>
      <trkpt lat="42.74029" lon="0.17441">
        <ele>2347</ele>
        <time>2019-02-27T10:17:53Z</time>
      </trkpt>
      <trkpt lat="42.74025" lon="0.17438">
        <ele>2348</ele>
        <time>2019-02-27T10:17:54Z</time>
      </trkpt>
      <trkpt lat="42.74025" lon="0.17438">
        <ele>2348</ele>
        <time>2019-02-27T10:17:55Z</time>
      </trkpt>
      <trkpt lat="42.74025" lon="0.17438">
        <ele>2348</ele>
        <time>2019-02-27T10:17:56Z</time>
      </trkpt>
      <trkpt lat="42.74025" lon="0.17438">
        <ele>2348</ele>
        <time>2019-02-27T10:17:57Z</time>
      </trkpt>
      <trkpt lat="42.74025" lon="0.17438">
        <ele>2348</ele>
        <time>2019-02-27T10:17:58Z</time>
      </trkpt>
      <trkpt lat="42.74025" lon="0.17438">
        <ele>2348</ele>
        <time>2019-02-27T10:17:59Z</time>
      </trkpt>
      <trkpt lat="42.74025" lon="0.17438">
        <ele>2348</ele>
        <time>2019-02-27T10:18:00Z</time>
      </trkpt>
      <trkpt lat="42.74025" lon="0.17438">
        <ele>2348</ele>
        <time>2019-02-27T10:18:01Z</time>
      </trkpt>
      <trkpt lat="42.74025" lon="0.17438">
        <ele>2348</ele>
        <time>2019-02-27T10:18:02Z</time>
      </trkpt>
      <trkpt lat="42.74025" lon="0.17438">
        <ele>2348</ele>
        <time>2019-02-27T10:18:03Z</time>
      </trkpt>
      <trkpt lat="42.74025" lon="0.17438">
        <ele>2348</ele>
        <time>2019-02-27T10:18:04Z</time>
      </trkpt>
      <trkpt lat="42.74025" lon="0.17438">
        <ele>2349</ele>
        <time>2019-02-27T10:18:05Z</time>
      </trkpt>
      <trkpt lat="42.74025" lon="0.17438">
        <ele>2349</ele>
        <time>2019-02-27T10:18:06Z</time>
      </trkpt>
      <trkpt lat="42.74025" lon="0.17438">
        <ele>2349</ele>
        <time>2019-02-27T10:18:07Z</time>
      </trkpt>
      <trkpt lat="42.74025" lon="0.17438">
        <ele>2349</ele>
        <time>2019-02-27T10:18:08Z</time>
      </trkpt>
      <trkpt lat="42.74025" lon="0.17438">
        <ele>2349</ele>
        <time>2019-02-27T10:18:09Z</time>
      </trkpt>
      <trkpt lat="42.74025" lon="0.17438">
        <ele>2349</ele>
        <time>2019-02-27T10:18:10Z</time>
      </trkpt>
      <trkpt lat="42.74025" lon="0.17438">
        <ele>2350</ele>
        <time>2019-02-27T10:18:11Z</time>
      </trkpt>
      <trkpt lat="42.74025" lon="0.17438">
        <ele>2350</ele>
        <time>2019-02-27T10:18:12Z</time>
      </trkpt>
      <trkpt lat="42.74025" lon="0.17438">
        <ele>2350</ele>
        <time>2019-02-27T10:18:13Z</time>
      </trkpt>
      <trkpt lat="42.74025" lon="0.17438">
        <ele>2349</ele>
        <time>2019-02-27T10:18:14Z</time>
      </trkpt>
      <trkpt lat="42.74025" lon="0.17438">
        <ele>2349</ele>
        <time>2019-02-27T10:18:15Z</time>
      </trkpt>
      <trkpt lat="42.74025" lon="0.17438">
        <ele>2349</ele>
        <time>2019-02-27T10:18:16Z</time>
      </trkpt>
      <trkpt lat="42.74025" lon="0.17438">
        <ele>2349</ele>
        <time>2019-02-27T10:18:17Z</time>
      </trkpt>
      <trkpt lat="42.74025" lon="0.17438">
        <ele>2349</ele>
        <time>2019-02-27T10:18:18Z</time>
      </trkpt>
      <trkpt lat="42.74016" lon="0.17438">
        <ele>2350</ele>
        <time>2019-02-27T10:18:19Z</time>
      </trkpt>
      <trkpt lat="42.74016" lon="0.17438">
        <ele>2350</ele>
        <time>2019-02-27T10:18:20Z</time>
      </trkpt>
      <trkpt lat="42.74016" lon="0.17438">
        <ele>2350</ele>
        <time>2019-02-27T10:18:21Z</time>
      </trkpt>
      <trkpt lat="42.74016" lon="0.17438">
        <ele>2350</ele>
        <time>2019-02-27T10:18:22Z</time>
      </trkpt>
      <trkpt lat="42.74016" lon="0.17438">
        <ele>2350</ele>
        <time>2019-02-27T10:18:23Z</time>
      </trkpt>
      <trkpt lat="42.74016" lon="0.17438">
        <ele>2350</ele>
        <time>2019-02-27T10:18:24Z</time>
      </trkpt>
      <trkpt lat="42.74016" lon="0.17438">
        <ele>2350</ele>
        <time>2019-02-27T10:18:25Z</time>
      </trkpt>
      <trkpt lat="42.74016" lon="0.17438">
        <ele>2351</ele>
        <time>2019-02-27T10:18:26Z</time>
      </trkpt>
      <trkpt lat="42.74016" lon="0.17438">
        <ele>2351</ele>
        <time>2019-02-27T10:18:27Z</time>
      </trkpt>
      <trkpt lat="42.74016" lon="0.17438">
        <ele>2351</ele>
        <time>2019-02-27T10:18:28Z</time>
      </trkpt>
      <trkpt lat="42.74016" lon="0.17438">
        <ele>2351</ele>
        <time>2019-02-27T10:18:29Z</time>
      </trkpt>
      <trkpt lat="42.74016" lon="0.17438">
        <ele>2351</ele>
        <time>2019-02-27T10:18:30Z</time>
      </trkpt>
      <trkpt lat="42.74016" lon="0.17438">
        <ele>2351</ele>
        <time>2019-02-27T10:18:31Z</time>
      </trkpt>
      <trkpt lat="42.74016" lon="0.17438">
        <ele>2351</ele>
        <time>2019-02-27T10:18:32Z</time>
      </trkpt>
      <trkpt lat="42.74016" lon="0.17438">
        <ele>2351</ele>
        <time>2019-02-27T10:18:33Z</time>
      </trkpt>
      <trkpt lat="42.74016" lon="0.17438">
        <ele>2351</ele>
        <time>2019-02-27T10:18:34Z</time>
      </trkpt>
      <trkpt lat="42.74016" lon="0.17438">
        <ele>2352</ele>
        <time>2019-02-27T10:18:35Z</time>
      </trkpt>
      <trkpt lat="42.74016" lon="0.17438">
        <ele>2352</ele>
        <time>2019-02-27T10:18:36Z</time>
      </trkpt>
      <trkpt lat="42.74016" lon="0.17438">
        <ele>2352</ele>
        <time>2019-02-27T10:18:37Z</time>
      </trkpt>
      <trkpt lat="42.74016" lon="0.17438">
        <ele>2352</ele>
        <time>2019-02-27T10:18:38Z</time>
      </trkpt>
      <trkpt lat="42.74016" lon="0.17438">
        <ele>2352</ele>
        <time>2019-02-27T10:18:39Z</time>
      </trkpt>
      <trkpt lat="42.74016" lon="0.17438">
        <ele>2352</ele>
        <time>2019-02-27T10:18:40Z</time>
      </trkpt>
      <trkpt lat="42.74016" lon="0.17438">
        <ele>2352</ele>
        <time>2019-02-27T10:18:41Z</time>
      </trkpt>
      <trkpt lat="42.74016" lon="0.17438">
        <ele>2352</ele>
        <time>2019-02-27T10:18:42Z</time>
      </trkpt>
      <trkpt lat="42.74016" lon="0.17438">
        <ele>2352</ele>
        <time>2019-02-27T10:18:43Z</time>
      </trkpt>
      <trkpt lat="42.74016" lon="0.17438">
        <ele>2352</ele>
        <time>2019-02-27T10:18:44Z</time>
      </trkpt>
      <trkpt lat="42.74016" lon="0.17438">
        <ele>2352</ele>
        <time>2019-02-27T10:18:45Z</time>
      </trkpt>
      <trkpt lat="42.74016" lon="0.17438">
        <ele>2352</ele>
        <time>2019-02-27T10:18:46Z</time>
      </trkpt>
      <trkpt lat="42.74016" lon="0.17438">
        <ele>2353</ele>
        <time>2019-02-27T10:18:47Z</time>
      </trkpt>
      <trkpt lat="42.74016" lon="0.17438">
        <ele>2353</ele>
        <time>2019-02-27T10:18:48Z</time>
      </trkpt>
      <trkpt lat="42.74006" lon="0.17438">
        <ele>2354</ele>
        <time>2019-02-27T10:18:49Z</time>
      </trkpt>
      <trkpt lat="42.74006" lon="0.17438">
        <ele>2354</ele>
        <time>2019-02-27T10:18:50Z</time>
      </trkpt>
      <trkpt lat="42.74006" lon="0.17438">
        <ele>2354</ele>
        <time>2019-02-27T10:18:51Z</time>
      </trkpt>
      <trkpt lat="42.74006" lon="0.17438">
        <ele>2354</ele>
        <time>2019-02-27T10:18:52Z</time>
      </trkpt>
      <trkpt lat="42.74006" lon="0.17438">
        <ele>2354</ele>
        <time>2019-02-27T10:18:53Z</time>
      </trkpt>
      <trkpt lat="42.74006" lon="0.17438">
        <ele>2354</ele>
        <time>2019-02-27T10:18:54Z</time>
      </trkpt>
      <trkpt lat="42.74006" lon="0.17438">
        <ele>2354</ele>
        <time>2019-02-27T10:18:55Z</time>
      </trkpt>
      <trkpt lat="42.74006" lon="0.17438">
        <ele>2354</ele>
        <time>2019-02-27T10:18:56Z</time>
      </trkpt>
      <trkpt lat="42.74006" lon="0.17438">
        <ele>2354</ele>
        <time>2019-02-27T10:18:57Z</time>
      </trkpt>
      <trkpt lat="42.74006" lon="0.17438">
        <ele>2354</ele>
        <time>2019-02-27T10:18:58Z</time>
      </trkpt>
      <trkpt lat="42.74006" lon="0.17438">
        <ele>2354</ele>
        <time>2019-02-27T10:18:59Z</time>
      </trkpt>
      <trkpt lat="42.74006" lon="0.17438">
        <ele>2354</ele>
        <time>2019-02-27T10:19:00Z</time>
      </trkpt>
      <trkpt lat="42.74006" lon="0.17438">
        <ele>2354</ele>
        <time>2019-02-27T10:19:01Z</time>
      </trkpt>
      <trkpt lat="42.74006" lon="0.17438">
        <ele>2354</ele>
        <time>2019-02-27T10:19:02Z</time>
      </trkpt>
      <trkpt lat="42.74006" lon="0.17438">
        <ele>2354</ele>
        <time>2019-02-27T10:19:03Z</time>
      </trkpt>
      <trkpt lat="42.74006" lon="0.17438">
        <ele>2354</ele>
        <time>2019-02-27T10:19:04Z</time>
      </trkpt>
      <trkpt lat="42.74006" lon="0.17438">
        <ele>2354</ele>
        <time>2019-02-27T10:19:05Z</time>
      </trkpt>
      <trkpt lat="42.74006" lon="0.17438">
        <ele>2354</ele>
        <time>2019-02-27T10:19:06Z</time>
      </trkpt>
      <trkpt lat="42.74006" lon="0.17438">
        <ele>2354</ele>
        <time>2019-02-27T10:19:07Z</time>
      </trkpt>
      <trkpt lat="42.74006" lon="0.17438">
        <ele>2354</ele>
        <time>2019-02-27T10:19:08Z</time>
      </trkpt>
      <trkpt lat="42.74006" lon="0.17438">
        <ele>2354</ele>
        <time>2019-02-27T10:19:09Z</time>
      </trkpt>
      <trkpt lat="42.74006" lon="0.17438">
        <ele>2354</ele>
        <time>2019-02-27T10:19:10Z</time>
      </trkpt>
      <trkpt lat="42.74006" lon="0.17438">
        <ele>2354</ele>
        <time>2019-02-27T10:19:11Z</time>
      </trkpt>
      <trkpt lat="42.74006" lon="0.17438">
        <ele>2354</ele>
        <time>2019-02-27T10:19:12Z</time>
      </trkpt>
      <trkpt lat="42.74006" lon="0.17438">
        <ele>2354</ele>
        <time>2019-02-27T10:19:13Z</time>
      </trkpt>
      <trkpt lat="42.74006" lon="0.17438">
        <ele>2354</ele>
        <time>2019-02-27T10:19:14Z</time>
      </trkpt>
      <trkpt lat="42.74006" lon="0.17438">
        <ele>2354</ele>
        <time>2019-02-27T10:19:15Z</time>
      </trkpt>
      <trkpt lat="42.74006" lon="0.17438">
        <ele>2354</ele>
        <time>2019-02-27T10:19:16Z</time>
      </trkpt>
      <trkpt lat="42.74006" lon="0.17438">
        <ele>2354</ele>
        <time>2019-02-27T10:19:17Z</time>
      </trkpt>
      <trkpt lat="42.74006" lon="0.17438">
        <ele>2354</ele>
        <time>2019-02-27T10:19:18Z</time>
      </trkpt>
      <trkpt lat="42.74006" lon="0.17438">
        <ele>2354</ele>
        <time>2019-02-27T10:19:19Z</time>
      </trkpt>
      <trkpt lat="42.74006" lon="0.17438">
        <ele>2354</ele>
        <time>2019-02-27T10:19:20Z</time>
      </trkpt>
      <trkpt lat="42.74006" lon="0.17438">
        <ele>2354</ele>
        <time>2019-02-27T10:19:21Z</time>
      </trkpt>
      <trkpt lat="42.74006" lon="0.17438">
        <ele>2354</ele>
        <time>2019-02-27T10:19:22Z</time>
      </trkpt>
      <trkpt lat="42.74006" lon="0.17438">
        <ele>2354</ele>
        <time>2019-02-27T10:19:23Z</time>
      </trkpt>
      <trkpt lat="42.74006" lon="0.17438">
        <ele>2354</ele>
        <time>2019-02-27T10:19:24Z</time>
      </trkpt>
      <trkpt lat="42.74006" lon="0.17438">
        <ele>2354</ele>
        <time>2019-02-27T10:19:25Z</time>
      </trkpt>
      <trkpt lat="42.74006" lon="0.17438">
        <ele>2354</ele>
        <time>2019-02-27T10:19:26Z</time>
      </trkpt>
      <trkpt lat="42.74006" lon="0.17438">
        <ele>2354</ele>
        <time>2019-02-27T10:19:27Z</time>
      </trkpt>
      <trkpt lat="42.74006" lon="0.17438">
        <ele>2354</ele>
        <time>2019-02-27T10:19:28Z</time>
      </trkpt>
      <trkpt lat="42.74006" lon="0.17438">
        <ele>2354</ele>
        <time>2019-02-27T10:19:29Z</time>
      </trkpt>
      <trkpt lat="42.74006" lon="0.17438">
        <ele>2354</ele>
        <time>2019-02-27T10:19:30Z</time>
      </trkpt>
      <trkpt lat="42.74006" lon="0.17438">
        <ele>2355</ele>
        <time>2019-02-27T10:19:31Z</time>
      </trkpt>
      <trkpt lat="42.74006" lon="0.17438">
        <ele>2355</ele>
        <time>2019-02-27T10:19:32Z</time>
      </trkpt>
      <trkpt lat="42.74006" lon="0.17438">
        <ele>2355</ele>
        <time>2019-02-27T10:19:33Z</time>
      </trkpt>
      <trkpt lat="42.73998" lon="0.17443">
        <ele>2355</ele>
        <time>2019-02-27T10:19:34Z</time>
      </trkpt>
      <trkpt lat="42.73998" lon="0.17443">
        <ele>2355</ele>
        <time>2019-02-27T10:19:35Z</time>
      </trkpt>
      <trkpt lat="42.73998" lon="0.17443">
        <ele>2355</ele>
        <time>2019-02-27T10:19:36Z</time>
      </trkpt>
      <trkpt lat="42.73998" lon="0.17443">
        <ele>2355</ele>
        <time>2019-02-27T10:19:37Z</time>
      </trkpt>
      <trkpt lat="42.73998" lon="0.17443">
        <ele>2355</ele>
        <time>2019-02-27T10:19:38Z</time>
      </trkpt>
      <trkpt lat="42.73998" lon="0.17443">
        <ele>2355</ele>
        <time>2019-02-27T10:19:39Z</time>
      </trkpt>
      <trkpt lat="42.73998" lon="0.17443">
        <ele>2355</ele>
        <time>2019-02-27T10:19:40Z</time>
      </trkpt>
      <trkpt lat="42.73998" lon="0.17443">
        <ele>2355</ele>
        <time>2019-02-27T10:19:41Z</time>
      </trkpt>
      <trkpt lat="42.73998" lon="0.17443">
        <ele>2355</ele>
        <time>2019-02-27T10:19:42Z</time>
      </trkpt>
      <trkpt lat="42.73998" lon="0.17443">
        <ele>2355</ele>
        <time>2019-02-27T10:19:43Z</time>
      </trkpt>
      <trkpt lat="42.73998" lon="0.17443">
        <ele>2355</ele>
        <time>2019-02-27T10:19:44Z</time>
      </trkpt>
      <trkpt lat="42.73998" lon="0.17443">
        <ele>2355</ele>
        <time>2019-02-27T10:19:45Z</time>
      </trkpt>
      <trkpt lat="42.73998" lon="0.17443">
        <ele>2355</ele>
        <time>2019-02-27T10:19:46Z</time>
      </trkpt>
      <trkpt lat="42.73998" lon="0.17443">
        <ele>2355</ele>
        <time>2019-02-27T10:19:47Z</time>
      </trkpt>
      <trkpt lat="42.73998" lon="0.17443">
        <ele>2355</ele>
        <time>2019-02-27T10:19:48Z</time>
      </trkpt>
      <trkpt lat="42.73998" lon="0.17443">
        <ele>2355</ele>
        <time>2019-02-27T10:19:49Z</time>
      </trkpt>
      <trkpt lat="42.73998" lon="0.17443">
        <ele>2355</ele>
        <time>2019-02-27T10:19:50Z</time>
      </trkpt>
      <trkpt lat="42.73998" lon="0.17443">
        <ele>2355</ele>
        <time>2019-02-27T10:19:51Z</time>
      </trkpt>
      <trkpt lat="42.73998" lon="0.17443">
        <ele>2355</ele>
        <time>2019-02-27T10:19:52Z</time>
      </trkpt>
      <trkpt lat="42.73998" lon="0.17443">
        <ele>2355</ele>
        <time>2019-02-27T10:19:53Z</time>
      </trkpt>
      <trkpt lat="42.73998" lon="0.17443">
        <ele>2355</ele>
        <time>2019-02-27T10:19:54Z</time>
      </trkpt>
      <trkpt lat="42.73998" lon="0.17443">
        <ele>2355</ele>
        <time>2019-02-27T10:19:55Z</time>
      </trkpt>
      <trkpt lat="42.73998" lon="0.17443">
        <ele>2355</ele>
        <time>2019-02-27T10:19:56Z</time>
      </trkpt>
      <trkpt lat="42.73998" lon="0.17443">
        <ele>2356</ele>
        <time>2019-02-27T10:19:57Z</time>
      </trkpt>
      <trkpt lat="42.73998" lon="0.17443">
        <ele>2356</ele>
        <time>2019-02-27T10:19:58Z</time>
      </trkpt>
      <trkpt lat="42.73998" lon="0.17443">
        <ele>2356</ele>
        <time>2019-02-27T10:19:59Z</time>
      </trkpt>
      <trkpt lat="42.73998" lon="0.17443">
        <ele>2357</ele>
        <time>2019-02-27T10:20:00Z</time>
      </trkpt>
      <trkpt lat="42.73998" lon="0.17443">
        <ele>2357</ele>
        <time>2019-02-27T10:20:01Z</time>
      </trkpt>
      <trkpt lat="42.73998" lon="0.17443">
        <ele>2357</ele>
        <time>2019-02-27T10:20:02Z</time>
      </trkpt>
      <trkpt lat="42.73998" lon="0.17443">
        <ele>2357</ele>
        <time>2019-02-27T10:20:03Z</time>
      </trkpt>
      <trkpt lat="42.73998" lon="0.17443">
        <ele>2357</ele>
        <time>2019-02-27T10:20:04Z</time>
      </trkpt>
      <trkpt lat="42.73998" lon="0.17443">
        <ele>2357</ele>
        <time>2019-02-27T10:20:05Z</time>
      </trkpt>
      <trkpt lat="42.73998" lon="0.17443">
        <ele>2357</ele>
        <time>2019-02-27T10:20:06Z</time>
      </trkpt>
      <trkpt lat="42.73998" lon="0.17443">
        <ele>2357</ele>
        <time>2019-02-27T10:20:07Z</time>
      </trkpt>
      <trkpt lat="42.73998" lon="0.17443">
        <ele>2357</ele>
        <time>2019-02-27T10:20:08Z</time>
      </trkpt>
      <trkpt lat="42.73998" lon="0.17443">
        <ele>2357</ele>
        <time>2019-02-27T10:20:09Z</time>
      </trkpt>
      <trkpt lat="42.73998" lon="0.17443">
        <ele>2357</ele>
        <time>2019-02-27T10:20:10Z</time>
      </trkpt>
      <trkpt lat="42.73998" lon="0.17443">
        <ele>2358</ele>
        <time>2019-02-27T10:20:11Z</time>
      </trkpt>
      <trkpt lat="42.73998" lon="0.17443">
        <ele>2358</ele>
        <time>2019-02-27T10:20:12Z</time>
      </trkpt>
      <trkpt lat="42.73998" lon="0.17443">
        <ele>2358</ele>
        <time>2019-02-27T10:20:13Z</time>
      </trkpt>
      <trkpt lat="42.73998" lon="0.17443">
        <ele>2358</ele>
        <time>2019-02-27T10:20:14Z</time>
      </trkpt>
      <trkpt lat="42.73998" lon="0.17443">
        <ele>2358</ele>
        <time>2019-02-27T10:20:15Z</time>
      </trkpt>
      <trkpt lat="42.73998" lon="0.17443">
        <ele>2358</ele>
        <time>2019-02-27T10:20:16Z</time>
      </trkpt>
      <trkpt lat="42.73998" lon="0.17443">
        <ele>2358</ele>
        <time>2019-02-27T10:20:17Z</time>
      </trkpt>
      <trkpt lat="42.73998" lon="0.17443">
        <ele>2358</ele>
        <time>2019-02-27T10:20:18Z</time>
      </trkpt>
      <trkpt lat="42.73998" lon="0.17443">
        <ele>2358</ele>
        <time>2019-02-27T10:20:19Z</time>
      </trkpt>
      <trkpt lat="42.73998" lon="0.17443">
        <ele>2358</ele>
        <time>2019-02-27T10:20:20Z</time>
      </trkpt>
      <trkpt lat="42.73998" lon="0.17443">
        <ele>2358</ele>
        <time>2019-02-27T10:20:21Z</time>
      </trkpt>
      <trkpt lat="42.73998" lon="0.17443">
        <ele>2358</ele>
        <time>2019-02-27T10:20:22Z</time>
      </trkpt>
      <trkpt lat="42.73998" lon="0.17443">
        <ele>2358</ele>
        <time>2019-02-27T10:20:23Z</time>
      </trkpt>
      <trkpt lat="42.73998" lon="0.17443">
        <ele>2358</ele>
        <time>2019-02-27T10:20:24Z</time>
      </trkpt>
      <trkpt lat="42.73998" lon="0.17443">
        <ele>2358</ele>
        <time>2019-02-27T10:20:25Z</time>
      </trkpt>
      <trkpt lat="42.73998" lon="0.17443">
        <ele>2358</ele>
        <time>2019-02-27T10:20:26Z</time>
      </trkpt>
      <trkpt lat="42.73998" lon="0.17443">
        <ele>2358</ele>
        <time>2019-02-27T10:20:27Z</time>
      </trkpt>
      <trkpt lat="42.73998" lon="0.17443">
        <ele>2358</ele>
        <time>2019-02-27T10:20:28Z</time>
      </trkpt>
      <trkpt lat="42.73998" lon="0.17443">
        <ele>2359</ele>
        <time>2019-02-27T10:20:29Z</time>
      </trkpt>
      <trkpt lat="42.73998" lon="0.17443">
        <ele>2359</ele>
        <time>2019-02-27T10:20:30Z</time>
      </trkpt>
      <trkpt lat="42.73998" lon="0.17443">
        <ele>2359</ele>
        <time>2019-02-27T10:20:31Z</time>
      </trkpt>
      <trkpt lat="42.73998" lon="0.17443">
        <ele>2359</ele>
        <time>2019-02-27T10:20:32Z</time>
      </trkpt>
      <trkpt lat="42.73998" lon="0.17443">
        <ele>2359</ele>
        <time>2019-02-27T10:20:33Z</time>
      </trkpt>
      <trkpt lat="42.73998" lon="0.17443">
        <ele>2359</ele>
        <time>2019-02-27T10:20:34Z</time>
      </trkpt>
      <trkpt lat="42.73998" lon="0.17443">
        <ele>2359</ele>
        <time>2019-02-27T10:20:35Z</time>
      </trkpt>
      <trkpt lat="42.73998" lon="0.17443">
        <ele>2359</ele>
        <time>2019-02-27T10:20:36Z</time>
      </trkpt>
      <trkpt lat="42.73998" lon="0.17443">
        <ele>2359</ele>
        <time>2019-02-27T10:20:37Z</time>
      </trkpt>
      <trkpt lat="42.73998" lon="0.17443">
        <ele>2359</ele>
        <time>2019-02-27T10:20:38Z</time>
      </trkpt>
      <trkpt lat="42.73998" lon="0.17443">
        <ele>2359</ele>
        <time>2019-02-27T10:20:39Z</time>
      </trkpt>
      <trkpt lat="42.73998" lon="0.17443">
        <ele>2359</ele>
        <time>2019-02-27T10:20:40Z</time>
      </trkpt>
      <trkpt lat="42.73998" lon="0.17443">
        <ele>2359</ele>
        <time>2019-02-27T10:20:41Z</time>
      </trkpt>
      <trkpt lat="42.73998" lon="0.17443">
        <ele>2360</ele>
        <time>2019-02-27T10:20:42Z</time>
      </trkpt>
      <trkpt lat="42.73999" lon="0.17431">
        <ele>2360</ele>
        <time>2019-02-27T10:20:43Z</time>
      </trkpt>
      <trkpt lat="42.73999" lon="0.17431">
        <ele>2360</ele>
        <time>2019-02-27T10:20:44Z</time>
      </trkpt>
      <trkpt lat="42.73999" lon="0.17431">
        <ele>2360</ele>
        <time>2019-02-27T10:20:45Z</time>
      </trkpt>
      <trkpt lat="42.73999" lon="0.17431">
        <ele>2360</ele>
        <time>2019-02-27T10:20:46Z</time>
      </trkpt>
      <trkpt lat="42.73999" lon="0.17431">
        <ele>2360</ele>
        <time>2019-02-27T10:20:47Z</time>
      </trkpt>
      <trkpt lat="42.73999" lon="0.17431">
        <ele>2360</ele>
        <time>2019-02-27T10:20:48Z</time>
      </trkpt>
      <trkpt lat="42.73999" lon="0.17431">
        <ele>2360</ele>
        <time>2019-02-27T10:20:49Z</time>
      </trkpt>
      <trkpt lat="42.73999" lon="0.17431">
        <ele>2360</ele>
        <time>2019-02-27T10:20:50Z</time>
      </trkpt>
      <trkpt lat="42.73999" lon="0.17431">
        <ele>2360</ele>
        <time>2019-02-27T10:20:51Z</time>
      </trkpt>
      <trkpt lat="42.73999" lon="0.17431">
        <ele>2360</ele>
        <time>2019-02-27T10:20:52Z</time>
      </trkpt>
      <trkpt lat="42.73999" lon="0.17431">
        <ele>2360</ele>
        <time>2019-02-27T10:20:53Z</time>
      </trkpt>
      <trkpt lat="42.73999" lon="0.17431">
        <ele>2360</ele>
        <time>2019-02-27T10:20:54Z</time>
      </trkpt>
      <trkpt lat="42.73999" lon="0.17431">
        <ele>2361</ele>
        <time>2019-02-27T10:20:55Z</time>
      </trkpt>
      <trkpt lat="42.73999" lon="0.17431">
        <ele>2361</ele>
        <time>2019-02-27T10:20:56Z</time>
      </trkpt>
      <trkpt lat="42.73999" lon="0.17431">
        <ele>2361</ele>
        <time>2019-02-27T10:20:57Z</time>
      </trkpt>
      <trkpt lat="42.73999" lon="0.17431">
        <ele>2361</ele>
        <time>2019-02-27T10:20:58Z</time>
      </trkpt>
      <trkpt lat="42.73999" lon="0.17431">
        <ele>2361</ele>
        <time>2019-02-27T10:20:59Z</time>
      </trkpt>
      <trkpt lat="42.73999" lon="0.17431">
        <ele>2361</ele>
        <time>2019-02-27T10:21:00Z</time>
      </trkpt>
      <trkpt lat="42.73999" lon="0.17431">
        <ele>2361</ele>
        <time>2019-02-27T10:21:01Z</time>
      </trkpt>
      <trkpt lat="42.73999" lon="0.17431">
        <ele>2362</ele>
        <time>2019-02-27T10:21:02Z</time>
      </trkpt>
      <trkpt lat="42.74006" lon="0.17423">
        <ele>2362</ele>
        <time>2019-02-27T10:21:03Z</time>
      </trkpt>
      <trkpt lat="42.74006" lon="0.17423">
        <ele>2362</ele>
        <time>2019-02-27T10:21:04Z</time>
      </trkpt>
      <trkpt lat="42.74006" lon="0.17423">
        <ele>2362</ele>
        <time>2019-02-27T10:21:05Z</time>
      </trkpt>
      <trkpt lat="42.74006" lon="0.17423">
        <ele>2362</ele>
        <time>2019-02-27T10:21:06Z</time>
      </trkpt>
      <trkpt lat="42.74006" lon="0.17423">
        <ele>2362</ele>
        <time>2019-02-27T10:21:07Z</time>
      </trkpt>
      <trkpt lat="42.74006" lon="0.17423">
        <ele>2362</ele>
        <time>2019-02-27T10:21:08Z</time>
      </trkpt>
      <trkpt lat="42.74006" lon="0.17423">
        <ele>2362</ele>
        <time>2019-02-27T10:21:09Z</time>
      </trkpt>
      <trkpt lat="42.74006" lon="0.17423">
        <ele>2362</ele>
        <time>2019-02-27T10:21:10Z</time>
      </trkpt>
      <trkpt lat="42.74006" lon="0.17423">
        <ele>2362</ele>
        <time>2019-02-27T10:21:11Z</time>
      </trkpt>
      <trkpt lat="42.74006" lon="0.17423">
        <ele>2363</ele>
        <time>2019-02-27T10:21:12Z</time>
      </trkpt>
      <trkpt lat="42.74006" lon="0.17423">
        <ele>2363</ele>
        <time>2019-02-27T10:21:13Z</time>
      </trkpt>
      <trkpt lat="42.74006" lon="0.17423">
        <ele>2363</ele>
        <time>2019-02-27T10:21:14Z</time>
      </trkpt>
      <trkpt lat="42.74006" lon="0.17423">
        <ele>2363</ele>
        <time>2019-02-27T10:21:15Z</time>
      </trkpt>
      <trkpt lat="42.74006" lon="0.17423">
        <ele>2363</ele>
        <time>2019-02-27T10:21:16Z</time>
      </trkpt>
      <trkpt lat="42.74006" lon="0.17423">
        <ele>2363</ele>
        <time>2019-02-27T10:21:17Z</time>
      </trkpt>
      <trkpt lat="42.74006" lon="0.17423">
        <ele>2363</ele>
        <time>2019-02-27T10:21:18Z</time>
      </trkpt>
      <trkpt lat="42.74006" lon="0.17423">
        <ele>2365</ele>
        <time>2019-02-27T10:21:19Z</time>
      </trkpt>
      <trkpt lat="42.74006" lon="0.17423">
        <ele>2365</ele>
        <time>2019-02-27T10:21:20Z</time>
      </trkpt>
      <trkpt lat="42.74006" lon="0.17423">
        <ele>2365</ele>
        <time>2019-02-27T10:21:21Z</time>
      </trkpt>
      <trkpt lat="42.74006" lon="0.17423">
        <ele>2365</ele>
        <time>2019-02-27T10:21:22Z</time>
      </trkpt>
      <trkpt lat="42.74014" lon="0.17416">
        <ele>2365</ele>
        <time>2019-02-27T10:21:23Z</time>
      </trkpt>
      <trkpt lat="42.74014" lon="0.17416">
        <ele>2365</ele>
        <time>2019-02-27T10:21:24Z</time>
      </trkpt>
      <trkpt lat="42.74014" lon="0.17416">
        <ele>2365</ele>
        <time>2019-02-27T10:21:25Z</time>
      </trkpt>
      <trkpt lat="42.74014" lon="0.17416">
        <ele>2365</ele>
        <time>2019-02-27T10:21:26Z</time>
      </trkpt>
      <trkpt lat="42.74014" lon="0.17416">
        <ele>2366</ele>
        <time>2019-02-27T10:21:27Z</time>
      </trkpt>
      <trkpt lat="42.74014" lon="0.17416">
        <ele>2366</ele>
        <time>2019-02-27T10:21:28Z</time>
      </trkpt>
      <trkpt lat="42.74014" lon="0.17416">
        <ele>2366</ele>
        <time>2019-02-27T10:21:29Z</time>
      </trkpt>
      <trkpt lat="42.74014" lon="0.17416">
        <ele>2366</ele>
        <time>2019-02-27T10:21:30Z</time>
      </trkpt>
      <trkpt lat="42.74014" lon="0.17416">
        <ele>2366</ele>
        <time>2019-02-27T10:21:31Z</time>
      </trkpt>
      <trkpt lat="42.74014" lon="0.17416">
        <ele>2366</ele>
        <time>2019-02-27T10:21:32Z</time>
      </trkpt>
      <trkpt lat="42.74014" lon="0.17416">
        <ele>2366</ele>
        <time>2019-02-27T10:21:33Z</time>
      </trkpt>
      <trkpt lat="42.74014" lon="0.17416">
        <ele>2366</ele>
        <time>2019-02-27T10:21:34Z</time>
      </trkpt>
      <trkpt lat="42.74014" lon="0.17416">
        <ele>2366</ele>
        <time>2019-02-27T10:21:35Z</time>
      </trkpt>
      <trkpt lat="42.74014" lon="0.17416">
        <ele>2366</ele>
        <time>2019-02-27T10:21:36Z</time>
      </trkpt>
      <trkpt lat="42.74014" lon="0.17416">
        <ele>2366</ele>
        <time>2019-02-27T10:21:37Z</time>
      </trkpt>
      <trkpt lat="42.74014" lon="0.17416">
        <ele>2366</ele>
        <time>2019-02-27T10:21:38Z</time>
      </trkpt>
      <trkpt lat="42.74014" lon="0.17416">
        <ele>2366</ele>
        <time>2019-02-27T10:21:39Z</time>
      </trkpt>
      <trkpt lat="42.74014" lon="0.17416">
        <ele>2366</ele>
        <time>2019-02-27T10:21:40Z</time>
      </trkpt>
      <trkpt lat="42.74014" lon="0.17416">
        <ele>2366</ele>
        <time>2019-02-27T10:21:41Z</time>
      </trkpt>
      <trkpt lat="42.74014" lon="0.17416">
        <ele>2366</ele>
        <time>2019-02-27T10:21:42Z</time>
      </trkpt>
      <trkpt lat="42.74014" lon="0.17416">
        <ele>2366</ele>
        <time>2019-02-27T10:21:43Z</time>
      </trkpt>
      <trkpt lat="42.74014" lon="0.17416">
        <ele>2366</ele>
        <time>2019-02-27T10:21:44Z</time>
      </trkpt>
      <trkpt lat="42.74014" lon="0.17416">
        <ele>2366</ele>
        <time>2019-02-27T10:21:45Z</time>
      </trkpt>
      <trkpt lat="42.74014" lon="0.17416">
        <ele>2366</ele>
        <time>2019-02-27T10:21:46Z</time>
      </trkpt>
      <trkpt lat="42.74014" lon="0.17416">
        <ele>2366</ele>
        <time>2019-02-27T10:21:47Z</time>
      </trkpt>
      <trkpt lat="42.74014" lon="0.17416">
        <ele>2366</ele>
        <time>2019-02-27T10:21:48Z</time>
      </trkpt>
      <trkpt lat="42.74014" lon="0.17416">
        <ele>2366</ele>
        <time>2019-02-27T10:21:49Z</time>
      </trkpt>
      <trkpt lat="42.74014" lon="0.17416">
        <ele>2366</ele>
        <time>2019-02-27T10:21:50Z</time>
      </trkpt>
      <trkpt lat="42.74014" lon="0.17416">
        <ele>2366</ele>
        <time>2019-02-27T10:21:51Z</time>
      </trkpt>
      <trkpt lat="42.74014" lon="0.17416">
        <ele>2366</ele>
        <time>2019-02-27T10:21:52Z</time>
      </trkpt>
      <trkpt lat="42.74014" lon="0.17416">
        <ele>2366</ele>
        <time>2019-02-27T10:21:53Z</time>
      </trkpt>
      <trkpt lat="42.74014" lon="0.17416">
        <ele>2366</ele>
        <time>2019-02-27T10:21:54Z</time>
      </trkpt>
      <trkpt lat="42.74014" lon="0.17416">
        <ele>2366</ele>
        <time>2019-02-27T10:21:55Z</time>
      </trkpt>
      <trkpt lat="42.74014" lon="0.17416">
        <ele>2366</ele>
        <time>2019-02-27T10:21:56Z</time>
      </trkpt>
      <trkpt lat="42.74014" lon="0.17416">
        <ele>2366</ele>
        <time>2019-02-27T10:21:57Z</time>
      </trkpt>
      <trkpt lat="42.74014" lon="0.17416">
        <ele>2366</ele>
        <time>2019-02-27T10:21:58Z</time>
      </trkpt>
      <trkpt lat="42.74014" lon="0.17416">
        <ele>2366</ele>
        <time>2019-02-27T10:21:59Z</time>
      </trkpt>
      <trkpt lat="42.74014" lon="0.17416">
        <ele>2366</ele>
        <time>2019-02-27T10:22:00Z</time>
      </trkpt>
      <trkpt lat="42.74014" lon="0.17416">
        <ele>2366</ele>
        <time>2019-02-27T10:22:01Z</time>
      </trkpt>
      <trkpt lat="42.74014" lon="0.17416">
        <ele>2366</ele>
        <time>2019-02-27T10:22:02Z</time>
      </trkpt>
      <trkpt lat="42.74014" lon="0.17416">
        <ele>2366</ele>
        <time>2019-02-27T10:22:03Z</time>
      </trkpt>
      <trkpt lat="42.74014" lon="0.17416">
        <ele>2366</ele>
        <time>2019-02-27T10:22:04Z</time>
      </trkpt>
      <trkpt lat="42.74014" lon="0.17416">
        <ele>2366</ele>
        <time>2019-02-27T10:22:05Z</time>
      </trkpt>
      <trkpt lat="42.74014" lon="0.17416">
        <ele>2367</ele>
        <time>2019-02-27T10:22:06Z</time>
      </trkpt>
      <trkpt lat="42.74014" lon="0.17416">
        <ele>2367</ele>
        <time>2019-02-27T10:22:07Z</time>
      </trkpt>
      <trkpt lat="42.74014" lon="0.17416">
        <ele>2367</ele>
        <time>2019-02-27T10:22:08Z</time>
      </trkpt>
      <trkpt lat="42.74014" lon="0.17416">
        <ele>2367</ele>
        <time>2019-02-27T10:22:09Z</time>
      </trkpt>
      <trkpt lat="42.74014" lon="0.17416">
        <ele>2367</ele>
        <time>2019-02-27T10:22:10Z</time>
      </trkpt>
      <trkpt lat="42.74014" lon="0.17416">
        <ele>2367</ele>
        <time>2019-02-27T10:22:11Z</time>
      </trkpt>
      <trkpt lat="42.74014" lon="0.17416">
        <ele>2367</ele>
        <time>2019-02-27T10:22:12Z</time>
      </trkpt>
      <trkpt lat="42.74014" lon="0.17416">
        <ele>2367</ele>
        <time>2019-02-27T10:22:13Z</time>
      </trkpt>
      <trkpt lat="42.74014" lon="0.17416">
        <ele>2367</ele>
        <time>2019-02-27T10:22:14Z</time>
      </trkpt>
      <trkpt lat="42.74014" lon="0.17416">
        <ele>2368</ele>
        <time>2019-02-27T10:22:15Z</time>
      </trkpt>
      <trkpt lat="42.74014" lon="0.17416">
        <ele>2368</ele>
        <time>2019-02-27T10:22:16Z</time>
      </trkpt>
      <trkpt lat="42.74014" lon="0.17416">
        <ele>2368</ele>
        <time>2019-02-27T10:22:17Z</time>
      </trkpt>
      <trkpt lat="42.74014" lon="0.17416">
        <ele>2368</ele>
        <time>2019-02-27T10:22:18Z</time>
      </trkpt>
      <trkpt lat="42.74014" lon="0.17416">
        <ele>2368</ele>
        <time>2019-02-27T10:22:19Z</time>
      </trkpt>
      <trkpt lat="42.74014" lon="0.17416">
        <ele>2368</ele>
        <time>2019-02-27T10:22:20Z</time>
      </trkpt>
      <trkpt lat="42.74005" lon="0.17411">
        <ele>2368</ele>
        <time>2019-02-27T10:22:21Z</time>
      </trkpt>
      <trkpt lat="42.74005" lon="0.17411">
        <ele>2368</ele>
        <time>2019-02-27T10:22:22Z</time>
      </trkpt>
      <trkpt lat="42.74005" lon="0.17411">
        <ele>2369</ele>
        <time>2019-02-27T10:22:23Z</time>
      </trkpt>
      <trkpt lat="42.74005" lon="0.17411">
        <ele>2369</ele>
        <time>2019-02-27T10:22:24Z</time>
      </trkpt>
      <trkpt lat="42.74005" lon="0.17411">
        <ele>2369</ele>
        <time>2019-02-27T10:22:25Z</time>
      </trkpt>
      <trkpt lat="42.74005" lon="0.17411">
        <ele>2370</ele>
        <time>2019-02-27T10:22:26Z</time>
      </trkpt>
      <trkpt lat="42.74005" lon="0.17411">
        <ele>2370</ele>
        <time>2019-02-27T10:22:27Z</time>
      </trkpt>
      <trkpt lat="42.74005" lon="0.17411">
        <ele>2370</ele>
        <time>2019-02-27T10:22:28Z</time>
      </trkpt>
      <trkpt lat="42.74005" lon="0.17411">
        <ele>2370</ele>
        <time>2019-02-27T10:22:29Z</time>
      </trkpt>
      <trkpt lat="42.73996" lon="0.17411">
        <ele>2370</ele>
        <time>2019-02-27T10:22:30Z</time>
      </trkpt>
      <trkpt lat="42.73996" lon="0.17411">
        <ele>2370</ele>
        <time>2019-02-27T10:22:31Z</time>
      </trkpt>
      <trkpt lat="42.73996" lon="0.17411">
        <ele>2370</ele>
        <time>2019-02-27T10:22:32Z</time>
      </trkpt>
      <trkpt lat="42.73996" lon="0.17411">
        <ele>2370</ele>
        <time>2019-02-27T10:22:33Z</time>
      </trkpt>
      <trkpt lat="42.73996" lon="0.17411">
        <ele>2370</ele>
        <time>2019-02-27T10:22:34Z</time>
      </trkpt>
      <trkpt lat="42.73996" lon="0.17411">
        <ele>2370</ele>
        <time>2019-02-27T10:22:35Z</time>
      </trkpt>
      <trkpt lat="42.73996" lon="0.17411">
        <ele>2370</ele>
        <time>2019-02-27T10:22:36Z</time>
      </trkpt>
      <trkpt lat="42.73991" lon="0.1741">
        <ele>2370</ele>
        <time>2019-02-27T10:22:37Z</time>
      </trkpt>
      <trkpt lat="42.73991" lon="0.1741">
        <ele>2370</ele>
        <time>2019-02-27T10:22:38Z</time>
      </trkpt>
      <trkpt lat="42.73991" lon="0.1741">
        <ele>2370</ele>
        <time>2019-02-27T10:22:39Z</time>
      </trkpt>
      <trkpt lat="42.73991" lon="0.1741">
        <ele>2371</ele>
        <time>2019-02-27T10:22:40Z</time>
      </trkpt>
      <trkpt lat="42.73991" lon="0.1741">
        <ele>2371</ele>
        <time>2019-02-27T10:22:41Z</time>
      </trkpt>
      <trkpt lat="42.73991" lon="0.1741">
        <ele>2371</ele>
        <time>2019-02-27T10:22:42Z</time>
      </trkpt>
      <trkpt lat="42.73991" lon="0.1741">
        <ele>2371</ele>
        <time>2019-02-27T10:22:43Z</time>
      </trkpt>
      <trkpt lat="42.73991" lon="0.1741">
        <ele>2371</ele>
        <time>2019-02-27T10:22:44Z</time>
      </trkpt>
      <trkpt lat="42.73991" lon="0.1741">
        <ele>2371</ele>
        <time>2019-02-27T10:22:45Z</time>
      </trkpt>
      <trkpt lat="42.73991" lon="0.1741">
        <ele>2371</ele>
        <time>2019-02-27T10:22:46Z</time>
      </trkpt>
      <trkpt lat="42.73991" lon="0.1741">
        <ele>2371</ele>
        <time>2019-02-27T10:22:47Z</time>
      </trkpt>
      <trkpt lat="42.73991" lon="0.1741">
        <ele>2371</ele>
        <time>2019-02-27T10:22:48Z</time>
      </trkpt>
      <trkpt lat="42.73991" lon="0.1741">
        <ele>2371</ele>
        <time>2019-02-27T10:22:49Z</time>
      </trkpt>
      <trkpt lat="42.73991" lon="0.1741">
        <ele>2371</ele>
        <time>2019-02-27T10:22:50Z</time>
      </trkpt>
      <trkpt lat="42.73982" lon="0.1741">
        <ele>2371</ele>
        <time>2019-02-27T10:22:51Z</time>
      </trkpt>
      <trkpt lat="42.73982" lon="0.1741">
        <ele>2372</ele>
        <time>2019-02-27T10:22:52Z</time>
      </trkpt>
      <trkpt lat="42.73982" lon="0.1741">
        <ele>2372</ele>
        <time>2019-02-27T10:22:53Z</time>
      </trkpt>
      <trkpt lat="42.73982" lon="0.1741">
        <ele>2372</ele>
        <time>2019-02-27T10:22:54Z</time>
      </trkpt>
      <trkpt lat="42.73982" lon="0.1741">
        <ele>2372</ele>
        <time>2019-02-27T10:22:55Z</time>
      </trkpt>
      <trkpt lat="42.73982" lon="0.1741">
        <ele>2372</ele>
        <time>2019-02-27T10:22:56Z</time>
      </trkpt>
      <trkpt lat="42.73982" lon="0.1741">
        <ele>2372</ele>
        <time>2019-02-27T10:22:57Z</time>
      </trkpt>
      <trkpt lat="42.73982" lon="0.1741">
        <ele>2372</ele>
        <time>2019-02-27T10:22:58Z</time>
      </trkpt>
      <trkpt lat="42.73982" lon="0.1741">
        <ele>2372</ele>
        <time>2019-02-27T10:22:59Z</time>
      </trkpt>
      <trkpt lat="42.73982" lon="0.1741">
        <ele>2372</ele>
        <time>2019-02-27T10:23:00Z</time>
      </trkpt>
      <trkpt lat="42.73982" lon="0.1741">
        <ele>2372</ele>
        <time>2019-02-27T10:23:01Z</time>
      </trkpt>
      <trkpt lat="42.73982" lon="0.1741">
        <ele>2372</ele>
        <time>2019-02-27T10:23:02Z</time>
      </trkpt>
      <trkpt lat="42.73982" lon="0.1741">
        <ele>2372</ele>
        <time>2019-02-27T10:23:03Z</time>
      </trkpt>
      <trkpt lat="42.73973" lon="0.17408">
        <ele>2372</ele>
        <time>2019-02-27T10:23:04Z</time>
      </trkpt>
      <trkpt lat="42.73973" lon="0.17408">
        <ele>2373</ele>
        <time>2019-02-27T10:23:05Z</time>
      </trkpt>
      <trkpt lat="42.73973" lon="0.17408">
        <ele>2373</ele>
        <time>2019-02-27T10:23:06Z</time>
      </trkpt>
      <trkpt lat="42.73973" lon="0.17408">
        <ele>2373</ele>
        <time>2019-02-27T10:23:07Z</time>
      </trkpt>
      <trkpt lat="42.73973" lon="0.17408">
        <ele>2373</ele>
        <time>2019-02-27T10:23:08Z</time>
      </trkpt>
      <trkpt lat="42.73973" lon="0.17408">
        <ele>2373</ele>
        <time>2019-02-27T10:23:09Z</time>
      </trkpt>
      <trkpt lat="42.73973" lon="0.17408">
        <ele>2373</ele>
        <time>2019-02-27T10:23:10Z</time>
      </trkpt>
      <trkpt lat="42.73973" lon="0.17408">
        <ele>2373</ele>
        <time>2019-02-27T10:23:11Z</time>
      </trkpt>
      <trkpt lat="42.73973" lon="0.17408">
        <ele>2373</ele>
        <time>2019-02-27T10:23:12Z</time>
      </trkpt>
      <trkpt lat="42.73973" lon="0.17408">
        <ele>2373</ele>
        <time>2019-02-27T10:23:13Z</time>
      </trkpt>
      <trkpt lat="42.73973" lon="0.17408">
        <ele>2374</ele>
        <time>2019-02-27T10:23:14Z</time>
      </trkpt>
      <trkpt lat="42.73973" lon="0.17408">
        <ele>2374</ele>
        <time>2019-02-27T10:23:15Z</time>
      </trkpt>
      <trkpt lat="42.73973" lon="0.17408">
        <ele>2374</ele>
        <time>2019-02-27T10:23:16Z</time>
      </trkpt>
      <trkpt lat="42.73973" lon="0.17408">
        <ele>2374</ele>
        <time>2019-02-27T10:23:17Z</time>
      </trkpt>
      <trkpt lat="42.73973" lon="0.17408">
        <ele>2374</ele>
        <time>2019-02-27T10:23:18Z</time>
      </trkpt>
      <trkpt lat="42.73973" lon="0.17408">
        <ele>2374</ele>
        <time>2019-02-27T10:23:19Z</time>
      </trkpt>
      <trkpt lat="42.73964" lon="0.17407">
        <ele>2374</ele>
        <time>2019-02-27T10:23:20Z</time>
      </trkpt>
      <trkpt lat="42.73964" lon="0.17407">
        <ele>2374</ele>
        <time>2019-02-27T10:23:21Z</time>
      </trkpt>
      <trkpt lat="42.73964" lon="0.17407">
        <ele>2374</ele>
        <time>2019-02-27T10:23:22Z</time>
      </trkpt>
      <trkpt lat="42.73964" lon="0.17407">
        <ele>2374</ele>
        <time>2019-02-27T10:23:23Z</time>
      </trkpt>
      <trkpt lat="42.73964" lon="0.17407">
        <ele>2374</ele>
        <time>2019-02-27T10:23:24Z</time>
      </trkpt>
      <trkpt lat="42.73964" lon="0.17407">
        <ele>2374</ele>
        <time>2019-02-27T10:23:25Z</time>
      </trkpt>
      <trkpt lat="42.73964" lon="0.17407">
        <ele>2375</ele>
        <time>2019-02-27T10:23:26Z</time>
      </trkpt>
      <trkpt lat="42.73964" lon="0.17407">
        <ele>2375</ele>
        <time>2019-02-27T10:23:27Z</time>
      </trkpt>
      <trkpt lat="42.73964" lon="0.17407">
        <ele>2375</ele>
        <time>2019-02-27T10:23:28Z</time>
      </trkpt>
      <trkpt lat="42.73964" lon="0.17407">
        <ele>2376</ele>
        <time>2019-02-27T10:23:29Z</time>
      </trkpt>
      <trkpt lat="42.73964" lon="0.17407">
        <ele>2376</ele>
        <time>2019-02-27T10:23:30Z</time>
      </trkpt>
      <trkpt lat="42.73964" lon="0.17407">
        <ele>2376</ele>
        <time>2019-02-27T10:23:31Z</time>
      </trkpt>
      <trkpt lat="42.73964" lon="0.17407">
        <ele>2376</ele>
        <time>2019-02-27T10:23:32Z</time>
      </trkpt>
      <trkpt lat="42.73964" lon="0.17407">
        <ele>2376</ele>
        <time>2019-02-27T10:23:33Z</time>
      </trkpt>
      <trkpt lat="42.73964" lon="0.17407">
        <ele>2376</ele>
        <time>2019-02-27T10:23:34Z</time>
      </trkpt>
      <trkpt lat="42.73964" lon="0.17407">
        <ele>2377</ele>
        <time>2019-02-27T10:23:35Z</time>
      </trkpt>
      <trkpt lat="42.73964" lon="0.17407">
        <ele>2377</ele>
        <time>2019-02-27T10:23:36Z</time>
      </trkpt>
      <trkpt lat="42.73964" lon="0.17407">
        <ele>2377</ele>
        <time>2019-02-27T10:23:37Z</time>
      </trkpt>
      <trkpt lat="42.73955" lon="0.1741">
        <ele>2377</ele>
        <time>2019-02-27T10:23:38Z</time>
      </trkpt>
      <trkpt lat="42.73955" lon="0.1741">
        <ele>2377</ele>
        <time>2019-02-27T10:23:39Z</time>
      </trkpt>
      <trkpt lat="42.73955" lon="0.1741">
        <ele>2377</ele>
        <time>2019-02-27T10:23:40Z</time>
      </trkpt>
      <trkpt lat="42.73955" lon="0.1741">
        <ele>2377</ele>
        <time>2019-02-27T10:23:41Z</time>
      </trkpt>
      <trkpt lat="42.73955" lon="0.1741">
        <ele>2377</ele>
        <time>2019-02-27T10:23:42Z</time>
      </trkpt>
      <trkpt lat="42.73955" lon="0.1741">
        <ele>2377</ele>
        <time>2019-02-27T10:23:43Z</time>
      </trkpt>
      <trkpt lat="42.73955" lon="0.1741">
        <ele>2377</ele>
        <time>2019-02-27T10:23:44Z</time>
      </trkpt>
      <trkpt lat="42.73955" lon="0.1741">
        <ele>2377</ele>
        <time>2019-02-27T10:23:45Z</time>
      </trkpt>
      <trkpt lat="42.73955" lon="0.1741">
        <ele>2377</ele>
        <time>2019-02-27T10:23:46Z</time>
      </trkpt>
      <trkpt lat="42.73955" lon="0.1741">
        <ele>2377</ele>
        <time>2019-02-27T10:23:47Z</time>
      </trkpt>
      <trkpt lat="42.73955" lon="0.1741">
        <ele>2377</ele>
        <time>2019-02-27T10:23:48Z</time>
      </trkpt>
      <trkpt lat="42.73955" lon="0.1741">
        <ele>2378</ele>
        <time>2019-02-27T10:23:49Z</time>
      </trkpt>
      <trkpt lat="42.73955" lon="0.1741">
        <ele>2378</ele>
        <time>2019-02-27T10:23:50Z</time>
      </trkpt>
      <trkpt lat="42.73955" lon="0.1741">
        <ele>2378</ele>
        <time>2019-02-27T10:23:51Z</time>
      </trkpt>
      <trkpt lat="42.73955" lon="0.1741">
        <ele>2378</ele>
        <time>2019-02-27T10:23:52Z</time>
      </trkpt>
      <trkpt lat="42.73955" lon="0.1741">
        <ele>2378</ele>
        <time>2019-02-27T10:23:53Z</time>
      </trkpt>
      <trkpt lat="42.73955" lon="0.1741">
        <ele>2379</ele>
        <time>2019-02-27T10:23:54Z</time>
      </trkpt>
      <trkpt lat="42.73955" lon="0.1741">
        <ele>2379</ele>
        <time>2019-02-27T10:23:55Z</time>
      </trkpt>
      <trkpt lat="42.73955" lon="0.1741">
        <ele>2379</ele>
        <time>2019-02-27T10:23:56Z</time>
      </trkpt>
      <trkpt lat="42.73955" lon="0.1741">
        <ele>2379</ele>
        <time>2019-02-27T10:23:57Z</time>
      </trkpt>
      <trkpt lat="42.73945" lon="0.1741">
        <ele>2379</ele>
        <time>2019-02-27T10:23:58Z</time>
      </trkpt>
      <trkpt lat="42.73945" lon="0.1741">
        <ele>2379</ele>
        <time>2019-02-27T10:23:59Z</time>
      </trkpt>
      <trkpt lat="42.73945" lon="0.1741">
        <ele>2379</ele>
        <time>2019-02-27T10:24:00Z</time>
      </trkpt>
      <trkpt lat="42.73945" lon="0.1741">
        <ele>2380</ele>
        <time>2019-02-27T10:24:01Z</time>
      </trkpt>
      <trkpt lat="42.73945" lon="0.1741">
        <ele>2380</ele>
        <time>2019-02-27T10:24:02Z</time>
      </trkpt>
      <trkpt lat="42.73945" lon="0.1741">
        <ele>2380</ele>
        <time>2019-02-27T10:24:03Z</time>
      </trkpt>
      <trkpt lat="42.73945" lon="0.1741">
        <ele>2381</ele>
        <time>2019-02-27T10:24:04Z</time>
      </trkpt>
      <trkpt lat="42.73945" lon="0.1741">
        <ele>2381</ele>
        <time>2019-02-27T10:24:05Z</time>
      </trkpt>
      <trkpt lat="42.73945" lon="0.1741">
        <ele>2381</ele>
        <time>2019-02-27T10:24:06Z</time>
      </trkpt>
      <trkpt lat="42.73945" lon="0.1741">
        <ele>2381</ele>
        <time>2019-02-27T10:24:07Z</time>
      </trkpt>
      <trkpt lat="42.73945" lon="0.1741">
        <ele>2381</ele>
        <time>2019-02-27T10:24:08Z</time>
      </trkpt>
      <trkpt lat="42.73945" lon="0.1741">
        <ele>2381</ele>
        <time>2019-02-27T10:24:09Z</time>
      </trkpt>
      <trkpt lat="42.7394" lon="0.17409">
        <ele>2381</ele>
        <time>2019-02-27T10:24:10Z</time>
      </trkpt>
      <trkpt lat="42.7394" lon="0.17409">
        <ele>2381</ele>
        <time>2019-02-27T10:24:11Z</time>
      </trkpt>
      <trkpt lat="42.7394" lon="0.17409">
        <ele>2381</ele>
        <time>2019-02-27T10:24:12Z</time>
      </trkpt>
      <trkpt lat="42.7394" lon="0.17409">
        <ele>2381</ele>
        <time>2019-02-27T10:24:13Z</time>
      </trkpt>
      <trkpt lat="42.7394" lon="0.17409">
        <ele>2381</ele>
        <time>2019-02-27T10:24:14Z</time>
      </trkpt>
      <trkpt lat="42.7394" lon="0.17409">
        <ele>2381</ele>
        <time>2019-02-27T10:24:15Z</time>
      </trkpt>
      <trkpt lat="42.7394" lon="0.17409">
        <ele>2381</ele>
        <time>2019-02-27T10:24:16Z</time>
      </trkpt>
      <trkpt lat="42.7394" lon="0.17409">
        <ele>2381</ele>
        <time>2019-02-27T10:24:17Z</time>
      </trkpt>
      <trkpt lat="42.73938" lon="0.17407">
        <ele>2381</ele>
        <time>2019-02-27T10:24:18Z</time>
      </trkpt>
      <trkpt lat="42.73938" lon="0.17407">
        <ele>2381</ele>
        <time>2019-02-27T10:24:19Z</time>
      </trkpt>
      <trkpt lat="42.73938" lon="0.17407">
        <ele>2382</ele>
        <time>2019-02-27T10:24:20Z</time>
      </trkpt>
      <trkpt lat="42.73938" lon="0.17407">
        <ele>2382</ele>
        <time>2019-02-27T10:24:21Z</time>
      </trkpt>
      <trkpt lat="42.73938" lon="0.17407">
        <ele>2382</ele>
        <time>2019-02-27T10:24:22Z</time>
      </trkpt>
      <trkpt lat="42.73937" lon="0.17404">
        <ele>2382</ele>
        <time>2019-02-27T10:24:23Z</time>
      </trkpt>
      <trkpt lat="42.73937" lon="0.17404">
        <ele>2383</ele>
        <time>2019-02-27T10:24:24Z</time>
      </trkpt>
      <trkpt lat="42.73937" lon="0.17404">
        <ele>2383</ele>
        <time>2019-02-27T10:24:25Z</time>
      </trkpt>
      <trkpt lat="42.73937" lon="0.17404">
        <ele>2383</ele>
        <time>2019-02-27T10:24:26Z</time>
      </trkpt>
      <trkpt lat="42.73937" lon="0.17404">
        <ele>2383</ele>
        <time>2019-02-27T10:24:27Z</time>
      </trkpt>
      <trkpt lat="42.73937" lon="0.17404">
        <ele>2383</ele>
        <time>2019-02-27T10:24:28Z</time>
      </trkpt>
      <trkpt lat="42.73937" lon="0.17404">
        <ele>2383</ele>
        <time>2019-02-27T10:24:29Z</time>
      </trkpt>
      <trkpt lat="42.73937" lon="0.17404">
        <ele>2383</ele>
        <time>2019-02-27T10:24:30Z</time>
      </trkpt>
      <trkpt lat="42.73937" lon="0.17404">
        <ele>2383</ele>
        <time>2019-02-27T10:24:31Z</time>
      </trkpt>
      <trkpt lat="42.73937" lon="0.17404">
        <ele>2384</ele>
        <time>2019-02-27T10:24:32Z</time>
      </trkpt>
      <trkpt lat="42.73937" lon="0.17404">
        <ele>2384</ele>
        <time>2019-02-27T10:24:33Z</time>
      </trkpt>
      <trkpt lat="42.73937" lon="0.17404">
        <ele>2384</ele>
        <time>2019-02-27T10:24:34Z</time>
      </trkpt>
      <trkpt lat="42.73937" lon="0.17404">
        <ele>2384</ele>
        <time>2019-02-27T10:24:35Z</time>
      </trkpt>
      <trkpt lat="42.73937" lon="0.17404">
        <ele>2384</ele>
        <time>2019-02-27T10:24:36Z</time>
      </trkpt>
      <trkpt lat="42.73937" lon="0.17404">
        <ele>2384</ele>
        <time>2019-02-27T10:24:37Z</time>
      </trkpt>
      <trkpt lat="42.73937" lon="0.17404">
        <ele>2384</ele>
        <time>2019-02-27T10:24:38Z</time>
      </trkpt>
      <trkpt lat="42.73937" lon="0.17404">
        <ele>2384</ele>
        <time>2019-02-27T10:24:39Z</time>
      </trkpt>
      <trkpt lat="42.73937" lon="0.17404">
        <ele>2384</ele>
        <time>2019-02-27T10:24:40Z</time>
      </trkpt>
      <trkpt lat="42.73937" lon="0.17404">
        <ele>2384</ele>
        <time>2019-02-27T10:24:41Z</time>
      </trkpt>
      <trkpt lat="42.73937" lon="0.17404">
        <ele>2384</ele>
        <time>2019-02-27T10:24:42Z</time>
      </trkpt>
      <trkpt lat="42.73937" lon="0.17404">
        <ele>2385</ele>
        <time>2019-02-27T10:24:43Z</time>
      </trkpt>
      <trkpt lat="42.73937" lon="0.17404">
        <ele>2385</ele>
        <time>2019-02-27T10:24:44Z</time>
      </trkpt>
      <trkpt lat="42.73932" lon="0.17398">
        <ele>2385</ele>
        <time>2019-02-27T10:24:45Z</time>
      </trkpt>
      <trkpt lat="42.73932" lon="0.17398">
        <ele>2385</ele>
        <time>2019-02-27T10:24:46Z</time>
      </trkpt>
      <trkpt lat="42.73932" lon="0.17398">
        <ele>2385</ele>
        <time>2019-02-27T10:24:47Z</time>
      </trkpt>
      <trkpt lat="42.73932" lon="0.17398">
        <ele>2385</ele>
        <time>2019-02-27T10:24:48Z</time>
      </trkpt>
      <trkpt lat="42.73929" lon="0.17397">
        <ele>2385</ele>
        <time>2019-02-27T10:24:49Z</time>
      </trkpt>
      <trkpt lat="42.73929" lon="0.17397">
        <ele>2385</ele>
        <time>2019-02-27T10:24:50Z</time>
      </trkpt>
      <trkpt lat="42.73929" lon="0.17397">
        <ele>2385</ele>
        <time>2019-02-27T10:24:51Z</time>
      </trkpt>
      <trkpt lat="42.73929" lon="0.17397">
        <ele>2386</ele>
        <time>2019-02-27T10:24:52Z</time>
      </trkpt>
      <trkpt lat="42.73928" lon="0.17395">
        <ele>2386</ele>
        <time>2019-02-27T10:24:53Z</time>
      </trkpt>
      <trkpt lat="42.73928" lon="0.17395">
        <ele>2386</ele>
        <time>2019-02-27T10:24:54Z</time>
      </trkpt>
      <trkpt lat="42.73928" lon="0.17395">
        <ele>2386</ele>
        <time>2019-02-27T10:24:55Z</time>
      </trkpt>
      <trkpt lat="42.73928" lon="0.17395">
        <ele>2386</ele>
        <time>2019-02-27T10:24:56Z</time>
      </trkpt>
      <trkpt lat="42.73928" lon="0.17395">
        <ele>2386</ele>
        <time>2019-02-27T10:24:57Z</time>
      </trkpt>
      <trkpt lat="42.73928" lon="0.17395">
        <ele>2386</ele>
        <time>2019-02-27T10:24:58Z</time>
      </trkpt>
      <trkpt lat="42.73928" lon="0.17395">
        <ele>2386</ele>
        <time>2019-02-27T10:24:59Z</time>
      </trkpt>
      <trkpt lat="42.73928" lon="0.17395">
        <ele>2386</ele>
        <time>2019-02-27T10:25:00Z</time>
      </trkpt>
      <trkpt lat="42.73928" lon="0.17395">
        <ele>2386</ele>
        <time>2019-02-27T10:25:01Z</time>
      </trkpt>
      <trkpt lat="42.73928" lon="0.17395">
        <ele>2387</ele>
        <time>2019-02-27T10:25:02Z</time>
      </trkpt>
      <trkpt lat="42.73928" lon="0.17395">
        <ele>2387</ele>
        <time>2019-02-27T10:25:03Z</time>
      </trkpt>
      <trkpt lat="42.73928" lon="0.17395">
        <ele>2387</ele>
        <time>2019-02-27T10:25:04Z</time>
      </trkpt>
      <trkpt lat="42.73928" lon="0.17395">
        <ele>2387</ele>
        <time>2019-02-27T10:25:05Z</time>
      </trkpt>
      <trkpt lat="42.73928" lon="0.17395">
        <ele>2387</ele>
        <time>2019-02-27T10:25:06Z</time>
      </trkpt>
      <trkpt lat="42.73928" lon="0.17395">
        <ele>2387</ele>
        <time>2019-02-27T10:25:07Z</time>
      </trkpt>
      <trkpt lat="42.73921" lon="0.17397">
        <ele>2387</ele>
        <time>2019-02-27T10:25:08Z</time>
      </trkpt>
      <trkpt lat="42.73921" lon="0.17397">
        <ele>2387</ele>
        <time>2019-02-27T10:25:09Z</time>
      </trkpt>
      <trkpt lat="42.73921" lon="0.17397">
        <ele>2387</ele>
        <time>2019-02-27T10:25:10Z</time>
      </trkpt>
      <trkpt lat="42.73921" lon="0.17397">
        <ele>2387</ele>
        <time>2019-02-27T10:25:11Z</time>
      </trkpt>
      <trkpt lat="42.73921" lon="0.17397">
        <ele>2387</ele>
        <time>2019-02-27T10:25:12Z</time>
      </trkpt>
      <trkpt lat="42.73919" lon="0.17396">
        <ele>2387</ele>
        <time>2019-02-27T10:25:13Z</time>
      </trkpt>
      <trkpt lat="42.73919" lon="0.17396">
        <ele>2387</ele>
        <time>2019-02-27T10:25:14Z</time>
      </trkpt>
      <trkpt lat="42.73919" lon="0.17396">
        <ele>2387</ele>
        <time>2019-02-27T10:25:15Z</time>
      </trkpt>
      <trkpt lat="42.73919" lon="0.17396">
        <ele>2387</ele>
        <time>2019-02-27T10:25:16Z</time>
      </trkpt>
      <trkpt lat="42.73919" lon="0.17396">
        <ele>2388</ele>
        <time>2019-02-27T10:25:17Z</time>
      </trkpt>
      <trkpt lat="42.73919" lon="0.17396">
        <ele>2388</ele>
        <time>2019-02-27T10:25:18Z</time>
      </trkpt>
      <trkpt lat="42.73919" lon="0.17396">
        <ele>2388</ele>
        <time>2019-02-27T10:25:19Z</time>
      </trkpt>
      <trkpt lat="42.73919" lon="0.17396">
        <ele>2388</ele>
        <time>2019-02-27T10:25:20Z</time>
      </trkpt>
      <trkpt lat="42.73919" lon="0.17396">
        <ele>2388</ele>
        <time>2019-02-27T10:25:21Z</time>
      </trkpt>
      <trkpt lat="42.73919" lon="0.17396">
        <ele>2388</ele>
        <time>2019-02-27T10:25:22Z</time>
      </trkpt>
      <trkpt lat="42.73919" lon="0.17396">
        <ele>2388</ele>
        <time>2019-02-27T10:25:23Z</time>
      </trkpt>
      <trkpt lat="42.73919" lon="0.17396">
        <ele>2388</ele>
        <time>2019-02-27T10:25:24Z</time>
      </trkpt>
      <trkpt lat="42.73919" lon="0.17396">
        <ele>2388</ele>
        <time>2019-02-27T10:25:25Z</time>
      </trkpt>
      <trkpt lat="42.73919" lon="0.17396">
        <ele>2388</ele>
        <time>2019-02-27T10:25:26Z</time>
      </trkpt>
      <trkpt lat="42.73919" lon="0.17396">
        <ele>2388</ele>
        <time>2019-02-27T10:25:27Z</time>
      </trkpt>
      <trkpt lat="42.73919" lon="0.17396">
        <ele>2388</ele>
        <time>2019-02-27T10:25:28Z</time>
      </trkpt>
      <trkpt lat="42.73919" lon="0.17396">
        <ele>2388</ele>
        <time>2019-02-27T10:25:29Z</time>
      </trkpt>
      <trkpt lat="42.73919" lon="0.17396">
        <ele>2388</ele>
        <time>2019-02-27T10:25:30Z</time>
      </trkpt>
      <trkpt lat="42.73919" lon="0.17396">
        <ele>2388</ele>
        <time>2019-02-27T10:25:31Z</time>
      </trkpt>
      <trkpt lat="42.73919" lon="0.17396">
        <ele>2388</ele>
        <time>2019-02-27T10:25:32Z</time>
      </trkpt>
      <trkpt lat="42.73919" lon="0.17396">
        <ele>2388</ele>
        <time>2019-02-27T10:25:33Z</time>
      </trkpt>
      <trkpt lat="42.73919" lon="0.17396">
        <ele>2388</ele>
        <time>2019-02-27T10:25:34Z</time>
      </trkpt>
      <trkpt lat="42.73919" lon="0.17396">
        <ele>2388</ele>
        <time>2019-02-27T10:25:35Z</time>
      </trkpt>
      <trkpt lat="42.73919" lon="0.17396">
        <ele>2388</ele>
        <time>2019-02-27T10:25:36Z</time>
      </trkpt>
      <trkpt lat="42.73919" lon="0.17396">
        <ele>2388</ele>
        <time>2019-02-27T10:25:37Z</time>
      </trkpt>
      <trkpt lat="42.73919" lon="0.17396">
        <ele>2388</ele>
        <time>2019-02-27T10:25:38Z</time>
      </trkpt>
      <trkpt lat="42.73919" lon="0.17396">
        <ele>2388</ele>
        <time>2019-02-27T10:25:39Z</time>
      </trkpt>
      <trkpt lat="42.73919" lon="0.17396">
        <ele>2388</ele>
        <time>2019-02-27T10:25:40Z</time>
      </trkpt>
      <trkpt lat="42.73917" lon="0.17396">
        <ele>2388</ele>
        <time>2019-02-27T10:25:41Z</time>
      </trkpt>
      <trkpt lat="42.73917" lon="0.17396">
        <ele>2388</ele>
        <time>2019-02-27T10:25:42Z</time>
      </trkpt>
      <trkpt lat="42.73917" lon="0.17396">
        <ele>2388</ele>
        <time>2019-02-27T10:25:43Z</time>
      </trkpt>
      <trkpt lat="42.73917" lon="0.17396">
        <ele>2388</ele>
        <time>2019-02-27T10:25:44Z</time>
      </trkpt>
      <trkpt lat="42.73917" lon="0.17396">
        <ele>2388</ele>
        <time>2019-02-27T10:25:45Z</time>
      </trkpt>
      <trkpt lat="42.73917" lon="0.17396">
        <ele>2388</ele>
        <time>2019-02-27T10:25:46Z</time>
      </trkpt>
      <trkpt lat="42.73917" lon="0.17396">
        <ele>2388</ele>
        <time>2019-02-27T10:25:47Z</time>
      </trkpt>
      <trkpt lat="42.73917" lon="0.17396">
        <ele>2388</ele>
        <time>2019-02-27T10:25:48Z</time>
      </trkpt>
      <trkpt lat="42.73917" lon="0.17396">
        <ele>2387</ele>
        <time>2019-02-27T10:25:49Z</time>
      </trkpt>
      <trkpt lat="42.73917" lon="0.17396">
        <ele>2387</ele>
        <time>2019-02-27T10:25:50Z</time>
      </trkpt>
      <trkpt lat="42.73917" lon="0.17396">
        <ele>2387</ele>
        <time>2019-02-27T10:25:51Z</time>
      </trkpt>
      <trkpt lat="42.73917" lon="0.17396">
        <ele>2389</ele>
        <time>2019-02-27T10:25:52Z</time>
      </trkpt>
      <trkpt lat="42.73917" lon="0.17396">
        <ele>2389</ele>
        <time>2019-02-27T10:25:53Z</time>
      </trkpt>
      <trkpt lat="42.73917" lon="0.17396">
        <ele>2389</ele>
        <time>2019-02-27T10:25:54Z</time>
      </trkpt>
      <trkpt lat="42.73917" lon="0.17396">
        <ele>2389</ele>
        <time>2019-02-27T10:25:55Z</time>
      </trkpt>
      <trkpt lat="42.73917" lon="0.17396">
        <ele>2389</ele>
        <time>2019-02-27T10:25:56Z</time>
      </trkpt>
      <trkpt lat="42.73917" lon="0.17396">
        <ele>2389</ele>
        <time>2019-02-27T10:25:57Z</time>
      </trkpt>
      <trkpt lat="42.73917" lon="0.17396">
        <ele>2389</ele>
        <time>2019-02-27T10:25:58Z</time>
      </trkpt>
      <trkpt lat="42.73917" lon="0.17396">
        <ele>2389</ele>
        <time>2019-02-27T10:25:59Z</time>
      </trkpt>
      <trkpt lat="42.73917" lon="0.17396">
        <ele>2388</ele>
        <time>2019-02-27T10:26:00Z</time>
      </trkpt>
      <trkpt lat="42.73917" lon="0.17396">
        <ele>2388</ele>
        <time>2019-02-27T10:26:01Z</time>
      </trkpt>
      <trkpt lat="42.73917" lon="0.17396">
        <ele>2389</ele>
        <time>2019-02-27T10:26:02Z</time>
      </trkpt>
      <trkpt lat="42.73917" lon="0.17393">
        <ele>2390</ele>
        <time>2019-02-27T10:26:03Z</time>
      </trkpt>
      <trkpt lat="42.73917" lon="0.17393">
        <ele>2390</ele>
        <time>2019-02-27T10:26:04Z</time>
      </trkpt>
      <trkpt lat="42.73917" lon="0.17393">
        <ele>2390</ele>
        <time>2019-02-27T10:26:05Z</time>
      </trkpt>
      <trkpt lat="42.73917" lon="0.17393">
        <ele>2390</ele>
        <time>2019-02-27T10:26:06Z</time>
      </trkpt>
      <trkpt lat="42.73917" lon="0.17393">
        <ele>2390</ele>
        <time>2019-02-27T10:26:07Z</time>
      </trkpt>
      <trkpt lat="42.73917" lon="0.17393">
        <ele>2390</ele>
        <time>2019-02-27T10:26:08Z</time>
      </trkpt>
      <trkpt lat="42.73917" lon="0.17393">
        <ele>2389</ele>
        <time>2019-02-27T10:26:09Z</time>
      </trkpt>
      <trkpt lat="42.73917" lon="0.17393">
        <ele>2389</ele>
        <time>2019-02-27T10:26:10Z</time>
      </trkpt>
      <trkpt lat="42.73917" lon="0.17393">
        <ele>2389</ele>
        <time>2019-02-27T10:26:11Z</time>
      </trkpt>
      <trkpt lat="42.73917" lon="0.17393">
        <ele>2389</ele>
        <time>2019-02-27T10:26:12Z</time>
      </trkpt>
      <trkpt lat="42.73917" lon="0.17393">
        <ele>2390</ele>
        <time>2019-02-27T10:26:13Z</time>
      </trkpt>
      <trkpt lat="42.73917" lon="0.1739">
        <ele>2390</ele>
        <time>2019-02-27T10:26:14Z</time>
      </trkpt>
      <trkpt lat="42.73917" lon="0.1739">
        <ele>2390</ele>
        <time>2019-02-27T10:26:15Z</time>
      </trkpt>
      <trkpt lat="42.73917" lon="0.1739">
        <ele>2390</ele>
        <time>2019-02-27T10:26:16Z</time>
      </trkpt>
      <trkpt lat="42.73917" lon="0.1739">
        <ele>2390</ele>
        <time>2019-02-27T10:26:17Z</time>
      </trkpt>
      <trkpt lat="42.73917" lon="0.1739">
        <ele>2390</ele>
        <time>2019-02-27T10:26:18Z</time>
      </trkpt>
      <trkpt lat="42.73917" lon="0.1739">
        <ele>2390</ele>
        <time>2019-02-27T10:26:19Z</time>
      </trkpt>
      <trkpt lat="42.73917" lon="0.1739">
        <ele>2390</ele>
        <time>2019-02-27T10:26:20Z</time>
      </trkpt>
      <trkpt lat="42.73917" lon="0.1739">
        <ele>2390</ele>
        <time>2019-02-27T10:26:21Z</time>
      </trkpt>
      <trkpt lat="42.73917" lon="0.1739">
        <ele>2390</ele>
        <time>2019-02-27T10:26:22Z</time>
      </trkpt>
      <trkpt lat="42.73918" lon="0.17387">
        <ele>2390</ele>
        <time>2019-02-27T10:26:23Z</time>
      </trkpt>
      <trkpt lat="42.73918" lon="0.17387">
        <ele>2390</ele>
        <time>2019-02-27T10:26:24Z</time>
      </trkpt>
      <trkpt lat="42.73918" lon="0.17387">
        <ele>2390</ele>
        <time>2019-02-27T10:26:25Z</time>
      </trkpt>
      <trkpt lat="42.73918" lon="0.17384">
        <ele>2390</ele>
        <time>2019-02-27T10:26:26Z</time>
      </trkpt>
      <trkpt lat="42.73918" lon="0.17384">
        <ele>2390</ele>
        <time>2019-02-27T10:26:27Z</time>
      </trkpt>
      <trkpt lat="42.73918" lon="0.17384">
        <ele>2390</ele>
        <time>2019-02-27T10:26:28Z</time>
      </trkpt>
      <trkpt lat="42.73918" lon="0.17384">
        <ele>2390</ele>
        <time>2019-02-27T10:26:29Z</time>
      </trkpt>
      <trkpt lat="42.73918" lon="0.17384">
        <ele>2390</ele>
        <time>2019-02-27T10:26:30Z</time>
      </trkpt>
      <trkpt lat="42.73918" lon="0.17384">
        <ele>2391</ele>
        <time>2019-02-27T10:26:31Z</time>
      </trkpt>
      <trkpt lat="42.73918" lon="0.17384">
        <ele>2391</ele>
        <time>2019-02-27T10:26:32Z</time>
      </trkpt>
      <trkpt lat="42.73917" lon="0.17381">
        <ele>2391</ele>
        <time>2019-02-27T10:26:33Z</time>
      </trkpt>
      <trkpt lat="42.73917" lon="0.17381">
        <ele>2391</ele>
        <time>2019-02-27T10:26:34Z</time>
      </trkpt>
      <trkpt lat="42.73917" lon="0.17381">
        <ele>2391</ele>
        <time>2019-02-27T10:26:35Z</time>
      </trkpt>
      <trkpt lat="42.73917" lon="0.17381">
        <ele>2391</ele>
        <time>2019-02-27T10:26:36Z</time>
      </trkpt>
      <trkpt lat="42.73917" lon="0.17381">
        <ele>2391</ele>
        <time>2019-02-27T10:26:37Z</time>
      </trkpt>
      <trkpt lat="42.73917" lon="0.17381">
        <ele>2391</ele>
        <time>2019-02-27T10:26:38Z</time>
      </trkpt>
      <trkpt lat="42.73917" lon="0.17381">
        <ele>2391</ele>
        <time>2019-02-27T10:26:39Z</time>
      </trkpt>
      <trkpt lat="42.73917" lon="0.17381">
        <ele>2391</ele>
        <time>2019-02-27T10:26:40Z</time>
      </trkpt>
      <trkpt lat="42.73917" lon="0.17381">
        <ele>2391</ele>
        <time>2019-02-27T10:26:41Z</time>
      </trkpt>
      <trkpt lat="42.73917" lon="0.17381">
        <ele>2391</ele>
        <time>2019-02-27T10:26:42Z</time>
      </trkpt>
      <trkpt lat="42.73917" lon="0.17381">
        <ele>2391</ele>
        <time>2019-02-27T10:26:43Z</time>
      </trkpt>
      <trkpt lat="42.73917" lon="0.17381">
        <ele>2391</ele>
        <time>2019-02-27T10:26:44Z</time>
      </trkpt>
      <trkpt lat="42.73917" lon="0.17381">
        <ele>2391</ele>
        <time>2019-02-27T10:26:45Z</time>
      </trkpt>
      <trkpt lat="42.73917" lon="0.17381">
        <ele>2391</ele>
        <time>2019-02-27T10:26:46Z</time>
      </trkpt>
      <trkpt lat="42.73917" lon="0.17381">
        <ele>2391</ele>
        <time>2019-02-27T10:26:47Z</time>
      </trkpt>
      <trkpt lat="42.73917" lon="0.17381">
        <ele>2391</ele>
        <time>2019-02-27T10:26:48Z</time>
      </trkpt>
      <trkpt lat="42.73917" lon="0.17381">
        <ele>2391</ele>
        <time>2019-02-27T10:26:49Z</time>
      </trkpt>
      <trkpt lat="42.73917" lon="0.17381">
        <ele>2391</ele>
        <time>2019-02-27T10:26:50Z</time>
      </trkpt>
      <trkpt lat="42.73917" lon="0.17381">
        <ele>2391</ele>
        <time>2019-02-27T10:26:51Z</time>
      </trkpt>
      <trkpt lat="42.73917" lon="0.17381">
        <ele>2391</ele>
        <time>2019-02-27T10:26:52Z</time>
      </trkpt>
      <trkpt lat="42.73917" lon="0.17381">
        <ele>2391</ele>
        <time>2019-02-27T10:26:53Z</time>
      </trkpt>
      <trkpt lat="42.73917" lon="0.17381">
        <ele>2391</ele>
        <time>2019-02-27T10:26:54Z</time>
      </trkpt>
      <trkpt lat="42.73917" lon="0.17381">
        <ele>2391</ele>
        <time>2019-02-27T10:26:55Z</time>
      </trkpt>
      <trkpt lat="42.73917" lon="0.17381">
        <ele>2391</ele>
        <time>2019-02-27T10:26:56Z</time>
      </trkpt>
      <trkpt lat="42.73917" lon="0.17381">
        <ele>2391</ele>
        <time>2019-02-27T10:26:57Z</time>
      </trkpt>
      <trkpt lat="42.73917" lon="0.17381">
        <ele>2391</ele>
        <time>2019-02-27T10:26:58Z</time>
      </trkpt>
      <trkpt lat="42.73917" lon="0.17381">
        <ele>2391</ele>
        <time>2019-02-27T10:26:59Z</time>
      </trkpt>
      <trkpt lat="42.73917" lon="0.17381">
        <ele>2392</ele>
        <time>2019-02-27T10:27:00Z</time>
      </trkpt>
      <trkpt lat="42.73917" lon="0.17381">
        <ele>2392</ele>
        <time>2019-02-27T10:27:01Z</time>
      </trkpt>
      <trkpt lat="42.73917" lon="0.17381">
        <ele>2392</ele>
        <time>2019-02-27T10:27:02Z</time>
      </trkpt>
      <trkpt lat="42.73917" lon="0.17381">
        <ele>2392</ele>
        <time>2019-02-27T10:27:03Z</time>
      </trkpt>
      <trkpt lat="42.73917" lon="0.17381">
        <ele>2392</ele>
        <time>2019-02-27T10:27:04Z</time>
      </trkpt>
      <trkpt lat="42.73917" lon="0.17381">
        <ele>2392</ele>
        <time>2019-02-27T10:27:05Z</time>
      </trkpt>
      <trkpt lat="42.73917" lon="0.17381">
        <ele>2392</ele>
        <time>2019-02-27T10:27:06Z</time>
      </trkpt>
      <trkpt lat="42.73917" lon="0.17381">
        <ele>2392</ele>
        <time>2019-02-27T10:27:07Z</time>
      </trkpt>
      <trkpt lat="42.73917" lon="0.17381">
        <ele>2391</ele>
        <time>2019-02-27T10:27:08Z</time>
      </trkpt>
      <trkpt lat="42.73917" lon="0.17381">
        <ele>2391</ele>
        <time>2019-02-27T10:27:09Z</time>
      </trkpt>
      <trkpt lat="42.73916" lon="0.1738">
        <ele>2391</ele>
        <time>2019-02-27T10:27:10Z</time>
      </trkpt>
      <trkpt lat="42.73916" lon="0.1738">
        <ele>2391</ele>
        <time>2019-02-27T10:27:11Z</time>
      </trkpt>
      <trkpt lat="42.73916" lon="0.1738">
        <ele>2391</ele>
        <time>2019-02-27T10:27:12Z</time>
      </trkpt>
      <trkpt lat="42.73916" lon="0.1738">
        <ele>2392</ele>
        <time>2019-02-27T10:27:13Z</time>
      </trkpt>
      <trkpt lat="42.73916" lon="0.1738">
        <ele>2392</ele>
        <time>2019-02-27T10:27:14Z</time>
      </trkpt>
      <trkpt lat="42.73916" lon="0.1738">
        <ele>2392</ele>
        <time>2019-02-27T10:27:15Z</time>
      </trkpt>
      <trkpt lat="42.73916" lon="0.1738">
        <ele>2392</ele>
        <time>2019-02-27T10:27:16Z</time>
      </trkpt>
      <trkpt lat="42.73916" lon="0.1738">
        <ele>2392</ele>
        <time>2019-02-27T10:27:17Z</time>
      </trkpt>
      <trkpt lat="42.73916" lon="0.1738">
        <ele>2392</ele>
        <time>2019-02-27T10:27:18Z</time>
      </trkpt>
      <trkpt lat="42.73916" lon="0.1738">
        <ele>2392</ele>
        <time>2019-02-27T10:27:19Z</time>
      </trkpt>
      <trkpt lat="42.73916" lon="0.1738">
        <ele>2392</ele>
        <time>2019-02-27T10:27:20Z</time>
      </trkpt>
      <trkpt lat="42.73916" lon="0.1738">
        <ele>2392</ele>
        <time>2019-02-27T10:27:21Z</time>
      </trkpt>
      <trkpt lat="42.73916" lon="0.1738">
        <ele>2392</ele>
        <time>2019-02-27T10:27:22Z</time>
      </trkpt>
      <trkpt lat="42.73916" lon="0.1738">
        <ele>2392</ele>
        <time>2019-02-27T10:27:23Z</time>
      </trkpt>
      <trkpt lat="42.73916" lon="0.1738">
        <ele>2392</ele>
        <time>2019-02-27T10:27:24Z</time>
      </trkpt>
      <trkpt lat="42.73916" lon="0.1738">
        <ele>2392</ele>
        <time>2019-02-27T10:27:25Z</time>
      </trkpt>
      <trkpt lat="42.73916" lon="0.1738">
        <ele>2392</ele>
        <time>2019-02-27T10:27:26Z</time>
      </trkpt>
      <trkpt lat="42.73916" lon="0.1738">
        <ele>2392</ele>
        <time>2019-02-27T10:27:27Z</time>
      </trkpt>
      <trkpt lat="42.73916" lon="0.1738">
        <ele>2392</ele>
        <time>2019-02-27T10:27:28Z</time>
      </trkpt>
      <trkpt lat="42.73916" lon="0.1738">
        <ele>2391</ele>
        <time>2019-02-27T10:27:29Z</time>
      </trkpt>
      <trkpt lat="42.73916" lon="0.1738">
        <ele>2391</ele>
        <time>2019-02-27T10:27:30Z</time>
      </trkpt>
      <trkpt lat="42.73916" lon="0.1738">
        <ele>2391</ele>
        <time>2019-02-27T10:27:31Z</time>
      </trkpt>
      <trkpt lat="42.73916" lon="0.1738">
        <ele>2391</ele>
        <time>2019-02-27T10:27:32Z</time>
      </trkpt>
      <trkpt lat="42.73916" lon="0.1738">
        <ele>2391</ele>
        <time>2019-02-27T10:27:33Z</time>
      </trkpt>
      <trkpt lat="42.73916" lon="0.1738">
        <ele>2391</ele>
        <time>2019-02-27T10:27:34Z</time>
      </trkpt>
      <trkpt lat="42.73916" lon="0.1738">
        <ele>2391</ele>
        <time>2019-02-27T10:27:35Z</time>
      </trkpt>
      <trkpt lat="42.73916" lon="0.1738">
        <ele>2391</ele>
        <time>2019-02-27T10:27:36Z</time>
      </trkpt>
      <trkpt lat="42.73916" lon="0.1738">
        <ele>2391</ele>
        <time>2019-02-27T10:27:37Z</time>
      </trkpt>
      <trkpt lat="42.73916" lon="0.1738">
        <ele>2391</ele>
        <time>2019-02-27T10:27:38Z</time>
      </trkpt>
      <trkpt lat="42.73916" lon="0.1738">
        <ele>2391</ele>
        <time>2019-02-27T10:27:39Z</time>
      </trkpt>
      <trkpt lat="42.73916" lon="0.1738">
        <ele>2391</ele>
        <time>2019-02-27T10:27:40Z</time>
      </trkpt>
      <trkpt lat="42.73916" lon="0.1738">
        <ele>2391</ele>
        <time>2019-02-27T10:27:41Z</time>
      </trkpt>
      <trkpt lat="42.73916" lon="0.1738">
        <ele>2391</ele>
        <time>2019-02-27T10:27:42Z</time>
      </trkpt>
      <trkpt lat="42.73916" lon="0.1738">
        <ele>2391</ele>
        <time>2019-02-27T10:27:43Z</time>
      </trkpt>
      <trkpt lat="42.73916" lon="0.1738">
        <ele>2391</ele>
        <time>2019-02-27T10:27:44Z</time>
      </trkpt>
      <trkpt lat="42.73916" lon="0.1738">
        <ele>2392</ele>
        <time>2019-02-27T10:27:45Z</time>
      </trkpt>
      <trkpt lat="42.73916" lon="0.1738">
        <ele>2392</ele>
        <time>2019-02-27T10:27:46Z</time>
      </trkpt>
      <trkpt lat="42.73916" lon="0.1738">
        <ele>2392</ele>
        <time>2019-02-27T10:27:47Z</time>
      </trkpt>
      <trkpt lat="42.73916" lon="0.1738">
        <ele>2392</ele>
        <time>2019-02-27T10:27:48Z</time>
      </trkpt>
      <trkpt lat="42.73916" lon="0.1738">
        <ele>2392</ele>
        <time>2019-02-27T10:27:49Z</time>
      </trkpt>
      <trkpt lat="42.73916" lon="0.1738">
        <ele>2392</ele>
        <time>2019-02-27T10:27:50Z</time>
      </trkpt>
      <trkpt lat="42.73916" lon="0.1738">
        <ele>2392</ele>
        <time>2019-02-27T10:27:51Z</time>
      </trkpt>
      <trkpt lat="42.73916" lon="0.1738">
        <ele>2392</ele>
        <time>2019-02-27T10:27:52Z</time>
      </trkpt>
      <trkpt lat="42.73916" lon="0.1738">
        <ele>2392</ele>
        <time>2019-02-27T10:27:53Z</time>
      </trkpt>
      <trkpt lat="42.73916" lon="0.1738">
        <ele>2392</ele>
        <time>2019-02-27T10:27:54Z</time>
      </trkpt>
      <trkpt lat="42.73916" lon="0.1738">
        <ele>2392</ele>
        <time>2019-02-27T10:27:55Z</time>
      </trkpt>
      <trkpt lat="42.73916" lon="0.1738">
        <ele>2392</ele>
        <time>2019-02-27T10:27:56Z</time>
      </trkpt>
      <trkpt lat="42.73916" lon="0.1738">
        <ele>2392</ele>
        <time>2019-02-27T10:27:57Z</time>
      </trkpt>
      <trkpt lat="42.73916" lon="0.1738">
        <ele>2392</ele>
        <time>2019-02-27T10:27:58Z</time>
      </trkpt>
      <trkpt lat="42.73916" lon="0.1738">
        <ele>2392</ele>
        <time>2019-02-27T10:27:59Z</time>
      </trkpt>
      <trkpt lat="42.73916" lon="0.1738">
        <ele>2392</ele>
        <time>2019-02-27T10:28:00Z</time>
      </trkpt>
      <trkpt lat="42.73916" lon="0.1738">
        <ele>2392</ele>
        <time>2019-02-27T10:28:01Z</time>
      </trkpt>
      <trkpt lat="42.73916" lon="0.1738">
        <ele>2392</ele>
        <time>2019-02-27T10:28:02Z</time>
      </trkpt>
      <trkpt lat="42.73916" lon="0.1738">
        <ele>2392</ele>
        <time>2019-02-27T10:28:03Z</time>
      </trkpt>
      <trkpt lat="42.73916" lon="0.1738">
        <ele>2392</ele>
        <time>2019-02-27T10:28:04Z</time>
      </trkpt>
      <trkpt lat="42.73916" lon="0.1738">
        <ele>2392</ele>
        <time>2019-02-27T10:28:05Z</time>
      </trkpt>
      <trkpt lat="42.73916" lon="0.1738">
        <ele>2392</ele>
        <time>2019-02-27T10:28:06Z</time>
      </trkpt>
      <trkpt lat="42.73916" lon="0.1738">
        <ele>2392</ele>
        <time>2019-02-27T10:28:07Z</time>
      </trkpt>
      <trkpt lat="42.73916" lon="0.1738">
        <ele>2392</ele>
        <time>2019-02-27T10:28:08Z</time>
      </trkpt>
      <trkpt lat="42.73916" lon="0.1738">
        <ele>2392</ele>
        <time>2019-02-27T10:28:09Z</time>
      </trkpt>
      <trkpt lat="42.73916" lon="0.1738">
        <ele>2392</ele>
        <time>2019-02-27T10:28:10Z</time>
      </trkpt>
      <trkpt lat="42.73916" lon="0.1738">
        <ele>2393</ele>
        <time>2019-02-27T10:28:11Z</time>
      </trkpt>
      <trkpt lat="42.73916" lon="0.1738">
        <ele>2393</ele>
        <time>2019-02-27T10:28:12Z</time>
      </trkpt>
      <trkpt lat="42.73916" lon="0.1738">
        <ele>2393</ele>
        <time>2019-02-27T10:28:13Z</time>
      </trkpt>
      <trkpt lat="42.73916" lon="0.1738">
        <ele>2393</ele>
        <time>2019-02-27T10:28:14Z</time>
      </trkpt>
      <trkpt lat="42.73916" lon="0.1738">
        <ele>2392</ele>
        <time>2019-02-27T10:28:15Z</time>
      </trkpt>
      <trkpt lat="42.73916" lon="0.1738">
        <ele>2392</ele>
        <time>2019-02-27T10:28:16Z</time>
      </trkpt>
      <trkpt lat="42.73916" lon="0.1738">
        <ele>2392</ele>
        <time>2019-02-27T10:28:17Z</time>
      </trkpt>
      <trkpt lat="42.73916" lon="0.1738">
        <ele>2392</ele>
        <time>2019-02-27T10:28:18Z</time>
      </trkpt>
      <trkpt lat="42.73916" lon="0.1738">
        <ele>2392</ele>
        <time>2019-02-27T10:28:19Z</time>
      </trkpt>
      <trkpt lat="42.73916" lon="0.1738">
        <ele>2392</ele>
        <time>2019-02-27T10:28:20Z</time>
      </trkpt>
      <trkpt lat="42.73916" lon="0.1738">
        <ele>2392</ele>
        <time>2019-02-27T10:28:21Z</time>
      </trkpt>
      <trkpt lat="42.73916" lon="0.1738">
        <ele>2392</ele>
        <time>2019-02-27T10:28:22Z</time>
      </trkpt>
      <trkpt lat="42.73916" lon="0.1738">
        <ele>2392</ele>
        <time>2019-02-27T10:28:23Z</time>
      </trkpt>
      <trkpt lat="42.73916" lon="0.1738">
        <ele>2392</ele>
        <time>2019-02-27T10:28:24Z</time>
      </trkpt>
      <trkpt lat="42.73916" lon="0.1738">
        <ele>2392</ele>
        <time>2019-02-27T10:28:25Z</time>
      </trkpt>
      <trkpt lat="42.73916" lon="0.1738">
        <ele>2392</ele>
        <time>2019-02-27T10:28:26Z</time>
      </trkpt>
      <trkpt lat="42.73916" lon="0.1738">
        <ele>2392</ele>
        <time>2019-02-27T10:28:27Z</time>
      </trkpt>
      <trkpt lat="42.73916" lon="0.1738">
        <ele>2392</ele>
        <time>2019-02-27T10:28:28Z</time>
      </trkpt>
      <trkpt lat="42.73916" lon="0.1738">
        <ele>2392</ele>
        <time>2019-02-27T10:28:29Z</time>
      </trkpt>
      <trkpt lat="42.73916" lon="0.1738">
        <ele>2392</ele>
        <time>2019-02-27T10:28:30Z</time>
      </trkpt>
      <trkpt lat="42.73916" lon="0.1738">
        <ele>2392</ele>
        <time>2019-02-27T10:28:31Z</time>
      </trkpt>
      <trkpt lat="42.73916" lon="0.1738">
        <ele>2392</ele>
        <time>2019-02-27T10:28:32Z</time>
      </trkpt>
      <trkpt lat="42.73916" lon="0.1738">
        <ele>2392</ele>
        <time>2019-02-27T10:28:33Z</time>
      </trkpt>
      <trkpt lat="42.73916" lon="0.1738">
        <ele>2392</ele>
        <time>2019-02-27T10:28:34Z</time>
      </trkpt>
      <trkpt lat="42.73916" lon="0.1738">
        <ele>2392</ele>
        <time>2019-02-27T10:28:35Z</time>
      </trkpt>
      <trkpt lat="42.73916" lon="0.1738">
        <ele>2392</ele>
        <time>2019-02-27T10:28:36Z</time>
      </trkpt>
      <trkpt lat="42.73916" lon="0.1738">
        <ele>2392</ele>
        <time>2019-02-27T10:28:37Z</time>
      </trkpt>
      <trkpt lat="42.73916" lon="0.1738">
        <ele>2392</ele>
        <time>2019-02-27T10:28:38Z</time>
      </trkpt>
      <trkpt lat="42.73916" lon="0.1738">
        <ele>2393</ele>
        <time>2019-02-27T10:28:39Z</time>
      </trkpt>
      <trkpt lat="42.73916" lon="0.1738">
        <ele>2393</ele>
        <time>2019-02-27T10:28:40Z</time>
      </trkpt>
      <trkpt lat="42.73916" lon="0.1738">
        <ele>2393</ele>
        <time>2019-02-27T10:28:41Z</time>
      </trkpt>
      <trkpt lat="42.73916" lon="0.1738">
        <ele>2392</ele>
        <time>2019-02-27T10:28:42Z</time>
      </trkpt>
      <trkpt lat="42.73916" lon="0.1738">
        <ele>2392</ele>
        <time>2019-02-27T10:28:43Z</time>
      </trkpt>
      <trkpt lat="42.73916" lon="0.1738">
        <ele>2392</ele>
        <time>2019-02-27T10:28:44Z</time>
      </trkpt>
      <trkpt lat="42.73916" lon="0.1738">
        <ele>2393</ele>
        <time>2019-02-27T10:28:45Z</time>
      </trkpt>
      <trkpt lat="42.73916" lon="0.1738">
        <ele>2393</ele>
        <time>2019-02-27T10:28:46Z</time>
      </trkpt>
      <trkpt lat="42.73916" lon="0.1738">
        <ele>2393</ele>
        <time>2019-02-27T10:28:47Z</time>
      </trkpt>
      <trkpt lat="42.73916" lon="0.1738">
        <ele>2393</ele>
        <time>2019-02-27T10:28:48Z</time>
      </trkpt>
      <trkpt lat="42.73916" lon="0.1738">
        <ele>2393</ele>
        <time>2019-02-27T10:28:49Z</time>
      </trkpt>
      <trkpt lat="42.73916" lon="0.1738">
        <ele>2393</ele>
        <time>2019-02-27T10:28:50Z</time>
      </trkpt>
      <trkpt lat="42.73916" lon="0.1738">
        <ele>2393</ele>
        <time>2019-02-27T10:28:51Z</time>
      </trkpt>
      <trkpt lat="42.73916" lon="0.1738">
        <ele>2393</ele>
        <time>2019-02-27T10:28:52Z</time>
      </trkpt>
      <trkpt lat="42.73916" lon="0.1738">
        <ele>2393</ele>
        <time>2019-02-27T10:28:53Z</time>
      </trkpt>
      <trkpt lat="42.73916" lon="0.1738">
        <ele>2393</ele>
        <time>2019-02-27T10:28:54Z</time>
      </trkpt>
      <trkpt lat="42.73916" lon="0.1738">
        <ele>2393</ele>
        <time>2019-02-27T10:28:55Z</time>
      </trkpt>
      <trkpt lat="42.73916" lon="0.1738">
        <ele>2393</ele>
        <time>2019-02-27T10:28:56Z</time>
      </trkpt>
      <trkpt lat="42.73916" lon="0.1738">
        <ele>2393</ele>
        <time>2019-02-27T10:28:57Z</time>
      </trkpt>
      <trkpt lat="42.73916" lon="0.1738">
        <ele>2393</ele>
        <time>2019-02-27T10:28:58Z</time>
      </trkpt>
      <trkpt lat="42.73916" lon="0.1738">
        <ele>2393</ele>
        <time>2019-02-27T10:28:59Z</time>
      </trkpt>
      <trkpt lat="42.73916" lon="0.1738">
        <ele>2393</ele>
        <time>2019-02-27T10:29:00Z</time>
      </trkpt>
      <trkpt lat="42.73916" lon="0.1738">
        <ele>2393</ele>
        <time>2019-02-27T10:29:01Z</time>
      </trkpt>
      <trkpt lat="42.73916" lon="0.1738">
        <ele>2393</ele>
        <time>2019-02-27T10:29:02Z</time>
      </trkpt>
      <trkpt lat="42.73916" lon="0.1738">
        <ele>2393</ele>
        <time>2019-02-27T10:29:03Z</time>
      </trkpt>
      <trkpt lat="42.73916" lon="0.1738">
        <ele>2393</ele>
        <time>2019-02-27T10:29:04Z</time>
      </trkpt>
      <trkpt lat="42.73916" lon="0.1738">
        <ele>2393</ele>
        <time>2019-02-27T10:29:05Z</time>
      </trkpt>
      <trkpt lat="42.73916" lon="0.1738">
        <ele>2393</ele>
        <time>2019-02-27T10:29:06Z</time>
      </trkpt>
      <trkpt lat="42.73916" lon="0.1738">
        <ele>2393</ele>
        <time>2019-02-27T10:29:07Z</time>
      </trkpt>
      <trkpt lat="42.73916" lon="0.1738">
        <ele>2393</ele>
        <time>2019-02-27T10:29:08Z</time>
      </trkpt>
      <trkpt lat="42.73916" lon="0.1738">
        <ele>2393</ele>
        <time>2019-02-27T10:29:09Z</time>
      </trkpt>
      <trkpt lat="42.73916" lon="0.1738">
        <ele>2393</ele>
        <time>2019-02-27T10:29:10Z</time>
      </trkpt>
      <trkpt lat="42.73916" lon="0.1738">
        <ele>2393</ele>
        <time>2019-02-27T10:29:11Z</time>
      </trkpt>
      <trkpt lat="42.73916" lon="0.1738">
        <ele>2393</ele>
        <time>2019-02-27T10:29:12Z</time>
      </trkpt>
      <trkpt lat="42.73916" lon="0.1738">
        <ele>2393</ele>
        <time>2019-02-27T10:29:13Z</time>
      </trkpt>
      <trkpt lat="42.73916" lon="0.1738">
        <ele>2393</ele>
        <time>2019-02-27T10:29:14Z</time>
      </trkpt>
      <trkpt lat="42.73916" lon="0.1738">
        <ele>2393</ele>
        <time>2019-02-27T10:29:15Z</time>
      </trkpt>
      <trkpt lat="42.73916" lon="0.1738">
        <ele>2393</ele>
        <time>2019-02-27T10:29:16Z</time>
      </trkpt>
      <trkpt lat="42.73916" lon="0.1738">
        <ele>2393</ele>
        <time>2019-02-27T10:29:17Z</time>
      </trkpt>
      <trkpt lat="42.73916" lon="0.1738">
        <ele>2393</ele>
        <time>2019-02-27T10:29:18Z</time>
      </trkpt>
      <trkpt lat="42.73916" lon="0.1738">
        <ele>2393</ele>
        <time>2019-02-27T10:29:19Z</time>
      </trkpt>
      <trkpt lat="42.73916" lon="0.1738">
        <ele>2393</ele>
        <time>2019-02-27T10:29:20Z</time>
      </trkpt>
      <trkpt lat="42.73916" lon="0.1738">
        <ele>2393</ele>
        <time>2019-02-27T10:29:21Z</time>
      </trkpt>
      <trkpt lat="42.73916" lon="0.1738">
        <ele>2393</ele>
        <time>2019-02-27T10:29:22Z</time>
      </trkpt>
      <trkpt lat="42.73916" lon="0.1738">
        <ele>2393</ele>
        <time>2019-02-27T10:29:23Z</time>
      </trkpt>
      <trkpt lat="42.73916" lon="0.1738">
        <ele>2393</ele>
        <time>2019-02-27T10:29:24Z</time>
      </trkpt>
      <trkpt lat="42.73916" lon="0.1738">
        <ele>2393</ele>
        <time>2019-02-27T10:29:25Z</time>
      </trkpt>
      <trkpt lat="42.73916" lon="0.1738">
        <ele>2393</ele>
        <time>2019-02-27T10:29:26Z</time>
      </trkpt>
      <trkpt lat="42.73916" lon="0.1738">
        <ele>2393</ele>
        <time>2019-02-27T10:29:27Z</time>
      </trkpt>
      <trkpt lat="42.73916" lon="0.1738">
        <ele>2393</ele>
        <time>2019-02-27T10:29:28Z</time>
      </trkpt>
      <trkpt lat="42.73916" lon="0.1738">
        <ele>2393</ele>
        <time>2019-02-27T10:29:29Z</time>
      </trkpt>
      <trkpt lat="42.73916" lon="0.1738">
        <ele>2393</ele>
        <time>2019-02-27T10:29:30Z</time>
      </trkpt>
      <trkpt lat="42.73916" lon="0.1738">
        <ele>2393</ele>
        <time>2019-02-27T10:29:31Z</time>
      </trkpt>
      <trkpt lat="42.73916" lon="0.1738">
        <ele>2393</ele>
        <time>2019-02-27T10:29:32Z</time>
      </trkpt>
      <trkpt lat="42.73916" lon="0.1738">
        <ele>2393</ele>
        <time>2019-02-27T10:29:33Z</time>
      </trkpt>
      <trkpt lat="42.73916" lon="0.1738">
        <ele>2393</ele>
        <time>2019-02-27T10:29:34Z</time>
      </trkpt>
      <trkpt lat="42.73916" lon="0.1738">
        <ele>2393</ele>
        <time>2019-02-27T10:29:35Z</time>
      </trkpt>
      <trkpt lat="42.73916" lon="0.1738">
        <ele>2393</ele>
        <time>2019-02-27T10:29:36Z</time>
      </trkpt>
      <trkpt lat="42.73916" lon="0.1738">
        <ele>2393</ele>
        <time>2019-02-27T10:29:37Z</time>
      </trkpt>
      <trkpt lat="42.73916" lon="0.1738">
        <ele>2393</ele>
        <time>2019-02-27T10:29:38Z</time>
      </trkpt>
      <trkpt lat="42.73916" lon="0.1738">
        <ele>2393</ele>
        <time>2019-02-27T10:29:39Z</time>
      </trkpt>
      <trkpt lat="42.73916" lon="0.1738">
        <ele>2393</ele>
        <time>2019-02-27T10:29:40Z</time>
      </trkpt>
      <trkpt lat="42.73916" lon="0.1738">
        <ele>2393</ele>
        <time>2019-02-27T10:29:41Z</time>
      </trkpt>
      <trkpt lat="42.73916" lon="0.1738">
        <ele>2393</ele>
        <time>2019-02-27T10:29:42Z</time>
      </trkpt>
      <trkpt lat="42.73916" lon="0.1738">
        <ele>2393</ele>
        <time>2019-02-27T10:29:43Z</time>
      </trkpt>
      <trkpt lat="42.73916" lon="0.1738">
        <ele>2393</ele>
        <time>2019-02-27T10:29:44Z</time>
      </trkpt>
      <trkpt lat="42.73916" lon="0.1738">
        <ele>2393</ele>
        <time>2019-02-27T10:29:45Z</time>
      </trkpt>
      <trkpt lat="42.73916" lon="0.1738">
        <ele>2393</ele>
        <time>2019-02-27T10:29:46Z</time>
      </trkpt>
      <trkpt lat="42.73916" lon="0.1738">
        <ele>2393</ele>
        <time>2019-02-27T10:29:47Z</time>
      </trkpt>
      <trkpt lat="42.73916" lon="0.1738">
        <ele>2393</ele>
        <time>2019-02-27T10:29:48Z</time>
      </trkpt>
      <trkpt lat="42.73916" lon="0.1738">
        <ele>2393</ele>
        <time>2019-02-27T10:29:49Z</time>
      </trkpt>
      <trkpt lat="42.73916" lon="0.1738">
        <ele>2393</ele>
        <time>2019-02-27T10:29:50Z</time>
      </trkpt>
      <trkpt lat="42.73916" lon="0.1738">
        <ele>2393</ele>
        <time>2019-02-27T10:29:51Z</time>
      </trkpt>
      <trkpt lat="42.73916" lon="0.1738">
        <ele>2393</ele>
        <time>2019-02-27T10:29:52Z</time>
      </trkpt>
      <trkpt lat="42.73916" lon="0.1738">
        <ele>2393</ele>
        <time>2019-02-27T10:29:53Z</time>
      </trkpt>
      <trkpt lat="42.73916" lon="0.1738">
        <ele>2393</ele>
        <time>2019-02-27T10:29:54Z</time>
      </trkpt>
      <trkpt lat="42.73916" lon="0.1738">
        <ele>2393</ele>
        <time>2019-02-27T10:29:55Z</time>
      </trkpt>
      <trkpt lat="42.73916" lon="0.1738">
        <ele>2393</ele>
        <time>2019-02-27T10:29:56Z</time>
      </trkpt>
      <trkpt lat="42.73916" lon="0.1738">
        <ele>2393</ele>
        <time>2019-02-27T10:29:57Z</time>
      </trkpt>
      <trkpt lat="42.73916" lon="0.1738">
        <ele>2393</ele>
        <time>2019-02-27T10:29:58Z</time>
      </trkpt>
      <trkpt lat="42.73916" lon="0.1738">
        <ele>2393</ele>
        <time>2019-02-27T10:29:59Z</time>
      </trkpt>
      <trkpt lat="42.73916" lon="0.1738">
        <ele>2393</ele>
        <time>2019-02-27T10:30:00Z</time>
      </trkpt>
      <trkpt lat="42.73916" lon="0.1738">
        <ele>2393</ele>
        <time>2019-02-27T10:30:01Z</time>
      </trkpt>
      <trkpt lat="42.73916" lon="0.1738">
        <ele>2393</ele>
        <time>2019-02-27T10:30:02Z</time>
      </trkpt>
      <trkpt lat="42.73916" lon="0.1738">
        <ele>2393</ele>
        <time>2019-02-27T10:30:03Z</time>
      </trkpt>
      <trkpt lat="42.73916" lon="0.1738">
        <ele>2393</ele>
        <time>2019-02-27T10:30:04Z</time>
      </trkpt>
      <trkpt lat="42.73916" lon="0.1738">
        <ele>2393</ele>
        <time>2019-02-27T10:30:05Z</time>
      </trkpt>
      <trkpt lat="42.73916" lon="0.1738">
        <ele>2392</ele>
        <time>2019-02-27T10:30:06Z</time>
      </trkpt>
      <trkpt lat="42.73916" lon="0.1738">
        <ele>2392</ele>
        <time>2019-02-27T10:30:07Z</time>
      </trkpt>
      <trkpt lat="42.73916" lon="0.1738">
        <ele>2392</ele>
        <time>2019-02-27T10:30:08Z</time>
      </trkpt>
      <trkpt lat="42.73916" lon="0.1738">
        <ele>2392</ele>
        <time>2019-02-27T10:30:09Z</time>
      </trkpt>
      <trkpt lat="42.73916" lon="0.1738">
        <ele>2392</ele>
        <time>2019-02-27T10:30:10Z</time>
      </trkpt>
      <trkpt lat="42.73916" lon="0.1738">
        <ele>2391</ele>
        <time>2019-02-27T10:30:11Z</time>
      </trkpt>
      <trkpt lat="42.73916" lon="0.1738">
        <ele>2391</ele>
        <time>2019-02-27T10:30:12Z</time>
      </trkpt>
      <trkpt lat="42.73916" lon="0.1738">
        <ele>2391</ele>
        <time>2019-02-27T10:30:13Z</time>
      </trkpt>
      <trkpt lat="42.73916" lon="0.1738">
        <ele>2391</ele>
        <time>2019-02-27T10:30:14Z</time>
      </trkpt>
      <trkpt lat="42.73916" lon="0.1738">
        <ele>2391</ele>
        <time>2019-02-27T10:30:15Z</time>
      </trkpt>
      <trkpt lat="42.73916" lon="0.1738">
        <ele>2391</ele>
        <time>2019-02-27T10:30:16Z</time>
      </trkpt>
      <trkpt lat="42.73916" lon="0.1738">
        <ele>2391</ele>
        <time>2019-02-27T10:30:17Z</time>
      </trkpt>
      <trkpt lat="42.73916" lon="0.1738">
        <ele>2391</ele>
        <time>2019-02-27T10:30:18Z</time>
      </trkpt>
      <trkpt lat="42.73916" lon="0.1738">
        <ele>2391</ele>
        <time>2019-02-27T10:30:19Z</time>
      </trkpt>
      <trkpt lat="42.73916" lon="0.1738">
        <ele>2391</ele>
        <time>2019-02-27T10:30:20Z</time>
      </trkpt>
      <trkpt lat="42.73916" lon="0.1738">
        <ele>2391</ele>
        <time>2019-02-27T10:30:21Z</time>
      </trkpt>
      <trkpt lat="42.73916" lon="0.1738">
        <ele>2391</ele>
        <time>2019-02-27T10:30:22Z</time>
      </trkpt>
      <trkpt lat="42.73916" lon="0.1738">
        <ele>2392</ele>
        <time>2019-02-27T10:30:23Z</time>
      </trkpt>
      <trkpt lat="42.73916" lon="0.1738">
        <ele>2392</ele>
        <time>2019-02-27T10:30:24Z</time>
      </trkpt>
      <trkpt lat="42.73916" lon="0.1738">
        <ele>2392</ele>
        <time>2019-02-27T10:30:25Z</time>
      </trkpt>
      <trkpt lat="42.73916" lon="0.1738">
        <ele>2392</ele>
        <time>2019-02-27T10:30:26Z</time>
      </trkpt>
      <trkpt lat="42.73916" lon="0.1738">
        <ele>2392</ele>
        <time>2019-02-27T10:30:27Z</time>
      </trkpt>
      <trkpt lat="42.73916" lon="0.1738">
        <ele>2392</ele>
        <time>2019-02-27T10:30:28Z</time>
      </trkpt>
      <trkpt lat="42.73916" lon="0.1738">
        <ele>2392</ele>
        <time>2019-02-27T10:30:29Z</time>
      </trkpt>
      <trkpt lat="42.73916" lon="0.1738">
        <ele>2392</ele>
        <time>2019-02-27T10:30:30Z</time>
      </trkpt>
      <trkpt lat="42.73916" lon="0.1738">
        <ele>2392</ele>
        <time>2019-02-27T10:30:31Z</time>
      </trkpt>
      <trkpt lat="42.73916" lon="0.1738">
        <ele>2392</ele>
        <time>2019-02-27T10:30:32Z</time>
      </trkpt>
      <trkpt lat="42.73916" lon="0.1738">
        <ele>2392</ele>
        <time>2019-02-27T10:30:33Z</time>
      </trkpt>
      <trkpt lat="42.73916" lon="0.1738">
        <ele>2392</ele>
        <time>2019-02-27T10:30:34Z</time>
      </trkpt>
      <trkpt lat="42.73916" lon="0.1738">
        <ele>2392</ele>
        <time>2019-02-27T10:30:35Z</time>
      </trkpt>
      <trkpt lat="42.73916" lon="0.1738">
        <ele>2392</ele>
        <time>2019-02-27T10:30:36Z</time>
      </trkpt>
      <trkpt lat="42.73916" lon="0.1738">
        <ele>2392</ele>
        <time>2019-02-27T10:30:37Z</time>
      </trkpt>
      <trkpt lat="42.73916" lon="0.1738">
        <ele>2392</ele>
        <time>2019-02-27T10:30:38Z</time>
      </trkpt>
      <trkpt lat="42.73916" lon="0.1738">
        <ele>2392</ele>
        <time>2019-02-27T10:30:39Z</time>
      </trkpt>
      <trkpt lat="42.73916" lon="0.1738">
        <ele>2393</ele>
        <time>2019-02-27T10:30:40Z</time>
      </trkpt>
      <trkpt lat="42.73916" lon="0.1738">
        <ele>2393</ele>
        <time>2019-02-27T10:30:41Z</time>
      </trkpt>
      <trkpt lat="42.73916" lon="0.1738">
        <ele>2393</ele>
        <time>2019-02-27T10:30:42Z</time>
      </trkpt>
      <trkpt lat="42.73916" lon="0.1738">
        <ele>2393</ele>
        <time>2019-02-27T10:30:43Z</time>
      </trkpt>
      <trkpt lat="42.73916" lon="0.1738">
        <ele>2393</ele>
        <time>2019-02-27T10:30:44Z</time>
      </trkpt>
      <trkpt lat="42.73916" lon="0.1738">
        <ele>2393</ele>
        <time>2019-02-27T10:30:45Z</time>
      </trkpt>
      <trkpt lat="42.73916" lon="0.1738">
        <ele>2393</ele>
        <time>2019-02-27T10:30:46Z</time>
      </trkpt>
      <trkpt lat="42.73916" lon="0.1738">
        <ele>2393</ele>
        <time>2019-02-27T10:30:47Z</time>
      </trkpt>
      <trkpt lat="42.73916" lon="0.1738">
        <ele>2393</ele>
        <time>2019-02-27T10:30:48Z</time>
      </trkpt>
      <trkpt lat="42.73916" lon="0.1738">
        <ele>2393</ele>
        <time>2019-02-27T10:30:49Z</time>
      </trkpt>
      <trkpt lat="42.73916" lon="0.1738">
        <ele>2393</ele>
        <time>2019-02-27T10:30:50Z</time>
      </trkpt>
      <trkpt lat="42.73916" lon="0.1738">
        <ele>2393</ele>
        <time>2019-02-27T10:30:51Z</time>
      </trkpt>
      <trkpt lat="42.73916" lon="0.1738">
        <ele>2393</ele>
        <time>2019-02-27T10:30:52Z</time>
      </trkpt>
      <trkpt lat="42.73916" lon="0.1738">
        <ele>2393</ele>
        <time>2019-02-27T10:30:53Z</time>
      </trkpt>
      <trkpt lat="42.73916" lon="0.1738">
        <ele>2393</ele>
        <time>2019-02-27T10:30:54Z</time>
      </trkpt>
      <trkpt lat="42.73916" lon="0.1738">
        <ele>2393</ele>
        <time>2019-02-27T10:30:55Z</time>
      </trkpt>
      <trkpt lat="42.73916" lon="0.1738">
        <ele>2393</ele>
        <time>2019-02-27T10:30:56Z</time>
      </trkpt>
      <trkpt lat="42.73916" lon="0.1738">
        <ele>2393</ele>
        <time>2019-02-27T10:30:57Z</time>
      </trkpt>
      <trkpt lat="42.73916" lon="0.1738">
        <ele>2393</ele>
        <time>2019-02-27T10:30:58Z</time>
      </trkpt>
      <trkpt lat="42.73916" lon="0.1738">
        <ele>2393</ele>
        <time>2019-02-27T10:30:59Z</time>
      </trkpt>
      <trkpt lat="42.73916" lon="0.1738">
        <ele>2393</ele>
        <time>2019-02-27T10:31:00Z</time>
      </trkpt>
      <trkpt lat="42.73916" lon="0.1738">
        <ele>2393</ele>
        <time>2019-02-27T10:31:01Z</time>
      </trkpt>
      <trkpt lat="42.73916" lon="0.1738">
        <ele>2393</ele>
        <time>2019-02-27T10:31:02Z</time>
      </trkpt>
      <trkpt lat="42.73916" lon="0.1738">
        <ele>2393</ele>
        <time>2019-02-27T10:31:03Z</time>
      </trkpt>
      <trkpt lat="42.73916" lon="0.1738">
        <ele>2393</ele>
        <time>2019-02-27T10:31:04Z</time>
      </trkpt>
      <trkpt lat="42.73916" lon="0.1738">
        <ele>2393</ele>
        <time>2019-02-27T10:31:05Z</time>
      </trkpt>
      <trkpt lat="42.73916" lon="0.1738">
        <ele>2393</ele>
        <time>2019-02-27T10:31:06Z</time>
      </trkpt>
      <trkpt lat="42.73916" lon="0.1738">
        <ele>2393</ele>
        <time>2019-02-27T10:31:07Z</time>
      </trkpt>
      <trkpt lat="42.73916" lon="0.1738">
        <ele>2393</ele>
        <time>2019-02-27T10:31:08Z</time>
      </trkpt>
      <trkpt lat="42.73916" lon="0.1738">
        <ele>2393</ele>
        <time>2019-02-27T10:31:09Z</time>
      </trkpt>
      <trkpt lat="42.73916" lon="0.1738">
        <ele>2393</ele>
        <time>2019-02-27T10:31:10Z</time>
      </trkpt>
      <trkpt lat="42.73916" lon="0.1738">
        <ele>2393</ele>
        <time>2019-02-27T10:31:11Z</time>
      </trkpt>
      <trkpt lat="42.73916" lon="0.1738">
        <ele>2393</ele>
        <time>2019-02-27T10:31:12Z</time>
      </trkpt>
      <trkpt lat="42.73916" lon="0.1738">
        <ele>2393</ele>
        <time>2019-02-27T10:31:13Z</time>
      </trkpt>
      <trkpt lat="42.73916" lon="0.1738">
        <ele>2393</ele>
        <time>2019-02-27T10:31:14Z</time>
      </trkpt>
      <trkpt lat="42.73916" lon="0.1738">
        <ele>2393</ele>
        <time>2019-02-27T10:31:15Z</time>
      </trkpt>
      <trkpt lat="42.73916" lon="0.1738">
        <ele>2393</ele>
        <time>2019-02-27T10:31:16Z</time>
      </trkpt>
      <trkpt lat="42.73916" lon="0.1738">
        <ele>2393</ele>
        <time>2019-02-27T10:31:17Z</time>
      </trkpt>
      <trkpt lat="42.73916" lon="0.1738">
        <ele>2393</ele>
        <time>2019-02-27T10:31:18Z</time>
      </trkpt>
      <trkpt lat="42.73916" lon="0.1738">
        <ele>2393</ele>
        <time>2019-02-27T10:31:19Z</time>
      </trkpt>
      <trkpt lat="42.73916" lon="0.1738">
        <ele>2393</ele>
        <time>2019-02-27T10:31:20Z</time>
      </trkpt>
      <trkpt lat="42.73916" lon="0.1738">
        <ele>2393</ele>
        <time>2019-02-27T10:31:21Z</time>
      </trkpt>
      <trkpt lat="42.73916" lon="0.1738">
        <ele>2393</ele>
        <time>2019-02-27T10:31:22Z</time>
      </trkpt>
      <trkpt lat="42.73916" lon="0.1738">
        <ele>2393</ele>
        <time>2019-02-27T10:31:23Z</time>
      </trkpt>
      <trkpt lat="42.73916" lon="0.1738">
        <ele>2393</ele>
        <time>2019-02-27T10:31:24Z</time>
      </trkpt>
      <trkpt lat="42.73916" lon="0.1738">
        <ele>2393</ele>
        <time>2019-02-27T10:31:25Z</time>
      </trkpt>
      <trkpt lat="42.73916" lon="0.1738">
        <ele>2393</ele>
        <time>2019-02-27T10:31:26Z</time>
      </trkpt>
      <trkpt lat="42.73916" lon="0.1738">
        <ele>2393</ele>
        <time>2019-02-27T10:31:27Z</time>
      </trkpt>
      <trkpt lat="42.73916" lon="0.1738">
        <ele>2393</ele>
        <time>2019-02-27T10:31:28Z</time>
      </trkpt>
      <trkpt lat="42.73916" lon="0.1738">
        <ele>2393</ele>
        <time>2019-02-27T10:31:29Z</time>
      </trkpt>
      <trkpt lat="42.73916" lon="0.1738">
        <ele>2393</ele>
        <time>2019-02-27T10:31:30Z</time>
      </trkpt>
      <trkpt lat="42.73916" lon="0.1738">
        <ele>2393</ele>
        <time>2019-02-27T10:31:31Z</time>
      </trkpt>
      <trkpt lat="42.73916" lon="0.1738">
        <ele>2393</ele>
        <time>2019-02-27T10:31:32Z</time>
      </trkpt>
      <trkpt lat="42.73916" lon="0.1738">
        <ele>2393</ele>
        <time>2019-02-27T10:31:33Z</time>
      </trkpt>
      <trkpt lat="42.73916" lon="0.1738">
        <ele>2393</ele>
        <time>2019-02-27T10:31:34Z</time>
      </trkpt>
      <trkpt lat="42.73916" lon="0.1738">
        <ele>2393</ele>
        <time>2019-02-27T10:31:35Z</time>
      </trkpt>
      <trkpt lat="42.73916" lon="0.1738">
        <ele>2393</ele>
        <time>2019-02-27T10:31:36Z</time>
      </trkpt>
      <trkpt lat="42.73916" lon="0.1738">
        <ele>2393</ele>
        <time>2019-02-27T10:31:37Z</time>
      </trkpt>
      <trkpt lat="42.73916" lon="0.1738">
        <ele>2393</ele>
        <time>2019-02-27T10:31:38Z</time>
      </trkpt>
      <trkpt lat="42.73916" lon="0.1738">
        <ele>2393</ele>
        <time>2019-02-27T10:31:39Z</time>
      </trkpt>
      <trkpt lat="42.73916" lon="0.1738">
        <ele>2393</ele>
        <time>2019-02-27T10:31:40Z</time>
      </trkpt>
      <trkpt lat="42.73916" lon="0.1738">
        <ele>2393</ele>
        <time>2019-02-27T10:31:41Z</time>
      </trkpt>
      <trkpt lat="42.73916" lon="0.1738">
        <ele>2392</ele>
        <time>2019-02-27T10:31:42Z</time>
      </trkpt>
      <trkpt lat="42.73916" lon="0.1738">
        <ele>2392</ele>
        <time>2019-02-27T10:31:43Z</time>
      </trkpt>
      <trkpt lat="42.73916" lon="0.1738">
        <ele>2393</ele>
        <time>2019-02-27T10:31:44Z</time>
      </trkpt>
      <trkpt lat="42.73916" lon="0.1738">
        <ele>2393</ele>
        <time>2019-02-27T10:31:45Z</time>
      </trkpt>
      <trkpt lat="42.73916" lon="0.1738">
        <ele>2393</ele>
        <time>2019-02-27T10:31:46Z</time>
      </trkpt>
      <trkpt lat="42.73916" lon="0.1738">
        <ele>2393</ele>
        <time>2019-02-27T10:31:47Z</time>
      </trkpt>
      <trkpt lat="42.73916" lon="0.1738">
        <ele>2393</ele>
        <time>2019-02-27T10:31:48Z</time>
      </trkpt>
      <trkpt lat="42.73916" lon="0.1738">
        <ele>2393</ele>
        <time>2019-02-27T10:31:49Z</time>
      </trkpt>
      <trkpt lat="42.73916" lon="0.1738">
        <ele>2393</ele>
        <time>2019-02-27T10:31:50Z</time>
      </trkpt>
      <trkpt lat="42.73917" lon="0.17382">
        <ele>2392</ele>
        <time>2019-02-27T10:31:51Z</time>
      </trkpt>
      <trkpt lat="42.73917" lon="0.17382">
        <ele>2392</ele>
        <time>2019-02-27T10:31:52Z</time>
      </trkpt>
      <trkpt lat="42.73917" lon="0.17382">
        <ele>2392</ele>
        <time>2019-02-27T10:31:53Z</time>
      </trkpt>
      <trkpt lat="42.73918" lon="0.17385">
        <ele>2392</ele>
        <time>2019-02-27T10:31:54Z</time>
      </trkpt>
      <trkpt lat="42.73918" lon="0.17385">
        <ele>2392</ele>
        <time>2019-02-27T10:31:55Z</time>
      </trkpt>
      <trkpt lat="42.73918" lon="0.17387">
        <ele>2392</ele>
        <time>2019-02-27T10:31:56Z</time>
      </trkpt>
      <trkpt lat="42.73918" lon="0.17387">
        <ele>2392</ele>
        <time>2019-02-27T10:31:57Z</time>
      </trkpt>
      <trkpt lat="42.73918" lon="0.17387">
        <ele>2392</ele>
        <time>2019-02-27T10:31:58Z</time>
      </trkpt>
      <trkpt lat="42.73918" lon="0.17391">
        <ele>2391</ele>
        <time>2019-02-27T10:31:59Z</time>
      </trkpt>
      <trkpt lat="42.73918" lon="0.17391">
        <ele>2391</ele>
        <time>2019-02-27T10:32:00Z</time>
      </trkpt>
      <trkpt lat="42.73918" lon="0.17391">
        <ele>2391</ele>
        <time>2019-02-27T10:32:01Z</time>
      </trkpt>
      <trkpt lat="42.73918" lon="0.17391">
        <ele>2391</ele>
        <time>2019-02-27T10:32:02Z</time>
      </trkpt>
      <trkpt lat="42.73918" lon="0.17391">
        <ele>2391</ele>
        <time>2019-02-27T10:32:03Z</time>
      </trkpt>
      <trkpt lat="42.73918" lon="0.17391">
        <ele>2391</ele>
        <time>2019-02-27T10:32:04Z</time>
      </trkpt>
      <trkpt lat="42.73918" lon="0.17391">
        <ele>2391</ele>
        <time>2019-02-27T10:32:05Z</time>
      </trkpt>
      <trkpt lat="42.73918" lon="0.17391">
        <ele>2391</ele>
        <time>2019-02-27T10:32:06Z</time>
      </trkpt>
      <trkpt lat="42.73918" lon="0.17391">
        <ele>2391</ele>
        <time>2019-02-27T10:32:07Z</time>
      </trkpt>
      <trkpt lat="42.73918" lon="0.17391">
        <ele>2391</ele>
        <time>2019-02-27T10:32:08Z</time>
      </trkpt>
      <trkpt lat="42.73918" lon="0.17391">
        <ele>2390</ele>
        <time>2019-02-27T10:32:09Z</time>
      </trkpt>
      <trkpt lat="42.73918" lon="0.17391">
        <ele>2388</ele>
        <time>2019-02-27T10:32:10Z</time>
      </trkpt>
      <trkpt lat="42.73918" lon="0.17391">
        <ele>2390</ele>
        <time>2019-02-27T10:32:11Z</time>
      </trkpt>
      <trkpt lat="42.73918" lon="0.17391">
        <ele>2390</ele>
        <time>2019-02-27T10:32:12Z</time>
      </trkpt>
      <trkpt lat="42.73918" lon="0.17391">
        <ele>2390</ele>
        <time>2019-02-27T10:32:13Z</time>
      </trkpt>
      <trkpt lat="42.73918" lon="0.17391">
        <ele>2390</ele>
        <time>2019-02-27T10:32:14Z</time>
      </trkpt>
      <trkpt lat="42.73918" lon="0.17391">
        <ele>2390</ele>
        <time>2019-02-27T10:32:15Z</time>
      </trkpt>
      <trkpt lat="42.73918" lon="0.17391">
        <ele>2390</ele>
        <time>2019-02-27T10:32:16Z</time>
      </trkpt>
      <trkpt lat="42.73918" lon="0.17391">
        <ele>2390</ele>
        <time>2019-02-27T10:32:17Z</time>
      </trkpt>
      <trkpt lat="42.73918" lon="0.17391">
        <ele>2390</ele>
        <time>2019-02-27T10:32:18Z</time>
      </trkpt>
      <trkpt lat="42.73918" lon="0.17391">
        <ele>2390</ele>
        <time>2019-02-27T10:32:19Z</time>
      </trkpt>
      <trkpt lat="42.73918" lon="0.17391">
        <ele>2390</ele>
        <time>2019-02-27T10:32:20Z</time>
      </trkpt>
      <trkpt lat="42.73918" lon="0.17391">
        <ele>2390</ele>
        <time>2019-02-27T10:32:21Z</time>
      </trkpt>
      <trkpt lat="42.73918" lon="0.17391">
        <ele>2390</ele>
        <time>2019-02-27T10:32:22Z</time>
      </trkpt>
      <trkpt lat="42.73918" lon="0.17391">
        <ele>2390</ele>
        <time>2019-02-27T10:32:23Z</time>
      </trkpt>
      <trkpt lat="42.73918" lon="0.17391">
        <ele>2390</ele>
        <time>2019-02-27T10:32:24Z</time>
      </trkpt>
      <trkpt lat="42.73918" lon="0.17391">
        <ele>2390</ele>
        <time>2019-02-27T10:32:25Z</time>
      </trkpt>
      <trkpt lat="42.73918" lon="0.17391">
        <ele>2391</ele>
        <time>2019-02-27T10:32:26Z</time>
      </trkpt>
      <trkpt lat="42.73918" lon="0.17391">
        <ele>2391</ele>
        <time>2019-02-27T10:32:27Z</time>
      </trkpt>
      <trkpt lat="42.73918" lon="0.17391">
        <ele>2391</ele>
        <time>2019-02-27T10:32:28Z</time>
      </trkpt>
      <trkpt lat="42.73918" lon="0.17391">
        <ele>2391</ele>
        <time>2019-02-27T10:32:29Z</time>
      </trkpt>
      <trkpt lat="42.73918" lon="0.17391">
        <ele>2391</ele>
        <time>2019-02-27T10:32:30Z</time>
      </trkpt>
      <trkpt lat="42.73918" lon="0.17391">
        <ele>2390</ele>
        <time>2019-02-27T10:32:31Z</time>
      </trkpt>
      <trkpt lat="42.73918" lon="0.17391">
        <ele>2390</ele>
        <time>2019-02-27T10:32:32Z</time>
      </trkpt>
      <trkpt lat="42.73918" lon="0.17391">
        <ele>2390</ele>
        <time>2019-02-27T10:32:33Z</time>
      </trkpt>
      <trkpt lat="42.73918" lon="0.17391">
        <ele>2390</ele>
        <time>2019-02-27T10:32:34Z</time>
      </trkpt>
      <trkpt lat="42.73918" lon="0.17391">
        <ele>2390</ele>
        <time>2019-02-27T10:32:35Z</time>
      </trkpt>
      <trkpt lat="42.73918" lon="0.17391">
        <ele>2391</ele>
        <time>2019-02-27T10:32:36Z</time>
      </trkpt>
      <trkpt lat="42.73918" lon="0.17391">
        <ele>2391</ele>
        <time>2019-02-27T10:32:37Z</time>
      </trkpt>
      <trkpt lat="42.73918" lon="0.17391">
        <ele>2390</ele>
        <time>2019-02-27T10:32:38Z</time>
      </trkpt>
      <trkpt lat="42.73918" lon="0.17391">
        <ele>2390</ele>
        <time>2019-02-27T10:32:39Z</time>
      </trkpt>
      <trkpt lat="42.73918" lon="0.17391">
        <ele>2390</ele>
        <time>2019-02-27T10:32:40Z</time>
      </trkpt>
      <trkpt lat="42.73918" lon="0.17391">
        <ele>2390</ele>
        <time>2019-02-27T10:32:41Z</time>
      </trkpt>
      <trkpt lat="42.73918" lon="0.17391">
        <ele>2391</ele>
        <time>2019-02-27T10:32:42Z</time>
      </trkpt>
      <trkpt lat="42.73918" lon="0.17391">
        <ele>2391</ele>
        <time>2019-02-27T10:32:43Z</time>
      </trkpt>
      <trkpt lat="42.73918" lon="0.17391">
        <ele>2391</ele>
        <time>2019-02-27T10:32:44Z</time>
      </trkpt>
      <trkpt lat="42.73918" lon="0.17391">
        <ele>2391</ele>
        <time>2019-02-27T10:32:45Z</time>
      </trkpt>
      <trkpt lat="42.73918" lon="0.17391">
        <ele>2391</ele>
        <time>2019-02-27T10:32:46Z</time>
      </trkpt>
      <trkpt lat="42.73918" lon="0.17391">
        <ele>2391</ele>
        <time>2019-02-27T10:32:47Z</time>
      </trkpt>
      <trkpt lat="42.73918" lon="0.17391">
        <ele>2391</ele>
        <time>2019-02-27T10:32:48Z</time>
      </trkpt>
      <trkpt lat="42.73918" lon="0.17391">
        <ele>2391</ele>
        <time>2019-02-27T10:32:49Z</time>
      </trkpt>
      <trkpt lat="42.73918" lon="0.17391">
        <ele>2391</ele>
        <time>2019-02-27T10:32:50Z</time>
      </trkpt>
      <trkpt lat="42.73918" lon="0.17391">
        <ele>2391</ele>
        <time>2019-02-27T10:32:51Z</time>
      </trkpt>
      <trkpt lat="42.73918" lon="0.17391">
        <ele>2391</ele>
        <time>2019-02-27T10:32:52Z</time>
      </trkpt>
      <trkpt lat="42.73918" lon="0.17391">
        <ele>2391</ele>
        <time>2019-02-27T10:32:53Z</time>
      </trkpt>
      <trkpt lat="42.73918" lon="0.17391">
        <ele>2391</ele>
        <time>2019-02-27T10:32:54Z</time>
      </trkpt>
      <trkpt lat="42.73918" lon="0.17391">
        <ele>2391</ele>
        <time>2019-02-27T10:32:55Z</time>
      </trkpt>
      <trkpt lat="42.73918" lon="0.17391">
        <ele>2390</ele>
        <time>2019-02-27T10:32:56Z</time>
      </trkpt>
      <trkpt lat="42.73916" lon="0.17391">
        <ele>2390</ele>
        <time>2019-02-27T10:32:57Z</time>
      </trkpt>
      <trkpt lat="42.73916" lon="0.17391">
        <ele>2390</ele>
        <time>2019-02-27T10:32:58Z</time>
      </trkpt>
      <trkpt lat="42.73916" lon="0.17391">
        <ele>2390</ele>
        <time>2019-02-27T10:32:59Z</time>
      </trkpt>
      <trkpt lat="42.73916" lon="0.17391">
        <ele>2390</ele>
        <time>2019-02-27T10:33:00Z</time>
      </trkpt>
      <trkpt lat="42.73916" lon="0.17391">
        <ele>2390</ele>
        <time>2019-02-27T10:33:01Z</time>
      </trkpt>
      <trkpt lat="42.73916" lon="0.17391">
        <ele>2390</ele>
        <time>2019-02-27T10:33:02Z</time>
      </trkpt>
      <trkpt lat="42.73916" lon="0.17391">
        <ele>2390</ele>
        <time>2019-02-27T10:33:03Z</time>
      </trkpt>
      <trkpt lat="42.73916" lon="0.17391">
        <ele>2390</ele>
        <time>2019-02-27T10:33:04Z</time>
      </trkpt>
      <trkpt lat="42.73916" lon="0.17391">
        <ele>2390</ele>
        <time>2019-02-27T10:33:05Z</time>
      </trkpt>
      <trkpt lat="42.73916" lon="0.17391">
        <ele>2390</ele>
        <time>2019-02-27T10:33:06Z</time>
      </trkpt>
      <trkpt lat="42.73916" lon="0.17391">
        <ele>2390</ele>
        <time>2019-02-27T10:33:07Z</time>
      </trkpt>
      <trkpt lat="42.73916" lon="0.17391">
        <ele>2390</ele>
        <time>2019-02-27T10:33:08Z</time>
      </trkpt>
      <trkpt lat="42.73916" lon="0.17391">
        <ele>2390</ele>
        <time>2019-02-27T10:33:09Z</time>
      </trkpt>
      <trkpt lat="42.73916" lon="0.17391">
        <ele>2390</ele>
        <time>2019-02-27T10:33:10Z</time>
      </trkpt>
      <trkpt lat="42.73916" lon="0.17391">
        <ele>2390</ele>
        <time>2019-02-27T10:33:11Z</time>
      </trkpt>
      <trkpt lat="42.73916" lon="0.17391">
        <ele>2390</ele>
        <time>2019-02-27T10:33:12Z</time>
      </trkpt>
      <trkpt lat="42.73916" lon="0.17391">
        <ele>2390</ele>
        <time>2019-02-27T10:33:13Z</time>
      </trkpt>
      <trkpt lat="42.73916" lon="0.17391">
        <ele>2390</ele>
        <time>2019-02-27T10:33:14Z</time>
      </trkpt>
      <trkpt lat="42.73916" lon="0.17391">
        <ele>2390</ele>
        <time>2019-02-27T10:33:15Z</time>
      </trkpt>
      <trkpt lat="42.73916" lon="0.17391">
        <ele>2391</ele>
        <time>2019-02-27T10:33:16Z</time>
      </trkpt>
      <trkpt lat="42.73916" lon="0.17391">
        <ele>2391</ele>
        <time>2019-02-27T10:33:17Z</time>
      </trkpt>
      <trkpt lat="42.73916" lon="0.17391">
        <ele>2391</ele>
        <time>2019-02-27T10:33:18Z</time>
      </trkpt>
      <trkpt lat="42.73916" lon="0.17391">
        <ele>2391</ele>
        <time>2019-02-27T10:33:19Z</time>
      </trkpt>
      <trkpt lat="42.73916" lon="0.17391">
        <ele>2391</ele>
        <time>2019-02-27T10:33:20Z</time>
      </trkpt>
      <trkpt lat="42.73916" lon="0.17391">
        <ele>2391</ele>
        <time>2019-02-27T10:33:21Z</time>
      </trkpt>
      <trkpt lat="42.73916" lon="0.17391">
        <ele>2391</ele>
        <time>2019-02-27T10:33:22Z</time>
      </trkpt>
      <trkpt lat="42.73916" lon="0.17391">
        <ele>2391</ele>
        <time>2019-02-27T10:33:23Z</time>
      </trkpt>
      <trkpt lat="42.73916" lon="0.17391">
        <ele>2391</ele>
        <time>2019-02-27T10:33:24Z</time>
      </trkpt>
      <trkpt lat="42.73916" lon="0.17391">
        <ele>2391</ele>
        <time>2019-02-27T10:33:25Z</time>
      </trkpt>
      <trkpt lat="42.73916" lon="0.17391">
        <ele>2391</ele>
        <time>2019-02-27T10:33:26Z</time>
      </trkpt>
      <trkpt lat="42.73916" lon="0.17391">
        <ele>2391</ele>
        <time>2019-02-27T10:33:27Z</time>
      </trkpt>
      <trkpt lat="42.73916" lon="0.17391">
        <ele>2390</ele>
        <time>2019-02-27T10:33:28Z</time>
      </trkpt>
      <trkpt lat="42.73916" lon="0.17391">
        <ele>2390</ele>
        <time>2019-02-27T10:33:29Z</time>
      </trkpt>
      <trkpt lat="42.73916" lon="0.17391">
        <ele>2390</ele>
        <time>2019-02-27T10:33:30Z</time>
      </trkpt>
      <trkpt lat="42.73916" lon="0.17391">
        <ele>2390</ele>
        <time>2019-02-27T10:33:31Z</time>
      </trkpt>
      <trkpt lat="42.73916" lon="0.17391">
        <ele>2390</ele>
        <time>2019-02-27T10:33:32Z</time>
      </trkpt>
      <trkpt lat="42.73916" lon="0.17391">
        <ele>2390</ele>
        <time>2019-02-27T10:33:33Z</time>
      </trkpt>
      <trkpt lat="42.73916" lon="0.17391">
        <ele>2391</ele>
        <time>2019-02-27T10:33:34Z</time>
      </trkpt>
      <trkpt lat="42.73916" lon="0.17391">
        <ele>2391</ele>
        <time>2019-02-27T10:33:35Z</time>
      </trkpt>
      <trkpt lat="42.73916" lon="0.17391">
        <ele>2391</ele>
        <time>2019-02-27T10:33:36Z</time>
      </trkpt>
      <trkpt lat="42.73916" lon="0.17391">
        <ele>2391</ele>
        <time>2019-02-27T10:33:37Z</time>
      </trkpt>
      <trkpt lat="42.73916" lon="0.17391">
        <ele>2391</ele>
        <time>2019-02-27T10:33:38Z</time>
      </trkpt>
      <trkpt lat="42.73916" lon="0.17391">
        <ele>2391</ele>
        <time>2019-02-27T10:33:39Z</time>
      </trkpt>
      <trkpt lat="42.73916" lon="0.17391">
        <ele>2391</ele>
        <time>2019-02-27T10:33:40Z</time>
      </trkpt>
      <trkpt lat="42.73916" lon="0.17391">
        <ele>2391</ele>
        <time>2019-02-27T10:33:41Z</time>
      </trkpt>
      <trkpt lat="42.73916" lon="0.17391">
        <ele>2391</ele>
        <time>2019-02-27T10:33:42Z</time>
      </trkpt>
      <trkpt lat="42.73916" lon="0.17391">
        <ele>2390</ele>
        <time>2019-02-27T10:33:43Z</time>
      </trkpt>
      <trkpt lat="42.73916" lon="0.17391">
        <ele>2390</ele>
        <time>2019-02-27T10:33:44Z</time>
      </trkpt>
      <trkpt lat="42.73916" lon="0.17391">
        <ele>2390</ele>
        <time>2019-02-27T10:33:45Z</time>
      </trkpt>
      <trkpt lat="42.73916" lon="0.17391">
        <ele>2388</ele>
        <time>2019-02-27T10:33:46Z</time>
      </trkpt>
      <trkpt lat="42.73916" lon="0.17391">
        <ele>2388</ele>
        <time>2019-02-27T10:33:47Z</time>
      </trkpt>
      <trkpt lat="42.73916" lon="0.17391">
        <ele>2388</ele>
        <time>2019-02-27T10:33:48Z</time>
      </trkpt>
      <trkpt lat="42.73916" lon="0.17391">
        <ele>2388</ele>
        <time>2019-02-27T10:33:49Z</time>
      </trkpt>
      <trkpt lat="42.73916" lon="0.17391">
        <ele>2388</ele>
        <time>2019-02-27T10:33:50Z</time>
      </trkpt>
      <trkpt lat="42.73916" lon="0.17391">
        <ele>2390</ele>
        <time>2019-02-27T10:33:51Z</time>
      </trkpt>
      <trkpt lat="42.73916" lon="0.17391">
        <ele>2390</ele>
        <time>2019-02-27T10:33:52Z</time>
      </trkpt>
      <trkpt lat="42.73916" lon="0.17391">
        <ele>2390</ele>
        <time>2019-02-27T10:33:53Z</time>
      </trkpt>
      <trkpt lat="42.73916" lon="0.17391">
        <ele>2390</ele>
        <time>2019-02-27T10:33:54Z</time>
      </trkpt>
      <trkpt lat="42.73916" lon="0.17391">
        <ele>2390</ele>
        <time>2019-02-27T10:33:55Z</time>
      </trkpt>
      <trkpt lat="42.73916" lon="0.17391">
        <ele>2390</ele>
        <time>2019-02-27T10:33:56Z</time>
      </trkpt>
      <trkpt lat="42.73916" lon="0.17391">
        <ele>2390</ele>
        <time>2019-02-27T10:33:57Z</time>
      </trkpt>
      <trkpt lat="42.73916" lon="0.17391">
        <ele>2390</ele>
        <time>2019-02-27T10:33:58Z</time>
      </trkpt>
      <trkpt lat="42.73916" lon="0.17391">
        <ele>2390</ele>
        <time>2019-02-27T10:33:59Z</time>
      </trkpt>
      <trkpt lat="42.73916" lon="0.17391">
        <ele>2390</ele>
        <time>2019-02-27T10:34:00Z</time>
      </trkpt>
      <trkpt lat="42.73916" lon="0.17391">
        <ele>2390</ele>
        <time>2019-02-27T10:34:01Z</time>
      </trkpt>
      <trkpt lat="42.73916" lon="0.17391">
        <ele>2390</ele>
        <time>2019-02-27T10:34:02Z</time>
      </trkpt>
      <trkpt lat="42.73916" lon="0.17391">
        <ele>2390</ele>
        <time>2019-02-27T10:34:03Z</time>
      </trkpt>
      <trkpt lat="42.73916" lon="0.17391">
        <ele>2390</ele>
        <time>2019-02-27T10:34:04Z</time>
      </trkpt>
      <trkpt lat="42.73916" lon="0.17391">
        <ele>2390</ele>
        <time>2019-02-27T10:34:05Z</time>
      </trkpt>
      <trkpt lat="42.73916" lon="0.17391">
        <ele>2390</ele>
        <time>2019-02-27T10:34:06Z</time>
      </trkpt>
      <trkpt lat="42.73916" lon="0.17391">
        <ele>2390</ele>
        <time>2019-02-27T10:34:07Z</time>
      </trkpt>
      <trkpt lat="42.73916" lon="0.17391">
        <ele>2390</ele>
        <time>2019-02-27T10:34:08Z</time>
      </trkpt>
      <trkpt lat="42.73916" lon="0.17391">
        <ele>2390</ele>
        <time>2019-02-27T10:34:09Z</time>
      </trkpt>
      <trkpt lat="42.73916" lon="0.17391">
        <ele>2390</ele>
        <time>2019-02-27T10:34:10Z</time>
      </trkpt>
      <trkpt lat="42.73916" lon="0.17391">
        <ele>2390</ele>
        <time>2019-02-27T10:34:11Z</time>
      </trkpt>
      <trkpt lat="42.73916" lon="0.17391">
        <ele>2390</ele>
        <time>2019-02-27T10:34:12Z</time>
      </trkpt>
      <trkpt lat="42.73916" lon="0.17391">
        <ele>2390</ele>
        <time>2019-02-27T10:34:13Z</time>
      </trkpt>
      <trkpt lat="42.73916" lon="0.17391">
        <ele>2390</ele>
        <time>2019-02-27T10:34:14Z</time>
      </trkpt>
      <trkpt lat="42.73916" lon="0.17391">
        <ele>2390</ele>
        <time>2019-02-27T10:34:15Z</time>
      </trkpt>
      <trkpt lat="42.73916" lon="0.17391">
        <ele>2390</ele>
        <time>2019-02-27T10:34:16Z</time>
      </trkpt>
      <trkpt lat="42.73916" lon="0.17391">
        <ele>2390</ele>
        <time>2019-02-27T10:34:17Z</time>
      </trkpt>
      <trkpt lat="42.73916" lon="0.17391">
        <ele>2390</ele>
        <time>2019-02-27T10:34:18Z</time>
      </trkpt>
      <trkpt lat="42.73916" lon="0.17391">
        <ele>2390</ele>
        <time>2019-02-27T10:34:19Z</time>
      </trkpt>
      <trkpt lat="42.73916" lon="0.17391">
        <ele>2390</ele>
        <time>2019-02-27T10:34:20Z</time>
      </trkpt>
      <trkpt lat="42.73916" lon="0.17391">
        <ele>2390</ele>
        <time>2019-02-27T10:34:21Z</time>
      </trkpt>
      <trkpt lat="42.73916" lon="0.17391">
        <ele>2390</ele>
        <time>2019-02-27T10:34:22Z</time>
      </trkpt>
      <trkpt lat="42.73916" lon="0.17391">
        <ele>2390</ele>
        <time>2019-02-27T10:34:23Z</time>
      </trkpt>
      <trkpt lat="42.73916" lon="0.17391">
        <ele>2390</ele>
        <time>2019-02-27T10:34:24Z</time>
      </trkpt>
      <trkpt lat="42.73916" lon="0.17391">
        <ele>2390</ele>
        <time>2019-02-27T10:34:25Z</time>
      </trkpt>
      <trkpt lat="42.73916" lon="0.17391">
        <ele>2390</ele>
        <time>2019-02-27T10:34:26Z</time>
      </trkpt>
      <trkpt lat="42.73916" lon="0.17391">
        <ele>2390</ele>
        <time>2019-02-27T10:34:27Z</time>
      </trkpt>
      <trkpt lat="42.73916" lon="0.17391">
        <ele>2390</ele>
        <time>2019-02-27T10:34:28Z</time>
      </trkpt>
      <trkpt lat="42.73916" lon="0.17391">
        <ele>2390</ele>
        <time>2019-02-27T10:34:29Z</time>
      </trkpt>
      <trkpt lat="42.73916" lon="0.17391">
        <ele>2390</ele>
        <time>2019-02-27T10:34:30Z</time>
      </trkpt>
      <trkpt lat="42.73916" lon="0.17391">
        <ele>2390</ele>
        <time>2019-02-27T10:34:31Z</time>
      </trkpt>
      <trkpt lat="42.73916" lon="0.17391">
        <ele>2390</ele>
        <time>2019-02-27T10:34:32Z</time>
      </trkpt>
      <trkpt lat="42.73916" lon="0.17391">
        <ele>2390</ele>
        <time>2019-02-27T10:34:33Z</time>
      </trkpt>
      <trkpt lat="42.73916" lon="0.17391">
        <ele>2390</ele>
        <time>2019-02-27T10:34:34Z</time>
      </trkpt>
      <trkpt lat="42.73916" lon="0.17391">
        <ele>2390</ele>
        <time>2019-02-27T10:34:35Z</time>
      </trkpt>
      <trkpt lat="42.73916" lon="0.17391">
        <ele>2390</ele>
        <time>2019-02-27T10:34:36Z</time>
      </trkpt>
      <trkpt lat="42.73916" lon="0.17391">
        <ele>2390</ele>
        <time>2019-02-27T10:34:37Z</time>
      </trkpt>
      <trkpt lat="42.73916" lon="0.17391">
        <ele>2390</ele>
        <time>2019-02-27T10:34:38Z</time>
      </trkpt>
      <trkpt lat="42.73916" lon="0.17391">
        <ele>2390</ele>
        <time>2019-02-27T10:34:39Z</time>
      </trkpt>
      <trkpt lat="42.73916" lon="0.17391">
        <ele>2390</ele>
        <time>2019-02-27T10:34:40Z</time>
      </trkpt>
      <trkpt lat="42.73916" lon="0.17391">
        <ele>2390</ele>
        <time>2019-02-27T10:34:41Z</time>
      </trkpt>
      <trkpt lat="42.73916" lon="0.17391">
        <ele>2390</ele>
        <time>2019-02-27T10:34:42Z</time>
      </trkpt>
      <trkpt lat="42.73916" lon="0.17391">
        <ele>2390</ele>
        <time>2019-02-27T10:34:43Z</time>
      </trkpt>
      <trkpt lat="42.73916" lon="0.17391">
        <ele>2390</ele>
        <time>2019-02-27T10:34:44Z</time>
      </trkpt>
      <trkpt lat="42.73916" lon="0.17391">
        <ele>2391</ele>
        <time>2019-02-27T10:34:45Z</time>
      </trkpt>
      <trkpt lat="42.73916" lon="0.17391">
        <ele>2391</ele>
        <time>2019-02-27T10:34:46Z</time>
      </trkpt>
      <trkpt lat="42.73916" lon="0.17391">
        <ele>2391</ele>
        <time>2019-02-27T10:34:47Z</time>
      </trkpt>
      <trkpt lat="42.73916" lon="0.17391">
        <ele>2391</ele>
        <time>2019-02-27T10:34:48Z</time>
      </trkpt>
      <trkpt lat="42.73916" lon="0.17391">
        <ele>2391</ele>
        <time>2019-02-27T10:34:49Z</time>
      </trkpt>
      <trkpt lat="42.73916" lon="0.17391">
        <ele>2391</ele>
        <time>2019-02-27T10:34:50Z</time>
      </trkpt>
      <trkpt lat="42.73916" lon="0.17391">
        <ele>2391</ele>
        <time>2019-02-27T10:34:51Z</time>
      </trkpt>
      <trkpt lat="42.73916" lon="0.17391">
        <ele>2391</ele>
        <time>2019-02-27T10:34:52Z</time>
      </trkpt>
      <trkpt lat="42.73916" lon="0.17391">
        <ele>2391</ele>
        <time>2019-02-27T10:34:53Z</time>
      </trkpt>
      <trkpt lat="42.73916" lon="0.17391">
        <ele>2391</ele>
        <time>2019-02-27T10:34:54Z</time>
      </trkpt>
      <trkpt lat="42.73916" lon="0.17391">
        <ele>2391</ele>
        <time>2019-02-27T10:34:55Z</time>
      </trkpt>
      <trkpt lat="42.73916" lon="0.17391">
        <ele>2391</ele>
        <time>2019-02-27T10:34:56Z</time>
      </trkpt>
      <trkpt lat="42.73916" lon="0.17391">
        <ele>2391</ele>
        <time>2019-02-27T10:34:57Z</time>
      </trkpt>
      <trkpt lat="42.73916" lon="0.17391">
        <ele>2391</ele>
        <time>2019-02-27T10:34:58Z</time>
      </trkpt>
      <trkpt lat="42.73916" lon="0.17391">
        <ele>2391</ele>
        <time>2019-02-27T10:34:59Z</time>
      </trkpt>
      <trkpt lat="42.73916" lon="0.17391">
        <ele>2391</ele>
        <time>2019-02-27T10:35:00Z</time>
      </trkpt>
      <trkpt lat="42.73916" lon="0.17391">
        <ele>2391</ele>
        <time>2019-02-27T10:35:01Z</time>
      </trkpt>
      <trkpt lat="42.73916" lon="0.17391">
        <ele>2391</ele>
        <time>2019-02-27T10:35:02Z</time>
      </trkpt>
      <trkpt lat="42.73916" lon="0.17391">
        <ele>2391</ele>
        <time>2019-02-27T10:35:03Z</time>
      </trkpt>
      <trkpt lat="42.73916" lon="0.17391">
        <ele>2391</ele>
        <time>2019-02-27T10:35:04Z</time>
      </trkpt>
      <trkpt lat="42.73916" lon="0.17391">
        <ele>2391</ele>
        <time>2019-02-27T10:35:05Z</time>
      </trkpt>
      <trkpt lat="42.73916" lon="0.17391">
        <ele>2391</ele>
        <time>2019-02-27T10:35:06Z</time>
      </trkpt>
      <trkpt lat="42.73916" lon="0.17391">
        <ele>2391</ele>
        <time>2019-02-27T10:35:07Z</time>
      </trkpt>
      <trkpt lat="42.73916" lon="0.17391">
        <ele>2391</ele>
        <time>2019-02-27T10:35:08Z</time>
      </trkpt>
      <trkpt lat="42.73916" lon="0.17391">
        <ele>2391</ele>
        <time>2019-02-27T10:35:09Z</time>
      </trkpt>
      <trkpt lat="42.73916" lon="0.17391">
        <ele>2391</ele>
        <time>2019-02-27T10:35:10Z</time>
      </trkpt>
      <trkpt lat="42.73916" lon="0.17391">
        <ele>2391</ele>
        <time>2019-02-27T10:35:11Z</time>
      </trkpt>
      <trkpt lat="42.73916" lon="0.17391">
        <ele>2391</ele>
        <time>2019-02-27T10:35:12Z</time>
      </trkpt>
      <trkpt lat="42.73916" lon="0.17391">
        <ele>2391</ele>
        <time>2019-02-27T10:35:13Z</time>
      </trkpt>
      <trkpt lat="42.73916" lon="0.17391">
        <ele>2391</ele>
        <time>2019-02-27T10:35:14Z</time>
      </trkpt>
      <trkpt lat="42.73916" lon="0.17391">
        <ele>2391</ele>
        <time>2019-02-27T10:35:15Z</time>
      </trkpt>
      <trkpt lat="42.73916" lon="0.17391">
        <ele>2391</ele>
        <time>2019-02-27T10:35:16Z</time>
      </trkpt>
      <trkpt lat="42.73916" lon="0.17391">
        <ele>2391</ele>
        <time>2019-02-27T10:35:17Z</time>
      </trkpt>
      <trkpt lat="42.73916" lon="0.17391">
        <ele>2391</ele>
        <time>2019-02-27T10:35:18Z</time>
      </trkpt>
      <trkpt lat="42.73916" lon="0.17391">
        <ele>2391</ele>
        <time>2019-02-27T10:35:19Z</time>
      </trkpt>
      <trkpt lat="42.73916" lon="0.17391">
        <ele>2390</ele>
        <time>2019-02-27T10:35:20Z</time>
      </trkpt>
      <trkpt lat="42.73917" lon="0.17389">
        <ele>2390</ele>
        <time>2019-02-27T10:35:21Z</time>
      </trkpt>
      <trkpt lat="42.73917" lon="0.17389">
        <ele>2390</ele>
        <time>2019-02-27T10:35:22Z</time>
      </trkpt>
      <trkpt lat="42.73917" lon="0.17389">
        <ele>2391</ele>
        <time>2019-02-27T10:35:23Z</time>
      </trkpt>
      <trkpt lat="42.73919" lon="0.17388">
        <ele>2391</ele>
        <time>2019-02-27T10:35:24Z</time>
      </trkpt>
      <trkpt lat="42.73919" lon="0.17388">
        <ele>2392</ele>
        <time>2019-02-27T10:35:25Z</time>
      </trkpt>
      <trkpt lat="42.73919" lon="0.17388">
        <ele>2392</ele>
        <time>2019-02-27T10:35:26Z</time>
      </trkpt>
      <trkpt lat="42.73919" lon="0.17388">
        <ele>2391</ele>
        <time>2019-02-27T10:35:27Z</time>
      </trkpt>
      <trkpt lat="42.73919" lon="0.17388">
        <ele>2391</ele>
        <time>2019-02-27T10:35:28Z</time>
      </trkpt>
      <trkpt lat="42.73921" lon="0.17386">
        <ele>2391</ele>
        <time>2019-02-27T10:35:29Z</time>
      </trkpt>
      <trkpt lat="42.73921" lon="0.17386">
        <ele>2391</ele>
        <time>2019-02-27T10:35:30Z</time>
      </trkpt>
      <trkpt lat="42.73921" lon="0.17386">
        <ele>2391</ele>
        <time>2019-02-27T10:35:31Z</time>
      </trkpt>
      <trkpt lat="42.73921" lon="0.17386">
        <ele>2391</ele>
        <time>2019-02-27T10:35:32Z</time>
      </trkpt>
      <trkpt lat="42.73921" lon="0.17386">
        <ele>2391</ele>
        <time>2019-02-27T10:35:33Z</time>
      </trkpt>
      <trkpt lat="42.73922" lon="0.17384">
        <ele>2392</ele>
        <time>2019-02-27T10:35:34Z</time>
      </trkpt>
      <trkpt lat="42.73922" lon="0.17384">
        <ele>2392</ele>
        <time>2019-02-27T10:35:35Z</time>
      </trkpt>
      <trkpt lat="42.73922" lon="0.17384">
        <ele>2392</ele>
        <time>2019-02-27T10:35:36Z</time>
      </trkpt>
      <trkpt lat="42.73922" lon="0.17384">
        <ele>2392</ele>
        <time>2019-02-27T10:35:37Z</time>
      </trkpt>
      <trkpt lat="42.73922" lon="0.17384">
        <ele>2392</ele>
        <time>2019-02-27T10:35:38Z</time>
      </trkpt>
      <trkpt lat="42.73923" lon="0.17382">
        <ele>2392</ele>
        <time>2019-02-27T10:35:39Z</time>
      </trkpt>
      <trkpt lat="42.73923" lon="0.17382">
        <ele>2392</ele>
        <time>2019-02-27T10:35:40Z</time>
      </trkpt>
      <trkpt lat="42.73923" lon="0.17382">
        <ele>2392</ele>
        <time>2019-02-27T10:35:41Z</time>
      </trkpt>
      <trkpt lat="42.73923" lon="0.17382">
        <ele>2392</ele>
        <time>2019-02-27T10:35:42Z</time>
      </trkpt>
      <trkpt lat="42.73923" lon="0.17382">
        <ele>2392</ele>
        <time>2019-02-27T10:35:43Z</time>
      </trkpt>
      <trkpt lat="42.73923" lon="0.17382">
        <ele>2393</ele>
        <time>2019-02-27T10:35:44Z</time>
      </trkpt>
      <trkpt lat="42.73923" lon="0.17382">
        <ele>2393</ele>
        <time>2019-02-27T10:35:45Z</time>
      </trkpt>
      <trkpt lat="42.73923" lon="0.17382">
        <ele>2393</ele>
        <time>2019-02-27T10:35:46Z</time>
      </trkpt>
      <trkpt lat="42.73923" lon="0.17382">
        <ele>2393</ele>
        <time>2019-02-27T10:35:47Z</time>
      </trkpt>
      <trkpt lat="42.73923" lon="0.17382">
        <ele>2393</ele>
        <time>2019-02-27T10:35:48Z</time>
      </trkpt>
      <trkpt lat="42.73923" lon="0.17382">
        <ele>2393</ele>
        <time>2019-02-27T10:35:49Z</time>
      </trkpt>
      <trkpt lat="42.73923" lon="0.17382">
        <ele>2393</ele>
        <time>2019-02-27T10:35:50Z</time>
      </trkpt>
      <trkpt lat="42.73924" lon="0.1738">
        <ele>2393</ele>
        <time>2019-02-27T10:35:51Z</time>
      </trkpt>
      <trkpt lat="42.73924" lon="0.1738">
        <ele>2393</ele>
        <time>2019-02-27T10:35:52Z</time>
      </trkpt>
      <trkpt lat="42.73924" lon="0.1738">
        <ele>2393</ele>
        <time>2019-02-27T10:35:53Z</time>
      </trkpt>
      <trkpt lat="42.73924" lon="0.1738">
        <ele>2393</ele>
        <time>2019-02-27T10:35:54Z</time>
      </trkpt>
      <trkpt lat="42.73926" lon="0.17378">
        <ele>2393</ele>
        <time>2019-02-27T10:35:55Z</time>
      </trkpt>
      <trkpt lat="42.73926" lon="0.17378">
        <ele>2393</ele>
        <time>2019-02-27T10:35:56Z</time>
      </trkpt>
      <trkpt lat="42.73926" lon="0.17378">
        <ele>2393</ele>
        <time>2019-02-27T10:35:57Z</time>
      </trkpt>
      <trkpt lat="42.73927" lon="0.17376">
        <ele>2393</ele>
        <time>2019-02-27T10:35:58Z</time>
      </trkpt>
      <trkpt lat="42.73927" lon="0.17376">
        <ele>2393</ele>
        <time>2019-02-27T10:35:59Z</time>
      </trkpt>
      <trkpt lat="42.73927" lon="0.17376">
        <ele>2393</ele>
        <time>2019-02-27T10:36:00Z</time>
      </trkpt>
      <trkpt lat="42.73927" lon="0.17376">
        <ele>2392</ele>
        <time>2019-02-27T10:36:01Z</time>
      </trkpt>
      <trkpt lat="42.73927" lon="0.17376">
        <ele>2393</ele>
        <time>2019-02-27T10:36:02Z</time>
      </trkpt>
      <trkpt lat="42.73928" lon="0.17373">
        <ele>2393</ele>
        <time>2019-02-27T10:36:03Z</time>
      </trkpt>
      <trkpt lat="42.73928" lon="0.17373">
        <ele>2393</ele>
        <time>2019-02-27T10:36:04Z</time>
      </trkpt>
      <trkpt lat="42.73928" lon="0.17373">
        <ele>2393</ele>
        <time>2019-02-27T10:36:05Z</time>
      </trkpt>
      <trkpt lat="42.73928" lon="0.17373">
        <ele>2393</ele>
        <time>2019-02-27T10:36:06Z</time>
      </trkpt>
      <trkpt lat="42.73928" lon="0.17373">
        <ele>2393</ele>
        <time>2019-02-27T10:36:07Z</time>
      </trkpt>
      <trkpt lat="42.73928" lon="0.17373">
        <ele>2393</ele>
        <time>2019-02-27T10:36:08Z</time>
      </trkpt>
      <trkpt lat="42.73928" lon="0.17373">
        <ele>2393</ele>
        <time>2019-02-27T10:36:09Z</time>
      </trkpt>
      <trkpt lat="42.73928" lon="0.17373">
        <ele>2393</ele>
        <time>2019-02-27T10:36:10Z</time>
      </trkpt>
      <trkpt lat="42.73928" lon="0.17373">
        <ele>2393</ele>
        <time>2019-02-27T10:36:11Z</time>
      </trkpt>
      <trkpt lat="42.73928" lon="0.17373">
        <ele>2393</ele>
        <time>2019-02-27T10:36:12Z</time>
      </trkpt>
      <trkpt lat="42.73928" lon="0.17373">
        <ele>2393</ele>
        <time>2019-02-27T10:36:13Z</time>
      </trkpt>
      <trkpt lat="42.73928" lon="0.17373">
        <ele>2393</ele>
        <time>2019-02-27T10:36:14Z</time>
      </trkpt>
      <trkpt lat="42.73928" lon="0.17373">
        <ele>2393</ele>
        <time>2019-02-27T10:36:15Z</time>
      </trkpt>
      <trkpt lat="42.73928" lon="0.17373">
        <ele>2393</ele>
        <time>2019-02-27T10:36:16Z</time>
      </trkpt>
      <trkpt lat="42.73928" lon="0.17373">
        <ele>2393</ele>
        <time>2019-02-27T10:36:17Z</time>
      </trkpt>
      <trkpt lat="42.73928" lon="0.17373">
        <ele>2393</ele>
        <time>2019-02-27T10:36:18Z</time>
      </trkpt>
      <trkpt lat="42.73928" lon="0.17373">
        <ele>2393</ele>
        <time>2019-02-27T10:36:19Z</time>
      </trkpt>
      <trkpt lat="42.73928" lon="0.17373">
        <ele>2393</ele>
        <time>2019-02-27T10:36:20Z</time>
      </trkpt>
      <trkpt lat="42.73928" lon="0.17373">
        <ele>2393</ele>
        <time>2019-02-27T10:36:21Z</time>
      </trkpt>
      <trkpt lat="42.73928" lon="0.17373">
        <ele>2393</ele>
        <time>2019-02-27T10:36:22Z</time>
      </trkpt>
      <trkpt lat="42.73928" lon="0.17373">
        <ele>2393</ele>
        <time>2019-02-27T10:36:23Z</time>
      </trkpt>
      <trkpt lat="42.73928" lon="0.17373">
        <ele>2393</ele>
        <time>2019-02-27T10:36:24Z</time>
      </trkpt>
      <trkpt lat="42.73928" lon="0.17373">
        <ele>2393</ele>
        <time>2019-02-27T10:36:25Z</time>
      </trkpt>
      <trkpt lat="42.73928" lon="0.17373">
        <ele>2393</ele>
        <time>2019-02-27T10:36:26Z</time>
      </trkpt>
      <trkpt lat="42.73928" lon="0.17373">
        <ele>2393</ele>
        <time>2019-02-27T10:36:27Z</time>
      </trkpt>
      <trkpt lat="42.73928" lon="0.17373">
        <ele>2393</ele>
        <time>2019-02-27T10:36:28Z</time>
      </trkpt>
      <trkpt lat="42.73928" lon="0.17373">
        <ele>2393</ele>
        <time>2019-02-27T10:36:29Z</time>
      </trkpt>
      <trkpt lat="42.73928" lon="0.17373">
        <ele>2393</ele>
        <time>2019-02-27T10:36:30Z</time>
      </trkpt>
      <trkpt lat="42.73928" lon="0.17373">
        <ele>2393</ele>
        <time>2019-02-27T10:36:31Z</time>
      </trkpt>
      <trkpt lat="42.73928" lon="0.17373">
        <ele>2393</ele>
        <time>2019-02-27T10:36:32Z</time>
      </trkpt>
      <trkpt lat="42.73928" lon="0.17373">
        <ele>2393</ele>
        <time>2019-02-27T10:36:33Z</time>
      </trkpt>
      <trkpt lat="42.73928" lon="0.17373">
        <ele>2393</ele>
        <time>2019-02-27T10:36:34Z</time>
      </trkpt>
      <trkpt lat="42.73928" lon="0.17373">
        <ele>2393</ele>
        <time>2019-02-27T10:36:35Z</time>
      </trkpt>
      <trkpt lat="42.73928" lon="0.17373">
        <ele>2393</ele>
        <time>2019-02-27T10:36:36Z</time>
      </trkpt>
      <trkpt lat="42.73928" lon="0.17373">
        <ele>2393</ele>
        <time>2019-02-27T10:36:37Z</time>
      </trkpt>
      <trkpt lat="42.73928" lon="0.17373">
        <ele>2393</ele>
        <time>2019-02-27T10:36:38Z</time>
      </trkpt>
      <trkpt lat="42.73928" lon="0.17373">
        <ele>2393</ele>
        <time>2019-02-27T10:36:39Z</time>
      </trkpt>
      <trkpt lat="42.73928" lon="0.17373">
        <ele>2393</ele>
        <time>2019-02-27T10:36:40Z</time>
      </trkpt>
      <trkpt lat="42.73928" lon="0.17373">
        <ele>2393</ele>
        <time>2019-02-27T10:36:41Z</time>
      </trkpt>
      <trkpt lat="42.73928" lon="0.17373">
        <ele>2393</ele>
        <time>2019-02-27T10:36:42Z</time>
      </trkpt>
      <trkpt lat="42.73928" lon="0.17373">
        <ele>2393</ele>
        <time>2019-02-27T10:36:43Z</time>
      </trkpt>
      <trkpt lat="42.73928" lon="0.17373">
        <ele>2393</ele>
        <time>2019-02-27T10:36:44Z</time>
      </trkpt>
      <trkpt lat="42.73928" lon="0.17373">
        <ele>2393</ele>
        <time>2019-02-27T10:36:45Z</time>
      </trkpt>
      <trkpt lat="42.73928" lon="0.17373">
        <ele>2393</ele>
        <time>2019-02-27T10:36:46Z</time>
      </trkpt>
      <trkpt lat="42.73928" lon="0.17373">
        <ele>2393</ele>
        <time>2019-02-27T10:36:47Z</time>
      </trkpt>
      <trkpt lat="42.73928" lon="0.17373">
        <ele>2393</ele>
        <time>2019-02-27T10:36:48Z</time>
      </trkpt>
      <trkpt lat="42.73928" lon="0.17373">
        <ele>2393</ele>
        <time>2019-02-27T10:36:49Z</time>
      </trkpt>
      <trkpt lat="42.73928" lon="0.17373">
        <ele>2393</ele>
        <time>2019-02-27T10:36:50Z</time>
      </trkpt>
      <trkpt lat="42.73928" lon="0.17373">
        <ele>2393</ele>
        <time>2019-02-27T10:36:51Z</time>
      </trkpt>
      <trkpt lat="42.73928" lon="0.17373">
        <ele>2393</ele>
        <time>2019-02-27T10:36:52Z</time>
      </trkpt>
      <trkpt lat="42.73928" lon="0.17373">
        <ele>2393</ele>
        <time>2019-02-27T10:36:53Z</time>
      </trkpt>
      <trkpt lat="42.73928" lon="0.17373">
        <ele>2393</ele>
        <time>2019-02-27T10:36:54Z</time>
      </trkpt>
      <trkpt lat="42.73928" lon="0.17373">
        <ele>2393</ele>
        <time>2019-02-27T10:36:55Z</time>
      </trkpt>
      <trkpt lat="42.73928" lon="0.17373">
        <ele>2393</ele>
        <time>2019-02-27T10:36:56Z</time>
      </trkpt>
      <trkpt lat="42.73928" lon="0.17373">
        <ele>2393</ele>
        <time>2019-02-27T10:36:57Z</time>
      </trkpt>
      <trkpt lat="42.73928" lon="0.17373">
        <ele>2393</ele>
        <time>2019-02-27T10:36:58Z</time>
      </trkpt>
      <trkpt lat="42.73928" lon="0.17373">
        <ele>2393</ele>
        <time>2019-02-27T10:36:59Z</time>
      </trkpt>
      <trkpt lat="42.73928" lon="0.17373">
        <ele>2393</ele>
        <time>2019-02-27T10:37:00Z</time>
      </trkpt>
      <trkpt lat="42.73928" lon="0.17373">
        <ele>2393</ele>
        <time>2019-02-27T10:37:01Z</time>
      </trkpt>
      <trkpt lat="42.73928" lon="0.17373">
        <ele>2393</ele>
        <time>2019-02-27T10:37:02Z</time>
      </trkpt>
      <trkpt lat="42.73928" lon="0.17373">
        <ele>2393</ele>
        <time>2019-02-27T10:37:03Z</time>
      </trkpt>
      <trkpt lat="42.73928" lon="0.17373">
        <ele>2393</ele>
        <time>2019-02-27T10:37:04Z</time>
      </trkpt>
      <trkpt lat="42.73928" lon="0.17373">
        <ele>2393</ele>
        <time>2019-02-27T10:37:05Z</time>
      </trkpt>
      <trkpt lat="42.73928" lon="0.17373">
        <ele>2393</ele>
        <time>2019-02-27T10:37:06Z</time>
      </trkpt>
      <trkpt lat="42.73928" lon="0.17373">
        <ele>2393</ele>
        <time>2019-02-27T10:37:07Z</time>
      </trkpt>
      <trkpt lat="42.73928" lon="0.17373">
        <ele>2393</ele>
        <time>2019-02-27T10:37:08Z</time>
      </trkpt>
      <trkpt lat="42.73928" lon="0.17373">
        <ele>2393</ele>
        <time>2019-02-27T10:37:09Z</time>
      </trkpt>
      <trkpt lat="42.73928" lon="0.17373">
        <ele>2393</ele>
        <time>2019-02-27T10:37:10Z</time>
      </trkpt>
      <trkpt lat="42.73928" lon="0.17373">
        <ele>2393</ele>
        <time>2019-02-27T10:37:11Z</time>
      </trkpt>
      <trkpt lat="42.73928" lon="0.17373">
        <ele>2393</ele>
        <time>2019-02-27T10:37:12Z</time>
      </trkpt>
      <trkpt lat="42.73928" lon="0.17373">
        <ele>2393</ele>
        <time>2019-02-27T10:37:13Z</time>
      </trkpt>
      <trkpt lat="42.73928" lon="0.17373">
        <ele>2393</ele>
        <time>2019-02-27T10:37:14Z</time>
      </trkpt>
      <trkpt lat="42.73928" lon="0.17373">
        <ele>2393</ele>
        <time>2019-02-27T10:37:15Z</time>
      </trkpt>
      <trkpt lat="42.73928" lon="0.17373">
        <ele>2393</ele>
        <time>2019-02-27T10:37:16Z</time>
      </trkpt>
      <trkpt lat="42.73928" lon="0.17373">
        <ele>2393</ele>
        <time>2019-02-27T10:37:17Z</time>
      </trkpt>
      <trkpt lat="42.73928" lon="0.17373">
        <ele>2393</ele>
        <time>2019-02-27T10:37:18Z</time>
      </trkpt>
      <trkpt lat="42.73928" lon="0.17373">
        <ele>2393</ele>
        <time>2019-02-27T10:37:19Z</time>
      </trkpt>
      <trkpt lat="42.73928" lon="0.17373">
        <ele>2393</ele>
        <time>2019-02-27T10:37:20Z</time>
      </trkpt>
      <trkpt lat="42.73928" lon="0.17373">
        <ele>2393</ele>
        <time>2019-02-27T10:37:21Z</time>
      </trkpt>
      <trkpt lat="42.73928" lon="0.17373">
        <ele>2393</ele>
        <time>2019-02-27T10:37:22Z</time>
      </trkpt>
      <trkpt lat="42.73928" lon="0.17373">
        <ele>2393</ele>
        <time>2019-02-27T10:37:23Z</time>
      </trkpt>
      <trkpt lat="42.73928" lon="0.17373">
        <ele>2393</ele>
        <time>2019-02-27T10:37:24Z</time>
      </trkpt>
      <trkpt lat="42.73928" lon="0.17373">
        <ele>2393</ele>
        <time>2019-02-27T10:37:25Z</time>
      </trkpt>
      <trkpt lat="42.73928" lon="0.17373">
        <ele>2393</ele>
        <time>2019-02-27T10:37:26Z</time>
      </trkpt>
      <trkpt lat="42.73928" lon="0.17373">
        <ele>2393</ele>
        <time>2019-02-27T10:37:27Z</time>
      </trkpt>
      <trkpt lat="42.73928" lon="0.17373">
        <ele>2393</ele>
        <time>2019-02-27T10:37:28Z</time>
      </trkpt>
      <trkpt lat="42.73928" lon="0.17373">
        <ele>2393</ele>
        <time>2019-02-27T10:37:29Z</time>
      </trkpt>
      <trkpt lat="42.73928" lon="0.17373">
        <ele>2393</ele>
        <time>2019-02-27T10:37:30Z</time>
      </trkpt>
      <trkpt lat="42.73928" lon="0.17373">
        <ele>2393</ele>
        <time>2019-02-27T10:37:31Z</time>
      </trkpt>
      <trkpt lat="42.73928" lon="0.17373">
        <ele>2393</ele>
        <time>2019-02-27T10:37:32Z</time>
      </trkpt>
      <trkpt lat="42.73928" lon="0.17371">
        <ele>2393</ele>
        <time>2019-02-27T10:37:33Z</time>
      </trkpt>
      <trkpt lat="42.73928" lon="0.17371">
        <ele>2393</ele>
        <time>2019-02-27T10:37:34Z</time>
      </trkpt>
      <trkpt lat="42.73928" lon="0.17371">
        <ele>2393</ele>
        <time>2019-02-27T10:37:35Z</time>
      </trkpt>
      <trkpt lat="42.7393" lon="0.17371">
        <ele>2393</ele>
        <time>2019-02-27T10:37:36Z</time>
      </trkpt>
      <trkpt lat="42.7393" lon="0.17371">
        <ele>2393</ele>
        <time>2019-02-27T10:37:37Z</time>
      </trkpt>
      <trkpt lat="42.7393" lon="0.17371">
        <ele>2393</ele>
        <time>2019-02-27T10:37:38Z</time>
      </trkpt>
      <trkpt lat="42.73933" lon="0.17371">
        <ele>2393</ele>
        <time>2019-02-27T10:37:39Z</time>
      </trkpt>
      <trkpt lat="42.73933" lon="0.17371">
        <ele>2393</ele>
        <time>2019-02-27T10:37:40Z</time>
      </trkpt>
      <trkpt lat="42.73933" lon="0.17371">
        <ele>2393</ele>
        <time>2019-02-27T10:37:41Z</time>
      </trkpt>
      <trkpt lat="42.73935" lon="0.17371">
        <ele>2393</ele>
        <time>2019-02-27T10:37:42Z</time>
      </trkpt>
      <trkpt lat="42.73935" lon="0.17371">
        <ele>2393</ele>
        <time>2019-02-27T10:37:43Z</time>
      </trkpt>
      <trkpt lat="42.73935" lon="0.17371">
        <ele>2393</ele>
        <time>2019-02-27T10:37:44Z</time>
      </trkpt>
      <trkpt lat="42.73935" lon="0.17371">
        <ele>2393</ele>
        <time>2019-02-27T10:37:45Z</time>
      </trkpt>
      <trkpt lat="42.73937" lon="0.17371">
        <ele>2393</ele>
        <time>2019-02-27T10:37:46Z</time>
      </trkpt>
      <trkpt lat="42.73937" lon="0.17371">
        <ele>2393</ele>
        <time>2019-02-27T10:37:47Z</time>
      </trkpt>
      <trkpt lat="42.73937" lon="0.17371">
        <ele>2393</ele>
        <time>2019-02-27T10:37:48Z</time>
      </trkpt>
      <trkpt lat="42.73939" lon="0.17371">
        <ele>2393</ele>
        <time>2019-02-27T10:37:49Z</time>
      </trkpt>
      <trkpt lat="42.73939" lon="0.17371">
        <ele>2393</ele>
        <time>2019-02-27T10:37:50Z</time>
      </trkpt>
      <trkpt lat="42.73939" lon="0.17371">
        <ele>2393</ele>
        <time>2019-02-27T10:37:51Z</time>
      </trkpt>
      <trkpt lat="42.73941" lon="0.17371">
        <ele>2393</ele>
        <time>2019-02-27T10:37:52Z</time>
      </trkpt>
      <trkpt lat="42.73941" lon="0.17371">
        <ele>2394</ele>
        <time>2019-02-27T10:37:53Z</time>
      </trkpt>
      <trkpt lat="42.73941" lon="0.17371">
        <ele>2394</ele>
        <time>2019-02-27T10:37:54Z</time>
      </trkpt>
      <trkpt lat="42.73941" lon="0.17371">
        <ele>2394</ele>
        <time>2019-02-27T10:37:55Z</time>
      </trkpt>
      <trkpt lat="42.73943" lon="0.1737">
        <ele>2394</ele>
        <time>2019-02-27T10:37:56Z</time>
      </trkpt>
      <trkpt lat="42.73943" lon="0.1737">
        <ele>2394</ele>
        <time>2019-02-27T10:37:57Z</time>
      </trkpt>
      <trkpt lat="42.73943" lon="0.1737">
        <ele>2394</ele>
        <time>2019-02-27T10:37:58Z</time>
      </trkpt>
      <trkpt lat="42.73943" lon="0.1737">
        <ele>2394</ele>
        <time>2019-02-27T10:37:59Z</time>
      </trkpt>
      <trkpt lat="42.73945" lon="0.1737">
        <ele>2394</ele>
        <time>2019-02-27T10:38:00Z</time>
      </trkpt>
      <trkpt lat="42.73945" lon="0.1737">
        <ele>2394</ele>
        <time>2019-02-27T10:38:01Z</time>
      </trkpt>
      <trkpt lat="42.73945" lon="0.1737">
        <ele>2394</ele>
        <time>2019-02-27T10:38:02Z</time>
      </trkpt>
      <trkpt lat="42.73945" lon="0.1737">
        <ele>2394</ele>
        <time>2019-02-27T10:38:03Z</time>
      </trkpt>
      <trkpt lat="42.73945" lon="0.1737">
        <ele>2394</ele>
        <time>2019-02-27T10:38:04Z</time>
      </trkpt>
      <trkpt lat="42.73945" lon="0.1737">
        <ele>2394</ele>
        <time>2019-02-27T10:38:05Z</time>
      </trkpt>
      <trkpt lat="42.73948" lon="0.17371">
        <ele>2394</ele>
        <time>2019-02-27T10:38:06Z</time>
      </trkpt>
      <trkpt lat="42.73948" lon="0.17371">
        <ele>2394</ele>
        <time>2019-02-27T10:38:07Z</time>
      </trkpt>
      <trkpt lat="42.73948" lon="0.17371">
        <ele>2395</ele>
        <time>2019-02-27T10:38:08Z</time>
      </trkpt>
      <trkpt lat="42.73948" lon="0.17371">
        <ele>2395</ele>
        <time>2019-02-27T10:38:09Z</time>
      </trkpt>
      <trkpt lat="42.7395" lon="0.1737">
        <ele>2395</ele>
        <time>2019-02-27T10:38:10Z</time>
      </trkpt>
      <trkpt lat="42.7395" lon="0.1737">
        <ele>2395</ele>
        <time>2019-02-27T10:38:11Z</time>
      </trkpt>
      <trkpt lat="42.7395" lon="0.1737">
        <ele>2395</ele>
        <time>2019-02-27T10:38:12Z</time>
      </trkpt>
      <trkpt lat="42.7395" lon="0.1737">
        <ele>2395</ele>
        <time>2019-02-27T10:38:13Z</time>
      </trkpt>
      <trkpt lat="42.7395" lon="0.1737">
        <ele>2395</ele>
        <time>2019-02-27T10:38:14Z</time>
      </trkpt>
      <trkpt lat="42.73952" lon="0.17369">
        <ele>2395</ele>
        <time>2019-02-27T10:38:15Z</time>
      </trkpt>
      <trkpt lat="42.73952" lon="0.17369">
        <ele>2395</ele>
        <time>2019-02-27T10:38:16Z</time>
      </trkpt>
      <trkpt lat="42.73952" lon="0.17369">
        <ele>2395</ele>
        <time>2019-02-27T10:38:17Z</time>
      </trkpt>
      <trkpt lat="42.73952" lon="0.17369">
        <ele>2395</ele>
        <time>2019-02-27T10:38:18Z</time>
      </trkpt>
      <trkpt lat="42.73954" lon="0.17368">
        <ele>2395</ele>
        <time>2019-02-27T10:38:19Z</time>
      </trkpt>
      <trkpt lat="42.73954" lon="0.17368">
        <ele>2395</ele>
        <time>2019-02-27T10:38:20Z</time>
      </trkpt>
      <trkpt lat="42.73954" lon="0.17368">
        <ele>2394</ele>
        <time>2019-02-27T10:38:21Z</time>
      </trkpt>
      <trkpt lat="42.73956" lon="0.17368">
        <ele>2394</ele>
        <time>2019-02-27T10:38:22Z</time>
      </trkpt>
      <trkpt lat="42.73956" lon="0.17368">
        <ele>2394</ele>
        <time>2019-02-27T10:38:23Z</time>
      </trkpt>
      <trkpt lat="42.73956" lon="0.17368">
        <ele>2394</ele>
        <time>2019-02-27T10:38:24Z</time>
      </trkpt>
      <trkpt lat="42.73958" lon="0.17367">
        <ele>2394</ele>
        <time>2019-02-27T10:38:25Z</time>
      </trkpt>
      <trkpt lat="42.73958" lon="0.17367">
        <ele>2394</ele>
        <time>2019-02-27T10:38:26Z</time>
      </trkpt>
      <trkpt lat="42.73958" lon="0.17367">
        <ele>2394</ele>
        <time>2019-02-27T10:38:27Z</time>
      </trkpt>
      <trkpt lat="42.7396" lon="0.17366">
        <ele>2394</ele>
        <time>2019-02-27T10:38:28Z</time>
      </trkpt>
      <trkpt lat="42.7396" lon="0.17366">
        <ele>2394</ele>
        <time>2019-02-27T10:38:29Z</time>
      </trkpt>
      <trkpt lat="42.7396" lon="0.17366">
        <ele>2394</ele>
        <time>2019-02-27T10:38:30Z</time>
      </trkpt>
      <trkpt lat="42.73962" lon="0.17365">
        <ele>2394</ele>
        <time>2019-02-27T10:38:31Z</time>
      </trkpt>
      <trkpt lat="42.73962" lon="0.17365">
        <ele>2394</ele>
        <time>2019-02-27T10:38:32Z</time>
      </trkpt>
      <trkpt lat="42.73962" lon="0.17365">
        <ele>2394</ele>
        <time>2019-02-27T10:38:33Z</time>
      </trkpt>
      <trkpt lat="42.73964" lon="0.17364">
        <ele>2394</ele>
        <time>2019-02-27T10:38:34Z</time>
      </trkpt>
      <trkpt lat="42.73964" lon="0.17364">
        <ele>2394</ele>
        <time>2019-02-27T10:38:35Z</time>
      </trkpt>
      <trkpt lat="42.73964" lon="0.17364">
        <ele>2394</ele>
        <time>2019-02-27T10:38:36Z</time>
      </trkpt>
      <trkpt lat="42.73964" lon="0.17364">
        <ele>2394</ele>
        <time>2019-02-27T10:38:37Z</time>
      </trkpt>
      <trkpt lat="42.73966" lon="0.17363">
        <ele>2394</ele>
        <time>2019-02-27T10:38:38Z</time>
      </trkpt>
      <trkpt lat="42.73966" lon="0.17363">
        <ele>2394</ele>
        <time>2019-02-27T10:38:39Z</time>
      </trkpt>
      <trkpt lat="42.73966" lon="0.17363">
        <ele>2394</ele>
        <time>2019-02-27T10:38:40Z</time>
      </trkpt>
      <trkpt lat="42.73966" lon="0.17363">
        <ele>2394</ele>
        <time>2019-02-27T10:38:41Z</time>
      </trkpt>
      <trkpt lat="42.73968" lon="0.17362">
        <ele>2395</ele>
        <time>2019-02-27T10:38:42Z</time>
      </trkpt>
      <trkpt lat="42.73968" lon="0.17362">
        <ele>2395</ele>
        <time>2019-02-27T10:38:43Z</time>
      </trkpt>
      <trkpt lat="42.73968" lon="0.17362">
        <ele>2395</ele>
        <time>2019-02-27T10:38:44Z</time>
      </trkpt>
      <trkpt lat="42.73968" lon="0.17362">
        <ele>2395</ele>
        <time>2019-02-27T10:38:45Z</time>
      </trkpt>
      <trkpt lat="42.73968" lon="0.17362">
        <ele>2396</ele>
        <time>2019-02-27T10:38:46Z</time>
      </trkpt>
      <trkpt lat="42.7397" lon="0.17361">
        <ele>2396</ele>
        <time>2019-02-27T10:38:47Z</time>
      </trkpt>
      <trkpt lat="42.7397" lon="0.17361">
        <ele>2397</ele>
        <time>2019-02-27T10:38:48Z</time>
      </trkpt>
      <trkpt lat="42.7397" lon="0.17361">
        <ele>2397</ele>
        <time>2019-02-27T10:38:49Z</time>
      </trkpt>
      <trkpt lat="42.7397" lon="0.17361">
        <ele>2397</ele>
        <time>2019-02-27T10:38:50Z</time>
      </trkpt>
      <trkpt lat="42.7397" lon="0.17361">
        <ele>2397</ele>
        <time>2019-02-27T10:38:51Z</time>
      </trkpt>
      <trkpt lat="42.7397" lon="0.17361">
        <ele>2397</ele>
        <time>2019-02-27T10:38:52Z</time>
      </trkpt>
      <trkpt lat="42.73972" lon="0.1736">
        <ele>2397</ele>
        <time>2019-02-27T10:38:53Z</time>
      </trkpt>
      <trkpt lat="42.73972" lon="0.1736">
        <ele>2397</ele>
        <time>2019-02-27T10:38:54Z</time>
      </trkpt>
      <trkpt lat="42.73972" lon="0.1736">
        <ele>2397</ele>
        <time>2019-02-27T10:38:55Z</time>
      </trkpt>
      <trkpt lat="42.73972" lon="0.1736">
        <ele>2398</ele>
        <time>2019-02-27T10:38:56Z</time>
      </trkpt>
      <trkpt lat="42.73972" lon="0.1736">
        <ele>2398</ele>
        <time>2019-02-27T10:38:57Z</time>
      </trkpt>
      <trkpt lat="42.73974" lon="0.17359">
        <ele>2398</ele>
        <time>2019-02-27T10:38:58Z</time>
      </trkpt>
      <trkpt lat="42.73974" lon="0.17359">
        <ele>2398</ele>
        <time>2019-02-27T10:38:59Z</time>
      </trkpt>
      <trkpt lat="42.73974" lon="0.17359">
        <ele>2398</ele>
        <time>2019-02-27T10:39:00Z</time>
      </trkpt>
      <trkpt lat="42.73974" lon="0.17359">
        <ele>2398</ele>
        <time>2019-02-27T10:39:01Z</time>
      </trkpt>
      <trkpt lat="42.73974" lon="0.17359">
        <ele>2398</ele>
        <time>2019-02-27T10:39:02Z</time>
      </trkpt>
      <trkpt lat="42.73974" lon="0.17359">
        <ele>2398</ele>
        <time>2019-02-27T10:39:03Z</time>
      </trkpt>
      <trkpt lat="42.73974" lon="0.17359">
        <ele>2398</ele>
        <time>2019-02-27T10:39:04Z</time>
      </trkpt>
      <trkpt lat="42.73974" lon="0.17359">
        <ele>2398</ele>
        <time>2019-02-27T10:39:05Z</time>
      </trkpt>
      <trkpt lat="42.73974" lon="0.17359">
        <ele>2398</ele>
        <time>2019-02-27T10:39:06Z</time>
      </trkpt>
      <trkpt lat="42.73974" lon="0.17359">
        <ele>2398</ele>
        <time>2019-02-27T10:39:07Z</time>
      </trkpt>
      <trkpt lat="42.73974" lon="0.17359">
        <ele>2398</ele>
        <time>2019-02-27T10:39:08Z</time>
      </trkpt>
      <trkpt lat="42.73974" lon="0.17359">
        <ele>2398</ele>
        <time>2019-02-27T10:39:09Z</time>
      </trkpt>
      <trkpt lat="42.73975" lon="0.17358">
        <ele>2398</ele>
        <time>2019-02-27T10:39:10Z</time>
      </trkpt>
      <trkpt lat="42.73975" lon="0.17358">
        <ele>2399</ele>
        <time>2019-02-27T10:39:11Z</time>
      </trkpt>
      <trkpt lat="42.73975" lon="0.17358">
        <ele>2399</ele>
        <time>2019-02-27T10:39:12Z</time>
      </trkpt>
      <trkpt lat="42.73975" lon="0.17358">
        <ele>2400</ele>
        <time>2019-02-27T10:39:13Z</time>
      </trkpt>
      <trkpt lat="42.73975" lon="0.17358">
        <ele>2400</ele>
        <time>2019-02-27T10:39:14Z</time>
      </trkpt>
      <trkpt lat="42.73977" lon="0.17357">
        <ele>2400</ele>
        <time>2019-02-27T10:39:15Z</time>
      </trkpt>
      <trkpt lat="42.73977" lon="0.17357">
        <ele>2400</ele>
        <time>2019-02-27T10:39:16Z</time>
      </trkpt>
      <trkpt lat="42.73977" lon="0.17357">
        <ele>2400</ele>
        <time>2019-02-27T10:39:17Z</time>
      </trkpt>
      <trkpt lat="42.73977" lon="0.17357">
        <ele>2400</ele>
        <time>2019-02-27T10:39:18Z</time>
      </trkpt>
      <trkpt lat="42.73977" lon="0.17357">
        <ele>2400</ele>
        <time>2019-02-27T10:39:19Z</time>
      </trkpt>
      <trkpt lat="42.73979" lon="0.17356">
        <ele>2400</ele>
        <time>2019-02-27T10:39:20Z</time>
      </trkpt>
      <trkpt lat="42.73979" lon="0.17356">
        <ele>2400</ele>
        <time>2019-02-27T10:39:21Z</time>
      </trkpt>
      <trkpt lat="42.73979" lon="0.17356">
        <ele>2401</ele>
        <time>2019-02-27T10:39:22Z</time>
      </trkpt>
      <trkpt lat="42.73979" lon="0.17356">
        <ele>2401</ele>
        <time>2019-02-27T10:39:23Z</time>
      </trkpt>
      <trkpt lat="42.73981" lon="0.17358">
        <ele>2401</ele>
        <time>2019-02-27T10:39:24Z</time>
      </trkpt>
      <trkpt lat="42.73981" lon="0.17358">
        <ele>2401</ele>
        <time>2019-02-27T10:39:25Z</time>
      </trkpt>
      <trkpt lat="42.73981" lon="0.17358">
        <ele>2401</ele>
        <time>2019-02-27T10:39:26Z</time>
      </trkpt>
      <trkpt lat="42.73983" lon="0.17358">
        <ele>2401</ele>
        <time>2019-02-27T10:39:27Z</time>
      </trkpt>
      <trkpt lat="42.73983" lon="0.17358">
        <ele>2401</ele>
        <time>2019-02-27T10:39:28Z</time>
      </trkpt>
      <trkpt lat="42.73983" lon="0.17358">
        <ele>2401</ele>
        <time>2019-02-27T10:39:29Z</time>
      </trkpt>
      <trkpt lat="42.73985" lon="0.17358">
        <ele>2401</ele>
        <time>2019-02-27T10:39:30Z</time>
      </trkpt>
      <trkpt lat="42.73985" lon="0.17358">
        <ele>2401</ele>
        <time>2019-02-27T10:39:31Z</time>
      </trkpt>
      <trkpt lat="42.73987" lon="0.17358">
        <ele>2401</ele>
        <time>2019-02-27T10:39:32Z</time>
      </trkpt>
      <trkpt lat="42.73987" lon="0.17358">
        <ele>2401</ele>
        <time>2019-02-27T10:39:33Z</time>
      </trkpt>
      <trkpt lat="42.73989" lon="0.17358">
        <ele>2401</ele>
        <time>2019-02-27T10:39:34Z</time>
      </trkpt>
      <trkpt lat="42.73989" lon="0.17358">
        <ele>2401</ele>
        <time>2019-02-27T10:39:35Z</time>
      </trkpt>
      <trkpt lat="42.73989" lon="0.17358">
        <ele>2401</ele>
        <time>2019-02-27T10:39:36Z</time>
      </trkpt>
      <trkpt lat="42.73991" lon="0.17358">
        <ele>2401</ele>
        <time>2019-02-27T10:39:37Z</time>
      </trkpt>
      <trkpt lat="42.73991" lon="0.17358">
        <ele>2402</ele>
        <time>2019-02-27T10:39:38Z</time>
      </trkpt>
      <trkpt lat="42.73991" lon="0.17358">
        <ele>2402</ele>
        <time>2019-02-27T10:39:39Z</time>
      </trkpt>
      <trkpt lat="42.73993" lon="0.17359">
        <ele>2402</ele>
        <time>2019-02-27T10:39:40Z</time>
      </trkpt>
      <trkpt lat="42.73993" lon="0.17359">
        <ele>2402</ele>
        <time>2019-02-27T10:39:41Z</time>
      </trkpt>
      <trkpt lat="42.73993" lon="0.17359">
        <ele>2402</ele>
        <time>2019-02-27T10:39:42Z</time>
      </trkpt>
      <trkpt lat="42.73996" lon="0.17359">
        <ele>2402</ele>
        <time>2019-02-27T10:39:43Z</time>
      </trkpt>
      <trkpt lat="42.73996" lon="0.17359">
        <ele>2402</ele>
        <time>2019-02-27T10:39:44Z</time>
      </trkpt>
      <trkpt lat="42.73998" lon="0.1736">
        <ele>2402</ele>
        <time>2019-02-27T10:39:45Z</time>
      </trkpt>
      <trkpt lat="42.73998" lon="0.1736">
        <ele>2402</ele>
        <time>2019-02-27T10:39:46Z</time>
      </trkpt>
      <trkpt lat="42.73998" lon="0.1736">
        <ele>2402</ele>
        <time>2019-02-27T10:39:47Z</time>
      </trkpt>
      <trkpt lat="42.74" lon="0.1736">
        <ele>2402</ele>
        <time>2019-02-27T10:39:48Z</time>
      </trkpt>
      <trkpt lat="42.74" lon="0.1736">
        <ele>2402</ele>
        <time>2019-02-27T10:39:49Z</time>
      </trkpt>
      <trkpt lat="42.74" lon="0.1736">
        <ele>2402</ele>
        <time>2019-02-27T10:39:50Z</time>
      </trkpt>
      <trkpt lat="42.74002" lon="0.17358">
        <ele>2402</ele>
        <time>2019-02-27T10:39:51Z</time>
      </trkpt>
      <trkpt lat="42.74002" lon="0.17358">
        <ele>2401</ele>
        <time>2019-02-27T10:39:52Z</time>
      </trkpt>
      <trkpt lat="42.74004" lon="0.17358">
        <ele>2401</ele>
        <time>2019-02-27T10:39:53Z</time>
      </trkpt>
      <trkpt lat="42.74004" lon="0.17358">
        <ele>2401</ele>
        <time>2019-02-27T10:39:54Z</time>
      </trkpt>
      <trkpt lat="42.74006" lon="0.17357">
        <ele>2401</ele>
        <time>2019-02-27T10:39:55Z</time>
      </trkpt>
      <trkpt lat="42.74006" lon="0.17357">
        <ele>2401</ele>
        <time>2019-02-27T10:39:56Z</time>
      </trkpt>
      <trkpt lat="42.74006" lon="0.17357">
        <ele>2400</ele>
        <time>2019-02-27T10:39:57Z</time>
      </trkpt>
      <trkpt lat="42.74008" lon="0.17356">
        <ele>2400</ele>
        <time>2019-02-27T10:39:58Z</time>
      </trkpt>
      <trkpt lat="42.74008" lon="0.17356">
        <ele>2400</ele>
        <time>2019-02-27T10:39:59Z</time>
      </trkpt>
      <trkpt lat="42.74008" lon="0.17356">
        <ele>2400</ele>
        <time>2019-02-27T10:40:00Z</time>
      </trkpt>
      <trkpt lat="42.74009" lon="0.17354">
        <ele>2400</ele>
        <time>2019-02-27T10:40:01Z</time>
      </trkpt>
      <trkpt lat="42.74009" lon="0.17354">
        <ele>2400</ele>
        <time>2019-02-27T10:40:02Z</time>
      </trkpt>
      <trkpt lat="42.74009" lon="0.17354">
        <ele>2399</ele>
        <time>2019-02-27T10:40:03Z</time>
      </trkpt>
      <trkpt lat="42.74011" lon="0.17351">
        <ele>2399</ele>
        <time>2019-02-27T10:40:04Z</time>
      </trkpt>
      <trkpt lat="42.74011" lon="0.17351">
        <ele>2399</ele>
        <time>2019-02-27T10:40:05Z</time>
      </trkpt>
      <trkpt lat="42.74012" lon="0.1735">
        <ele>2399</ele>
        <time>2019-02-27T10:40:06Z</time>
      </trkpt>
      <trkpt lat="42.74012" lon="0.1735">
        <ele>2399</ele>
        <time>2019-02-27T10:40:07Z</time>
      </trkpt>
      <trkpt lat="42.74012" lon="0.1735">
        <ele>2399</ele>
        <time>2019-02-27T10:40:08Z</time>
      </trkpt>
      <trkpt lat="42.74012" lon="0.1735">
        <ele>2399</ele>
        <time>2019-02-27T10:40:09Z</time>
      </trkpt>
      <trkpt lat="42.74012" lon="0.1735">
        <ele>2398</ele>
        <time>2019-02-27T10:40:10Z</time>
      </trkpt>
      <trkpt lat="42.74012" lon="0.1735">
        <ele>2398</ele>
        <time>2019-02-27T10:40:11Z</time>
      </trkpt>
      <trkpt lat="42.74012" lon="0.1735">
        <ele>2398</ele>
        <time>2019-02-27T10:40:12Z</time>
      </trkpt>
      <trkpt lat="42.74012" lon="0.1735">
        <ele>2398</ele>
        <time>2019-02-27T10:40:13Z</time>
      </trkpt>
      <trkpt lat="42.74012" lon="0.1735">
        <ele>2398</ele>
        <time>2019-02-27T10:40:14Z</time>
      </trkpt>
      <trkpt lat="42.74014" lon="0.17348">
        <ele>2398</ele>
        <time>2019-02-27T10:40:15Z</time>
      </trkpt>
      <trkpt lat="42.74014" lon="0.17348">
        <ele>2398</ele>
        <time>2019-02-27T10:40:16Z</time>
      </trkpt>
      <trkpt lat="42.74014" lon="0.17348">
        <ele>2398</ele>
        <time>2019-02-27T10:40:17Z</time>
      </trkpt>
      <trkpt lat="42.74014" lon="0.17348">
        <ele>2398</ele>
        <time>2019-02-27T10:40:18Z</time>
      </trkpt>
      <trkpt lat="42.74014" lon="0.17348">
        <ele>2398</ele>
        <time>2019-02-27T10:40:19Z</time>
      </trkpt>
      <trkpt lat="42.74014" lon="0.17348">
        <ele>2398</ele>
        <time>2019-02-27T10:40:20Z</time>
      </trkpt>
      <trkpt lat="42.74014" lon="0.17348">
        <ele>2398</ele>
        <time>2019-02-27T10:40:21Z</time>
      </trkpt>
      <trkpt lat="42.74014" lon="0.17348">
        <ele>2398</ele>
        <time>2019-02-27T10:40:22Z</time>
      </trkpt>
      <trkpt lat="42.74014" lon="0.17348">
        <ele>2398</ele>
        <time>2019-02-27T10:40:23Z</time>
      </trkpt>
      <trkpt lat="42.74014" lon="0.17348">
        <ele>2398</ele>
        <time>2019-02-27T10:40:24Z</time>
      </trkpt>
      <trkpt lat="42.74014" lon="0.17348">
        <ele>2398</ele>
        <time>2019-02-27T10:40:25Z</time>
      </trkpt>
      <trkpt lat="42.74014" lon="0.17348">
        <ele>2398</ele>
        <time>2019-02-27T10:40:26Z</time>
      </trkpt>
      <trkpt lat="42.74014" lon="0.17348">
        <ele>2397</ele>
        <time>2019-02-27T10:40:27Z</time>
      </trkpt>
      <trkpt lat="42.74014" lon="0.17348">
        <ele>2397</ele>
        <time>2019-02-27T10:40:28Z</time>
      </trkpt>
      <trkpt lat="42.74014" lon="0.17348">
        <ele>2397</ele>
        <time>2019-02-27T10:40:29Z</time>
      </trkpt>
      <trkpt lat="42.74014" lon="0.17348">
        <ele>2397</ele>
        <time>2019-02-27T10:40:30Z</time>
      </trkpt>
      <trkpt lat="42.74014" lon="0.17348">
        <ele>2397</ele>
        <time>2019-02-27T10:40:31Z</time>
      </trkpt>
      <trkpt lat="42.74014" lon="0.17348">
        <ele>2397</ele>
        <time>2019-02-27T10:40:32Z</time>
      </trkpt>
      <trkpt lat="42.74014" lon="0.17348">
        <ele>2397</ele>
        <time>2019-02-27T10:40:33Z</time>
      </trkpt>
      <trkpt lat="42.74014" lon="0.17348">
        <ele>2397</ele>
        <time>2019-02-27T10:40:34Z</time>
      </trkpt>
      <trkpt lat="42.74014" lon="0.17348">
        <ele>2397</ele>
        <time>2019-02-27T10:40:35Z</time>
      </trkpt>
      <trkpt lat="42.74014" lon="0.17348">
        <ele>2397</ele>
        <time>2019-02-27T10:40:36Z</time>
      </trkpt>
      <trkpt lat="42.74014" lon="0.17348">
        <ele>2397</ele>
        <time>2019-02-27T10:40:37Z</time>
      </trkpt>
      <trkpt lat="42.74014" lon="0.17348">
        <ele>2397</ele>
        <time>2019-02-27T10:40:38Z</time>
      </trkpt>
      <trkpt lat="42.74016" lon="0.17349">
        <ele>2397</ele>
        <time>2019-02-27T10:40:39Z</time>
      </trkpt>
      <trkpt lat="42.74016" lon="0.17349">
        <ele>2398</ele>
        <time>2019-02-27T10:40:40Z</time>
      </trkpt>
      <trkpt lat="42.74018" lon="0.17349">
        <ele>2398</ele>
        <time>2019-02-27T10:40:41Z</time>
      </trkpt>
      <trkpt lat="42.74018" lon="0.17349">
        <ele>2398</ele>
        <time>2019-02-27T10:40:42Z</time>
      </trkpt>
      <trkpt lat="42.7402" lon="0.17349">
        <ele>2398</ele>
        <time>2019-02-27T10:40:43Z</time>
      </trkpt>
      <trkpt lat="42.7402" lon="0.17349">
        <ele>2398</ele>
        <time>2019-02-27T10:40:44Z</time>
      </trkpt>
      <trkpt lat="42.74022" lon="0.1735">
        <ele>2398</ele>
        <time>2019-02-27T10:40:45Z</time>
      </trkpt>
      <trkpt lat="42.74022" lon="0.1735">
        <ele>2398</ele>
        <time>2019-02-27T10:40:46Z</time>
      </trkpt>
      <trkpt lat="42.74025" lon="0.17351">
        <ele>2398</ele>
        <time>2019-02-27T10:40:47Z</time>
      </trkpt>
      <trkpt lat="42.74025" lon="0.17351">
        <ele>2398</ele>
        <time>2019-02-27T10:40:48Z</time>
      </trkpt>
      <trkpt lat="42.74027" lon="0.17351">
        <ele>2398</ele>
        <time>2019-02-27T10:40:49Z</time>
      </trkpt>
      <trkpt lat="42.74027" lon="0.17351">
        <ele>2398</ele>
        <time>2019-02-27T10:40:50Z</time>
      </trkpt>
      <trkpt lat="42.74029" lon="0.17352">
        <ele>2398</ele>
        <time>2019-02-27T10:40:51Z</time>
      </trkpt>
      <trkpt lat="42.74029" lon="0.17352">
        <ele>2398</ele>
        <time>2019-02-27T10:40:52Z</time>
      </trkpt>
      <trkpt lat="42.74032" lon="0.17352">
        <ele>2398</ele>
        <time>2019-02-27T10:40:53Z</time>
      </trkpt>
      <trkpt lat="42.74032" lon="0.17352">
        <ele>2398</ele>
        <time>2019-02-27T10:40:54Z</time>
      </trkpt>
      <trkpt lat="42.74033" lon="0.17353">
        <ele>2398</ele>
        <time>2019-02-27T10:40:55Z</time>
      </trkpt>
      <trkpt lat="42.74033" lon="0.17353">
        <ele>2398</ele>
        <time>2019-02-27T10:40:56Z</time>
      </trkpt>
      <trkpt lat="42.74035" lon="0.17353">
        <ele>2398</ele>
        <time>2019-02-27T10:40:57Z</time>
      </trkpt>
      <trkpt lat="42.74035" lon="0.17353">
        <ele>2398</ele>
        <time>2019-02-27T10:40:58Z</time>
      </trkpt>
      <trkpt lat="42.74037" lon="0.17354">
        <ele>2398</ele>
        <time>2019-02-27T10:40:59Z</time>
      </trkpt>
      <trkpt lat="42.74037" lon="0.17354">
        <ele>2398</ele>
        <time>2019-02-27T10:41:00Z</time>
      </trkpt>
      <trkpt lat="42.74039" lon="0.17354">
        <ele>2399</ele>
        <time>2019-02-27T10:41:01Z</time>
      </trkpt>
      <trkpt lat="42.74039" lon="0.17354">
        <ele>2399</ele>
        <time>2019-02-27T10:41:02Z</time>
      </trkpt>
      <trkpt lat="42.74041" lon="0.17355">
        <ele>2399</ele>
        <time>2019-02-27T10:41:03Z</time>
      </trkpt>
      <trkpt lat="42.74041" lon="0.17355">
        <ele>2399</ele>
        <time>2019-02-27T10:41:04Z</time>
      </trkpt>
      <trkpt lat="42.74043" lon="0.17356">
        <ele>2399</ele>
        <time>2019-02-27T10:41:05Z</time>
      </trkpt>
      <trkpt lat="42.74043" lon="0.17356">
        <ele>2399</ele>
        <time>2019-02-27T10:41:06Z</time>
      </trkpt>
      <trkpt lat="42.74044" lon="0.17357">
        <ele>2399</ele>
        <time>2019-02-27T10:41:07Z</time>
      </trkpt>
      <trkpt lat="42.74044" lon="0.17357">
        <ele>2399</ele>
        <time>2019-02-27T10:41:08Z</time>
      </trkpt>
      <trkpt lat="42.74046" lon="0.17358">
        <ele>2399</ele>
        <time>2019-02-27T10:41:09Z</time>
      </trkpt>
      <trkpt lat="42.74046" lon="0.17358">
        <ele>2399</ele>
        <time>2019-02-27T10:41:10Z</time>
      </trkpt>
      <trkpt lat="42.74046" lon="0.17358">
        <ele>2399</ele>
        <time>2019-02-27T10:41:11Z</time>
      </trkpt>
      <trkpt lat="42.74048" lon="0.1736">
        <ele>2399</ele>
        <time>2019-02-27T10:41:12Z</time>
      </trkpt>
      <trkpt lat="42.74048" lon="0.1736">
        <ele>2399</ele>
        <time>2019-02-27T10:41:13Z</time>
      </trkpt>
      <trkpt lat="42.74048" lon="0.1736">
        <ele>2399</ele>
        <time>2019-02-27T10:41:14Z</time>
      </trkpt>
      <trkpt lat="42.7405" lon="0.17362">
        <ele>2400</ele>
        <time>2019-02-27T10:41:15Z</time>
      </trkpt>
      <trkpt lat="42.7405" lon="0.17362">
        <ele>2400</ele>
        <time>2019-02-27T10:41:16Z</time>
      </trkpt>
      <trkpt lat="42.7405" lon="0.17362">
        <ele>2400</ele>
        <time>2019-02-27T10:41:17Z</time>
      </trkpt>
      <trkpt lat="42.7405" lon="0.17362">
        <ele>2401</ele>
        <time>2019-02-27T10:41:18Z</time>
      </trkpt>
      <trkpt lat="42.74052" lon="0.17363">
        <ele>2401</ele>
        <time>2019-02-27T10:41:19Z</time>
      </trkpt>
      <trkpt lat="42.74052" lon="0.17363">
        <ele>2401</ele>
        <time>2019-02-27T10:41:20Z</time>
      </trkpt>
      <trkpt lat="42.74052" lon="0.17363">
        <ele>2401</ele>
        <time>2019-02-27T10:41:21Z</time>
      </trkpt>
      <trkpt lat="42.74052" lon="0.17363">
        <ele>2401</ele>
        <time>2019-02-27T10:41:22Z</time>
      </trkpt>
      <trkpt lat="42.74054" lon="0.17364">
        <ele>2401</ele>
        <time>2019-02-27T10:41:23Z</time>
      </trkpt>
      <trkpt lat="42.74054" lon="0.17364">
        <ele>2401</ele>
        <time>2019-02-27T10:41:24Z</time>
      </trkpt>
      <trkpt lat="42.74054" lon="0.17364">
        <ele>2401</ele>
        <time>2019-02-27T10:41:25Z</time>
      </trkpt>
      <trkpt lat="42.74054" lon="0.17364">
        <ele>2402</ele>
        <time>2019-02-27T10:41:26Z</time>
      </trkpt>
      <trkpt lat="42.74056" lon="0.17365">
        <ele>2402</ele>
        <time>2019-02-27T10:41:27Z</time>
      </trkpt>
      <trkpt lat="42.74056" lon="0.17365">
        <ele>2402</ele>
        <time>2019-02-27T10:41:28Z</time>
      </trkpt>
      <trkpt lat="42.74056" lon="0.17365">
        <ele>2403</ele>
        <time>2019-02-27T10:41:29Z</time>
      </trkpt>
      <trkpt lat="42.74056" lon="0.17365">
        <ele>2403</ele>
        <time>2019-02-27T10:41:30Z</time>
      </trkpt>
      <trkpt lat="42.74057" lon="0.17368">
        <ele>2403</ele>
        <time>2019-02-27T10:41:31Z</time>
      </trkpt>
      <trkpt lat="42.74057" lon="0.17368">
        <ele>2403</ele>
        <time>2019-02-27T10:41:32Z</time>
      </trkpt>
      <trkpt lat="42.74057" lon="0.17368">
        <ele>2403</ele>
        <time>2019-02-27T10:41:33Z</time>
      </trkpt>
      <trkpt lat="42.74057" lon="0.17368">
        <ele>2403</ele>
        <time>2019-02-27T10:41:34Z</time>
      </trkpt>
      <trkpt lat="42.74058" lon="0.1737">
        <ele>2403</ele>
        <time>2019-02-27T10:41:35Z</time>
      </trkpt>
      <trkpt lat="42.74058" lon="0.1737">
        <ele>2403</ele>
        <time>2019-02-27T10:41:36Z</time>
      </trkpt>
      <trkpt lat="42.74058" lon="0.1737">
        <ele>2403</ele>
        <time>2019-02-27T10:41:37Z</time>
      </trkpt>
      <trkpt lat="42.74058" lon="0.1737">
        <ele>2404</ele>
        <time>2019-02-27T10:41:38Z</time>
      </trkpt>
      <trkpt lat="42.7406" lon="0.17372">
        <ele>2404</ele>
        <time>2019-02-27T10:41:39Z</time>
      </trkpt>
      <trkpt lat="42.7406" lon="0.17372">
        <ele>2404</ele>
        <time>2019-02-27T10:41:40Z</time>
      </trkpt>
      <trkpt lat="42.7406" lon="0.17372">
        <ele>2404</ele>
        <time>2019-02-27T10:41:41Z</time>
      </trkpt>
      <trkpt lat="42.7406" lon="0.17372">
        <ele>2406</ele>
        <time>2019-02-27T10:41:42Z</time>
      </trkpt>
      <trkpt lat="42.7406" lon="0.17372">
        <ele>2406</ele>
        <time>2019-02-27T10:41:43Z</time>
      </trkpt>
      <trkpt lat="42.7406" lon="0.17372">
        <ele>2406</ele>
        <time>2019-02-27T10:41:44Z</time>
      </trkpt>
      <trkpt lat="42.7406" lon="0.17372">
        <ele>2406</ele>
        <time>2019-02-27T10:41:45Z</time>
      </trkpt>
      <trkpt lat="42.74062" lon="0.17373">
        <ele>2406</ele>
        <time>2019-02-27T10:41:46Z</time>
      </trkpt>
      <trkpt lat="42.74062" lon="0.17373">
        <ele>2406</ele>
        <time>2019-02-27T10:41:47Z</time>
      </trkpt>
      <trkpt lat="42.74062" lon="0.17373">
        <ele>2406</ele>
        <time>2019-02-27T10:41:48Z</time>
      </trkpt>
      <trkpt lat="42.74062" lon="0.17373">
        <ele>2406</ele>
        <time>2019-02-27T10:41:49Z</time>
      </trkpt>
      <trkpt lat="42.74062" lon="0.17373">
        <ele>2406</ele>
        <time>2019-02-27T10:41:50Z</time>
      </trkpt>
      <trkpt lat="42.74062" lon="0.17373">
        <ele>2406</ele>
        <time>2019-02-27T10:41:51Z</time>
      </trkpt>
      <trkpt lat="42.74062" lon="0.17373">
        <ele>2406</ele>
        <time>2019-02-27T10:41:52Z</time>
      </trkpt>
      <trkpt lat="42.74062" lon="0.17373">
        <ele>2406</ele>
        <time>2019-02-27T10:41:53Z</time>
      </trkpt>
      <trkpt lat="42.74064" lon="0.17374">
        <ele>2407</ele>
        <time>2019-02-27T10:41:54Z</time>
      </trkpt>
      <trkpt lat="42.74064" lon="0.17374">
        <ele>2407</ele>
        <time>2019-02-27T10:41:55Z</time>
      </trkpt>
      <trkpt lat="42.74064" lon="0.17374">
        <ele>2407</ele>
        <time>2019-02-27T10:41:56Z</time>
      </trkpt>
      <trkpt lat="42.74064" lon="0.17374">
        <ele>2407</ele>
        <time>2019-02-27T10:41:57Z</time>
      </trkpt>
      <trkpt lat="42.74064" lon="0.17374">
        <ele>2407</ele>
        <time>2019-02-27T10:41:58Z</time>
      </trkpt>
      <trkpt lat="42.74064" lon="0.17374">
        <ele>2407</ele>
        <time>2019-02-27T10:41:59Z</time>
      </trkpt>
      <trkpt lat="42.74064" lon="0.17374">
        <ele>2407</ele>
        <time>2019-02-27T10:42:00Z</time>
      </trkpt>
      <trkpt lat="42.74064" lon="0.17374">
        <ele>2406</ele>
        <time>2019-02-27T10:42:01Z</time>
      </trkpt>
      <trkpt lat="42.74064" lon="0.17374">
        <ele>2406</ele>
        <time>2019-02-27T10:42:02Z</time>
      </trkpt>
      <trkpt lat="42.74064" lon="0.17374">
        <ele>2406</ele>
        <time>2019-02-27T10:42:03Z</time>
      </trkpt>
      <trkpt lat="42.74064" lon="0.17374">
        <ele>2406</ele>
        <time>2019-02-27T10:42:04Z</time>
      </trkpt>
      <trkpt lat="42.74064" lon="0.17374">
        <ele>2406</ele>
        <time>2019-02-27T10:42:05Z</time>
      </trkpt>
      <trkpt lat="42.74064" lon="0.17374">
        <ele>2406</ele>
        <time>2019-02-27T10:42:06Z</time>
      </trkpt>
      <trkpt lat="42.74064" lon="0.17374">
        <ele>2407</ele>
        <time>2019-02-27T10:42:07Z</time>
      </trkpt>
      <trkpt lat="42.74064" lon="0.17374">
        <ele>2407</ele>
        <time>2019-02-27T10:42:08Z</time>
      </trkpt>
      <trkpt lat="42.74064" lon="0.17374">
        <ele>2406</ele>
        <time>2019-02-27T10:42:09Z</time>
      </trkpt>
      <trkpt lat="42.74064" lon="0.17374">
        <ele>2404</ele>
        <time>2019-02-27T10:42:10Z</time>
      </trkpt>
      <trkpt lat="42.74064" lon="0.17374">
        <ele>2404</ele>
        <time>2019-02-27T10:42:11Z</time>
      </trkpt>
      <trkpt lat="42.74064" lon="0.17374">
        <ele>2404</ele>
        <time>2019-02-27T10:42:12Z</time>
      </trkpt>
      <trkpt lat="42.74065" lon="0.17376">
        <ele>2404</ele>
        <time>2019-02-27T10:42:13Z</time>
      </trkpt>
      <trkpt lat="42.74065" lon="0.17376">
        <ele>2404</ele>
        <time>2019-02-27T10:42:14Z</time>
      </trkpt>
      <trkpt lat="42.74065" lon="0.17376">
        <ele>2404</ele>
        <time>2019-02-27T10:42:15Z</time>
      </trkpt>
      <trkpt lat="42.74065" lon="0.17376">
        <ele>2404</ele>
        <time>2019-02-27T10:42:16Z</time>
      </trkpt>
      <trkpt lat="42.74065" lon="0.17376">
        <ele>2406</ele>
        <time>2019-02-27T10:42:17Z</time>
      </trkpt>
      <trkpt lat="42.74065" lon="0.17376">
        <ele>2406</ele>
        <time>2019-02-27T10:42:18Z</time>
      </trkpt>
      <trkpt lat="42.74065" lon="0.17376">
        <ele>2406</ele>
        <time>2019-02-27T10:42:19Z</time>
      </trkpt>
      <trkpt lat="42.74065" lon="0.17376">
        <ele>2406</ele>
        <time>2019-02-27T10:42:20Z</time>
      </trkpt>
      <trkpt lat="42.74065" lon="0.17376">
        <ele>2406</ele>
        <time>2019-02-27T10:42:21Z</time>
      </trkpt>
      <trkpt lat="42.74065" lon="0.17376">
        <ele>2406</ele>
        <time>2019-02-27T10:42:22Z</time>
      </trkpt>
      <trkpt lat="42.74065" lon="0.17376">
        <ele>2406</ele>
        <time>2019-02-27T10:42:23Z</time>
      </trkpt>
      <trkpt lat="42.74065" lon="0.17376">
        <ele>2404</ele>
        <time>2019-02-27T10:42:24Z</time>
      </trkpt>
      <trkpt lat="42.74065" lon="0.17376">
        <ele>2406</ele>
        <time>2019-02-27T10:42:25Z</time>
      </trkpt>
      <trkpt lat="42.74065" lon="0.17376">
        <ele>2406</ele>
        <time>2019-02-27T10:42:26Z</time>
      </trkpt>
      <trkpt lat="42.74065" lon="0.17376">
        <ele>2406</ele>
        <time>2019-02-27T10:42:27Z</time>
      </trkpt>
      <trkpt lat="42.74065" lon="0.17376">
        <ele>2406</ele>
        <time>2019-02-27T10:42:28Z</time>
      </trkpt>
      <trkpt lat="42.74065" lon="0.17376">
        <ele>2404</ele>
        <time>2019-02-27T10:42:29Z</time>
      </trkpt>
      <trkpt lat="42.74065" lon="0.17376">
        <ele>2404</ele>
        <time>2019-02-27T10:42:30Z</time>
      </trkpt>
      <trkpt lat="42.74065" lon="0.17376">
        <ele>2404</ele>
        <time>2019-02-27T10:42:31Z</time>
      </trkpt>
      <trkpt lat="42.74065" lon="0.17376">
        <ele>2404</ele>
        <time>2019-02-27T10:42:32Z</time>
      </trkpt>
      <trkpt lat="42.74065" lon="0.17376">
        <ele>2406</ele>
        <time>2019-02-27T10:42:33Z</time>
      </trkpt>
      <trkpt lat="42.74065" lon="0.17376">
        <ele>2406</ele>
        <time>2019-02-27T10:42:34Z</time>
      </trkpt>
      <trkpt lat="42.74065" lon="0.17376">
        <ele>2406</ele>
        <time>2019-02-27T10:42:35Z</time>
      </trkpt>
      <trkpt lat="42.74065" lon="0.17376">
        <ele>2406</ele>
        <time>2019-02-27T10:42:36Z</time>
      </trkpt>
      <trkpt lat="42.74065" lon="0.17376">
        <ele>2406</ele>
        <time>2019-02-27T10:42:37Z</time>
      </trkpt>
      <trkpt lat="42.74065" lon="0.17376">
        <ele>2406</ele>
        <time>2019-02-27T10:42:38Z</time>
      </trkpt>
      <trkpt lat="42.74065" lon="0.17376">
        <ele>2406</ele>
        <time>2019-02-27T10:42:39Z</time>
      </trkpt>
      <trkpt lat="42.74065" lon="0.17376">
        <ele>2406</ele>
        <time>2019-02-27T10:42:40Z</time>
      </trkpt>
      <trkpt lat="42.74065" lon="0.17376">
        <ele>2406</ele>
        <time>2019-02-27T10:42:41Z</time>
      </trkpt>
      <trkpt lat="42.74065" lon="0.17376">
        <ele>2406</ele>
        <time>2019-02-27T10:42:42Z</time>
      </trkpt>
      <trkpt lat="42.74065" lon="0.17376">
        <ele>2406</ele>
        <time>2019-02-27T10:42:43Z</time>
      </trkpt>
      <trkpt lat="42.74065" lon="0.17376">
        <ele>2406</ele>
        <time>2019-02-27T10:42:44Z</time>
      </trkpt>
      <trkpt lat="42.74065" lon="0.17376">
        <ele>2406</ele>
        <time>2019-02-27T10:42:45Z</time>
      </trkpt>
      <trkpt lat="42.74065" lon="0.17376">
        <ele>2406</ele>
        <time>2019-02-27T10:42:46Z</time>
      </trkpt>
      <trkpt lat="42.74065" lon="0.17376">
        <ele>2406</ele>
        <time>2019-02-27T10:42:47Z</time>
      </trkpt>
      <trkpt lat="42.74065" lon="0.17376">
        <ele>2406</ele>
        <time>2019-02-27T10:42:48Z</time>
      </trkpt>
      <trkpt lat="42.74065" lon="0.17376">
        <ele>2406</ele>
        <time>2019-02-27T10:42:49Z</time>
      </trkpt>
      <trkpt lat="42.74065" lon="0.17376">
        <ele>2406</ele>
        <time>2019-02-27T10:42:50Z</time>
      </trkpt>
      <trkpt lat="42.74065" lon="0.17376">
        <ele>2406</ele>
        <time>2019-02-27T10:42:51Z</time>
      </trkpt>
      <trkpt lat="42.74065" lon="0.17376">
        <ele>2406</ele>
        <time>2019-02-27T10:42:52Z</time>
      </trkpt>
      <trkpt lat="42.74065" lon="0.17376">
        <ele>2406</ele>
        <time>2019-02-27T10:42:53Z</time>
      </trkpt>
      <trkpt lat="42.74065" lon="0.17376">
        <ele>2406</ele>
        <time>2019-02-27T10:42:54Z</time>
      </trkpt>
      <trkpt lat="42.74065" lon="0.17376">
        <ele>2406</ele>
        <time>2019-02-27T10:42:55Z</time>
      </trkpt>
      <trkpt lat="42.74065" lon="0.17376">
        <ele>2406</ele>
        <time>2019-02-27T10:42:56Z</time>
      </trkpt>
      <trkpt lat="42.74065" lon="0.17376">
        <ele>2406</ele>
        <time>2019-02-27T10:42:57Z</time>
      </trkpt>
      <trkpt lat="42.74065" lon="0.17376">
        <ele>2406</ele>
        <time>2019-02-27T10:42:58Z</time>
      </trkpt>
      <trkpt lat="42.74065" lon="0.17376">
        <ele>2406</ele>
        <time>2019-02-27T10:42:59Z</time>
      </trkpt>
      <trkpt lat="42.74065" lon="0.17376">
        <ele>2406</ele>
        <time>2019-02-27T10:43:00Z</time>
      </trkpt>
      <trkpt lat="42.74065" lon="0.17376">
        <ele>2406</ele>
        <time>2019-02-27T10:43:01Z</time>
      </trkpt>
      <trkpt lat="42.74065" lon="0.17376">
        <ele>2406</ele>
        <time>2019-02-27T10:43:02Z</time>
      </trkpt>
      <trkpt lat="42.74065" lon="0.17376">
        <ele>2404</ele>
        <time>2019-02-27T10:43:03Z</time>
      </trkpt>
      <trkpt lat="42.74065" lon="0.17376">
        <ele>2404</ele>
        <time>2019-02-27T10:43:04Z</time>
      </trkpt>
      <trkpt lat="42.74065" lon="0.17376">
        <ele>2404</ele>
        <time>2019-02-27T10:43:05Z</time>
      </trkpt>
      <trkpt lat="42.74065" lon="0.17376">
        <ele>2404</ele>
        <time>2019-02-27T10:43:06Z</time>
      </trkpt>
      <trkpt lat="42.74065" lon="0.17376">
        <ele>2406</ele>
        <time>2019-02-27T10:43:07Z</time>
      </trkpt>
      <trkpt lat="42.74065" lon="0.17376">
        <ele>2406</ele>
        <time>2019-02-27T10:43:08Z</time>
      </trkpt>
      <trkpt lat="42.74065" lon="0.17376">
        <ele>2406</ele>
        <time>2019-02-27T10:43:09Z</time>
      </trkpt>
      <trkpt lat="42.74065" lon="0.17376">
        <ele>2406</ele>
        <time>2019-02-27T10:43:10Z</time>
      </trkpt>
      <trkpt lat="42.74065" lon="0.17376">
        <ele>2404</ele>
        <time>2019-02-27T10:43:11Z</time>
      </trkpt>
      <trkpt lat="42.74065" lon="0.17376">
        <ele>2404</ele>
        <time>2019-02-27T10:43:12Z</time>
      </trkpt>
      <trkpt lat="42.74065" lon="0.17376">
        <ele>2406</ele>
        <time>2019-02-27T10:43:13Z</time>
      </trkpt>
      <trkpt lat="42.74065" lon="0.17376">
        <ele>2406</ele>
        <time>2019-02-27T10:43:14Z</time>
      </trkpt>
      <trkpt lat="42.74065" lon="0.17376">
        <ele>2406</ele>
        <time>2019-02-27T10:43:15Z</time>
      </trkpt>
      <trkpt lat="42.74065" lon="0.17376">
        <ele>2406</ele>
        <time>2019-02-27T10:43:16Z</time>
      </trkpt>
      <trkpt lat="42.74065" lon="0.17376">
        <ele>2406</ele>
        <time>2019-02-27T10:43:17Z</time>
      </trkpt>
      <trkpt lat="42.74065" lon="0.17376">
        <ele>2406</ele>
        <time>2019-02-27T10:43:18Z</time>
      </trkpt>
      <trkpt lat="42.74065" lon="0.17376">
        <ele>2406</ele>
        <time>2019-02-27T10:43:19Z</time>
      </trkpt>
      <trkpt lat="42.74065" lon="0.17376">
        <ele>2406</ele>
        <time>2019-02-27T10:43:20Z</time>
      </trkpt>
      <trkpt lat="42.74065" lon="0.17376">
        <ele>2406</ele>
        <time>2019-02-27T10:43:21Z</time>
      </trkpt>
      <trkpt lat="42.74065" lon="0.17376">
        <ele>2406</ele>
        <time>2019-02-27T10:43:22Z</time>
      </trkpt>
      <trkpt lat="42.74065" lon="0.17376">
        <ele>2406</ele>
        <time>2019-02-27T10:43:23Z</time>
      </trkpt>
      <trkpt lat="42.74065" lon="0.17376">
        <ele>2406</ele>
        <time>2019-02-27T10:43:24Z</time>
      </trkpt>
      <trkpt lat="42.74065" lon="0.17376">
        <ele>2406</ele>
        <time>2019-02-27T10:43:25Z</time>
      </trkpt>
      <trkpt lat="42.74065" lon="0.17376">
        <ele>2406</ele>
        <time>2019-02-27T10:43:26Z</time>
      </trkpt>
      <trkpt lat="42.74065" lon="0.17376">
        <ele>2406</ele>
        <time>2019-02-27T10:43:27Z</time>
      </trkpt>
      <trkpt lat="42.74065" lon="0.17376">
        <ele>2406</ele>
        <time>2019-02-27T10:43:28Z</time>
      </trkpt>
      <trkpt lat="42.74065" lon="0.17376">
        <ele>2406</ele>
        <time>2019-02-27T10:43:29Z</time>
      </trkpt>
      <trkpt lat="42.74065" lon="0.17376">
        <ele>2406</ele>
        <time>2019-02-27T10:43:30Z</time>
      </trkpt>
      <trkpt lat="42.74065" lon="0.17376">
        <ele>2406</ele>
        <time>2019-02-27T10:43:31Z</time>
      </trkpt>
      <trkpt lat="42.74065" lon="0.17376">
        <ele>2406</ele>
        <time>2019-02-27T10:43:32Z</time>
      </trkpt>
      <trkpt lat="42.74065" lon="0.17376">
        <ele>2406</ele>
        <time>2019-02-27T10:43:33Z</time>
      </trkpt>
      <trkpt lat="42.74065" lon="0.17376">
        <ele>2406</ele>
        <time>2019-02-27T10:43:34Z</time>
      </trkpt>
      <trkpt lat="42.74065" lon="0.17376">
        <ele>2406</ele>
        <time>2019-02-27T10:43:35Z</time>
      </trkpt>
      <trkpt lat="42.74065" lon="0.17376">
        <ele>2406</ele>
        <time>2019-02-27T10:43:36Z</time>
      </trkpt>
      <trkpt lat="42.74065" lon="0.17376">
        <ele>2406</ele>
        <time>2019-02-27T10:43:37Z</time>
      </trkpt>
      <trkpt lat="42.74065" lon="0.17376">
        <ele>2406</ele>
        <time>2019-02-27T10:43:38Z</time>
      </trkpt>
      <trkpt lat="42.74065" lon="0.17376">
        <ele>2406</ele>
        <time>2019-02-27T10:43:39Z</time>
      </trkpt>
      <trkpt lat="42.74065" lon="0.17376">
        <ele>2406</ele>
        <time>2019-02-27T10:43:40Z</time>
      </trkpt>
      <trkpt lat="42.74065" lon="0.17376">
        <ele>2404</ele>
        <time>2019-02-27T10:43:41Z</time>
      </trkpt>
      <trkpt lat="42.74065" lon="0.17376">
        <ele>2406</ele>
        <time>2019-02-27T10:43:42Z</time>
      </trkpt>
      <trkpt lat="42.74065" lon="0.17376">
        <ele>2406</ele>
        <time>2019-02-27T10:43:43Z</time>
      </trkpt>
      <trkpt lat="42.74065" lon="0.17376">
        <ele>2404</ele>
        <time>2019-02-27T10:43:44Z</time>
      </trkpt>
      <trkpt lat="42.74065" lon="0.17376">
        <ele>2406</ele>
        <time>2019-02-27T10:43:45Z</time>
      </trkpt>
      <trkpt lat="42.74065" lon="0.17376">
        <ele>2406</ele>
        <time>2019-02-27T10:43:46Z</time>
      </trkpt>
      <trkpt lat="42.74065" lon="0.17376">
        <ele>2406</ele>
        <time>2019-02-27T10:43:47Z</time>
      </trkpt>
      <trkpt lat="42.74065" lon="0.17376">
        <ele>2406</ele>
        <time>2019-02-27T10:43:48Z</time>
      </trkpt>
      <trkpt lat="42.74065" lon="0.17376">
        <ele>2406</ele>
        <time>2019-02-27T10:43:49Z</time>
      </trkpt>
      <trkpt lat="42.74065" lon="0.17376">
        <ele>2406</ele>
        <time>2019-02-27T10:43:50Z</time>
      </trkpt>
      <trkpt lat="42.74065" lon="0.17376">
        <ele>2406</ele>
        <time>2019-02-27T10:43:51Z</time>
      </trkpt>
      <trkpt lat="42.74065" lon="0.17376">
        <ele>2406</ele>
        <time>2019-02-27T10:43:52Z</time>
      </trkpt>
      <trkpt lat="42.74065" lon="0.17376">
        <ele>2406</ele>
        <time>2019-02-27T10:43:53Z</time>
      </trkpt>
      <trkpt lat="42.74065" lon="0.17376">
        <ele>2406</ele>
        <time>2019-02-27T10:43:54Z</time>
      </trkpt>
      <trkpt lat="42.74065" lon="0.17376">
        <ele>2406</ele>
        <time>2019-02-27T10:43:55Z</time>
      </trkpt>
      <trkpt lat="42.74065" lon="0.17376">
        <ele>2406</ele>
        <time>2019-02-27T10:43:56Z</time>
      </trkpt>
      <trkpt lat="42.74065" lon="0.17376">
        <ele>2406</ele>
        <time>2019-02-27T10:43:57Z</time>
      </trkpt>
      <trkpt lat="42.74065" lon="0.17376">
        <ele>2406</ele>
        <time>2019-02-27T10:43:58Z</time>
      </trkpt>
      <trkpt lat="42.74065" lon="0.17376">
        <ele>2406</ele>
        <time>2019-02-27T10:43:59Z</time>
      </trkpt>
      <trkpt lat="42.74065" lon="0.17376">
        <ele>2406</ele>
        <time>2019-02-27T10:44:00Z</time>
      </trkpt>
      <trkpt lat="42.74065" lon="0.17376">
        <ele>2404</ele>
        <time>2019-02-27T10:44:01Z</time>
      </trkpt>
      <trkpt lat="42.74065" lon="0.17376">
        <ele>2404</ele>
        <time>2019-02-27T10:44:02Z</time>
      </trkpt>
      <trkpt lat="42.74065" lon="0.17376">
        <ele>2404</ele>
        <time>2019-02-27T10:44:03Z</time>
      </trkpt>
      <trkpt lat="42.74065" lon="0.17376">
        <ele>2404</ele>
        <time>2019-02-27T10:44:04Z</time>
      </trkpt>
      <trkpt lat="42.74065" lon="0.17376">
        <ele>2404</ele>
        <time>2019-02-27T10:44:05Z</time>
      </trkpt>
      <trkpt lat="42.74065" lon="0.17376">
        <ele>2404</ele>
        <time>2019-02-27T10:44:06Z</time>
      </trkpt>
      <trkpt lat="42.74065" lon="0.17376">
        <ele>2404</ele>
        <time>2019-02-27T10:44:07Z</time>
      </trkpt>
      <trkpt lat="42.74065" lon="0.17376">
        <ele>2404</ele>
        <time>2019-02-27T10:44:08Z</time>
      </trkpt>
      <trkpt lat="42.74065" lon="0.17376">
        <ele>2404</ele>
        <time>2019-02-27T10:44:09Z</time>
      </trkpt>
      <trkpt lat="42.74065" lon="0.17376">
        <ele>2404</ele>
        <time>2019-02-27T10:44:10Z</time>
      </trkpt>
      <trkpt lat="42.74065" lon="0.17376">
        <ele>2404</ele>
        <time>2019-02-27T10:44:11Z</time>
      </trkpt>
      <trkpt lat="42.74065" lon="0.17376">
        <ele>2404</ele>
        <time>2019-02-27T10:44:12Z</time>
      </trkpt>
      <trkpt lat="42.74065" lon="0.17376">
        <ele>2404</ele>
        <time>2019-02-27T10:44:13Z</time>
      </trkpt>
      <trkpt lat="42.74065" lon="0.17376">
        <ele>2404</ele>
        <time>2019-02-27T10:44:14Z</time>
      </trkpt>
      <trkpt lat="42.74065" lon="0.17376">
        <ele>2404</ele>
        <time>2019-02-27T10:44:15Z</time>
      </trkpt>
      <trkpt lat="42.74065" lon="0.17376">
        <ele>2404</ele>
        <time>2019-02-27T10:44:16Z</time>
      </trkpt>
      <trkpt lat="42.74065" lon="0.17376">
        <ele>2404</ele>
        <time>2019-02-27T10:44:17Z</time>
      </trkpt>
      <trkpt lat="42.74065" lon="0.17376">
        <ele>2404</ele>
        <time>2019-02-27T10:44:18Z</time>
      </trkpt>
      <trkpt lat="42.74065" lon="0.17376">
        <ele>2404</ele>
        <time>2019-02-27T10:44:19Z</time>
      </trkpt>
      <trkpt lat="42.74065" lon="0.17376">
        <ele>2404</ele>
        <time>2019-02-27T10:44:20Z</time>
      </trkpt>
      <trkpt lat="42.74065" lon="0.17376">
        <ele>2404</ele>
        <time>2019-02-27T10:44:21Z</time>
      </trkpt>
      <trkpt lat="42.74065" lon="0.17376">
        <ele>2404</ele>
        <time>2019-02-27T10:44:22Z</time>
      </trkpt>
      <trkpt lat="42.74065" lon="0.17376">
        <ele>2406</ele>
        <time>2019-02-27T10:44:23Z</time>
      </trkpt>
      <trkpt lat="42.74065" lon="0.17376">
        <ele>2406</ele>
        <time>2019-02-27T10:44:24Z</time>
      </trkpt>
      <trkpt lat="42.74065" lon="0.17376">
        <ele>2406</ele>
        <time>2019-02-27T10:44:25Z</time>
      </trkpt>
      <trkpt lat="42.74065" lon="0.17376">
        <ele>2406</ele>
        <time>2019-02-27T10:44:26Z</time>
      </trkpt>
      <trkpt lat="42.74065" lon="0.17376">
        <ele>2406</ele>
        <time>2019-02-27T10:44:27Z</time>
      </trkpt>
      <trkpt lat="42.74065" lon="0.17376">
        <ele>2406</ele>
        <time>2019-02-27T10:44:28Z</time>
      </trkpt>
      <trkpt lat="42.74065" lon="0.17376">
        <ele>2404</ele>
        <time>2019-02-27T10:44:29Z</time>
      </trkpt>
      <trkpt lat="42.74065" lon="0.17376">
        <ele>2404</ele>
        <time>2019-02-27T10:44:30Z</time>
      </trkpt>
      <trkpt lat="42.74065" lon="0.17376">
        <ele>2404</ele>
        <time>2019-02-27T10:44:31Z</time>
      </trkpt>
      <trkpt lat="42.74065" lon="0.17376">
        <ele>2404</ele>
        <time>2019-02-27T10:44:32Z</time>
      </trkpt>
      <trkpt lat="42.74065" lon="0.17376">
        <ele>2404</ele>
        <time>2019-02-27T10:44:33Z</time>
      </trkpt>
      <trkpt lat="42.74065" lon="0.17376">
        <ele>2404</ele>
        <time>2019-02-27T10:44:34Z</time>
      </trkpt>
      <trkpt lat="42.74065" lon="0.17376">
        <ele>2404</ele>
        <time>2019-02-27T10:44:35Z</time>
      </trkpt>
      <trkpt lat="42.74065" lon="0.17376">
        <ele>2404</ele>
        <time>2019-02-27T10:44:36Z</time>
      </trkpt>
      <trkpt lat="42.74065" lon="0.17376">
        <ele>2404</ele>
        <time>2019-02-27T10:44:37Z</time>
      </trkpt>
      <trkpt lat="42.74065" lon="0.17376">
        <ele>2404</ele>
        <time>2019-02-27T10:44:38Z</time>
      </trkpt>
      <trkpt lat="42.74065" lon="0.17376">
        <ele>2404</ele>
        <time>2019-02-27T10:44:39Z</time>
      </trkpt>
      <trkpt lat="42.74065" lon="0.17376">
        <ele>2404</ele>
        <time>2019-02-27T10:44:40Z</time>
      </trkpt>
      <trkpt lat="42.74065" lon="0.17376">
        <ele>2404</ele>
        <time>2019-02-27T10:44:41Z</time>
      </trkpt>
      <trkpt lat="42.74065" lon="0.17376">
        <ele>2404</ele>
        <time>2019-02-27T10:44:42Z</time>
      </trkpt>
      <trkpt lat="42.74065" lon="0.17376">
        <ele>2404</ele>
        <time>2019-02-27T10:44:43Z</time>
      </trkpt>
      <trkpt lat="42.74065" lon="0.17376">
        <ele>2404</ele>
        <time>2019-02-27T10:44:44Z</time>
      </trkpt>
      <trkpt lat="42.74065" lon="0.17376">
        <ele>2404</ele>
        <time>2019-02-27T10:44:45Z</time>
      </trkpt>
      <trkpt lat="42.74065" lon="0.17376">
        <ele>2404</ele>
        <time>2019-02-27T10:44:46Z</time>
      </trkpt>
      <trkpt lat="42.74065" lon="0.17376">
        <ele>2406</ele>
        <time>2019-02-27T10:44:47Z</time>
      </trkpt>
      <trkpt lat="42.74065" lon="0.17376">
        <ele>2406</ele>
        <time>2019-02-27T10:44:48Z</time>
      </trkpt>
      <trkpt lat="42.74065" lon="0.17376">
        <ele>2406</ele>
        <time>2019-02-27T10:44:49Z</time>
      </trkpt>
      <trkpt lat="42.74065" lon="0.17376">
        <ele>2406</ele>
        <time>2019-02-27T10:44:50Z</time>
      </trkpt>
      <trkpt lat="42.74065" lon="0.17376">
        <ele>2406</ele>
        <time>2019-02-27T10:44:51Z</time>
      </trkpt>
      <trkpt lat="42.74065" lon="0.17376">
        <ele>2406</ele>
        <time>2019-02-27T10:44:52Z</time>
      </trkpt>
      <trkpt lat="42.74065" lon="0.17376">
        <ele>2406</ele>
        <time>2019-02-27T10:44:53Z</time>
      </trkpt>
      <trkpt lat="42.74065" lon="0.17376">
        <ele>2406</ele>
        <time>2019-02-27T10:44:54Z</time>
      </trkpt>
      <trkpt lat="42.74065" lon="0.17376">
        <ele>2406</ele>
        <time>2019-02-27T10:44:55Z</time>
      </trkpt>
      <trkpt lat="42.74065" lon="0.17376">
        <ele>2406</ele>
        <time>2019-02-27T10:44:56Z</time>
      </trkpt>
      <trkpt lat="42.74065" lon="0.17376">
        <ele>2404</ele>
        <time>2019-02-27T10:44:57Z</time>
      </trkpt>
      <trkpt lat="42.74065" lon="0.17376">
        <ele>2404</ele>
        <time>2019-02-27T10:44:58Z</time>
      </trkpt>
      <trkpt lat="42.74065" lon="0.17376">
        <ele>2404</ele>
        <time>2019-02-27T10:44:59Z</time>
      </trkpt>
      <trkpt lat="42.74065" lon="0.17376">
        <ele>2404</ele>
        <time>2019-02-27T10:45:00Z</time>
      </trkpt>
      <trkpt lat="42.74065" lon="0.17376">
        <ele>2404</ele>
        <time>2019-02-27T10:45:01Z</time>
      </trkpt>
      <trkpt lat="42.74065" lon="0.17376">
        <ele>2404</ele>
        <time>2019-02-27T10:45:02Z</time>
      </trkpt>
      <trkpt lat="42.74065" lon="0.17376">
        <ele>2404</ele>
        <time>2019-02-27T10:45:03Z</time>
      </trkpt>
      <trkpt lat="42.74065" lon="0.17376">
        <ele>2404</ele>
        <time>2019-02-27T10:45:04Z</time>
      </trkpt>
      <trkpt lat="42.74065" lon="0.17376">
        <ele>2404</ele>
        <time>2019-02-27T10:45:05Z</time>
      </trkpt>
      <trkpt lat="42.74065" lon="0.17376">
        <ele>2404</ele>
        <time>2019-02-27T10:45:06Z</time>
      </trkpt>
      <trkpt lat="42.74065" lon="0.17376">
        <ele>2404</ele>
        <time>2019-02-27T10:45:07Z</time>
      </trkpt>
      <trkpt lat="42.74065" lon="0.17376">
        <ele>2404</ele>
        <time>2019-02-27T10:45:08Z</time>
      </trkpt>
      <trkpt lat="42.74065" lon="0.17376">
        <ele>2404</ele>
        <time>2019-02-27T10:45:09Z</time>
      </trkpt>
      <trkpt lat="42.74065" lon="0.17376">
        <ele>2404</ele>
        <time>2019-02-27T10:45:10Z</time>
      </trkpt>
      <trkpt lat="42.74065" lon="0.17376">
        <ele>2404</ele>
        <time>2019-02-27T10:45:11Z</time>
      </trkpt>
      <trkpt lat="42.74065" lon="0.17376">
        <ele>2406</ele>
        <time>2019-02-27T10:45:12Z</time>
      </trkpt>
      <trkpt lat="42.74065" lon="0.17376">
        <ele>2406</ele>
        <time>2019-02-27T10:45:13Z</time>
      </trkpt>
      <trkpt lat="42.74065" lon="0.17376">
        <ele>2406</ele>
        <time>2019-02-27T10:45:14Z</time>
      </trkpt>
      <trkpt lat="42.74065" lon="0.17376">
        <ele>2406</ele>
        <time>2019-02-27T10:45:15Z</time>
      </trkpt>
      <trkpt lat="42.74065" lon="0.17376">
        <ele>2406</ele>
        <time>2019-02-27T10:45:16Z</time>
      </trkpt>
      <trkpt lat="42.74065" lon="0.17376">
        <ele>2406</ele>
        <time>2019-02-27T10:45:17Z</time>
      </trkpt>
      <trkpt lat="42.74065" lon="0.17376">
        <ele>2406</ele>
        <time>2019-02-27T10:45:18Z</time>
      </trkpt>
      <trkpt lat="42.74065" lon="0.17376">
        <ele>2404</ele>
        <time>2019-02-27T10:45:19Z</time>
      </trkpt>
      <trkpt lat="42.74065" lon="0.17376">
        <ele>2404</ele>
        <time>2019-02-27T10:45:20Z</time>
      </trkpt>
      <trkpt lat="42.74065" lon="0.17376">
        <ele>2404</ele>
        <time>2019-02-27T10:45:21Z</time>
      </trkpt>
      <trkpt lat="42.74065" lon="0.17376">
        <ele>2404</ele>
        <time>2019-02-27T10:45:22Z</time>
      </trkpt>
      <trkpt lat="42.74065" lon="0.17376">
        <ele>2404</ele>
        <time>2019-02-27T10:45:23Z</time>
      </trkpt>
      <trkpt lat="42.74065" lon="0.17376">
        <ele>2404</ele>
        <time>2019-02-27T10:45:24Z</time>
      </trkpt>
      <trkpt lat="42.74065" lon="0.17376">
        <ele>2404</ele>
        <time>2019-02-27T10:45:25Z</time>
      </trkpt>
      <trkpt lat="42.74065" lon="0.17376">
        <ele>2404</ele>
        <time>2019-02-27T10:45:26Z</time>
      </trkpt>
      <trkpt lat="42.74065" lon="0.17376">
        <ele>2404</ele>
        <time>2019-02-27T10:45:27Z</time>
      </trkpt>
      <trkpt lat="42.74065" lon="0.17376">
        <ele>2404</ele>
        <time>2019-02-27T10:45:28Z</time>
      </trkpt>
      <trkpt lat="42.74065" lon="0.17376">
        <ele>2404</ele>
        <time>2019-02-27T10:45:29Z</time>
      </trkpt>
      <trkpt lat="42.74065" lon="0.17376">
        <ele>2404</ele>
        <time>2019-02-27T10:45:30Z</time>
      </trkpt>
      <trkpt lat="42.74065" lon="0.17376">
        <ele>2404</ele>
        <time>2019-02-27T10:45:31Z</time>
      </trkpt>
      <trkpt lat="42.74065" lon="0.17376">
        <ele>2404</ele>
        <time>2019-02-27T10:45:32Z</time>
      </trkpt>
      <trkpt lat="42.74065" lon="0.17376">
        <ele>2404</ele>
        <time>2019-02-27T10:45:33Z</time>
      </trkpt>
      <trkpt lat="42.74065" lon="0.17376">
        <ele>2404</ele>
        <time>2019-02-27T10:45:34Z</time>
      </trkpt>
      <trkpt lat="42.74065" lon="0.17376">
        <ele>2404</ele>
        <time>2019-02-27T10:45:35Z</time>
      </trkpt>
      <trkpt lat="42.74065" lon="0.17376">
        <ele>2404</ele>
        <time>2019-02-27T10:45:36Z</time>
      </trkpt>
      <trkpt lat="42.74065" lon="0.17376">
        <ele>2404</ele>
        <time>2019-02-27T10:45:37Z</time>
      </trkpt>
      <trkpt lat="42.74065" lon="0.17376">
        <ele>2404</ele>
        <time>2019-02-27T10:45:38Z</time>
      </trkpt>
      <trkpt lat="42.74065" lon="0.17376">
        <ele>2404</ele>
        <time>2019-02-27T10:45:39Z</time>
      </trkpt>
      <trkpt lat="42.74065" lon="0.17376">
        <ele>2404</ele>
        <time>2019-02-27T10:45:40Z</time>
      </trkpt>
      <trkpt lat="42.74065" lon="0.17376">
        <ele>2404</ele>
        <time>2019-02-27T10:45:41Z</time>
      </trkpt>
      <trkpt lat="42.74065" lon="0.17376">
        <ele>2404</ele>
        <time>2019-02-27T10:45:42Z</time>
      </trkpt>
      <trkpt lat="42.74065" lon="0.17376">
        <ele>2404</ele>
        <time>2019-02-27T10:45:43Z</time>
      </trkpt>
      <trkpt lat="42.74065" lon="0.17376">
        <ele>2404</ele>
        <time>2019-02-27T10:45:44Z</time>
      </trkpt>
      <trkpt lat="42.74065" lon="0.17376">
        <ele>2406</ele>
        <time>2019-02-27T10:45:45Z</time>
      </trkpt>
      <trkpt lat="42.74065" lon="0.17376">
        <ele>2406</ele>
        <time>2019-02-27T10:45:46Z</time>
      </trkpt>
      <trkpt lat="42.74065" lon="0.17376">
        <ele>2406</ele>
        <time>2019-02-27T10:45:47Z</time>
      </trkpt>
      <trkpt lat="42.74065" lon="0.17376">
        <ele>2406</ele>
        <time>2019-02-27T10:45:48Z</time>
      </trkpt>
      <trkpt lat="42.74065" lon="0.17376">
        <ele>2406</ele>
        <time>2019-02-27T10:45:49Z</time>
      </trkpt>
      <trkpt lat="42.74065" lon="0.17376">
        <ele>2406</ele>
        <time>2019-02-27T10:45:50Z</time>
      </trkpt>
      <trkpt lat="42.74065" lon="0.17376">
        <ele>2406</ele>
        <time>2019-02-27T10:45:51Z</time>
      </trkpt>
      <trkpt lat="42.74065" lon="0.17376">
        <ele>2406</ele>
        <time>2019-02-27T10:45:52Z</time>
      </trkpt>
      <trkpt lat="42.74065" lon="0.17376">
        <ele>2406</ele>
        <time>2019-02-27T10:45:53Z</time>
      </trkpt>
      <trkpt lat="42.74065" lon="0.17376">
        <ele>2406</ele>
        <time>2019-02-27T10:45:54Z</time>
      </trkpt>
      <trkpt lat="42.74065" lon="0.17376">
        <ele>2406</ele>
        <time>2019-02-27T10:45:55Z</time>
      </trkpt>
      <trkpt lat="42.74065" lon="0.17376">
        <ele>2406</ele>
        <time>2019-02-27T10:45:56Z</time>
      </trkpt>
      <trkpt lat="42.74065" lon="0.17376">
        <ele>2406</ele>
        <time>2019-02-27T10:45:57Z</time>
      </trkpt>
      <trkpt lat="42.74065" lon="0.17376">
        <ele>2406</ele>
        <time>2019-02-27T10:45:58Z</time>
      </trkpt>
      <trkpt lat="42.74065" lon="0.17376">
        <ele>2406</ele>
        <time>2019-02-27T10:45:59Z</time>
      </trkpt>
      <trkpt lat="42.74065" lon="0.17376">
        <ele>2406</ele>
        <time>2019-02-27T10:46:00Z</time>
      </trkpt>
      <trkpt lat="42.74065" lon="0.17376">
        <ele>2406</ele>
        <time>2019-02-27T10:46:01Z</time>
      </trkpt>
      <trkpt lat="42.74065" lon="0.17376">
        <ele>2406</ele>
        <time>2019-02-27T10:46:02Z</time>
      </trkpt>
      <trkpt lat="42.74065" lon="0.17376">
        <ele>2406</ele>
        <time>2019-02-27T10:46:03Z</time>
      </trkpt>
      <trkpt lat="42.74065" lon="0.17376">
        <ele>2406</ele>
        <time>2019-02-27T10:46:04Z</time>
      </trkpt>
      <trkpt lat="42.74065" lon="0.17376">
        <ele>2406</ele>
        <time>2019-02-27T10:46:05Z</time>
      </trkpt>
      <trkpt lat="42.74065" lon="0.17376">
        <ele>2406</ele>
        <time>2019-02-27T10:46:06Z</time>
      </trkpt>
      <trkpt lat="42.74065" lon="0.17376">
        <ele>2406</ele>
        <time>2019-02-27T10:46:07Z</time>
      </trkpt>
      <trkpt lat="42.74065" lon="0.17376">
        <ele>2406</ele>
        <time>2019-02-27T10:46:08Z</time>
      </trkpt>
      <trkpt lat="42.74065" lon="0.17376">
        <ele>2406</ele>
        <time>2019-02-27T10:46:09Z</time>
      </trkpt>
      <trkpt lat="42.74065" lon="0.17376">
        <ele>2406</ele>
        <time>2019-02-27T10:46:10Z</time>
      </trkpt>
      <trkpt lat="42.74065" lon="0.17376">
        <ele>2406</ele>
        <time>2019-02-27T10:46:11Z</time>
      </trkpt>
      <trkpt lat="42.74065" lon="0.17376">
        <ele>2406</ele>
        <time>2019-02-27T10:46:12Z</time>
      </trkpt>
      <trkpt lat="42.74065" lon="0.17376">
        <ele>2406</ele>
        <time>2019-02-27T10:46:13Z</time>
      </trkpt>
      <trkpt lat="42.74065" lon="0.17376">
        <ele>2404</ele>
        <time>2019-02-27T10:46:14Z</time>
      </trkpt>
      <trkpt lat="42.74065" lon="0.17376">
        <ele>2404</ele>
        <time>2019-02-27T10:46:15Z</time>
      </trkpt>
      <trkpt lat="42.74065" lon="0.17376">
        <ele>2404</ele>
        <time>2019-02-27T10:46:16Z</time>
      </trkpt>
      <trkpt lat="42.74065" lon="0.17376">
        <ele>2404</ele>
        <time>2019-02-27T10:46:17Z</time>
      </trkpt>
      <trkpt lat="42.74065" lon="0.17376">
        <ele>2406</ele>
        <time>2019-02-27T10:46:18Z</time>
      </trkpt>
      <trkpt lat="42.74065" lon="0.17376">
        <ele>2406</ele>
        <time>2019-02-27T10:46:19Z</time>
      </trkpt>
      <trkpt lat="42.74065" lon="0.17376">
        <ele>2406</ele>
        <time>2019-02-27T10:46:20Z</time>
      </trkpt>
      <trkpt lat="42.74065" lon="0.17376">
        <ele>2406</ele>
        <time>2019-02-27T10:46:21Z</time>
      </trkpt>
      <trkpt lat="42.74065" lon="0.17376">
        <ele>2404</ele>
        <time>2019-02-27T10:46:22Z</time>
      </trkpt>
      <trkpt lat="42.74065" lon="0.17376">
        <ele>2404</ele>
        <time>2019-02-27T10:46:23Z</time>
      </trkpt>
      <trkpt lat="42.74065" lon="0.17376">
        <ele>2404</ele>
        <time>2019-02-27T10:46:24Z</time>
      </trkpt>
      <trkpt lat="42.74065" lon="0.17376">
        <ele>2404</ele>
        <time>2019-02-27T10:46:25Z</time>
      </trkpt>
      <trkpt lat="42.74065" lon="0.17376">
        <ele>2406</ele>
        <time>2019-02-27T10:46:26Z</time>
      </trkpt>
      <trkpt lat="42.74065" lon="0.17376">
        <ele>2406</ele>
        <time>2019-02-27T10:46:27Z</time>
      </trkpt>
      <trkpt lat="42.74065" lon="0.17376">
        <ele>2406</ele>
        <time>2019-02-27T10:46:28Z</time>
      </trkpt>
      <trkpt lat="42.74065" lon="0.17376">
        <ele>2406</ele>
        <time>2019-02-27T10:46:29Z</time>
      </trkpt>
      <trkpt lat="42.74065" lon="0.17376">
        <ele>2406</ele>
        <time>2019-02-27T10:46:30Z</time>
      </trkpt>
      <trkpt lat="42.74065" lon="0.17376">
        <ele>2406</ele>
        <time>2019-02-27T10:46:31Z</time>
      </trkpt>
      <trkpt lat="42.74065" lon="0.17376">
        <ele>2406</ele>
        <time>2019-02-27T10:46:32Z</time>
      </trkpt>
      <trkpt lat="42.74065" lon="0.17376">
        <ele>2406</ele>
        <time>2019-02-27T10:46:33Z</time>
      </trkpt>
      <trkpt lat="42.74065" lon="0.17376">
        <ele>2406</ele>
        <time>2019-02-27T10:46:34Z</time>
      </trkpt>
      <trkpt lat="42.74065" lon="0.17376">
        <ele>2406</ele>
        <time>2019-02-27T10:46:35Z</time>
      </trkpt>
      <trkpt lat="42.74065" lon="0.17376">
        <ele>2406</ele>
        <time>2019-02-27T10:46:36Z</time>
      </trkpt>
      <trkpt lat="42.74065" lon="0.17376">
        <ele>2406</ele>
        <time>2019-02-27T10:46:37Z</time>
      </trkpt>
      <trkpt lat="42.74065" lon="0.17376">
        <ele>2406</ele>
        <time>2019-02-27T10:46:38Z</time>
      </trkpt>
      <trkpt lat="42.74065" lon="0.17376">
        <ele>2406</ele>
        <time>2019-02-27T10:46:39Z</time>
      </trkpt>
      <trkpt lat="42.74065" lon="0.17376">
        <ele>2406</ele>
        <time>2019-02-27T10:46:40Z</time>
      </trkpt>
      <trkpt lat="42.74065" lon="0.17376">
        <ele>2406</ele>
        <time>2019-02-27T10:46:41Z</time>
      </trkpt>
      <trkpt lat="42.74065" lon="0.17376">
        <ele>2406</ele>
        <time>2019-02-27T10:46:42Z</time>
      </trkpt>
      <trkpt lat="42.74065" lon="0.17376">
        <ele>2406</ele>
        <time>2019-02-27T10:46:43Z</time>
      </trkpt>
      <trkpt lat="42.74065" lon="0.17376">
        <ele>2406</ele>
        <time>2019-02-27T10:46:44Z</time>
      </trkpt>
      <trkpt lat="42.74065" lon="0.17376">
        <ele>2406</ele>
        <time>2019-02-27T10:46:45Z</time>
      </trkpt>
      <trkpt lat="42.74065" lon="0.17376">
        <ele>2406</ele>
        <time>2019-02-27T10:46:46Z</time>
      </trkpt>
      <trkpt lat="42.74065" lon="0.17376">
        <ele>2406</ele>
        <time>2019-02-27T10:46:47Z</time>
      </trkpt>
      <trkpt lat="42.74065" lon="0.17376">
        <ele>2406</ele>
        <time>2019-02-27T10:46:48Z</time>
      </trkpt>
      <trkpt lat="42.74065" lon="0.17376">
        <ele>2406</ele>
        <time>2019-02-27T10:46:49Z</time>
      </trkpt>
      <trkpt lat="42.74065" lon="0.17376">
        <ele>2406</ele>
        <time>2019-02-27T10:46:50Z</time>
      </trkpt>
      <trkpt lat="42.74065" lon="0.17376">
        <ele>2404</ele>
        <time>2019-02-27T10:46:51Z</time>
      </trkpt>
      <trkpt lat="42.74065" lon="0.17376">
        <ele>2404</ele>
        <time>2019-02-27T10:46:52Z</time>
      </trkpt>
      <trkpt lat="42.74065" lon="0.17376">
        <ele>2404</ele>
        <time>2019-02-27T10:46:53Z</time>
      </trkpt>
      <trkpt lat="42.74065" lon="0.17376">
        <ele>2404</ele>
        <time>2019-02-27T10:46:54Z</time>
      </trkpt>
      <trkpt lat="42.74065" lon="0.17376">
        <ele>2404</ele>
        <time>2019-02-27T10:46:55Z</time>
      </trkpt>
      <trkpt lat="42.74065" lon="0.17376">
        <ele>2404</ele>
        <time>2019-02-27T10:46:56Z</time>
      </trkpt>
      <trkpt lat="42.74065" lon="0.17376">
        <ele>2404</ele>
        <time>2019-02-27T10:46:57Z</time>
      </trkpt>
      <trkpt lat="42.74066" lon="0.17378">
        <ele>2404</ele>
        <time>2019-02-27T10:46:58Z</time>
      </trkpt>
      <trkpt lat="42.74066" lon="0.17378">
        <ele>2404</ele>
        <time>2019-02-27T10:46:59Z</time>
      </trkpt>
      <trkpt lat="42.74066" lon="0.17378">
        <ele>2406</ele>
        <time>2019-02-27T10:47:00Z</time>
      </trkpt>
      <trkpt lat="42.74066" lon="0.17378">
        <ele>2406</ele>
        <time>2019-02-27T10:47:01Z</time>
      </trkpt>
      <trkpt lat="42.74066" lon="0.17378">
        <ele>2406</ele>
        <time>2019-02-27T10:47:02Z</time>
      </trkpt>
      <trkpt lat="42.74066" lon="0.17378">
        <ele>2406</ele>
        <time>2019-02-27T10:47:03Z</time>
      </trkpt>
      <trkpt lat="42.74066" lon="0.17378">
        <ele>2406</ele>
        <time>2019-02-27T10:47:04Z</time>
      </trkpt>
      <trkpt lat="42.74066" lon="0.17378">
        <ele>2406</ele>
        <time>2019-02-27T10:47:05Z</time>
      </trkpt>
      <trkpt lat="42.74066" lon="0.17378">
        <ele>2406</ele>
        <time>2019-02-27T10:47:06Z</time>
      </trkpt>
      <trkpt lat="42.74066" lon="0.17378">
        <ele>2406</ele>
        <time>2019-02-27T10:47:07Z</time>
      </trkpt>
      <trkpt lat="42.74066" lon="0.17378">
        <ele>2406</ele>
        <time>2019-02-27T10:47:08Z</time>
      </trkpt>
      <trkpt lat="42.74066" lon="0.17378">
        <ele>2406</ele>
        <time>2019-02-27T10:47:09Z</time>
      </trkpt>
      <trkpt lat="42.74066" lon="0.17378">
        <ele>2406</ele>
        <time>2019-02-27T10:47:10Z</time>
      </trkpt>
      <trkpt lat="42.74066" lon="0.17378">
        <ele>2406</ele>
        <time>2019-02-27T10:47:11Z</time>
      </trkpt>
      <trkpt lat="42.74066" lon="0.17378">
        <ele>2406</ele>
        <time>2019-02-27T10:47:12Z</time>
      </trkpt>
      <trkpt lat="42.74066" lon="0.17378">
        <ele>2406</ele>
        <time>2019-02-27T10:47:13Z</time>
      </trkpt>
      <trkpt lat="42.74066" lon="0.17378">
        <ele>2406</ele>
        <time>2019-02-27T10:47:14Z</time>
      </trkpt>
      <trkpt lat="42.74066" lon="0.17378">
        <ele>2404</ele>
        <time>2019-02-27T10:47:15Z</time>
      </trkpt>
      <trkpt lat="42.74066" lon="0.17378">
        <ele>2404</ele>
        <time>2019-02-27T10:47:16Z</time>
      </trkpt>
      <trkpt lat="42.74066" lon="0.17378">
        <ele>2404</ele>
        <time>2019-02-27T10:47:17Z</time>
      </trkpt>
      <trkpt lat="42.74066" lon="0.17378">
        <ele>2404</ele>
        <time>2019-02-27T10:47:18Z</time>
      </trkpt>
      <trkpt lat="42.74066" lon="0.17378">
        <ele>2404</ele>
        <time>2019-02-27T10:47:19Z</time>
      </trkpt>
      <trkpt lat="42.74066" lon="0.17378">
        <ele>2404</ele>
        <time>2019-02-27T10:47:20Z</time>
      </trkpt>
      <trkpt lat="42.74066" lon="0.17378">
        <ele>2404</ele>
        <time>2019-02-27T10:47:21Z</time>
      </trkpt>
      <trkpt lat="42.74066" lon="0.17378">
        <ele>2406</ele>
        <time>2019-02-27T10:47:22Z</time>
      </trkpt>
      <trkpt lat="42.74066" lon="0.17378">
        <ele>2406</ele>
        <time>2019-02-27T10:47:23Z</time>
      </trkpt>
      <trkpt lat="42.74066" lon="0.17378">
        <ele>2406</ele>
        <time>2019-02-27T10:47:24Z</time>
      </trkpt>
      <trkpt lat="42.74066" lon="0.17378">
        <ele>2406</ele>
        <time>2019-02-27T10:47:25Z</time>
      </trkpt>
      <trkpt lat="42.74066" lon="0.17378">
        <ele>2406</ele>
        <time>2019-02-27T10:47:26Z</time>
      </trkpt>
      <trkpt lat="42.74066" lon="0.17378">
        <ele>2406</ele>
        <time>2019-02-27T10:47:27Z</time>
      </trkpt>
      <trkpt lat="42.74066" lon="0.17378">
        <ele>2406</ele>
        <time>2019-02-27T10:47:28Z</time>
      </trkpt>
      <trkpt lat="42.74066" lon="0.17378">
        <ele>2406</ele>
        <time>2019-02-27T10:47:29Z</time>
      </trkpt>
      <trkpt lat="42.74066" lon="0.17378">
        <ele>2406</ele>
        <time>2019-02-27T10:47:30Z</time>
      </trkpt>
      <trkpt lat="42.74066" lon="0.17378">
        <ele>2406</ele>
        <time>2019-02-27T10:47:31Z</time>
      </trkpt>
      <trkpt lat="42.74066" lon="0.17378">
        <ele>2406</ele>
        <time>2019-02-27T10:47:32Z</time>
      </trkpt>
      <trkpt lat="42.74066" lon="0.17378">
        <ele>2406</ele>
        <time>2019-02-27T10:47:33Z</time>
      </trkpt>
      <trkpt lat="42.74066" lon="0.17378">
        <ele>2406</ele>
        <time>2019-02-27T10:47:34Z</time>
      </trkpt>
      <trkpt lat="42.74066" lon="0.17378">
        <ele>2406</ele>
        <time>2019-02-27T10:47:35Z</time>
      </trkpt>
      <trkpt lat="42.74066" lon="0.17378">
        <ele>2406</ele>
        <time>2019-02-27T10:47:36Z</time>
      </trkpt>
      <trkpt lat="42.74066" lon="0.17378">
        <ele>2406</ele>
        <time>2019-02-27T10:47:37Z</time>
      </trkpt>
      <trkpt lat="42.74066" lon="0.17378">
        <ele>2406</ele>
        <time>2019-02-27T10:47:38Z</time>
      </trkpt>
      <trkpt lat="42.74066" lon="0.17378">
        <ele>2406</ele>
        <time>2019-02-27T10:47:39Z</time>
      </trkpt>
      <trkpt lat="42.74066" lon="0.17378">
        <ele>2406</ele>
        <time>2019-02-27T10:47:40Z</time>
      </trkpt>
      <trkpt lat="42.74066" lon="0.17378">
        <ele>2406</ele>
        <time>2019-02-27T10:47:41Z</time>
      </trkpt>
      <trkpt lat="42.74066" lon="0.17378">
        <ele>2406</ele>
        <time>2019-02-27T10:47:42Z</time>
      </trkpt>
      <trkpt lat="42.74066" lon="0.17378">
        <ele>2406</ele>
        <time>2019-02-27T10:47:43Z</time>
      </trkpt>
      <trkpt lat="42.74066" lon="0.17378">
        <ele>2406</ele>
        <time>2019-02-27T10:47:44Z</time>
      </trkpt>
      <trkpt lat="42.74068" lon="0.17376">
        <ele>2406</ele>
        <time>2019-02-27T10:47:45Z</time>
      </trkpt>
      <trkpt lat="42.74068" lon="0.17376">
        <ele>2406</ele>
        <time>2019-02-27T10:47:46Z</time>
      </trkpt>
      <trkpt lat="42.74068" lon="0.17376">
        <ele>2406</ele>
        <time>2019-02-27T10:47:47Z</time>
      </trkpt>
      <trkpt lat="42.74068" lon="0.17376">
        <ele>2406</ele>
        <time>2019-02-27T10:47:48Z</time>
      </trkpt>
      <trkpt lat="42.7407" lon="0.17375">
        <ele>2406</ele>
        <time>2019-02-27T10:47:49Z</time>
      </trkpt>
      <trkpt lat="42.7407" lon="0.17375">
        <ele>2406</ele>
        <time>2019-02-27T10:47:50Z</time>
      </trkpt>
      <trkpt lat="42.7407" lon="0.17375">
        <ele>2406</ele>
        <time>2019-02-27T10:47:51Z</time>
      </trkpt>
      <trkpt lat="42.7407" lon="0.17375">
        <ele>2406</ele>
        <time>2019-02-27T10:47:52Z</time>
      </trkpt>
      <trkpt lat="42.74072" lon="0.17374">
        <ele>2406</ele>
        <time>2019-02-27T10:47:53Z</time>
      </trkpt>
      <trkpt lat="42.74072" lon="0.17374">
        <ele>2406</ele>
        <time>2019-02-27T10:47:54Z</time>
      </trkpt>
      <trkpt lat="42.74072" lon="0.17374">
        <ele>2406</ele>
        <time>2019-02-27T10:47:55Z</time>
      </trkpt>
      <trkpt lat="42.74074" lon="0.17374">
        <ele>2406</ele>
        <time>2019-02-27T10:47:56Z</time>
      </trkpt>
      <trkpt lat="42.74074" lon="0.17374">
        <ele>2404</ele>
        <time>2019-02-27T10:47:57Z</time>
      </trkpt>
      <trkpt lat="42.74074" lon="0.17374">
        <ele>2404</ele>
        <time>2019-02-27T10:47:58Z</time>
      </trkpt>
      <trkpt lat="42.74074" lon="0.17374">
        <ele>2404</ele>
        <time>2019-02-27T10:47:59Z</time>
      </trkpt>
      <trkpt lat="42.74077" lon="0.17375">
        <ele>2404</ele>
        <time>2019-02-27T10:48:00Z</time>
      </trkpt>
      <trkpt lat="42.74077" lon="0.17375">
        <ele>2404</ele>
        <time>2019-02-27T10:48:01Z</time>
      </trkpt>
      <trkpt lat="42.74077" lon="0.17375">
        <ele>2404</ele>
        <time>2019-02-27T10:48:02Z</time>
      </trkpt>
      <trkpt lat="42.74078" lon="0.17376">
        <ele>2404</ele>
        <time>2019-02-27T10:48:03Z</time>
      </trkpt>
      <trkpt lat="42.74078" lon="0.17376">
        <ele>2404</ele>
        <time>2019-02-27T10:48:04Z</time>
      </trkpt>
      <trkpt lat="42.7408" lon="0.17376">
        <ele>2404</ele>
        <time>2019-02-27T10:48:05Z</time>
      </trkpt>
      <trkpt lat="42.7408" lon="0.17376">
        <ele>2404</ele>
        <time>2019-02-27T10:48:06Z</time>
      </trkpt>
      <trkpt lat="42.7408" lon="0.17376">
        <ele>2404</ele>
        <time>2019-02-27T10:48:07Z</time>
      </trkpt>
      <trkpt lat="42.74082" lon="0.17377">
        <ele>2404</ele>
        <time>2019-02-27T10:48:08Z</time>
      </trkpt>
      <trkpt lat="42.74082" lon="0.17377">
        <ele>2404</ele>
        <time>2019-02-27T10:48:09Z</time>
      </trkpt>
      <trkpt lat="42.74082" lon="0.17377">
        <ele>2404</ele>
        <time>2019-02-27T10:48:10Z</time>
      </trkpt>
      <trkpt lat="42.74082" lon="0.17377">
        <ele>2404</ele>
        <time>2019-02-27T10:48:11Z</time>
      </trkpt>
      <trkpt lat="42.74085" lon="0.17376">
        <ele>2404</ele>
        <time>2019-02-27T10:48:12Z</time>
      </trkpt>
      <trkpt lat="42.74085" lon="0.17376">
        <ele>2404</ele>
        <time>2019-02-27T10:48:13Z</time>
      </trkpt>
      <trkpt lat="42.74085" lon="0.17376">
        <ele>2404</ele>
        <time>2019-02-27T10:48:14Z</time>
      </trkpt>
      <trkpt lat="42.74087" lon="0.17376">
        <ele>2404</ele>
        <time>2019-02-27T10:48:15Z</time>
      </trkpt>
      <trkpt lat="42.74087" lon="0.17376">
        <ele>2404</ele>
        <time>2019-02-27T10:48:16Z</time>
      </trkpt>
      <trkpt lat="42.74087" lon="0.17376">
        <ele>2404</ele>
        <time>2019-02-27T10:48:17Z</time>
      </trkpt>
      <trkpt lat="42.74089" lon="0.17376">
        <ele>2404</ele>
        <time>2019-02-27T10:48:18Z</time>
      </trkpt>
      <trkpt lat="42.74089" lon="0.17376">
        <ele>2404</ele>
        <time>2019-02-27T10:48:19Z</time>
      </trkpt>
      <trkpt lat="42.74089" lon="0.17376">
        <ele>2404</ele>
        <time>2019-02-27T10:48:20Z</time>
      </trkpt>
      <trkpt lat="42.74089" lon="0.17376">
        <ele>2404</ele>
        <time>2019-02-27T10:48:21Z</time>
      </trkpt>
      <trkpt lat="42.74089" lon="0.17376">
        <ele>2404</ele>
        <time>2019-02-27T10:48:22Z</time>
      </trkpt>
      <trkpt lat="42.74089" lon="0.17376">
        <ele>2404</ele>
        <time>2019-02-27T10:48:23Z</time>
      </trkpt>
      <trkpt lat="42.74089" lon="0.17376">
        <ele>2404</ele>
        <time>2019-02-27T10:48:24Z</time>
      </trkpt>
      <trkpt lat="42.74089" lon="0.17376">
        <ele>2404</ele>
        <time>2019-02-27T10:48:25Z</time>
      </trkpt>
      <trkpt lat="42.74089" lon="0.17376">
        <ele>2404</ele>
        <time>2019-02-27T10:48:26Z</time>
      </trkpt>
      <trkpt lat="42.74089" lon="0.17376">
        <ele>2403</ele>
        <time>2019-02-27T10:48:27Z</time>
      </trkpt>
      <trkpt lat="42.74089" lon="0.17376">
        <ele>2403</ele>
        <time>2019-02-27T10:48:28Z</time>
      </trkpt>
      <trkpt lat="42.74089" lon="0.17376">
        <ele>2403</ele>
        <time>2019-02-27T10:48:29Z</time>
      </trkpt>
      <trkpt lat="42.74089" lon="0.17376">
        <ele>2403</ele>
        <time>2019-02-27T10:48:30Z</time>
      </trkpt>
      <trkpt lat="42.74089" lon="0.17376">
        <ele>2403</ele>
        <time>2019-02-27T10:48:31Z</time>
      </trkpt>
      <trkpt lat="42.74089" lon="0.17376">
        <ele>2403</ele>
        <time>2019-02-27T10:48:32Z</time>
      </trkpt>
      <trkpt lat="42.74089" lon="0.17376">
        <ele>2403</ele>
        <time>2019-02-27T10:48:33Z</time>
      </trkpt>
      <trkpt lat="42.74089" lon="0.17376">
        <ele>2403</ele>
        <time>2019-02-27T10:48:34Z</time>
      </trkpt>
      <trkpt lat="42.74089" lon="0.17376">
        <ele>2403</ele>
        <time>2019-02-27T10:48:35Z</time>
      </trkpt>
      <trkpt lat="42.74089" lon="0.17376">
        <ele>2403</ele>
        <time>2019-02-27T10:48:36Z</time>
      </trkpt>
      <trkpt lat="42.74089" lon="0.17376">
        <ele>2403</ele>
        <time>2019-02-27T10:48:37Z</time>
      </trkpt>
      <trkpt lat="42.74089" lon="0.17376">
        <ele>2403</ele>
        <time>2019-02-27T10:48:38Z</time>
      </trkpt>
      <trkpt lat="42.74089" lon="0.17376">
        <ele>2403</ele>
        <time>2019-02-27T10:48:39Z</time>
      </trkpt>
      <trkpt lat="42.74089" lon="0.17376">
        <ele>2403</ele>
        <time>2019-02-27T10:48:40Z</time>
      </trkpt>
      <trkpt lat="42.74089" lon="0.17376">
        <ele>2403</ele>
        <time>2019-02-27T10:48:41Z</time>
      </trkpt>
      <trkpt lat="42.74089" lon="0.17376">
        <ele>2403</ele>
        <time>2019-02-27T10:48:42Z</time>
      </trkpt>
      <trkpt lat="42.74089" lon="0.17376">
        <ele>2403</ele>
        <time>2019-02-27T10:48:43Z</time>
      </trkpt>
      <trkpt lat="42.74089" lon="0.17376">
        <ele>2403</ele>
        <time>2019-02-27T10:48:44Z</time>
      </trkpt>
      <trkpt lat="42.74089" lon="0.17376">
        <ele>2403</ele>
        <time>2019-02-27T10:48:45Z</time>
      </trkpt>
      <trkpt lat="42.74089" lon="0.17376">
        <ele>2403</ele>
        <time>2019-02-27T10:48:46Z</time>
      </trkpt>
      <trkpt lat="42.74089" lon="0.17376">
        <ele>2403</ele>
        <time>2019-02-27T10:48:47Z</time>
      </trkpt>
      <trkpt lat="42.74089" lon="0.17376">
        <ele>2403</ele>
        <time>2019-02-27T10:48:48Z</time>
      </trkpt>
      <trkpt lat="42.74089" lon="0.17376">
        <ele>2403</ele>
        <time>2019-02-27T10:48:49Z</time>
      </trkpt>
      <trkpt lat="42.74089" lon="0.17376">
        <ele>2403</ele>
        <time>2019-02-27T10:48:50Z</time>
      </trkpt>
      <trkpt lat="42.74089" lon="0.17376">
        <ele>2403</ele>
        <time>2019-02-27T10:48:51Z</time>
      </trkpt>
      <trkpt lat="42.74089" lon="0.17376">
        <ele>2403</ele>
        <time>2019-02-27T10:48:52Z</time>
      </trkpt>
      <trkpt lat="42.74089" lon="0.17376">
        <ele>2403</ele>
        <time>2019-02-27T10:48:53Z</time>
      </trkpt>
      <trkpt lat="42.74089" lon="0.17376">
        <ele>2403</ele>
        <time>2019-02-27T10:48:54Z</time>
      </trkpt>
      <trkpt lat="42.74089" lon="0.17376">
        <ele>2403</ele>
        <time>2019-02-27T10:48:55Z</time>
      </trkpt>
      <trkpt lat="42.74089" lon="0.17376">
        <ele>2403</ele>
        <time>2019-02-27T10:48:56Z</time>
      </trkpt>
      <trkpt lat="42.74089" lon="0.17376">
        <ele>2403</ele>
        <time>2019-02-27T10:48:57Z</time>
      </trkpt>
      <trkpt lat="42.74089" lon="0.17376">
        <ele>2403</ele>
        <time>2019-02-27T10:48:58Z</time>
      </trkpt>
      <trkpt lat="42.74089" lon="0.17376">
        <ele>2403</ele>
        <time>2019-02-27T10:48:59Z</time>
      </trkpt>
      <trkpt lat="42.74089" lon="0.17376">
        <ele>2403</ele>
        <time>2019-02-27T10:49:00Z</time>
      </trkpt>
      <trkpt lat="42.74089" lon="0.17376">
        <ele>2403</ele>
        <time>2019-02-27T10:49:01Z</time>
      </trkpt>
      <trkpt lat="42.74089" lon="0.17376">
        <ele>2403</ele>
        <time>2019-02-27T10:49:02Z</time>
      </trkpt>
      <trkpt lat="42.74089" lon="0.17376">
        <ele>2403</ele>
        <time>2019-02-27T10:49:03Z</time>
      </trkpt>
      <trkpt lat="42.74089" lon="0.17376">
        <ele>2403</ele>
        <time>2019-02-27T10:49:04Z</time>
      </trkpt>
      <trkpt lat="42.74089" lon="0.17376">
        <ele>2403</ele>
        <time>2019-02-27T10:49:05Z</time>
      </trkpt>
      <trkpt lat="42.74089" lon="0.17376">
        <ele>2403</ele>
        <time>2019-02-27T10:49:06Z</time>
      </trkpt>
      <trkpt lat="42.74089" lon="0.17376">
        <ele>2403</ele>
        <time>2019-02-27T10:49:07Z</time>
      </trkpt>
      <trkpt lat="42.74089" lon="0.17376">
        <ele>2403</ele>
        <time>2019-02-27T10:49:08Z</time>
      </trkpt>
      <trkpt lat="42.74089" lon="0.17376">
        <ele>2403</ele>
        <time>2019-02-27T10:49:09Z</time>
      </trkpt>
      <trkpt lat="42.74089" lon="0.17376">
        <ele>2403</ele>
        <time>2019-02-27T10:49:10Z</time>
      </trkpt>
      <trkpt lat="42.74089" lon="0.17376">
        <ele>2403</ele>
        <time>2019-02-27T10:49:11Z</time>
      </trkpt>
      <trkpt lat="42.74089" lon="0.17376">
        <ele>2403</ele>
        <time>2019-02-27T10:49:12Z</time>
      </trkpt>
      <trkpt lat="42.74089" lon="0.17376">
        <ele>2403</ele>
        <time>2019-02-27T10:49:13Z</time>
      </trkpt>
      <trkpt lat="42.74089" lon="0.17376">
        <ele>2403</ele>
        <time>2019-02-27T10:49:14Z</time>
      </trkpt>
      <trkpt lat="42.74089" lon="0.17376">
        <ele>2403</ele>
        <time>2019-02-27T10:49:15Z</time>
      </trkpt>
      <trkpt lat="42.74089" lon="0.17376">
        <ele>2403</ele>
        <time>2019-02-27T10:49:16Z</time>
      </trkpt>
      <trkpt lat="42.74089" lon="0.17376">
        <ele>2403</ele>
        <time>2019-02-27T10:49:17Z</time>
      </trkpt>
      <trkpt lat="42.74089" lon="0.17376">
        <ele>2403</ele>
        <time>2019-02-27T10:49:18Z</time>
      </trkpt>
      <trkpt lat="42.74089" lon="0.17376">
        <ele>2403</ele>
        <time>2019-02-27T10:49:19Z</time>
      </trkpt>
      <trkpt lat="42.74089" lon="0.17376">
        <ele>2403</ele>
        <time>2019-02-27T10:49:20Z</time>
      </trkpt>
      <trkpt lat="42.74089" lon="0.17376">
        <ele>2403</ele>
        <time>2019-02-27T10:49:21Z</time>
      </trkpt>
      <trkpt lat="42.74089" lon="0.17376">
        <ele>2403</ele>
        <time>2019-02-27T10:49:22Z</time>
      </trkpt>
      <trkpt lat="42.74089" lon="0.17376">
        <ele>2403</ele>
        <time>2019-02-27T10:49:23Z</time>
      </trkpt>
      <trkpt lat="42.74089" lon="0.17376">
        <ele>2403</ele>
        <time>2019-02-27T10:49:24Z</time>
      </trkpt>
      <trkpt lat="42.74089" lon="0.17376">
        <ele>2403</ele>
        <time>2019-02-27T10:49:25Z</time>
      </trkpt>
      <trkpt lat="42.74089" lon="0.17376">
        <ele>2403</ele>
        <time>2019-02-27T10:49:26Z</time>
      </trkpt>
      <trkpt lat="42.74089" lon="0.17376">
        <ele>2403</ele>
        <time>2019-02-27T10:49:27Z</time>
      </trkpt>
      <trkpt lat="42.74089" lon="0.17376">
        <ele>2403</ele>
        <time>2019-02-27T10:49:28Z</time>
      </trkpt>
      <trkpt lat="42.74089" lon="0.17376">
        <ele>2403</ele>
        <time>2019-02-27T10:49:29Z</time>
      </trkpt>
      <trkpt lat="42.74089" lon="0.17376">
        <ele>2403</ele>
        <time>2019-02-27T10:49:30Z</time>
      </trkpt>
      <trkpt lat="42.74089" lon="0.17376">
        <ele>2403</ele>
        <time>2019-02-27T10:49:31Z</time>
      </trkpt>
      <trkpt lat="42.74089" lon="0.17376">
        <ele>2403</ele>
        <time>2019-02-27T10:49:32Z</time>
      </trkpt>
      <trkpt lat="42.74089" lon="0.17376">
        <ele>2403</ele>
        <time>2019-02-27T10:49:33Z</time>
      </trkpt>
      <trkpt lat="42.74089" lon="0.17376">
        <ele>2403</ele>
        <time>2019-02-27T10:49:34Z</time>
      </trkpt>
      <trkpt lat="42.74089" lon="0.17376">
        <ele>2403</ele>
        <time>2019-02-27T10:49:35Z</time>
      </trkpt>
      <trkpt lat="42.74089" lon="0.17376">
        <ele>2403</ele>
        <time>2019-02-27T10:49:36Z</time>
      </trkpt>
      <trkpt lat="42.74089" lon="0.17376">
        <ele>2403</ele>
        <time>2019-02-27T10:49:37Z</time>
      </trkpt>
      <trkpt lat="42.74089" lon="0.17376">
        <ele>2403</ele>
        <time>2019-02-27T10:49:38Z</time>
      </trkpt>
      <trkpt lat="42.74089" lon="0.17376">
        <ele>2403</ele>
        <time>2019-02-27T10:49:39Z</time>
      </trkpt>
      <trkpt lat="42.74089" lon="0.17376">
        <ele>2403</ele>
        <time>2019-02-27T10:49:40Z</time>
      </trkpt>
      <trkpt lat="42.74089" lon="0.17376">
        <ele>2403</ele>
        <time>2019-02-27T10:49:41Z</time>
      </trkpt>
      <trkpt lat="42.74089" lon="0.17376">
        <ele>2403</ele>
        <time>2019-02-27T10:49:42Z</time>
      </trkpt>
      <trkpt lat="42.74089" lon="0.17376">
        <ele>2403</ele>
        <time>2019-02-27T10:49:43Z</time>
      </trkpt>
      <trkpt lat="42.74089" lon="0.17376">
        <ele>2403</ele>
        <time>2019-02-27T10:49:44Z</time>
      </trkpt>
      <trkpt lat="42.74089" lon="0.17376">
        <ele>2403</ele>
        <time>2019-02-27T10:49:45Z</time>
      </trkpt>
      <trkpt lat="42.74089" lon="0.17376">
        <ele>2403</ele>
        <time>2019-02-27T10:49:46Z</time>
      </trkpt>
      <trkpt lat="42.74089" lon="0.17376">
        <ele>2403</ele>
        <time>2019-02-27T10:49:47Z</time>
      </trkpt>
      <trkpt lat="42.74089" lon="0.17376">
        <ele>2403</ele>
        <time>2019-02-27T10:49:48Z</time>
      </trkpt>
      <trkpt lat="42.74089" lon="0.17376">
        <ele>2403</ele>
        <time>2019-02-27T10:49:49Z</time>
      </trkpt>
      <trkpt lat="42.74089" lon="0.17376">
        <ele>2403</ele>
        <time>2019-02-27T10:49:50Z</time>
      </trkpt>
      <trkpt lat="42.74089" lon="0.17376">
        <ele>2403</ele>
        <time>2019-02-27T10:49:51Z</time>
      </trkpt>
      <trkpt lat="42.74089" lon="0.17376">
        <ele>2403</ele>
        <time>2019-02-27T10:49:52Z</time>
      </trkpt>
      <trkpt lat="42.74089" lon="0.17376">
        <ele>2403</ele>
        <time>2019-02-27T10:49:53Z</time>
      </trkpt>
      <trkpt lat="42.74089" lon="0.17376">
        <ele>2403</ele>
        <time>2019-02-27T10:49:54Z</time>
      </trkpt>
      <trkpt lat="42.74089" lon="0.17376">
        <ele>2403</ele>
        <time>2019-02-27T10:49:55Z</time>
      </trkpt>
      <trkpt lat="42.74089" lon="0.17376">
        <ele>2403</ele>
        <time>2019-02-27T10:49:56Z</time>
      </trkpt>
      <trkpt lat="42.74089" lon="0.17376">
        <ele>2403</ele>
        <time>2019-02-27T10:49:57Z</time>
      </trkpt>
      <trkpt lat="42.74089" lon="0.17376">
        <ele>2403</ele>
        <time>2019-02-27T10:49:58Z</time>
      </trkpt>
      <trkpt lat="42.74089" lon="0.17376">
        <ele>2403</ele>
        <time>2019-02-27T10:49:59Z</time>
      </trkpt>
      <trkpt lat="42.74089" lon="0.17376">
        <ele>2403</ele>
        <time>2019-02-27T10:50:00Z</time>
      </trkpt>
      <trkpt lat="42.74089" lon="0.17376">
        <ele>2403</ele>
        <time>2019-02-27T10:50:01Z</time>
      </trkpt>
      <trkpt lat="42.74089" lon="0.17376">
        <ele>2403</ele>
        <time>2019-02-27T10:50:02Z</time>
      </trkpt>
      <trkpt lat="42.74089" lon="0.17376">
        <ele>2403</ele>
        <time>2019-02-27T10:50:03Z</time>
      </trkpt>
      <trkpt lat="42.74089" lon="0.17376">
        <ele>2403</ele>
        <time>2019-02-27T10:50:04Z</time>
      </trkpt>
      <trkpt lat="42.74089" lon="0.17376">
        <ele>2403</ele>
        <time>2019-02-27T10:50:05Z</time>
      </trkpt>
      <trkpt lat="42.74089" lon="0.17376">
        <ele>2403</ele>
        <time>2019-02-27T10:50:06Z</time>
      </trkpt>
      <trkpt lat="42.74089" lon="0.17376">
        <ele>2403</ele>
        <time>2019-02-27T10:50:07Z</time>
      </trkpt>
      <trkpt lat="42.74089" lon="0.17376">
        <ele>2403</ele>
        <time>2019-02-27T10:50:08Z</time>
      </trkpt>
      <trkpt lat="42.74089" lon="0.17376">
        <ele>2403</ele>
        <time>2019-02-27T10:50:09Z</time>
      </trkpt>
      <trkpt lat="42.74089" lon="0.17376">
        <ele>2403</ele>
        <time>2019-02-27T10:50:10Z</time>
      </trkpt>
      <trkpt lat="42.74089" lon="0.17376">
        <ele>2403</ele>
        <time>2019-02-27T10:50:11Z</time>
      </trkpt>
      <trkpt lat="42.74089" lon="0.17376">
        <ele>2403</ele>
        <time>2019-02-27T10:50:12Z</time>
      </trkpt>
      <trkpt lat="42.74089" lon="0.17376">
        <ele>2403</ele>
        <time>2019-02-27T10:50:13Z</time>
      </trkpt>
      <trkpt lat="42.74089" lon="0.17376">
        <ele>2403</ele>
        <time>2019-02-27T10:50:14Z</time>
      </trkpt>
      <trkpt lat="42.74089" lon="0.17376">
        <ele>2403</ele>
        <time>2019-02-27T10:50:15Z</time>
      </trkpt>
      <trkpt lat="42.74089" lon="0.17376">
        <ele>2403</ele>
        <time>2019-02-27T10:50:16Z</time>
      </trkpt>
      <trkpt lat="42.74089" lon="0.17376">
        <ele>2403</ele>
        <time>2019-02-27T10:50:17Z</time>
      </trkpt>
      <trkpt lat="42.74089" lon="0.17376">
        <ele>2403</ele>
        <time>2019-02-27T10:50:18Z</time>
      </trkpt>
      <trkpt lat="42.74089" lon="0.17376">
        <ele>2403</ele>
        <time>2019-02-27T10:50:19Z</time>
      </trkpt>
      <trkpt lat="42.74089" lon="0.17376">
        <ele>2403</ele>
        <time>2019-02-27T10:50:20Z</time>
      </trkpt>
      <trkpt lat="42.74089" lon="0.17376">
        <ele>2403</ele>
        <time>2019-02-27T10:50:21Z</time>
      </trkpt>
      <trkpt lat="42.74089" lon="0.17376">
        <ele>2403</ele>
        <time>2019-02-27T10:50:22Z</time>
      </trkpt>
      <trkpt lat="42.74089" lon="0.17376">
        <ele>2403</ele>
        <time>2019-02-27T10:50:23Z</time>
      </trkpt>
      <trkpt lat="42.74089" lon="0.17376">
        <ele>2403</ele>
        <time>2019-02-27T10:50:24Z</time>
      </trkpt>
      <trkpt lat="42.74089" lon="0.17376">
        <ele>2403</ele>
        <time>2019-02-27T10:50:25Z</time>
      </trkpt>
      <trkpt lat="42.74089" lon="0.17376">
        <ele>2403</ele>
        <time>2019-02-27T10:50:26Z</time>
      </trkpt>
      <trkpt lat="42.74089" lon="0.17376">
        <ele>2403</ele>
        <time>2019-02-27T10:50:27Z</time>
      </trkpt>
      <trkpt lat="42.74089" lon="0.17376">
        <ele>2403</ele>
        <time>2019-02-27T10:50:28Z</time>
      </trkpt>
      <trkpt lat="42.74089" lon="0.17376">
        <ele>2403</ele>
        <time>2019-02-27T10:50:29Z</time>
      </trkpt>
      <trkpt lat="42.74089" lon="0.17376">
        <ele>2403</ele>
        <time>2019-02-27T10:50:30Z</time>
      </trkpt>
      <trkpt lat="42.74089" lon="0.17376">
        <ele>2403</ele>
        <time>2019-02-27T10:50:31Z</time>
      </trkpt>
      <trkpt lat="42.74089" lon="0.17376">
        <ele>2403</ele>
        <time>2019-02-27T10:50:32Z</time>
      </trkpt>
      <trkpt lat="42.74089" lon="0.17376">
        <ele>2403</ele>
        <time>2019-02-27T10:50:33Z</time>
      </trkpt>
      <trkpt lat="42.74089" lon="0.17376">
        <ele>2403</ele>
        <time>2019-02-27T10:50:34Z</time>
      </trkpt>
      <trkpt lat="42.74089" lon="0.17376">
        <ele>2403</ele>
        <time>2019-02-27T10:50:35Z</time>
      </trkpt>
      <trkpt lat="42.74089" lon="0.17376">
        <ele>2403</ele>
        <time>2019-02-27T10:50:36Z</time>
      </trkpt>
      <trkpt lat="42.74089" lon="0.17376">
        <ele>2403</ele>
        <time>2019-02-27T10:50:37Z</time>
      </trkpt>
      <trkpt lat="42.74089" lon="0.17376">
        <ele>2403</ele>
        <time>2019-02-27T10:50:38Z</time>
      </trkpt>
      <trkpt lat="42.74089" lon="0.17376">
        <ele>2403</ele>
        <time>2019-02-27T10:50:39Z</time>
      </trkpt>
      <trkpt lat="42.74089" lon="0.17376">
        <ele>2403</ele>
        <time>2019-02-27T10:50:40Z</time>
      </trkpt>
      <trkpt lat="42.74089" lon="0.17376">
        <ele>2403</ele>
        <time>2019-02-27T10:50:41Z</time>
      </trkpt>
      <trkpt lat="42.74089" lon="0.17376">
        <ele>2403</ele>
        <time>2019-02-27T10:50:42Z</time>
      </trkpt>
      <trkpt lat="42.74089" lon="0.17376">
        <ele>2403</ele>
        <time>2019-02-27T10:50:43Z</time>
      </trkpt>
      <trkpt lat="42.74089" lon="0.17376">
        <ele>2403</ele>
        <time>2019-02-27T10:50:44Z</time>
      </trkpt>
      <trkpt lat="42.74089" lon="0.17376">
        <ele>2403</ele>
        <time>2019-02-27T10:50:45Z</time>
      </trkpt>
      <trkpt lat="42.74089" lon="0.17376">
        <ele>2403</ele>
        <time>2019-02-27T10:50:46Z</time>
      </trkpt>
      <trkpt lat="42.74089" lon="0.17376">
        <ele>2403</ele>
        <time>2019-02-27T10:50:47Z</time>
      </trkpt>
      <trkpt lat="42.74089" lon="0.17376">
        <ele>2403</ele>
        <time>2019-02-27T10:50:48Z</time>
      </trkpt>
      <trkpt lat="42.74089" lon="0.17376">
        <ele>2403</ele>
        <time>2019-02-27T10:50:49Z</time>
      </trkpt>
      <trkpt lat="42.74089" lon="0.17376">
        <ele>2403</ele>
        <time>2019-02-27T10:50:50Z</time>
      </trkpt>
      <trkpt lat="42.74089" lon="0.17376">
        <ele>2403</ele>
        <time>2019-02-27T10:50:51Z</time>
      </trkpt>
      <trkpt lat="42.74089" lon="0.17376">
        <ele>2403</ele>
        <time>2019-02-27T10:50:52Z</time>
      </trkpt>
      <trkpt lat="42.74089" lon="0.17376">
        <ele>2403</ele>
        <time>2019-02-27T10:50:53Z</time>
      </trkpt>
      <trkpt lat="42.74089" lon="0.17376">
        <ele>2403</ele>
        <time>2019-02-27T10:50:54Z</time>
      </trkpt>
      <trkpt lat="42.74089" lon="0.17376">
        <ele>2403</ele>
        <time>2019-02-27T10:50:55Z</time>
      </trkpt>
      <trkpt lat="42.74089" lon="0.17376">
        <ele>2403</ele>
        <time>2019-02-27T10:50:56Z</time>
      </trkpt>
      <trkpt lat="42.74089" lon="0.17376">
        <ele>2403</ele>
        <time>2019-02-27T10:50:57Z</time>
      </trkpt>
      <trkpt lat="42.74089" lon="0.17376">
        <ele>2403</ele>
        <time>2019-02-27T10:50:58Z</time>
      </trkpt>
      <trkpt lat="42.74089" lon="0.17376">
        <ele>2403</ele>
        <time>2019-02-27T10:50:59Z</time>
      </trkpt>
      <trkpt lat="42.74089" lon="0.17376">
        <ele>2403</ele>
        <time>2019-02-27T10:51:00Z</time>
      </trkpt>
      <trkpt lat="42.74089" lon="0.17376">
        <ele>2403</ele>
        <time>2019-02-27T10:51:01Z</time>
      </trkpt>
      <trkpt lat="42.74089" lon="0.17376">
        <ele>2403</ele>
        <time>2019-02-27T10:51:02Z</time>
      </trkpt>
      <trkpt lat="42.74089" lon="0.17376">
        <ele>2403</ele>
        <time>2019-02-27T10:51:03Z</time>
      </trkpt>
      <trkpt lat="42.74089" lon="0.17376">
        <ele>2403</ele>
        <time>2019-02-27T10:51:04Z</time>
      </trkpt>
      <trkpt lat="42.74089" lon="0.17376">
        <ele>2403</ele>
        <time>2019-02-27T10:51:05Z</time>
      </trkpt>
      <trkpt lat="42.74089" lon="0.17376">
        <ele>2403</ele>
        <time>2019-02-27T10:51:06Z</time>
      </trkpt>
      <trkpt lat="42.74089" lon="0.17376">
        <ele>2403</ele>
        <time>2019-02-27T10:51:07Z</time>
      </trkpt>
      <trkpt lat="42.74089" lon="0.17376">
        <ele>2403</ele>
        <time>2019-02-27T10:51:08Z</time>
      </trkpt>
      <trkpt lat="42.74089" lon="0.17376">
        <ele>2403</ele>
        <time>2019-02-27T10:51:09Z</time>
      </trkpt>
      <trkpt lat="42.74089" lon="0.17376">
        <ele>2403</ele>
        <time>2019-02-27T10:51:10Z</time>
      </trkpt>
      <trkpt lat="42.74089" lon="0.17376">
        <ele>2403</ele>
        <time>2019-02-27T10:51:11Z</time>
      </trkpt>
      <trkpt lat="42.74089" lon="0.17376">
        <ele>2403</ele>
        <time>2019-02-27T10:51:12Z</time>
      </trkpt>
      <trkpt lat="42.74089" lon="0.17376">
        <ele>2403</ele>
        <time>2019-02-27T10:51:13Z</time>
      </trkpt>
      <trkpt lat="42.74089" lon="0.17376">
        <ele>2403</ele>
        <time>2019-02-27T10:51:14Z</time>
      </trkpt>
      <trkpt lat="42.74089" lon="0.17376">
        <ele>2403</ele>
        <time>2019-02-27T10:51:15Z</time>
      </trkpt>
      <trkpt lat="42.74089" lon="0.17376">
        <ele>2403</ele>
        <time>2019-02-27T10:51:16Z</time>
      </trkpt>
      <trkpt lat="42.74089" lon="0.17376">
        <ele>2403</ele>
        <time>2019-02-27T10:51:17Z</time>
      </trkpt>
      <trkpt lat="42.74089" lon="0.17376">
        <ele>2403</ele>
        <time>2019-02-27T10:51:18Z</time>
      </trkpt>
      <trkpt lat="42.74089" lon="0.17376">
        <ele>2403</ele>
        <time>2019-02-27T10:51:19Z</time>
      </trkpt>
      <trkpt lat="42.74089" lon="0.17376">
        <ele>2403</ele>
        <time>2019-02-27T10:51:20Z</time>
      </trkpt>
      <trkpt lat="42.74089" lon="0.17376">
        <ele>2403</ele>
        <time>2019-02-27T10:51:21Z</time>
      </trkpt>
      <trkpt lat="42.74089" lon="0.17376">
        <ele>2403</ele>
        <time>2019-02-27T10:51:22Z</time>
      </trkpt>
      <trkpt lat="42.74089" lon="0.17376">
        <ele>2403</ele>
        <time>2019-02-27T10:51:23Z</time>
      </trkpt>
      <trkpt lat="42.74089" lon="0.17376">
        <ele>2403</ele>
        <time>2019-02-27T10:51:24Z</time>
      </trkpt>
      <trkpt lat="42.74089" lon="0.17376">
        <ele>2403</ele>
        <time>2019-02-27T10:51:25Z</time>
      </trkpt>
      <trkpt lat="42.74089" lon="0.17376">
        <ele>2403</ele>
        <time>2019-02-27T10:51:26Z</time>
      </trkpt>
      <trkpt lat="42.74089" lon="0.17376">
        <ele>2403</ele>
        <time>2019-02-27T10:51:27Z</time>
      </trkpt>
      <trkpt lat="42.74089" lon="0.17376">
        <ele>2403</ele>
        <time>2019-02-27T10:51:28Z</time>
      </trkpt>
      <trkpt lat="42.74089" lon="0.17376">
        <ele>2403</ele>
        <time>2019-02-27T10:51:29Z</time>
      </trkpt>
      <trkpt lat="42.74089" lon="0.17376">
        <ele>2403</ele>
        <time>2019-02-27T10:51:30Z</time>
      </trkpt>
      <trkpt lat="42.74089" lon="0.17376">
        <ele>2403</ele>
        <time>2019-02-27T10:51:31Z</time>
      </trkpt>
      <trkpt lat="42.74089" lon="0.17376">
        <ele>2403</ele>
        <time>2019-02-27T10:51:32Z</time>
      </trkpt>
      <trkpt lat="42.74089" lon="0.17376">
        <ele>2403</ele>
        <time>2019-02-27T10:51:33Z</time>
      </trkpt>
      <trkpt lat="42.74089" lon="0.17376">
        <ele>2403</ele>
        <time>2019-02-27T10:51:34Z</time>
      </trkpt>
      <trkpt lat="42.74091" lon="0.17375">
        <ele>2403</ele>
        <time>2019-02-27T10:51:35Z</time>
      </trkpt>
      <trkpt lat="42.74091" lon="0.17375">
        <ele>2403</ele>
        <time>2019-02-27T10:51:36Z</time>
      </trkpt>
      <trkpt lat="42.74091" lon="0.17375">
        <ele>2402</ele>
        <time>2019-02-27T10:51:37Z</time>
      </trkpt>
      <trkpt lat="42.74093" lon="0.17375">
        <ele>2402</ele>
        <time>2019-02-27T10:51:38Z</time>
      </trkpt>
      <trkpt lat="42.74093" lon="0.17375">
        <ele>2402</ele>
        <time>2019-02-27T10:51:39Z</time>
      </trkpt>
      <trkpt lat="42.74093" lon="0.17375">
        <ele>2402</ele>
        <time>2019-02-27T10:51:40Z</time>
      </trkpt>
      <trkpt lat="42.74093" lon="0.17375">
        <ele>2402</ele>
        <time>2019-02-27T10:51:41Z</time>
      </trkpt>
      <trkpt lat="42.74095" lon="0.17376">
        <ele>2402</ele>
        <time>2019-02-27T10:51:42Z</time>
      </trkpt>
      <trkpt lat="42.74095" lon="0.17376">
        <ele>2402</ele>
        <time>2019-02-27T10:51:43Z</time>
      </trkpt>
      <trkpt lat="42.74095" lon="0.17376">
        <ele>2402</ele>
        <time>2019-02-27T10:51:44Z</time>
      </trkpt>
      <trkpt lat="42.74097" lon="0.17376">
        <ele>2402</ele>
        <time>2019-02-27T10:51:45Z</time>
      </trkpt>
      <trkpt lat="42.74097" lon="0.17376">
        <ele>2402</ele>
        <time>2019-02-27T10:51:46Z</time>
      </trkpt>
      <trkpt lat="42.74097" lon="0.17376">
        <ele>2402</ele>
        <time>2019-02-27T10:51:47Z</time>
      </trkpt>
      <trkpt lat="42.74097" lon="0.17376">
        <ele>2402</ele>
        <time>2019-02-27T10:51:48Z</time>
      </trkpt>
      <trkpt lat="42.74097" lon="0.17376">
        <ele>2402</ele>
        <time>2019-02-27T10:51:49Z</time>
      </trkpt>
      <trkpt lat="42.74099" lon="0.17377">
        <ele>2402</ele>
        <time>2019-02-27T10:51:50Z</time>
      </trkpt>
      <trkpt lat="42.74099" lon="0.17377">
        <ele>2401</ele>
        <time>2019-02-27T10:51:51Z</time>
      </trkpt>
      <trkpt lat="42.74099" lon="0.17377">
        <ele>2401</ele>
        <time>2019-02-27T10:51:52Z</time>
      </trkpt>
      <trkpt lat="42.74099" lon="0.17377">
        <ele>2401</ele>
        <time>2019-02-27T10:51:53Z</time>
      </trkpt>
      <trkpt lat="42.74099" lon="0.17377">
        <ele>2401</ele>
        <time>2019-02-27T10:51:54Z</time>
      </trkpt>
      <trkpt lat="42.74099" lon="0.17377">
        <ele>2401</ele>
        <time>2019-02-27T10:51:55Z</time>
      </trkpt>
      <trkpt lat="42.74099" lon="0.17377">
        <ele>2401</ele>
        <time>2019-02-27T10:51:56Z</time>
      </trkpt>
      <trkpt lat="42.74099" lon="0.17377">
        <ele>2401</ele>
        <time>2019-02-27T10:51:57Z</time>
      </trkpt>
      <trkpt lat="42.74099" lon="0.17377">
        <ele>2401</ele>
        <time>2019-02-27T10:51:58Z</time>
      </trkpt>
      <trkpt lat="42.74099" lon="0.17377">
        <ele>2401</ele>
        <time>2019-02-27T10:51:59Z</time>
      </trkpt>
      <trkpt lat="42.74099" lon="0.17377">
        <ele>2401</ele>
        <time>2019-02-27T10:52:00Z</time>
      </trkpt>
      <trkpt lat="42.74099" lon="0.17377">
        <ele>2401</ele>
        <time>2019-02-27T10:52:01Z</time>
      </trkpt>
      <trkpt lat="42.74099" lon="0.17377">
        <ele>2401</ele>
        <time>2019-02-27T10:52:02Z</time>
      </trkpt>
      <trkpt lat="42.74099" lon="0.17377">
        <ele>2401</ele>
        <time>2019-02-27T10:52:03Z</time>
      </trkpt>
      <trkpt lat="42.74099" lon="0.17377">
        <ele>2401</ele>
        <time>2019-02-27T10:52:04Z</time>
      </trkpt>
      <trkpt lat="42.74099" lon="0.17377">
        <ele>2401</ele>
        <time>2019-02-27T10:52:05Z</time>
      </trkpt>
      <trkpt lat="42.74099" lon="0.17377">
        <ele>2401</ele>
        <time>2019-02-27T10:52:06Z</time>
      </trkpt>
      <trkpt lat="42.74099" lon="0.17377">
        <ele>2401</ele>
        <time>2019-02-27T10:52:07Z</time>
      </trkpt>
      <trkpt lat="42.74099" lon="0.17377">
        <ele>2401</ele>
        <time>2019-02-27T10:52:08Z</time>
      </trkpt>
      <trkpt lat="42.74099" lon="0.17377">
        <ele>2401</ele>
        <time>2019-02-27T10:52:09Z</time>
      </trkpt>
      <trkpt lat="42.74099" lon="0.17377">
        <ele>2401</ele>
        <time>2019-02-27T10:52:10Z</time>
      </trkpt>
      <trkpt lat="42.74099" lon="0.17377">
        <ele>2401</ele>
        <time>2019-02-27T10:52:11Z</time>
      </trkpt>
      <trkpt lat="42.74099" lon="0.17377">
        <ele>2401</ele>
        <time>2019-02-27T10:52:12Z</time>
      </trkpt>
      <trkpt lat="42.74099" lon="0.17377">
        <ele>2401</ele>
        <time>2019-02-27T10:52:13Z</time>
      </trkpt>
      <trkpt lat="42.74099" lon="0.17377">
        <ele>2401</ele>
        <time>2019-02-27T10:52:14Z</time>
      </trkpt>
      <trkpt lat="42.74099" lon="0.17377">
        <ele>2401</ele>
        <time>2019-02-27T10:52:15Z</time>
      </trkpt>
      <trkpt lat="42.74099" lon="0.17377">
        <ele>2401</ele>
        <time>2019-02-27T10:52:16Z</time>
      </trkpt>
      <trkpt lat="42.74099" lon="0.17377">
        <ele>2401</ele>
        <time>2019-02-27T10:52:17Z</time>
      </trkpt>
      <trkpt lat="42.74099" lon="0.17377">
        <ele>2401</ele>
        <time>2019-02-27T10:52:18Z</time>
      </trkpt>
      <trkpt lat="42.74099" lon="0.17377">
        <ele>2401</ele>
        <time>2019-02-27T10:52:19Z</time>
      </trkpt>
      <trkpt lat="42.74099" lon="0.17377">
        <ele>2401</ele>
        <time>2019-02-27T10:52:20Z</time>
      </trkpt>
      <trkpt lat="42.74099" lon="0.17377">
        <ele>2401</ele>
        <time>2019-02-27T10:52:21Z</time>
      </trkpt>
      <trkpt lat="42.74099" lon="0.17377">
        <ele>2401</ele>
        <time>2019-02-27T10:52:22Z</time>
      </trkpt>
      <trkpt lat="42.74099" lon="0.17377">
        <ele>2401</ele>
        <time>2019-02-27T10:52:23Z</time>
      </trkpt>
      <trkpt lat="42.74101" lon="0.17377">
        <ele>2401</ele>
        <time>2019-02-27T10:52:24Z</time>
      </trkpt>
      <trkpt lat="42.74101" lon="0.17377">
        <ele>2401</ele>
        <time>2019-02-27T10:52:25Z</time>
      </trkpt>
      <trkpt lat="42.74101" lon="0.17377">
        <ele>2401</ele>
        <time>2019-02-27T10:52:26Z</time>
      </trkpt>
      <trkpt lat="42.74101" lon="0.17377">
        <ele>2401</ele>
        <time>2019-02-27T10:52:27Z</time>
      </trkpt>
      <trkpt lat="42.74101" lon="0.17377">
        <ele>2401</ele>
        <time>2019-02-27T10:52:28Z</time>
      </trkpt>
      <trkpt lat="42.74101" lon="0.17377">
        <ele>2401</ele>
        <time>2019-02-27T10:52:29Z</time>
      </trkpt>
      <trkpt lat="42.74101" lon="0.17377">
        <ele>2401</ele>
        <time>2019-02-27T10:52:30Z</time>
      </trkpt>
      <trkpt lat="42.74101" lon="0.17377">
        <ele>2401</ele>
        <time>2019-02-27T10:52:31Z</time>
      </trkpt>
      <trkpt lat="42.74101" lon="0.17377">
        <ele>2401</ele>
        <time>2019-02-27T10:52:32Z</time>
      </trkpt>
      <trkpt lat="42.74101" lon="0.17377">
        <ele>2401</ele>
        <time>2019-02-27T10:52:33Z</time>
      </trkpt>
      <trkpt lat="42.74101" lon="0.17377">
        <ele>2401</ele>
        <time>2019-02-27T10:52:34Z</time>
      </trkpt>
      <trkpt lat="42.74101" lon="0.17377">
        <ele>2401</ele>
        <time>2019-02-27T10:52:35Z</time>
      </trkpt>
      <trkpt lat="42.74101" lon="0.17377">
        <ele>2401</ele>
        <time>2019-02-27T10:52:36Z</time>
      </trkpt>
      <trkpt lat="42.74101" lon="0.17377">
        <ele>2401</ele>
        <time>2019-02-27T10:52:37Z</time>
      </trkpt>
      <trkpt lat="42.74101" lon="0.17377">
        <ele>2401</ele>
        <time>2019-02-27T10:52:38Z</time>
      </trkpt>
      <trkpt lat="42.74101" lon="0.17377">
        <ele>2401</ele>
        <time>2019-02-27T10:52:39Z</time>
      </trkpt>
      <trkpt lat="42.74101" lon="0.17377">
        <ele>2401</ele>
        <time>2019-02-27T10:52:40Z</time>
      </trkpt>
      <trkpt lat="42.74101" lon="0.17377">
        <ele>2401</ele>
        <time>2019-02-27T10:52:41Z</time>
      </trkpt>
      <trkpt lat="42.74101" lon="0.17377">
        <ele>2401</ele>
        <time>2019-02-27T10:52:42Z</time>
      </trkpt>
      <trkpt lat="42.74101" lon="0.17377">
        <ele>2401</ele>
        <time>2019-02-27T10:52:43Z</time>
      </trkpt>
      <trkpt lat="42.74101" lon="0.17377">
        <ele>2401</ele>
        <time>2019-02-27T10:52:44Z</time>
      </trkpt>
      <trkpt lat="42.74103" lon="0.17377">
        <ele>2401</ele>
        <time>2019-02-27T10:52:45Z</time>
      </trkpt>
      <trkpt lat="42.74103" lon="0.17377">
        <ele>2401</ele>
        <time>2019-02-27T10:52:46Z</time>
      </trkpt>
      <trkpt lat="42.74103" lon="0.17377">
        <ele>2400</ele>
        <time>2019-02-27T10:52:47Z</time>
      </trkpt>
      <trkpt lat="42.74105" lon="0.17377">
        <ele>2400</ele>
        <time>2019-02-27T10:52:48Z</time>
      </trkpt>
      <trkpt lat="42.74105" lon="0.17377">
        <ele>2400</ele>
        <time>2019-02-27T10:52:49Z</time>
      </trkpt>
      <trkpt lat="42.74105" lon="0.17377">
        <ele>2400</ele>
        <time>2019-02-27T10:52:50Z</time>
      </trkpt>
      <trkpt lat="42.74105" lon="0.17377">
        <ele>2400</ele>
        <time>2019-02-27T10:52:51Z</time>
      </trkpt>
      <trkpt lat="42.74107" lon="0.17377">
        <ele>2400</ele>
        <time>2019-02-27T10:52:52Z</time>
      </trkpt>
      <trkpt lat="42.74107" lon="0.17377">
        <ele>2400</ele>
        <time>2019-02-27T10:52:53Z</time>
      </trkpt>
      <trkpt lat="42.74107" lon="0.17377">
        <ele>2400</ele>
        <time>2019-02-27T10:52:54Z</time>
      </trkpt>
      <trkpt lat="42.74107" lon="0.17377">
        <ele>2400</ele>
        <time>2019-02-27T10:52:55Z</time>
      </trkpt>
      <trkpt lat="42.74107" lon="0.17377">
        <ele>2400</ele>
        <time>2019-02-27T10:52:56Z</time>
      </trkpt>
      <trkpt lat="42.74109" lon="0.17377">
        <ele>2400</ele>
        <time>2019-02-27T10:52:57Z</time>
      </trkpt>
      <trkpt lat="42.74109" lon="0.17377">
        <ele>2400</ele>
        <time>2019-02-27T10:52:58Z</time>
      </trkpt>
      <trkpt lat="42.74109" lon="0.17377">
        <ele>2400</ele>
        <time>2019-02-27T10:52:59Z</time>
      </trkpt>
      <trkpt lat="42.74109" lon="0.17377">
        <ele>2400</ele>
        <time>2019-02-27T10:53:00Z</time>
      </trkpt>
      <trkpt lat="42.74111" lon="0.17378">
        <ele>2399</ele>
        <time>2019-02-27T10:53:01Z</time>
      </trkpt>
      <trkpt lat="42.74111" lon="0.17378">
        <ele>2399</ele>
        <time>2019-02-27T10:53:02Z</time>
      </trkpt>
      <trkpt lat="42.74111" lon="0.17378">
        <ele>2399</ele>
        <time>2019-02-27T10:53:03Z</time>
      </trkpt>
      <trkpt lat="42.74111" lon="0.17378">
        <ele>2399</ele>
        <time>2019-02-27T10:53:04Z</time>
      </trkpt>
      <trkpt lat="42.74111" lon="0.17378">
        <ele>2399</ele>
        <time>2019-02-27T10:53:05Z</time>
      </trkpt>
      <trkpt lat="42.74111" lon="0.17378">
        <ele>2399</ele>
        <time>2019-02-27T10:53:06Z</time>
      </trkpt>
      <trkpt lat="42.74111" lon="0.17378">
        <ele>2399</ele>
        <time>2019-02-27T10:53:07Z</time>
      </trkpt>
      <trkpt lat="42.74111" lon="0.17378">
        <ele>2399</ele>
        <time>2019-02-27T10:53:08Z</time>
      </trkpt>
      <trkpt lat="42.74111" lon="0.17378">
        <ele>2399</ele>
        <time>2019-02-27T10:53:09Z</time>
      </trkpt>
      <trkpt lat="42.74111" lon="0.17378">
        <ele>2399</ele>
        <time>2019-02-27T10:53:10Z</time>
      </trkpt>
      <trkpt lat="42.74111" lon="0.17378">
        <ele>2399</ele>
        <time>2019-02-27T10:53:11Z</time>
      </trkpt>
      <trkpt lat="42.74111" lon="0.17378">
        <ele>2399</ele>
        <time>2019-02-27T10:53:12Z</time>
      </trkpt>
      <trkpt lat="42.74111" lon="0.17378">
        <ele>2399</ele>
        <time>2019-02-27T10:53:13Z</time>
      </trkpt>
      <trkpt lat="42.74111" lon="0.17378">
        <ele>2399</ele>
        <time>2019-02-27T10:53:14Z</time>
      </trkpt>
      <trkpt lat="42.74111" lon="0.17378">
        <ele>2399</ele>
        <time>2019-02-27T10:53:15Z</time>
      </trkpt>
      <trkpt lat="42.74111" lon="0.17378">
        <ele>2399</ele>
        <time>2019-02-27T10:53:16Z</time>
      </trkpt>
      <trkpt lat="42.74111" lon="0.17378">
        <ele>2399</ele>
        <time>2019-02-27T10:53:17Z</time>
      </trkpt>
      <trkpt lat="42.74111" lon="0.17378">
        <ele>2399</ele>
        <time>2019-02-27T10:53:18Z</time>
      </trkpt>
      <trkpt lat="42.74111" lon="0.17378">
        <ele>2399</ele>
        <time>2019-02-27T10:53:19Z</time>
      </trkpt>
      <trkpt lat="42.74111" lon="0.17378">
        <ele>2399</ele>
        <time>2019-02-27T10:53:20Z</time>
      </trkpt>
      <trkpt lat="42.74111" lon="0.17378">
        <ele>2399</ele>
        <time>2019-02-27T10:53:21Z</time>
      </trkpt>
      <trkpt lat="42.74111" lon="0.17378">
        <ele>2399</ele>
        <time>2019-02-27T10:53:22Z</time>
      </trkpt>
      <trkpt lat="42.74111" lon="0.17378">
        <ele>2399</ele>
        <time>2019-02-27T10:53:23Z</time>
      </trkpt>
      <trkpt lat="42.74111" lon="0.17378">
        <ele>2399</ele>
        <time>2019-02-27T10:53:24Z</time>
      </trkpt>
      <trkpt lat="42.74111" lon="0.17378">
        <ele>2399</ele>
        <time>2019-02-27T10:53:25Z</time>
      </trkpt>
      <trkpt lat="42.74113" lon="0.1738">
        <ele>2399</ele>
        <time>2019-02-27T10:53:26Z</time>
      </trkpt>
      <trkpt lat="42.74113" lon="0.1738">
        <ele>2399</ele>
        <time>2019-02-27T10:53:27Z</time>
      </trkpt>
      <trkpt lat="42.74113" lon="0.1738">
        <ele>2399</ele>
        <time>2019-02-27T10:53:28Z</time>
      </trkpt>
      <trkpt lat="42.74113" lon="0.1738">
        <ele>2399</ele>
        <time>2019-02-27T10:53:29Z</time>
      </trkpt>
      <trkpt lat="42.74113" lon="0.1738">
        <ele>2399</ele>
        <time>2019-02-27T10:53:30Z</time>
      </trkpt>
      <trkpt lat="42.74113" lon="0.1738">
        <ele>2399</ele>
        <time>2019-02-27T10:53:31Z</time>
      </trkpt>
      <trkpt lat="42.74113" lon="0.1738">
        <ele>2399</ele>
        <time>2019-02-27T10:53:32Z</time>
      </trkpt>
      <trkpt lat="42.74113" lon="0.1738">
        <ele>2399</ele>
        <time>2019-02-27T10:53:33Z</time>
      </trkpt>
      <trkpt lat="42.74113" lon="0.1738">
        <ele>2399</ele>
        <time>2019-02-27T10:53:34Z</time>
      </trkpt>
      <trkpt lat="42.74113" lon="0.1738">
        <ele>2399</ele>
        <time>2019-02-27T10:53:35Z</time>
      </trkpt>
      <trkpt lat="42.74113" lon="0.1738">
        <ele>2399</ele>
        <time>2019-02-27T10:53:36Z</time>
      </trkpt>
      <trkpt lat="42.74113" lon="0.1738">
        <ele>2399</ele>
        <time>2019-02-27T10:53:37Z</time>
      </trkpt>
      <trkpt lat="42.74113" lon="0.1738">
        <ele>2399</ele>
        <time>2019-02-27T10:53:38Z</time>
      </trkpt>
      <trkpt lat="42.74113" lon="0.1738">
        <ele>2399</ele>
        <time>2019-02-27T10:53:39Z</time>
      </trkpt>
      <trkpt lat="42.74113" lon="0.1738">
        <ele>2399</ele>
        <time>2019-02-27T10:53:40Z</time>
      </trkpt>
      <trkpt lat="42.74113" lon="0.1738">
        <ele>2399</ele>
        <time>2019-02-27T10:53:41Z</time>
      </trkpt>
      <trkpt lat="42.74113" lon="0.1738">
        <ele>2399</ele>
        <time>2019-02-27T10:53:42Z</time>
      </trkpt>
      <trkpt lat="42.74113" lon="0.1738">
        <ele>2399</ele>
        <time>2019-02-27T10:53:43Z</time>
      </trkpt>
      <trkpt lat="42.74113" lon="0.1738">
        <ele>2399</ele>
        <time>2019-02-27T10:53:44Z</time>
      </trkpt>
      <trkpt lat="42.74113" lon="0.1738">
        <ele>2399</ele>
        <time>2019-02-27T10:53:45Z</time>
      </trkpt>
      <trkpt lat="42.74113" lon="0.1738">
        <ele>2399</ele>
        <time>2019-02-27T10:53:46Z</time>
      </trkpt>
      <trkpt lat="42.74113" lon="0.1738">
        <ele>2399</ele>
        <time>2019-02-27T10:53:47Z</time>
      </trkpt>
      <trkpt lat="42.74113" lon="0.1738">
        <ele>2399</ele>
        <time>2019-02-27T10:53:48Z</time>
      </trkpt>
      <trkpt lat="42.74113" lon="0.1738">
        <ele>2399</ele>
        <time>2019-02-27T10:53:49Z</time>
      </trkpt>
      <trkpt lat="42.74113" lon="0.1738">
        <ele>2399</ele>
        <time>2019-02-27T10:53:50Z</time>
      </trkpt>
      <trkpt lat="42.74113" lon="0.1738">
        <ele>2399</ele>
        <time>2019-02-27T10:53:51Z</time>
      </trkpt>
      <trkpt lat="42.74113" lon="0.1738">
        <ele>2399</ele>
        <time>2019-02-27T10:53:52Z</time>
      </trkpt>
      <trkpt lat="42.74113" lon="0.1738">
        <ele>2399</ele>
        <time>2019-02-27T10:53:53Z</time>
      </trkpt>
      <trkpt lat="42.74113" lon="0.1738">
        <ele>2399</ele>
        <time>2019-02-27T10:53:54Z</time>
      </trkpt>
      <trkpt lat="42.74113" lon="0.1738">
        <ele>2399</ele>
        <time>2019-02-27T10:53:55Z</time>
      </trkpt>
      <trkpt lat="42.74113" lon="0.1738">
        <ele>2399</ele>
        <time>2019-02-27T10:53:56Z</time>
      </trkpt>
      <trkpt lat="42.74113" lon="0.1738">
        <ele>2399</ele>
        <time>2019-02-27T10:53:57Z</time>
      </trkpt>
      <trkpt lat="42.74113" lon="0.1738">
        <ele>2399</ele>
        <time>2019-02-27T10:53:58Z</time>
      </trkpt>
      <trkpt lat="42.74113" lon="0.1738">
        <ele>2399</ele>
        <time>2019-02-27T10:53:59Z</time>
      </trkpt>
      <trkpt lat="42.74113" lon="0.1738">
        <ele>2399</ele>
        <time>2019-02-27T10:54:00Z</time>
      </trkpt>
      <trkpt lat="42.74113" lon="0.1738">
        <ele>2399</ele>
        <time>2019-02-27T10:54:01Z</time>
      </trkpt>
      <trkpt lat="42.74113" lon="0.1738">
        <ele>2399</ele>
        <time>2019-02-27T10:54:02Z</time>
      </trkpt>
      <trkpt lat="42.74113" lon="0.1738">
        <ele>2399</ele>
        <time>2019-02-27T10:54:03Z</time>
      </trkpt>
      <trkpt lat="42.74113" lon="0.1738">
        <ele>2399</ele>
        <time>2019-02-27T10:54:04Z</time>
      </trkpt>
      <trkpt lat="42.74113" lon="0.1738">
        <ele>2399</ele>
        <time>2019-02-27T10:54:05Z</time>
      </trkpt>
      <trkpt lat="42.74113" lon="0.1738">
        <ele>2399</ele>
        <time>2019-02-27T10:54:06Z</time>
      </trkpt>
      <trkpt lat="42.74113" lon="0.1738">
        <ele>2399</ele>
        <time>2019-02-27T10:54:07Z</time>
      </trkpt>
      <trkpt lat="42.74113" lon="0.1738">
        <ele>2399</ele>
        <time>2019-02-27T10:54:08Z</time>
      </trkpt>
      <trkpt lat="42.74113" lon="0.1738">
        <ele>2399</ele>
        <time>2019-02-27T10:54:09Z</time>
      </trkpt>
      <trkpt lat="42.74113" lon="0.1738">
        <ele>2399</ele>
        <time>2019-02-27T10:54:10Z</time>
      </trkpt>
      <trkpt lat="42.74113" lon="0.1738">
        <ele>2399</ele>
        <time>2019-02-27T10:54:11Z</time>
      </trkpt>
      <trkpt lat="42.74113" lon="0.1738">
        <ele>2399</ele>
        <time>2019-02-27T10:54:12Z</time>
      </trkpt>
      <trkpt lat="42.74113" lon="0.1738">
        <ele>2399</ele>
        <time>2019-02-27T10:54:13Z</time>
      </trkpt>
      <trkpt lat="42.74113" lon="0.1738">
        <ele>2399</ele>
        <time>2019-02-27T10:54:14Z</time>
      </trkpt>
      <trkpt lat="42.74113" lon="0.1738">
        <ele>2399</ele>
        <time>2019-02-27T10:54:15Z</time>
      </trkpt>
      <trkpt lat="42.74113" lon="0.1738">
        <ele>2399</ele>
        <time>2019-02-27T10:54:16Z</time>
      </trkpt>
      <trkpt lat="42.74113" lon="0.1738">
        <ele>2399</ele>
        <time>2019-02-27T10:54:17Z</time>
      </trkpt>
      <trkpt lat="42.74113" lon="0.1738">
        <ele>2399</ele>
        <time>2019-02-27T10:54:18Z</time>
      </trkpt>
      <trkpt lat="42.74113" lon="0.1738">
        <ele>2399</ele>
        <time>2019-02-27T10:54:19Z</time>
      </trkpt>
      <trkpt lat="42.74113" lon="0.1738">
        <ele>2399</ele>
        <time>2019-02-27T10:54:20Z</time>
      </trkpt>
      <trkpt lat="42.74113" lon="0.1738">
        <ele>2399</ele>
        <time>2019-02-27T10:54:21Z</time>
      </trkpt>
      <trkpt lat="42.74113" lon="0.1738">
        <ele>2399</ele>
        <time>2019-02-27T10:54:22Z</time>
      </trkpt>
      <trkpt lat="42.74113" lon="0.1738">
        <ele>2399</ele>
        <time>2019-02-27T10:54:23Z</time>
      </trkpt>
      <trkpt lat="42.74113" lon="0.1738">
        <ele>2399</ele>
        <time>2019-02-27T10:54:24Z</time>
      </trkpt>
      <trkpt lat="42.74113" lon="0.1738">
        <ele>2399</ele>
        <time>2019-02-27T10:54:25Z</time>
      </trkpt>
      <trkpt lat="42.74113" lon="0.1738">
        <ele>2399</ele>
        <time>2019-02-27T10:54:26Z</time>
      </trkpt>
      <trkpt lat="42.74113" lon="0.1738">
        <ele>2399</ele>
        <time>2019-02-27T10:54:27Z</time>
      </trkpt>
      <trkpt lat="42.74113" lon="0.1738">
        <ele>2399</ele>
        <time>2019-02-27T10:54:28Z</time>
      </trkpt>
      <trkpt lat="42.74113" lon="0.1738">
        <ele>2399</ele>
        <time>2019-02-27T10:54:29Z</time>
      </trkpt>
      <trkpt lat="42.74113" lon="0.1738">
        <ele>2399</ele>
        <time>2019-02-27T10:54:30Z</time>
      </trkpt>
      <trkpt lat="42.74113" lon="0.1738">
        <ele>2399</ele>
        <time>2019-02-27T10:54:31Z</time>
      </trkpt>
      <trkpt lat="42.74113" lon="0.1738">
        <ele>2399</ele>
        <time>2019-02-27T10:54:32Z</time>
      </trkpt>
      <trkpt lat="42.74113" lon="0.1738">
        <ele>2399</ele>
        <time>2019-02-27T10:54:33Z</time>
      </trkpt>
      <trkpt lat="42.74113" lon="0.1738">
        <ele>2399</ele>
        <time>2019-02-27T10:54:34Z</time>
      </trkpt>
      <trkpt lat="42.74113" lon="0.1738">
        <ele>2399</ele>
        <time>2019-02-27T10:54:35Z</time>
      </trkpt>
      <trkpt lat="42.74113" lon="0.1738">
        <ele>2399</ele>
        <time>2019-02-27T10:54:36Z</time>
      </trkpt>
      <trkpt lat="42.74113" lon="0.1738">
        <ele>2399</ele>
        <time>2019-02-27T10:54:37Z</time>
      </trkpt>
      <trkpt lat="42.74113" lon="0.1738">
        <ele>2399</ele>
        <time>2019-02-27T10:54:38Z</time>
      </trkpt>
      <trkpt lat="42.74113" lon="0.1738">
        <ele>2399</ele>
        <time>2019-02-27T10:54:39Z</time>
      </trkpt>
      <trkpt lat="42.74113" lon="0.1738">
        <ele>2399</ele>
        <time>2019-02-27T10:54:40Z</time>
      </trkpt>
      <trkpt lat="42.74113" lon="0.1738">
        <ele>2399</ele>
        <time>2019-02-27T10:54:41Z</time>
      </trkpt>
      <trkpt lat="42.74113" lon="0.1738">
        <ele>2399</ele>
        <time>2019-02-27T10:54:42Z</time>
      </trkpt>
      <trkpt lat="42.74113" lon="0.1738">
        <ele>2399</ele>
        <time>2019-02-27T10:54:43Z</time>
      </trkpt>
      <trkpt lat="42.74113" lon="0.1738">
        <ele>2399</ele>
        <time>2019-02-27T10:54:44Z</time>
      </trkpt>
      <trkpt lat="42.74113" lon="0.1738">
        <ele>2399</ele>
        <time>2019-02-27T10:54:45Z</time>
      </trkpt>
      <trkpt lat="42.74113" lon="0.1738">
        <ele>2399</ele>
        <time>2019-02-27T10:54:46Z</time>
      </trkpt>
      <trkpt lat="42.74113" lon="0.1738">
        <ele>2399</ele>
        <time>2019-02-27T10:54:47Z</time>
      </trkpt>
      <trkpt lat="42.74113" lon="0.1738">
        <ele>2399</ele>
        <time>2019-02-27T10:54:48Z</time>
      </trkpt>
      <trkpt lat="42.74113" lon="0.1738">
        <ele>2399</ele>
        <time>2019-02-27T10:54:49Z</time>
      </trkpt>
      <trkpt lat="42.74113" lon="0.1738">
        <ele>2399</ele>
        <time>2019-02-27T10:54:50Z</time>
      </trkpt>
      <trkpt lat="42.74113" lon="0.1738">
        <ele>2399</ele>
        <time>2019-02-27T10:54:51Z</time>
      </trkpt>
      <trkpt lat="42.74113" lon="0.1738">
        <ele>2399</ele>
        <time>2019-02-27T10:54:52Z</time>
      </trkpt>
      <trkpt lat="42.74113" lon="0.1738">
        <ele>2399</ele>
        <time>2019-02-27T10:54:53Z</time>
      </trkpt>
      <trkpt lat="42.74113" lon="0.1738">
        <ele>2399</ele>
        <time>2019-02-27T10:54:54Z</time>
      </trkpt>
      <trkpt lat="42.74113" lon="0.1738">
        <ele>2399</ele>
        <time>2019-02-27T10:54:55Z</time>
      </trkpt>
      <trkpt lat="42.74113" lon="0.1738">
        <ele>2399</ele>
        <time>2019-02-27T10:54:56Z</time>
      </trkpt>
      <trkpt lat="42.74113" lon="0.1738">
        <ele>2399</ele>
        <time>2019-02-27T10:54:57Z</time>
      </trkpt>
      <trkpt lat="42.74113" lon="0.1738">
        <ele>2399</ele>
        <time>2019-02-27T10:54:58Z</time>
      </trkpt>
      <trkpt lat="42.74113" lon="0.1738">
        <ele>2399</ele>
        <time>2019-02-27T10:54:59Z</time>
      </trkpt>
      <trkpt lat="42.74113" lon="0.1738">
        <ele>2399</ele>
        <time>2019-02-27T10:55:00Z</time>
      </trkpt>
      <trkpt lat="42.74113" lon="0.1738">
        <ele>2399</ele>
        <time>2019-02-27T10:55:01Z</time>
      </trkpt>
      <trkpt lat="42.74113" lon="0.1738">
        <ele>2399</ele>
        <time>2019-02-27T10:55:02Z</time>
      </trkpt>
      <trkpt lat="42.74113" lon="0.1738">
        <ele>2399</ele>
        <time>2019-02-27T10:55:03Z</time>
      </trkpt>
      <trkpt lat="42.74113" lon="0.1738">
        <ele>2399</ele>
        <time>2019-02-27T10:55:04Z</time>
      </trkpt>
      <trkpt lat="42.74113" lon="0.1738">
        <ele>2399</ele>
        <time>2019-02-27T10:55:05Z</time>
      </trkpt>
      <trkpt lat="42.74113" lon="0.1738">
        <ele>2399</ele>
        <time>2019-02-27T10:55:06Z</time>
      </trkpt>
      <trkpt lat="42.74113" lon="0.1738">
        <ele>2399</ele>
        <time>2019-02-27T10:55:07Z</time>
      </trkpt>
      <trkpt lat="42.74113" lon="0.1738">
        <ele>2399</ele>
        <time>2019-02-27T10:55:08Z</time>
      </trkpt>
      <trkpt lat="42.74113" lon="0.1738">
        <ele>2399</ele>
        <time>2019-02-27T10:55:09Z</time>
      </trkpt>
      <trkpt lat="42.74113" lon="0.1738">
        <ele>2399</ele>
        <time>2019-02-27T10:55:10Z</time>
      </trkpt>
      <trkpt lat="42.74113" lon="0.1738">
        <ele>2399</ele>
        <time>2019-02-27T10:55:11Z</time>
      </trkpt>
      <trkpt lat="42.74113" lon="0.1738">
        <ele>2399</ele>
        <time>2019-02-27T10:55:12Z</time>
      </trkpt>
      <trkpt lat="42.74113" lon="0.1738">
        <ele>2399</ele>
        <time>2019-02-27T10:55:13Z</time>
      </trkpt>
      <trkpt lat="42.74113" lon="0.1738">
        <ele>2399</ele>
        <time>2019-02-27T10:55:14Z</time>
      </trkpt>
      <trkpt lat="42.74113" lon="0.1738">
        <ele>2399</ele>
        <time>2019-02-27T10:55:15Z</time>
      </trkpt>
      <trkpt lat="42.74113" lon="0.1738">
        <ele>2399</ele>
        <time>2019-02-27T10:55:16Z</time>
      </trkpt>
      <trkpt lat="42.74113" lon="0.1738">
        <ele>2399</ele>
        <time>2019-02-27T10:55:17Z</time>
      </trkpt>
      <trkpt lat="42.74113" lon="0.1738">
        <ele>2399</ele>
        <time>2019-02-27T10:55:18Z</time>
      </trkpt>
      <trkpt lat="42.74113" lon="0.1738">
        <ele>2399</ele>
        <time>2019-02-27T10:55:19Z</time>
      </trkpt>
      <trkpt lat="42.74113" lon="0.1738">
        <ele>2399</ele>
        <time>2019-02-27T10:55:20Z</time>
      </trkpt>
      <trkpt lat="42.74113" lon="0.1738">
        <ele>2399</ele>
        <time>2019-02-27T10:55:21Z</time>
      </trkpt>
      <trkpt lat="42.74113" lon="0.1738">
        <ele>2399</ele>
        <time>2019-02-27T10:55:22Z</time>
      </trkpt>
      <trkpt lat="42.74113" lon="0.1738">
        <ele>2399</ele>
        <time>2019-02-27T10:55:23Z</time>
      </trkpt>
      <trkpt lat="42.74113" lon="0.1738">
        <ele>2399</ele>
        <time>2019-02-27T10:55:24Z</time>
      </trkpt>
      <trkpt lat="42.74113" lon="0.1738">
        <ele>2399</ele>
        <time>2019-02-27T10:55:25Z</time>
      </trkpt>
      <trkpt lat="42.74113" lon="0.1738">
        <ele>2399</ele>
        <time>2019-02-27T10:55:26Z</time>
      </trkpt>
      <trkpt lat="42.74113" lon="0.1738">
        <ele>2399</ele>
        <time>2019-02-27T10:55:27Z</time>
      </trkpt>
      <trkpt lat="42.74113" lon="0.1738">
        <ele>2399</ele>
        <time>2019-02-27T10:55:28Z</time>
      </trkpt>
      <trkpt lat="42.74113" lon="0.1738">
        <ele>2399</ele>
        <time>2019-02-27T10:55:29Z</time>
      </trkpt>
      <trkpt lat="42.74113" lon="0.1738">
        <ele>2399</ele>
        <time>2019-02-27T10:55:30Z</time>
      </trkpt>
      <trkpt lat="42.74113" lon="0.1738">
        <ele>2399</ele>
        <time>2019-02-27T10:55:31Z</time>
      </trkpt>
      <trkpt lat="42.74113" lon="0.1738">
        <ele>2399</ele>
        <time>2019-02-27T10:55:32Z</time>
      </trkpt>
      <trkpt lat="42.74113" lon="0.1738">
        <ele>2399</ele>
        <time>2019-02-27T10:55:33Z</time>
      </trkpt>
      <trkpt lat="42.74113" lon="0.1738">
        <ele>2399</ele>
        <time>2019-02-27T10:55:34Z</time>
      </trkpt>
      <trkpt lat="42.74113" lon="0.1738">
        <ele>2399</ele>
        <time>2019-02-27T10:55:35Z</time>
      </trkpt>
      <trkpt lat="42.74113" lon="0.1738">
        <ele>2399</ele>
        <time>2019-02-27T10:55:36Z</time>
      </trkpt>
      <trkpt lat="42.74113" lon="0.1738">
        <ele>2399</ele>
        <time>2019-02-27T10:55:37Z</time>
      </trkpt>
      <trkpt lat="42.74113" lon="0.1738">
        <ele>2399</ele>
        <time>2019-02-27T10:55:38Z</time>
      </trkpt>
      <trkpt lat="42.74113" lon="0.1738">
        <ele>2399</ele>
        <time>2019-02-27T10:55:39Z</time>
      </trkpt>
      <trkpt lat="42.74113" lon="0.1738">
        <ele>2399</ele>
        <time>2019-02-27T10:55:40Z</time>
      </trkpt>
      <trkpt lat="42.74113" lon="0.1738">
        <ele>2399</ele>
        <time>2019-02-27T10:55:41Z</time>
      </trkpt>
      <trkpt lat="42.74113" lon="0.1738">
        <ele>2399</ele>
        <time>2019-02-27T10:55:42Z</time>
      </trkpt>
      <trkpt lat="42.74113" lon="0.1738">
        <ele>2399</ele>
        <time>2019-02-27T10:55:43Z</time>
      </trkpt>
      <trkpt lat="42.74113" lon="0.1738">
        <ele>2399</ele>
        <time>2019-02-27T10:55:44Z</time>
      </trkpt>
      <trkpt lat="42.74113" lon="0.1738">
        <ele>2399</ele>
        <time>2019-02-27T10:55:45Z</time>
      </trkpt>
      <trkpt lat="42.74113" lon="0.1738">
        <ele>2399</ele>
        <time>2019-02-27T10:55:46Z</time>
      </trkpt>
      <trkpt lat="42.74113" lon="0.1738">
        <ele>2399</ele>
        <time>2019-02-27T10:55:47Z</time>
      </trkpt>
      <trkpt lat="42.74113" lon="0.1738">
        <ele>2399</ele>
        <time>2019-02-27T10:55:48Z</time>
      </trkpt>
      <trkpt lat="42.74113" lon="0.1738">
        <ele>2399</ele>
        <time>2019-02-27T10:55:49Z</time>
      </trkpt>
      <trkpt lat="42.74113" lon="0.1738">
        <ele>2399</ele>
        <time>2019-02-27T10:55:50Z</time>
      </trkpt>
      <trkpt lat="42.74113" lon="0.1738">
        <ele>2399</ele>
        <time>2019-02-27T10:55:51Z</time>
      </trkpt>
      <trkpt lat="42.74113" lon="0.1738">
        <ele>2399</ele>
        <time>2019-02-27T10:55:52Z</time>
      </trkpt>
      <trkpt lat="42.74113" lon="0.1738">
        <ele>2399</ele>
        <time>2019-02-27T10:55:53Z</time>
      </trkpt>
      <trkpt lat="42.74113" lon="0.1738">
        <ele>2399</ele>
        <time>2019-02-27T10:55:54Z</time>
      </trkpt>
      <trkpt lat="42.74113" lon="0.1738">
        <ele>2399</ele>
        <time>2019-02-27T10:55:55Z</time>
      </trkpt>
      <trkpt lat="42.74113" lon="0.1738">
        <ele>2399</ele>
        <time>2019-02-27T10:55:56Z</time>
      </trkpt>
      <trkpt lat="42.74113" lon="0.1738">
        <ele>2399</ele>
        <time>2019-02-27T10:55:57Z</time>
      </trkpt>
      <trkpt lat="42.74113" lon="0.1738">
        <ele>2399</ele>
        <time>2019-02-27T10:55:58Z</time>
      </trkpt>
      <trkpt lat="42.74113" lon="0.1738">
        <ele>2399</ele>
        <time>2019-02-27T10:55:59Z</time>
      </trkpt>
      <trkpt lat="42.74113" lon="0.1738">
        <ele>2399</ele>
        <time>2019-02-27T10:56:00Z</time>
      </trkpt>
      <trkpt lat="42.74113" lon="0.1738">
        <ele>2399</ele>
        <time>2019-02-27T10:56:01Z</time>
      </trkpt>
      <trkpt lat="42.74113" lon="0.1738">
        <ele>2399</ele>
        <time>2019-02-27T10:56:02Z</time>
      </trkpt>
      <trkpt lat="42.74113" lon="0.1738">
        <ele>2399</ele>
        <time>2019-02-27T10:56:03Z</time>
      </trkpt>
      <trkpt lat="42.74113" lon="0.1738">
        <ele>2399</ele>
        <time>2019-02-27T10:56:04Z</time>
      </trkpt>
      <trkpt lat="42.74113" lon="0.1738">
        <ele>2399</ele>
        <time>2019-02-27T10:56:05Z</time>
      </trkpt>
      <trkpt lat="42.74113" lon="0.1738">
        <ele>2399</ele>
        <time>2019-02-27T10:56:06Z</time>
      </trkpt>
      <trkpt lat="42.74113" lon="0.1738">
        <ele>2399</ele>
        <time>2019-02-27T10:56:07Z</time>
      </trkpt>
      <trkpt lat="42.74113" lon="0.1738">
        <ele>2399</ele>
        <time>2019-02-27T10:56:08Z</time>
      </trkpt>
      <trkpt lat="42.74113" lon="0.1738">
        <ele>2399</ele>
        <time>2019-02-27T10:56:09Z</time>
      </trkpt>
      <trkpt lat="42.74113" lon="0.1738">
        <ele>2399</ele>
        <time>2019-02-27T10:56:10Z</time>
      </trkpt>
      <trkpt lat="42.74113" lon="0.1738">
        <ele>2399</ele>
        <time>2019-02-27T10:56:11Z</time>
      </trkpt>
      <trkpt lat="42.74113" lon="0.1738">
        <ele>2399</ele>
        <time>2019-02-27T10:56:12Z</time>
      </trkpt>
      <trkpt lat="42.74113" lon="0.1738">
        <ele>2399</ele>
        <time>2019-02-27T10:56:13Z</time>
      </trkpt>
      <trkpt lat="42.74113" lon="0.1738">
        <ele>2399</ele>
        <time>2019-02-27T10:56:14Z</time>
      </trkpt>
      <trkpt lat="42.74113" lon="0.1738">
        <ele>2399</ele>
        <time>2019-02-27T10:56:15Z</time>
      </trkpt>
      <trkpt lat="42.74113" lon="0.1738">
        <ele>2399</ele>
        <time>2019-02-27T10:56:16Z</time>
      </trkpt>
      <trkpt lat="42.74113" lon="0.1738">
        <ele>2399</ele>
        <time>2019-02-27T10:56:17Z</time>
      </trkpt>
      <trkpt lat="42.74113" lon="0.1738">
        <ele>2399</ele>
        <time>2019-02-27T10:56:18Z</time>
      </trkpt>
      <trkpt lat="42.74113" lon="0.1738">
        <ele>2399</ele>
        <time>2019-02-27T10:56:19Z</time>
      </trkpt>
      <trkpt lat="42.74113" lon="0.1738">
        <ele>2399</ele>
        <time>2019-02-27T10:56:20Z</time>
      </trkpt>
      <trkpt lat="42.74113" lon="0.1738">
        <ele>2399</ele>
        <time>2019-02-27T10:56:21Z</time>
      </trkpt>
      <trkpt lat="42.74113" lon="0.1738">
        <ele>2399</ele>
        <time>2019-02-27T10:56:22Z</time>
      </trkpt>
      <trkpt lat="42.74113" lon="0.1738">
        <ele>2399</ele>
        <time>2019-02-27T10:56:23Z</time>
      </trkpt>
      <trkpt lat="42.74113" lon="0.1738">
        <ele>2399</ele>
        <time>2019-02-27T10:56:24Z</time>
      </trkpt>
      <trkpt lat="42.74113" lon="0.1738">
        <ele>2399</ele>
        <time>2019-02-27T10:56:25Z</time>
      </trkpt>
      <trkpt lat="42.74113" lon="0.1738">
        <ele>2399</ele>
        <time>2019-02-27T10:56:26Z</time>
      </trkpt>
      <trkpt lat="42.74113" lon="0.1738">
        <ele>2399</ele>
        <time>2019-02-27T10:56:27Z</time>
      </trkpt>
      <trkpt lat="42.74113" lon="0.1738">
        <ele>2399</ele>
        <time>2019-02-27T10:56:28Z</time>
      </trkpt>
      <trkpt lat="42.74113" lon="0.1738">
        <ele>2399</ele>
        <time>2019-02-27T10:56:29Z</time>
      </trkpt>
      <trkpt lat="42.74113" lon="0.1738">
        <ele>2399</ele>
        <time>2019-02-27T10:56:30Z</time>
      </trkpt>
      <trkpt lat="42.74113" lon="0.1738">
        <ele>2399</ele>
        <time>2019-02-27T10:56:31Z</time>
      </trkpt>
      <trkpt lat="42.74113" lon="0.1738">
        <ele>2399</ele>
        <time>2019-02-27T10:56:32Z</time>
      </trkpt>
      <trkpt lat="42.74113" lon="0.1738">
        <ele>2399</ele>
        <time>2019-02-27T10:56:33Z</time>
      </trkpt>
      <trkpt lat="42.74113" lon="0.1738">
        <ele>2399</ele>
        <time>2019-02-27T10:56:34Z</time>
      </trkpt>
      <trkpt lat="42.74113" lon="0.1738">
        <ele>2399</ele>
        <time>2019-02-27T10:56:35Z</time>
      </trkpt>
      <trkpt lat="42.74113" lon="0.1738">
        <ele>2399</ele>
        <time>2019-02-27T10:56:36Z</time>
      </trkpt>
      <trkpt lat="42.74113" lon="0.1738">
        <ele>2399</ele>
        <time>2019-02-27T10:56:37Z</time>
      </trkpt>
      <trkpt lat="42.74113" lon="0.1738">
        <ele>2399</ele>
        <time>2019-02-27T10:56:38Z</time>
      </trkpt>
      <trkpt lat="42.74113" lon="0.1738">
        <ele>2399</ele>
        <time>2019-02-27T10:56:39Z</time>
      </trkpt>
      <trkpt lat="42.74113" lon="0.1738">
        <ele>2399</ele>
        <time>2019-02-27T10:56:40Z</time>
      </trkpt>
      <trkpt lat="42.74113" lon="0.1738">
        <ele>2399</ele>
        <time>2019-02-27T10:56:41Z</time>
      </trkpt>
      <trkpt lat="42.74113" lon="0.1738">
        <ele>2399</ele>
        <time>2019-02-27T10:56:42Z</time>
      </trkpt>
      <trkpt lat="42.74113" lon="0.1738">
        <ele>2399</ele>
        <time>2019-02-27T10:56:43Z</time>
      </trkpt>
      <trkpt lat="42.74113" lon="0.1738">
        <ele>2399</ele>
        <time>2019-02-27T10:56:44Z</time>
      </trkpt>
      <trkpt lat="42.74113" lon="0.1738">
        <ele>2399</ele>
        <time>2019-02-27T10:56:45Z</time>
      </trkpt>
      <trkpt lat="42.74113" lon="0.1738">
        <ele>2399</ele>
        <time>2019-02-27T10:56:46Z</time>
      </trkpt>
      <trkpt lat="42.74113" lon="0.1738">
        <ele>2399</ele>
        <time>2019-02-27T10:56:47Z</time>
      </trkpt>
      <trkpt lat="42.74113" lon="0.1738">
        <ele>2399</ele>
        <time>2019-02-27T10:56:48Z</time>
      </trkpt>
      <trkpt lat="42.74113" lon="0.1738">
        <ele>2399</ele>
        <time>2019-02-27T10:56:49Z</time>
      </trkpt>
      <trkpt lat="42.74113" lon="0.1738">
        <ele>2399</ele>
        <time>2019-02-27T10:56:50Z</time>
      </trkpt>
      <trkpt lat="42.74113" lon="0.1738">
        <ele>2399</ele>
        <time>2019-02-27T10:56:51Z</time>
      </trkpt>
      <trkpt lat="42.74113" lon="0.1738">
        <ele>2399</ele>
        <time>2019-02-27T10:56:52Z</time>
      </trkpt>
      <trkpt lat="42.74113" lon="0.1738">
        <ele>2399</ele>
        <time>2019-02-27T10:56:53Z</time>
      </trkpt>
      <trkpt lat="42.74113" lon="0.1738">
        <ele>2399</ele>
        <time>2019-02-27T10:56:54Z</time>
      </trkpt>
      <trkpt lat="42.74113" lon="0.1738">
        <ele>2399</ele>
        <time>2019-02-27T10:56:55Z</time>
      </trkpt>
      <trkpt lat="42.74113" lon="0.1738">
        <ele>2399</ele>
        <time>2019-02-27T10:56:56Z</time>
      </trkpt>
      <trkpt lat="42.74113" lon="0.1738">
        <ele>2399</ele>
        <time>2019-02-27T10:56:57Z</time>
      </trkpt>
      <trkpt lat="42.74113" lon="0.1738">
        <ele>2399</ele>
        <time>2019-02-27T10:56:58Z</time>
      </trkpt>
      <trkpt lat="42.74113" lon="0.1738">
        <ele>2399</ele>
        <time>2019-02-27T10:56:59Z</time>
      </trkpt>
      <trkpt lat="42.74113" lon="0.1738">
        <ele>2399</ele>
        <time>2019-02-27T10:57:00Z</time>
      </trkpt>
      <trkpt lat="42.74113" lon="0.1738">
        <ele>2399</ele>
        <time>2019-02-27T10:57:01Z</time>
      </trkpt>
      <trkpt lat="42.74113" lon="0.1738">
        <ele>2399</ele>
        <time>2019-02-27T10:57:02Z</time>
      </trkpt>
      <trkpt lat="42.74113" lon="0.1738">
        <ele>2399</ele>
        <time>2019-02-27T10:57:03Z</time>
      </trkpt>
      <trkpt lat="42.74113" lon="0.1738">
        <ele>2399</ele>
        <time>2019-02-27T10:57:04Z</time>
      </trkpt>
      <trkpt lat="42.74113" lon="0.1738">
        <ele>2399</ele>
        <time>2019-02-27T10:57:05Z</time>
      </trkpt>
      <trkpt lat="42.74113" lon="0.1738">
        <ele>2399</ele>
        <time>2019-02-27T10:57:06Z</time>
      </trkpt>
      <trkpt lat="42.74113" lon="0.1738">
        <ele>2399</ele>
        <time>2019-02-27T10:57:07Z</time>
      </trkpt>
      <trkpt lat="42.74113" lon="0.1738">
        <ele>2399</ele>
        <time>2019-02-27T10:57:08Z</time>
      </trkpt>
      <trkpt lat="42.74113" lon="0.1738">
        <ele>2399</ele>
        <time>2019-02-27T10:57:09Z</time>
      </trkpt>
      <trkpt lat="42.74113" lon="0.1738">
        <ele>2399</ele>
        <time>2019-02-27T10:57:10Z</time>
      </trkpt>
      <trkpt lat="42.74113" lon="0.1738">
        <ele>2399</ele>
        <time>2019-02-27T10:57:11Z</time>
      </trkpt>
      <trkpt lat="42.74113" lon="0.1738">
        <ele>2399</ele>
        <time>2019-02-27T10:57:12Z</time>
      </trkpt>
      <trkpt lat="42.74113" lon="0.1738">
        <ele>2399</ele>
        <time>2019-02-27T10:57:13Z</time>
      </trkpt>
      <trkpt lat="42.74113" lon="0.1738">
        <ele>2399</ele>
        <time>2019-02-27T10:57:14Z</time>
      </trkpt>
      <trkpt lat="42.74113" lon="0.1738">
        <ele>2399</ele>
        <time>2019-02-27T10:57:15Z</time>
      </trkpt>
      <trkpt lat="42.74113" lon="0.1738">
        <ele>2399</ele>
        <time>2019-02-27T10:57:16Z</time>
      </trkpt>
      <trkpt lat="42.74113" lon="0.1738">
        <ele>2399</ele>
        <time>2019-02-27T10:57:17Z</time>
      </trkpt>
      <trkpt lat="42.74113" lon="0.1738">
        <ele>2399</ele>
        <time>2019-02-27T10:57:18Z</time>
      </trkpt>
      <trkpt lat="42.74113" lon="0.1738">
        <ele>2399</ele>
        <time>2019-02-27T10:57:19Z</time>
      </trkpt>
      <trkpt lat="42.74113" lon="0.1738">
        <ele>2399</ele>
        <time>2019-02-27T10:57:20Z</time>
      </trkpt>
      <trkpt lat="42.74113" lon="0.1738">
        <ele>2399</ele>
        <time>2019-02-27T10:57:21Z</time>
      </trkpt>
      <trkpt lat="42.74113" lon="0.1738">
        <ele>2399</ele>
        <time>2019-02-27T10:57:22Z</time>
      </trkpt>
      <trkpt lat="42.74113" lon="0.1738">
        <ele>2399</ele>
        <time>2019-02-27T10:57:23Z</time>
      </trkpt>
      <trkpt lat="42.74113" lon="0.1738">
        <ele>2399</ele>
        <time>2019-02-27T10:57:24Z</time>
      </trkpt>
      <trkpt lat="42.74113" lon="0.1738">
        <ele>2399</ele>
        <time>2019-02-27T10:57:25Z</time>
      </trkpt>
      <trkpt lat="42.74113" lon="0.1738">
        <ele>2399</ele>
        <time>2019-02-27T10:57:26Z</time>
      </trkpt>
      <trkpt lat="42.74113" lon="0.1738">
        <ele>2399</ele>
        <time>2019-02-27T10:57:27Z</time>
      </trkpt>
      <trkpt lat="42.74113" lon="0.1738">
        <ele>2399</ele>
        <time>2019-02-27T10:57:28Z</time>
      </trkpt>
      <trkpt lat="42.74113" lon="0.1738">
        <ele>2399</ele>
        <time>2019-02-27T10:57:29Z</time>
      </trkpt>
      <trkpt lat="42.74113" lon="0.1738">
        <ele>2399</ele>
        <time>2019-02-27T10:57:30Z</time>
      </trkpt>
      <trkpt lat="42.74113" lon="0.1738">
        <ele>2399</ele>
        <time>2019-02-27T10:57:31Z</time>
      </trkpt>
      <trkpt lat="42.74113" lon="0.1738">
        <ele>2399</ele>
        <time>2019-02-27T10:57:32Z</time>
      </trkpt>
      <trkpt lat="42.74113" lon="0.1738">
        <ele>2399</ele>
        <time>2019-02-27T10:57:33Z</time>
      </trkpt>
      <trkpt lat="42.74113" lon="0.1738">
        <ele>2399</ele>
        <time>2019-02-27T10:57:34Z</time>
      </trkpt>
      <trkpt lat="42.74113" lon="0.1738">
        <ele>2399</ele>
        <time>2019-02-27T10:57:35Z</time>
      </trkpt>
      <trkpt lat="42.74113" lon="0.1738">
        <ele>2399</ele>
        <time>2019-02-27T10:57:36Z</time>
      </trkpt>
      <trkpt lat="42.74113" lon="0.1738">
        <ele>2399</ele>
        <time>2019-02-27T10:57:37Z</time>
      </trkpt>
      <trkpt lat="42.74113" lon="0.1738">
        <ele>2399</ele>
        <time>2019-02-27T10:57:38Z</time>
      </trkpt>
      <trkpt lat="42.74113" lon="0.1738">
        <ele>2399</ele>
        <time>2019-02-27T10:57:39Z</time>
      </trkpt>
      <trkpt lat="42.74113" lon="0.1738">
        <ele>2399</ele>
        <time>2019-02-27T10:57:40Z</time>
      </trkpt>
      <trkpt lat="42.74113" lon="0.1738">
        <ele>2399</ele>
        <time>2019-02-27T10:57:41Z</time>
      </trkpt>
      <trkpt lat="42.74113" lon="0.1738">
        <ele>2399</ele>
        <time>2019-02-27T10:57:42Z</time>
      </trkpt>
      <trkpt lat="42.74113" lon="0.1738">
        <ele>2399</ele>
        <time>2019-02-27T10:57:43Z</time>
      </trkpt>
      <trkpt lat="42.74113" lon="0.1738">
        <ele>2399</ele>
        <time>2019-02-27T10:57:44Z</time>
      </trkpt>
      <trkpt lat="42.74113" lon="0.1738">
        <ele>2399</ele>
        <time>2019-02-27T10:57:45Z</time>
      </trkpt>
      <trkpt lat="42.74113" lon="0.1738">
        <ele>2399</ele>
        <time>2019-02-27T10:57:46Z</time>
      </trkpt>
      <trkpt lat="42.74113" lon="0.1738">
        <ele>2399</ele>
        <time>2019-02-27T10:57:47Z</time>
      </trkpt>
      <trkpt lat="42.74113" lon="0.1738">
        <ele>2399</ele>
        <time>2019-02-27T10:57:48Z</time>
      </trkpt>
      <trkpt lat="42.74113" lon="0.1738">
        <ele>2399</ele>
        <time>2019-02-27T10:57:49Z</time>
      </trkpt>
      <trkpt lat="42.74113" lon="0.1738">
        <ele>2399</ele>
        <time>2019-02-27T10:57:50Z</time>
      </trkpt>
      <trkpt lat="42.74113" lon="0.1738">
        <ele>2399</ele>
        <time>2019-02-27T10:57:51Z</time>
      </trkpt>
      <trkpt lat="42.74113" lon="0.1738">
        <ele>2399</ele>
        <time>2019-02-27T10:57:52Z</time>
      </trkpt>
      <trkpt lat="42.74113" lon="0.1738">
        <ele>2399</ele>
        <time>2019-02-27T10:57:53Z</time>
      </trkpt>
      <trkpt lat="42.74113" lon="0.1738">
        <ele>2399</ele>
        <time>2019-02-27T10:57:54Z</time>
      </trkpt>
      <trkpt lat="42.74113" lon="0.1738">
        <ele>2399</ele>
        <time>2019-02-27T10:57:55Z</time>
      </trkpt>
      <trkpt lat="42.74113" lon="0.1738">
        <ele>2399</ele>
        <time>2019-02-27T10:57:56Z</time>
      </trkpt>
      <trkpt lat="42.74113" lon="0.1738">
        <ele>2399</ele>
        <time>2019-02-27T10:57:57Z</time>
      </trkpt>
      <trkpt lat="42.74113" lon="0.1738">
        <ele>2399</ele>
        <time>2019-02-27T10:57:58Z</time>
      </trkpt>
      <trkpt lat="42.74113" lon="0.1738">
        <ele>2399</ele>
        <time>2019-02-27T10:57:59Z</time>
      </trkpt>
      <trkpt lat="42.74113" lon="0.1738">
        <ele>2399</ele>
        <time>2019-02-27T10:58:00Z</time>
      </trkpt>
      <trkpt lat="42.74113" lon="0.1738">
        <ele>2399</ele>
        <time>2019-02-27T10:58:01Z</time>
      </trkpt>
      <trkpt lat="42.74113" lon="0.1738">
        <ele>2399</ele>
        <time>2019-02-27T10:58:02Z</time>
      </trkpt>
      <trkpt lat="42.74113" lon="0.1738">
        <ele>2399</ele>
        <time>2019-02-27T10:58:03Z</time>
      </trkpt>
      <trkpt lat="42.74113" lon="0.1738">
        <ele>2399</ele>
        <time>2019-02-27T10:58:04Z</time>
      </trkpt>
      <trkpt lat="42.74113" lon="0.1738">
        <ele>2399</ele>
        <time>2019-02-27T10:58:05Z</time>
      </trkpt>
      <trkpt lat="42.74113" lon="0.1738">
        <ele>2399</ele>
        <time>2019-02-27T10:58:06Z</time>
      </trkpt>
      <trkpt lat="42.74113" lon="0.1738">
        <ele>2399</ele>
        <time>2019-02-27T10:58:07Z</time>
      </trkpt>
      <trkpt lat="42.74113" lon="0.1738">
        <ele>2399</ele>
        <time>2019-02-27T10:58:08Z</time>
      </trkpt>
      <trkpt lat="42.74113" lon="0.1738">
        <ele>2399</ele>
        <time>2019-02-27T10:58:09Z</time>
      </trkpt>
      <trkpt lat="42.74113" lon="0.1738">
        <ele>2399</ele>
        <time>2019-02-27T10:58:10Z</time>
      </trkpt>
      <trkpt lat="42.74113" lon="0.1738">
        <ele>2399</ele>
        <time>2019-02-27T10:58:11Z</time>
      </trkpt>
      <trkpt lat="42.74113" lon="0.1738">
        <ele>2399</ele>
        <time>2019-02-27T10:58:12Z</time>
      </trkpt>
      <trkpt lat="42.74113" lon="0.1738">
        <ele>2399</ele>
        <time>2019-02-27T10:58:13Z</time>
      </trkpt>
      <trkpt lat="42.74113" lon="0.1738">
        <ele>2399</ele>
        <time>2019-02-27T10:58:14Z</time>
      </trkpt>
      <trkpt lat="42.74113" lon="0.1738">
        <ele>2399</ele>
        <time>2019-02-27T10:58:15Z</time>
      </trkpt>
      <trkpt lat="42.74113" lon="0.1738">
        <ele>2399</ele>
        <time>2019-02-27T10:58:16Z</time>
      </trkpt>
      <trkpt lat="42.74113" lon="0.1738">
        <ele>2399</ele>
        <time>2019-02-27T10:58:17Z</time>
      </trkpt>
      <trkpt lat="42.74113" lon="0.1738">
        <ele>2399</ele>
        <time>2019-02-27T10:58:18Z</time>
      </trkpt>
      <trkpt lat="42.74113" lon="0.1738">
        <ele>2399</ele>
        <time>2019-02-27T10:58:19Z</time>
      </trkpt>
      <trkpt lat="42.74113" lon="0.1738">
        <ele>2399</ele>
        <time>2019-02-27T10:58:20Z</time>
      </trkpt>
      <trkpt lat="42.74113" lon="0.1738">
        <ele>2399</ele>
        <time>2019-02-27T10:58:21Z</time>
      </trkpt>
      <trkpt lat="42.74113" lon="0.1738">
        <ele>2399</ele>
        <time>2019-02-27T10:58:22Z</time>
      </trkpt>
      <trkpt lat="42.74113" lon="0.1738">
        <ele>2399</ele>
        <time>2019-02-27T10:58:23Z</time>
      </trkpt>
      <trkpt lat="42.74113" lon="0.1738">
        <ele>2399</ele>
        <time>2019-02-27T10:58:24Z</time>
      </trkpt>
      <trkpt lat="42.74113" lon="0.1738">
        <ele>2399</ele>
        <time>2019-02-27T10:58:25Z</time>
      </trkpt>
      <trkpt lat="42.74113" lon="0.1738">
        <ele>2399</ele>
        <time>2019-02-27T10:58:26Z</time>
      </trkpt>
      <trkpt lat="42.74113" lon="0.1738">
        <ele>2399</ele>
        <time>2019-02-27T10:58:27Z</time>
      </trkpt>
      <trkpt lat="42.74113" lon="0.1738">
        <ele>2399</ele>
        <time>2019-02-27T10:58:28Z</time>
      </trkpt>
      <trkpt lat="42.74113" lon="0.1738">
        <ele>2399</ele>
        <time>2019-02-27T10:58:29Z</time>
      </trkpt>
      <trkpt lat="42.74113" lon="0.1738">
        <ele>2399</ele>
        <time>2019-02-27T10:58:30Z</time>
      </trkpt>
      <trkpt lat="42.74113" lon="0.1738">
        <ele>2399</ele>
        <time>2019-02-27T10:58:31Z</time>
      </trkpt>
      <trkpt lat="42.74113" lon="0.1738">
        <ele>2399</ele>
        <time>2019-02-27T10:58:32Z</time>
      </trkpt>
      <trkpt lat="42.74113" lon="0.1738">
        <ele>2399</ele>
        <time>2019-02-27T10:58:33Z</time>
      </trkpt>
      <trkpt lat="42.74113" lon="0.1738">
        <ele>2399</ele>
        <time>2019-02-27T10:58:34Z</time>
      </trkpt>
      <trkpt lat="42.74113" lon="0.1738">
        <ele>2399</ele>
        <time>2019-02-27T10:58:35Z</time>
      </trkpt>
      <trkpt lat="42.74113" lon="0.1738">
        <ele>2399</ele>
        <time>2019-02-27T10:58:36Z</time>
      </trkpt>
      <trkpt lat="42.74113" lon="0.1738">
        <ele>2399</ele>
        <time>2019-02-27T10:58:37Z</time>
      </trkpt>
      <trkpt lat="42.74113" lon="0.1738">
        <ele>2399</ele>
        <time>2019-02-27T10:58:38Z</time>
      </trkpt>
      <trkpt lat="42.74113" lon="0.1738">
        <ele>2399</ele>
        <time>2019-02-27T10:58:39Z</time>
      </trkpt>
      <trkpt lat="42.74113" lon="0.1738">
        <ele>2399</ele>
        <time>2019-02-27T10:58:40Z</time>
      </trkpt>
      <trkpt lat="42.74113" lon="0.1738">
        <ele>2399</ele>
        <time>2019-02-27T10:58:41Z</time>
      </trkpt>
      <trkpt lat="42.74113" lon="0.1738">
        <ele>2399</ele>
        <time>2019-02-27T10:58:42Z</time>
      </trkpt>
      <trkpt lat="42.74113" lon="0.1738">
        <ele>2399</ele>
        <time>2019-02-27T10:58:43Z</time>
      </trkpt>
      <trkpt lat="42.74113" lon="0.1738">
        <ele>2399</ele>
        <time>2019-02-27T10:58:44Z</time>
      </trkpt>
      <trkpt lat="42.74113" lon="0.1738">
        <ele>2399</ele>
        <time>2019-02-27T10:58:45Z</time>
      </trkpt>
      <trkpt lat="42.74113" lon="0.1738">
        <ele>2399</ele>
        <time>2019-02-27T10:58:46Z</time>
      </trkpt>
      <trkpt lat="42.74113" lon="0.1738">
        <ele>2399</ele>
        <time>2019-02-27T10:58:47Z</time>
      </trkpt>
      <trkpt lat="42.74113" lon="0.1738">
        <ele>2399</ele>
        <time>2019-02-27T10:58:48Z</time>
      </trkpt>
      <trkpt lat="42.74113" lon="0.1738">
        <ele>2399</ele>
        <time>2019-02-27T10:58:49Z</time>
      </trkpt>
      <trkpt lat="42.74113" lon="0.1738">
        <ele>2399</ele>
        <time>2019-02-27T10:58:50Z</time>
      </trkpt>
      <trkpt lat="42.74113" lon="0.1738">
        <ele>2399</ele>
        <time>2019-02-27T10:58:51Z</time>
      </trkpt>
      <trkpt lat="42.74113" lon="0.1738">
        <ele>2399</ele>
        <time>2019-02-27T10:58:52Z</time>
      </trkpt>
      <trkpt lat="42.74113" lon="0.1738">
        <ele>2399</ele>
        <time>2019-02-27T10:58:53Z</time>
      </trkpt>
      <trkpt lat="42.74113" lon="0.1738">
        <ele>2399</ele>
        <time>2019-02-27T10:58:54Z</time>
      </trkpt>
      <trkpt lat="42.74113" lon="0.1738">
        <ele>2399</ele>
        <time>2019-02-27T10:58:55Z</time>
      </trkpt>
      <trkpt lat="42.74113" lon="0.1738">
        <ele>2399</ele>
        <time>2019-02-27T10:58:56Z</time>
      </trkpt>
      <trkpt lat="42.74113" lon="0.1738">
        <ele>2399</ele>
        <time>2019-02-27T10:58:57Z</time>
      </trkpt>
      <trkpt lat="42.74113" lon="0.1738">
        <ele>2399</ele>
        <time>2019-02-27T10:58:58Z</time>
      </trkpt>
      <trkpt lat="42.74113" lon="0.1738">
        <ele>2399</ele>
        <time>2019-02-27T10:58:59Z</time>
      </trkpt>
      <trkpt lat="42.74113" lon="0.1738">
        <ele>2399</ele>
        <time>2019-02-27T10:59:00Z</time>
      </trkpt>
      <trkpt lat="42.74113" lon="0.1738">
        <ele>2399</ele>
        <time>2019-02-27T10:59:01Z</time>
      </trkpt>
      <trkpt lat="42.74113" lon="0.1738">
        <ele>2399</ele>
        <time>2019-02-27T10:59:02Z</time>
      </trkpt>
      <trkpt lat="42.74113" lon="0.1738">
        <ele>2399</ele>
        <time>2019-02-27T10:59:03Z</time>
      </trkpt>
      <trkpt lat="42.74113" lon="0.1738">
        <ele>2399</ele>
        <time>2019-02-27T10:59:04Z</time>
      </trkpt>
      <trkpt lat="42.74113" lon="0.1738">
        <ele>2399</ele>
        <time>2019-02-27T10:59:05Z</time>
      </trkpt>
      <trkpt lat="42.74113" lon="0.1738">
        <ele>2399</ele>
        <time>2019-02-27T10:59:06Z</time>
      </trkpt>
      <trkpt lat="42.74113" lon="0.1738">
        <ele>2399</ele>
        <time>2019-02-27T10:59:07Z</time>
      </trkpt>
      <trkpt lat="42.74113" lon="0.1738">
        <ele>2399</ele>
        <time>2019-02-27T10:59:08Z</time>
      </trkpt>
      <trkpt lat="42.74113" lon="0.1738">
        <ele>2399</ele>
        <time>2019-02-27T10:59:09Z</time>
      </trkpt>
      <trkpt lat="42.74113" lon="0.1738">
        <ele>2399</ele>
        <time>2019-02-27T10:59:10Z</time>
      </trkpt>
      <trkpt lat="42.74113" lon="0.1738">
        <ele>2399</ele>
        <time>2019-02-27T10:59:11Z</time>
      </trkpt>
      <trkpt lat="42.74113" lon="0.1738">
        <ele>2399</ele>
        <time>2019-02-27T10:59:12Z</time>
      </trkpt>
      <trkpt lat="42.74113" lon="0.1738">
        <ele>2399</ele>
        <time>2019-02-27T10:59:13Z</time>
      </trkpt>
      <trkpt lat="42.74113" lon="0.1738">
        <ele>2399</ele>
        <time>2019-02-27T10:59:14Z</time>
      </trkpt>
      <trkpt lat="42.74113" lon="0.1738">
        <ele>2399</ele>
        <time>2019-02-27T10:59:15Z</time>
      </trkpt>
      <trkpt lat="42.74113" lon="0.1738">
        <ele>2399</ele>
        <time>2019-02-27T10:59:16Z</time>
      </trkpt>
      <trkpt lat="42.74113" lon="0.1738">
        <ele>2399</ele>
        <time>2019-02-27T10:59:17Z</time>
      </trkpt>
      <trkpt lat="42.74113" lon="0.1738">
        <ele>2399</ele>
        <time>2019-02-27T10:59:18Z</time>
      </trkpt>
      <trkpt lat="42.74113" lon="0.1738">
        <ele>2399</ele>
        <time>2019-02-27T10:59:19Z</time>
      </trkpt>
      <trkpt lat="42.74113" lon="0.1738">
        <ele>2399</ele>
        <time>2019-02-27T10:59:20Z</time>
      </trkpt>
      <trkpt lat="42.74113" lon="0.1738">
        <ele>2399</ele>
        <time>2019-02-27T10:59:21Z</time>
      </trkpt>
      <trkpt lat="42.74113" lon="0.1738">
        <ele>2399</ele>
        <time>2019-02-27T10:59:22Z</time>
      </trkpt>
      <trkpt lat="42.74113" lon="0.1738">
        <ele>2399</ele>
        <time>2019-02-27T10:59:23Z</time>
      </trkpt>
      <trkpt lat="42.74113" lon="0.1738">
        <ele>2399</ele>
        <time>2019-02-27T10:59:24Z</time>
      </trkpt>
      <trkpt lat="42.74113" lon="0.1738">
        <ele>2399</ele>
        <time>2019-02-27T10:59:25Z</time>
      </trkpt>
      <trkpt lat="42.74113" lon="0.1738">
        <ele>2399</ele>
        <time>2019-02-27T10:59:26Z</time>
      </trkpt>
      <trkpt lat="42.74113" lon="0.1738">
        <ele>2399</ele>
        <time>2019-02-27T10:59:27Z</time>
      </trkpt>
      <trkpt lat="42.74113" lon="0.1738">
        <ele>2399</ele>
        <time>2019-02-27T10:59:28Z</time>
      </trkpt>
      <trkpt lat="42.74113" lon="0.1738">
        <ele>2399</ele>
        <time>2019-02-27T10:59:29Z</time>
      </trkpt>
      <trkpt lat="42.74113" lon="0.1738">
        <ele>2399</ele>
        <time>2019-02-27T10:59:30Z</time>
      </trkpt>
      <trkpt lat="42.74113" lon="0.1738">
        <ele>2399</ele>
        <time>2019-02-27T10:59:31Z</time>
      </trkpt>
      <trkpt lat="42.74113" lon="0.1738">
        <ele>2399</ele>
        <time>2019-02-27T10:59:32Z</time>
      </trkpt>
      <trkpt lat="42.74113" lon="0.1738">
        <ele>2399</ele>
        <time>2019-02-27T10:59:33Z</time>
      </trkpt>
      <trkpt lat="42.74113" lon="0.1738">
        <ele>2399</ele>
        <time>2019-02-27T10:59:34Z</time>
      </trkpt>
      <trkpt lat="42.74113" lon="0.1738">
        <ele>2399</ele>
        <time>2019-02-27T10:59:35Z</time>
      </trkpt>
      <trkpt lat="42.74113" lon="0.1738">
        <ele>2399</ele>
        <time>2019-02-27T10:59:36Z</time>
      </trkpt>
      <trkpt lat="42.74113" lon="0.1738">
        <ele>2399</ele>
        <time>2019-02-27T10:59:37Z</time>
      </trkpt>
      <trkpt lat="42.74113" lon="0.1738">
        <ele>2399</ele>
        <time>2019-02-27T10:59:38Z</time>
      </trkpt>
      <trkpt lat="42.74113" lon="0.1738">
        <ele>2399</ele>
        <time>2019-02-27T10:59:39Z</time>
      </trkpt>
      <trkpt lat="42.74113" lon="0.1738">
        <ele>2399</ele>
        <time>2019-02-27T10:59:40Z</time>
      </trkpt>
      <trkpt lat="42.74113" lon="0.1738">
        <ele>2399</ele>
        <time>2019-02-27T10:59:41Z</time>
      </trkpt>
      <trkpt lat="42.74113" lon="0.1738">
        <ele>2399</ele>
        <time>2019-02-27T10:59:42Z</time>
      </trkpt>
      <trkpt lat="42.74113" lon="0.1738">
        <ele>2399</ele>
        <time>2019-02-27T10:59:43Z</time>
      </trkpt>
      <trkpt lat="42.74113" lon="0.1738">
        <ele>2399</ele>
        <time>2019-02-27T10:59:44Z</time>
      </trkpt>
      <trkpt lat="42.74113" lon="0.1738">
        <ele>2399</ele>
        <time>2019-02-27T10:59:45Z</time>
      </trkpt>
      <trkpt lat="42.74113" lon="0.1738">
        <ele>2399</ele>
        <time>2019-02-27T10:59:46Z</time>
      </trkpt>
      <trkpt lat="42.74113" lon="0.1738">
        <ele>2399</ele>
        <time>2019-02-27T10:59:47Z</time>
      </trkpt>
      <trkpt lat="42.74113" lon="0.1738">
        <ele>2399</ele>
        <time>2019-02-27T10:59:48Z</time>
      </trkpt>
      <trkpt lat="42.74113" lon="0.1738">
        <ele>2399</ele>
        <time>2019-02-27T10:59:49Z</time>
      </trkpt>
      <trkpt lat="42.74113" lon="0.1738">
        <ele>2399</ele>
        <time>2019-02-27T10:59:50Z</time>
      </trkpt>
      <trkpt lat="42.74113" lon="0.1738">
        <ele>2399</ele>
        <time>2019-02-27T10:59:51Z</time>
      </trkpt>
      <trkpt lat="42.74113" lon="0.1738">
        <ele>2399</ele>
        <time>2019-02-27T10:59:52Z</time>
      </trkpt>
      <trkpt lat="42.74113" lon="0.1738">
        <ele>2399</ele>
        <time>2019-02-27T10:59:53Z</time>
      </trkpt>
      <trkpt lat="42.74113" lon="0.1738">
        <ele>2399</ele>
        <time>2019-02-27T10:59:54Z</time>
      </trkpt>
      <trkpt lat="42.74113" lon="0.1738">
        <ele>2399</ele>
        <time>2019-02-27T10:59:55Z</time>
      </trkpt>
      <trkpt lat="42.74113" lon="0.1738">
        <ele>2399</ele>
        <time>2019-02-27T10:59:56Z</time>
      </trkpt>
      <trkpt lat="42.74113" lon="0.1738">
        <ele>2399</ele>
        <time>2019-02-27T10:59:57Z</time>
      </trkpt>
      <trkpt lat="42.74113" lon="0.1738">
        <ele>2399</ele>
        <time>2019-02-27T10:59:58Z</time>
      </trkpt>
      <trkpt lat="42.74113" lon="0.1738">
        <ele>2399</ele>
        <time>2019-02-27T10:59:59Z</time>
      </trkpt>
      <trkpt lat="42.74113" lon="0.1738">
        <ele>2399</ele>
        <time>2019-02-27T11:00:00Z</time>
      </trkpt>
      <trkpt lat="42.74113" lon="0.1738">
        <ele>2399</ele>
        <time>2019-02-27T11:00:01Z</time>
      </trkpt>
      <trkpt lat="42.74113" lon="0.1738">
        <ele>2399</ele>
        <time>2019-02-27T11:00:02Z</time>
      </trkpt>
      <trkpt lat="42.74113" lon="0.1738">
        <ele>2399</ele>
        <time>2019-02-27T11:00:03Z</time>
      </trkpt>
      <trkpt lat="42.74113" lon="0.1738">
        <ele>2399</ele>
        <time>2019-02-27T11:00:04Z</time>
      </trkpt>
      <trkpt lat="42.74113" lon="0.1738">
        <ele>2399</ele>
        <time>2019-02-27T11:00:05Z</time>
      </trkpt>
      <trkpt lat="42.74113" lon="0.1738">
        <ele>2399</ele>
        <time>2019-02-27T11:00:06Z</time>
      </trkpt>
      <trkpt lat="42.74113" lon="0.1738">
        <ele>2399</ele>
        <time>2019-02-27T11:00:07Z</time>
      </trkpt>
      <trkpt lat="42.74113" lon="0.1738">
        <ele>2399</ele>
        <time>2019-02-27T11:00:08Z</time>
      </trkpt>
      <trkpt lat="42.74113" lon="0.1738">
        <ele>2399</ele>
        <time>2019-02-27T11:00:09Z</time>
      </trkpt>
      <trkpt lat="42.74113" lon="0.1738">
        <ele>2399</ele>
        <time>2019-02-27T11:00:10Z</time>
      </trkpt>
      <trkpt lat="42.74113" lon="0.1738">
        <ele>2399</ele>
        <time>2019-02-27T11:00:11Z</time>
      </trkpt>
      <trkpt lat="42.74113" lon="0.1738">
        <ele>2399</ele>
        <time>2019-02-27T11:00:12Z</time>
      </trkpt>
      <trkpt lat="42.74113" lon="0.1738">
        <ele>2399</ele>
        <time>2019-02-27T11:00:13Z</time>
      </trkpt>
      <trkpt lat="42.74113" lon="0.1738">
        <ele>2399</ele>
        <time>2019-02-27T11:00:14Z</time>
      </trkpt>
      <trkpt lat="42.74113" lon="0.1738">
        <ele>2399</ele>
        <time>2019-02-27T11:00:15Z</time>
      </trkpt>
      <trkpt lat="42.74113" lon="0.1738">
        <ele>2399</ele>
        <time>2019-02-27T11:00:16Z</time>
      </trkpt>
      <trkpt lat="42.74113" lon="0.1738">
        <ele>2399</ele>
        <time>2019-02-27T11:00:17Z</time>
      </trkpt>
      <trkpt lat="42.74113" lon="0.1738">
        <ele>2399</ele>
        <time>2019-02-27T11:00:18Z</time>
      </trkpt>
      <trkpt lat="42.74113" lon="0.1738">
        <ele>2399</ele>
        <time>2019-02-27T11:00:19Z</time>
      </trkpt>
      <trkpt lat="42.74113" lon="0.1738">
        <ele>2399</ele>
        <time>2019-02-27T11:00:20Z</time>
      </trkpt>
      <trkpt lat="42.74113" lon="0.1738">
        <ele>2399</ele>
        <time>2019-02-27T11:00:21Z</time>
      </trkpt>
      <trkpt lat="42.74113" lon="0.1738">
        <ele>2399</ele>
        <time>2019-02-27T11:00:22Z</time>
      </trkpt>
      <trkpt lat="42.74113" lon="0.1738">
        <ele>2399</ele>
        <time>2019-02-27T11:00:23Z</time>
      </trkpt>
      <trkpt lat="42.74113" lon="0.1738">
        <ele>2399</ele>
        <time>2019-02-27T11:00:24Z</time>
      </trkpt>
      <trkpt lat="42.74113" lon="0.1738">
        <ele>2399</ele>
        <time>2019-02-27T11:00:25Z</time>
      </trkpt>
      <trkpt lat="42.74113" lon="0.1738">
        <ele>2399</ele>
        <time>2019-02-27T11:00:26Z</time>
      </trkpt>
      <trkpt lat="42.74113" lon="0.1738">
        <ele>2399</ele>
        <time>2019-02-27T11:00:27Z</time>
      </trkpt>
      <trkpt lat="42.74113" lon="0.1738">
        <ele>2399</ele>
        <time>2019-02-27T11:00:28Z</time>
      </trkpt>
      <trkpt lat="42.74113" lon="0.1738">
        <ele>2399</ele>
        <time>2019-02-27T11:00:29Z</time>
      </trkpt>
      <trkpt lat="42.74113" lon="0.1738">
        <ele>2399</ele>
        <time>2019-02-27T11:00:30Z</time>
      </trkpt>
      <trkpt lat="42.74113" lon="0.1738">
        <ele>2399</ele>
        <time>2019-02-27T11:00:31Z</time>
      </trkpt>
      <trkpt lat="42.74113" lon="0.1738">
        <ele>2399</ele>
        <time>2019-02-27T11:00:32Z</time>
      </trkpt>
      <trkpt lat="42.74113" lon="0.1738">
        <ele>2399</ele>
        <time>2019-02-27T11:00:33Z</time>
      </trkpt>
      <trkpt lat="42.74113" lon="0.1738">
        <ele>2399</ele>
        <time>2019-02-27T11:00:34Z</time>
      </trkpt>
      <trkpt lat="42.74113" lon="0.1738">
        <ele>2399</ele>
        <time>2019-02-27T11:00:35Z</time>
      </trkpt>
      <trkpt lat="42.74113" lon="0.1738">
        <ele>2399</ele>
        <time>2019-02-27T11:00:36Z</time>
      </trkpt>
      <trkpt lat="42.74113" lon="0.1738">
        <ele>2399</ele>
        <time>2019-02-27T11:00:37Z</time>
      </trkpt>
      <trkpt lat="42.74113" lon="0.1738">
        <ele>2399</ele>
        <time>2019-02-27T11:00:38Z</time>
      </trkpt>
      <trkpt lat="42.74113" lon="0.1738">
        <ele>2399</ele>
        <time>2019-02-27T11:00:39Z</time>
      </trkpt>
      <trkpt lat="42.74113" lon="0.1738">
        <ele>2399</ele>
        <time>2019-02-27T11:00:40Z</time>
      </trkpt>
      <trkpt lat="42.74113" lon="0.1738">
        <ele>2399</ele>
        <time>2019-02-27T11:00:41Z</time>
      </trkpt>
      <trkpt lat="42.74113" lon="0.1738">
        <ele>2399</ele>
        <time>2019-02-27T11:00:42Z</time>
      </trkpt>
      <trkpt lat="42.74113" lon="0.1738">
        <ele>2399</ele>
        <time>2019-02-27T11:00:43Z</time>
      </trkpt>
      <trkpt lat="42.74113" lon="0.1738">
        <ele>2399</ele>
        <time>2019-02-27T11:00:44Z</time>
      </trkpt>
      <trkpt lat="42.74113" lon="0.1738">
        <ele>2399</ele>
        <time>2019-02-27T11:00:45Z</time>
      </trkpt>
      <trkpt lat="42.74113" lon="0.1738">
        <ele>2399</ele>
        <time>2019-02-27T11:00:46Z</time>
      </trkpt>
      <trkpt lat="42.74113" lon="0.1738">
        <ele>2399</ele>
        <time>2019-02-27T11:00:47Z</time>
      </trkpt>
      <trkpt lat="42.74113" lon="0.1738">
        <ele>2399</ele>
        <time>2019-02-27T11:00:48Z</time>
      </trkpt>
      <trkpt lat="42.74113" lon="0.1738">
        <ele>2399</ele>
        <time>2019-02-27T11:00:49Z</time>
      </trkpt>
      <trkpt lat="42.74113" lon="0.1738">
        <ele>2399</ele>
        <time>2019-02-27T11:00:50Z</time>
      </trkpt>
      <trkpt lat="42.74113" lon="0.1738">
        <ele>2399</ele>
        <time>2019-02-27T11:00:51Z</time>
      </trkpt>
      <trkpt lat="42.74113" lon="0.1738">
        <ele>2399</ele>
        <time>2019-02-27T11:00:52Z</time>
      </trkpt>
      <trkpt lat="42.74113" lon="0.1738">
        <ele>2399</ele>
        <time>2019-02-27T11:00:53Z</time>
      </trkpt>
      <trkpt lat="42.74113" lon="0.1738">
        <ele>2399</ele>
        <time>2019-02-27T11:00:54Z</time>
      </trkpt>
      <trkpt lat="42.74113" lon="0.1738">
        <ele>2399</ele>
        <time>2019-02-27T11:00:55Z</time>
      </trkpt>
      <trkpt lat="42.74113" lon="0.1738">
        <ele>2399</ele>
        <time>2019-02-27T11:00:56Z</time>
      </trkpt>
      <trkpt lat="42.74113" lon="0.1738">
        <ele>2399</ele>
        <time>2019-02-27T11:00:57Z</time>
      </trkpt>
      <trkpt lat="42.74113" lon="0.1738">
        <ele>2399</ele>
        <time>2019-02-27T11:00:58Z</time>
      </trkpt>
      <trkpt lat="42.74113" lon="0.1738">
        <ele>2399</ele>
        <time>2019-02-27T11:00:59Z</time>
      </trkpt>
      <trkpt lat="42.74113" lon="0.1738">
        <ele>2399</ele>
        <time>2019-02-27T11:01:00Z</time>
      </trkpt>
      <trkpt lat="42.74113" lon="0.1738">
        <ele>2399</ele>
        <time>2019-02-27T11:01:01Z</time>
      </trkpt>
      <trkpt lat="42.74113" lon="0.1738">
        <ele>2399</ele>
        <time>2019-02-27T11:01:02Z</time>
      </trkpt>
      <trkpt lat="42.74113" lon="0.1738">
        <ele>2399</ele>
        <time>2019-02-27T11:01:03Z</time>
      </trkpt>
      <trkpt lat="42.74113" lon="0.1738">
        <ele>2399</ele>
        <time>2019-02-27T11:01:04Z</time>
      </trkpt>
      <trkpt lat="42.74113" lon="0.1738">
        <ele>2399</ele>
        <time>2019-02-27T11:01:05Z</time>
      </trkpt>
      <trkpt lat="42.74113" lon="0.1738">
        <ele>2399</ele>
        <time>2019-02-27T11:01:06Z</time>
      </trkpt>
      <trkpt lat="42.74113" lon="0.1738">
        <ele>2399</ele>
        <time>2019-02-27T11:01:07Z</time>
      </trkpt>
      <trkpt lat="42.74113" lon="0.1738">
        <ele>2399</ele>
        <time>2019-02-27T11:01:08Z</time>
      </trkpt>
      <trkpt lat="42.74113" lon="0.1738">
        <ele>2399</ele>
        <time>2019-02-27T11:01:09Z</time>
      </trkpt>
      <trkpt lat="42.74113" lon="0.1738">
        <ele>2399</ele>
        <time>2019-02-27T11:01:10Z</time>
      </trkpt>
      <trkpt lat="42.74113" lon="0.1738">
        <ele>2399</ele>
        <time>2019-02-27T11:01:11Z</time>
      </trkpt>
      <trkpt lat="42.74113" lon="0.1738">
        <ele>2399</ele>
        <time>2019-02-27T11:01:12Z</time>
      </trkpt>
      <trkpt lat="42.74113" lon="0.1738">
        <ele>2399</ele>
        <time>2019-02-27T11:01:13Z</time>
      </trkpt>
      <trkpt lat="42.74113" lon="0.1738">
        <ele>2399</ele>
        <time>2019-02-27T11:01:14Z</time>
      </trkpt>
      <trkpt lat="42.74113" lon="0.1738">
        <ele>2399</ele>
        <time>2019-02-27T11:01:15Z</time>
      </trkpt>
      <trkpt lat="42.74113" lon="0.1738">
        <ele>2399</ele>
        <time>2019-02-27T11:01:16Z</time>
      </trkpt>
      <trkpt lat="42.74113" lon="0.1738">
        <ele>2399</ele>
        <time>2019-02-27T11:01:17Z</time>
      </trkpt>
      <trkpt lat="42.74113" lon="0.1738">
        <ele>2399</ele>
        <time>2019-02-27T11:01:18Z</time>
      </trkpt>
      <trkpt lat="42.74113" lon="0.1738">
        <ele>2399</ele>
        <time>2019-02-27T11:01:19Z</time>
      </trkpt>
      <trkpt lat="42.74113" lon="0.1738">
        <ele>2399</ele>
        <time>2019-02-27T11:01:20Z</time>
      </trkpt>
      <trkpt lat="42.74113" lon="0.1738">
        <ele>2399</ele>
        <time>2019-02-27T11:01:21Z</time>
      </trkpt>
      <trkpt lat="42.74113" lon="0.1738">
        <ele>2399</ele>
        <time>2019-02-27T11:01:22Z</time>
      </trkpt>
      <trkpt lat="42.74113" lon="0.1738">
        <ele>2399</ele>
        <time>2019-02-27T11:01:23Z</time>
      </trkpt>
      <trkpt lat="42.74113" lon="0.1738">
        <ele>2399</ele>
        <time>2019-02-27T11:01:24Z</time>
      </trkpt>
      <trkpt lat="42.74113" lon="0.1738">
        <ele>2399</ele>
        <time>2019-02-27T11:01:25Z</time>
      </trkpt>
      <trkpt lat="42.74113" lon="0.1738">
        <ele>2399</ele>
        <time>2019-02-27T11:01:26Z</time>
      </trkpt>
      <trkpt lat="42.74113" lon="0.1738">
        <ele>2399</ele>
        <time>2019-02-27T11:01:27Z</time>
      </trkpt>
      <trkpt lat="42.74113" lon="0.1738">
        <ele>2399</ele>
        <time>2019-02-27T11:01:28Z</time>
      </trkpt>
      <trkpt lat="42.74113" lon="0.1738">
        <ele>2399</ele>
        <time>2019-02-27T11:01:29Z</time>
      </trkpt>
      <trkpt lat="42.74113" lon="0.1738">
        <ele>2399</ele>
        <time>2019-02-27T11:01:30Z</time>
      </trkpt>
      <trkpt lat="42.74113" lon="0.1738">
        <ele>2399</ele>
        <time>2019-02-27T11:01:31Z</time>
      </trkpt>
      <trkpt lat="42.74113" lon="0.1738">
        <ele>2399</ele>
        <time>2019-02-27T11:01:32Z</time>
      </trkpt>
      <trkpt lat="42.74113" lon="0.1738">
        <ele>2399</ele>
        <time>2019-02-27T11:01:33Z</time>
      </trkpt>
      <trkpt lat="42.74113" lon="0.1738">
        <ele>2399</ele>
        <time>2019-02-27T11:01:34Z</time>
      </trkpt>
      <trkpt lat="42.74113" lon="0.1738">
        <ele>2399</ele>
        <time>2019-02-27T11:01:35Z</time>
      </trkpt>
      <trkpt lat="42.74113" lon="0.1738">
        <ele>2399</ele>
        <time>2019-02-27T11:01:36Z</time>
      </trkpt>
      <trkpt lat="42.74113" lon="0.1738">
        <ele>2399</ele>
        <time>2019-02-27T11:01:37Z</time>
      </trkpt>
      <trkpt lat="42.74113" lon="0.1738">
        <ele>2399</ele>
        <time>2019-02-27T11:01:38Z</time>
      </trkpt>
      <trkpt lat="42.74113" lon="0.1738">
        <ele>2399</ele>
        <time>2019-02-27T11:01:39Z</time>
      </trkpt>
      <trkpt lat="42.74113" lon="0.1738">
        <ele>2399</ele>
        <time>2019-02-27T11:01:40Z</time>
      </trkpt>
      <trkpt lat="42.74113" lon="0.1738">
        <ele>2399</ele>
        <time>2019-02-27T11:01:41Z</time>
      </trkpt>
      <trkpt lat="42.74113" lon="0.1738">
        <ele>2399</ele>
        <time>2019-02-27T11:01:42Z</time>
      </trkpt>
      <trkpt lat="42.74113" lon="0.1738">
        <ele>2399</ele>
        <time>2019-02-27T11:01:43Z</time>
      </trkpt>
      <trkpt lat="42.74113" lon="0.1738">
        <ele>2399</ele>
        <time>2019-02-27T11:01:44Z</time>
      </trkpt>
      <trkpt lat="42.74113" lon="0.1738">
        <ele>2399</ele>
        <time>2019-02-27T11:01:45Z</time>
      </trkpt>
      <trkpt lat="42.74113" lon="0.1738">
        <ele>2399</ele>
        <time>2019-02-27T11:01:46Z</time>
      </trkpt>
      <trkpt lat="42.74113" lon="0.1738">
        <ele>2399</ele>
        <time>2019-02-27T11:01:47Z</time>
      </trkpt>
      <trkpt lat="42.74113" lon="0.1738">
        <ele>2399</ele>
        <time>2019-02-27T11:01:48Z</time>
      </trkpt>
      <trkpt lat="42.74113" lon="0.1738">
        <ele>2399</ele>
        <time>2019-02-27T11:01:49Z</time>
      </trkpt>
      <trkpt lat="42.74113" lon="0.1738">
        <ele>2399</ele>
        <time>2019-02-27T11:01:50Z</time>
      </trkpt>
      <trkpt lat="42.74113" lon="0.1738">
        <ele>2399</ele>
        <time>2019-02-27T11:01:51Z</time>
      </trkpt>
      <trkpt lat="42.74113" lon="0.1738">
        <ele>2399</ele>
        <time>2019-02-27T11:01:52Z</time>
      </trkpt>
      <trkpt lat="42.74113" lon="0.1738">
        <ele>2399</ele>
        <time>2019-02-27T11:01:53Z</time>
      </trkpt>
      <trkpt lat="42.74113" lon="0.1738">
        <ele>2399</ele>
        <time>2019-02-27T11:01:54Z</time>
      </trkpt>
      <trkpt lat="42.74113" lon="0.1738">
        <ele>2399</ele>
        <time>2019-02-27T11:01:55Z</time>
      </trkpt>
      <trkpt lat="42.74113" lon="0.1738">
        <ele>2399</ele>
        <time>2019-02-27T11:01:56Z</time>
      </trkpt>
      <trkpt lat="42.74113" lon="0.1738">
        <ele>2399</ele>
        <time>2019-02-27T11:01:57Z</time>
      </trkpt>
      <trkpt lat="42.74113" lon="0.1738">
        <ele>2399</ele>
        <time>2019-02-27T11:01:58Z</time>
      </trkpt>
      <trkpt lat="42.74113" lon="0.1738">
        <ele>2399</ele>
        <time>2019-02-27T11:01:59Z</time>
      </trkpt>
      <trkpt lat="42.74113" lon="0.1738">
        <ele>2399</ele>
        <time>2019-02-27T11:02:00Z</time>
      </trkpt>
      <trkpt lat="42.74113" lon="0.1738">
        <ele>2399</ele>
        <time>2019-02-27T11:02:01Z</time>
      </trkpt>
      <trkpt lat="42.74113" lon="0.1738">
        <ele>2399</ele>
        <time>2019-02-27T11:02:02Z</time>
      </trkpt>
      <trkpt lat="42.74113" lon="0.1738">
        <ele>2399</ele>
        <time>2019-02-27T11:02:03Z</time>
      </trkpt>
      <trkpt lat="42.74113" lon="0.1738">
        <ele>2399</ele>
        <time>2019-02-27T11:02:04Z</time>
      </trkpt>
      <trkpt lat="42.74113" lon="0.1738">
        <ele>2399</ele>
        <time>2019-02-27T11:02:05Z</time>
      </trkpt>
      <trkpt lat="42.74113" lon="0.1738">
        <ele>2399</ele>
        <time>2019-02-27T11:02:06Z</time>
      </trkpt>
      <trkpt lat="42.74113" lon="0.1738">
        <ele>2399</ele>
        <time>2019-02-27T11:02:07Z</time>
      </trkpt>
      <trkpt lat="42.74113" lon="0.1738">
        <ele>2399</ele>
        <time>2019-02-27T11:02:08Z</time>
      </trkpt>
      <trkpt lat="42.74113" lon="0.1738">
        <ele>2399</ele>
        <time>2019-02-27T11:02:09Z</time>
      </trkpt>
      <trkpt lat="42.74113" lon="0.1738">
        <ele>2399</ele>
        <time>2019-02-27T11:02:10Z</time>
      </trkpt>
      <trkpt lat="42.74113" lon="0.1738">
        <ele>2399</ele>
        <time>2019-02-27T11:02:11Z</time>
      </trkpt>
      <trkpt lat="42.74113" lon="0.1738">
        <ele>2399</ele>
        <time>2019-02-27T11:02:12Z</time>
      </trkpt>
      <trkpt lat="42.74113" lon="0.1738">
        <ele>2399</ele>
        <time>2019-02-27T11:02:13Z</time>
      </trkpt>
      <trkpt lat="42.74113" lon="0.1738">
        <ele>2399</ele>
        <time>2019-02-27T11:02:14Z</time>
      </trkpt>
      <trkpt lat="42.74113" lon="0.1738">
        <ele>2399</ele>
        <time>2019-02-27T11:02:15Z</time>
      </trkpt>
      <trkpt lat="42.74113" lon="0.1738">
        <ele>2399</ele>
        <time>2019-02-27T11:02:16Z</time>
      </trkpt>
      <trkpt lat="42.74113" lon="0.1738">
        <ele>2399</ele>
        <time>2019-02-27T11:02:17Z</time>
      </trkpt>
      <trkpt lat="42.74113" lon="0.1738">
        <ele>2399</ele>
        <time>2019-02-27T11:02:18Z</time>
      </trkpt>
      <trkpt lat="42.74113" lon="0.1738">
        <ele>2399</ele>
        <time>2019-02-27T11:02:19Z</time>
      </trkpt>
      <trkpt lat="42.74113" lon="0.1738">
        <ele>2399</ele>
        <time>2019-02-27T11:02:20Z</time>
      </trkpt>
      <trkpt lat="42.74113" lon="0.1738">
        <ele>2399</ele>
        <time>2019-02-27T11:02:21Z</time>
      </trkpt>
      <trkpt lat="42.74113" lon="0.1738">
        <ele>2399</ele>
        <time>2019-02-27T11:02:22Z</time>
      </trkpt>
      <trkpt lat="42.74113" lon="0.1738">
        <ele>2399</ele>
        <time>2019-02-27T11:02:23Z</time>
      </trkpt>
      <trkpt lat="42.74113" lon="0.1738">
        <ele>2399</ele>
        <time>2019-02-27T11:02:24Z</time>
      </trkpt>
      <trkpt lat="42.74113" lon="0.1738">
        <ele>2399</ele>
        <time>2019-02-27T11:02:25Z</time>
      </trkpt>
      <trkpt lat="42.74113" lon="0.1738">
        <ele>2399</ele>
        <time>2019-02-27T11:02:26Z</time>
      </trkpt>
      <trkpt lat="42.74113" lon="0.1738">
        <ele>2399</ele>
        <time>2019-02-27T11:02:27Z</time>
      </trkpt>
      <trkpt lat="42.74113" lon="0.1738">
        <ele>2399</ele>
        <time>2019-02-27T11:02:28Z</time>
      </trkpt>
      <trkpt lat="42.74113" lon="0.1738">
        <ele>2399</ele>
        <time>2019-02-27T11:02:29Z</time>
      </trkpt>
      <trkpt lat="42.74113" lon="0.1738">
        <ele>2399</ele>
        <time>2019-02-27T11:02:30Z</time>
      </trkpt>
      <trkpt lat="42.74113" lon="0.1738">
        <ele>2399</ele>
        <time>2019-02-27T11:02:31Z</time>
      </trkpt>
      <trkpt lat="42.74113" lon="0.1738">
        <ele>2399</ele>
        <time>2019-02-27T11:02:32Z</time>
      </trkpt>
      <trkpt lat="42.74113" lon="0.1738">
        <ele>2399</ele>
        <time>2019-02-27T11:02:33Z</time>
      </trkpt>
      <trkpt lat="42.74113" lon="0.1738">
        <ele>2399</ele>
        <time>2019-02-27T11:02:34Z</time>
      </trkpt>
      <trkpt lat="42.74113" lon="0.1738">
        <ele>2399</ele>
        <time>2019-02-27T11:02:35Z</time>
      </trkpt>
      <trkpt lat="42.74113" lon="0.1738">
        <ele>2399</ele>
        <time>2019-02-27T11:02:36Z</time>
      </trkpt>
      <trkpt lat="42.74113" lon="0.1738">
        <ele>2399</ele>
        <time>2019-02-27T11:02:37Z</time>
      </trkpt>
      <trkpt lat="42.74113" lon="0.1738">
        <ele>2399</ele>
        <time>2019-02-27T11:02:38Z</time>
      </trkpt>
      <trkpt lat="42.74113" lon="0.1738">
        <ele>2399</ele>
        <time>2019-02-27T11:02:39Z</time>
      </trkpt>
      <trkpt lat="42.74113" lon="0.1738">
        <ele>2399</ele>
        <time>2019-02-27T11:02:40Z</time>
      </trkpt>
      <trkpt lat="42.74113" lon="0.1738">
        <ele>2399</ele>
        <time>2019-02-27T11:02:41Z</time>
      </trkpt>
      <trkpt lat="42.74113" lon="0.1738">
        <ele>2399</ele>
        <time>2019-02-27T11:02:42Z</time>
      </trkpt>
      <trkpt lat="42.74113" lon="0.1738">
        <ele>2399</ele>
        <time>2019-02-27T11:02:43Z</time>
      </trkpt>
      <trkpt lat="42.74113" lon="0.1738">
        <ele>2399</ele>
        <time>2019-02-27T11:02:44Z</time>
      </trkpt>
      <trkpt lat="42.74113" lon="0.1738">
        <ele>2399</ele>
        <time>2019-02-27T11:02:45Z</time>
      </trkpt>
      <trkpt lat="42.74113" lon="0.1738">
        <ele>2399</ele>
        <time>2019-02-27T11:02:46Z</time>
      </trkpt>
      <trkpt lat="42.74113" lon="0.1738">
        <ele>2399</ele>
        <time>2019-02-27T11:02:47Z</time>
      </trkpt>
      <trkpt lat="42.74113" lon="0.1738">
        <ele>2399</ele>
        <time>2019-02-27T11:02:48Z</time>
      </trkpt>
      <trkpt lat="42.74113" lon="0.1738">
        <ele>2399</ele>
        <time>2019-02-27T11:02:49Z</time>
      </trkpt>
      <trkpt lat="42.74113" lon="0.1738">
        <ele>2399</ele>
        <time>2019-02-27T11:02:50Z</time>
      </trkpt>
      <trkpt lat="42.74113" lon="0.1738">
        <ele>2399</ele>
        <time>2019-02-27T11:02:51Z</time>
      </trkpt>
      <trkpt lat="42.74113" lon="0.1738">
        <ele>2399</ele>
        <time>2019-02-27T11:02:52Z</time>
      </trkpt>
      <trkpt lat="42.74113" lon="0.1738">
        <ele>2399</ele>
        <time>2019-02-27T11:02:53Z</time>
      </trkpt>
      <trkpt lat="42.74113" lon="0.1738">
        <ele>2399</ele>
        <time>2019-02-27T11:02:54Z</time>
      </trkpt>
      <trkpt lat="42.74113" lon="0.1738">
        <ele>2399</ele>
        <time>2019-02-27T11:02:55Z</time>
      </trkpt>
      <trkpt lat="42.74113" lon="0.1738">
        <ele>2399</ele>
        <time>2019-02-27T11:02:56Z</time>
      </trkpt>
      <trkpt lat="42.74113" lon="0.1738">
        <ele>2399</ele>
        <time>2019-02-27T11:02:57Z</time>
      </trkpt>
      <trkpt lat="42.74113" lon="0.1738">
        <ele>2399</ele>
        <time>2019-02-27T11:02:58Z</time>
      </trkpt>
      <trkpt lat="42.74113" lon="0.1738">
        <ele>2399</ele>
        <time>2019-02-27T11:02:59Z</time>
      </trkpt>
      <trkpt lat="42.74113" lon="0.1738">
        <ele>2399</ele>
        <time>2019-02-27T11:03:00Z</time>
      </trkpt>
      <trkpt lat="42.74113" lon="0.1738">
        <ele>2399</ele>
        <time>2019-02-27T11:03:01Z</time>
      </trkpt>
      <trkpt lat="42.74113" lon="0.1738">
        <ele>2399</ele>
        <time>2019-02-27T11:03:02Z</time>
      </trkpt>
      <trkpt lat="42.74113" lon="0.1738">
        <ele>2399</ele>
        <time>2019-02-27T11:03:03Z</time>
      </trkpt>
      <trkpt lat="42.74113" lon="0.1738">
        <ele>2399</ele>
        <time>2019-02-27T11:03:04Z</time>
      </trkpt>
      <trkpt lat="42.74113" lon="0.1738">
        <ele>2399</ele>
        <time>2019-02-27T11:03:05Z</time>
      </trkpt>
      <trkpt lat="42.74113" lon="0.1738">
        <ele>2399</ele>
        <time>2019-02-27T11:03:06Z</time>
      </trkpt>
      <trkpt lat="42.74113" lon="0.1738">
        <ele>2399</ele>
        <time>2019-02-27T11:03:07Z</time>
      </trkpt>
      <trkpt lat="42.74113" lon="0.1738">
        <ele>2399</ele>
        <time>2019-02-27T11:03:08Z</time>
      </trkpt>
      <trkpt lat="42.74113" lon="0.1738">
        <ele>2399</ele>
        <time>2019-02-27T11:03:09Z</time>
      </trkpt>
      <trkpt lat="42.74113" lon="0.1738">
        <ele>2399</ele>
        <time>2019-02-27T11:03:10Z</time>
      </trkpt>
      <trkpt lat="42.74113" lon="0.1738">
        <ele>2399</ele>
        <time>2019-02-27T11:03:11Z</time>
      </trkpt>
      <trkpt lat="42.74113" lon="0.1738">
        <ele>2399</ele>
        <time>2019-02-27T11:03:12Z</time>
      </trkpt>
      <trkpt lat="42.74113" lon="0.1738">
        <ele>2399</ele>
        <time>2019-02-27T11:03:13Z</time>
      </trkpt>
      <trkpt lat="42.74113" lon="0.1738">
        <ele>2399</ele>
        <time>2019-02-27T11:03:14Z</time>
      </trkpt>
      <trkpt lat="42.74113" lon="0.1738">
        <ele>2399</ele>
        <time>2019-02-27T11:03:15Z</time>
      </trkpt>
      <trkpt lat="42.74113" lon="0.1738">
        <ele>2399</ele>
        <time>2019-02-27T11:03:16Z</time>
      </trkpt>
      <trkpt lat="42.74113" lon="0.1738">
        <ele>2399</ele>
        <time>2019-02-27T11:03:17Z</time>
      </trkpt>
      <trkpt lat="42.74113" lon="0.1738">
        <ele>2399</ele>
        <time>2019-02-27T11:03:18Z</time>
      </trkpt>
      <trkpt lat="42.74113" lon="0.1738">
        <ele>2399</ele>
        <time>2019-02-27T11:03:19Z</time>
      </trkpt>
      <trkpt lat="42.74113" lon="0.1738">
        <ele>2399</ele>
        <time>2019-02-27T11:03:20Z</time>
      </trkpt>
      <trkpt lat="42.74113" lon="0.1738">
        <ele>2399</ele>
        <time>2019-02-27T11:03:21Z</time>
      </trkpt>
      <trkpt lat="42.74113" lon="0.1738">
        <ele>2399</ele>
        <time>2019-02-27T11:03:22Z</time>
      </trkpt>
      <trkpt lat="42.74113" lon="0.1738">
        <ele>2399</ele>
        <time>2019-02-27T11:03:23Z</time>
      </trkpt>
      <trkpt lat="42.74113" lon="0.1738">
        <ele>2399</ele>
        <time>2019-02-27T11:03:24Z</time>
      </trkpt>
      <trkpt lat="42.74113" lon="0.1738">
        <ele>2399</ele>
        <time>2019-02-27T11:03:25Z</time>
      </trkpt>
      <trkpt lat="42.74113" lon="0.1738">
        <ele>2399</ele>
        <time>2019-02-27T11:03:26Z</time>
      </trkpt>
      <trkpt lat="42.74113" lon="0.1738">
        <ele>2399</ele>
        <time>2019-02-27T11:03:27Z</time>
      </trkpt>
      <trkpt lat="42.74113" lon="0.1738">
        <ele>2399</ele>
        <time>2019-02-27T11:03:28Z</time>
      </trkpt>
      <trkpt lat="42.74113" lon="0.1738">
        <ele>2399</ele>
        <time>2019-02-27T11:03:29Z</time>
      </trkpt>
      <trkpt lat="42.74113" lon="0.1738">
        <ele>2399</ele>
        <time>2019-02-27T11:03:30Z</time>
      </trkpt>
      <trkpt lat="42.74113" lon="0.1738">
        <ele>2399</ele>
        <time>2019-02-27T11:03:31Z</time>
      </trkpt>
      <trkpt lat="42.74113" lon="0.1738">
        <ele>2399</ele>
        <time>2019-02-27T11:03:32Z</time>
      </trkpt>
      <trkpt lat="42.74113" lon="0.1738">
        <ele>2399</ele>
        <time>2019-02-27T11:03:33Z</time>
      </trkpt>
      <trkpt lat="42.74113" lon="0.1738">
        <ele>2399</ele>
        <time>2019-02-27T11:03:34Z</time>
      </trkpt>
      <trkpt lat="42.74113" lon="0.1738">
        <ele>2399</ele>
        <time>2019-02-27T11:03:35Z</time>
      </trkpt>
      <trkpt lat="42.74113" lon="0.1738">
        <ele>2399</ele>
        <time>2019-02-27T11:03:36Z</time>
      </trkpt>
      <trkpt lat="42.74113" lon="0.1738">
        <ele>2399</ele>
        <time>2019-02-27T11:03:37Z</time>
      </trkpt>
      <trkpt lat="42.74113" lon="0.1738">
        <ele>2399</ele>
        <time>2019-02-27T11:03:38Z</time>
      </trkpt>
      <trkpt lat="42.74113" lon="0.1738">
        <ele>2399</ele>
        <time>2019-02-27T11:03:39Z</time>
      </trkpt>
      <trkpt lat="42.74113" lon="0.1738">
        <ele>2399</ele>
        <time>2019-02-27T11:03:40Z</time>
      </trkpt>
      <trkpt lat="42.74113" lon="0.1738">
        <ele>2399</ele>
        <time>2019-02-27T11:03:41Z</time>
      </trkpt>
      <trkpt lat="42.74113" lon="0.1738">
        <ele>2399</ele>
        <time>2019-02-27T11:03:42Z</time>
      </trkpt>
      <trkpt lat="42.74113" lon="0.1738">
        <ele>2399</ele>
        <time>2019-02-27T11:03:43Z</time>
      </trkpt>
      <trkpt lat="42.74113" lon="0.1738">
        <ele>2399</ele>
        <time>2019-02-27T11:03:44Z</time>
      </trkpt>
      <trkpt lat="42.74113" lon="0.1738">
        <ele>2399</ele>
        <time>2019-02-27T11:03:45Z</time>
      </trkpt>
      <trkpt lat="42.74113" lon="0.1738">
        <ele>2399</ele>
        <time>2019-02-27T11:03:46Z</time>
      </trkpt>
      <trkpt lat="42.74113" lon="0.1738">
        <ele>2399</ele>
        <time>2019-02-27T11:03:47Z</time>
      </trkpt>
      <trkpt lat="42.74113" lon="0.1738">
        <ele>2399</ele>
        <time>2019-02-27T11:03:48Z</time>
      </trkpt>
      <trkpt lat="42.74113" lon="0.1738">
        <ele>2399</ele>
        <time>2019-02-27T11:03:49Z</time>
      </trkpt>
      <trkpt lat="42.74113" lon="0.1738">
        <ele>2399</ele>
        <time>2019-02-27T11:03:50Z</time>
      </trkpt>
      <trkpt lat="42.74113" lon="0.1738">
        <ele>2399</ele>
        <time>2019-02-27T11:03:51Z</time>
      </trkpt>
      <trkpt lat="42.74113" lon="0.1738">
        <ele>2399</ele>
        <time>2019-02-27T11:03:52Z</time>
      </trkpt>
      <trkpt lat="42.74113" lon="0.1738">
        <ele>2399</ele>
        <time>2019-02-27T11:03:53Z</time>
      </trkpt>
      <trkpt lat="42.74113" lon="0.1738">
        <ele>2399</ele>
        <time>2019-02-27T11:03:54Z</time>
      </trkpt>
      <trkpt lat="42.74113" lon="0.1738">
        <ele>2399</ele>
        <time>2019-02-27T11:03:55Z</time>
      </trkpt>
      <trkpt lat="42.74113" lon="0.1738">
        <ele>2399</ele>
        <time>2019-02-27T11:03:56Z</time>
      </trkpt>
      <trkpt lat="42.74113" lon="0.1738">
        <ele>2399</ele>
        <time>2019-02-27T11:03:57Z</time>
      </trkpt>
      <trkpt lat="42.74113" lon="0.1738">
        <ele>2399</ele>
        <time>2019-02-27T11:03:58Z</time>
      </trkpt>
      <trkpt lat="42.74113" lon="0.1738">
        <ele>2399</ele>
        <time>2019-02-27T11:03:59Z</time>
      </trkpt>
      <trkpt lat="42.74113" lon="0.1738">
        <ele>2399</ele>
        <time>2019-02-27T11:04:00Z</time>
      </trkpt>
      <trkpt lat="42.74113" lon="0.1738">
        <ele>2399</ele>
        <time>2019-02-27T11:04:01Z</time>
      </trkpt>
      <trkpt lat="42.74113" lon="0.1738">
        <ele>2399</ele>
        <time>2019-02-27T11:04:02Z</time>
      </trkpt>
      <trkpt lat="42.74113" lon="0.1738">
        <ele>2399</ele>
        <time>2019-02-27T11:04:03Z</time>
      </trkpt>
      <trkpt lat="42.74113" lon="0.1738">
        <ele>2399</ele>
        <time>2019-02-27T11:04:04Z</time>
      </trkpt>
      <trkpt lat="42.74113" lon="0.1738">
        <ele>2399</ele>
        <time>2019-02-27T11:04:05Z</time>
      </trkpt>
      <trkpt lat="42.74113" lon="0.1738">
        <ele>2399</ele>
        <time>2019-02-27T11:04:06Z</time>
      </trkpt>
      <trkpt lat="42.74113" lon="0.1738">
        <ele>2399</ele>
        <time>2019-02-27T11:04:07Z</time>
      </trkpt>
      <trkpt lat="42.74113" lon="0.1738">
        <ele>2399</ele>
        <time>2019-02-27T11:04:08Z</time>
      </trkpt>
      <trkpt lat="42.74113" lon="0.1738">
        <ele>2399</ele>
        <time>2019-02-27T11:04:09Z</time>
      </trkpt>
      <trkpt lat="42.74113" lon="0.1738">
        <ele>2399</ele>
        <time>2019-02-27T11:04:10Z</time>
      </trkpt>
      <trkpt lat="42.74113" lon="0.1738">
        <ele>2399</ele>
        <time>2019-02-27T11:04:11Z</time>
      </trkpt>
      <trkpt lat="42.74113" lon="0.1738">
        <ele>2399</ele>
        <time>2019-02-27T11:04:12Z</time>
      </trkpt>
      <trkpt lat="42.74113" lon="0.1738">
        <ele>2399</ele>
        <time>2019-02-27T11:04:13Z</time>
      </trkpt>
      <trkpt lat="42.74113" lon="0.1738">
        <ele>2399</ele>
        <time>2019-02-27T11:04:14Z</time>
      </trkpt>
      <trkpt lat="42.74113" lon="0.1738">
        <ele>2399</ele>
        <time>2019-02-27T11:04:15Z</time>
      </trkpt>
      <trkpt lat="42.74113" lon="0.1738">
        <ele>2399</ele>
        <time>2019-02-27T11:04:16Z</time>
      </trkpt>
      <trkpt lat="42.74113" lon="0.1738">
        <ele>2399</ele>
        <time>2019-02-27T11:04:17Z</time>
      </trkpt>
      <trkpt lat="42.74113" lon="0.1738">
        <ele>2399</ele>
        <time>2019-02-27T11:04:18Z</time>
      </trkpt>
      <trkpt lat="42.74113" lon="0.1738">
        <ele>2399</ele>
        <time>2019-02-27T11:04:19Z</time>
      </trkpt>
      <trkpt lat="42.74113" lon="0.1738">
        <ele>2399</ele>
        <time>2019-02-27T11:04:20Z</time>
      </trkpt>
      <trkpt lat="42.74113" lon="0.1738">
        <ele>2399</ele>
        <time>2019-02-27T11:04:21Z</time>
      </trkpt>
      <trkpt lat="42.74113" lon="0.1738">
        <ele>2399</ele>
        <time>2019-02-27T11:04:22Z</time>
      </trkpt>
      <trkpt lat="42.74113" lon="0.1738">
        <ele>2399</ele>
        <time>2019-02-27T11:04:23Z</time>
      </trkpt>
      <trkpt lat="42.74113" lon="0.1738">
        <ele>2399</ele>
        <time>2019-02-27T11:04:24Z</time>
      </trkpt>
      <trkpt lat="42.74113" lon="0.1738">
        <ele>2399</ele>
        <time>2019-02-27T11:04:25Z</time>
      </trkpt>
      <trkpt lat="42.74113" lon="0.1738">
        <ele>2399</ele>
        <time>2019-02-27T11:04:26Z</time>
      </trkpt>
      <trkpt lat="42.74113" lon="0.1738">
        <ele>2399</ele>
        <time>2019-02-27T11:04:27Z</time>
      </trkpt>
      <trkpt lat="42.74113" lon="0.1738">
        <ele>2399</ele>
        <time>2019-02-27T11:04:28Z</time>
      </trkpt>
      <trkpt lat="42.74113" lon="0.1738">
        <ele>2399</ele>
        <time>2019-02-27T11:04:29Z</time>
      </trkpt>
      <trkpt lat="42.74113" lon="0.1738">
        <ele>2399</ele>
        <time>2019-02-27T11:04:30Z</time>
      </trkpt>
      <trkpt lat="42.74113" lon="0.1738">
        <ele>2399</ele>
        <time>2019-02-27T11:04:31Z</time>
      </trkpt>
      <trkpt lat="42.74113" lon="0.1738">
        <ele>2399</ele>
        <time>2019-02-27T11:04:32Z</time>
      </trkpt>
      <trkpt lat="42.74113" lon="0.1738">
        <ele>2399</ele>
        <time>2019-02-27T11:04:33Z</time>
      </trkpt>
      <trkpt lat="42.74113" lon="0.1738">
        <ele>2399</ele>
        <time>2019-02-27T11:04:34Z</time>
      </trkpt>
      <trkpt lat="42.74113" lon="0.1738">
        <ele>2399</ele>
        <time>2019-02-27T11:04:35Z</time>
      </trkpt>
      <trkpt lat="42.74113" lon="0.1738">
        <ele>2399</ele>
        <time>2019-02-27T11:04:36Z</time>
      </trkpt>
      <trkpt lat="42.74113" lon="0.1738">
        <ele>2399</ele>
        <time>2019-02-27T11:04:37Z</time>
      </trkpt>
      <trkpt lat="42.74113" lon="0.1738">
        <ele>2399</ele>
        <time>2019-02-27T11:04:38Z</time>
      </trkpt>
      <trkpt lat="42.74113" lon="0.1738">
        <ele>2399</ele>
        <time>2019-02-27T11:04:39Z</time>
      </trkpt>
      <trkpt lat="42.74113" lon="0.1738">
        <ele>2399</ele>
        <time>2019-02-27T11:04:40Z</time>
      </trkpt>
      <trkpt lat="42.74113" lon="0.1738">
        <ele>2399</ele>
        <time>2019-02-27T11:04:41Z</time>
      </trkpt>
      <trkpt lat="42.74113" lon="0.1738">
        <ele>2399</ele>
        <time>2019-02-27T11:04:42Z</time>
      </trkpt>
      <trkpt lat="42.74113" lon="0.1738">
        <ele>2399</ele>
        <time>2019-02-27T11:04:43Z</time>
      </trkpt>
      <trkpt lat="42.74113" lon="0.1738">
        <ele>2399</ele>
        <time>2019-02-27T11:04:44Z</time>
      </trkpt>
      <trkpt lat="42.74113" lon="0.1738">
        <ele>2399</ele>
        <time>2019-02-27T11:04:45Z</time>
      </trkpt>
      <trkpt lat="42.74113" lon="0.1738">
        <ele>2399</ele>
        <time>2019-02-27T11:04:46Z</time>
      </trkpt>
      <trkpt lat="42.74113" lon="0.1738">
        <ele>2399</ele>
        <time>2019-02-27T11:04:47Z</time>
      </trkpt>
      <trkpt lat="42.74113" lon="0.1738">
        <ele>2399</ele>
        <time>2019-02-27T11:04:48Z</time>
      </trkpt>
      <trkpt lat="42.74113" lon="0.1738">
        <ele>2399</ele>
        <time>2019-02-27T11:04:49Z</time>
      </trkpt>
      <trkpt lat="42.74113" lon="0.1738">
        <ele>2399</ele>
        <time>2019-02-27T11:04:50Z</time>
      </trkpt>
      <trkpt lat="42.74113" lon="0.1738">
        <ele>2399</ele>
        <time>2019-02-27T11:04:51Z</time>
      </trkpt>
      <trkpt lat="42.74113" lon="0.1738">
        <ele>2399</ele>
        <time>2019-02-27T11:04:52Z</time>
      </trkpt>
      <trkpt lat="42.74113" lon="0.1738">
        <ele>2399</ele>
        <time>2019-02-27T11:04:53Z</time>
      </trkpt>
      <trkpt lat="42.74113" lon="0.1738">
        <ele>2399</ele>
        <time>2019-02-27T11:04:54Z</time>
      </trkpt>
      <trkpt lat="42.74113" lon="0.1738">
        <ele>2399</ele>
        <time>2019-02-27T11:04:55Z</time>
      </trkpt>
      <trkpt lat="42.74113" lon="0.1738">
        <ele>2399</ele>
        <time>2019-02-27T11:04:56Z</time>
      </trkpt>
      <trkpt lat="42.74113" lon="0.1738">
        <ele>2399</ele>
        <time>2019-02-27T11:04:57Z</time>
      </trkpt>
      <trkpt lat="42.74113" lon="0.1738">
        <ele>2399</ele>
        <time>2019-02-27T11:04:58Z</time>
      </trkpt>
      <trkpt lat="42.74113" lon="0.1738">
        <ele>2399</ele>
        <time>2019-02-27T11:04:59Z</time>
      </trkpt>
      <trkpt lat="42.74113" lon="0.1738">
        <ele>2399</ele>
        <time>2019-02-27T11:05:00Z</time>
      </trkpt>
      <trkpt lat="42.74113" lon="0.1738">
        <ele>2399</ele>
        <time>2019-02-27T11:05:01Z</time>
      </trkpt>
      <trkpt lat="42.74113" lon="0.1738">
        <ele>2399</ele>
        <time>2019-02-27T11:05:02Z</time>
      </trkpt>
      <trkpt lat="42.74113" lon="0.1738">
        <ele>2399</ele>
        <time>2019-02-27T11:05:03Z</time>
      </trkpt>
      <trkpt lat="42.74113" lon="0.1738">
        <ele>2399</ele>
        <time>2019-02-27T11:05:04Z</time>
      </trkpt>
      <trkpt lat="42.74113" lon="0.1738">
        <ele>2399</ele>
        <time>2019-02-27T11:05:05Z</time>
      </trkpt>
      <trkpt lat="42.74113" lon="0.1738">
        <ele>2399</ele>
        <time>2019-02-27T11:05:06Z</time>
      </trkpt>
      <trkpt lat="42.74113" lon="0.1738">
        <ele>2399</ele>
        <time>2019-02-27T11:05:07Z</time>
      </trkpt>
      <trkpt lat="42.74113" lon="0.1738">
        <ele>2399</ele>
        <time>2019-02-27T11:05:08Z</time>
      </trkpt>
      <trkpt lat="42.74113" lon="0.1738">
        <ele>2399</ele>
        <time>2019-02-27T11:05:09Z</time>
      </trkpt>
      <trkpt lat="42.74113" lon="0.1738">
        <ele>2399</ele>
        <time>2019-02-27T11:05:10Z</time>
      </trkpt>
      <trkpt lat="42.74113" lon="0.1738">
        <ele>2399</ele>
        <time>2019-02-27T11:05:11Z</time>
      </trkpt>
      <trkpt lat="42.74113" lon="0.1738">
        <ele>2399</ele>
        <time>2019-02-27T11:05:12Z</time>
      </trkpt>
      <trkpt lat="42.74113" lon="0.1738">
        <ele>2399</ele>
        <time>2019-02-27T11:05:13Z</time>
      </trkpt>
      <trkpt lat="42.74113" lon="0.1738">
        <ele>2399</ele>
        <time>2019-02-27T11:05:14Z</time>
      </trkpt>
      <trkpt lat="42.74113" lon="0.1738">
        <ele>2399</ele>
        <time>2019-02-27T11:05:15Z</time>
      </trkpt>
      <trkpt lat="42.74113" lon="0.1738">
        <ele>2399</ele>
        <time>2019-02-27T11:05:16Z</time>
      </trkpt>
      <trkpt lat="42.74113" lon="0.1738">
        <ele>2399</ele>
        <time>2019-02-27T11:05:17Z</time>
      </trkpt>
      <trkpt lat="42.74113" lon="0.1738">
        <ele>2399</ele>
        <time>2019-02-27T11:05:18Z</time>
      </trkpt>
      <trkpt lat="42.74113" lon="0.1738">
        <ele>2399</ele>
        <time>2019-02-27T11:05:19Z</time>
      </trkpt>
      <trkpt lat="42.74113" lon="0.1738">
        <ele>2399</ele>
        <time>2019-02-27T11:05:20Z</time>
      </trkpt>
      <trkpt lat="42.74113" lon="0.1738">
        <ele>2399</ele>
        <time>2019-02-27T11:05:21Z</time>
      </trkpt>
      <trkpt lat="42.74113" lon="0.1738">
        <ele>2399</ele>
        <time>2019-02-27T11:05:22Z</time>
      </trkpt>
      <trkpt lat="42.74113" lon="0.1738">
        <ele>2399</ele>
        <time>2019-02-27T11:05:23Z</time>
      </trkpt>
      <trkpt lat="42.74113" lon="0.1738">
        <ele>2399</ele>
        <time>2019-02-27T11:05:24Z</time>
      </trkpt>
      <trkpt lat="42.74113" lon="0.1738">
        <ele>2399</ele>
        <time>2019-02-27T11:05:25Z</time>
      </trkpt>
      <trkpt lat="42.74113" lon="0.1738">
        <ele>2399</ele>
        <time>2019-02-27T11:05:26Z</time>
      </trkpt>
      <trkpt lat="42.74113" lon="0.1738">
        <ele>2399</ele>
        <time>2019-02-27T11:05:27Z</time>
      </trkpt>
      <trkpt lat="42.74113" lon="0.1738">
        <ele>2399</ele>
        <time>2019-02-27T11:05:28Z</time>
      </trkpt>
      <trkpt lat="42.74113" lon="0.1738">
        <ele>2399</ele>
        <time>2019-02-27T11:05:29Z</time>
      </trkpt>
      <trkpt lat="42.74113" lon="0.1738">
        <ele>2399</ele>
        <time>2019-02-27T11:05:30Z</time>
      </trkpt>
      <trkpt lat="42.74113" lon="0.1738">
        <ele>2399</ele>
        <time>2019-02-27T11:05:31Z</time>
      </trkpt>
      <trkpt lat="42.74113" lon="0.1738">
        <ele>2399</ele>
        <time>2019-02-27T11:05:32Z</time>
      </trkpt>
      <trkpt lat="42.74113" lon="0.1738">
        <ele>2399</ele>
        <time>2019-02-27T11:05:33Z</time>
      </trkpt>
      <trkpt lat="42.74113" lon="0.1738">
        <ele>2399</ele>
        <time>2019-02-27T11:05:34Z</time>
      </trkpt>
      <trkpt lat="42.74113" lon="0.1738">
        <ele>2399</ele>
        <time>2019-02-27T11:05:35Z</time>
      </trkpt>
      <trkpt lat="42.74113" lon="0.1738">
        <ele>2399</ele>
        <time>2019-02-27T11:05:36Z</time>
      </trkpt>
      <trkpt lat="42.74113" lon="0.1738">
        <ele>2399</ele>
        <time>2019-02-27T11:05:37Z</time>
      </trkpt>
      <trkpt lat="42.74113" lon="0.1738">
        <ele>2399</ele>
        <time>2019-02-27T11:05:38Z</time>
      </trkpt>
      <trkpt lat="42.74113" lon="0.1738">
        <ele>2399</ele>
        <time>2019-02-27T11:05:39Z</time>
      </trkpt>
      <trkpt lat="42.74113" lon="0.1738">
        <ele>2399</ele>
        <time>2019-02-27T11:05:40Z</time>
      </trkpt>
      <trkpt lat="42.74113" lon="0.1738">
        <ele>2399</ele>
        <time>2019-02-27T11:05:41Z</time>
      </trkpt>
      <trkpt lat="42.74113" lon="0.1738">
        <ele>2399</ele>
        <time>2019-02-27T11:05:42Z</time>
      </trkpt>
      <trkpt lat="42.74113" lon="0.1738">
        <ele>2399</ele>
        <time>2019-02-27T11:05:43Z</time>
      </trkpt>
      <trkpt lat="42.74113" lon="0.1738">
        <ele>2399</ele>
        <time>2019-02-27T11:05:44Z</time>
      </trkpt>
      <trkpt lat="42.74113" lon="0.1738">
        <ele>2399</ele>
        <time>2019-02-27T11:05:45Z</time>
      </trkpt>
      <trkpt lat="42.74113" lon="0.1738">
        <ele>2399</ele>
        <time>2019-02-27T11:05:46Z</time>
      </trkpt>
      <trkpt lat="42.74113" lon="0.1738">
        <ele>2399</ele>
        <time>2019-02-27T11:05:47Z</time>
      </trkpt>
      <trkpt lat="42.74113" lon="0.1738">
        <ele>2399</ele>
        <time>2019-02-27T11:05:48Z</time>
      </trkpt>
      <trkpt lat="42.74113" lon="0.1738">
        <ele>2399</ele>
        <time>2019-02-27T11:05:49Z</time>
      </trkpt>
      <trkpt lat="42.74113" lon="0.1738">
        <ele>2399</ele>
        <time>2019-02-27T11:05:50Z</time>
      </trkpt>
      <trkpt lat="42.74113" lon="0.1738">
        <ele>2399</ele>
        <time>2019-02-27T11:05:51Z</time>
      </trkpt>
      <trkpt lat="42.74113" lon="0.1738">
        <ele>2399</ele>
        <time>2019-02-27T11:05:52Z</time>
      </trkpt>
      <trkpt lat="42.74113" lon="0.1738">
        <ele>2399</ele>
        <time>2019-02-27T11:05:53Z</time>
      </trkpt>
      <trkpt lat="42.74113" lon="0.1738">
        <ele>2399</ele>
        <time>2019-02-27T11:05:54Z</time>
      </trkpt>
      <trkpt lat="42.74113" lon="0.1738">
        <ele>2399</ele>
        <time>2019-02-27T11:05:55Z</time>
      </trkpt>
      <trkpt lat="42.74113" lon="0.1738">
        <ele>2399</ele>
        <time>2019-02-27T11:05:56Z</time>
      </trkpt>
      <trkpt lat="42.74113" lon="0.1738">
        <ele>2399</ele>
        <time>2019-02-27T11:05:57Z</time>
      </trkpt>
      <trkpt lat="42.74113" lon="0.1738">
        <ele>2399</ele>
        <time>2019-02-27T11:05:58Z</time>
      </trkpt>
      <trkpt lat="42.74113" lon="0.1738">
        <ele>2399</ele>
        <time>2019-02-27T11:05:59Z</time>
      </trkpt>
      <trkpt lat="42.74113" lon="0.1738">
        <ele>2399</ele>
        <time>2019-02-27T11:06:00Z</time>
      </trkpt>
      <trkpt lat="42.74113" lon="0.1738">
        <ele>2399</ele>
        <time>2019-02-27T11:06:01Z</time>
      </trkpt>
      <trkpt lat="42.74113" lon="0.1738">
        <ele>2399</ele>
        <time>2019-02-27T11:06:02Z</time>
      </trkpt>
      <trkpt lat="42.74113" lon="0.1738">
        <ele>2399</ele>
        <time>2019-02-27T11:06:03Z</time>
      </trkpt>
      <trkpt lat="42.74113" lon="0.1738">
        <ele>2399</ele>
        <time>2019-02-27T11:06:04Z</time>
      </trkpt>
      <trkpt lat="42.74113" lon="0.1738">
        <ele>2399</ele>
        <time>2019-02-27T11:06:05Z</time>
      </trkpt>
      <trkpt lat="42.74113" lon="0.1738">
        <ele>2399</ele>
        <time>2019-02-27T11:06:06Z</time>
      </trkpt>
      <trkpt lat="42.74113" lon="0.1738">
        <ele>2399</ele>
        <time>2019-02-27T11:06:07Z</time>
      </trkpt>
      <trkpt lat="42.74113" lon="0.1738">
        <ele>2399</ele>
        <time>2019-02-27T11:06:08Z</time>
      </trkpt>
      <trkpt lat="42.74113" lon="0.1738">
        <ele>2399</ele>
        <time>2019-02-27T11:06:09Z</time>
      </trkpt>
      <trkpt lat="42.74113" lon="0.1738">
        <ele>2399</ele>
        <time>2019-02-27T11:06:10Z</time>
      </trkpt>
      <trkpt lat="42.74113" lon="0.1738">
        <ele>2399</ele>
        <time>2019-02-27T11:06:11Z</time>
      </trkpt>
      <trkpt lat="42.74113" lon="0.1738">
        <ele>2399</ele>
        <time>2019-02-27T11:06:12Z</time>
      </trkpt>
      <trkpt lat="42.74113" lon="0.1738">
        <ele>2399</ele>
        <time>2019-02-27T11:06:13Z</time>
      </trkpt>
      <trkpt lat="42.74113" lon="0.1738">
        <ele>2399</ele>
        <time>2019-02-27T11:06:14Z</time>
      </trkpt>
      <trkpt lat="42.74113" lon="0.1738">
        <ele>2399</ele>
        <time>2019-02-27T11:06:15Z</time>
      </trkpt>
      <trkpt lat="42.74113" lon="0.1738">
        <ele>2399</ele>
        <time>2019-02-27T11:06:16Z</time>
      </trkpt>
      <trkpt lat="42.74113" lon="0.1738">
        <ele>2399</ele>
        <time>2019-02-27T11:06:17Z</time>
      </trkpt>
      <trkpt lat="42.74113" lon="0.1738">
        <ele>2399</ele>
        <time>2019-02-27T11:06:18Z</time>
      </trkpt>
      <trkpt lat="42.74113" lon="0.1738">
        <ele>2399</ele>
        <time>2019-02-27T11:06:19Z</time>
      </trkpt>
      <trkpt lat="42.74113" lon="0.1738">
        <ele>2399</ele>
        <time>2019-02-27T11:06:20Z</time>
      </trkpt>
      <trkpt lat="42.74113" lon="0.1738">
        <ele>2399</ele>
        <time>2019-02-27T11:06:21Z</time>
      </trkpt>
      <trkpt lat="42.74113" lon="0.1738">
        <ele>2399</ele>
        <time>2019-02-27T11:06:22Z</time>
      </trkpt>
      <trkpt lat="42.74113" lon="0.1738">
        <ele>2399</ele>
        <time>2019-02-27T11:06:23Z</time>
      </trkpt>
      <trkpt lat="42.74113" lon="0.1738">
        <ele>2399</ele>
        <time>2019-02-27T11:06:24Z</time>
      </trkpt>
      <trkpt lat="42.74113" lon="0.1738">
        <ele>2399</ele>
        <time>2019-02-27T11:06:25Z</time>
      </trkpt>
      <trkpt lat="42.74113" lon="0.1738">
        <ele>2399</ele>
        <time>2019-02-27T11:06:26Z</time>
      </trkpt>
      <trkpt lat="42.74113" lon="0.1738">
        <ele>2399</ele>
        <time>2019-02-27T11:06:27Z</time>
      </trkpt>
      <trkpt lat="42.74113" lon="0.1738">
        <ele>2399</ele>
        <time>2019-02-27T11:06:28Z</time>
      </trkpt>
      <trkpt lat="42.74113" lon="0.1738">
        <ele>2399</ele>
        <time>2019-02-27T11:06:29Z</time>
      </trkpt>
      <trkpt lat="42.74113" lon="0.1738">
        <ele>2399</ele>
        <time>2019-02-27T11:06:30Z</time>
      </trkpt>
      <trkpt lat="42.74113" lon="0.1738">
        <ele>2399</ele>
        <time>2019-02-27T11:06:31Z</time>
      </trkpt>
      <trkpt lat="42.74113" lon="0.1738">
        <ele>2399</ele>
        <time>2019-02-27T11:06:32Z</time>
      </trkpt>
      <trkpt lat="42.74113" lon="0.1738">
        <ele>2399</ele>
        <time>2019-02-27T11:06:33Z</time>
      </trkpt>
      <trkpt lat="42.74113" lon="0.1738">
        <ele>2399</ele>
        <time>2019-02-27T11:06:34Z</time>
      </trkpt>
      <trkpt lat="42.74113" lon="0.1738">
        <ele>2399</ele>
        <time>2019-02-27T11:06:35Z</time>
      </trkpt>
      <trkpt lat="42.74113" lon="0.1738">
        <ele>2399</ele>
        <time>2019-02-27T11:06:36Z</time>
      </trkpt>
      <trkpt lat="42.74113" lon="0.1738">
        <ele>2399</ele>
        <time>2019-02-27T11:06:37Z</time>
      </trkpt>
      <trkpt lat="42.74113" lon="0.1738">
        <ele>2399</ele>
        <time>2019-02-27T11:06:38Z</time>
      </trkpt>
      <trkpt lat="42.74113" lon="0.1738">
        <ele>2399</ele>
        <time>2019-02-27T11:06:39Z</time>
      </trkpt>
      <trkpt lat="42.74113" lon="0.1738">
        <ele>2399</ele>
        <time>2019-02-27T11:06:40Z</time>
      </trkpt>
      <trkpt lat="42.74113" lon="0.1738">
        <ele>2399</ele>
        <time>2019-02-27T11:06:41Z</time>
      </trkpt>
      <trkpt lat="42.74113" lon="0.1738">
        <ele>2399</ele>
        <time>2019-02-27T11:06:42Z</time>
      </trkpt>
      <trkpt lat="42.74113" lon="0.1738">
        <ele>2399</ele>
        <time>2019-02-27T11:06:43Z</time>
      </trkpt>
      <trkpt lat="42.74113" lon="0.1738">
        <ele>2399</ele>
        <time>2019-02-27T11:06:44Z</time>
      </trkpt>
      <trkpt lat="42.74113" lon="0.1738">
        <ele>2399</ele>
        <time>2019-02-27T11:06:45Z</time>
      </trkpt>
      <trkpt lat="42.74113" lon="0.1738">
        <ele>2399</ele>
        <time>2019-02-27T11:06:46Z</time>
      </trkpt>
      <trkpt lat="42.74113" lon="0.1738">
        <ele>2399</ele>
        <time>2019-02-27T11:06:47Z</time>
      </trkpt>
      <trkpt lat="42.74113" lon="0.1738">
        <ele>2399</ele>
        <time>2019-02-27T11:06:48Z</time>
      </trkpt>
      <trkpt lat="42.74113" lon="0.1738">
        <ele>2399</ele>
        <time>2019-02-27T11:06:49Z</time>
      </trkpt>
      <trkpt lat="42.74113" lon="0.1738">
        <ele>2399</ele>
        <time>2019-02-27T11:06:50Z</time>
      </trkpt>
      <trkpt lat="42.74113" lon="0.1738">
        <ele>2399</ele>
        <time>2019-02-27T11:06:51Z</time>
      </trkpt>
      <trkpt lat="42.74113" lon="0.1738">
        <ele>2399</ele>
        <time>2019-02-27T11:06:52Z</time>
      </trkpt>
      <trkpt lat="42.74113" lon="0.1738">
        <ele>2399</ele>
        <time>2019-02-27T11:06:53Z</time>
      </trkpt>
      <trkpt lat="42.74113" lon="0.1738">
        <ele>2399</ele>
        <time>2019-02-27T11:06:54Z</time>
      </trkpt>
      <trkpt lat="42.74113" lon="0.1738">
        <ele>2399</ele>
        <time>2019-02-27T11:06:55Z</time>
      </trkpt>
      <trkpt lat="42.74113" lon="0.1738">
        <ele>2399</ele>
        <time>2019-02-27T11:06:56Z</time>
      </trkpt>
      <trkpt lat="42.74113" lon="0.1738">
        <ele>2399</ele>
        <time>2019-02-27T11:06:57Z</time>
      </trkpt>
      <trkpt lat="42.74113" lon="0.1738">
        <ele>2399</ele>
        <time>2019-02-27T11:06:58Z</time>
      </trkpt>
      <trkpt lat="42.74113" lon="0.1738">
        <ele>2399</ele>
        <time>2019-02-27T11:06:59Z</time>
      </trkpt>
      <trkpt lat="42.74113" lon="0.1738">
        <ele>2399</ele>
        <time>2019-02-27T11:07:00Z</time>
      </trkpt>
      <trkpt lat="42.74113" lon="0.1738">
        <ele>2399</ele>
        <time>2019-02-27T11:07:01Z</time>
      </trkpt>
      <trkpt lat="42.74113" lon="0.1738">
        <ele>2399</ele>
        <time>2019-02-27T11:07:02Z</time>
      </trkpt>
      <trkpt lat="42.74113" lon="0.1738">
        <ele>2399</ele>
        <time>2019-02-27T11:07:03Z</time>
      </trkpt>
      <trkpt lat="42.74113" lon="0.1738">
        <ele>2399</ele>
        <time>2019-02-27T11:07:04Z</time>
      </trkpt>
      <trkpt lat="42.74113" lon="0.1738">
        <ele>2399</ele>
        <time>2019-02-27T11:07:05Z</time>
      </trkpt>
      <trkpt lat="42.74113" lon="0.1738">
        <ele>2399</ele>
        <time>2019-02-27T11:07:06Z</time>
      </trkpt>
      <trkpt lat="42.74113" lon="0.1738">
        <ele>2399</ele>
        <time>2019-02-27T11:07:07Z</time>
      </trkpt>
      <trkpt lat="42.74113" lon="0.1738">
        <ele>2399</ele>
        <time>2019-02-27T11:07:08Z</time>
      </trkpt>
      <trkpt lat="42.74113" lon="0.1738">
        <ele>2399</ele>
        <time>2019-02-27T11:07:09Z</time>
      </trkpt>
      <trkpt lat="42.74113" lon="0.1738">
        <ele>2399</ele>
        <time>2019-02-27T11:07:10Z</time>
      </trkpt>
      <trkpt lat="42.74113" lon="0.1738">
        <ele>2399</ele>
        <time>2019-02-27T11:07:11Z</time>
      </trkpt>
      <trkpt lat="42.74113" lon="0.1738">
        <ele>2399</ele>
        <time>2019-02-27T11:07:12Z</time>
      </trkpt>
      <trkpt lat="42.74113" lon="0.1738">
        <ele>2399</ele>
        <time>2019-02-27T11:07:13Z</time>
      </trkpt>
      <trkpt lat="42.74113" lon="0.1738">
        <ele>2399</ele>
        <time>2019-02-27T11:07:14Z</time>
      </trkpt>
      <trkpt lat="42.74113" lon="0.1738">
        <ele>2399</ele>
        <time>2019-02-27T11:07:15Z</time>
      </trkpt>
      <trkpt lat="42.74113" lon="0.1738">
        <ele>2399</ele>
        <time>2019-02-27T11:07:16Z</time>
      </trkpt>
      <trkpt lat="42.74113" lon="0.1738">
        <ele>2399</ele>
        <time>2019-02-27T11:07:17Z</time>
      </trkpt>
      <trkpt lat="42.74113" lon="0.1738">
        <ele>2399</ele>
        <time>2019-02-27T11:07:18Z</time>
      </trkpt>
      <trkpt lat="42.74113" lon="0.1738">
        <ele>2399</ele>
        <time>2019-02-27T11:07:19Z</time>
      </trkpt>
      <trkpt lat="42.74113" lon="0.1738">
        <ele>2399</ele>
        <time>2019-02-27T11:07:20Z</time>
      </trkpt>
      <trkpt lat="42.74113" lon="0.1738">
        <ele>2399</ele>
        <time>2019-02-27T11:07:21Z</time>
      </trkpt>
      <trkpt lat="42.74113" lon="0.1738">
        <ele>2399</ele>
        <time>2019-02-27T11:07:22Z</time>
      </trkpt>
      <trkpt lat="42.74113" lon="0.1738">
        <ele>2399</ele>
        <time>2019-02-27T11:07:23Z</time>
      </trkpt>
      <trkpt lat="42.74113" lon="0.1738">
        <ele>2399</ele>
        <time>2019-02-27T11:07:24Z</time>
      </trkpt>
      <trkpt lat="42.74113" lon="0.1738">
        <ele>2399</ele>
        <time>2019-02-27T11:07:25Z</time>
      </trkpt>
      <trkpt lat="42.74113" lon="0.1738">
        <ele>2399</ele>
        <time>2019-02-27T11:07:26Z</time>
      </trkpt>
      <trkpt lat="42.74113" lon="0.1738">
        <ele>2399</ele>
        <time>2019-02-27T11:07:27Z</time>
      </trkpt>
      <trkpt lat="42.74113" lon="0.1738">
        <ele>2399</ele>
        <time>2019-02-27T11:07:28Z</time>
      </trkpt>
      <trkpt lat="42.74113" lon="0.1738">
        <ele>2399</ele>
        <time>2019-02-27T11:07:29Z</time>
      </trkpt>
      <trkpt lat="42.74113" lon="0.1738">
        <ele>2399</ele>
        <time>2019-02-27T11:07:30Z</time>
      </trkpt>
      <trkpt lat="42.74113" lon="0.1738">
        <ele>2399</ele>
        <time>2019-02-27T11:07:31Z</time>
      </trkpt>
      <trkpt lat="42.74113" lon="0.1738">
        <ele>2399</ele>
        <time>2019-02-27T11:07:32Z</time>
      </trkpt>
      <trkpt lat="42.74113" lon="0.1738">
        <ele>2399</ele>
        <time>2019-02-27T11:07:33Z</time>
      </trkpt>
      <trkpt lat="42.74113" lon="0.1738">
        <ele>2399</ele>
        <time>2019-02-27T11:07:34Z</time>
      </trkpt>
      <trkpt lat="42.74113" lon="0.1738">
        <ele>2399</ele>
        <time>2019-02-27T11:07:35Z</time>
      </trkpt>
      <trkpt lat="42.74113" lon="0.1738">
        <ele>2399</ele>
        <time>2019-02-27T11:07:36Z</time>
      </trkpt>
      <trkpt lat="42.74113" lon="0.1738">
        <ele>2399</ele>
        <time>2019-02-27T11:07:37Z</time>
      </trkpt>
      <trkpt lat="42.74113" lon="0.1738">
        <ele>2399</ele>
        <time>2019-02-27T11:07:38Z</time>
      </trkpt>
      <trkpt lat="42.74113" lon="0.1738">
        <ele>2399</ele>
        <time>2019-02-27T11:07:39Z</time>
      </trkpt>
      <trkpt lat="42.74113" lon="0.1738">
        <ele>2399</ele>
        <time>2019-02-27T11:07:40Z</time>
      </trkpt>
      <trkpt lat="42.74113" lon="0.1738">
        <ele>2399</ele>
        <time>2019-02-27T11:07:41Z</time>
      </trkpt>
      <trkpt lat="42.74113" lon="0.1738">
        <ele>2399</ele>
        <time>2019-02-27T11:07:42Z</time>
      </trkpt>
      <trkpt lat="42.74113" lon="0.1738">
        <ele>2399</ele>
        <time>2019-02-27T11:07:43Z</time>
      </trkpt>
      <trkpt lat="42.74113" lon="0.1738">
        <ele>2399</ele>
        <time>2019-02-27T11:07:44Z</time>
      </trkpt>
      <trkpt lat="42.74113" lon="0.1738">
        <ele>2399</ele>
        <time>2019-02-27T11:07:45Z</time>
      </trkpt>
      <trkpt lat="42.74113" lon="0.1738">
        <ele>2399</ele>
        <time>2019-02-27T11:07:46Z</time>
      </trkpt>
      <trkpt lat="42.74113" lon="0.1738">
        <ele>2399</ele>
        <time>2019-02-27T11:07:47Z</time>
      </trkpt>
      <trkpt lat="42.74113" lon="0.1738">
        <ele>2399</ele>
        <time>2019-02-27T11:07:48Z</time>
      </trkpt>
      <trkpt lat="42.74113" lon="0.1738">
        <ele>2399</ele>
        <time>2019-02-27T11:07:49Z</time>
      </trkpt>
      <trkpt lat="42.74113" lon="0.1738">
        <ele>2399</ele>
        <time>2019-02-27T11:07:50Z</time>
      </trkpt>
      <trkpt lat="42.74113" lon="0.1738">
        <ele>2399</ele>
        <time>2019-02-27T11:07:51Z</time>
      </trkpt>
      <trkpt lat="42.74113" lon="0.1738">
        <ele>2399</ele>
        <time>2019-02-27T11:07:52Z</time>
      </trkpt>
      <trkpt lat="42.74113" lon="0.1738">
        <ele>2399</ele>
        <time>2019-02-27T11:07:53Z</time>
      </trkpt>
      <trkpt lat="42.74113" lon="0.1738">
        <ele>2399</ele>
        <time>2019-02-27T11:07:54Z</time>
      </trkpt>
      <trkpt lat="42.74113" lon="0.1738">
        <ele>2399</ele>
        <time>2019-02-27T11:07:55Z</time>
      </trkpt>
      <trkpt lat="42.74113" lon="0.1738">
        <ele>2399</ele>
        <time>2019-02-27T11:07:56Z</time>
      </trkpt>
      <trkpt lat="42.74113" lon="0.1738">
        <ele>2399</ele>
        <time>2019-02-27T11:07:57Z</time>
      </trkpt>
      <trkpt lat="42.74113" lon="0.1738">
        <ele>2399</ele>
        <time>2019-02-27T11:07:58Z</time>
      </trkpt>
      <trkpt lat="42.74113" lon="0.1738">
        <ele>2399</ele>
        <time>2019-02-27T11:07:59Z</time>
      </trkpt>
      <trkpt lat="42.74113" lon="0.1738">
        <ele>2399</ele>
        <time>2019-02-27T11:08:00Z</time>
      </trkpt>
      <trkpt lat="42.74113" lon="0.1738">
        <ele>2399</ele>
        <time>2019-02-27T11:08:01Z</time>
      </trkpt>
      <trkpt lat="42.74113" lon="0.1738">
        <ele>2399</ele>
        <time>2019-02-27T11:08:02Z</time>
      </trkpt>
      <trkpt lat="42.74113" lon="0.1738">
        <ele>2399</ele>
        <time>2019-02-27T11:08:03Z</time>
      </trkpt>
      <trkpt lat="42.74113" lon="0.1738">
        <ele>2399</ele>
        <time>2019-02-27T11:08:04Z</time>
      </trkpt>
      <trkpt lat="42.74113" lon="0.1738">
        <ele>2399</ele>
        <time>2019-02-27T11:08:05Z</time>
      </trkpt>
      <trkpt lat="42.74113" lon="0.1738">
        <ele>2399</ele>
        <time>2019-02-27T11:08:06Z</time>
      </trkpt>
      <trkpt lat="42.74113" lon="0.1738">
        <ele>2399</ele>
        <time>2019-02-27T11:08:07Z</time>
      </trkpt>
      <trkpt lat="42.74113" lon="0.1738">
        <ele>2399</ele>
        <time>2019-02-27T11:08:08Z</time>
      </trkpt>
      <trkpt lat="42.74113" lon="0.1738">
        <ele>2399</ele>
        <time>2019-02-27T11:08:09Z</time>
      </trkpt>
      <trkpt lat="42.74113" lon="0.1738">
        <ele>2399</ele>
        <time>2019-02-27T11:08:10Z</time>
      </trkpt>
      <trkpt lat="42.74113" lon="0.1738">
        <ele>2399</ele>
        <time>2019-02-27T11:08:11Z</time>
      </trkpt>
      <trkpt lat="42.74113" lon="0.1738">
        <ele>2399</ele>
        <time>2019-02-27T11:08:12Z</time>
      </trkpt>
      <trkpt lat="42.74113" lon="0.1738">
        <ele>2399</ele>
        <time>2019-02-27T11:08:13Z</time>
      </trkpt>
      <trkpt lat="42.74113" lon="0.1738">
        <ele>2399</ele>
        <time>2019-02-27T11:08:14Z</time>
      </trkpt>
      <trkpt lat="42.74113" lon="0.1738">
        <ele>2399</ele>
        <time>2019-02-27T11:08:15Z</time>
      </trkpt>
      <trkpt lat="42.74113" lon="0.1738">
        <ele>2399</ele>
        <time>2019-02-27T11:08:16Z</time>
      </trkpt>
      <trkpt lat="42.74113" lon="0.1738">
        <ele>2399</ele>
        <time>2019-02-27T11:08:17Z</time>
      </trkpt>
      <trkpt lat="42.74113" lon="0.1738">
        <ele>2399</ele>
        <time>2019-02-27T11:08:18Z</time>
      </trkpt>
      <trkpt lat="42.74113" lon="0.1738">
        <ele>2399</ele>
        <time>2019-02-27T11:08:19Z</time>
      </trkpt>
      <trkpt lat="42.74113" lon="0.1738">
        <ele>2399</ele>
        <time>2019-02-27T11:08:20Z</time>
      </trkpt>
      <trkpt lat="42.74113" lon="0.1738">
        <ele>2399</ele>
        <time>2019-02-27T11:08:21Z</time>
      </trkpt>
      <trkpt lat="42.74113" lon="0.1738">
        <ele>2399</ele>
        <time>2019-02-27T11:08:22Z</time>
      </trkpt>
      <trkpt lat="42.74113" lon="0.1738">
        <ele>2399</ele>
        <time>2019-02-27T11:08:23Z</time>
      </trkpt>
      <trkpt lat="42.74113" lon="0.1738">
        <ele>2399</ele>
        <time>2019-02-27T11:08:24Z</time>
      </trkpt>
      <trkpt lat="42.74113" lon="0.1738">
        <ele>2399</ele>
        <time>2019-02-27T11:08:25Z</time>
      </trkpt>
      <trkpt lat="42.74113" lon="0.1738">
        <ele>2399</ele>
        <time>2019-02-27T11:08:26Z</time>
      </trkpt>
      <trkpt lat="42.74113" lon="0.1738">
        <ele>2399</ele>
        <time>2019-02-27T11:08:27Z</time>
      </trkpt>
      <trkpt lat="42.74113" lon="0.1738">
        <ele>2399</ele>
        <time>2019-02-27T11:08:28Z</time>
      </trkpt>
      <trkpt lat="42.74113" lon="0.1738">
        <ele>2399</ele>
        <time>2019-02-27T11:08:29Z</time>
      </trkpt>
      <trkpt lat="42.74113" lon="0.1738">
        <ele>2399</ele>
        <time>2019-02-27T11:08:30Z</time>
      </trkpt>
      <trkpt lat="42.74113" lon="0.1738">
        <ele>2399</ele>
        <time>2019-02-27T11:08:31Z</time>
      </trkpt>
      <trkpt lat="42.74113" lon="0.1738">
        <ele>2399</ele>
        <time>2019-02-27T11:08:32Z</time>
      </trkpt>
      <trkpt lat="42.74113" lon="0.1738">
        <ele>2399</ele>
        <time>2019-02-27T11:08:33Z</time>
      </trkpt>
      <trkpt lat="42.74113" lon="0.1738">
        <ele>2399</ele>
        <time>2019-02-27T11:08:34Z</time>
      </trkpt>
      <trkpt lat="42.74113" lon="0.1738">
        <ele>2399</ele>
        <time>2019-02-27T11:08:35Z</time>
      </trkpt>
      <trkpt lat="42.74113" lon="0.1738">
        <ele>2399</ele>
        <time>2019-02-27T11:08:36Z</time>
      </trkpt>
      <trkpt lat="42.74113" lon="0.1738">
        <ele>2399</ele>
        <time>2019-02-27T11:08:37Z</time>
      </trkpt>
      <trkpt lat="42.74113" lon="0.1738">
        <ele>2399</ele>
        <time>2019-02-27T11:08:38Z</time>
      </trkpt>
      <trkpt lat="42.74113" lon="0.1738">
        <ele>2399</ele>
        <time>2019-02-27T11:08:39Z</time>
      </trkpt>
      <trkpt lat="42.74113" lon="0.1738">
        <ele>2399</ele>
        <time>2019-02-27T11:08:40Z</time>
      </trkpt>
      <trkpt lat="42.74113" lon="0.1738">
        <ele>2399</ele>
        <time>2019-02-27T11:08:41Z</time>
      </trkpt>
      <trkpt lat="42.74113" lon="0.1738">
        <ele>2399</ele>
        <time>2019-02-27T11:08:42Z</time>
      </trkpt>
      <trkpt lat="42.74113" lon="0.1738">
        <ele>2399</ele>
        <time>2019-02-27T11:08:43Z</time>
      </trkpt>
      <trkpt lat="42.74113" lon="0.1738">
        <ele>2399</ele>
        <time>2019-02-27T11:08:44Z</time>
      </trkpt>
      <trkpt lat="42.74113" lon="0.1738">
        <ele>2399</ele>
        <time>2019-02-27T11:08:45Z</time>
      </trkpt>
      <trkpt lat="42.74113" lon="0.1738">
        <ele>2399</ele>
        <time>2019-02-27T11:08:46Z</time>
      </trkpt>
      <trkpt lat="42.74113" lon="0.1738">
        <ele>2399</ele>
        <time>2019-02-27T11:08:47Z</time>
      </trkpt>
      <trkpt lat="42.74113" lon="0.1738">
        <ele>2399</ele>
        <time>2019-02-27T11:08:48Z</time>
      </trkpt>
      <trkpt lat="42.74113" lon="0.1738">
        <ele>2399</ele>
        <time>2019-02-27T11:08:49Z</time>
      </trkpt>
      <trkpt lat="42.74113" lon="0.1738">
        <ele>2399</ele>
        <time>2019-02-27T11:08:50Z</time>
      </trkpt>
      <trkpt lat="42.74113" lon="0.1738">
        <ele>2399</ele>
        <time>2019-02-27T11:08:51Z</time>
      </trkpt>
      <trkpt lat="42.74113" lon="0.1738">
        <ele>2399</ele>
        <time>2019-02-27T11:08:52Z</time>
      </trkpt>
      <trkpt lat="42.74113" lon="0.1738">
        <ele>2399</ele>
        <time>2019-02-27T11:08:53Z</time>
      </trkpt>
      <trkpt lat="42.74113" lon="0.1738">
        <ele>2399</ele>
        <time>2019-02-27T11:08:54Z</time>
      </trkpt>
      <trkpt lat="42.74113" lon="0.1738">
        <ele>2399</ele>
        <time>2019-02-27T11:08:55Z</time>
      </trkpt>
      <trkpt lat="42.74113" lon="0.1738">
        <ele>2399</ele>
        <time>2019-02-27T11:08:56Z</time>
      </trkpt>
      <trkpt lat="42.74113" lon="0.1738">
        <ele>2399</ele>
        <time>2019-02-27T11:08:57Z</time>
      </trkpt>
      <trkpt lat="42.74113" lon="0.1738">
        <ele>2399</ele>
        <time>2019-02-27T11:08:58Z</time>
      </trkpt>
      <trkpt lat="42.74113" lon="0.1738">
        <ele>2399</ele>
        <time>2019-02-27T11:08:59Z</time>
      </trkpt>
      <trkpt lat="42.74113" lon="0.1738">
        <ele>2399</ele>
        <time>2019-02-27T11:09:00Z</time>
      </trkpt>
      <trkpt lat="42.74113" lon="0.1738">
        <ele>2399</ele>
        <time>2019-02-27T11:09:01Z</time>
      </trkpt>
      <trkpt lat="42.74113" lon="0.1738">
        <ele>2399</ele>
        <time>2019-02-27T11:09:02Z</time>
      </trkpt>
      <trkpt lat="42.74113" lon="0.1738">
        <ele>2399</ele>
        <time>2019-02-27T11:09:03Z</time>
      </trkpt>
      <trkpt lat="42.74113" lon="0.1738">
        <ele>2399</ele>
        <time>2019-02-27T11:09:04Z</time>
      </trkpt>
      <trkpt lat="42.74113" lon="0.1738">
        <ele>2399</ele>
        <time>2019-02-27T11:09:05Z</time>
      </trkpt>
      <trkpt lat="42.74113" lon="0.1738">
        <ele>2399</ele>
        <time>2019-02-27T11:09:06Z</time>
      </trkpt>
      <trkpt lat="42.74113" lon="0.1738">
        <ele>2399</ele>
        <time>2019-02-27T11:09:07Z</time>
      </trkpt>
      <trkpt lat="42.74113" lon="0.1738">
        <ele>2399</ele>
        <time>2019-02-27T11:09:08Z</time>
      </trkpt>
      <trkpt lat="42.74113" lon="0.1738">
        <ele>2399</ele>
        <time>2019-02-27T11:09:09Z</time>
      </trkpt>
      <trkpt lat="42.74113" lon="0.1738">
        <ele>2399</ele>
        <time>2019-02-27T11:09:10Z</time>
      </trkpt>
      <trkpt lat="42.74113" lon="0.1738">
        <ele>2399</ele>
        <time>2019-02-27T11:09:11Z</time>
      </trkpt>
      <trkpt lat="42.74113" lon="0.1738">
        <ele>2399</ele>
        <time>2019-02-27T11:09:12Z</time>
      </trkpt>
      <trkpt lat="42.74113" lon="0.1738">
        <ele>2399</ele>
        <time>2019-02-27T11:09:13Z</time>
      </trkpt>
      <trkpt lat="42.74113" lon="0.1738">
        <ele>2399</ele>
        <time>2019-02-27T11:09:14Z</time>
      </trkpt>
      <trkpt lat="42.74113" lon="0.1738">
        <ele>2399</ele>
        <time>2019-02-27T11:09:15Z</time>
      </trkpt>
      <trkpt lat="42.74113" lon="0.1738">
        <ele>2399</ele>
        <time>2019-02-27T11:09:16Z</time>
      </trkpt>
      <trkpt lat="42.74113" lon="0.1738">
        <ele>2399</ele>
        <time>2019-02-27T11:09:17Z</time>
      </trkpt>
      <trkpt lat="42.74113" lon="0.1738">
        <ele>2399</ele>
        <time>2019-02-27T11:09:18Z</time>
      </trkpt>
      <trkpt lat="42.74113" lon="0.1738">
        <ele>2399</ele>
        <time>2019-02-27T11:09:19Z</time>
      </trkpt>
      <trkpt lat="42.74113" lon="0.1738">
        <ele>2399</ele>
        <time>2019-02-27T11:09:20Z</time>
      </trkpt>
      <trkpt lat="42.74113" lon="0.1738">
        <ele>2399</ele>
        <time>2019-02-27T11:09:21Z</time>
      </trkpt>
      <trkpt lat="42.74113" lon="0.1738">
        <ele>2399</ele>
        <time>2019-02-27T11:09:22Z</time>
      </trkpt>
      <trkpt lat="42.74113" lon="0.1738">
        <ele>2399</ele>
        <time>2019-02-27T11:09:23Z</time>
      </trkpt>
      <trkpt lat="42.74113" lon="0.1738">
        <ele>2399</ele>
        <time>2019-02-27T11:09:24Z</time>
      </trkpt>
      <trkpt lat="42.74113" lon="0.1738">
        <ele>2399</ele>
        <time>2019-02-27T11:09:25Z</time>
      </trkpt>
      <trkpt lat="42.74113" lon="0.1738">
        <ele>2399</ele>
        <time>2019-02-27T11:09:26Z</time>
      </trkpt>
      <trkpt lat="42.74113" lon="0.1738">
        <ele>2399</ele>
        <time>2019-02-27T11:09:27Z</time>
      </trkpt>
      <trkpt lat="42.74113" lon="0.1738">
        <ele>2399</ele>
        <time>2019-02-27T11:09:28Z</time>
      </trkpt>
      <trkpt lat="42.74113" lon="0.1738">
        <ele>2399</ele>
        <time>2019-02-27T11:09:29Z</time>
      </trkpt>
      <trkpt lat="42.74113" lon="0.1738">
        <ele>2399</ele>
        <time>2019-02-27T11:09:30Z</time>
      </trkpt>
      <trkpt lat="42.74113" lon="0.1738">
        <ele>2399</ele>
        <time>2019-02-27T11:09:31Z</time>
      </trkpt>
      <trkpt lat="42.74113" lon="0.1738">
        <ele>2399</ele>
        <time>2019-02-27T11:09:32Z</time>
      </trkpt>
      <trkpt lat="42.74113" lon="0.1738">
        <ele>2399</ele>
        <time>2019-02-27T11:09:33Z</time>
      </trkpt>
      <trkpt lat="42.74113" lon="0.1738">
        <ele>2399</ele>
        <time>2019-02-27T11:09:34Z</time>
      </trkpt>
      <trkpt lat="42.74113" lon="0.1738">
        <ele>2399</ele>
        <time>2019-02-27T11:09:35Z</time>
      </trkpt>
      <trkpt lat="42.74113" lon="0.1738">
        <ele>2399</ele>
        <time>2019-02-27T11:09:36Z</time>
      </trkpt>
      <trkpt lat="42.74113" lon="0.1738">
        <ele>2399</ele>
        <time>2019-02-27T11:09:37Z</time>
      </trkpt>
      <trkpt lat="42.74113" lon="0.1738">
        <ele>2399</ele>
        <time>2019-02-27T11:09:38Z</time>
      </trkpt>
      <trkpt lat="42.74113" lon="0.1738">
        <ele>2399</ele>
        <time>2019-02-27T11:09:39Z</time>
      </trkpt>
      <trkpt lat="42.74113" lon="0.1738">
        <ele>2399</ele>
        <time>2019-02-27T11:09:40Z</time>
      </trkpt>
      <trkpt lat="42.74113" lon="0.1738">
        <ele>2399</ele>
        <time>2019-02-27T11:09:41Z</time>
      </trkpt>
      <trkpt lat="42.74113" lon="0.1738">
        <ele>2399</ele>
        <time>2019-02-27T11:09:42Z</time>
      </trkpt>
      <trkpt lat="42.74113" lon="0.1738">
        <ele>2399</ele>
        <time>2019-02-27T11:09:43Z</time>
      </trkpt>
      <trkpt lat="42.74113" lon="0.1738">
        <ele>2399</ele>
        <time>2019-02-27T11:09:44Z</time>
      </trkpt>
      <trkpt lat="42.74113" lon="0.1738">
        <ele>2399</ele>
        <time>2019-02-27T11:09:45Z</time>
      </trkpt>
      <trkpt lat="42.74113" lon="0.1738">
        <ele>2399</ele>
        <time>2019-02-27T11:09:46Z</time>
      </trkpt>
      <trkpt lat="42.74113" lon="0.1738">
        <ele>2399</ele>
        <time>2019-02-27T11:09:47Z</time>
      </trkpt>
      <trkpt lat="42.74113" lon="0.1738">
        <ele>2399</ele>
        <time>2019-02-27T11:09:48Z</time>
      </trkpt>
      <trkpt lat="42.74113" lon="0.1738">
        <ele>2399</ele>
        <time>2019-02-27T11:09:49Z</time>
      </trkpt>
      <trkpt lat="42.74113" lon="0.1738">
        <ele>2399</ele>
        <time>2019-02-27T11:09:50Z</time>
      </trkpt>
      <trkpt lat="42.74113" lon="0.1738">
        <ele>2399</ele>
        <time>2019-02-27T11:09:51Z</time>
      </trkpt>
      <trkpt lat="42.74113" lon="0.1738">
        <ele>2399</ele>
        <time>2019-02-27T11:09:52Z</time>
      </trkpt>
      <trkpt lat="42.74113" lon="0.1738">
        <ele>2399</ele>
        <time>2019-02-27T11:09:53Z</time>
      </trkpt>
      <trkpt lat="42.74113" lon="0.1738">
        <ele>2399</ele>
        <time>2019-02-27T11:09:54Z</time>
      </trkpt>
      <trkpt lat="42.74113" lon="0.1738">
        <ele>2399</ele>
        <time>2019-02-27T11:09:55Z</time>
      </trkpt>
      <trkpt lat="42.74113" lon="0.1738">
        <ele>2399</ele>
        <time>2019-02-27T11:09:56Z</time>
      </trkpt>
      <trkpt lat="42.74113" lon="0.1738">
        <ele>2399</ele>
        <time>2019-02-27T11:09:57Z</time>
      </trkpt>
      <trkpt lat="42.74113" lon="0.1738">
        <ele>2399</ele>
        <time>2019-02-27T11:09:58Z</time>
      </trkpt>
      <trkpt lat="42.74113" lon="0.1738">
        <ele>2399</ele>
        <time>2019-02-27T11:09:59Z</time>
      </trkpt>
      <trkpt lat="42.74113" lon="0.1738">
        <ele>2399</ele>
        <time>2019-02-27T11:10:00Z</time>
      </trkpt>
      <trkpt lat="42.74113" lon="0.1738">
        <ele>2399</ele>
        <time>2019-02-27T11:10:01Z</time>
      </trkpt>
      <trkpt lat="42.74113" lon="0.1738">
        <ele>2399</ele>
        <time>2019-02-27T11:10:02Z</time>
      </trkpt>
      <trkpt lat="42.74113" lon="0.1738">
        <ele>2399</ele>
        <time>2019-02-27T11:10:03Z</time>
      </trkpt>
      <trkpt lat="42.74113" lon="0.1738">
        <ele>2399</ele>
        <time>2019-02-27T11:10:04Z</time>
      </trkpt>
      <trkpt lat="42.74113" lon="0.1738">
        <ele>2399</ele>
        <time>2019-02-27T11:10:05Z</time>
      </trkpt>
      <trkpt lat="42.74113" lon="0.1738">
        <ele>2399</ele>
        <time>2019-02-27T11:10:06Z</time>
      </trkpt>
      <trkpt lat="42.74113" lon="0.1738">
        <ele>2399</ele>
        <time>2019-02-27T11:10:07Z</time>
      </trkpt>
      <trkpt lat="42.74113" lon="0.1738">
        <ele>2399</ele>
        <time>2019-02-27T11:10:08Z</time>
      </trkpt>
      <trkpt lat="42.74113" lon="0.1738">
        <ele>2399</ele>
        <time>2019-02-27T11:10:09Z</time>
      </trkpt>
      <trkpt lat="42.74113" lon="0.1738">
        <ele>2399</ele>
        <time>2019-02-27T11:10:10Z</time>
      </trkpt>
      <trkpt lat="42.74113" lon="0.1738">
        <ele>2399</ele>
        <time>2019-02-27T11:10:11Z</time>
      </trkpt>
      <trkpt lat="42.74113" lon="0.1738">
        <ele>2399</ele>
        <time>2019-02-27T11:10:12Z</time>
      </trkpt>
      <trkpt lat="42.74113" lon="0.1738">
        <ele>2399</ele>
        <time>2019-02-27T11:10:13Z</time>
      </trkpt>
      <trkpt lat="42.74113" lon="0.1738">
        <ele>2399</ele>
        <time>2019-02-27T11:10:14Z</time>
      </trkpt>
      <trkpt lat="42.74113" lon="0.1738">
        <ele>2399</ele>
        <time>2019-02-27T11:10:15Z</time>
      </trkpt>
      <trkpt lat="42.74113" lon="0.1738">
        <ele>2399</ele>
        <time>2019-02-27T11:10:16Z</time>
      </trkpt>
      <trkpt lat="42.74113" lon="0.1738">
        <ele>2399</ele>
        <time>2019-02-27T11:10:17Z</time>
      </trkpt>
      <trkpt lat="42.74113" lon="0.1738">
        <ele>2399</ele>
        <time>2019-02-27T11:10:18Z</time>
      </trkpt>
      <trkpt lat="42.74113" lon="0.1738">
        <ele>2399</ele>
        <time>2019-02-27T11:10:19Z</time>
      </trkpt>
      <trkpt lat="42.74113" lon="0.1738">
        <ele>2399</ele>
        <time>2019-02-27T11:10:20Z</time>
      </trkpt>
      <trkpt lat="42.74113" lon="0.1738">
        <ele>2399</ele>
        <time>2019-02-27T11:10:21Z</time>
      </trkpt>
      <trkpt lat="42.74113" lon="0.1738">
        <ele>2399</ele>
        <time>2019-02-27T11:10:22Z</time>
      </trkpt>
      <trkpt lat="42.74113" lon="0.1738">
        <ele>2399</ele>
        <time>2019-02-27T11:10:23Z</time>
      </trkpt>
      <trkpt lat="42.74113" lon="0.1738">
        <ele>2399</ele>
        <time>2019-02-27T11:10:24Z</time>
      </trkpt>
      <trkpt lat="42.74113" lon="0.1738">
        <ele>2399</ele>
        <time>2019-02-27T11:10:25Z</time>
      </trkpt>
      <trkpt lat="42.74113" lon="0.1738">
        <ele>2399</ele>
        <time>2019-02-27T11:10:26Z</time>
      </trkpt>
      <trkpt lat="42.74113" lon="0.1738">
        <ele>2399</ele>
        <time>2019-02-27T11:10:27Z</time>
      </trkpt>
      <trkpt lat="42.74113" lon="0.1738">
        <ele>2399</ele>
        <time>2019-02-27T11:10:28Z</time>
      </trkpt>
      <trkpt lat="42.74113" lon="0.1738">
        <ele>2399</ele>
        <time>2019-02-27T11:10:29Z</time>
      </trkpt>
      <trkpt lat="42.74113" lon="0.1738">
        <ele>2399</ele>
        <time>2019-02-27T11:10:30Z</time>
      </trkpt>
      <trkpt lat="42.74113" lon="0.1738">
        <ele>2399</ele>
        <time>2019-02-27T11:10:31Z</time>
      </trkpt>
      <trkpt lat="42.74113" lon="0.1738">
        <ele>2399</ele>
        <time>2019-02-27T11:10:32Z</time>
      </trkpt>
      <trkpt lat="42.74113" lon="0.1738">
        <ele>2399</ele>
        <time>2019-02-27T11:10:33Z</time>
      </trkpt>
      <trkpt lat="42.74113" lon="0.1738">
        <ele>2399</ele>
        <time>2019-02-27T11:10:34Z</time>
      </trkpt>
      <trkpt lat="42.74113" lon="0.1738">
        <ele>2399</ele>
        <time>2019-02-27T11:10:35Z</time>
      </trkpt>
      <trkpt lat="42.74113" lon="0.1738">
        <ele>2399</ele>
        <time>2019-02-27T11:10:36Z</time>
      </trkpt>
      <trkpt lat="42.74113" lon="0.1738">
        <ele>2399</ele>
        <time>2019-02-27T11:10:37Z</time>
      </trkpt>
      <trkpt lat="42.74113" lon="0.1738">
        <ele>2399</ele>
        <time>2019-02-27T11:10:38Z</time>
      </trkpt>
      <trkpt lat="42.74113" lon="0.1738">
        <ele>2399</ele>
        <time>2019-02-27T11:10:39Z</time>
      </trkpt>
      <trkpt lat="42.74113" lon="0.1738">
        <ele>2399</ele>
        <time>2019-02-27T11:10:40Z</time>
      </trkpt>
      <trkpt lat="42.74113" lon="0.1738">
        <ele>2399</ele>
        <time>2019-02-27T11:10:41Z</time>
      </trkpt>
      <trkpt lat="42.74113" lon="0.1738">
        <ele>2399</ele>
        <time>2019-02-27T11:10:42Z</time>
      </trkpt>
      <trkpt lat="42.74113" lon="0.1738">
        <ele>2399</ele>
        <time>2019-02-27T11:10:43Z</time>
      </trkpt>
      <trkpt lat="42.74113" lon="0.1738">
        <ele>2399</ele>
        <time>2019-02-27T11:10:44Z</time>
      </trkpt>
      <trkpt lat="42.74113" lon="0.1738">
        <ele>2399</ele>
        <time>2019-02-27T11:10:45Z</time>
      </trkpt>
      <trkpt lat="42.74113" lon="0.1738">
        <ele>2399</ele>
        <time>2019-02-27T11:10:46Z</time>
      </trkpt>
      <trkpt lat="42.74113" lon="0.1738">
        <ele>2399</ele>
        <time>2019-02-27T11:10:47Z</time>
      </trkpt>
      <trkpt lat="42.74113" lon="0.1738">
        <ele>2399</ele>
        <time>2019-02-27T11:10:48Z</time>
      </trkpt>
      <trkpt lat="42.74113" lon="0.1738">
        <ele>2399</ele>
        <time>2019-02-27T11:10:49Z</time>
      </trkpt>
      <trkpt lat="42.74113" lon="0.1738">
        <ele>2399</ele>
        <time>2019-02-27T11:10:50Z</time>
      </trkpt>
      <trkpt lat="42.74113" lon="0.1738">
        <ele>2399</ele>
        <time>2019-02-27T11:10:51Z</time>
      </trkpt>
      <trkpt lat="42.74113" lon="0.1738">
        <ele>2399</ele>
        <time>2019-02-27T11:10:52Z</time>
      </trkpt>
      <trkpt lat="42.74113" lon="0.1738">
        <ele>2399</ele>
        <time>2019-02-27T11:10:53Z</time>
      </trkpt>
      <trkpt lat="42.74113" lon="0.1738">
        <ele>2399</ele>
        <time>2019-02-27T11:10:54Z</time>
      </trkpt>
      <trkpt lat="42.74113" lon="0.1738">
        <ele>2399</ele>
        <time>2019-02-27T11:10:55Z</time>
      </trkpt>
      <trkpt lat="42.74113" lon="0.1738">
        <ele>2399</ele>
        <time>2019-02-27T11:10:56Z</time>
      </trkpt>
      <trkpt lat="42.74113" lon="0.1738">
        <ele>2399</ele>
        <time>2019-02-27T11:10:57Z</time>
      </trkpt>
      <trkpt lat="42.74113" lon="0.1738">
        <ele>2399</ele>
        <time>2019-02-27T11:10:58Z</time>
      </trkpt>
      <trkpt lat="42.74113" lon="0.1738">
        <ele>2399</ele>
        <time>2019-02-27T11:10:59Z</time>
      </trkpt>
      <trkpt lat="42.74113" lon="0.1738">
        <ele>2399</ele>
        <time>2019-02-27T11:11:00Z</time>
      </trkpt>
      <trkpt lat="42.74113" lon="0.1738">
        <ele>2399</ele>
        <time>2019-02-27T11:11:01Z</time>
      </trkpt>
      <trkpt lat="42.74113" lon="0.1738">
        <ele>2399</ele>
        <time>2019-02-27T11:11:02Z</time>
      </trkpt>
      <trkpt lat="42.74113" lon="0.1738">
        <ele>2399</ele>
        <time>2019-02-27T11:11:03Z</time>
      </trkpt>
      <trkpt lat="42.74113" lon="0.1738">
        <ele>2399</ele>
        <time>2019-02-27T11:11:04Z</time>
      </trkpt>
      <trkpt lat="42.74113" lon="0.1738">
        <ele>2399</ele>
        <time>2019-02-27T11:11:05Z</time>
      </trkpt>
      <trkpt lat="42.74113" lon="0.1738">
        <ele>2399</ele>
        <time>2019-02-27T11:11:06Z</time>
      </trkpt>
      <trkpt lat="42.74113" lon="0.1738">
        <ele>2399</ele>
        <time>2019-02-27T11:11:07Z</time>
      </trkpt>
      <trkpt lat="42.74113" lon="0.1738">
        <ele>2399</ele>
        <time>2019-02-27T11:11:08Z</time>
      </trkpt>
      <trkpt lat="42.74113" lon="0.1738">
        <ele>2399</ele>
        <time>2019-02-27T11:11:09Z</time>
      </trkpt>
      <trkpt lat="42.74113" lon="0.1738">
        <ele>2399</ele>
        <time>2019-02-27T11:11:10Z</time>
      </trkpt>
      <trkpt lat="42.74113" lon="0.1738">
        <ele>2399</ele>
        <time>2019-02-27T11:11:11Z</time>
      </trkpt>
      <trkpt lat="42.74113" lon="0.1738">
        <ele>2399</ele>
        <time>2019-02-27T11:11:12Z</time>
      </trkpt>
      <trkpt lat="42.74113" lon="0.1738">
        <ele>2399</ele>
        <time>2019-02-27T11:11:13Z</time>
      </trkpt>
      <trkpt lat="42.74113" lon="0.1738">
        <ele>2399</ele>
        <time>2019-02-27T11:11:14Z</time>
      </trkpt>
      <trkpt lat="42.74113" lon="0.1738">
        <ele>2399</ele>
        <time>2019-02-27T11:11:15Z</time>
      </trkpt>
      <trkpt lat="42.74113" lon="0.1738">
        <ele>2399</ele>
        <time>2019-02-27T11:11:16Z</time>
      </trkpt>
      <trkpt lat="42.74113" lon="0.1738">
        <ele>2399</ele>
        <time>2019-02-27T11:11:17Z</time>
      </trkpt>
      <trkpt lat="42.74113" lon="0.1738">
        <ele>2399</ele>
        <time>2019-02-27T11:11:18Z</time>
      </trkpt>
      <trkpt lat="42.74113" lon="0.1738">
        <ele>2399</ele>
        <time>2019-02-27T11:11:19Z</time>
      </trkpt>
      <trkpt lat="42.74113" lon="0.1738">
        <ele>2399</ele>
        <time>2019-02-27T11:11:20Z</time>
      </trkpt>
      <trkpt lat="42.74113" lon="0.1738">
        <ele>2399</ele>
        <time>2019-02-27T11:11:21Z</time>
      </trkpt>
      <trkpt lat="42.74113" lon="0.1738">
        <ele>2399</ele>
        <time>2019-02-27T11:11:22Z</time>
      </trkpt>
      <trkpt lat="42.74113" lon="0.1738">
        <ele>2399</ele>
        <time>2019-02-27T11:11:23Z</time>
      </trkpt>
      <trkpt lat="42.74113" lon="0.1738">
        <ele>2399</ele>
        <time>2019-02-27T11:11:24Z</time>
      </trkpt>
      <trkpt lat="42.74113" lon="0.1738">
        <ele>2399</ele>
        <time>2019-02-27T11:11:25Z</time>
      </trkpt>
      <trkpt lat="42.74113" lon="0.1738">
        <ele>2399</ele>
        <time>2019-02-27T11:11:26Z</time>
      </trkpt>
      <trkpt lat="42.74113" lon="0.1738">
        <ele>2399</ele>
        <time>2019-02-27T11:11:27Z</time>
      </trkpt>
      <trkpt lat="42.74113" lon="0.1738">
        <ele>2399</ele>
        <time>2019-02-27T11:11:28Z</time>
      </trkpt>
      <trkpt lat="42.74113" lon="0.1738">
        <ele>2399</ele>
        <time>2019-02-27T11:11:29Z</time>
      </trkpt>
      <trkpt lat="42.74113" lon="0.1738">
        <ele>2399</ele>
        <time>2019-02-27T11:11:30Z</time>
      </trkpt>
      <trkpt lat="42.74113" lon="0.1738">
        <ele>2399</ele>
        <time>2019-02-27T11:11:31Z</time>
      </trkpt>
      <trkpt lat="42.74113" lon="0.1738">
        <ele>2399</ele>
        <time>2019-02-27T11:11:32Z</time>
      </trkpt>
      <trkpt lat="42.74113" lon="0.1738">
        <ele>2399</ele>
        <time>2019-02-27T11:11:33Z</time>
      </trkpt>
      <trkpt lat="42.74113" lon="0.1738">
        <ele>2399</ele>
        <time>2019-02-27T11:11:34Z</time>
      </trkpt>
      <trkpt lat="42.74113" lon="0.1738">
        <ele>2399</ele>
        <time>2019-02-27T11:11:35Z</time>
      </trkpt>
      <trkpt lat="42.74113" lon="0.1738">
        <ele>2399</ele>
        <time>2019-02-27T11:11:36Z</time>
      </trkpt>
      <trkpt lat="42.74113" lon="0.1738">
        <ele>2399</ele>
        <time>2019-02-27T11:11:37Z</time>
      </trkpt>
      <trkpt lat="42.74113" lon="0.1738">
        <ele>2399</ele>
        <time>2019-02-27T11:11:38Z</time>
      </trkpt>
      <trkpt lat="42.74113" lon="0.1738">
        <ele>2399</ele>
        <time>2019-02-27T11:11:39Z</time>
      </trkpt>
      <trkpt lat="42.74113" lon="0.1738">
        <ele>2399</ele>
        <time>2019-02-27T11:11:40Z</time>
      </trkpt>
      <trkpt lat="42.74113" lon="0.1738">
        <ele>2399</ele>
        <time>2019-02-27T11:11:41Z</time>
      </trkpt>
      <trkpt lat="42.74113" lon="0.1738">
        <ele>2399</ele>
        <time>2019-02-27T11:11:42Z</time>
      </trkpt>
      <trkpt lat="42.74113" lon="0.1738">
        <ele>2399</ele>
        <time>2019-02-27T11:11:43Z</time>
      </trkpt>
      <trkpt lat="42.74113" lon="0.1738">
        <ele>2399</ele>
        <time>2019-02-27T11:11:44Z</time>
      </trkpt>
      <trkpt lat="42.74113" lon="0.1738">
        <ele>2399</ele>
        <time>2019-02-27T11:11:45Z</time>
      </trkpt>
      <trkpt lat="42.74113" lon="0.1738">
        <ele>2399</ele>
        <time>2019-02-27T11:11:46Z</time>
      </trkpt>
      <trkpt lat="42.74113" lon="0.1738">
        <ele>2399</ele>
        <time>2019-02-27T11:11:47Z</time>
      </trkpt>
      <trkpt lat="42.74113" lon="0.1738">
        <ele>2399</ele>
        <time>2019-02-27T11:11:48Z</time>
      </trkpt>
      <trkpt lat="42.74113" lon="0.1738">
        <ele>2399</ele>
        <time>2019-02-27T11:11:49Z</time>
      </trkpt>
      <trkpt lat="42.74113" lon="0.1738">
        <ele>2399</ele>
        <time>2019-02-27T11:11:50Z</time>
      </trkpt>
      <trkpt lat="42.74113" lon="0.1738">
        <ele>2399</ele>
        <time>2019-02-27T11:11:51Z</time>
      </trkpt>
      <trkpt lat="42.74113" lon="0.1738">
        <ele>2399</ele>
        <time>2019-02-27T11:11:52Z</time>
      </trkpt>
      <trkpt lat="42.74113" lon="0.1738">
        <ele>2399</ele>
        <time>2019-02-27T11:11:53Z</time>
      </trkpt>
      <trkpt lat="42.74113" lon="0.1738">
        <ele>2399</ele>
        <time>2019-02-27T11:11:54Z</time>
      </trkpt>
      <trkpt lat="42.74113" lon="0.1738">
        <ele>2399</ele>
        <time>2019-02-27T11:11:55Z</time>
      </trkpt>
      <trkpt lat="42.74113" lon="0.1738">
        <ele>2399</ele>
        <time>2019-02-27T11:11:56Z</time>
      </trkpt>
      <trkpt lat="42.74113" lon="0.1738">
        <ele>2399</ele>
        <time>2019-02-27T11:11:57Z</time>
      </trkpt>
      <trkpt lat="42.74113" lon="0.1738">
        <ele>2399</ele>
        <time>2019-02-27T11:11:58Z</time>
      </trkpt>
      <trkpt lat="42.74113" lon="0.1738">
        <ele>2399</ele>
        <time>2019-02-27T11:11:59Z</time>
      </trkpt>
      <trkpt lat="42.74113" lon="0.1738">
        <ele>2399</ele>
        <time>2019-02-27T11:12:00Z</time>
      </trkpt>
      <trkpt lat="42.74113" lon="0.1738">
        <ele>2399</ele>
        <time>2019-02-27T11:12:01Z</time>
      </trkpt>
      <trkpt lat="42.74113" lon="0.1738">
        <ele>2399</ele>
        <time>2019-02-27T11:12:02Z</time>
      </trkpt>
      <trkpt lat="42.74113" lon="0.1738">
        <ele>2399</ele>
        <time>2019-02-27T11:12:03Z</time>
      </trkpt>
      <trkpt lat="42.74113" lon="0.1738">
        <ele>2399</ele>
        <time>2019-02-27T11:12:04Z</time>
      </trkpt>
      <trkpt lat="42.74113" lon="0.1738">
        <ele>2399</ele>
        <time>2019-02-27T11:12:05Z</time>
      </trkpt>
      <trkpt lat="42.74113" lon="0.1738">
        <ele>2399</ele>
        <time>2019-02-27T11:12:06Z</time>
      </trkpt>
      <trkpt lat="42.74113" lon="0.1738">
        <ele>2399</ele>
        <time>2019-02-27T11:12:07Z</time>
      </trkpt>
      <trkpt lat="42.74113" lon="0.1738">
        <ele>2399</ele>
        <time>2019-02-27T11:12:08Z</time>
      </trkpt>
      <trkpt lat="42.74113" lon="0.1738">
        <ele>2399</ele>
        <time>2019-02-27T11:12:09Z</time>
      </trkpt>
      <trkpt lat="42.74113" lon="0.1738">
        <ele>2399</ele>
        <time>2019-02-27T11:12:10Z</time>
      </trkpt>
      <trkpt lat="42.74113" lon="0.1738">
        <ele>2399</ele>
        <time>2019-02-27T11:12:11Z</time>
      </trkpt>
      <trkpt lat="42.74113" lon="0.1738">
        <ele>2399</ele>
        <time>2019-02-27T11:12:12Z</time>
      </trkpt>
      <trkpt lat="42.74113" lon="0.1738">
        <ele>2399</ele>
        <time>2019-02-27T11:12:13Z</time>
      </trkpt>
      <trkpt lat="42.74113" lon="0.1738">
        <ele>2399</ele>
        <time>2019-02-27T11:12:14Z</time>
      </trkpt>
      <trkpt lat="42.74113" lon="0.1738">
        <ele>2399</ele>
        <time>2019-02-27T11:12:15Z</time>
      </trkpt>
      <trkpt lat="42.74113" lon="0.1738">
        <ele>2399</ele>
        <time>2019-02-27T11:12:16Z</time>
      </trkpt>
      <trkpt lat="42.74113" lon="0.1738">
        <ele>2399</ele>
        <time>2019-02-27T11:12:17Z</time>
      </trkpt>
      <trkpt lat="42.74113" lon="0.1738">
        <ele>2399</ele>
        <time>2019-02-27T11:12:18Z</time>
      </trkpt>
      <trkpt lat="42.74113" lon="0.1738">
        <ele>2399</ele>
        <time>2019-02-27T11:12:19Z</time>
      </trkpt>
      <trkpt lat="42.74113" lon="0.1738">
        <ele>2399</ele>
        <time>2019-02-27T11:12:20Z</time>
      </trkpt>
      <trkpt lat="42.74113" lon="0.1738">
        <ele>2399</ele>
        <time>2019-02-27T11:12:21Z</time>
      </trkpt>
      <trkpt lat="42.74113" lon="0.1738">
        <ele>2399</ele>
        <time>2019-02-27T11:12:22Z</time>
      </trkpt>
      <trkpt lat="42.74113" lon="0.1738">
        <ele>2399</ele>
        <time>2019-02-27T11:12:23Z</time>
      </trkpt>
      <trkpt lat="42.74113" lon="0.1738">
        <ele>2399</ele>
        <time>2019-02-27T11:12:24Z</time>
      </trkpt>
      <trkpt lat="42.74113" lon="0.1738">
        <ele>2399</ele>
        <time>2019-02-27T11:12:25Z</time>
      </trkpt>
      <trkpt lat="42.74113" lon="0.1738">
        <ele>2399</ele>
        <time>2019-02-27T11:12:26Z</time>
      </trkpt>
      <trkpt lat="42.74113" lon="0.1738">
        <ele>2399</ele>
        <time>2019-02-27T11:12:27Z</time>
      </trkpt>
      <trkpt lat="42.74113" lon="0.1738">
        <ele>2399</ele>
        <time>2019-02-27T11:12:28Z</time>
      </trkpt>
      <trkpt lat="42.74113" lon="0.1738">
        <ele>2399</ele>
        <time>2019-02-27T11:12:29Z</time>
      </trkpt>
      <trkpt lat="42.74113" lon="0.1738">
        <ele>2399</ele>
        <time>2019-02-27T11:12:30Z</time>
      </trkpt>
      <trkpt lat="42.74113" lon="0.1738">
        <ele>2399</ele>
        <time>2019-02-27T11:12:31Z</time>
      </trkpt>
      <trkpt lat="42.74113" lon="0.1738">
        <ele>2399</ele>
        <time>2019-02-27T11:12:32Z</time>
      </trkpt>
      <trkpt lat="42.74113" lon="0.1738">
        <ele>2399</ele>
        <time>2019-02-27T11:12:33Z</time>
      </trkpt>
      <trkpt lat="42.74113" lon="0.1738">
        <ele>2399</ele>
        <time>2019-02-27T11:12:34Z</time>
      </trkpt>
      <trkpt lat="42.74113" lon="0.1738">
        <ele>2399</ele>
        <time>2019-02-27T11:12:35Z</time>
      </trkpt>
      <trkpt lat="42.74113" lon="0.1738">
        <ele>2399</ele>
        <time>2019-02-27T11:12:36Z</time>
      </trkpt>
      <trkpt lat="42.74113" lon="0.1738">
        <ele>2399</ele>
        <time>2019-02-27T11:12:37Z</time>
      </trkpt>
      <trkpt lat="42.74113" lon="0.1738">
        <ele>2399</ele>
        <time>2019-02-27T11:12:38Z</time>
      </trkpt>
      <trkpt lat="42.74113" lon="0.1738">
        <ele>2399</ele>
        <time>2019-02-27T11:12:39Z</time>
      </trkpt>
      <trkpt lat="42.74113" lon="0.1738">
        <ele>2399</ele>
        <time>2019-02-27T11:12:40Z</time>
      </trkpt>
      <trkpt lat="42.74113" lon="0.1738">
        <ele>2399</ele>
        <time>2019-02-27T11:12:41Z</time>
      </trkpt>
      <trkpt lat="42.74113" lon="0.1738">
        <ele>2399</ele>
        <time>2019-02-27T11:12:42Z</time>
      </trkpt>
      <trkpt lat="42.74113" lon="0.1738">
        <ele>2399</ele>
        <time>2019-02-27T11:12:43Z</time>
      </trkpt>
      <trkpt lat="42.74113" lon="0.1738">
        <ele>2399</ele>
        <time>2019-02-27T11:12:44Z</time>
      </trkpt>
      <trkpt lat="42.74113" lon="0.1738">
        <ele>2399</ele>
        <time>2019-02-27T11:12:45Z</time>
      </trkpt>
      <trkpt lat="42.74113" lon="0.1738">
        <ele>2399</ele>
        <time>2019-02-27T11:12:46Z</time>
      </trkpt>
      <trkpt lat="42.74113" lon="0.1738">
        <ele>2399</ele>
        <time>2019-02-27T11:12:47Z</time>
      </trkpt>
      <trkpt lat="42.74113" lon="0.1738">
        <ele>2399</ele>
        <time>2019-02-27T11:12:48Z</time>
      </trkpt>
      <trkpt lat="42.74113" lon="0.1738">
        <ele>2399</ele>
        <time>2019-02-27T11:12:49Z</time>
      </trkpt>
      <trkpt lat="42.74113" lon="0.1738">
        <ele>2399</ele>
        <time>2019-02-27T11:12:50Z</time>
      </trkpt>
      <trkpt lat="42.74113" lon="0.1738">
        <ele>2399</ele>
        <time>2019-02-27T11:12:51Z</time>
      </trkpt>
      <trkpt lat="42.74113" lon="0.1738">
        <ele>2399</ele>
        <time>2019-02-27T11:12:52Z</time>
      </trkpt>
      <trkpt lat="42.74113" lon="0.1738">
        <ele>2399</ele>
        <time>2019-02-27T11:12:53Z</time>
      </trkpt>
      <trkpt lat="42.74113" lon="0.1738">
        <ele>2399</ele>
        <time>2019-02-27T11:12:54Z</time>
      </trkpt>
      <trkpt lat="42.74113" lon="0.1738">
        <ele>2399</ele>
        <time>2019-02-27T11:12:55Z</time>
      </trkpt>
      <trkpt lat="42.74113" lon="0.1738">
        <ele>2399</ele>
        <time>2019-02-27T11:12:56Z</time>
      </trkpt>
      <trkpt lat="42.74113" lon="0.1738">
        <ele>2399</ele>
        <time>2019-02-27T11:12:57Z</time>
      </trkpt>
      <trkpt lat="42.74113" lon="0.1738">
        <ele>2399</ele>
        <time>2019-02-27T11:12:58Z</time>
      </trkpt>
      <trkpt lat="42.74113" lon="0.1738">
        <ele>2399</ele>
        <time>2019-02-27T11:12:59Z</time>
      </trkpt>
      <trkpt lat="42.74113" lon="0.1738">
        <ele>2399</ele>
        <time>2019-02-27T11:13:00Z</time>
      </trkpt>
      <trkpt lat="42.74113" lon="0.1738">
        <ele>2399</ele>
        <time>2019-02-27T11:13:01Z</time>
      </trkpt>
      <trkpt lat="42.74113" lon="0.1738">
        <ele>2399</ele>
        <time>2019-02-27T11:13:02Z</time>
      </trkpt>
      <trkpt lat="42.74113" lon="0.1738">
        <ele>2399</ele>
        <time>2019-02-27T11:13:03Z</time>
      </trkpt>
      <trkpt lat="42.74113" lon="0.1738">
        <ele>2399</ele>
        <time>2019-02-27T11:13:04Z</time>
      </trkpt>
      <trkpt lat="42.74113" lon="0.1738">
        <ele>2399</ele>
        <time>2019-02-27T11:13:05Z</time>
      </trkpt>
      <trkpt lat="42.74113" lon="0.1738">
        <ele>2399</ele>
        <time>2019-02-27T11:13:06Z</time>
      </trkpt>
      <trkpt lat="42.74113" lon="0.1738">
        <ele>2399</ele>
        <time>2019-02-27T11:13:07Z</time>
      </trkpt>
      <trkpt lat="42.74113" lon="0.1738">
        <ele>2399</ele>
        <time>2019-02-27T11:13:08Z</time>
      </trkpt>
      <trkpt lat="42.74113" lon="0.1738">
        <ele>2399</ele>
        <time>2019-02-27T11:13:09Z</time>
      </trkpt>
      <trkpt lat="42.74113" lon="0.1738">
        <ele>2399</ele>
        <time>2019-02-27T11:13:10Z</time>
      </trkpt>
      <trkpt lat="42.74113" lon="0.1738">
        <ele>2399</ele>
        <time>2019-02-27T11:13:11Z</time>
      </trkpt>
      <trkpt lat="42.74113" lon="0.1738">
        <ele>2399</ele>
        <time>2019-02-27T11:13:12Z</time>
      </trkpt>
      <trkpt lat="42.74113" lon="0.1738">
        <ele>2399</ele>
        <time>2019-02-27T11:13:13Z</time>
      </trkpt>
      <trkpt lat="42.74113" lon="0.1738">
        <ele>2399</ele>
        <time>2019-02-27T11:13:14Z</time>
      </trkpt>
      <trkpt lat="42.74113" lon="0.1738">
        <ele>2399</ele>
        <time>2019-02-27T11:13:15Z</time>
      </trkpt>
      <trkpt lat="42.74113" lon="0.1738">
        <ele>2399</ele>
        <time>2019-02-27T11:13:16Z</time>
      </trkpt>
      <trkpt lat="42.74113" lon="0.1738">
        <ele>2399</ele>
        <time>2019-02-27T11:13:17Z</time>
      </trkpt>
      <trkpt lat="42.74113" lon="0.1738">
        <ele>2399</ele>
        <time>2019-02-27T11:13:18Z</time>
      </trkpt>
      <trkpt lat="42.74113" lon="0.1738">
        <ele>2399</ele>
        <time>2019-02-27T11:13:19Z</time>
      </trkpt>
      <trkpt lat="42.74113" lon="0.1738">
        <ele>2399</ele>
        <time>2019-02-27T11:13:20Z</time>
      </trkpt>
      <trkpt lat="42.74113" lon="0.1738">
        <ele>2399</ele>
        <time>2019-02-27T11:13:21Z</time>
      </trkpt>
      <trkpt lat="42.74113" lon="0.1738">
        <ele>2399</ele>
        <time>2019-02-27T11:13:22Z</time>
      </trkpt>
      <trkpt lat="42.74113" lon="0.1738">
        <ele>2399</ele>
        <time>2019-02-27T11:13:23Z</time>
      </trkpt>
      <trkpt lat="42.74113" lon="0.1738">
        <ele>2399</ele>
        <time>2019-02-27T11:13:24Z</time>
      </trkpt>
      <trkpt lat="42.74113" lon="0.1738">
        <ele>2399</ele>
        <time>2019-02-27T11:13:25Z</time>
      </trkpt>
      <trkpt lat="42.74113" lon="0.1738">
        <ele>2399</ele>
        <time>2019-02-27T11:13:26Z</time>
      </trkpt>
      <trkpt lat="42.74113" lon="0.1738">
        <ele>2399</ele>
        <time>2019-02-27T11:13:27Z</time>
      </trkpt>
      <trkpt lat="42.74113" lon="0.1738">
        <ele>2399</ele>
        <time>2019-02-27T11:13:28Z</time>
      </trkpt>
      <trkpt lat="42.74113" lon="0.1738">
        <ele>2399</ele>
        <time>2019-02-27T11:13:29Z</time>
      </trkpt>
      <trkpt lat="42.74113" lon="0.1738">
        <ele>2399</ele>
        <time>2019-02-27T11:13:30Z</time>
      </trkpt>
      <trkpt lat="42.74113" lon="0.1738">
        <ele>2399</ele>
        <time>2019-02-27T11:13:31Z</time>
      </trkpt>
      <trkpt lat="42.74113" lon="0.1738">
        <ele>2399</ele>
        <time>2019-02-27T11:13:32Z</time>
      </trkpt>
      <trkpt lat="42.74113" lon="0.1738">
        <ele>2399</ele>
        <time>2019-02-27T11:13:33Z</time>
      </trkpt>
      <trkpt lat="42.74113" lon="0.1738">
        <ele>2399</ele>
        <time>2019-02-27T11:13:34Z</time>
      </trkpt>
      <trkpt lat="42.74113" lon="0.1738">
        <ele>2399</ele>
        <time>2019-02-27T11:13:35Z</time>
      </trkpt>
      <trkpt lat="42.74113" lon="0.1738">
        <ele>2399</ele>
        <time>2019-02-27T11:13:36Z</time>
      </trkpt>
      <trkpt lat="42.74113" lon="0.1738">
        <ele>2399</ele>
        <time>2019-02-27T11:13:37Z</time>
      </trkpt>
      <trkpt lat="42.74113" lon="0.1738">
        <ele>2399</ele>
        <time>2019-02-27T11:13:38Z</time>
      </trkpt>
      <trkpt lat="42.74113" lon="0.1738">
        <ele>2399</ele>
        <time>2019-02-27T11:13:39Z</time>
      </trkpt>
      <trkpt lat="42.74113" lon="0.1738">
        <ele>2399</ele>
        <time>2019-02-27T11:13:40Z</time>
      </trkpt>
      <trkpt lat="42.74113" lon="0.1738">
        <ele>2399</ele>
        <time>2019-02-27T11:13:41Z</time>
      </trkpt>
      <trkpt lat="42.74113" lon="0.1738">
        <ele>2399</ele>
        <time>2019-02-27T11:13:42Z</time>
      </trkpt>
      <trkpt lat="42.74113" lon="0.1738">
        <ele>2399</ele>
        <time>2019-02-27T11:13:43Z</time>
      </trkpt>
      <trkpt lat="42.74113" lon="0.1738">
        <ele>2399</ele>
        <time>2019-02-27T11:13:44Z</time>
      </trkpt>
      <trkpt lat="42.74113" lon="0.1738">
        <ele>2399</ele>
        <time>2019-02-27T11:13:45Z</time>
      </trkpt>
      <trkpt lat="42.74113" lon="0.1738">
        <ele>2399</ele>
        <time>2019-02-27T11:13:46Z</time>
      </trkpt>
      <trkpt lat="42.74113" lon="0.1738">
        <ele>2399</ele>
        <time>2019-02-27T11:13:47Z</time>
      </trkpt>
      <trkpt lat="42.74113" lon="0.1738">
        <ele>2399</ele>
        <time>2019-02-27T11:13:48Z</time>
      </trkpt>
      <trkpt lat="42.74113" lon="0.1738">
        <ele>2399</ele>
        <time>2019-02-27T11:13:49Z</time>
      </trkpt>
      <trkpt lat="42.74113" lon="0.1738">
        <ele>2399</ele>
        <time>2019-02-27T11:13:50Z</time>
      </trkpt>
      <trkpt lat="42.74113" lon="0.1738">
        <ele>2399</ele>
        <time>2019-02-27T11:13:51Z</time>
      </trkpt>
      <trkpt lat="42.74113" lon="0.1738">
        <ele>2399</ele>
        <time>2019-02-27T11:13:52Z</time>
      </trkpt>
      <trkpt lat="42.74113" lon="0.1738">
        <ele>2399</ele>
        <time>2019-02-27T11:13:53Z</time>
      </trkpt>
      <trkpt lat="42.74113" lon="0.1738">
        <ele>2399</ele>
        <time>2019-02-27T11:13:54Z</time>
      </trkpt>
      <trkpt lat="42.74113" lon="0.1738">
        <ele>2399</ele>
        <time>2019-02-27T11:13:55Z</time>
      </trkpt>
      <trkpt lat="42.74113" lon="0.1738">
        <ele>2399</ele>
        <time>2019-02-27T11:13:56Z</time>
      </trkpt>
      <trkpt lat="42.74113" lon="0.1738">
        <ele>2399</ele>
        <time>2019-02-27T11:13:57Z</time>
      </trkpt>
      <trkpt lat="42.74113" lon="0.1738">
        <ele>2399</ele>
        <time>2019-02-27T11:13:58Z</time>
      </trkpt>
      <trkpt lat="42.74113" lon="0.1738">
        <ele>2399</ele>
        <time>2019-02-27T11:13:59Z</time>
      </trkpt>
      <trkpt lat="42.74113" lon="0.1738">
        <ele>2399</ele>
        <time>2019-02-27T11:14:00Z</time>
      </trkpt>
      <trkpt lat="42.74113" lon="0.1738">
        <ele>2399</ele>
        <time>2019-02-27T11:14:01Z</time>
      </trkpt>
      <trkpt lat="42.74113" lon="0.1738">
        <ele>2399</ele>
        <time>2019-02-27T11:14:02Z</time>
      </trkpt>
      <trkpt lat="42.74113" lon="0.1738">
        <ele>2399</ele>
        <time>2019-02-27T11:14:03Z</time>
      </trkpt>
      <trkpt lat="42.74113" lon="0.1738">
        <ele>2399</ele>
        <time>2019-02-27T11:14:04Z</time>
      </trkpt>
      <trkpt lat="42.74113" lon="0.1738">
        <ele>2399</ele>
        <time>2019-02-27T11:14:05Z</time>
      </trkpt>
      <trkpt lat="42.74113" lon="0.1738">
        <ele>2399</ele>
        <time>2019-02-27T11:14:06Z</time>
      </trkpt>
      <trkpt lat="42.74113" lon="0.1738">
        <ele>2399</ele>
        <time>2019-02-27T11:14:07Z</time>
      </trkpt>
      <trkpt lat="42.74113" lon="0.1738">
        <ele>2399</ele>
        <time>2019-02-27T11:14:08Z</time>
      </trkpt>
      <trkpt lat="42.74113" lon="0.1738">
        <ele>2399</ele>
        <time>2019-02-27T11:14:09Z</time>
      </trkpt>
      <trkpt lat="42.74113" lon="0.1738">
        <ele>2399</ele>
        <time>2019-02-27T11:14:10Z</time>
      </trkpt>
      <trkpt lat="42.74113" lon="0.1738">
        <ele>2399</ele>
        <time>2019-02-27T11:14:11Z</time>
      </trkpt>
      <trkpt lat="42.74113" lon="0.1738">
        <ele>2399</ele>
        <time>2019-02-27T11:14:12Z</time>
      </trkpt>
      <trkpt lat="42.74113" lon="0.1738">
        <ele>2399</ele>
        <time>2019-02-27T11:14:13Z</time>
      </trkpt>
      <trkpt lat="42.74113" lon="0.1738">
        <ele>2399</ele>
        <time>2019-02-27T11:14:14Z</time>
      </trkpt>
      <trkpt lat="42.74113" lon="0.1738">
        <ele>2399</ele>
        <time>2019-02-27T11:14:15Z</time>
      </trkpt>
      <trkpt lat="42.74113" lon="0.1738">
        <ele>2399</ele>
        <time>2019-02-27T11:14:16Z</time>
      </trkpt>
      <trkpt lat="42.74113" lon="0.1738">
        <ele>2399</ele>
        <time>2019-02-27T11:14:17Z</time>
      </trkpt>
      <trkpt lat="42.74113" lon="0.1738">
        <ele>2399</ele>
        <time>2019-02-27T11:14:18Z</time>
      </trkpt>
      <trkpt lat="42.74113" lon="0.1738">
        <ele>2399</ele>
        <time>2019-02-27T11:14:19Z</time>
      </trkpt>
      <trkpt lat="42.74113" lon="0.1738">
        <ele>2399</ele>
        <time>2019-02-27T11:14:20Z</time>
      </trkpt>
      <trkpt lat="42.74113" lon="0.1738">
        <ele>2399</ele>
        <time>2019-02-27T11:14:21Z</time>
      </trkpt>
      <trkpt lat="42.74113" lon="0.1738">
        <ele>2399</ele>
        <time>2019-02-27T11:14:22Z</time>
      </trkpt>
      <trkpt lat="42.74113" lon="0.1738">
        <ele>2399</ele>
        <time>2019-02-27T11:14:23Z</time>
      </trkpt>
      <trkpt lat="42.74113" lon="0.1738">
        <ele>2399</ele>
        <time>2019-02-27T11:14:24Z</time>
      </trkpt>
      <trkpt lat="42.74113" lon="0.1738">
        <ele>2399</ele>
        <time>2019-02-27T11:14:25Z</time>
      </trkpt>
      <trkpt lat="42.74113" lon="0.1738">
        <ele>2399</ele>
        <time>2019-02-27T11:14:26Z</time>
      </trkpt>
      <trkpt lat="42.74113" lon="0.1738">
        <ele>2399</ele>
        <time>2019-02-27T11:14:27Z</time>
      </trkpt>
      <trkpt lat="42.74113" lon="0.1738">
        <ele>2399</ele>
        <time>2019-02-27T11:14:28Z</time>
      </trkpt>
      <trkpt lat="42.74113" lon="0.1738">
        <ele>2399</ele>
        <time>2019-02-27T11:14:29Z</time>
      </trkpt>
      <trkpt lat="42.74113" lon="0.1738">
        <ele>2399</ele>
        <time>2019-02-27T11:14:30Z</time>
      </trkpt>
      <trkpt lat="42.74113" lon="0.1738">
        <ele>2399</ele>
        <time>2019-02-27T11:14:31Z</time>
      </trkpt>
      <trkpt lat="42.74113" lon="0.1738">
        <ele>2399</ele>
        <time>2019-02-27T11:14:32Z</time>
      </trkpt>
      <trkpt lat="42.74113" lon="0.1738">
        <ele>2399</ele>
        <time>2019-02-27T11:14:33Z</time>
      </trkpt>
      <trkpt lat="42.74113" lon="0.1738">
        <ele>2399</ele>
        <time>2019-02-27T11:14:34Z</time>
      </trkpt>
      <trkpt lat="42.74113" lon="0.1738">
        <ele>2399</ele>
        <time>2019-02-27T11:14:35Z</time>
      </trkpt>
      <trkpt lat="42.74113" lon="0.1738">
        <ele>2399</ele>
        <time>2019-02-27T11:14:36Z</time>
      </trkpt>
      <trkpt lat="42.74113" lon="0.1738">
        <ele>2399</ele>
        <time>2019-02-27T11:14:37Z</time>
      </trkpt>
      <trkpt lat="42.74113" lon="0.1738">
        <ele>2399</ele>
        <time>2019-02-27T11:14:38Z</time>
      </trkpt>
      <trkpt lat="42.74113" lon="0.1738">
        <ele>2399</ele>
        <time>2019-02-27T11:14:39Z</time>
      </trkpt>
      <trkpt lat="42.74113" lon="0.1738">
        <ele>2399</ele>
        <time>2019-02-27T11:14:40Z</time>
      </trkpt>
      <trkpt lat="42.74113" lon="0.1738">
        <ele>2399</ele>
        <time>2019-02-27T11:14:41Z</time>
      </trkpt>
      <trkpt lat="42.74113" lon="0.1738">
        <ele>2399</ele>
        <time>2019-02-27T11:14:42Z</time>
      </trkpt>
      <trkpt lat="42.74113" lon="0.1738">
        <ele>2399</ele>
        <time>2019-02-27T11:14:43Z</time>
      </trkpt>
      <trkpt lat="42.74113" lon="0.1738">
        <ele>2399</ele>
        <time>2019-02-27T11:14:44Z</time>
      </trkpt>
      <trkpt lat="42.74113" lon="0.1738">
        <ele>2399</ele>
        <time>2019-02-27T11:14:45Z</time>
      </trkpt>
      <trkpt lat="42.74113" lon="0.1738">
        <ele>2399</ele>
        <time>2019-02-27T11:14:46Z</time>
      </trkpt>
      <trkpt lat="42.74113" lon="0.1738">
        <ele>2399</ele>
        <time>2019-02-27T11:14:47Z</time>
      </trkpt>
      <trkpt lat="42.74113" lon="0.1738">
        <ele>2399</ele>
        <time>2019-02-27T11:14:48Z</time>
      </trkpt>
      <trkpt lat="42.74113" lon="0.1738">
        <ele>2399</ele>
        <time>2019-02-27T11:14:49Z</time>
      </trkpt>
      <trkpt lat="42.74113" lon="0.1738">
        <ele>2399</ele>
        <time>2019-02-27T11:14:50Z</time>
      </trkpt>
      <trkpt lat="42.74113" lon="0.1738">
        <ele>2399</ele>
        <time>2019-02-27T11:14:51Z</time>
      </trkpt>
      <trkpt lat="42.74113" lon="0.1738">
        <ele>2399</ele>
        <time>2019-02-27T11:14:52Z</time>
      </trkpt>
      <trkpt lat="42.74113" lon="0.1738">
        <ele>2399</ele>
        <time>2019-02-27T11:14:53Z</time>
      </trkpt>
      <trkpt lat="42.74113" lon="0.1738">
        <ele>2399</ele>
        <time>2019-02-27T11:14:54Z</time>
      </trkpt>
      <trkpt lat="42.74113" lon="0.1738">
        <ele>2399</ele>
        <time>2019-02-27T11:14:55Z</time>
      </trkpt>
      <trkpt lat="42.74113" lon="0.1738">
        <ele>2399</ele>
        <time>2019-02-27T11:14:56Z</time>
      </trkpt>
      <trkpt lat="42.74113" lon="0.1738">
        <ele>2399</ele>
        <time>2019-02-27T11:14:57Z</time>
      </trkpt>
      <trkpt lat="42.74113" lon="0.1738">
        <ele>2399</ele>
        <time>2019-02-27T11:14:58Z</time>
      </trkpt>
      <trkpt lat="42.74113" lon="0.1738">
        <ele>2399</ele>
        <time>2019-02-27T11:14:59Z</time>
      </trkpt>
      <trkpt lat="42.74113" lon="0.1738">
        <ele>2399</ele>
        <time>2019-02-27T11:15:00Z</time>
      </trkpt>
      <trkpt lat="42.74113" lon="0.1738">
        <ele>2399</ele>
        <time>2019-02-27T11:15:01Z</time>
      </trkpt>
      <trkpt lat="42.74113" lon="0.1738">
        <ele>2399</ele>
        <time>2019-02-27T11:15:02Z</time>
      </trkpt>
      <trkpt lat="42.74113" lon="0.1738">
        <ele>2399</ele>
        <time>2019-02-27T11:15:03Z</time>
      </trkpt>
      <trkpt lat="42.74113" lon="0.1738">
        <ele>2399</ele>
        <time>2019-02-27T11:15:04Z</time>
      </trkpt>
      <trkpt lat="42.74113" lon="0.1738">
        <ele>2399</ele>
        <time>2019-02-27T11:15:05Z</time>
      </trkpt>
      <trkpt lat="42.74113" lon="0.1738">
        <ele>2399</ele>
        <time>2019-02-27T11:15:06Z</time>
      </trkpt>
      <trkpt lat="42.74113" lon="0.1738">
        <ele>2399</ele>
        <time>2019-02-27T11:15:07Z</time>
      </trkpt>
      <trkpt lat="42.74113" lon="0.1738">
        <ele>2399</ele>
        <time>2019-02-27T11:15:08Z</time>
      </trkpt>
      <trkpt lat="42.74113" lon="0.1738">
        <ele>2399</ele>
        <time>2019-02-27T11:15:09Z</time>
      </trkpt>
      <trkpt lat="42.74113" lon="0.1738">
        <ele>2399</ele>
        <time>2019-02-27T11:15:10Z</time>
      </trkpt>
      <trkpt lat="42.74113" lon="0.1738">
        <ele>2399</ele>
        <time>2019-02-27T11:15:11Z</time>
      </trkpt>
      <trkpt lat="42.74113" lon="0.1738">
        <ele>2399</ele>
        <time>2019-02-27T11:15:12Z</time>
      </trkpt>
      <trkpt lat="42.74113" lon="0.1738">
        <ele>2399</ele>
        <time>2019-02-27T11:15:13Z</time>
      </trkpt>
      <trkpt lat="42.74113" lon="0.1738">
        <ele>2399</ele>
        <time>2019-02-27T11:15:14Z</time>
      </trkpt>
      <trkpt lat="42.74113" lon="0.1738">
        <ele>2399</ele>
        <time>2019-02-27T11:15:15Z</time>
      </trkpt>
      <trkpt lat="42.74113" lon="0.1738">
        <ele>2399</ele>
        <time>2019-02-27T11:15:16Z</time>
      </trkpt>
      <trkpt lat="42.74113" lon="0.1738">
        <ele>2399</ele>
        <time>2019-02-27T11:15:17Z</time>
      </trkpt>
      <trkpt lat="42.74113" lon="0.1738">
        <ele>2399</ele>
        <time>2019-02-27T11:15:18Z</time>
      </trkpt>
      <trkpt lat="42.74113" lon="0.1738">
        <ele>2399</ele>
        <time>2019-02-27T11:15:19Z</time>
      </trkpt>
      <trkpt lat="42.74113" lon="0.1738">
        <ele>2399</ele>
        <time>2019-02-27T11:15:20Z</time>
      </trkpt>
      <trkpt lat="42.74113" lon="0.1738">
        <ele>2399</ele>
        <time>2019-02-27T11:15:21Z</time>
      </trkpt>
      <trkpt lat="42.74113" lon="0.1738">
        <ele>2399</ele>
        <time>2019-02-27T11:15:22Z</time>
      </trkpt>
      <trkpt lat="42.74113" lon="0.1738">
        <ele>2399</ele>
        <time>2019-02-27T11:15:23Z</time>
      </trkpt>
      <trkpt lat="42.74113" lon="0.1738">
        <ele>2399</ele>
        <time>2019-02-27T11:15:24Z</time>
      </trkpt>
      <trkpt lat="42.74113" lon="0.1738">
        <ele>2399</ele>
        <time>2019-02-27T11:15:25Z</time>
      </trkpt>
      <trkpt lat="42.74113" lon="0.1738">
        <ele>2399</ele>
        <time>2019-02-27T11:15:26Z</time>
      </trkpt>
      <trkpt lat="42.74113" lon="0.1738">
        <ele>2399</ele>
        <time>2019-02-27T11:15:27Z</time>
      </trkpt>
      <trkpt lat="42.74113" lon="0.1738">
        <ele>2399</ele>
        <time>2019-02-27T11:15:28Z</time>
      </trkpt>
      <trkpt lat="42.74113" lon="0.1738">
        <ele>2399</ele>
        <time>2019-02-27T11:15:29Z</time>
      </trkpt>
      <trkpt lat="42.74113" lon="0.1738">
        <ele>2399</ele>
        <time>2019-02-27T11:15:30Z</time>
      </trkpt>
      <trkpt lat="42.74113" lon="0.1738">
        <ele>2399</ele>
        <time>2019-02-27T11:15:31Z</time>
      </trkpt>
      <trkpt lat="42.74113" lon="0.1738">
        <ele>2399</ele>
        <time>2019-02-27T11:15:32Z</time>
      </trkpt>
      <trkpt lat="42.74113" lon="0.1738">
        <ele>2399</ele>
        <time>2019-02-27T11:15:33Z</time>
      </trkpt>
      <trkpt lat="42.74113" lon="0.1738">
        <ele>2399</ele>
        <time>2019-02-27T11:15:34Z</time>
      </trkpt>
      <trkpt lat="42.74113" lon="0.1738">
        <ele>2399</ele>
        <time>2019-02-27T11:15:35Z</time>
      </trkpt>
      <trkpt lat="42.74113" lon="0.1738">
        <ele>2399</ele>
        <time>2019-02-27T11:15:36Z</time>
      </trkpt>
      <trkpt lat="42.74113" lon="0.1738">
        <ele>2399</ele>
        <time>2019-02-27T11:15:37Z</time>
      </trkpt>
      <trkpt lat="42.74113" lon="0.1738">
        <ele>2399</ele>
        <time>2019-02-27T11:15:38Z</time>
      </trkpt>
      <trkpt lat="42.74113" lon="0.1738">
        <ele>2399</ele>
        <time>2019-02-27T11:15:39Z</time>
      </trkpt>
      <trkpt lat="42.74113" lon="0.1738">
        <ele>2399</ele>
        <time>2019-02-27T11:15:40Z</time>
      </trkpt>
      <trkpt lat="42.74113" lon="0.1738">
        <ele>2399</ele>
        <time>2019-02-27T11:15:41Z</time>
      </trkpt>
      <trkpt lat="42.74113" lon="0.1738">
        <ele>2399</ele>
        <time>2019-02-27T11:15:42Z</time>
      </trkpt>
      <trkpt lat="42.74113" lon="0.1738">
        <ele>2399</ele>
        <time>2019-02-27T11:15:43Z</time>
      </trkpt>
      <trkpt lat="42.74113" lon="0.1738">
        <ele>2399</ele>
        <time>2019-02-27T11:15:44Z</time>
      </trkpt>
      <trkpt lat="42.74113" lon="0.1738">
        <ele>2399</ele>
        <time>2019-02-27T11:15:45Z</time>
      </trkpt>
      <trkpt lat="42.74113" lon="0.1738">
        <ele>2399</ele>
        <time>2019-02-27T11:15:46Z</time>
      </trkpt>
      <trkpt lat="42.74113" lon="0.1738">
        <ele>2399</ele>
        <time>2019-02-27T11:15:47Z</time>
      </trkpt>
      <trkpt lat="42.74113" lon="0.1738">
        <ele>2399</ele>
        <time>2019-02-27T11:15:48Z</time>
      </trkpt>
      <trkpt lat="42.74113" lon="0.1738">
        <ele>2399</ele>
        <time>2019-02-27T11:15:49Z</time>
      </trkpt>
      <trkpt lat="42.74113" lon="0.1738">
        <ele>2399</ele>
        <time>2019-02-27T11:15:50Z</time>
      </trkpt>
      <trkpt lat="42.74113" lon="0.1738">
        <ele>2399</ele>
        <time>2019-02-27T11:15:51Z</time>
      </trkpt>
      <trkpt lat="42.74113" lon="0.1738">
        <ele>2399</ele>
        <time>2019-02-27T11:15:52Z</time>
      </trkpt>
      <trkpt lat="42.74113" lon="0.1738">
        <ele>2399</ele>
        <time>2019-02-27T11:15:53Z</time>
      </trkpt>
      <trkpt lat="42.74113" lon="0.1738">
        <ele>2399</ele>
        <time>2019-02-27T11:15:54Z</time>
      </trkpt>
      <trkpt lat="42.74113" lon="0.1738">
        <ele>2399</ele>
        <time>2019-02-27T11:15:55Z</time>
      </trkpt>
      <trkpt lat="42.74113" lon="0.1738">
        <ele>2399</ele>
        <time>2019-02-27T11:15:56Z</time>
      </trkpt>
      <trkpt lat="42.74113" lon="0.1738">
        <ele>2399</ele>
        <time>2019-02-27T11:15:57Z</time>
      </trkpt>
      <trkpt lat="42.74113" lon="0.1738">
        <ele>2399</ele>
        <time>2019-02-27T11:15:58Z</time>
      </trkpt>
      <trkpt lat="42.74113" lon="0.1738">
        <ele>2399</ele>
        <time>2019-02-27T11:15:59Z</time>
      </trkpt>
      <trkpt lat="42.74113" lon="0.1738">
        <ele>2399</ele>
        <time>2019-02-27T11:16:00Z</time>
      </trkpt>
      <trkpt lat="42.74113" lon="0.1738">
        <ele>2399</ele>
        <time>2019-02-27T11:16:01Z</time>
      </trkpt>
      <trkpt lat="42.74113" lon="0.1738">
        <ele>2399</ele>
        <time>2019-02-27T11:16:02Z</time>
      </trkpt>
      <trkpt lat="42.74113" lon="0.1738">
        <ele>2399</ele>
        <time>2019-02-27T11:16:03Z</time>
      </trkpt>
      <trkpt lat="42.74113" lon="0.1738">
        <ele>2399</ele>
        <time>2019-02-27T11:16:04Z</time>
      </trkpt>
      <trkpt lat="42.74113" lon="0.1738">
        <ele>2399</ele>
        <time>2019-02-27T11:16:05Z</time>
      </trkpt>
      <trkpt lat="42.74113" lon="0.1738">
        <ele>2399</ele>
        <time>2019-02-27T11:16:06Z</time>
      </trkpt>
      <trkpt lat="42.74113" lon="0.1738">
        <ele>2399</ele>
        <time>2019-02-27T11:16:07Z</time>
      </trkpt>
      <trkpt lat="42.74113" lon="0.1738">
        <ele>2399</ele>
        <time>2019-02-27T11:16:08Z</time>
      </trkpt>
      <trkpt lat="42.74113" lon="0.1738">
        <ele>2399</ele>
        <time>2019-02-27T11:16:09Z</time>
      </trkpt>
      <trkpt lat="42.74113" lon="0.1738">
        <ele>2399</ele>
        <time>2019-02-27T11:16:10Z</time>
      </trkpt>
      <trkpt lat="42.74113" lon="0.1738">
        <ele>2399</ele>
        <time>2019-02-27T11:16:11Z</time>
      </trkpt>
      <trkpt lat="42.74113" lon="0.1738">
        <ele>2399</ele>
        <time>2019-02-27T11:16:12Z</time>
      </trkpt>
      <trkpt lat="42.74113" lon="0.1738">
        <ele>2399</ele>
        <time>2019-02-27T11:16:13Z</time>
      </trkpt>
      <trkpt lat="42.74113" lon="0.1738">
        <ele>2399</ele>
        <time>2019-02-27T11:16:14Z</time>
      </trkpt>
      <trkpt lat="42.74113" lon="0.1738">
        <ele>2399</ele>
        <time>2019-02-27T11:16:15Z</time>
      </trkpt>
      <trkpt lat="42.74113" lon="0.1738">
        <ele>2399</ele>
        <time>2019-02-27T11:16:16Z</time>
      </trkpt>
      <trkpt lat="42.74113" lon="0.1738">
        <ele>2399</ele>
        <time>2019-02-27T11:16:17Z</time>
      </trkpt>
      <trkpt lat="42.74113" lon="0.1738">
        <ele>2399</ele>
        <time>2019-02-27T11:16:18Z</time>
      </trkpt>
      <trkpt lat="42.74113" lon="0.1738">
        <ele>2399</ele>
        <time>2019-02-27T11:16:19Z</time>
      </trkpt>
      <trkpt lat="42.74113" lon="0.1738">
        <ele>2399</ele>
        <time>2019-02-27T11:16:20Z</time>
      </trkpt>
      <trkpt lat="42.74113" lon="0.1738">
        <ele>2399</ele>
        <time>2019-02-27T11:16:21Z</time>
      </trkpt>
      <trkpt lat="42.74113" lon="0.1738">
        <ele>2399</ele>
        <time>2019-02-27T11:16:22Z</time>
      </trkpt>
      <trkpt lat="42.74113" lon="0.1738">
        <ele>2399</ele>
        <time>2019-02-27T11:16:23Z</time>
      </trkpt>
      <trkpt lat="42.74113" lon="0.1738">
        <ele>2399</ele>
        <time>2019-02-27T11:16:24Z</time>
      </trkpt>
      <trkpt lat="42.74113" lon="0.1738">
        <ele>2399</ele>
        <time>2019-02-27T11:16:25Z</time>
      </trkpt>
      <trkpt lat="42.74113" lon="0.1738">
        <ele>2399</ele>
        <time>2019-02-27T11:16:26Z</time>
      </trkpt>
      <trkpt lat="42.74113" lon="0.1738">
        <ele>2399</ele>
        <time>2019-02-27T11:16:27Z</time>
      </trkpt>
      <trkpt lat="42.74113" lon="0.1738">
        <ele>2399</ele>
        <time>2019-02-27T11:16:28Z</time>
      </trkpt>
      <trkpt lat="42.74113" lon="0.1738">
        <ele>2399</ele>
        <time>2019-02-27T11:16:29Z</time>
      </trkpt>
      <trkpt lat="42.74113" lon="0.1738">
        <ele>2399</ele>
        <time>2019-02-27T11:16:30Z</time>
      </trkpt>
      <trkpt lat="42.74113" lon="0.1738">
        <ele>2399</ele>
        <time>2019-02-27T11:16:31Z</time>
      </trkpt>
      <trkpt lat="42.74113" lon="0.1738">
        <ele>2399</ele>
        <time>2019-02-27T11:16:32Z</time>
      </trkpt>
      <trkpt lat="42.74113" lon="0.1738">
        <ele>2399</ele>
        <time>2019-02-27T11:16:33Z</time>
      </trkpt>
      <trkpt lat="42.74113" lon="0.1738">
        <ele>2399</ele>
        <time>2019-02-27T11:16:34Z</time>
      </trkpt>
      <trkpt lat="42.74113" lon="0.1738">
        <ele>2399</ele>
        <time>2019-02-27T11:16:35Z</time>
      </trkpt>
      <trkpt lat="42.74113" lon="0.1738">
        <ele>2399</ele>
        <time>2019-02-27T11:16:36Z</time>
      </trkpt>
      <trkpt lat="42.74113" lon="0.1738">
        <ele>2399</ele>
        <time>2019-02-27T11:16:37Z</time>
      </trkpt>
      <trkpt lat="42.74113" lon="0.1738">
        <ele>2399</ele>
        <time>2019-02-27T11:16:38Z</time>
      </trkpt>
      <trkpt lat="42.74113" lon="0.1738">
        <ele>2399</ele>
        <time>2019-02-27T11:16:39Z</time>
      </trkpt>
      <trkpt lat="42.74113" lon="0.1738">
        <ele>2399</ele>
        <time>2019-02-27T11:16:40Z</time>
      </trkpt>
      <trkpt lat="42.74113" lon="0.1738">
        <ele>2399</ele>
        <time>2019-02-27T11:16:41Z</time>
      </trkpt>
      <trkpt lat="42.74113" lon="0.1738">
        <ele>2399</ele>
        <time>2019-02-27T11:16:42Z</time>
      </trkpt>
      <trkpt lat="42.74113" lon="0.1738">
        <ele>2399</ele>
        <time>2019-02-27T11:16:43Z</time>
      </trkpt>
      <trkpt lat="42.74113" lon="0.1738">
        <ele>2399</ele>
        <time>2019-02-27T11:16:44Z</time>
      </trkpt>
      <trkpt lat="42.74113" lon="0.1738">
        <ele>2399</ele>
        <time>2019-02-27T11:16:45Z</time>
      </trkpt>
      <trkpt lat="42.74113" lon="0.1738">
        <ele>2399</ele>
        <time>2019-02-27T11:16:46Z</time>
      </trkpt>
      <trkpt lat="42.74113" lon="0.1738">
        <ele>2399</ele>
        <time>2019-02-27T11:16:47Z</time>
      </trkpt>
      <trkpt lat="42.74113" lon="0.1738">
        <ele>2399</ele>
        <time>2019-02-27T11:16:48Z</time>
      </trkpt>
      <trkpt lat="42.74113" lon="0.1738">
        <ele>2399</ele>
        <time>2019-02-27T11:16:49Z</time>
      </trkpt>
      <trkpt lat="42.74113" lon="0.1738">
        <ele>2399</ele>
        <time>2019-02-27T11:16:50Z</time>
      </trkpt>
      <trkpt lat="42.74113" lon="0.1738">
        <ele>2399</ele>
        <time>2019-02-27T11:16:51Z</time>
      </trkpt>
      <trkpt lat="42.74113" lon="0.1738">
        <ele>2399</ele>
        <time>2019-02-27T11:16:52Z</time>
      </trkpt>
      <trkpt lat="42.74113" lon="0.1738">
        <ele>2399</ele>
        <time>2019-02-27T11:16:53Z</time>
      </trkpt>
      <trkpt lat="42.74113" lon="0.1738">
        <ele>2399</ele>
        <time>2019-02-27T11:16:54Z</time>
      </trkpt>
      <trkpt lat="42.74113" lon="0.1738">
        <ele>2399</ele>
        <time>2019-02-27T11:16:55Z</time>
      </trkpt>
      <trkpt lat="42.74113" lon="0.1738">
        <ele>2399</ele>
        <time>2019-02-27T11:16:56Z</time>
      </trkpt>
      <trkpt lat="42.74113" lon="0.1738">
        <ele>2399</ele>
        <time>2019-02-27T11:16:57Z</time>
      </trkpt>
      <trkpt lat="42.74113" lon="0.1738">
        <ele>2399</ele>
        <time>2019-02-27T11:16:58Z</time>
      </trkpt>
      <trkpt lat="42.74113" lon="0.1738">
        <ele>2399</ele>
        <time>2019-02-27T11:16:59Z</time>
      </trkpt>
      <trkpt lat="42.74113" lon="0.1738">
        <ele>2399</ele>
        <time>2019-02-27T11:17:00Z</time>
      </trkpt>
      <trkpt lat="42.74113" lon="0.1738">
        <ele>2399</ele>
        <time>2019-02-27T11:17:01Z</time>
      </trkpt>
      <trkpt lat="42.74113" lon="0.1738">
        <ele>2399</ele>
        <time>2019-02-27T11:17:02Z</time>
      </trkpt>
      <trkpt lat="42.74113" lon="0.1738">
        <ele>2399</ele>
        <time>2019-02-27T11:17:03Z</time>
      </trkpt>
      <trkpt lat="42.74113" lon="0.1738">
        <ele>2399</ele>
        <time>2019-02-27T11:17:04Z</time>
      </trkpt>
      <trkpt lat="42.74113" lon="0.1738">
        <ele>2399</ele>
        <time>2019-02-27T11:17:05Z</time>
      </trkpt>
      <trkpt lat="42.74113" lon="0.1738">
        <ele>2399</ele>
        <time>2019-02-27T11:17:06Z</time>
      </trkpt>
      <trkpt lat="42.74113" lon="0.1738">
        <ele>2399</ele>
        <time>2019-02-27T11:17:07Z</time>
      </trkpt>
      <trkpt lat="42.74113" lon="0.1738">
        <ele>2399</ele>
        <time>2019-02-27T11:17:08Z</time>
      </trkpt>
      <trkpt lat="42.74113" lon="0.1738">
        <ele>2399</ele>
        <time>2019-02-27T11:17:09Z</time>
      </trkpt>
      <trkpt lat="42.74113" lon="0.1738">
        <ele>2399</ele>
        <time>2019-02-27T11:17:10Z</time>
      </trkpt>
      <trkpt lat="42.74113" lon="0.1738">
        <ele>2399</ele>
        <time>2019-02-27T11:17:11Z</time>
      </trkpt>
      <trkpt lat="42.74113" lon="0.1738">
        <ele>2399</ele>
        <time>2019-02-27T11:17:12Z</time>
      </trkpt>
      <trkpt lat="42.74113" lon="0.1738">
        <ele>2399</ele>
        <time>2019-02-27T11:17:13Z</time>
      </trkpt>
      <trkpt lat="42.74113" lon="0.1738">
        <ele>2399</ele>
        <time>2019-02-27T11:17:14Z</time>
      </trkpt>
      <trkpt lat="42.74113" lon="0.1738">
        <ele>2399</ele>
        <time>2019-02-27T11:17:15Z</time>
      </trkpt>
      <trkpt lat="42.74113" lon="0.1738">
        <ele>2399</ele>
        <time>2019-02-27T11:17:16Z</time>
      </trkpt>
      <trkpt lat="42.74113" lon="0.1738">
        <ele>2399</ele>
        <time>2019-02-27T11:17:17Z</time>
      </trkpt>
      <trkpt lat="42.74113" lon="0.1738">
        <ele>2399</ele>
        <time>2019-02-27T11:17:18Z</time>
      </trkpt>
      <trkpt lat="42.74113" lon="0.1738">
        <ele>2399</ele>
        <time>2019-02-27T11:17:19Z</time>
      </trkpt>
      <trkpt lat="42.74113" lon="0.1738">
        <ele>2399</ele>
        <time>2019-02-27T11:17:20Z</time>
      </trkpt>
      <trkpt lat="42.74113" lon="0.1738">
        <ele>2399</ele>
        <time>2019-02-27T11:17:21Z</time>
      </trkpt>
      <trkpt lat="42.74113" lon="0.1738">
        <ele>2399</ele>
        <time>2019-02-27T11:17:22Z</time>
      </trkpt>
      <trkpt lat="42.74113" lon="0.1738">
        <ele>2399</ele>
        <time>2019-02-27T11:17:23Z</time>
      </trkpt>
      <trkpt lat="42.74113" lon="0.1738">
        <ele>2399</ele>
        <time>2019-02-27T11:17:24Z</time>
      </trkpt>
      <trkpt lat="42.74113" lon="0.1738">
        <ele>2399</ele>
        <time>2019-02-27T11:17:25Z</time>
      </trkpt>
      <trkpt lat="42.74113" lon="0.1738">
        <ele>2399</ele>
        <time>2019-02-27T11:17:26Z</time>
      </trkpt>
      <trkpt lat="42.74113" lon="0.1738">
        <ele>2399</ele>
        <time>2019-02-27T11:17:27Z</time>
      </trkpt>
      <trkpt lat="42.74113" lon="0.1738">
        <ele>2399</ele>
        <time>2019-02-27T11:17:28Z</time>
      </trkpt>
      <trkpt lat="42.74113" lon="0.1738">
        <ele>2399</ele>
        <time>2019-02-27T11:17:29Z</time>
      </trkpt>
      <trkpt lat="42.74113" lon="0.1738">
        <ele>2399</ele>
        <time>2019-02-27T11:17:30Z</time>
      </trkpt>
      <trkpt lat="42.74113" lon="0.1738">
        <ele>2399</ele>
        <time>2019-02-27T11:17:31Z</time>
      </trkpt>
      <trkpt lat="42.74113" lon="0.1738">
        <ele>2399</ele>
        <time>2019-02-27T11:17:32Z</time>
      </trkpt>
      <trkpt lat="42.74113" lon="0.1738">
        <ele>2399</ele>
        <time>2019-02-27T11:17:33Z</time>
      </trkpt>
      <trkpt lat="42.74113" lon="0.1738">
        <ele>2399</ele>
        <time>2019-02-27T11:17:34Z</time>
      </trkpt>
      <trkpt lat="42.74113" lon="0.1738">
        <ele>2399</ele>
        <time>2019-02-27T11:17:35Z</time>
      </trkpt>
      <trkpt lat="42.74113" lon="0.1738">
        <ele>2399</ele>
        <time>2019-02-27T11:17:36Z</time>
      </trkpt>
      <trkpt lat="42.74113" lon="0.1738">
        <ele>2399</ele>
        <time>2019-02-27T11:17:37Z</time>
      </trkpt>
      <trkpt lat="42.74113" lon="0.1738">
        <ele>2399</ele>
        <time>2019-02-27T11:17:38Z</time>
      </trkpt>
      <trkpt lat="42.74113" lon="0.1738">
        <ele>2399</ele>
        <time>2019-02-27T11:17:39Z</time>
      </trkpt>
      <trkpt lat="42.74113" lon="0.1738">
        <ele>2399</ele>
        <time>2019-02-27T11:17:40Z</time>
      </trkpt>
      <trkpt lat="42.74113" lon="0.1738">
        <ele>2399</ele>
        <time>2019-02-27T11:17:41Z</time>
      </trkpt>
      <trkpt lat="42.74113" lon="0.1738">
        <ele>2399</ele>
        <time>2019-02-27T11:17:42Z</time>
      </trkpt>
      <trkpt lat="42.74113" lon="0.1738">
        <ele>2399</ele>
        <time>2019-02-27T11:17:43Z</time>
      </trkpt>
      <trkpt lat="42.74113" lon="0.1738">
        <ele>2399</ele>
        <time>2019-02-27T11:17:44Z</time>
      </trkpt>
      <trkpt lat="42.74113" lon="0.1738">
        <ele>2399</ele>
        <time>2019-02-27T11:17:45Z</time>
      </trkpt>
      <trkpt lat="42.74113" lon="0.1738">
        <ele>2399</ele>
        <time>2019-02-27T11:17:46Z</time>
      </trkpt>
      <trkpt lat="42.74113" lon="0.1738">
        <ele>2399</ele>
        <time>2019-02-27T11:17:47Z</time>
      </trkpt>
      <trkpt lat="42.74113" lon="0.1738">
        <ele>2399</ele>
        <time>2019-02-27T11:17:48Z</time>
      </trkpt>
      <trkpt lat="42.74113" lon="0.1738">
        <ele>2399</ele>
        <time>2019-02-27T11:17:49Z</time>
      </trkpt>
      <trkpt lat="42.74113" lon="0.1738">
        <ele>2399</ele>
        <time>2019-02-27T11:17:50Z</time>
      </trkpt>
      <trkpt lat="42.74113" lon="0.1738">
        <ele>2399</ele>
        <time>2019-02-27T11:17:51Z</time>
      </trkpt>
      <trkpt lat="42.74113" lon="0.1738">
        <ele>2399</ele>
        <time>2019-02-27T11:17:52Z</time>
      </trkpt>
      <trkpt lat="42.74113" lon="0.1738">
        <ele>2399</ele>
        <time>2019-02-27T11:17:53Z</time>
      </trkpt>
      <trkpt lat="42.74113" lon="0.1738">
        <ele>2399</ele>
        <time>2019-02-27T11:17:54Z</time>
      </trkpt>
      <trkpt lat="42.74113" lon="0.1738">
        <ele>2399</ele>
        <time>2019-02-27T11:17:55Z</time>
      </trkpt>
      <trkpt lat="42.74113" lon="0.1738">
        <ele>2399</ele>
        <time>2019-02-27T11:17:56Z</time>
      </trkpt>
      <trkpt lat="42.74113" lon="0.1738">
        <ele>2399</ele>
        <time>2019-02-27T11:17:57Z</time>
      </trkpt>
      <trkpt lat="42.74113" lon="0.1738">
        <ele>2399</ele>
        <time>2019-02-27T11:17:58Z</time>
      </trkpt>
      <trkpt lat="42.74113" lon="0.1738">
        <ele>2399</ele>
        <time>2019-02-27T11:17:59Z</time>
      </trkpt>
      <trkpt lat="42.74113" lon="0.1738">
        <ele>2399</ele>
        <time>2019-02-27T11:18:00Z</time>
      </trkpt>
      <trkpt lat="42.74113" lon="0.1738">
        <ele>2399</ele>
        <time>2019-02-27T11:18:01Z</time>
      </trkpt>
      <trkpt lat="42.74113" lon="0.1738">
        <ele>2399</ele>
        <time>2019-02-27T11:18:02Z</time>
      </trkpt>
      <trkpt lat="42.74113" lon="0.1738">
        <ele>2399</ele>
        <time>2019-02-27T11:18:03Z</time>
      </trkpt>
      <trkpt lat="42.74113" lon="0.1738">
        <ele>2399</ele>
        <time>2019-02-27T11:18:04Z</time>
      </trkpt>
      <trkpt lat="42.74113" lon="0.1738">
        <ele>2399</ele>
        <time>2019-02-27T11:18:05Z</time>
      </trkpt>
      <trkpt lat="42.74113" lon="0.1738">
        <ele>2399</ele>
        <time>2019-02-27T11:18:06Z</time>
      </trkpt>
      <trkpt lat="42.74113" lon="0.1738">
        <ele>2399</ele>
        <time>2019-02-27T11:18:07Z</time>
      </trkpt>
      <trkpt lat="42.74113" lon="0.1738">
        <ele>2399</ele>
        <time>2019-02-27T11:18:08Z</time>
      </trkpt>
      <trkpt lat="42.74113" lon="0.1738">
        <ele>2399</ele>
        <time>2019-02-27T11:18:09Z</time>
      </trkpt>
      <trkpt lat="42.74113" lon="0.1738">
        <ele>2399</ele>
        <time>2019-02-27T11:18:10Z</time>
      </trkpt>
      <trkpt lat="42.74113" lon="0.1738">
        <ele>2399</ele>
        <time>2019-02-27T11:18:11Z</time>
      </trkpt>
      <trkpt lat="42.74113" lon="0.1738">
        <ele>2399</ele>
        <time>2019-02-27T11:18:12Z</time>
      </trkpt>
      <trkpt lat="42.74113" lon="0.1738">
        <ele>2399</ele>
        <time>2019-02-27T11:18:13Z</time>
      </trkpt>
      <trkpt lat="42.74113" lon="0.1738">
        <ele>2399</ele>
        <time>2019-02-27T11:18:14Z</time>
      </trkpt>
      <trkpt lat="42.74113" lon="0.1738">
        <ele>2399</ele>
        <time>2019-02-27T11:18:15Z</time>
      </trkpt>
      <trkpt lat="42.74113" lon="0.1738">
        <ele>2399</ele>
        <time>2019-02-27T11:18:16Z</time>
      </trkpt>
      <trkpt lat="42.74113" lon="0.1738">
        <ele>2399</ele>
        <time>2019-02-27T11:18:17Z</time>
      </trkpt>
      <trkpt lat="42.74113" lon="0.1738">
        <ele>2399</ele>
        <time>2019-02-27T11:18:18Z</time>
      </trkpt>
      <trkpt lat="42.74113" lon="0.1738">
        <ele>2399</ele>
        <time>2019-02-27T11:18:19Z</time>
      </trkpt>
      <trkpt lat="42.74113" lon="0.1738">
        <ele>2399</ele>
        <time>2019-02-27T11:18:20Z</time>
      </trkpt>
      <trkpt lat="42.74113" lon="0.1738">
        <ele>2399</ele>
        <time>2019-02-27T11:18:21Z</time>
      </trkpt>
      <trkpt lat="42.74113" lon="0.1738">
        <ele>2399</ele>
        <time>2019-02-27T11:18:22Z</time>
      </trkpt>
      <trkpt lat="42.74113" lon="0.1738">
        <ele>2399</ele>
        <time>2019-02-27T11:18:23Z</time>
      </trkpt>
      <trkpt lat="42.74113" lon="0.1738">
        <ele>2399</ele>
        <time>2019-02-27T11:18:24Z</time>
      </trkpt>
      <trkpt lat="42.74113" lon="0.1738">
        <ele>2399</ele>
        <time>2019-02-27T11:18:25Z</time>
      </trkpt>
      <trkpt lat="42.74113" lon="0.1738">
        <ele>2399</ele>
        <time>2019-02-27T11:18:26Z</time>
      </trkpt>
      <trkpt lat="42.74113" lon="0.1738">
        <ele>2399</ele>
        <time>2019-02-27T11:18:27Z</time>
      </trkpt>
      <trkpt lat="42.74113" lon="0.1738">
        <ele>2399</ele>
        <time>2019-02-27T11:18:28Z</time>
      </trkpt>
      <trkpt lat="42.74113" lon="0.1738">
        <ele>2399</ele>
        <time>2019-02-27T11:18:29Z</time>
      </trkpt>
      <trkpt lat="42.74113" lon="0.1738">
        <ele>2399</ele>
        <time>2019-02-27T11:18:30Z</time>
      </trkpt>
      <trkpt lat="42.74113" lon="0.1738">
        <ele>2399</ele>
        <time>2019-02-27T11:18:31Z</time>
      </trkpt>
      <trkpt lat="42.74113" lon="0.1738">
        <ele>2399</ele>
        <time>2019-02-27T11:18:32Z</time>
      </trkpt>
      <trkpt lat="42.74113" lon="0.1738">
        <ele>2399</ele>
        <time>2019-02-27T11:18:33Z</time>
      </trkpt>
      <trkpt lat="42.74113" lon="0.1738">
        <ele>2399</ele>
        <time>2019-02-27T11:18:34Z</time>
      </trkpt>
      <trkpt lat="42.74113" lon="0.1738">
        <ele>2399</ele>
        <time>2019-02-27T11:18:35Z</time>
      </trkpt>
      <trkpt lat="42.74113" lon="0.1738">
        <ele>2399</ele>
        <time>2019-02-27T11:18:36Z</time>
      </trkpt>
      <trkpt lat="42.74113" lon="0.1738">
        <ele>2399</ele>
        <time>2019-02-27T11:18:37Z</time>
      </trkpt>
      <trkpt lat="42.74113" lon="0.1738">
        <ele>2399</ele>
        <time>2019-02-27T11:18:38Z</time>
      </trkpt>
      <trkpt lat="42.74113" lon="0.1738">
        <ele>2399</ele>
        <time>2019-02-27T11:18:39Z</time>
      </trkpt>
      <trkpt lat="42.74113" lon="0.1738">
        <ele>2399</ele>
        <time>2019-02-27T11:18:40Z</time>
      </trkpt>
      <trkpt lat="42.74113" lon="0.1738">
        <ele>2399</ele>
        <time>2019-02-27T11:18:41Z</time>
      </trkpt>
      <trkpt lat="42.74113" lon="0.1738">
        <ele>2399</ele>
        <time>2019-02-27T11:18:42Z</time>
      </trkpt>
      <trkpt lat="42.74113" lon="0.1738">
        <ele>2399</ele>
        <time>2019-02-27T11:18:43Z</time>
      </trkpt>
      <trkpt lat="42.74114" lon="0.17377">
        <ele>2399</ele>
        <time>2019-02-27T11:18:44Z</time>
      </trkpt>
      <trkpt lat="42.74114" lon="0.17377">
        <ele>2399</ele>
        <time>2019-02-27T11:18:45Z</time>
      </trkpt>
      <trkpt lat="42.74114" lon="0.17377">
        <ele>2399</ele>
        <time>2019-02-27T11:18:46Z</time>
      </trkpt>
      <trkpt lat="42.74114" lon="0.17377">
        <ele>2399</ele>
        <time>2019-02-27T11:18:47Z</time>
      </trkpt>
      <trkpt lat="42.74114" lon="0.17377">
        <ele>2399</ele>
        <time>2019-02-27T11:18:48Z</time>
      </trkpt>
      <trkpt lat="42.74114" lon="0.17377">
        <ele>2399</ele>
        <time>2019-02-27T11:18:49Z</time>
      </trkpt>
      <trkpt lat="42.74114" lon="0.17377">
        <ele>2399</ele>
        <time>2019-02-27T11:18:50Z</time>
      </trkpt>
      <trkpt lat="42.74114" lon="0.17377">
        <ele>2399</ele>
        <time>2019-02-27T11:18:51Z</time>
      </trkpt>
      <trkpt lat="42.74114" lon="0.17377">
        <ele>2399</ele>
        <time>2019-02-27T11:18:52Z</time>
      </trkpt>
      <trkpt lat="42.74114" lon="0.17377">
        <ele>2399</ele>
        <time>2019-02-27T11:18:53Z</time>
      </trkpt>
      <trkpt lat="42.74114" lon="0.17377">
        <ele>2399</ele>
        <time>2019-02-27T11:18:54Z</time>
      </trkpt>
      <trkpt lat="42.74114" lon="0.17377">
        <ele>2399</ele>
        <time>2019-02-27T11:18:55Z</time>
      </trkpt>
      <trkpt lat="42.74114" lon="0.17377">
        <ele>2399</ele>
        <time>2019-02-27T11:18:56Z</time>
      </trkpt>
      <trkpt lat="42.74114" lon="0.17377">
        <ele>2399</ele>
        <time>2019-02-27T11:18:57Z</time>
      </trkpt>
      <trkpt lat="42.74114" lon="0.17377">
        <ele>2399</ele>
        <time>2019-02-27T11:18:58Z</time>
      </trkpt>
      <trkpt lat="42.74114" lon="0.17377">
        <ele>2399</ele>
        <time>2019-02-27T11:18:59Z</time>
      </trkpt>
      <trkpt lat="42.74114" lon="0.17375">
        <ele>2399</ele>
        <time>2019-02-27T11:19:00Z</time>
      </trkpt>
      <trkpt lat="42.74114" lon="0.17375">
        <ele>2399</ele>
        <time>2019-02-27T11:19:01Z</time>
      </trkpt>
      <trkpt lat="42.74114" lon="0.17375">
        <ele>2399</ele>
        <time>2019-02-27T11:19:02Z</time>
      </trkpt>
      <trkpt lat="42.74114" lon="0.17375">
        <ele>2399</ele>
        <time>2019-02-27T11:19:03Z</time>
      </trkpt>
      <trkpt lat="42.74115" lon="0.17372">
        <ele>2399</ele>
        <time>2019-02-27T11:19:04Z</time>
      </trkpt>
      <trkpt lat="42.74115" lon="0.17372">
        <ele>2399</ele>
        <time>2019-02-27T11:19:05Z</time>
      </trkpt>
      <trkpt lat="42.74115" lon="0.17372">
        <ele>2396</ele>
        <time>2019-02-27T11:19:06Z</time>
      </trkpt>
      <trkpt lat="42.74115" lon="0.17372">
        <ele>2396</ele>
        <time>2019-02-27T11:19:07Z</time>
      </trkpt>
      <trkpt lat="42.74115" lon="0.17372">
        <ele>2396</ele>
        <time>2019-02-27T11:19:08Z</time>
      </trkpt>
      <trkpt lat="42.74115" lon="0.17372">
        <ele>2396</ele>
        <time>2019-02-27T11:19:09Z</time>
      </trkpt>
      <trkpt lat="42.74115" lon="0.17372">
        <ele>2396</ele>
        <time>2019-02-27T11:19:10Z</time>
      </trkpt>
      <trkpt lat="42.74115" lon="0.17372">
        <ele>2396</ele>
        <time>2019-02-27T11:19:11Z</time>
      </trkpt>
      <trkpt lat="42.74115" lon="0.17372">
        <ele>2396</ele>
        <time>2019-02-27T11:19:12Z</time>
      </trkpt>
      <trkpt lat="42.74115" lon="0.17372">
        <ele>2396</ele>
        <time>2019-02-27T11:19:13Z</time>
      </trkpt>
      <trkpt lat="42.74115" lon="0.17372">
        <ele>2396</ele>
        <time>2019-02-27T11:19:14Z</time>
      </trkpt>
      <trkpt lat="42.74115" lon="0.17372">
        <ele>2396</ele>
        <time>2019-02-27T11:19:15Z</time>
      </trkpt>
      <trkpt lat="42.74115" lon="0.17372">
        <ele>2396</ele>
        <time>2019-02-27T11:19:16Z</time>
      </trkpt>
      <trkpt lat="42.74115" lon="0.17372">
        <ele>2396</ele>
        <time>2019-02-27T11:19:17Z</time>
      </trkpt>
      <trkpt lat="42.74115" lon="0.17372">
        <ele>2396</ele>
        <time>2019-02-27T11:19:18Z</time>
      </trkpt>
      <trkpt lat="42.74116" lon="0.1737">
        <ele>2396</ele>
        <time>2019-02-27T11:19:19Z</time>
      </trkpt>
      <trkpt lat="42.74116" lon="0.1737">
        <ele>2395</ele>
        <time>2019-02-27T11:19:20Z</time>
      </trkpt>
      <trkpt lat="42.74116" lon="0.1737">
        <ele>2395</ele>
        <time>2019-02-27T11:19:21Z</time>
      </trkpt>
      <trkpt lat="42.74116" lon="0.1737">
        <ele>2395</ele>
        <time>2019-02-27T11:19:22Z</time>
      </trkpt>
      <trkpt lat="42.74116" lon="0.17367">
        <ele>2395</ele>
        <time>2019-02-27T11:19:23Z</time>
      </trkpt>
      <trkpt lat="42.74116" lon="0.17367">
        <ele>2395</ele>
        <time>2019-02-27T11:19:24Z</time>
      </trkpt>
      <trkpt lat="42.74116" lon="0.17367">
        <ele>2395</ele>
        <time>2019-02-27T11:19:25Z</time>
      </trkpt>
      <trkpt lat="42.74116" lon="0.17367">
        <ele>2394</ele>
        <time>2019-02-27T11:19:26Z</time>
      </trkpt>
      <trkpt lat="42.74115" lon="0.17365">
        <ele>2394</ele>
        <time>2019-02-27T11:19:27Z</time>
      </trkpt>
      <trkpt lat="42.74115" lon="0.17365">
        <ele>2394</ele>
        <time>2019-02-27T11:19:28Z</time>
      </trkpt>
      <trkpt lat="42.74115" lon="0.17365">
        <ele>2394</ele>
        <time>2019-02-27T11:19:29Z</time>
      </trkpt>
      <trkpt lat="42.74115" lon="0.17365">
        <ele>2394</ele>
        <time>2019-02-27T11:19:30Z</time>
      </trkpt>
      <trkpt lat="42.74115" lon="0.17362">
        <ele>2394</ele>
        <time>2019-02-27T11:19:31Z</time>
      </trkpt>
      <trkpt lat="42.74115" lon="0.17362">
        <ele>2394</ele>
        <time>2019-02-27T11:19:32Z</time>
      </trkpt>
      <trkpt lat="42.74115" lon="0.17362">
        <ele>2394</ele>
        <time>2019-02-27T11:19:33Z</time>
      </trkpt>
      <trkpt lat="42.74115" lon="0.17362">
        <ele>2393</ele>
        <time>2019-02-27T11:19:34Z</time>
      </trkpt>
      <trkpt lat="42.74115" lon="0.17362">
        <ele>2393</ele>
        <time>2019-02-27T11:19:35Z</time>
      </trkpt>
      <trkpt lat="42.74115" lon="0.17362">
        <ele>2393</ele>
        <time>2019-02-27T11:19:36Z</time>
      </trkpt>
      <trkpt lat="42.74115" lon="0.17359">
        <ele>2393</ele>
        <time>2019-02-27T11:19:37Z</time>
      </trkpt>
      <trkpt lat="42.74115" lon="0.17359">
        <ele>2392</ele>
        <time>2019-02-27T11:19:38Z</time>
      </trkpt>
      <trkpt lat="42.74115" lon="0.17359">
        <ele>2392</ele>
        <time>2019-02-27T11:19:39Z</time>
      </trkpt>
      <trkpt lat="42.74115" lon="0.17359">
        <ele>2391</ele>
        <time>2019-02-27T11:19:40Z</time>
      </trkpt>
      <trkpt lat="42.74117" lon="0.17357">
        <ele>2391</ele>
        <time>2019-02-27T11:19:41Z</time>
      </trkpt>
      <trkpt lat="42.74117" lon="0.17357">
        <ele>2391</ele>
        <time>2019-02-27T11:19:42Z</time>
      </trkpt>
      <trkpt lat="42.74117" lon="0.17357">
        <ele>2391</ele>
        <time>2019-02-27T11:19:43Z</time>
      </trkpt>
      <trkpt lat="42.74116" lon="0.17354">
        <ele>2391</ele>
        <time>2019-02-27T11:19:44Z</time>
      </trkpt>
      <trkpt lat="42.74116" lon="0.17354">
        <ele>2391</ele>
        <time>2019-02-27T11:19:45Z</time>
      </trkpt>
      <trkpt lat="42.74116" lon="0.17354">
        <ele>2391</ele>
        <time>2019-02-27T11:19:46Z</time>
      </trkpt>
      <trkpt lat="42.74116" lon="0.17354">
        <ele>2391</ele>
        <time>2019-02-27T11:19:47Z</time>
      </trkpt>
      <trkpt lat="42.74116" lon="0.17352">
        <ele>2390</ele>
        <time>2019-02-27T11:19:48Z</time>
      </trkpt>
      <trkpt lat="42.74116" lon="0.17352">
        <ele>2390</ele>
        <time>2019-02-27T11:19:49Z</time>
      </trkpt>
      <trkpt lat="42.74116" lon="0.17352">
        <ele>2390</ele>
        <time>2019-02-27T11:19:50Z</time>
      </trkpt>
      <trkpt lat="42.74116" lon="0.17352">
        <ele>2390</ele>
        <time>2019-02-27T11:19:51Z</time>
      </trkpt>
      <trkpt lat="42.74116" lon="0.17352">
        <ele>2390</ele>
        <time>2019-02-27T11:19:52Z</time>
      </trkpt>
      <trkpt lat="42.74116" lon="0.17352">
        <ele>2390</ele>
        <time>2019-02-27T11:19:53Z</time>
      </trkpt>
      <trkpt lat="42.74115" lon="0.17349">
        <ele>2390</ele>
        <time>2019-02-27T11:19:54Z</time>
      </trkpt>
      <trkpt lat="42.74115" lon="0.17349">
        <ele>2389</ele>
        <time>2019-02-27T11:19:55Z</time>
      </trkpt>
      <trkpt lat="42.74115" lon="0.17349">
        <ele>2389</ele>
        <time>2019-02-27T11:19:56Z</time>
      </trkpt>
      <trkpt lat="42.74115" lon="0.17349">
        <ele>2389</ele>
        <time>2019-02-27T11:19:57Z</time>
      </trkpt>
      <trkpt lat="42.74115" lon="0.17347">
        <ele>2388</ele>
        <time>2019-02-27T11:19:58Z</time>
      </trkpt>
      <trkpt lat="42.74115" lon="0.17347">
        <ele>2388</ele>
        <time>2019-02-27T11:19:59Z</time>
      </trkpt>
      <trkpt lat="42.74115" lon="0.17347">
        <ele>2388</ele>
        <time>2019-02-27T11:20:00Z</time>
      </trkpt>
      <trkpt lat="42.74115" lon="0.17347">
        <ele>2388</ele>
        <time>2019-02-27T11:20:01Z</time>
      </trkpt>
      <trkpt lat="42.74116" lon="0.17344">
        <ele>2388</ele>
        <time>2019-02-27T11:20:02Z</time>
      </trkpt>
      <trkpt lat="42.74116" lon="0.17344">
        <ele>2388</ele>
        <time>2019-02-27T11:20:03Z</time>
      </trkpt>
      <trkpt lat="42.74116" lon="0.17344">
        <ele>2387</ele>
        <time>2019-02-27T11:20:04Z</time>
      </trkpt>
      <trkpt lat="42.74116" lon="0.17344">
        <ele>2387</ele>
        <time>2019-02-27T11:20:05Z</time>
      </trkpt>
      <trkpt lat="42.74116" lon="0.17344">
        <ele>2387</ele>
        <time>2019-02-27T11:20:06Z</time>
      </trkpt>
      <trkpt lat="42.74116" lon="0.17344">
        <ele>2387</ele>
        <time>2019-02-27T11:20:07Z</time>
      </trkpt>
      <trkpt lat="42.74115" lon="0.17341">
        <ele>2387</ele>
        <time>2019-02-27T11:20:08Z</time>
      </trkpt>
      <trkpt lat="42.74115" lon="0.17341">
        <ele>2387</ele>
        <time>2019-02-27T11:20:09Z</time>
      </trkpt>
      <trkpt lat="42.74115" lon="0.17341">
        <ele>2387</ele>
        <time>2019-02-27T11:20:10Z</time>
      </trkpt>
      <trkpt lat="42.74115" lon="0.17341">
        <ele>2387</ele>
        <time>2019-02-27T11:20:11Z</time>
      </trkpt>
      <trkpt lat="42.74113" lon="0.17339">
        <ele>2387</ele>
        <time>2019-02-27T11:20:12Z</time>
      </trkpt>
      <trkpt lat="42.74113" lon="0.17339">
        <ele>2386</ele>
        <time>2019-02-27T11:20:13Z</time>
      </trkpt>
      <trkpt lat="42.74113" lon="0.17339">
        <ele>2386</ele>
        <time>2019-02-27T11:20:14Z</time>
      </trkpt>
      <trkpt lat="42.74113" lon="0.17339">
        <ele>2385</ele>
        <time>2019-02-27T11:20:15Z</time>
      </trkpt>
      <trkpt lat="42.74113" lon="0.17339">
        <ele>2385</ele>
        <time>2019-02-27T11:20:16Z</time>
      </trkpt>
      <trkpt lat="42.74113" lon="0.17339">
        <ele>2385</ele>
        <time>2019-02-27T11:20:17Z</time>
      </trkpt>
      <trkpt lat="42.74113" lon="0.17339">
        <ele>2385</ele>
        <time>2019-02-27T11:20:18Z</time>
      </trkpt>
      <trkpt lat="42.74113" lon="0.17339">
        <ele>2385</ele>
        <time>2019-02-27T11:20:19Z</time>
      </trkpt>
      <trkpt lat="42.74113" lon="0.17339">
        <ele>2385</ele>
        <time>2019-02-27T11:20:20Z</time>
      </trkpt>
      <trkpt lat="42.74113" lon="0.17336">
        <ele>2385</ele>
        <time>2019-02-27T11:20:21Z</time>
      </trkpt>
      <trkpt lat="42.74113" lon="0.17336">
        <ele>2384</ele>
        <time>2019-02-27T11:20:22Z</time>
      </trkpt>
      <trkpt lat="42.74113" lon="0.17336">
        <ele>2384</ele>
        <time>2019-02-27T11:20:23Z</time>
      </trkpt>
      <trkpt lat="42.74113" lon="0.17336">
        <ele>2384</ele>
        <time>2019-02-27T11:20:24Z</time>
      </trkpt>
      <trkpt lat="42.74113" lon="0.17336">
        <ele>2384</ele>
        <time>2019-02-27T11:20:25Z</time>
      </trkpt>
      <trkpt lat="42.74113" lon="0.17333">
        <ele>2384</ele>
        <time>2019-02-27T11:20:26Z</time>
      </trkpt>
      <trkpt lat="42.74113" lon="0.17333">
        <ele>2384</ele>
        <time>2019-02-27T11:20:27Z</time>
      </trkpt>
      <trkpt lat="42.74113" lon="0.17333">
        <ele>2384</ele>
        <time>2019-02-27T11:20:28Z</time>
      </trkpt>
      <trkpt lat="42.74113" lon="0.17333">
        <ele>2384</ele>
        <time>2019-02-27T11:20:29Z</time>
      </trkpt>
      <trkpt lat="42.74113" lon="0.17333">
        <ele>2384</ele>
        <time>2019-02-27T11:20:30Z</time>
      </trkpt>
      <trkpt lat="42.74112" lon="0.1733">
        <ele>2384</ele>
        <time>2019-02-27T11:20:31Z</time>
      </trkpt>
      <trkpt lat="42.74112" lon="0.1733">
        <ele>2384</ele>
        <time>2019-02-27T11:20:32Z</time>
      </trkpt>
      <trkpt lat="42.74112" lon="0.1733">
        <ele>2383</ele>
        <time>2019-02-27T11:20:33Z</time>
      </trkpt>
      <trkpt lat="42.74112" lon="0.1733">
        <ele>2383</ele>
        <time>2019-02-27T11:20:34Z</time>
      </trkpt>
      <trkpt lat="42.74113" lon="0.17328">
        <ele>2382</ele>
        <time>2019-02-27T11:20:35Z</time>
      </trkpt>
      <trkpt lat="42.74113" lon="0.17328">
        <ele>2382</ele>
        <time>2019-02-27T11:20:36Z</time>
      </trkpt>
      <trkpt lat="42.74113" lon="0.17328">
        <ele>2382</ele>
        <time>2019-02-27T11:20:37Z</time>
      </trkpt>
      <trkpt lat="42.74113" lon="0.17328">
        <ele>2382</ele>
        <time>2019-02-27T11:20:38Z</time>
      </trkpt>
      <trkpt lat="42.74113" lon="0.17328">
        <ele>2382</ele>
        <time>2019-02-27T11:20:39Z</time>
      </trkpt>
      <trkpt lat="42.74115" lon="0.17327">
        <ele>2382</ele>
        <time>2019-02-27T11:20:40Z</time>
      </trkpt>
      <trkpt lat="42.74115" lon="0.17327">
        <ele>2382</ele>
        <time>2019-02-27T11:20:41Z</time>
      </trkpt>
      <trkpt lat="42.74115" lon="0.17327">
        <ele>2382</ele>
        <time>2019-02-27T11:20:42Z</time>
      </trkpt>
      <trkpt lat="42.74115" lon="0.17327">
        <ele>2382</ele>
        <time>2019-02-27T11:20:43Z</time>
      </trkpt>
      <trkpt lat="42.74115" lon="0.17327">
        <ele>2381</ele>
        <time>2019-02-27T11:20:44Z</time>
      </trkpt>
      <trkpt lat="42.74115" lon="0.17327">
        <ele>2381</ele>
        <time>2019-02-27T11:20:45Z</time>
      </trkpt>
      <trkpt lat="42.74115" lon="0.17324">
        <ele>2380</ele>
        <time>2019-02-27T11:20:46Z</time>
      </trkpt>
      <trkpt lat="42.74115" lon="0.17324">
        <ele>2380</ele>
        <time>2019-02-27T11:20:47Z</time>
      </trkpt>
      <trkpt lat="42.74115" lon="0.17324">
        <ele>2380</ele>
        <time>2019-02-27T11:20:48Z</time>
      </trkpt>
      <trkpt lat="42.74115" lon="0.17324">
        <ele>2380</ele>
        <time>2019-02-27T11:20:49Z</time>
      </trkpt>
      <trkpt lat="42.74115" lon="0.17324">
        <ele>2380</ele>
        <time>2019-02-27T11:20:50Z</time>
      </trkpt>
      <trkpt lat="42.74115" lon="0.17324">
        <ele>2380</ele>
        <time>2019-02-27T11:20:51Z</time>
      </trkpt>
      <trkpt lat="42.74115" lon="0.17324">
        <ele>2380</ele>
        <time>2019-02-27T11:20:52Z</time>
      </trkpt>
      <trkpt lat="42.74116" lon="0.17322">
        <ele>2378</ele>
        <time>2019-02-27T11:20:53Z</time>
      </trkpt>
      <trkpt lat="42.74116" lon="0.17322">
        <ele>2378</ele>
        <time>2019-02-27T11:20:54Z</time>
      </trkpt>
      <trkpt lat="42.74116" lon="0.17322">
        <ele>2378</ele>
        <time>2019-02-27T11:20:55Z</time>
      </trkpt>
      <trkpt lat="42.74116" lon="0.17322">
        <ele>2378</ele>
        <time>2019-02-27T11:20:56Z</time>
      </trkpt>
      <trkpt lat="42.74116" lon="0.17322">
        <ele>2378</ele>
        <time>2019-02-27T11:20:57Z</time>
      </trkpt>
      <trkpt lat="42.74114" lon="0.1732">
        <ele>2378</ele>
        <time>2019-02-27T11:20:58Z</time>
      </trkpt>
      <trkpt lat="42.74114" lon="0.1732">
        <ele>2378</ele>
        <time>2019-02-27T11:20:59Z</time>
      </trkpt>
      <trkpt lat="42.74114" lon="0.1732">
        <ele>2378</ele>
        <time>2019-02-27T11:21:00Z</time>
      </trkpt>
      <trkpt lat="42.74114" lon="0.1732">
        <ele>2378</ele>
        <time>2019-02-27T11:21:01Z</time>
      </trkpt>
      <trkpt lat="42.74115" lon="0.17318">
        <ele>2378</ele>
        <time>2019-02-27T11:21:02Z</time>
      </trkpt>
      <trkpt lat="42.74115" lon="0.17318">
        <ele>2377</ele>
        <time>2019-02-27T11:21:03Z</time>
      </trkpt>
      <trkpt lat="42.74115" lon="0.17318">
        <ele>2377</ele>
        <time>2019-02-27T11:21:04Z</time>
      </trkpt>
      <trkpt lat="42.74115" lon="0.17318">
        <ele>2377</ele>
        <time>2019-02-27T11:21:05Z</time>
      </trkpt>
      <trkpt lat="42.74115" lon="0.17318">
        <ele>2377</ele>
        <time>2019-02-27T11:21:06Z</time>
      </trkpt>
      <trkpt lat="42.74115" lon="0.17318">
        <ele>2377</ele>
        <time>2019-02-27T11:21:07Z</time>
      </trkpt>
      <trkpt lat="42.74115" lon="0.17318">
        <ele>2377</ele>
        <time>2019-02-27T11:21:08Z</time>
      </trkpt>
      <trkpt lat="42.74115" lon="0.17318">
        <ele>2377</ele>
        <time>2019-02-27T11:21:09Z</time>
      </trkpt>
      <trkpt lat="42.74115" lon="0.17318">
        <ele>2377</ele>
        <time>2019-02-27T11:21:10Z</time>
      </trkpt>
      <trkpt lat="42.74115" lon="0.17318">
        <ele>2377</ele>
        <time>2019-02-27T11:21:11Z</time>
      </trkpt>
      <trkpt lat="42.74115" lon="0.17318">
        <ele>2377</ele>
        <time>2019-02-27T11:21:12Z</time>
      </trkpt>
      <trkpt lat="42.74115" lon="0.17318">
        <ele>2377</ele>
        <time>2019-02-27T11:21:13Z</time>
      </trkpt>
      <trkpt lat="42.74115" lon="0.17318">
        <ele>2377</ele>
        <time>2019-02-27T11:21:14Z</time>
      </trkpt>
      <trkpt lat="42.74115" lon="0.17318">
        <ele>2376</ele>
        <time>2019-02-27T11:21:15Z</time>
      </trkpt>
      <trkpt lat="42.74116" lon="0.17315">
        <ele>2376</ele>
        <time>2019-02-27T11:21:16Z</time>
      </trkpt>
      <trkpt lat="42.74116" lon="0.17315">
        <ele>2376</ele>
        <time>2019-02-27T11:21:17Z</time>
      </trkpt>
      <trkpt lat="42.74116" lon="0.17312">
        <ele>2376</ele>
        <time>2019-02-27T11:21:18Z</time>
      </trkpt>
      <trkpt lat="42.74116" lon="0.17312">
        <ele>2375</ele>
        <time>2019-02-27T11:21:19Z</time>
      </trkpt>
      <trkpt lat="42.74116" lon="0.17312">
        <ele>2374</ele>
        <time>2019-02-27T11:21:20Z</time>
      </trkpt>
      <trkpt lat="42.74116" lon="0.17312">
        <ele>2374</ele>
        <time>2019-02-27T11:21:21Z</time>
      </trkpt>
      <trkpt lat="42.74116" lon="0.17312">
        <ele>2374</ele>
        <time>2019-02-27T11:21:22Z</time>
      </trkpt>
      <trkpt lat="42.74116" lon="0.17312">
        <ele>2374</ele>
        <time>2019-02-27T11:21:23Z</time>
      </trkpt>
      <trkpt lat="42.74116" lon="0.17312">
        <ele>2374</ele>
        <time>2019-02-27T11:21:24Z</time>
      </trkpt>
      <trkpt lat="42.74116" lon="0.17312">
        <ele>2374</ele>
        <time>2019-02-27T11:21:25Z</time>
      </trkpt>
      <trkpt lat="42.74116" lon="0.17312">
        <ele>2374</ele>
        <time>2019-02-27T11:21:26Z</time>
      </trkpt>
      <trkpt lat="42.74116" lon="0.17312">
        <ele>2374</ele>
        <time>2019-02-27T11:21:27Z</time>
      </trkpt>
      <trkpt lat="42.74116" lon="0.17312">
        <ele>2374</ele>
        <time>2019-02-27T11:21:28Z</time>
      </trkpt>
      <trkpt lat="42.74116" lon="0.17312">
        <ele>2374</ele>
        <time>2019-02-27T11:21:29Z</time>
      </trkpt>
      <trkpt lat="42.74116" lon="0.17312">
        <ele>2374</ele>
        <time>2019-02-27T11:21:30Z</time>
      </trkpt>
      <trkpt lat="42.74116" lon="0.17312">
        <ele>2374</ele>
        <time>2019-02-27T11:21:31Z</time>
      </trkpt>
      <trkpt lat="42.74116" lon="0.17312">
        <ele>2374</ele>
        <time>2019-02-27T11:21:32Z</time>
      </trkpt>
      <trkpt lat="42.74116" lon="0.17312">
        <ele>2374</ele>
        <time>2019-02-27T11:21:33Z</time>
      </trkpt>
      <trkpt lat="42.74116" lon="0.17312">
        <ele>2374</ele>
        <time>2019-02-27T11:21:34Z</time>
      </trkpt>
      <trkpt lat="42.74116" lon="0.17312">
        <ele>2374</ele>
        <time>2019-02-27T11:21:35Z</time>
      </trkpt>
      <trkpt lat="42.74116" lon="0.17312">
        <ele>2374</ele>
        <time>2019-02-27T11:21:36Z</time>
      </trkpt>
      <trkpt lat="42.74116" lon="0.17312">
        <ele>2374</ele>
        <time>2019-02-27T11:21:37Z</time>
      </trkpt>
      <trkpt lat="42.74116" lon="0.17312">
        <ele>2374</ele>
        <time>2019-02-27T11:21:38Z</time>
      </trkpt>
      <trkpt lat="42.74116" lon="0.17312">
        <ele>2374</ele>
        <time>2019-02-27T11:21:39Z</time>
      </trkpt>
      <trkpt lat="42.74116" lon="0.17312">
        <ele>2374</ele>
        <time>2019-02-27T11:21:40Z</time>
      </trkpt>
      <trkpt lat="42.74116" lon="0.17312">
        <ele>2374</ele>
        <time>2019-02-27T11:21:41Z</time>
      </trkpt>
      <trkpt lat="42.74116" lon="0.17312">
        <ele>2373</ele>
        <time>2019-02-27T11:21:42Z</time>
      </trkpt>
      <trkpt lat="42.74116" lon="0.17312">
        <ele>2373</ele>
        <time>2019-02-27T11:21:43Z</time>
      </trkpt>
      <trkpt lat="42.74116" lon="0.17312">
        <ele>2373</ele>
        <time>2019-02-27T11:21:44Z</time>
      </trkpt>
      <trkpt lat="42.74116" lon="0.17312">
        <ele>2373</ele>
        <time>2019-02-27T11:21:45Z</time>
      </trkpt>
      <trkpt lat="42.74116" lon="0.17312">
        <ele>2373</ele>
        <time>2019-02-27T11:21:46Z</time>
      </trkpt>
      <trkpt lat="42.74116" lon="0.17312">
        <ele>2373</ele>
        <time>2019-02-27T11:21:47Z</time>
      </trkpt>
      <trkpt lat="42.74116" lon="0.17312">
        <ele>2373</ele>
        <time>2019-02-27T11:21:48Z</time>
      </trkpt>
      <trkpt lat="42.74116" lon="0.17312">
        <ele>2373</ele>
        <time>2019-02-27T11:21:49Z</time>
      </trkpt>
      <trkpt lat="42.74116" lon="0.17312">
        <ele>2373</ele>
        <time>2019-02-27T11:21:50Z</time>
      </trkpt>
      <trkpt lat="42.74116" lon="0.17312">
        <ele>2373</ele>
        <time>2019-02-27T11:21:51Z</time>
      </trkpt>
      <trkpt lat="42.74116" lon="0.17312">
        <ele>2373</ele>
        <time>2019-02-27T11:21:52Z</time>
      </trkpt>
      <trkpt lat="42.74116" lon="0.17312">
        <ele>2373</ele>
        <time>2019-02-27T11:21:53Z</time>
      </trkpt>
      <trkpt lat="42.74116" lon="0.17312">
        <ele>2373</ele>
        <time>2019-02-27T11:21:54Z</time>
      </trkpt>
      <trkpt lat="42.74116" lon="0.17312">
        <ele>2373</ele>
        <time>2019-02-27T11:21:55Z</time>
      </trkpt>
      <trkpt lat="42.74116" lon="0.17312">
        <ele>2373</ele>
        <time>2019-02-27T11:21:56Z</time>
      </trkpt>
      <trkpt lat="42.74116" lon="0.17312">
        <ele>2373</ele>
        <time>2019-02-27T11:21:57Z</time>
      </trkpt>
      <trkpt lat="42.74116" lon="0.17312">
        <ele>2373</ele>
        <time>2019-02-27T11:21:58Z</time>
      </trkpt>
      <trkpt lat="42.74116" lon="0.17312">
        <ele>2373</ele>
        <time>2019-02-27T11:21:59Z</time>
      </trkpt>
      <trkpt lat="42.74116" lon="0.17312">
        <ele>2373</ele>
        <time>2019-02-27T11:22:00Z</time>
      </trkpt>
      <trkpt lat="42.74116" lon="0.17312">
        <ele>2373</ele>
        <time>2019-02-27T11:22:01Z</time>
      </trkpt>
      <trkpt lat="42.74116" lon="0.17312">
        <ele>2373</ele>
        <time>2019-02-27T11:22:02Z</time>
      </trkpt>
      <trkpt lat="42.74116" lon="0.17312">
        <ele>2373</ele>
        <time>2019-02-27T11:22:03Z</time>
      </trkpt>
      <trkpt lat="42.74116" lon="0.17312">
        <ele>2373</ele>
        <time>2019-02-27T11:22:04Z</time>
      </trkpt>
      <trkpt lat="42.74116" lon="0.17312">
        <ele>2373</ele>
        <time>2019-02-27T11:22:05Z</time>
      </trkpt>
      <trkpt lat="42.74116" lon="0.17312">
        <ele>2373</ele>
        <time>2019-02-27T11:22:06Z</time>
      </trkpt>
      <trkpt lat="42.74116" lon="0.17312">
        <ele>2373</ele>
        <time>2019-02-27T11:22:07Z</time>
      </trkpt>
      <trkpt lat="42.74116" lon="0.17312">
        <ele>2373</ele>
        <time>2019-02-27T11:22:08Z</time>
      </trkpt>
      <trkpt lat="42.74116" lon="0.17312">
        <ele>2373</ele>
        <time>2019-02-27T11:22:09Z</time>
      </trkpt>
      <trkpt lat="42.74116" lon="0.17312">
        <ele>2374</ele>
        <time>2019-02-27T11:22:10Z</time>
      </trkpt>
      <trkpt lat="42.74116" lon="0.17312">
        <ele>2374</ele>
        <time>2019-02-27T11:22:11Z</time>
      </trkpt>
      <trkpt lat="42.74116" lon="0.17312">
        <ele>2374</ele>
        <time>2019-02-27T11:22:12Z</time>
      </trkpt>
      <trkpt lat="42.74116" lon="0.17312">
        <ele>2374</ele>
        <time>2019-02-27T11:22:13Z</time>
      </trkpt>
      <trkpt lat="42.74116" lon="0.17312">
        <ele>2374</ele>
        <time>2019-02-27T11:22:14Z</time>
      </trkpt>
      <trkpt lat="42.74116" lon="0.17312">
        <ele>2374</ele>
        <time>2019-02-27T11:22:15Z</time>
      </trkpt>
      <trkpt lat="42.74116" lon="0.17312">
        <ele>2374</ele>
        <time>2019-02-27T11:22:16Z</time>
      </trkpt>
      <trkpt lat="42.74116" lon="0.17312">
        <ele>2374</ele>
        <time>2019-02-27T11:22:17Z</time>
      </trkpt>
      <trkpt lat="42.74116" lon="0.17312">
        <ele>2374</ele>
        <time>2019-02-27T11:22:18Z</time>
      </trkpt>
      <trkpt lat="42.74116" lon="0.17312">
        <ele>2374</ele>
        <time>2019-02-27T11:22:19Z</time>
      </trkpt>
      <trkpt lat="42.74116" lon="0.17312">
        <ele>2374</ele>
        <time>2019-02-27T11:22:20Z</time>
      </trkpt>
      <trkpt lat="42.74116" lon="0.17312">
        <ele>2374</ele>
        <time>2019-02-27T11:22:21Z</time>
      </trkpt>
      <trkpt lat="42.74116" lon="0.17312">
        <ele>2374</ele>
        <time>2019-02-27T11:22:22Z</time>
      </trkpt>
      <trkpt lat="42.74116" lon="0.17312">
        <ele>2373</ele>
        <time>2019-02-27T11:22:23Z</time>
      </trkpt>
      <trkpt lat="42.74116" lon="0.17312">
        <ele>2373</ele>
        <time>2019-02-27T11:22:24Z</time>
      </trkpt>
      <trkpt lat="42.74116" lon="0.17312">
        <ele>2373</ele>
        <time>2019-02-27T11:22:25Z</time>
      </trkpt>
      <trkpt lat="42.74116" lon="0.17312">
        <ele>2373</ele>
        <time>2019-02-27T11:22:26Z</time>
      </trkpt>
      <trkpt lat="42.74116" lon="0.17312">
        <ele>2373</ele>
        <time>2019-02-27T11:22:27Z</time>
      </trkpt>
      <trkpt lat="42.74116" lon="0.17312">
        <ele>2373</ele>
        <time>2019-02-27T11:22:28Z</time>
      </trkpt>
      <trkpt lat="42.74116" lon="0.17312">
        <ele>2373</ele>
        <time>2019-02-27T11:22:29Z</time>
      </trkpt>
      <trkpt lat="42.74116" lon="0.17312">
        <ele>2373</ele>
        <time>2019-02-27T11:22:30Z</time>
      </trkpt>
      <trkpt lat="42.74116" lon="0.17312">
        <ele>2373</ele>
        <time>2019-02-27T11:22:31Z</time>
      </trkpt>
      <trkpt lat="42.74116" lon="0.17312">
        <ele>2373</ele>
        <time>2019-02-27T11:22:32Z</time>
      </trkpt>
      <trkpt lat="42.74116" lon="0.17312">
        <ele>2373</ele>
        <time>2019-02-27T11:22:33Z</time>
      </trkpt>
      <trkpt lat="42.74116" lon="0.17312">
        <ele>2373</ele>
        <time>2019-02-27T11:22:34Z</time>
      </trkpt>
      <trkpt lat="42.74116" lon="0.17312">
        <ele>2373</ele>
        <time>2019-02-27T11:22:35Z</time>
      </trkpt>
      <trkpt lat="42.74116" lon="0.17312">
        <ele>2373</ele>
        <time>2019-02-27T11:22:36Z</time>
      </trkpt>
      <trkpt lat="42.74116" lon="0.17312">
        <ele>2373</ele>
        <time>2019-02-27T11:22:37Z</time>
      </trkpt>
      <trkpt lat="42.74116" lon="0.17312">
        <ele>2373</ele>
        <time>2019-02-27T11:22:38Z</time>
      </trkpt>
      <trkpt lat="42.74116" lon="0.17312">
        <ele>2373</ele>
        <time>2019-02-27T11:22:39Z</time>
      </trkpt>
      <trkpt lat="42.74116" lon="0.17312">
        <ele>2373</ele>
        <time>2019-02-27T11:22:40Z</time>
      </trkpt>
      <trkpt lat="42.74116" lon="0.17312">
        <ele>2373</ele>
        <time>2019-02-27T11:22:41Z</time>
      </trkpt>
      <trkpt lat="42.74116" lon="0.17312">
        <ele>2373</ele>
        <time>2019-02-27T11:22:42Z</time>
      </trkpt>
      <trkpt lat="42.74116" lon="0.17312">
        <ele>2373</ele>
        <time>2019-02-27T11:22:43Z</time>
      </trkpt>
      <trkpt lat="42.74116" lon="0.17312">
        <ele>2373</ele>
        <time>2019-02-27T11:22:44Z</time>
      </trkpt>
      <trkpt lat="42.74116" lon="0.17312">
        <ele>2373</ele>
        <time>2019-02-27T11:22:45Z</time>
      </trkpt>
      <trkpt lat="42.74116" lon="0.17312">
        <ele>2373</ele>
        <time>2019-02-27T11:22:46Z</time>
      </trkpt>
      <trkpt lat="42.74116" lon="0.17312">
        <ele>2373</ele>
        <time>2019-02-27T11:22:47Z</time>
      </trkpt>
      <trkpt lat="42.74116" lon="0.17312">
        <ele>2373</ele>
        <time>2019-02-27T11:22:48Z</time>
      </trkpt>
      <trkpt lat="42.74116" lon="0.17312">
        <ele>2373</ele>
        <time>2019-02-27T11:22:49Z</time>
      </trkpt>
      <trkpt lat="42.74116" lon="0.17312">
        <ele>2373</ele>
        <time>2019-02-27T11:22:50Z</time>
      </trkpt>
      <trkpt lat="42.74116" lon="0.17312">
        <ele>2373</ele>
        <time>2019-02-27T11:22:51Z</time>
      </trkpt>
      <trkpt lat="42.74116" lon="0.17312">
        <ele>2373</ele>
        <time>2019-02-27T11:22:52Z</time>
      </trkpt>
      <trkpt lat="42.74116" lon="0.17312">
        <ele>2373</ele>
        <time>2019-02-27T11:22:53Z</time>
      </trkpt>
      <trkpt lat="42.74116" lon="0.17312">
        <ele>2373</ele>
        <time>2019-02-27T11:22:54Z</time>
      </trkpt>
      <trkpt lat="42.74116" lon="0.17312">
        <ele>2374</ele>
        <time>2019-02-27T11:22:55Z</time>
      </trkpt>
      <trkpt lat="42.74116" lon="0.17312">
        <ele>2374</ele>
        <time>2019-02-27T11:22:56Z</time>
      </trkpt>
      <trkpt lat="42.74116" lon="0.17312">
        <ele>2374</ele>
        <time>2019-02-27T11:22:57Z</time>
      </trkpt>
      <trkpt lat="42.74116" lon="0.17312">
        <ele>2374</ele>
        <time>2019-02-27T11:22:58Z</time>
      </trkpt>
      <trkpt lat="42.74116" lon="0.17312">
        <ele>2374</ele>
        <time>2019-02-27T11:22:59Z</time>
      </trkpt>
      <trkpt lat="42.74116" lon="0.17312">
        <ele>2374</ele>
        <time>2019-02-27T11:23:00Z</time>
      </trkpt>
      <trkpt lat="42.74116" lon="0.17312">
        <ele>2374</ele>
        <time>2019-02-27T11:23:01Z</time>
      </trkpt>
      <trkpt lat="42.74116" lon="0.17312">
        <ele>2374</ele>
        <time>2019-02-27T11:23:02Z</time>
      </trkpt>
      <trkpt lat="42.74116" lon="0.17312">
        <ele>2374</ele>
        <time>2019-02-27T11:23:03Z</time>
      </trkpt>
      <trkpt lat="42.74116" lon="0.17312">
        <ele>2374</ele>
        <time>2019-02-27T11:23:04Z</time>
      </trkpt>
      <trkpt lat="42.74116" lon="0.17312">
        <ele>2374</ele>
        <time>2019-02-27T11:23:05Z</time>
      </trkpt>
      <trkpt lat="42.74116" lon="0.17312">
        <ele>2374</ele>
        <time>2019-02-27T11:23:06Z</time>
      </trkpt>
      <trkpt lat="42.74117" lon="0.17312">
        <ele>2374</ele>
        <time>2019-02-27T11:23:07Z</time>
      </trkpt>
      <trkpt lat="42.74117" lon="0.17312">
        <ele>2374</ele>
        <time>2019-02-27T11:23:08Z</time>
      </trkpt>
      <trkpt lat="42.74117" lon="0.17312">
        <ele>2374</ele>
        <time>2019-02-27T11:23:09Z</time>
      </trkpt>
      <trkpt lat="42.74117" lon="0.17312">
        <ele>2374</ele>
        <time>2019-02-27T11:23:10Z</time>
      </trkpt>
      <trkpt lat="42.74117" lon="0.17312">
        <ele>2374</ele>
        <time>2019-02-27T11:23:11Z</time>
      </trkpt>
      <trkpt lat="42.74117" lon="0.17312">
        <ele>2374</ele>
        <time>2019-02-27T11:23:12Z</time>
      </trkpt>
      <trkpt lat="42.74117" lon="0.17312">
        <ele>2374</ele>
        <time>2019-02-27T11:23:13Z</time>
      </trkpt>
      <trkpt lat="42.74117" lon="0.17312">
        <ele>2373</ele>
        <time>2019-02-27T11:23:14Z</time>
      </trkpt>
      <trkpt lat="42.74117" lon="0.17312">
        <ele>2373</ele>
        <time>2019-02-27T11:23:15Z</time>
      </trkpt>
      <trkpt lat="42.74117" lon="0.17312">
        <ele>2373</ele>
        <time>2019-02-27T11:23:16Z</time>
      </trkpt>
      <trkpt lat="42.74117" lon="0.17312">
        <ele>2374</ele>
        <time>2019-02-27T11:23:17Z</time>
      </trkpt>
      <trkpt lat="42.74117" lon="0.17312">
        <ele>2374</ele>
        <time>2019-02-27T11:23:18Z</time>
      </trkpt>
      <trkpt lat="42.74117" lon="0.17312">
        <ele>2374</ele>
        <time>2019-02-27T11:23:19Z</time>
      </trkpt>
      <trkpt lat="42.74117" lon="0.17312">
        <ele>2374</ele>
        <time>2019-02-27T11:23:20Z</time>
      </trkpt>
      <trkpt lat="42.74117" lon="0.17312">
        <ele>2374</ele>
        <time>2019-02-27T11:23:21Z</time>
      </trkpt>
      <trkpt lat="42.74117" lon="0.17312">
        <ele>2374</ele>
        <time>2019-02-27T11:23:22Z</time>
      </trkpt>
      <trkpt lat="42.74117" lon="0.17312">
        <ele>2374</ele>
        <time>2019-02-27T11:23:23Z</time>
      </trkpt>
      <trkpt lat="42.74117" lon="0.17312">
        <ele>2373</ele>
        <time>2019-02-27T11:23:24Z</time>
      </trkpt>
      <trkpt lat="42.74117" lon="0.17312">
        <ele>2373</ele>
        <time>2019-02-27T11:23:25Z</time>
      </trkpt>
      <trkpt lat="42.74117" lon="0.17312">
        <ele>2373</ele>
        <time>2019-02-27T11:23:26Z</time>
      </trkpt>
      <trkpt lat="42.74117" lon="0.17312">
        <ele>2373</ele>
        <time>2019-02-27T11:23:27Z</time>
      </trkpt>
      <trkpt lat="42.74117" lon="0.17312">
        <ele>2373</ele>
        <time>2019-02-27T11:23:28Z</time>
      </trkpt>
      <trkpt lat="42.74117" lon="0.17312">
        <ele>2373</ele>
        <time>2019-02-27T11:23:29Z</time>
      </trkpt>
      <trkpt lat="42.74117" lon="0.17312">
        <ele>2373</ele>
        <time>2019-02-27T11:23:30Z</time>
      </trkpt>
      <trkpt lat="42.74117" lon="0.17312">
        <ele>2373</ele>
        <time>2019-02-27T11:23:31Z</time>
      </trkpt>
      <trkpt lat="42.74117" lon="0.17312">
        <ele>2374</ele>
        <time>2019-02-27T11:23:32Z</time>
      </trkpt>
      <trkpt lat="42.74117" lon="0.17312">
        <ele>2374</ele>
        <time>2019-02-27T11:23:33Z</time>
      </trkpt>
      <trkpt lat="42.74117" lon="0.17312">
        <ele>2374</ele>
        <time>2019-02-27T11:23:34Z</time>
      </trkpt>
      <trkpt lat="42.74117" lon="0.17312">
        <ele>2374</ele>
        <time>2019-02-27T11:23:35Z</time>
      </trkpt>
      <trkpt lat="42.74117" lon="0.17312">
        <ele>2374</ele>
        <time>2019-02-27T11:23:36Z</time>
      </trkpt>
      <trkpt lat="42.74117" lon="0.17312">
        <ele>2374</ele>
        <time>2019-02-27T11:23:37Z</time>
      </trkpt>
      <trkpt lat="42.74117" lon="0.17312">
        <ele>2374</ele>
        <time>2019-02-27T11:23:38Z</time>
      </trkpt>
      <trkpt lat="42.74117" lon="0.17312">
        <ele>2374</ele>
        <time>2019-02-27T11:23:39Z</time>
      </trkpt>
      <trkpt lat="42.74117" lon="0.17312">
        <ele>2374</ele>
        <time>2019-02-27T11:23:40Z</time>
      </trkpt>
      <trkpt lat="42.74117" lon="0.17312">
        <ele>2374</ele>
        <time>2019-02-27T11:23:41Z</time>
      </trkpt>
      <trkpt lat="42.74117" lon="0.17312">
        <ele>2374</ele>
        <time>2019-02-27T11:23:42Z</time>
      </trkpt>
      <trkpt lat="42.74117" lon="0.17312">
        <ele>2374</ele>
        <time>2019-02-27T11:23:43Z</time>
      </trkpt>
      <trkpt lat="42.74117" lon="0.17312">
        <ele>2374</ele>
        <time>2019-02-27T11:23:44Z</time>
      </trkpt>
      <trkpt lat="42.74117" lon="0.17312">
        <ele>2374</ele>
        <time>2019-02-27T11:23:45Z</time>
      </trkpt>
      <trkpt lat="42.74117" lon="0.17312">
        <ele>2374</ele>
        <time>2019-02-27T11:23:46Z</time>
      </trkpt>
      <trkpt lat="42.74117" lon="0.17312">
        <ele>2374</ele>
        <time>2019-02-27T11:23:47Z</time>
      </trkpt>
      <trkpt lat="42.74117" lon="0.17312">
        <ele>2374</ele>
        <time>2019-02-27T11:23:48Z</time>
      </trkpt>
      <trkpt lat="42.74117" lon="0.17312">
        <ele>2374</ele>
        <time>2019-02-27T11:23:49Z</time>
      </trkpt>
      <trkpt lat="42.74117" lon="0.17312">
        <ele>2374</ele>
        <time>2019-02-27T11:23:50Z</time>
      </trkpt>
      <trkpt lat="42.74117" lon="0.17312">
        <ele>2374</ele>
        <time>2019-02-27T11:23:51Z</time>
      </trkpt>
      <trkpt lat="42.74117" lon="0.17312">
        <ele>2374</ele>
        <time>2019-02-27T11:23:52Z</time>
      </trkpt>
      <trkpt lat="42.74117" lon="0.17312">
        <ele>2374</ele>
        <time>2019-02-27T11:23:53Z</time>
      </trkpt>
      <trkpt lat="42.74117" lon="0.17312">
        <ele>2374</ele>
        <time>2019-02-27T11:23:54Z</time>
      </trkpt>
      <trkpt lat="42.74117" lon="0.17312">
        <ele>2374</ele>
        <time>2019-02-27T11:23:55Z</time>
      </trkpt>
      <trkpt lat="42.74117" lon="0.17312">
        <ele>2374</ele>
        <time>2019-02-27T11:23:56Z</time>
      </trkpt>
      <trkpt lat="42.74117" lon="0.17312">
        <ele>2374</ele>
        <time>2019-02-27T11:23:57Z</time>
      </trkpt>
      <trkpt lat="42.74117" lon="0.17312">
        <ele>2375</ele>
        <time>2019-02-27T11:23:58Z</time>
      </trkpt>
      <trkpt lat="42.74117" lon="0.17312">
        <ele>2375</ele>
        <time>2019-02-27T11:23:59Z</time>
      </trkpt>
      <trkpt lat="42.74117" lon="0.17312">
        <ele>2375</ele>
        <time>2019-02-27T11:24:00Z</time>
      </trkpt>
      <trkpt lat="42.74117" lon="0.17312">
        <ele>2375</ele>
        <time>2019-02-27T11:24:01Z</time>
      </trkpt>
      <trkpt lat="42.74117" lon="0.17312">
        <ele>2375</ele>
        <time>2019-02-27T11:24:02Z</time>
      </trkpt>
      <trkpt lat="42.74117" lon="0.17312">
        <ele>2375</ele>
        <time>2019-02-27T11:24:03Z</time>
      </trkpt>
      <trkpt lat="42.74117" lon="0.17312">
        <ele>2375</ele>
        <time>2019-02-27T11:24:04Z</time>
      </trkpt>
      <trkpt lat="42.74117" lon="0.17312">
        <ele>2375</ele>
        <time>2019-02-27T11:24:05Z</time>
      </trkpt>
      <trkpt lat="42.74117" lon="0.17312">
        <ele>2375</ele>
        <time>2019-02-27T11:24:06Z</time>
      </trkpt>
      <trkpt lat="42.74117" lon="0.17312">
        <ele>2375</ele>
        <time>2019-02-27T11:24:07Z</time>
      </trkpt>
      <trkpt lat="42.74117" lon="0.17312">
        <ele>2374</ele>
        <time>2019-02-27T11:24:08Z</time>
      </trkpt>
      <trkpt lat="42.74117" lon="0.17312">
        <ele>2374</ele>
        <time>2019-02-27T11:24:09Z</time>
      </trkpt>
      <trkpt lat="42.74117" lon="0.17312">
        <ele>2374</ele>
        <time>2019-02-27T11:24:10Z</time>
      </trkpt>
      <trkpt lat="42.74117" lon="0.17312">
        <ele>2374</ele>
        <time>2019-02-27T11:24:11Z</time>
      </trkpt>
      <trkpt lat="42.74117" lon="0.17312">
        <ele>2374</ele>
        <time>2019-02-27T11:24:12Z</time>
      </trkpt>
      <trkpt lat="42.74117" lon="0.17312">
        <ele>2374</ele>
        <time>2019-02-27T11:24:13Z</time>
      </trkpt>
      <trkpt lat="42.74117" lon="0.17312">
        <ele>2374</ele>
        <time>2019-02-27T11:24:14Z</time>
      </trkpt>
      <trkpt lat="42.74117" lon="0.17312">
        <ele>2374</ele>
        <time>2019-02-27T11:24:15Z</time>
      </trkpt>
      <trkpt lat="42.74117" lon="0.17312">
        <ele>2374</ele>
        <time>2019-02-27T11:24:16Z</time>
      </trkpt>
      <trkpt lat="42.74117" lon="0.17312">
        <ele>2374</ele>
        <time>2019-02-27T11:24:17Z</time>
      </trkpt>
      <trkpt lat="42.74117" lon="0.17312">
        <ele>2374</ele>
        <time>2019-02-27T11:24:18Z</time>
      </trkpt>
      <trkpt lat="42.74117" lon="0.17312">
        <ele>2374</ele>
        <time>2019-02-27T11:24:19Z</time>
      </trkpt>
      <trkpt lat="42.74117" lon="0.17312">
        <ele>2374</ele>
        <time>2019-02-27T11:24:20Z</time>
      </trkpt>
      <trkpt lat="42.74117" lon="0.17312">
        <ele>2374</ele>
        <time>2019-02-27T11:24:21Z</time>
      </trkpt>
      <trkpt lat="42.74117" lon="0.17312">
        <ele>2374</ele>
        <time>2019-02-27T11:24:22Z</time>
      </trkpt>
      <trkpt lat="42.74117" lon="0.17312">
        <ele>2374</ele>
        <time>2019-02-27T11:24:23Z</time>
      </trkpt>
      <trkpt lat="42.74117" lon="0.17312">
        <ele>2374</ele>
        <time>2019-02-27T11:24:24Z</time>
      </trkpt>
      <trkpt lat="42.74117" lon="0.17312">
        <ele>2374</ele>
        <time>2019-02-27T11:24:25Z</time>
      </trkpt>
      <trkpt lat="42.74117" lon="0.17312">
        <ele>2374</ele>
        <time>2019-02-27T11:24:26Z</time>
      </trkpt>
      <trkpt lat="42.74117" lon="0.17312">
        <ele>2374</ele>
        <time>2019-02-27T11:24:27Z</time>
      </trkpt>
      <trkpt lat="42.74117" lon="0.17312">
        <ele>2374</ele>
        <time>2019-02-27T11:24:28Z</time>
      </trkpt>
      <trkpt lat="42.74117" lon="0.17312">
        <ele>2374</ele>
        <time>2019-02-27T11:24:29Z</time>
      </trkpt>
      <trkpt lat="42.74117" lon="0.17312">
        <ele>2374</ele>
        <time>2019-02-27T11:24:30Z</time>
      </trkpt>
      <trkpt lat="42.74117" lon="0.17312">
        <ele>2374</ele>
        <time>2019-02-27T11:24:31Z</time>
      </trkpt>
      <trkpt lat="42.74117" lon="0.17312">
        <ele>2374</ele>
        <time>2019-02-27T11:24:32Z</time>
      </trkpt>
      <trkpt lat="42.74117" lon="0.17312">
        <ele>2374</ele>
        <time>2019-02-27T11:24:33Z</time>
      </trkpt>
      <trkpt lat="42.74117" lon="0.17312">
        <ele>2374</ele>
        <time>2019-02-27T11:24:34Z</time>
      </trkpt>
      <trkpt lat="42.74117" lon="0.17312">
        <ele>2374</ele>
        <time>2019-02-27T11:24:35Z</time>
      </trkpt>
      <trkpt lat="42.74117" lon="0.17312">
        <ele>2374</ele>
        <time>2019-02-27T11:24:36Z</time>
      </trkpt>
      <trkpt lat="42.74117" lon="0.17312">
        <ele>2374</ele>
        <time>2019-02-27T11:24:37Z</time>
      </trkpt>
      <trkpt lat="42.74117" lon="0.17312">
        <ele>2374</ele>
        <time>2019-02-27T11:24:38Z</time>
      </trkpt>
      <trkpt lat="42.74117" lon="0.17312">
        <ele>2374</ele>
        <time>2019-02-27T11:24:39Z</time>
      </trkpt>
      <trkpt lat="42.74117" lon="0.17312">
        <ele>2374</ele>
        <time>2019-02-27T11:24:40Z</time>
      </trkpt>
      <trkpt lat="42.74117" lon="0.17312">
        <ele>2374</ele>
        <time>2019-02-27T11:24:41Z</time>
      </trkpt>
      <trkpt lat="42.74117" lon="0.17312">
        <ele>2374</ele>
        <time>2019-02-27T11:24:42Z</time>
      </trkpt>
      <trkpt lat="42.74117" lon="0.17312">
        <ele>2374</ele>
        <time>2019-02-27T11:24:43Z</time>
      </trkpt>
      <trkpt lat="42.74117" lon="0.17312">
        <ele>2374</ele>
        <time>2019-02-27T11:24:44Z</time>
      </trkpt>
      <trkpt lat="42.74117" lon="0.17312">
        <ele>2374</ele>
        <time>2019-02-27T11:24:45Z</time>
      </trkpt>
      <trkpt lat="42.74117" lon="0.17312">
        <ele>2374</ele>
        <time>2019-02-27T11:24:46Z</time>
      </trkpt>
      <trkpt lat="42.74117" lon="0.17312">
        <ele>2374</ele>
        <time>2019-02-27T11:24:47Z</time>
      </trkpt>
      <trkpt lat="42.74117" lon="0.17312">
        <ele>2374</ele>
        <time>2019-02-27T11:24:48Z</time>
      </trkpt>
      <trkpt lat="42.74117" lon="0.17312">
        <ele>2374</ele>
        <time>2019-02-27T11:24:49Z</time>
      </trkpt>
      <trkpt lat="42.74117" lon="0.17312">
        <ele>2374</ele>
        <time>2019-02-27T11:24:50Z</time>
      </trkpt>
      <trkpt lat="42.74117" lon="0.17312">
        <ele>2374</ele>
        <time>2019-02-27T11:24:51Z</time>
      </trkpt>
      <trkpt lat="42.74117" lon="0.17312">
        <ele>2374</ele>
        <time>2019-02-27T11:24:52Z</time>
      </trkpt>
      <trkpt lat="42.74117" lon="0.17312">
        <ele>2374</ele>
        <time>2019-02-27T11:24:53Z</time>
      </trkpt>
      <trkpt lat="42.74117" lon="0.17312">
        <ele>2374</ele>
        <time>2019-02-27T11:24:54Z</time>
      </trkpt>
      <trkpt lat="42.74117" lon="0.17312">
        <ele>2374</ele>
        <time>2019-02-27T11:24:55Z</time>
      </trkpt>
      <trkpt lat="42.74117" lon="0.17312">
        <ele>2374</ele>
        <time>2019-02-27T11:24:56Z</time>
      </trkpt>
      <trkpt lat="42.74117" lon="0.17312">
        <ele>2374</ele>
        <time>2019-02-27T11:24:57Z</time>
      </trkpt>
      <trkpt lat="42.74117" lon="0.17312">
        <ele>2374</ele>
        <time>2019-02-27T11:24:58Z</time>
      </trkpt>
      <trkpt lat="42.74117" lon="0.17312">
        <ele>2374</ele>
        <time>2019-02-27T11:24:59Z</time>
      </trkpt>
      <trkpt lat="42.74117" lon="0.17312">
        <ele>2374</ele>
        <time>2019-02-27T11:25:00Z</time>
      </trkpt>
      <trkpt lat="42.74117" lon="0.17312">
        <ele>2374</ele>
        <time>2019-02-27T11:25:01Z</time>
      </trkpt>
      <trkpt lat="42.74117" lon="0.17312">
        <ele>2374</ele>
        <time>2019-02-27T11:25:02Z</time>
      </trkpt>
      <trkpt lat="42.74117" lon="0.17312">
        <ele>2374</ele>
        <time>2019-02-27T11:25:03Z</time>
      </trkpt>
      <trkpt lat="42.74117" lon="0.17312">
        <ele>2374</ele>
        <time>2019-02-27T11:25:04Z</time>
      </trkpt>
      <trkpt lat="42.74117" lon="0.17312">
        <ele>2374</ele>
        <time>2019-02-27T11:25:05Z</time>
      </trkpt>
      <trkpt lat="42.74117" lon="0.17312">
        <ele>2374</ele>
        <time>2019-02-27T11:25:06Z</time>
      </trkpt>
      <trkpt lat="42.74117" lon="0.17312">
        <ele>2374</ele>
        <time>2019-02-27T11:25:07Z</time>
      </trkpt>
      <trkpt lat="42.74117" lon="0.17312">
        <ele>2374</ele>
        <time>2019-02-27T11:25:08Z</time>
      </trkpt>
      <trkpt lat="42.74117" lon="0.17312">
        <ele>2374</ele>
        <time>2019-02-27T11:25:09Z</time>
      </trkpt>
      <trkpt lat="42.74117" lon="0.17312">
        <ele>2374</ele>
        <time>2019-02-27T11:25:10Z</time>
      </trkpt>
      <trkpt lat="42.74117" lon="0.17312">
        <ele>2374</ele>
        <time>2019-02-27T11:25:11Z</time>
      </trkpt>
      <trkpt lat="42.74117" lon="0.17312">
        <ele>2374</ele>
        <time>2019-02-27T11:25:12Z</time>
      </trkpt>
      <trkpt lat="42.74117" lon="0.17312">
        <ele>2374</ele>
        <time>2019-02-27T11:25:13Z</time>
      </trkpt>
      <trkpt lat="42.74117" lon="0.17312">
        <ele>2374</ele>
        <time>2019-02-27T11:25:14Z</time>
      </trkpt>
      <trkpt lat="42.74117" lon="0.17312">
        <ele>2374</ele>
        <time>2019-02-27T11:25:15Z</time>
      </trkpt>
      <trkpt lat="42.74117" lon="0.17312">
        <ele>2374</ele>
        <time>2019-02-27T11:25:16Z</time>
      </trkpt>
      <trkpt lat="42.74117" lon="0.17312">
        <ele>2374</ele>
        <time>2019-02-27T11:25:17Z</time>
      </trkpt>
      <trkpt lat="42.74117" lon="0.17312">
        <ele>2374</ele>
        <time>2019-02-27T11:25:18Z</time>
      </trkpt>
      <trkpt lat="42.74117" lon="0.17312">
        <ele>2374</ele>
        <time>2019-02-27T11:25:19Z</time>
      </trkpt>
      <trkpt lat="42.74117" lon="0.17312">
        <ele>2374</ele>
        <time>2019-02-27T11:25:20Z</time>
      </trkpt>
      <trkpt lat="42.74117" lon="0.17312">
        <ele>2374</ele>
        <time>2019-02-27T11:25:21Z</time>
      </trkpt>
      <trkpt lat="42.74117" lon="0.17312">
        <ele>2374</ele>
        <time>2019-02-27T11:25:22Z</time>
      </trkpt>
      <trkpt lat="42.74117" lon="0.17312">
        <ele>2374</ele>
        <time>2019-02-27T11:25:23Z</time>
      </trkpt>
      <trkpt lat="42.74117" lon="0.17312">
        <ele>2374</ele>
        <time>2019-02-27T11:25:24Z</time>
      </trkpt>
      <trkpt lat="42.74117" lon="0.17312">
        <ele>2374</ele>
        <time>2019-02-27T11:25:25Z</time>
      </trkpt>
      <trkpt lat="42.74117" lon="0.17312">
        <ele>2374</ele>
        <time>2019-02-27T11:25:26Z</time>
      </trkpt>
      <trkpt lat="42.74117" lon="0.17312">
        <ele>2374</ele>
        <time>2019-02-27T11:25:27Z</time>
      </trkpt>
      <trkpt lat="42.74117" lon="0.17312">
        <ele>2374</ele>
        <time>2019-02-27T11:25:28Z</time>
      </trkpt>
      <trkpt lat="42.74117" lon="0.17312">
        <ele>2374</ele>
        <time>2019-02-27T11:25:29Z</time>
      </trkpt>
      <trkpt lat="42.74117" lon="0.17312">
        <ele>2374</ele>
        <time>2019-02-27T11:25:30Z</time>
      </trkpt>
      <trkpt lat="42.74117" lon="0.17312">
        <ele>2374</ele>
        <time>2019-02-27T11:25:31Z</time>
      </trkpt>
      <trkpt lat="42.74117" lon="0.17312">
        <ele>2374</ele>
        <time>2019-02-27T11:25:32Z</time>
      </trkpt>
      <trkpt lat="42.74117" lon="0.17312">
        <ele>2374</ele>
        <time>2019-02-27T11:25:33Z</time>
      </trkpt>
      <trkpt lat="42.74117" lon="0.17312">
        <ele>2374</ele>
        <time>2019-02-27T11:25:34Z</time>
      </trkpt>
      <trkpt lat="42.74117" lon="0.17312">
        <ele>2374</ele>
        <time>2019-02-27T11:25:35Z</time>
      </trkpt>
      <trkpt lat="42.74117" lon="0.17312">
        <ele>2374</ele>
        <time>2019-02-27T11:25:36Z</time>
      </trkpt>
      <trkpt lat="42.74117" lon="0.17312">
        <ele>2374</ele>
        <time>2019-02-27T11:25:37Z</time>
      </trkpt>
      <trkpt lat="42.74117" lon="0.17312">
        <ele>2374</ele>
        <time>2019-02-27T11:25:38Z</time>
      </trkpt>
      <trkpt lat="42.74117" lon="0.17312">
        <ele>2374</ele>
        <time>2019-02-27T11:25:39Z</time>
      </trkpt>
      <trkpt lat="42.74117" lon="0.17312">
        <ele>2374</ele>
        <time>2019-02-27T11:25:40Z</time>
      </trkpt>
      <trkpt lat="42.74117" lon="0.17312">
        <ele>2374</ele>
        <time>2019-02-27T11:25:41Z</time>
      </trkpt>
      <trkpt lat="42.74117" lon="0.17312">
        <ele>2374</ele>
        <time>2019-02-27T11:25:42Z</time>
      </trkpt>
      <trkpt lat="42.74117" lon="0.17312">
        <ele>2374</ele>
        <time>2019-02-27T11:25:43Z</time>
      </trkpt>
      <trkpt lat="42.74117" lon="0.17312">
        <ele>2374</ele>
        <time>2019-02-27T11:25:44Z</time>
      </trkpt>
      <trkpt lat="42.74117" lon="0.17312">
        <ele>2374</ele>
        <time>2019-02-27T11:25:45Z</time>
      </trkpt>
      <trkpt lat="42.74117" lon="0.17312">
        <ele>2374</ele>
        <time>2019-02-27T11:25:46Z</time>
      </trkpt>
      <trkpt lat="42.74117" lon="0.17312">
        <ele>2374</ele>
        <time>2019-02-27T11:25:47Z</time>
      </trkpt>
      <trkpt lat="42.74117" lon="0.17312">
        <ele>2374</ele>
        <time>2019-02-27T11:25:48Z</time>
      </trkpt>
      <trkpt lat="42.74117" lon="0.17312">
        <ele>2374</ele>
        <time>2019-02-27T11:25:49Z</time>
      </trkpt>
      <trkpt lat="42.74117" lon="0.17312">
        <ele>2374</ele>
        <time>2019-02-27T11:25:50Z</time>
      </trkpt>
      <trkpt lat="42.74117" lon="0.17312">
        <ele>2374</ele>
        <time>2019-02-27T11:25:51Z</time>
      </trkpt>
      <trkpt lat="42.74117" lon="0.17312">
        <ele>2374</ele>
        <time>2019-02-27T11:25:52Z</time>
      </trkpt>
      <trkpt lat="42.74117" lon="0.17312">
        <ele>2374</ele>
        <time>2019-02-27T11:25:53Z</time>
      </trkpt>
      <trkpt lat="42.74117" lon="0.17312">
        <ele>2374</ele>
        <time>2019-02-27T11:25:54Z</time>
      </trkpt>
      <trkpt lat="42.74117" lon="0.17312">
        <ele>2374</ele>
        <time>2019-02-27T11:25:55Z</time>
      </trkpt>
      <trkpt lat="42.74122" lon="0.17311">
        <ele>2374</ele>
        <time>2019-02-27T11:25:56Z</time>
      </trkpt>
      <trkpt lat="42.74126" lon="0.17312">
        <ele>2373</ele>
        <time>2019-02-27T11:25:57Z</time>
      </trkpt>
      <trkpt lat="42.74131" lon="0.17313">
        <ele>2372</ele>
        <time>2019-02-27T11:25:58Z</time>
      </trkpt>
      <trkpt lat="42.74136" lon="0.17315">
        <ele>2372</ele>
        <time>2019-02-27T11:25:59Z</time>
      </trkpt>
      <trkpt lat="42.7414" lon="0.17317">
        <ele>2372</ele>
        <time>2019-02-27T11:26:00Z</time>
      </trkpt>
      <trkpt lat="42.74144" lon="0.17318">
        <ele>2371</ele>
        <time>2019-02-27T11:26:01Z</time>
      </trkpt>
      <trkpt lat="42.74148" lon="0.17319">
        <ele>2371</ele>
        <time>2019-02-27T11:26:02Z</time>
      </trkpt>
      <trkpt lat="42.74152" lon="0.1732">
        <ele>2370</ele>
        <time>2019-02-27T11:26:03Z</time>
      </trkpt>
      <trkpt lat="42.74156" lon="0.17322">
        <ele>2370</ele>
        <time>2019-02-27T11:26:04Z</time>
      </trkpt>
      <trkpt lat="42.7416" lon="0.17324">
        <ele>2369</ele>
        <time>2019-02-27T11:26:05Z</time>
      </trkpt>
      <trkpt lat="42.74164" lon="0.17325">
        <ele>2369</ele>
        <time>2019-02-27T11:26:06Z</time>
      </trkpt>
      <trkpt lat="42.74168" lon="0.17327">
        <ele>2368</ele>
        <time>2019-02-27T11:26:07Z</time>
      </trkpt>
      <trkpt lat="42.74172" lon="0.17329">
        <ele>2368</ele>
        <time>2019-02-27T11:26:08Z</time>
      </trkpt>
      <trkpt lat="42.74177" lon="0.17332">
        <ele>2368</ele>
        <time>2019-02-27T11:26:09Z</time>
      </trkpt>
      <trkpt lat="42.74181" lon="0.17334">
        <ele>2368</ele>
        <time>2019-02-27T11:26:10Z</time>
      </trkpt>
      <trkpt lat="42.74185" lon="0.17336">
        <ele>2367</ele>
        <time>2019-02-27T11:26:11Z</time>
      </trkpt>
      <trkpt lat="42.74189" lon="0.17338">
        <ele>2367</ele>
        <time>2019-02-27T11:26:12Z</time>
      </trkpt>
      <trkpt lat="42.74193" lon="0.1734">
        <ele>2366</ele>
        <time>2019-02-27T11:26:13Z</time>
      </trkpt>
      <trkpt lat="42.74196" lon="0.17342">
        <ele>2366</ele>
        <time>2019-02-27T11:26:14Z</time>
      </trkpt>
      <trkpt lat="42.742" lon="0.17345">
        <ele>2366</ele>
        <time>2019-02-27T11:26:15Z</time>
      </trkpt>
      <trkpt lat="42.74203" lon="0.17347">
        <ele>2365</ele>
        <time>2019-02-27T11:26:16Z</time>
      </trkpt>
      <trkpt lat="42.74205" lon="0.17348">
        <ele>2365</ele>
        <time>2019-02-27T11:26:17Z</time>
      </trkpt>
      <trkpt lat="42.74208" lon="0.1735">
        <ele>2365</ele>
        <time>2019-02-27T11:26:18Z</time>
      </trkpt>
      <trkpt lat="42.74211" lon="0.17352">
        <ele>2364</ele>
        <time>2019-02-27T11:26:19Z</time>
      </trkpt>
      <trkpt lat="42.74214" lon="0.17354">
        <ele>2364</ele>
        <time>2019-02-27T11:26:20Z</time>
      </trkpt>
      <trkpt lat="42.74217" lon="0.17355">
        <ele>2364</ele>
        <time>2019-02-27T11:26:21Z</time>
      </trkpt>
      <trkpt lat="42.7422" lon="0.17357">
        <ele>2364</ele>
        <time>2019-02-27T11:26:22Z</time>
      </trkpt>
      <trkpt lat="42.74223" lon="0.17359">
        <ele>2364</ele>
        <time>2019-02-27T11:26:23Z</time>
      </trkpt>
      <trkpt lat="42.74226" lon="0.1736">
        <ele>2364</ele>
        <time>2019-02-27T11:26:24Z</time>
      </trkpt>
      <trkpt lat="42.74229" lon="0.17362">
        <ele>2363</ele>
        <time>2019-02-27T11:26:25Z</time>
      </trkpt>
      <trkpt lat="42.74232" lon="0.17364">
        <ele>2362</ele>
        <time>2019-02-27T11:26:26Z</time>
      </trkpt>
      <trkpt lat="42.74235" lon="0.17366">
        <ele>2362</ele>
        <time>2019-02-27T11:26:27Z</time>
      </trkpt>
      <trkpt lat="42.74236" lon="0.17368">
        <ele>2362</ele>
        <time>2019-02-27T11:26:28Z</time>
      </trkpt>
      <trkpt lat="42.74236" lon="0.17368">
        <ele>2362</ele>
        <time>2019-02-27T11:26:29Z</time>
      </trkpt>
      <trkpt lat="42.74239" lon="0.17371">
        <ele>2362</ele>
        <time>2019-02-27T11:26:30Z</time>
      </trkpt>
      <trkpt lat="42.74239" lon="0.17371">
        <ele>2362</ele>
        <time>2019-02-27T11:26:31Z</time>
      </trkpt>
      <trkpt lat="42.74242" lon="0.17372">
        <ele>2362</ele>
        <time>2019-02-27T11:26:32Z</time>
      </trkpt>
      <trkpt lat="42.74244" lon="0.17373">
        <ele>2362</ele>
        <time>2019-02-27T11:26:33Z</time>
      </trkpt>
      <trkpt lat="42.74247" lon="0.17374">
        <ele>2362</ele>
        <time>2019-02-27T11:26:34Z</time>
      </trkpt>
      <trkpt lat="42.7425" lon="0.17376">
        <ele>2362</ele>
        <time>2019-02-27T11:26:35Z</time>
      </trkpt>
      <trkpt lat="42.74254" lon="0.17377">
        <ele>2361</ele>
        <time>2019-02-27T11:26:36Z</time>
      </trkpt>
      <trkpt lat="42.74258" lon="0.17378">
        <ele>2360</ele>
        <time>2019-02-27T11:26:37Z</time>
      </trkpt>
      <trkpt lat="42.74263" lon="0.17379">
        <ele>2360</ele>
        <time>2019-02-27T11:26:38Z</time>
      </trkpt>
      <trkpt lat="42.74268" lon="0.17379">
        <ele>2359</ele>
        <time>2019-02-27T11:26:39Z</time>
      </trkpt>
      <trkpt lat="42.74274" lon="0.17379">
        <ele>2358</ele>
        <time>2019-02-27T11:26:40Z</time>
      </trkpt>
      <trkpt lat="42.74278" lon="0.17381">
        <ele>2357</ele>
        <time>2019-02-27T11:26:41Z</time>
      </trkpt>
      <trkpt lat="42.7428" lon="0.17382">
        <ele>2356</ele>
        <time>2019-02-27T11:26:42Z</time>
      </trkpt>
      <trkpt lat="42.7428" lon="0.17382">
        <ele>2356</ele>
        <time>2019-02-27T11:26:43Z</time>
      </trkpt>
      <trkpt lat="42.7428" lon="0.17382">
        <ele>2356</ele>
        <time>2019-02-27T11:26:44Z</time>
      </trkpt>
      <trkpt lat="42.7428" lon="0.17382">
        <ele>2355</ele>
        <time>2019-02-27T11:26:45Z</time>
      </trkpt>
      <trkpt lat="42.7428" lon="0.17382">
        <ele>2355</ele>
        <time>2019-02-27T11:26:46Z</time>
      </trkpt>
      <trkpt lat="42.7428" lon="0.17382">
        <ele>2355</ele>
        <time>2019-02-27T11:26:47Z</time>
      </trkpt>
      <trkpt lat="42.7428" lon="0.17382">
        <ele>2355</ele>
        <time>2019-02-27T11:26:48Z</time>
      </trkpt>
      <trkpt lat="42.74283" lon="0.17381">
        <ele>2355</ele>
        <time>2019-02-27T11:26:49Z</time>
      </trkpt>
      <trkpt lat="42.74286" lon="0.17382">
        <ele>2354</ele>
        <time>2019-02-27T11:26:50Z</time>
      </trkpt>
      <trkpt lat="42.7429" lon="0.17383">
        <ele>2354</ele>
        <time>2019-02-27T11:26:51Z</time>
      </trkpt>
      <trkpt lat="42.74294" lon="0.17385">
        <ele>2354</ele>
        <time>2019-02-27T11:26:52Z</time>
      </trkpt>
      <trkpt lat="42.74297" lon="0.17386">
        <ele>2352</ele>
        <time>2019-02-27T11:26:53Z</time>
      </trkpt>
      <trkpt lat="42.743" lon="0.17388">
        <ele>2352</ele>
        <time>2019-02-27T11:26:54Z</time>
      </trkpt>
      <trkpt lat="42.74304" lon="0.17389">
        <ele>2352</ele>
        <time>2019-02-27T11:26:55Z</time>
      </trkpt>
      <trkpt lat="42.74307" lon="0.17391">
        <ele>2352</ele>
        <time>2019-02-27T11:26:56Z</time>
      </trkpt>
      <trkpt lat="42.7431" lon="0.17392">
        <ele>2351</ele>
        <time>2019-02-27T11:26:57Z</time>
      </trkpt>
      <trkpt lat="42.74314" lon="0.17393">
        <ele>2351</ele>
        <time>2019-02-27T11:26:58Z</time>
      </trkpt>
      <trkpt lat="42.74318" lon="0.17394">
        <ele>2350</ele>
        <time>2019-02-27T11:26:59Z</time>
      </trkpt>
      <trkpt lat="42.74322" lon="0.17395">
        <ele>2350</ele>
        <time>2019-02-27T11:27:00Z</time>
      </trkpt>
      <trkpt lat="42.74327" lon="0.17396">
        <ele>2349</ele>
        <time>2019-02-27T11:27:01Z</time>
      </trkpt>
      <trkpt lat="42.74331" lon="0.17398">
        <ele>2349</ele>
        <time>2019-02-27T11:27:02Z</time>
      </trkpt>
      <trkpt lat="42.74336" lon="0.17399">
        <ele>2348</ele>
        <time>2019-02-27T11:27:03Z</time>
      </trkpt>
      <trkpt lat="42.74341" lon="0.17401">
        <ele>2347</ele>
        <time>2019-02-27T11:27:04Z</time>
      </trkpt>
      <trkpt lat="42.74346" lon="0.17402">
        <ele>2347</ele>
        <time>2019-02-27T11:27:05Z</time>
      </trkpt>
      <trkpt lat="42.74351" lon="0.17404">
        <ele>2346</ele>
        <time>2019-02-27T11:27:06Z</time>
      </trkpt>
      <trkpt lat="42.74355" lon="0.17405">
        <ele>2346</ele>
        <time>2019-02-27T11:27:07Z</time>
      </trkpt>
      <trkpt lat="42.7436" lon="0.17406">
        <ele>2345</ele>
        <time>2019-02-27T11:27:08Z</time>
      </trkpt>
      <trkpt lat="42.74364" lon="0.17407">
        <ele>2345</ele>
        <time>2019-02-27T11:27:09Z</time>
      </trkpt>
      <trkpt lat="42.74369" lon="0.17408">
        <ele>2345</ele>
        <time>2019-02-27T11:27:10Z</time>
      </trkpt>
      <trkpt lat="42.74373" lon="0.17409">
        <ele>2344</ele>
        <time>2019-02-27T11:27:11Z</time>
      </trkpt>
      <trkpt lat="42.74377" lon="0.17411">
        <ele>2344</ele>
        <time>2019-02-27T11:27:12Z</time>
      </trkpt>
      <trkpt lat="42.74382" lon="0.17412">
        <ele>2344</ele>
        <time>2019-02-27T11:27:13Z</time>
      </trkpt>
      <trkpt lat="42.74385" lon="0.17413">
        <ele>2343</ele>
        <time>2019-02-27T11:27:14Z</time>
      </trkpt>
      <trkpt lat="42.7439" lon="0.17414">
        <ele>2343</ele>
        <time>2019-02-27T11:27:15Z</time>
      </trkpt>
      <trkpt lat="42.74394" lon="0.17415">
        <ele>2343</ele>
        <time>2019-02-27T11:27:16Z</time>
      </trkpt>
      <trkpt lat="42.74398" lon="0.17416">
        <ele>2342</ele>
        <time>2019-02-27T11:27:17Z</time>
      </trkpt>
      <trkpt lat="42.74402" lon="0.17417">
        <ele>2342</ele>
        <time>2019-02-27T11:27:18Z</time>
      </trkpt>
      <trkpt lat="42.74406" lon="0.17419">
        <ele>2342</ele>
        <time>2019-02-27T11:27:19Z</time>
      </trkpt>
      <trkpt lat="42.7441" lon="0.1742">
        <ele>2341</ele>
        <time>2019-02-27T11:27:20Z</time>
      </trkpt>
      <trkpt lat="42.74414" lon="0.17421">
        <ele>2340</ele>
        <time>2019-02-27T11:27:21Z</time>
      </trkpt>
      <trkpt lat="42.74418" lon="0.17422">
        <ele>2340</ele>
        <time>2019-02-27T11:27:22Z</time>
      </trkpt>
      <trkpt lat="42.74422" lon="0.17424">
        <ele>2340</ele>
        <time>2019-02-27T11:27:23Z</time>
      </trkpt>
      <trkpt lat="42.74426" lon="0.17425">
        <ele>2339</ele>
        <time>2019-02-27T11:27:24Z</time>
      </trkpt>
      <trkpt lat="42.74431" lon="0.17425">
        <ele>2339</ele>
        <time>2019-02-27T11:27:25Z</time>
      </trkpt>
      <trkpt lat="42.74437" lon="0.17426">
        <ele>2338</ele>
        <time>2019-02-27T11:27:26Z</time>
      </trkpt>
      <trkpt lat="42.74443" lon="0.17428">
        <ele>2337</ele>
        <time>2019-02-27T11:27:27Z</time>
      </trkpt>
      <trkpt lat="42.7445" lon="0.17429">
        <ele>2337</ele>
        <time>2019-02-27T11:27:28Z</time>
      </trkpt>
      <trkpt lat="42.74457" lon="0.1743">
        <ele>2336</ele>
        <time>2019-02-27T11:27:29Z</time>
      </trkpt>
      <trkpt lat="42.74464" lon="0.17431">
        <ele>2335</ele>
        <time>2019-02-27T11:27:30Z</time>
      </trkpt>
      <trkpt lat="42.74471" lon="0.17433">
        <ele>2334</ele>
        <time>2019-02-27T11:27:31Z</time>
      </trkpt>
      <trkpt lat="42.74477" lon="0.17434">
        <ele>2333</ele>
        <time>2019-02-27T11:27:32Z</time>
      </trkpt>
      <trkpt lat="42.74482" lon="0.17436">
        <ele>2332</ele>
        <time>2019-02-27T11:27:33Z</time>
      </trkpt>
      <trkpt lat="42.74488" lon="0.17437">
        <ele>2332</ele>
        <time>2019-02-27T11:27:34Z</time>
      </trkpt>
      <trkpt lat="42.74493" lon="0.17437">
        <ele>2332</ele>
        <time>2019-02-27T11:27:35Z</time>
      </trkpt>
      <trkpt lat="42.74498" lon="0.17438">
        <ele>2331</ele>
        <time>2019-02-27T11:27:36Z</time>
      </trkpt>
      <trkpt lat="42.74501" lon="0.17438">
        <ele>2330</ele>
        <time>2019-02-27T11:27:37Z</time>
      </trkpt>
      <trkpt lat="42.74505" lon="0.17439">
        <ele>2330</ele>
        <time>2019-02-27T11:27:38Z</time>
      </trkpt>
      <trkpt lat="42.74507" lon="0.1744">
        <ele>2329</ele>
        <time>2019-02-27T11:27:39Z</time>
      </trkpt>
      <trkpt lat="42.7451" lon="0.17441">
        <ele>2328</ele>
        <time>2019-02-27T11:27:40Z</time>
      </trkpt>
      <trkpt lat="42.74512" lon="0.17441">
        <ele>2328</ele>
        <time>2019-02-27T11:27:41Z</time>
      </trkpt>
      <trkpt lat="42.74512" lon="0.17441">
        <ele>2328</ele>
        <time>2019-02-27T11:27:42Z</time>
      </trkpt>
      <trkpt lat="42.74517" lon="0.17441">
        <ele>2328</ele>
        <time>2019-02-27T11:27:43Z</time>
      </trkpt>
      <trkpt lat="42.74517" lon="0.17441">
        <ele>2326</ele>
        <time>2019-02-27T11:27:44Z</time>
      </trkpt>
      <trkpt lat="42.74516" lon="0.17438">
        <ele>2326</ele>
        <time>2019-02-27T11:27:45Z</time>
      </trkpt>
      <trkpt lat="42.74516" lon="0.17438">
        <ele>2326</ele>
        <time>2019-02-27T11:27:46Z</time>
      </trkpt>
      <trkpt lat="42.74514" lon="0.17437">
        <ele>2325</ele>
        <time>2019-02-27T11:27:47Z</time>
      </trkpt>
      <trkpt lat="42.74514" lon="0.17437">
        <ele>2325</ele>
        <time>2019-02-27T11:27:48Z</time>
      </trkpt>
      <trkpt lat="42.74514" lon="0.17437">
        <ele>2325</ele>
        <time>2019-02-27T11:27:49Z</time>
      </trkpt>
      <trkpt lat="42.74514" lon="0.17437">
        <ele>2324</ele>
        <time>2019-02-27T11:27:50Z</time>
      </trkpt>
      <trkpt lat="42.74514" lon="0.17437">
        <ele>2324</ele>
        <time>2019-02-27T11:27:51Z</time>
      </trkpt>
      <trkpt lat="42.74514" lon="0.17437">
        <ele>2324</ele>
        <time>2019-02-27T11:27:52Z</time>
      </trkpt>
      <trkpt lat="42.74514" lon="0.17437">
        <ele>2324</ele>
        <time>2019-02-27T11:27:53Z</time>
      </trkpt>
      <trkpt lat="42.74514" lon="0.17437">
        <ele>2324</ele>
        <time>2019-02-27T11:27:54Z</time>
      </trkpt>
      <trkpt lat="42.74514" lon="0.17437">
        <ele>2324</ele>
        <time>2019-02-27T11:27:55Z</time>
      </trkpt>
      <trkpt lat="42.74514" lon="0.17437">
        <ele>2324</ele>
        <time>2019-02-27T11:27:56Z</time>
      </trkpt>
      <trkpt lat="42.74514" lon="0.17437">
        <ele>2324</ele>
        <time>2019-02-27T11:27:57Z</time>
      </trkpt>
      <trkpt lat="42.74514" lon="0.17437">
        <ele>2324</ele>
        <time>2019-02-27T11:27:58Z</time>
      </trkpt>
      <trkpt lat="42.74514" lon="0.17437">
        <ele>2324</ele>
        <time>2019-02-27T11:27:59Z</time>
      </trkpt>
      <trkpt lat="42.74514" lon="0.17437">
        <ele>2324</ele>
        <time>2019-02-27T11:28:00Z</time>
      </trkpt>
      <trkpt lat="42.74514" lon="0.17437">
        <ele>2324</ele>
        <time>2019-02-27T11:28:01Z</time>
      </trkpt>
      <trkpt lat="42.74514" lon="0.17437">
        <ele>2324</ele>
        <time>2019-02-27T11:28:02Z</time>
      </trkpt>
      <trkpt lat="42.74514" lon="0.17437">
        <ele>2324</ele>
        <time>2019-02-27T11:28:03Z</time>
      </trkpt>
      <trkpt lat="42.74514" lon="0.17437">
        <ele>2324</ele>
        <time>2019-02-27T11:28:04Z</time>
      </trkpt>
      <trkpt lat="42.74514" lon="0.17437">
        <ele>2324</ele>
        <time>2019-02-27T11:28:05Z</time>
      </trkpt>
      <trkpt lat="42.74514" lon="0.17437">
        <ele>2324</ele>
        <time>2019-02-27T11:28:06Z</time>
      </trkpt>
      <trkpt lat="42.74514" lon="0.17437">
        <ele>2324</ele>
        <time>2019-02-27T11:28:07Z</time>
      </trkpt>
      <trkpt lat="42.74514" lon="0.17437">
        <ele>2324</ele>
        <time>2019-02-27T11:28:08Z</time>
      </trkpt>
      <trkpt lat="42.74514" lon="0.17437">
        <ele>2324</ele>
        <time>2019-02-27T11:28:09Z</time>
      </trkpt>
      <trkpt lat="42.74514" lon="0.17437">
        <ele>2324</ele>
        <time>2019-02-27T11:28:10Z</time>
      </trkpt>
      <trkpt lat="42.74514" lon="0.17437">
        <ele>2324</ele>
        <time>2019-02-27T11:28:11Z</time>
      </trkpt>
      <trkpt lat="42.74514" lon="0.17437">
        <ele>2324</ele>
        <time>2019-02-27T11:28:12Z</time>
      </trkpt>
      <trkpt lat="42.74514" lon="0.17437">
        <ele>2324</ele>
        <time>2019-02-27T11:28:13Z</time>
      </trkpt>
      <trkpt lat="42.74514" lon="0.17437">
        <ele>2324</ele>
        <time>2019-02-27T11:28:14Z</time>
      </trkpt>
      <trkpt lat="42.74514" lon="0.17437">
        <ele>2324</ele>
        <time>2019-02-27T11:28:15Z</time>
      </trkpt>
      <trkpt lat="42.74514" lon="0.17437">
        <ele>2324</ele>
        <time>2019-02-27T11:28:16Z</time>
      </trkpt>
      <trkpt lat="42.74514" lon="0.17437">
        <ele>2324</ele>
        <time>2019-02-27T11:28:17Z</time>
      </trkpt>
      <trkpt lat="42.74514" lon="0.17437">
        <ele>2324</ele>
        <time>2019-02-27T11:28:18Z</time>
      </trkpt>
      <trkpt lat="42.74514" lon="0.17437">
        <ele>2324</ele>
        <time>2019-02-27T11:28:19Z</time>
      </trkpt>
      <trkpt lat="42.74514" lon="0.17437">
        <ele>2324</ele>
        <time>2019-02-27T11:28:20Z</time>
      </trkpt>
      <trkpt lat="42.74514" lon="0.17437">
        <ele>2324</ele>
        <time>2019-02-27T11:28:21Z</time>
      </trkpt>
      <trkpt lat="42.74514" lon="0.17437">
        <ele>2324</ele>
        <time>2019-02-27T11:28:22Z</time>
      </trkpt>
      <trkpt lat="42.74514" lon="0.17437">
        <ele>2324</ele>
        <time>2019-02-27T11:28:23Z</time>
      </trkpt>
      <trkpt lat="42.74514" lon="0.17437">
        <ele>2324</ele>
        <time>2019-02-27T11:28:24Z</time>
      </trkpt>
      <trkpt lat="42.74514" lon="0.17437">
        <ele>2324</ele>
        <time>2019-02-27T11:28:25Z</time>
      </trkpt>
      <trkpt lat="42.74514" lon="0.17437">
        <ele>2324</ele>
        <time>2019-02-27T11:28:26Z</time>
      </trkpt>
      <trkpt lat="42.74514" lon="0.17437">
        <ele>2324</ele>
        <time>2019-02-27T11:28:27Z</time>
      </trkpt>
      <trkpt lat="42.74514" lon="0.17437">
        <ele>2324</ele>
        <time>2019-02-27T11:28:28Z</time>
      </trkpt>
      <trkpt lat="42.74514" lon="0.17437">
        <ele>2324</ele>
        <time>2019-02-27T11:28:29Z</time>
      </trkpt>
      <trkpt lat="42.74514" lon="0.17437">
        <ele>2324</ele>
        <time>2019-02-27T11:28:30Z</time>
      </trkpt>
      <trkpt lat="42.74514" lon="0.17437">
        <ele>2324</ele>
        <time>2019-02-27T11:28:31Z</time>
      </trkpt>
      <trkpt lat="42.74514" lon="0.17437">
        <ele>2324</ele>
        <time>2019-02-27T11:28:32Z</time>
      </trkpt>
      <trkpt lat="42.74514" lon="0.17437">
        <ele>2324</ele>
        <time>2019-02-27T11:28:33Z</time>
      </trkpt>
      <trkpt lat="42.74514" lon="0.17437">
        <ele>2324</ele>
        <time>2019-02-27T11:28:34Z</time>
      </trkpt>
      <trkpt lat="42.74514" lon="0.17437">
        <ele>2324</ele>
        <time>2019-02-27T11:28:35Z</time>
      </trkpt>
      <trkpt lat="42.74514" lon="0.17437">
        <ele>2324</ele>
        <time>2019-02-27T11:28:36Z</time>
      </trkpt>
      <trkpt lat="42.74514" lon="0.17437">
        <ele>2324</ele>
        <time>2019-02-27T11:28:37Z</time>
      </trkpt>
      <trkpt lat="42.74514" lon="0.17437">
        <ele>2324</ele>
        <time>2019-02-27T11:28:38Z</time>
      </trkpt>
      <trkpt lat="42.74514" lon="0.17437">
        <ele>2324</ele>
        <time>2019-02-27T11:28:39Z</time>
      </trkpt>
      <trkpt lat="42.74514" lon="0.17437">
        <ele>2324</ele>
        <time>2019-02-27T11:28:40Z</time>
      </trkpt>
      <trkpt lat="42.74514" lon="0.17437">
        <ele>2324</ele>
        <time>2019-02-27T11:28:41Z</time>
      </trkpt>
      <trkpt lat="42.74514" lon="0.17437">
        <ele>2324</ele>
        <time>2019-02-27T11:28:42Z</time>
      </trkpt>
      <trkpt lat="42.74514" lon="0.17437">
        <ele>2324</ele>
        <time>2019-02-27T11:28:43Z</time>
      </trkpt>
      <trkpt lat="42.74514" lon="0.17437">
        <ele>2324</ele>
        <time>2019-02-27T11:28:44Z</time>
      </trkpt>
      <trkpt lat="42.74514" lon="0.17437">
        <ele>2324</ele>
        <time>2019-02-27T11:28:45Z</time>
      </trkpt>
      <trkpt lat="42.74514" lon="0.17437">
        <ele>2324</ele>
        <time>2019-02-27T11:28:46Z</time>
      </trkpt>
      <trkpt lat="42.74514" lon="0.17437">
        <ele>2324</ele>
        <time>2019-02-27T11:28:47Z</time>
      </trkpt>
      <trkpt lat="42.74514" lon="0.17437">
        <ele>2324</ele>
        <time>2019-02-27T11:28:48Z</time>
      </trkpt>
      <trkpt lat="42.74514" lon="0.17437">
        <ele>2324</ele>
        <time>2019-02-27T11:28:49Z</time>
      </trkpt>
      <trkpt lat="42.74514" lon="0.17437">
        <ele>2324</ele>
        <time>2019-02-27T11:28:50Z</time>
      </trkpt>
      <trkpt lat="42.74514" lon="0.17437">
        <ele>2324</ele>
        <time>2019-02-27T11:28:51Z</time>
      </trkpt>
      <trkpt lat="42.74514" lon="0.17437">
        <ele>2324</ele>
        <time>2019-02-27T11:28:52Z</time>
      </trkpt>
      <trkpt lat="42.74514" lon="0.17437">
        <ele>2324</ele>
        <time>2019-02-27T11:28:53Z</time>
      </trkpt>
      <trkpt lat="42.74514" lon="0.17437">
        <ele>2324</ele>
        <time>2019-02-27T11:28:54Z</time>
      </trkpt>
      <trkpt lat="42.74514" lon="0.17437">
        <ele>2324</ele>
        <time>2019-02-27T11:28:55Z</time>
      </trkpt>
      <trkpt lat="42.74514" lon="0.17437">
        <ele>2324</ele>
        <time>2019-02-27T11:28:56Z</time>
      </trkpt>
      <trkpt lat="42.74514" lon="0.17437">
        <ele>2324</ele>
        <time>2019-02-27T11:28:57Z</time>
      </trkpt>
      <trkpt lat="42.74514" lon="0.17437">
        <ele>2324</ele>
        <time>2019-02-27T11:28:58Z</time>
      </trkpt>
      <trkpt lat="42.74514" lon="0.17437">
        <ele>2324</ele>
        <time>2019-02-27T11:28:59Z</time>
      </trkpt>
      <trkpt lat="42.74514" lon="0.17437">
        <ele>2324</ele>
        <time>2019-02-27T11:29:00Z</time>
      </trkpt>
      <trkpt lat="42.74514" lon="0.17437">
        <ele>2324</ele>
        <time>2019-02-27T11:29:01Z</time>
      </trkpt>
      <trkpt lat="42.74514" lon="0.17437">
        <ele>2324</ele>
        <time>2019-02-27T11:29:02Z</time>
      </trkpt>
      <trkpt lat="42.74514" lon="0.17437">
        <ele>2324</ele>
        <time>2019-02-27T11:29:03Z</time>
      </trkpt>
      <trkpt lat="42.74514" lon="0.17437">
        <ele>2324</ele>
        <time>2019-02-27T11:29:04Z</time>
      </trkpt>
      <trkpt lat="42.74514" lon="0.17437">
        <ele>2324</ele>
        <time>2019-02-27T11:29:05Z</time>
      </trkpt>
      <trkpt lat="42.74514" lon="0.17437">
        <ele>2324</ele>
        <time>2019-02-27T11:29:06Z</time>
      </trkpt>
      <trkpt lat="42.74514" lon="0.17437">
        <ele>2324</ele>
        <time>2019-02-27T11:29:07Z</time>
      </trkpt>
      <trkpt lat="42.74514" lon="0.17437">
        <ele>2324</ele>
        <time>2019-02-27T11:29:08Z</time>
      </trkpt>
      <trkpt lat="42.74514" lon="0.17437">
        <ele>2324</ele>
        <time>2019-02-27T11:29:09Z</time>
      </trkpt>
      <trkpt lat="42.74514" lon="0.17437">
        <ele>2324</ele>
        <time>2019-02-27T11:29:10Z</time>
      </trkpt>
      <trkpt lat="42.74514" lon="0.17437">
        <ele>2324</ele>
        <time>2019-02-27T11:29:11Z</time>
      </trkpt>
      <trkpt lat="42.74514" lon="0.17437">
        <ele>2324</ele>
        <time>2019-02-27T11:29:12Z</time>
      </trkpt>
      <trkpt lat="42.74514" lon="0.17437">
        <ele>2324</ele>
        <time>2019-02-27T11:29:13Z</time>
      </trkpt>
      <trkpt lat="42.74514" lon="0.17437">
        <ele>2324</ele>
        <time>2019-02-27T11:29:14Z</time>
      </trkpt>
      <trkpt lat="42.74514" lon="0.17437">
        <ele>2324</ele>
        <time>2019-02-27T11:29:15Z</time>
      </trkpt>
      <trkpt lat="42.74514" lon="0.17437">
        <ele>2324</ele>
        <time>2019-02-27T11:29:16Z</time>
      </trkpt>
      <trkpt lat="42.74514" lon="0.17437">
        <ele>2324</ele>
        <time>2019-02-27T11:29:17Z</time>
      </trkpt>
      <trkpt lat="42.74514" lon="0.17437">
        <ele>2324</ele>
        <time>2019-02-27T11:29:18Z</time>
      </trkpt>
      <trkpt lat="42.74514" lon="0.17437">
        <ele>2324</ele>
        <time>2019-02-27T11:29:19Z</time>
      </trkpt>
      <trkpt lat="42.74514" lon="0.17437">
        <ele>2324</ele>
        <time>2019-02-27T11:29:20Z</time>
      </trkpt>
      <trkpt lat="42.74514" lon="0.17437">
        <ele>2324</ele>
        <time>2019-02-27T11:29:21Z</time>
      </trkpt>
      <trkpt lat="42.74514" lon="0.17437">
        <ele>2324</ele>
        <time>2019-02-27T11:29:22Z</time>
      </trkpt>
      <trkpt lat="42.74514" lon="0.17437">
        <ele>2324</ele>
        <time>2019-02-27T11:29:23Z</time>
      </trkpt>
      <trkpt lat="42.74514" lon="0.17437">
        <ele>2324</ele>
        <time>2019-02-27T11:29:24Z</time>
      </trkpt>
      <trkpt lat="42.74514" lon="0.17437">
        <ele>2324</ele>
        <time>2019-02-27T11:29:25Z</time>
      </trkpt>
      <trkpt lat="42.74514" lon="0.17437">
        <ele>2324</ele>
        <time>2019-02-27T11:29:26Z</time>
      </trkpt>
      <trkpt lat="42.74514" lon="0.17437">
        <ele>2324</ele>
        <time>2019-02-27T11:29:27Z</time>
      </trkpt>
      <trkpt lat="42.74514" lon="0.17437">
        <ele>2324</ele>
        <time>2019-02-27T11:29:28Z</time>
      </trkpt>
      <trkpt lat="42.74514" lon="0.17437">
        <ele>2324</ele>
        <time>2019-02-27T11:29:29Z</time>
      </trkpt>
      <trkpt lat="42.74514" lon="0.17437">
        <ele>2324</ele>
        <time>2019-02-27T11:29:30Z</time>
      </trkpt>
      <trkpt lat="42.74514" lon="0.17437">
        <ele>2323</ele>
        <time>2019-02-27T11:29:31Z</time>
      </trkpt>
      <trkpt lat="42.74514" lon="0.17437">
        <ele>2323</ele>
        <time>2019-02-27T11:29:32Z</time>
      </trkpt>
      <trkpt lat="42.74514" lon="0.17437">
        <ele>2323</ele>
        <time>2019-02-27T11:29:33Z</time>
      </trkpt>
      <trkpt lat="42.74514" lon="0.17437">
        <ele>2323</ele>
        <time>2019-02-27T11:29:34Z</time>
      </trkpt>
      <trkpt lat="42.74514" lon="0.17437">
        <ele>2323</ele>
        <time>2019-02-27T11:29:35Z</time>
      </trkpt>
      <trkpt lat="42.74514" lon="0.17437">
        <ele>2323</ele>
        <time>2019-02-27T11:29:36Z</time>
      </trkpt>
      <trkpt lat="42.74514" lon="0.17437">
        <ele>2323</ele>
        <time>2019-02-27T11:29:37Z</time>
      </trkpt>
      <trkpt lat="42.74514" lon="0.17437">
        <ele>2323</ele>
        <time>2019-02-27T11:29:38Z</time>
      </trkpt>
      <trkpt lat="42.74514" lon="0.17437">
        <ele>2323</ele>
        <time>2019-02-27T11:29:39Z</time>
      </trkpt>
      <trkpt lat="42.74514" lon="0.17437">
        <ele>2323</ele>
        <time>2019-02-27T11:29:40Z</time>
      </trkpt>
      <trkpt lat="42.74514" lon="0.17437">
        <ele>2323</ele>
        <time>2019-02-27T11:29:41Z</time>
      </trkpt>
      <trkpt lat="42.74514" lon="0.17437">
        <ele>2323</ele>
        <time>2019-02-27T11:29:42Z</time>
      </trkpt>
      <trkpt lat="42.74514" lon="0.17437">
        <ele>2323</ele>
        <time>2019-02-27T11:29:43Z</time>
      </trkpt>
      <trkpt lat="42.74514" lon="0.17437">
        <ele>2323</ele>
        <time>2019-02-27T11:29:44Z</time>
      </trkpt>
      <trkpt lat="42.74514" lon="0.17437">
        <ele>2323</ele>
        <time>2019-02-27T11:29:45Z</time>
      </trkpt>
      <trkpt lat="42.74514" lon="0.17437">
        <ele>2323</ele>
        <time>2019-02-27T11:29:46Z</time>
      </trkpt>
      <trkpt lat="42.74514" lon="0.17437">
        <ele>2323</ele>
        <time>2019-02-27T11:29:47Z</time>
      </trkpt>
      <trkpt lat="42.74514" lon="0.17437">
        <ele>2323</ele>
        <time>2019-02-27T11:29:48Z</time>
      </trkpt>
      <trkpt lat="42.74514" lon="0.17437">
        <ele>2323</ele>
        <time>2019-02-27T11:29:49Z</time>
      </trkpt>
      <trkpt lat="42.74514" lon="0.17437">
        <ele>2323</ele>
        <time>2019-02-27T11:29:50Z</time>
      </trkpt>
      <trkpt lat="42.74514" lon="0.17437">
        <ele>2323</ele>
        <time>2019-02-27T11:29:51Z</time>
      </trkpt>
      <trkpt lat="42.74514" lon="0.17437">
        <ele>2323</ele>
        <time>2019-02-27T11:29:52Z</time>
      </trkpt>
      <trkpt lat="42.74514" lon="0.17437">
        <ele>2323</ele>
        <time>2019-02-27T11:29:53Z</time>
      </trkpt>
      <trkpt lat="42.74514" lon="0.17437">
        <ele>2323</ele>
        <time>2019-02-27T11:29:54Z</time>
      </trkpt>
      <trkpt lat="42.74514" lon="0.17437">
        <ele>2323</ele>
        <time>2019-02-27T11:29:55Z</time>
      </trkpt>
      <trkpt lat="42.74514" lon="0.17437">
        <ele>2323</ele>
        <time>2019-02-27T11:29:56Z</time>
      </trkpt>
      <trkpt lat="42.74514" lon="0.17437">
        <ele>2323</ele>
        <time>2019-02-27T11:29:57Z</time>
      </trkpt>
      <trkpt lat="42.74514" lon="0.17437">
        <ele>2323</ele>
        <time>2019-02-27T11:29:58Z</time>
      </trkpt>
      <trkpt lat="42.74514" lon="0.17437">
        <ele>2323</ele>
        <time>2019-02-27T11:29:59Z</time>
      </trkpt>
      <trkpt lat="42.74514" lon="0.17437">
        <ele>2323</ele>
        <time>2019-02-27T11:30:00Z</time>
      </trkpt>
      <trkpt lat="42.74514" lon="0.17437">
        <ele>2323</ele>
        <time>2019-02-27T11:30:01Z</time>
      </trkpt>
      <trkpt lat="42.74514" lon="0.17437">
        <ele>2323</ele>
        <time>2019-02-27T11:30:02Z</time>
      </trkpt>
      <trkpt lat="42.74514" lon="0.17437">
        <ele>2323</ele>
        <time>2019-02-27T11:30:03Z</time>
      </trkpt>
      <trkpt lat="42.74514" lon="0.17437">
        <ele>2323</ele>
        <time>2019-02-27T11:30:04Z</time>
      </trkpt>
      <trkpt lat="42.74514" lon="0.17437">
        <ele>2323</ele>
        <time>2019-02-27T11:30:05Z</time>
      </trkpt>
      <trkpt lat="42.74514" lon="0.17437">
        <ele>2323</ele>
        <time>2019-02-27T11:30:06Z</time>
      </trkpt>
      <trkpt lat="42.74514" lon="0.17437">
        <ele>2323</ele>
        <time>2019-02-27T11:30:07Z</time>
      </trkpt>
      <trkpt lat="42.74514" lon="0.17437">
        <ele>2323</ele>
        <time>2019-02-27T11:30:08Z</time>
      </trkpt>
      <trkpt lat="42.74514" lon="0.17437">
        <ele>2323</ele>
        <time>2019-02-27T11:30:09Z</time>
      </trkpt>
      <trkpt lat="42.74514" lon="0.17437">
        <ele>2323</ele>
        <time>2019-02-27T11:30:10Z</time>
      </trkpt>
      <trkpt lat="42.74514" lon="0.17437">
        <ele>2323</ele>
        <time>2019-02-27T11:30:11Z</time>
      </trkpt>
      <trkpt lat="42.74514" lon="0.17437">
        <ele>2323</ele>
        <time>2019-02-27T11:30:12Z</time>
      </trkpt>
      <trkpt lat="42.74514" lon="0.17437">
        <ele>2323</ele>
        <time>2019-02-27T11:30:13Z</time>
      </trkpt>
      <trkpt lat="42.74514" lon="0.17437">
        <ele>2323</ele>
        <time>2019-02-27T11:30:14Z</time>
      </trkpt>
      <trkpt lat="42.74514" lon="0.17437">
        <ele>2323</ele>
        <time>2019-02-27T11:30:15Z</time>
      </trkpt>
      <trkpt lat="42.74514" lon="0.17437">
        <ele>2323</ele>
        <time>2019-02-27T11:30:16Z</time>
      </trkpt>
      <trkpt lat="42.74514" lon="0.17437">
        <ele>2323</ele>
        <time>2019-02-27T11:30:17Z</time>
      </trkpt>
      <trkpt lat="42.74514" lon="0.17437">
        <ele>2323</ele>
        <time>2019-02-27T11:30:18Z</time>
      </trkpt>
      <trkpt lat="42.74514" lon="0.17437">
        <ele>2323</ele>
        <time>2019-02-27T11:30:19Z</time>
      </trkpt>
      <trkpt lat="42.74514" lon="0.17437">
        <ele>2323</ele>
        <time>2019-02-27T11:30:20Z</time>
      </trkpt>
      <trkpt lat="42.74514" lon="0.17437">
        <ele>2323</ele>
        <time>2019-02-27T11:30:21Z</time>
      </trkpt>
      <trkpt lat="42.74514" lon="0.17437">
        <ele>2324</ele>
        <time>2019-02-27T11:30:22Z</time>
      </trkpt>
      <trkpt lat="42.74514" lon="0.17437">
        <ele>2324</ele>
        <time>2019-02-27T11:30:23Z</time>
      </trkpt>
      <trkpt lat="42.74514" lon="0.17437">
        <ele>2324</ele>
        <time>2019-02-27T11:30:24Z</time>
      </trkpt>
      <trkpt lat="42.74514" lon="0.17437">
        <ele>2324</ele>
        <time>2019-02-27T11:30:25Z</time>
      </trkpt>
      <trkpt lat="42.74514" lon="0.17437">
        <ele>2324</ele>
        <time>2019-02-27T11:30:26Z</time>
      </trkpt>
      <trkpt lat="42.74514" lon="0.17437">
        <ele>2324</ele>
        <time>2019-02-27T11:30:27Z</time>
      </trkpt>
      <trkpt lat="42.74514" lon="0.17437">
        <ele>2324</ele>
        <time>2019-02-27T11:30:28Z</time>
      </trkpt>
      <trkpt lat="42.74514" lon="0.17437">
        <ele>2324</ele>
        <time>2019-02-27T11:30:29Z</time>
      </trkpt>
      <trkpt lat="42.74514" lon="0.17437">
        <ele>2324</ele>
        <time>2019-02-27T11:30:30Z</time>
      </trkpt>
      <trkpt lat="42.74514" lon="0.17437">
        <ele>2324</ele>
        <time>2019-02-27T11:30:31Z</time>
      </trkpt>
      <trkpt lat="42.74514" lon="0.17437">
        <ele>2324</ele>
        <time>2019-02-27T11:30:32Z</time>
      </trkpt>
      <trkpt lat="42.74514" lon="0.17437">
        <ele>2324</ele>
        <time>2019-02-27T11:30:33Z</time>
      </trkpt>
      <trkpt lat="42.74514" lon="0.17437">
        <ele>2324</ele>
        <time>2019-02-27T11:30:34Z</time>
      </trkpt>
      <trkpt lat="42.74514" lon="0.17437">
        <ele>2324</ele>
        <time>2019-02-27T11:30:35Z</time>
      </trkpt>
      <trkpt lat="42.74514" lon="0.17437">
        <ele>2324</ele>
        <time>2019-02-27T11:30:36Z</time>
      </trkpt>
      <trkpt lat="42.74514" lon="0.17437">
        <ele>2324</ele>
        <time>2019-02-27T11:30:37Z</time>
      </trkpt>
      <trkpt lat="42.74514" lon="0.17437">
        <ele>2324</ele>
        <time>2019-02-27T11:30:38Z</time>
      </trkpt>
      <trkpt lat="42.74514" lon="0.17437">
        <ele>2324</ele>
        <time>2019-02-27T11:30:39Z</time>
      </trkpt>
      <trkpt lat="42.74514" lon="0.17437">
        <ele>2324</ele>
        <time>2019-02-27T11:30:40Z</time>
      </trkpt>
      <trkpt lat="42.74514" lon="0.17437">
        <ele>2324</ele>
        <time>2019-02-27T11:30:41Z</time>
      </trkpt>
      <trkpt lat="42.74514" lon="0.17437">
        <ele>2324</ele>
        <time>2019-02-27T11:30:42Z</time>
      </trkpt>
      <trkpt lat="42.74514" lon="0.17437">
        <ele>2324</ele>
        <time>2019-02-27T11:30:43Z</time>
      </trkpt>
      <trkpt lat="42.74514" lon="0.17437">
        <ele>2324</ele>
        <time>2019-02-27T11:30:44Z</time>
      </trkpt>
      <trkpt lat="42.74514" lon="0.17437">
        <ele>2324</ele>
        <time>2019-02-27T11:30:45Z</time>
      </trkpt>
      <trkpt lat="42.74514" lon="0.17437">
        <ele>2324</ele>
        <time>2019-02-27T11:30:46Z</time>
      </trkpt>
      <trkpt lat="42.74514" lon="0.17437">
        <ele>2324</ele>
        <time>2019-02-27T11:30:47Z</time>
      </trkpt>
      <trkpt lat="42.74514" lon="0.17437">
        <ele>2324</ele>
        <time>2019-02-27T11:30:48Z</time>
      </trkpt>
      <trkpt lat="42.74514" lon="0.17437">
        <ele>2324</ele>
        <time>2019-02-27T11:30:49Z</time>
      </trkpt>
      <trkpt lat="42.74514" lon="0.17437">
        <ele>2324</ele>
        <time>2019-02-27T11:30:50Z</time>
      </trkpt>
      <trkpt lat="42.74514" lon="0.17437">
        <ele>2324</ele>
        <time>2019-02-27T11:30:51Z</time>
      </trkpt>
      <trkpt lat="42.74514" lon="0.17437">
        <ele>2324</ele>
        <time>2019-02-27T11:30:52Z</time>
      </trkpt>
      <trkpt lat="42.74514" lon="0.17437">
        <ele>2324</ele>
        <time>2019-02-27T11:30:53Z</time>
      </trkpt>
      <trkpt lat="42.74514" lon="0.17437">
        <ele>2324</ele>
        <time>2019-02-27T11:30:54Z</time>
      </trkpt>
      <trkpt lat="42.74514" lon="0.17437">
        <ele>2324</ele>
        <time>2019-02-27T11:30:55Z</time>
      </trkpt>
      <trkpt lat="42.74514" lon="0.17437">
        <ele>2324</ele>
        <time>2019-02-27T11:30:56Z</time>
      </trkpt>
      <trkpt lat="42.74514" lon="0.17437">
        <ele>2324</ele>
        <time>2019-02-27T11:30:57Z</time>
      </trkpt>
      <trkpt lat="42.74514" lon="0.17437">
        <ele>2324</ele>
        <time>2019-02-27T11:30:58Z</time>
      </trkpt>
      <trkpt lat="42.74514" lon="0.17437">
        <ele>2324</ele>
        <time>2019-02-27T11:30:59Z</time>
      </trkpt>
      <trkpt lat="42.74514" lon="0.17437">
        <ele>2324</ele>
        <time>2019-02-27T11:31:00Z</time>
      </trkpt>
      <trkpt lat="42.74514" lon="0.17437">
        <ele>2324</ele>
        <time>2019-02-27T11:31:01Z</time>
      </trkpt>
      <trkpt lat="42.74514" lon="0.17437">
        <ele>2324</ele>
        <time>2019-02-27T11:31:02Z</time>
      </trkpt>
      <trkpt lat="42.74514" lon="0.17437">
        <ele>2324</ele>
        <time>2019-02-27T11:31:03Z</time>
      </trkpt>
      <trkpt lat="42.74514" lon="0.17437">
        <ele>2324</ele>
        <time>2019-02-27T11:31:04Z</time>
      </trkpt>
      <trkpt lat="42.74514" lon="0.17437">
        <ele>2324</ele>
        <time>2019-02-27T11:31:05Z</time>
      </trkpt>
      <trkpt lat="42.74514" lon="0.17437">
        <ele>2324</ele>
        <time>2019-02-27T11:31:06Z</time>
      </trkpt>
      <trkpt lat="42.74514" lon="0.17437">
        <ele>2324</ele>
        <time>2019-02-27T11:31:07Z</time>
      </trkpt>
      <trkpt lat="42.74514" lon="0.17437">
        <ele>2324</ele>
        <time>2019-02-27T11:31:08Z</time>
      </trkpt>
      <trkpt lat="42.74514" lon="0.17437">
        <ele>2324</ele>
        <time>2019-02-27T11:31:09Z</time>
      </trkpt>
      <trkpt lat="42.74514" lon="0.17437">
        <ele>2324</ele>
        <time>2019-02-27T11:31:10Z</time>
      </trkpt>
      <trkpt lat="42.74514" lon="0.17437">
        <ele>2324</ele>
        <time>2019-02-27T11:31:11Z</time>
      </trkpt>
      <trkpt lat="42.74514" lon="0.17437">
        <ele>2324</ele>
        <time>2019-02-27T11:31:12Z</time>
      </trkpt>
      <trkpt lat="42.74514" lon="0.17437">
        <ele>2324</ele>
        <time>2019-02-27T11:31:13Z</time>
      </trkpt>
      <trkpt lat="42.74514" lon="0.17437">
        <ele>2324</ele>
        <time>2019-02-27T11:31:14Z</time>
      </trkpt>
      <trkpt lat="42.74514" lon="0.17437">
        <ele>2324</ele>
        <time>2019-02-27T11:31:15Z</time>
      </trkpt>
      <trkpt lat="42.74514" lon="0.17437">
        <ele>2324</ele>
        <time>2019-02-27T11:31:16Z</time>
      </trkpt>
      <trkpt lat="42.74514" lon="0.17437">
        <ele>2324</ele>
        <time>2019-02-27T11:31:17Z</time>
      </trkpt>
      <trkpt lat="42.74514" lon="0.17437">
        <ele>2324</ele>
        <time>2019-02-27T11:31:18Z</time>
      </trkpt>
      <trkpt lat="42.74514" lon="0.17437">
        <ele>2324</ele>
        <time>2019-02-27T11:31:19Z</time>
      </trkpt>
      <trkpt lat="42.74514" lon="0.17437">
        <ele>2324</ele>
        <time>2019-02-27T11:31:20Z</time>
      </trkpt>
      <trkpt lat="42.74514" lon="0.17437">
        <ele>2324</ele>
        <time>2019-02-27T11:31:21Z</time>
      </trkpt>
      <trkpt lat="42.74514" lon="0.17437">
        <ele>2324</ele>
        <time>2019-02-27T11:31:22Z</time>
      </trkpt>
      <trkpt lat="42.74514" lon="0.17437">
        <ele>2324</ele>
        <time>2019-02-27T11:31:23Z</time>
      </trkpt>
      <trkpt lat="42.74514" lon="0.17437">
        <ele>2324</ele>
        <time>2019-02-27T11:31:24Z</time>
      </trkpt>
      <trkpt lat="42.74514" lon="0.17437">
        <ele>2324</ele>
        <time>2019-02-27T11:31:25Z</time>
      </trkpt>
      <trkpt lat="42.74514" lon="0.17437">
        <ele>2324</ele>
        <time>2019-02-27T11:31:26Z</time>
      </trkpt>
      <trkpt lat="42.74514" lon="0.17437">
        <ele>2324</ele>
        <time>2019-02-27T11:31:27Z</time>
      </trkpt>
      <trkpt lat="42.74514" lon="0.17437">
        <ele>2324</ele>
        <time>2019-02-27T11:31:28Z</time>
      </trkpt>
      <trkpt lat="42.74514" lon="0.17437">
        <ele>2324</ele>
        <time>2019-02-27T11:31:29Z</time>
      </trkpt>
      <trkpt lat="42.74514" lon="0.17437">
        <ele>2324</ele>
        <time>2019-02-27T11:31:30Z</time>
      </trkpt>
      <trkpt lat="42.74514" lon="0.17437">
        <ele>2324</ele>
        <time>2019-02-27T11:31:31Z</time>
      </trkpt>
      <trkpt lat="42.74514" lon="0.17437">
        <ele>2324</ele>
        <time>2019-02-27T11:31:32Z</time>
      </trkpt>
      <trkpt lat="42.74514" lon="0.17437">
        <ele>2324</ele>
        <time>2019-02-27T11:31:33Z</time>
      </trkpt>
      <trkpt lat="42.74514" lon="0.17437">
        <ele>2324</ele>
        <time>2019-02-27T11:31:34Z</time>
      </trkpt>
      <trkpt lat="42.74514" lon="0.17437">
        <ele>2324</ele>
        <time>2019-02-27T11:31:35Z</time>
      </trkpt>
      <trkpt lat="42.74514" lon="0.17437">
        <ele>2324</ele>
        <time>2019-02-27T11:31:36Z</time>
      </trkpt>
      <trkpt lat="42.74514" lon="0.17437">
        <ele>2323</ele>
        <time>2019-02-27T11:31:37Z</time>
      </trkpt>
      <trkpt lat="42.74514" lon="0.17437">
        <ele>2323</ele>
        <time>2019-02-27T11:31:38Z</time>
      </trkpt>
      <trkpt lat="42.74514" lon="0.17437">
        <ele>2323</ele>
        <time>2019-02-27T11:31:39Z</time>
      </trkpt>
      <trkpt lat="42.74514" lon="0.17437">
        <ele>2323</ele>
        <time>2019-02-27T11:31:40Z</time>
      </trkpt>
      <trkpt lat="42.74514" lon="0.17437">
        <ele>2323</ele>
        <time>2019-02-27T11:31:41Z</time>
      </trkpt>
      <trkpt lat="42.74514" lon="0.17437">
        <ele>2324</ele>
        <time>2019-02-27T11:31:42Z</time>
      </trkpt>
      <trkpt lat="42.74514" lon="0.17437">
        <ele>2324</ele>
        <time>2019-02-27T11:31:43Z</time>
      </trkpt>
      <trkpt lat="42.74514" lon="0.17437">
        <ele>2324</ele>
        <time>2019-02-27T11:31:44Z</time>
      </trkpt>
      <trkpt lat="42.74514" lon="0.17437">
        <ele>2324</ele>
        <time>2019-02-27T11:31:45Z</time>
      </trkpt>
      <trkpt lat="42.74514" lon="0.17437">
        <ele>2324</ele>
        <time>2019-02-27T11:31:46Z</time>
      </trkpt>
      <trkpt lat="42.74514" lon="0.17437">
        <ele>2324</ele>
        <time>2019-02-27T11:31:47Z</time>
      </trkpt>
      <trkpt lat="42.74514" lon="0.17437">
        <ele>2324</ele>
        <time>2019-02-27T11:31:48Z</time>
      </trkpt>
      <trkpt lat="42.74514" lon="0.17437">
        <ele>2324</ele>
        <time>2019-02-27T11:31:49Z</time>
      </trkpt>
      <trkpt lat="42.74514" lon="0.17437">
        <ele>2324</ele>
        <time>2019-02-27T11:31:50Z</time>
      </trkpt>
      <trkpt lat="42.74514" lon="0.17437">
        <ele>2324</ele>
        <time>2019-02-27T11:31:51Z</time>
      </trkpt>
      <trkpt lat="42.74514" lon="0.17437">
        <ele>2324</ele>
        <time>2019-02-27T11:31:52Z</time>
      </trkpt>
      <trkpt lat="42.74514" lon="0.17437">
        <ele>2324</ele>
        <time>2019-02-27T11:31:53Z</time>
      </trkpt>
      <trkpt lat="42.74514" lon="0.17437">
        <ele>2324</ele>
        <time>2019-02-27T11:31:54Z</time>
      </trkpt>
      <trkpt lat="42.74514" lon="0.17437">
        <ele>2324</ele>
        <time>2019-02-27T11:31:55Z</time>
      </trkpt>
      <trkpt lat="42.74514" lon="0.17437">
        <ele>2324</ele>
        <time>2019-02-27T11:31:56Z</time>
      </trkpt>
      <trkpt lat="42.74514" lon="0.17437">
        <ele>2324</ele>
        <time>2019-02-27T11:31:57Z</time>
      </trkpt>
      <trkpt lat="42.74514" lon="0.17437">
        <ele>2324</ele>
        <time>2019-02-27T11:31:58Z</time>
      </trkpt>
      <trkpt lat="42.74514" lon="0.17437">
        <ele>2324</ele>
        <time>2019-02-27T11:31:59Z</time>
      </trkpt>
      <trkpt lat="42.74514" lon="0.17437">
        <ele>2324</ele>
        <time>2019-02-27T11:32:00Z</time>
      </trkpt>
      <trkpt lat="42.74516" lon="0.17437">
        <ele>2324</ele>
        <time>2019-02-27T11:32:01Z</time>
      </trkpt>
      <trkpt lat="42.74516" lon="0.17437">
        <ele>2324</ele>
        <time>2019-02-27T11:32:02Z</time>
      </trkpt>
      <trkpt lat="42.74516" lon="0.17437">
        <ele>2324</ele>
        <time>2019-02-27T11:32:03Z</time>
      </trkpt>
      <trkpt lat="42.74518" lon="0.17438">
        <ele>2324</ele>
        <time>2019-02-27T11:32:04Z</time>
      </trkpt>
      <trkpt lat="42.74518" lon="0.17438">
        <ele>2324</ele>
        <time>2019-02-27T11:32:05Z</time>
      </trkpt>
      <trkpt lat="42.74518" lon="0.17438">
        <ele>2324</ele>
        <time>2019-02-27T11:32:06Z</time>
      </trkpt>
      <trkpt lat="42.74518" lon="0.17438">
        <ele>2324</ele>
        <time>2019-02-27T11:32:07Z</time>
      </trkpt>
      <trkpt lat="42.74518" lon="0.17438">
        <ele>2324</ele>
        <time>2019-02-27T11:32:08Z</time>
      </trkpt>
      <trkpt lat="42.74518" lon="0.17438">
        <ele>2324</ele>
        <time>2019-02-27T11:32:09Z</time>
      </trkpt>
      <trkpt lat="42.74518" lon="0.17438">
        <ele>2324</ele>
        <time>2019-02-27T11:32:10Z</time>
      </trkpt>
      <trkpt lat="42.74518" lon="0.17438">
        <ele>2324</ele>
        <time>2019-02-27T11:32:11Z</time>
      </trkpt>
      <trkpt lat="42.74518" lon="0.17438">
        <ele>2324</ele>
        <time>2019-02-27T11:32:12Z</time>
      </trkpt>
      <trkpt lat="42.74518" lon="0.17438">
        <ele>2324</ele>
        <time>2019-02-27T11:32:13Z</time>
      </trkpt>
      <trkpt lat="42.74518" lon="0.17438">
        <ele>2324</ele>
        <time>2019-02-27T11:32:14Z</time>
      </trkpt>
      <trkpt lat="42.74518" lon="0.17438">
        <ele>2324</ele>
        <time>2019-02-27T11:32:15Z</time>
      </trkpt>
      <trkpt lat="42.74518" lon="0.17438">
        <ele>2324</ele>
        <time>2019-02-27T11:32:16Z</time>
      </trkpt>
      <trkpt lat="42.74518" lon="0.17438">
        <ele>2324</ele>
        <time>2019-02-27T11:32:17Z</time>
      </trkpt>
      <trkpt lat="42.74518" lon="0.17438">
        <ele>2323</ele>
        <time>2019-02-27T11:32:18Z</time>
      </trkpt>
      <trkpt lat="42.74518" lon="0.17438">
        <ele>2323</ele>
        <time>2019-02-27T11:32:19Z</time>
      </trkpt>
      <trkpt lat="42.74518" lon="0.17438">
        <ele>2323</ele>
        <time>2019-02-27T11:32:20Z</time>
      </trkpt>
      <trkpt lat="42.74518" lon="0.17438">
        <ele>2323</ele>
        <time>2019-02-27T11:32:21Z</time>
      </trkpt>
      <trkpt lat="42.74518" lon="0.17438">
        <ele>2323</ele>
        <time>2019-02-27T11:32:22Z</time>
      </trkpt>
      <trkpt lat="42.74518" lon="0.17438">
        <ele>2323</ele>
        <time>2019-02-27T11:32:23Z</time>
      </trkpt>
      <trkpt lat="42.74518" lon="0.17438">
        <ele>2323</ele>
        <time>2019-02-27T11:32:24Z</time>
      </trkpt>
      <trkpt lat="42.74518" lon="0.17438">
        <ele>2323</ele>
        <time>2019-02-27T11:32:25Z</time>
      </trkpt>
      <trkpt lat="42.74517" lon="0.17436">
        <ele>2323</ele>
        <time>2019-02-27T11:32:26Z</time>
      </trkpt>
      <trkpt lat="42.74516" lon="0.17431">
        <ele>2323</ele>
        <time>2019-02-27T11:32:27Z</time>
      </trkpt>
      <trkpt lat="42.74517" lon="0.17428">
        <ele>2322</ele>
        <time>2019-02-27T11:32:28Z</time>
      </trkpt>
      <trkpt lat="42.74519" lon="0.17427">
        <ele>2321</ele>
        <time>2019-02-27T11:32:29Z</time>
      </trkpt>
      <trkpt lat="42.74522" lon="0.17427">
        <ele>2321</ele>
        <time>2019-02-27T11:32:30Z</time>
      </trkpt>
      <trkpt lat="42.74525" lon="0.17427">
        <ele>2321</ele>
        <time>2019-02-27T11:32:31Z</time>
      </trkpt>
      <trkpt lat="42.74528" lon="0.17426">
        <ele>2320</ele>
        <time>2019-02-27T11:32:32Z</time>
      </trkpt>
      <trkpt lat="42.74529" lon="0.17423">
        <ele>2319</ele>
        <time>2019-02-27T11:32:33Z</time>
      </trkpt>
      <trkpt lat="42.74527" lon="0.17419">
        <ele>2317</ele>
        <time>2019-02-27T11:32:34Z</time>
      </trkpt>
      <trkpt lat="42.74525" lon="0.17414">
        <ele>2316</ele>
        <time>2019-02-27T11:32:35Z</time>
      </trkpt>
      <trkpt lat="42.74526" lon="0.1741">
        <ele>2315</ele>
        <time>2019-02-27T11:32:36Z</time>
      </trkpt>
      <trkpt lat="42.74528" lon="0.17408">
        <ele>2314</ele>
        <time>2019-02-27T11:32:37Z</time>
      </trkpt>
      <trkpt lat="42.74531" lon="0.17407">
        <ele>2313</ele>
        <time>2019-02-27T11:32:38Z</time>
      </trkpt>
      <trkpt lat="42.74534" lon="0.17407">
        <ele>2313</ele>
        <time>2019-02-27T11:32:39Z</time>
      </trkpt>
      <trkpt lat="42.74536" lon="0.17407">
        <ele>2312</ele>
        <time>2019-02-27T11:32:40Z</time>
      </trkpt>
      <trkpt lat="42.74536" lon="0.17407">
        <ele>2312</ele>
        <time>2019-02-27T11:32:41Z</time>
      </trkpt>
      <trkpt lat="42.74537" lon="0.17402">
        <ele>2312</ele>
        <time>2019-02-27T11:32:42Z</time>
      </trkpt>
      <trkpt lat="42.74537" lon="0.17397">
        <ele>2310</ele>
        <time>2019-02-27T11:32:43Z</time>
      </trkpt>
      <trkpt lat="42.74539" lon="0.17392">
        <ele>2309</ele>
        <time>2019-02-27T11:32:44Z</time>
      </trkpt>
      <trkpt lat="42.74542" lon="0.17389">
        <ele>2308</ele>
        <time>2019-02-27T11:32:45Z</time>
      </trkpt>
      <trkpt lat="42.74545" lon="0.17387">
        <ele>2306</ele>
        <time>2019-02-27T11:32:46Z</time>
      </trkpt>
      <trkpt lat="42.74547" lon="0.17385">
        <ele>2305</ele>
        <time>2019-02-27T11:32:47Z</time>
      </trkpt>
      <trkpt lat="42.74547" lon="0.17382">
        <ele>2303</ele>
        <time>2019-02-27T11:32:48Z</time>
      </trkpt>
      <trkpt lat="42.74545" lon="0.17376">
        <ele>2302</ele>
        <time>2019-02-27T11:32:49Z</time>
      </trkpt>
      <trkpt lat="42.74546" lon="0.1737">
        <ele>2301</ele>
        <time>2019-02-27T11:32:50Z</time>
      </trkpt>
      <trkpt lat="42.74547" lon="0.17367">
        <ele>2298</ele>
        <time>2019-02-27T11:32:51Z</time>
      </trkpt>
      <trkpt lat="42.74549" lon="0.17364">
        <ele>2297</ele>
        <time>2019-02-27T11:32:52Z</time>
      </trkpt>
      <trkpt lat="42.74548" lon="0.17359">
        <ele>2297</ele>
        <time>2019-02-27T11:32:53Z</time>
      </trkpt>
      <trkpt lat="42.74546" lon="0.17354">
        <ele>2295</ele>
        <time>2019-02-27T11:32:54Z</time>
      </trkpt>
      <trkpt lat="42.74546" lon="0.17348">
        <ele>2292</ele>
        <time>2019-02-27T11:32:55Z</time>
      </trkpt>
      <trkpt lat="42.74548" lon="0.17344">
        <ele>2290</ele>
        <time>2019-02-27T11:32:56Z</time>
      </trkpt>
      <trkpt lat="42.74549" lon="0.1734">
        <ele>2288</ele>
        <time>2019-02-27T11:32:57Z</time>
      </trkpt>
      <trkpt lat="42.74549" lon="0.17334">
        <ele>2286</ele>
        <time>2019-02-27T11:32:58Z</time>
      </trkpt>
      <trkpt lat="42.74549" lon="0.17328">
        <ele>2284</ele>
        <time>2019-02-27T11:32:59Z</time>
      </trkpt>
      <trkpt lat="42.74549" lon="0.17328">
        <ele>2282</ele>
        <time>2019-02-27T11:33:00Z</time>
      </trkpt>
      <trkpt lat="42.74557" lon="0.1732">
        <ele>2279</ele>
        <time>2019-02-27T11:33:01Z</time>
      </trkpt>
      <trkpt lat="42.74558" lon="0.17316">
        <ele>2278</ele>
        <time>2019-02-27T11:33:02Z</time>
      </trkpt>
      <trkpt lat="42.74558" lon="0.17316">
        <ele>2277</ele>
        <time>2019-02-27T11:33:03Z</time>
      </trkpt>
      <trkpt lat="42.74551" lon="0.17308">
        <ele>2276</ele>
        <time>2019-02-27T11:33:04Z</time>
      </trkpt>
      <trkpt lat="42.74549" lon="0.17302">
        <ele>2275</ele>
        <time>2019-02-27T11:33:05Z</time>
      </trkpt>
      <trkpt lat="42.74546" lon="0.17292">
        <ele>2271</ele>
        <time>2019-02-27T11:33:06Z</time>
      </trkpt>
      <trkpt lat="42.74546" lon="0.17288">
        <ele>2269</ele>
        <time>2019-02-27T11:33:07Z</time>
      </trkpt>
      <trkpt lat="42.74544" lon="0.17281">
        <ele>2267</ele>
        <time>2019-02-27T11:33:08Z</time>
      </trkpt>
      <trkpt lat="42.74544" lon="0.17281">
        <ele>2265</ele>
        <time>2019-02-27T11:33:09Z</time>
      </trkpt>
      <trkpt lat="42.74541" lon="0.17269">
        <ele>2263</ele>
        <time>2019-02-27T11:33:10Z</time>
      </trkpt>
      <trkpt lat="42.74541" lon="0.17269">
        <ele>2261</ele>
        <time>2019-02-27T11:33:11Z</time>
      </trkpt>
      <trkpt lat="42.74545" lon="0.17259">
        <ele>2258</ele>
        <time>2019-02-27T11:33:12Z</time>
      </trkpt>
      <trkpt lat="42.74544" lon="0.17259">
        <ele>2257</ele>
        <time>2019-02-27T11:33:13Z</time>
      </trkpt>
      <trkpt lat="42.74543" lon="0.1726">
        <ele>2256</ele>
        <time>2019-02-27T11:33:14Z</time>
      </trkpt>
      <trkpt lat="42.74542" lon="0.1726">
        <ele>2256</ele>
        <time>2019-02-27T11:33:15Z</time>
      </trkpt>
      <trkpt lat="42.74541" lon="0.1726">
        <ele>2255</ele>
        <time>2019-02-27T11:33:16Z</time>
      </trkpt>
      <trkpt lat="42.7454" lon="0.1726">
        <ele>2255</ele>
        <time>2019-02-27T11:33:17Z</time>
      </trkpt>
      <trkpt lat="42.74534" lon="0.17259">
        <ele>2254</ele>
        <time>2019-02-27T11:33:18Z</time>
      </trkpt>
      <trkpt lat="42.74533" lon="0.17257">
        <ele>2254</ele>
        <time>2019-02-27T11:33:19Z</time>
      </trkpt>
      <trkpt lat="42.74532" lon="0.17254">
        <ele>2253</ele>
        <time>2019-02-27T11:33:20Z</time>
      </trkpt>
      <trkpt lat="42.7453" lon="0.17248">
        <ele>2251</ele>
        <time>2019-02-27T11:33:21Z</time>
      </trkpt>
      <trkpt lat="42.7453" lon="0.17248">
        <ele>2250</ele>
        <time>2019-02-27T11:33:22Z</time>
      </trkpt>
      <trkpt lat="42.7453" lon="0.17235">
        <ele>2248</ele>
        <time>2019-02-27T11:33:23Z</time>
      </trkpt>
      <trkpt lat="42.7453" lon="0.17235">
        <ele>2244</ele>
        <time>2019-02-27T11:33:24Z</time>
      </trkpt>
      <trkpt lat="42.74527" lon="0.17216">
        <ele>2242</ele>
        <time>2019-02-27T11:33:25Z</time>
      </trkpt>
      <trkpt lat="42.74526" lon="0.17211">
        <ele>2239</ele>
        <time>2019-02-27T11:33:26Z</time>
      </trkpt>
      <trkpt lat="42.74523" lon="0.17197">
        <ele>2237</ele>
        <time>2019-02-27T11:33:27Z</time>
      </trkpt>
      <trkpt lat="42.74522" lon="0.17193">
        <ele>2234</ele>
        <time>2019-02-27T11:33:28Z</time>
      </trkpt>
      <trkpt lat="42.74519" lon="0.1718">
        <ele>2231</ele>
        <time>2019-02-27T11:33:29Z</time>
      </trkpt>
      <trkpt lat="42.74518" lon="0.17176">
        <ele>2228</ele>
        <time>2019-02-27T11:33:30Z</time>
      </trkpt>
      <trkpt lat="42.74517" lon="0.17167">
        <ele>2225</ele>
        <time>2019-02-27T11:33:31Z</time>
      </trkpt>
      <trkpt lat="42.74509" lon="0.17152">
        <ele>2222</ele>
        <time>2019-02-27T11:33:32Z</time>
      </trkpt>
      <trkpt lat="42.74508" lon="0.17148">
        <ele>2219</ele>
        <time>2019-02-27T11:33:33Z</time>
      </trkpt>
      <trkpt lat="42.74505" lon="0.17133">
        <ele>2217</ele>
        <time>2019-02-27T11:33:34Z</time>
      </trkpt>
      <trkpt lat="42.74506" lon="0.17128">
        <ele>2215</ele>
        <time>2019-02-27T11:33:35Z</time>
      </trkpt>
      <trkpt lat="42.74507" lon="0.17117">
        <ele>2214</ele>
        <time>2019-02-27T11:33:36Z</time>
      </trkpt>
      <trkpt lat="42.74507" lon="0.17115">
        <ele>2213</ele>
        <time>2019-02-27T11:33:37Z</time>
      </trkpt>
      <trkpt lat="42.74507" lon="0.17114">
        <ele>2212</ele>
        <time>2019-02-27T11:33:38Z</time>
      </trkpt>
      <trkpt lat="42.74508" lon="0.17112">
        <ele>2211</ele>
        <time>2019-02-27T11:33:39Z</time>
      </trkpt>
      <trkpt lat="42.74508" lon="0.17111">
        <ele>2211</ele>
        <time>2019-02-27T11:33:40Z</time>
      </trkpt>
      <trkpt lat="42.74508" lon="0.1711">
        <ele>2211</ele>
        <time>2019-02-27T11:33:41Z</time>
      </trkpt>
      <trkpt lat="42.7451" lon="0.17099">
        <ele>2209</ele>
        <time>2019-02-27T11:33:42Z</time>
      </trkpt>
      <trkpt lat="42.74511" lon="0.17096">
        <ele>2208</ele>
        <time>2019-02-27T11:33:43Z</time>
      </trkpt>
      <trkpt lat="42.74512" lon="0.17094">
        <ele>2206</ele>
        <time>2019-02-27T11:33:44Z</time>
      </trkpt>
      <trkpt lat="42.74516" lon="0.17087">
        <ele>2205</ele>
        <time>2019-02-27T11:33:45Z</time>
      </trkpt>
      <trkpt lat="42.74516" lon="0.17087">
        <ele>2204</ele>
        <time>2019-02-27T11:33:46Z</time>
      </trkpt>
      <trkpt lat="42.74526" lon="0.17087">
        <ele>2203</ele>
        <time>2019-02-27T11:33:47Z</time>
      </trkpt>
      <trkpt lat="42.74526" lon="0.17087">
        <ele>2202</ele>
        <time>2019-02-27T11:33:48Z</time>
      </trkpt>
      <trkpt lat="42.74526" lon="0.17087">
        <ele>2202</ele>
        <time>2019-02-27T11:33:49Z</time>
      </trkpt>
      <trkpt lat="42.74526" lon="0.17087">
        <ele>2202</ele>
        <time>2019-02-27T11:33:50Z</time>
      </trkpt>
      <trkpt lat="42.74526" lon="0.17087">
        <ele>2202</ele>
        <time>2019-02-27T11:33:51Z</time>
      </trkpt>
      <trkpt lat="42.74526" lon="0.17087">
        <ele>2202</ele>
        <time>2019-02-27T11:33:52Z</time>
      </trkpt>
      <trkpt lat="42.74526" lon="0.17087">
        <ele>2202</ele>
        <time>2019-02-27T11:33:53Z</time>
      </trkpt>
      <trkpt lat="42.74526" lon="0.17087">
        <ele>2202</ele>
        <time>2019-02-27T11:33:54Z</time>
      </trkpt>
      <trkpt lat="42.74526" lon="0.17087">
        <ele>2202</ele>
        <time>2019-02-27T11:33:55Z</time>
      </trkpt>
      <trkpt lat="42.74526" lon="0.17087">
        <ele>2202</ele>
        <time>2019-02-27T11:33:56Z</time>
      </trkpt>
      <trkpt lat="42.74526" lon="0.17087">
        <ele>2202</ele>
        <time>2019-02-27T11:33:57Z</time>
      </trkpt>
      <trkpt lat="42.74526" lon="0.17087">
        <ele>2202</ele>
        <time>2019-02-27T11:33:58Z</time>
      </trkpt>
      <trkpt lat="42.74526" lon="0.17087">
        <ele>2202</ele>
        <time>2019-02-27T11:33:59Z</time>
      </trkpt>
      <trkpt lat="42.74526" lon="0.17087">
        <ele>2202</ele>
        <time>2019-02-27T11:34:00Z</time>
      </trkpt>
      <trkpt lat="42.74526" lon="0.17087">
        <ele>2202</ele>
        <time>2019-02-27T11:34:01Z</time>
      </trkpt>
      <trkpt lat="42.74526" lon="0.17087">
        <ele>2202</ele>
        <time>2019-02-27T11:34:02Z</time>
      </trkpt>
      <trkpt lat="42.74526" lon="0.17087">
        <ele>2202</ele>
        <time>2019-02-27T11:34:03Z</time>
      </trkpt>
      <trkpt lat="42.74526" lon="0.17087">
        <ele>2202</ele>
        <time>2019-02-27T11:34:04Z</time>
      </trkpt>
      <trkpt lat="42.74526" lon="0.17087">
        <ele>2202</ele>
        <time>2019-02-27T11:34:05Z</time>
      </trkpt>
      <trkpt lat="42.74526" lon="0.17087">
        <ele>2202</ele>
        <time>2019-02-27T11:34:06Z</time>
      </trkpt>
      <trkpt lat="42.74526" lon="0.17087">
        <ele>2202</ele>
        <time>2019-02-27T11:34:07Z</time>
      </trkpt>
      <trkpt lat="42.74526" lon="0.17087">
        <ele>2202</ele>
        <time>2019-02-27T11:34:08Z</time>
      </trkpt>
      <trkpt lat="42.74526" lon="0.17087">
        <ele>2202</ele>
        <time>2019-02-27T11:34:09Z</time>
      </trkpt>
      <trkpt lat="42.74526" lon="0.17087">
        <ele>2202</ele>
        <time>2019-02-27T11:34:10Z</time>
      </trkpt>
      <trkpt lat="42.74526" lon="0.17087">
        <ele>2202</ele>
        <time>2019-02-27T11:34:11Z</time>
      </trkpt>
      <trkpt lat="42.74526" lon="0.17087">
        <ele>2202</ele>
        <time>2019-02-27T11:34:12Z</time>
      </trkpt>
      <trkpt lat="42.74526" lon="0.17087">
        <ele>2202</ele>
        <time>2019-02-27T11:34:13Z</time>
      </trkpt>
      <trkpt lat="42.74526" lon="0.17087">
        <ele>2202</ele>
        <time>2019-02-27T11:34:14Z</time>
      </trkpt>
      <trkpt lat="42.74526" lon="0.17087">
        <ele>2202</ele>
        <time>2019-02-27T11:34:15Z</time>
      </trkpt>
      <trkpt lat="42.74526" lon="0.17087">
        <ele>2202</ele>
        <time>2019-02-27T11:34:16Z</time>
      </trkpt>
      <trkpt lat="42.74526" lon="0.17087">
        <ele>2202</ele>
        <time>2019-02-27T11:34:17Z</time>
      </trkpt>
      <trkpt lat="42.74527" lon="0.1709">
        <ele>2202</ele>
        <time>2019-02-27T11:34:18Z</time>
      </trkpt>
      <trkpt lat="42.74527" lon="0.1709">
        <ele>2202</ele>
        <time>2019-02-27T11:34:19Z</time>
      </trkpt>
      <trkpt lat="42.74527" lon="0.1709">
        <ele>2202</ele>
        <time>2019-02-27T11:34:20Z</time>
      </trkpt>
      <trkpt lat="42.74527" lon="0.1709">
        <ele>2202</ele>
        <time>2019-02-27T11:34:21Z</time>
      </trkpt>
      <trkpt lat="42.74527" lon="0.1709">
        <ele>2202</ele>
        <time>2019-02-27T11:34:22Z</time>
      </trkpt>
      <trkpt lat="42.74527" lon="0.1709">
        <ele>2202</ele>
        <time>2019-02-27T11:34:23Z</time>
      </trkpt>
      <trkpt lat="42.74527" lon="0.1709">
        <ele>2202</ele>
        <time>2019-02-27T11:34:24Z</time>
      </trkpt>
      <trkpt lat="42.74527" lon="0.1709">
        <ele>2202</ele>
        <time>2019-02-27T11:34:25Z</time>
      </trkpt>
      <trkpt lat="42.74527" lon="0.1709">
        <ele>2202</ele>
        <time>2019-02-27T11:34:26Z</time>
      </trkpt>
      <trkpt lat="42.74527" lon="0.1709">
        <ele>2202</ele>
        <time>2019-02-27T11:34:27Z</time>
      </trkpt>
      <trkpt lat="42.74527" lon="0.1709">
        <ele>2202</ele>
        <time>2019-02-27T11:34:28Z</time>
      </trkpt>
      <trkpt lat="42.74527" lon="0.1709">
        <ele>2202</ele>
        <time>2019-02-27T11:34:29Z</time>
      </trkpt>
      <trkpt lat="42.74527" lon="0.1709">
        <ele>2202</ele>
        <time>2019-02-27T11:34:30Z</time>
      </trkpt>
      <trkpt lat="42.74527" lon="0.1709">
        <ele>2202</ele>
        <time>2019-02-27T11:34:31Z</time>
      </trkpt>
      <trkpt lat="42.74527" lon="0.1709">
        <ele>2202</ele>
        <time>2019-02-27T11:34:32Z</time>
      </trkpt>
      <trkpt lat="42.74527" lon="0.1709">
        <ele>2202</ele>
        <time>2019-02-27T11:34:33Z</time>
      </trkpt>
      <trkpt lat="42.74527" lon="0.1709">
        <ele>2202</ele>
        <time>2019-02-27T11:34:34Z</time>
      </trkpt>
      <trkpt lat="42.74527" lon="0.1709">
        <ele>2202</ele>
        <time>2019-02-27T11:34:35Z</time>
      </trkpt>
      <trkpt lat="42.74527" lon="0.1709">
        <ele>2202</ele>
        <time>2019-02-27T11:34:36Z</time>
      </trkpt>
      <trkpt lat="42.74527" lon="0.1709">
        <ele>2202</ele>
        <time>2019-02-27T11:34:37Z</time>
      </trkpt>
      <trkpt lat="42.74527" lon="0.1709">
        <ele>2202</ele>
        <time>2019-02-27T11:34:38Z</time>
      </trkpt>
      <trkpt lat="42.74527" lon="0.1709">
        <ele>2202</ele>
        <time>2019-02-27T11:34:39Z</time>
      </trkpt>
      <trkpt lat="42.74527" lon="0.1709">
        <ele>2202</ele>
        <time>2019-02-27T11:34:40Z</time>
      </trkpt>
      <trkpt lat="42.74527" lon="0.1709">
        <ele>2202</ele>
        <time>2019-02-27T11:34:41Z</time>
      </trkpt>
      <trkpt lat="42.74527" lon="0.1709">
        <ele>2202</ele>
        <time>2019-02-27T11:34:42Z</time>
      </trkpt>
      <trkpt lat="42.74527" lon="0.1709">
        <ele>2202</ele>
        <time>2019-02-27T11:34:43Z</time>
      </trkpt>
      <trkpt lat="42.74527" lon="0.1709">
        <ele>2202</ele>
        <time>2019-02-27T11:34:44Z</time>
      </trkpt>
      <trkpt lat="42.74527" lon="0.1709">
        <ele>2202</ele>
        <time>2019-02-27T11:34:45Z</time>
      </trkpt>
      <trkpt lat="42.74527" lon="0.1709">
        <ele>2202</ele>
        <time>2019-02-27T11:34:46Z</time>
      </trkpt>
      <trkpt lat="42.74527" lon="0.1709">
        <ele>2202</ele>
        <time>2019-02-27T11:34:47Z</time>
      </trkpt>
      <trkpt lat="42.74527" lon="0.1709">
        <ele>2202</ele>
        <time>2019-02-27T11:34:48Z</time>
      </trkpt>
      <trkpt lat="42.74527" lon="0.1709">
        <ele>2202</ele>
        <time>2019-02-27T11:34:49Z</time>
      </trkpt>
      <trkpt lat="42.74527" lon="0.1709">
        <ele>2202</ele>
        <time>2019-02-27T11:34:50Z</time>
      </trkpt>
      <trkpt lat="42.74527" lon="0.1709">
        <ele>2202</ele>
        <time>2019-02-27T11:34:51Z</time>
      </trkpt>
      <trkpt lat="42.74527" lon="0.1709">
        <ele>2202</ele>
        <time>2019-02-27T11:34:52Z</time>
      </trkpt>
      <trkpt lat="42.74527" lon="0.1709">
        <ele>2202</ele>
        <time>2019-02-27T11:34:53Z</time>
      </trkpt>
      <trkpt lat="42.74527" lon="0.1709">
        <ele>2202</ele>
        <time>2019-02-27T11:34:54Z</time>
      </trkpt>
      <trkpt lat="42.74527" lon="0.1709">
        <ele>2202</ele>
        <time>2019-02-27T11:34:55Z</time>
      </trkpt>
      <trkpt lat="42.74527" lon="0.1709">
        <ele>2202</ele>
        <time>2019-02-27T11:34:56Z</time>
      </trkpt>
      <trkpt lat="42.74527" lon="0.1709">
        <ele>2202</ele>
        <time>2019-02-27T11:34:57Z</time>
      </trkpt>
      <trkpt lat="42.74527" lon="0.1709">
        <ele>2202</ele>
        <time>2019-02-27T11:34:58Z</time>
      </trkpt>
      <trkpt lat="42.74527" lon="0.1709">
        <ele>2202</ele>
        <time>2019-02-27T11:34:59Z</time>
      </trkpt>
      <trkpt lat="42.74527" lon="0.1709">
        <ele>2202</ele>
        <time>2019-02-27T11:35:00Z</time>
      </trkpt>
      <trkpt lat="42.74529" lon="0.1709">
        <ele>2202</ele>
        <time>2019-02-27T11:35:01Z</time>
      </trkpt>
      <trkpt lat="42.74529" lon="0.1709">
        <ele>2202</ele>
        <time>2019-02-27T11:35:02Z</time>
      </trkpt>
      <trkpt lat="42.74529" lon="0.1709">
        <ele>2202</ele>
        <time>2019-02-27T11:35:03Z</time>
      </trkpt>
      <trkpt lat="42.74533" lon="0.17092">
        <ele>2202</ele>
        <time>2019-02-27T11:35:04Z</time>
      </trkpt>
      <trkpt lat="42.74535" lon="0.17092">
        <ele>2202</ele>
        <time>2019-02-27T11:35:05Z</time>
      </trkpt>
      <trkpt lat="42.74538" lon="0.17093">
        <ele>2202</ele>
        <time>2019-02-27T11:35:06Z</time>
      </trkpt>
      <trkpt lat="42.74538" lon="0.17093">
        <ele>2202</ele>
        <time>2019-02-27T11:35:07Z</time>
      </trkpt>
      <trkpt lat="42.74547" lon="0.17097">
        <ele>2201</ele>
        <time>2019-02-27T11:35:08Z</time>
      </trkpt>
      <trkpt lat="42.74556" lon="0.17099">
        <ele>2200</ele>
        <time>2019-02-27T11:35:09Z</time>
      </trkpt>
      <trkpt lat="42.7456" lon="0.171">
        <ele>2199</ele>
        <time>2019-02-27T11:35:10Z</time>
      </trkpt>
      <trkpt lat="42.74567" lon="0.17101">
        <ele>2199</ele>
        <time>2019-02-27T11:35:11Z</time>
      </trkpt>
      <trkpt lat="42.74577" lon="0.17104">
        <ele>2198</ele>
        <time>2019-02-27T11:35:12Z</time>
      </trkpt>
      <trkpt lat="42.74581" lon="0.17105">
        <ele>2197</ele>
        <time>2019-02-27T11:35:13Z</time>
      </trkpt>
      <trkpt lat="42.74592" lon="0.17108">
        <ele>2197</ele>
        <time>2019-02-27T11:35:14Z</time>
      </trkpt>
      <trkpt lat="42.74595" lon="0.17109">
        <ele>2196</ele>
        <time>2019-02-27T11:35:15Z</time>
      </trkpt>
      <trkpt lat="42.74605" lon="0.17112">
        <ele>2194</ele>
        <time>2019-02-27T11:35:16Z</time>
      </trkpt>
      <trkpt lat="42.74609" lon="0.17113">
        <ele>2193</ele>
        <time>2019-02-27T11:35:17Z</time>
      </trkpt>
      <trkpt lat="42.74615" lon="0.17115">
        <ele>2193</ele>
        <time>2019-02-27T11:35:18Z</time>
      </trkpt>
      <trkpt lat="42.74623" lon="0.17116">
        <ele>2193</ele>
        <time>2019-02-27T11:35:19Z</time>
      </trkpt>
      <trkpt lat="42.74629" lon="0.17116">
        <ele>2193</ele>
        <time>2019-02-27T11:35:20Z</time>
      </trkpt>
      <trkpt lat="42.74636" lon="0.17117">
        <ele>2192</ele>
        <time>2019-02-27T11:35:21Z</time>
      </trkpt>
      <trkpt lat="42.74642" lon="0.17117">
        <ele>2191</ele>
        <time>2019-02-27T11:35:22Z</time>
      </trkpt>
      <trkpt lat="42.74648" lon="0.17116">
        <ele>2191</ele>
        <time>2019-02-27T11:35:23Z</time>
      </trkpt>
      <trkpt lat="42.74654" lon="0.17115">
        <ele>2191</ele>
        <time>2019-02-27T11:35:24Z</time>
      </trkpt>
      <trkpt lat="42.74659" lon="0.17115">
        <ele>2190</ele>
        <time>2019-02-27T11:35:25Z</time>
      </trkpt>
      <trkpt lat="42.74664" lon="0.17114">
        <ele>2190</ele>
        <time>2019-02-27T11:35:26Z</time>
      </trkpt>
      <trkpt lat="42.74669" lon="0.17113">
        <ele>2190</ele>
        <time>2019-02-27T11:35:27Z</time>
      </trkpt>
      <trkpt lat="42.74674" lon="0.17112">
        <ele>2190</ele>
        <time>2019-02-27T11:35:28Z</time>
      </trkpt>
      <trkpt lat="42.74679" lon="0.1711">
        <ele>2189</ele>
        <time>2019-02-27T11:35:29Z</time>
      </trkpt>
      <trkpt lat="42.74683" lon="0.17109">
        <ele>2189</ele>
        <time>2019-02-27T11:35:30Z</time>
      </trkpt>
      <trkpt lat="42.74687" lon="0.17106">
        <ele>2189</ele>
        <time>2019-02-27T11:35:31Z</time>
      </trkpt>
      <trkpt lat="42.74691" lon="0.17103">
        <ele>2188</ele>
        <time>2019-02-27T11:35:32Z</time>
      </trkpt>
      <trkpt lat="42.74693" lon="0.17098">
        <ele>2187</ele>
        <time>2019-02-27T11:35:33Z</time>
      </trkpt>
      <trkpt lat="42.74692" lon="0.17091">
        <ele>2185</ele>
        <time>2019-02-27T11:35:34Z</time>
      </trkpt>
      <trkpt lat="42.74694" lon="0.17085">
        <ele>2183</ele>
        <time>2019-02-27T11:35:35Z</time>
      </trkpt>
      <trkpt lat="42.74698" lon="0.17081">
        <ele>2181</ele>
        <time>2019-02-27T11:35:36Z</time>
      </trkpt>
      <trkpt lat="42.74703" lon="0.17077">
        <ele>2180</ele>
        <time>2019-02-27T11:35:37Z</time>
      </trkpt>
      <trkpt lat="42.74706" lon="0.17071">
        <ele>2178</ele>
        <time>2019-02-27T11:35:38Z</time>
      </trkpt>
      <trkpt lat="42.7471" lon="0.17065">
        <ele>2177</ele>
        <time>2019-02-27T11:35:39Z</time>
      </trkpt>
      <trkpt lat="42.74716" lon="0.17062">
        <ele>2176</ele>
        <time>2019-02-27T11:35:40Z</time>
      </trkpt>
      <trkpt lat="42.74722" lon="0.17062">
        <ele>2176</ele>
        <time>2019-02-27T11:35:41Z</time>
      </trkpt>
      <trkpt lat="42.74728" lon="0.17064">
        <ele>2175</ele>
        <time>2019-02-27T11:35:42Z</time>
      </trkpt>
      <trkpt lat="42.74733" lon="0.17065">
        <ele>2175</ele>
        <time>2019-02-27T11:35:43Z</time>
      </trkpt>
      <trkpt lat="42.74738" lon="0.17065">
        <ele>2174</ele>
        <time>2019-02-27T11:35:44Z</time>
      </trkpt>
      <trkpt lat="42.74743" lon="0.17066">
        <ele>2173</ele>
        <time>2019-02-27T11:35:45Z</time>
      </trkpt>
      <trkpt lat="42.74748" lon="0.17067">
        <ele>2173</ele>
        <time>2019-02-27T11:35:46Z</time>
      </trkpt>
      <trkpt lat="42.74752" lon="0.17067">
        <ele>2173</ele>
        <time>2019-02-27T11:35:47Z</time>
      </trkpt>
      <trkpt lat="42.74756" lon="0.17069">
        <ele>2172</ele>
        <time>2019-02-27T11:35:48Z</time>
      </trkpt>
      <trkpt lat="42.74758" lon="0.1707">
        <ele>2172</ele>
        <time>2019-02-27T11:35:49Z</time>
      </trkpt>
      <trkpt lat="42.74758" lon="0.1707">
        <ele>2172</ele>
        <time>2019-02-27T11:35:50Z</time>
      </trkpt>
      <trkpt lat="42.74758" lon="0.1707">
        <ele>2172</ele>
        <time>2019-02-27T11:35:51Z</time>
      </trkpt>
      <trkpt lat="42.74758" lon="0.1707">
        <ele>2172</ele>
        <time>2019-02-27T11:35:52Z</time>
      </trkpt>
      <trkpt lat="42.74758" lon="0.1707">
        <ele>2172</ele>
        <time>2019-02-27T11:35:53Z</time>
      </trkpt>
      <trkpt lat="42.74758" lon="0.1707">
        <ele>2172</ele>
        <time>2019-02-27T11:35:54Z</time>
      </trkpt>
      <trkpt lat="42.74758" lon="0.1707">
        <ele>2172</ele>
        <time>2019-02-27T11:35:55Z</time>
      </trkpt>
      <trkpt lat="42.74758" lon="0.1707">
        <ele>2172</ele>
        <time>2019-02-27T11:35:56Z</time>
      </trkpt>
      <trkpt lat="42.74758" lon="0.1707">
        <ele>2172</ele>
        <time>2019-02-27T11:35:57Z</time>
      </trkpt>
      <trkpt lat="42.74758" lon="0.1707">
        <ele>2172</ele>
        <time>2019-02-27T11:35:58Z</time>
      </trkpt>
      <trkpt lat="42.74758" lon="0.1707">
        <ele>2172</ele>
        <time>2019-02-27T11:35:59Z</time>
      </trkpt>
      <trkpt lat="42.74758" lon="0.1707">
        <ele>2172</ele>
        <time>2019-02-27T11:36:00Z</time>
      </trkpt>
      <trkpt lat="42.74758" lon="0.1707">
        <ele>2172</ele>
        <time>2019-02-27T11:36:01Z</time>
      </trkpt>
      <trkpt lat="42.74758" lon="0.1707">
        <ele>2172</ele>
        <time>2019-02-27T11:36:02Z</time>
      </trkpt>
      <trkpt lat="42.74758" lon="0.1707">
        <ele>2172</ele>
        <time>2019-02-27T11:36:03Z</time>
      </trkpt>
      <trkpt lat="42.74758" lon="0.1707">
        <ele>2172</ele>
        <time>2019-02-27T11:36:04Z</time>
      </trkpt>
      <trkpt lat="42.74758" lon="0.1707">
        <ele>2172</ele>
        <time>2019-02-27T11:36:05Z</time>
      </trkpt>
      <trkpt lat="42.74758" lon="0.1707">
        <ele>2172</ele>
        <time>2019-02-27T11:36:06Z</time>
      </trkpt>
      <trkpt lat="42.74758" lon="0.1707">
        <ele>2171</ele>
        <time>2019-02-27T11:36:07Z</time>
      </trkpt>
      <trkpt lat="42.74758" lon="0.1707">
        <ele>2171</ele>
        <time>2019-02-27T11:36:08Z</time>
      </trkpt>
      <trkpt lat="42.74758" lon="0.1707">
        <ele>2171</ele>
        <time>2019-02-27T11:36:09Z</time>
      </trkpt>
      <trkpt lat="42.74758" lon="0.1707">
        <ele>2171</ele>
        <time>2019-02-27T11:36:10Z</time>
      </trkpt>
      <trkpt lat="42.74758" lon="0.1707">
        <ele>2171</ele>
        <time>2019-02-27T11:36:11Z</time>
      </trkpt>
      <trkpt lat="42.74758" lon="0.1707">
        <ele>2171</ele>
        <time>2019-02-27T11:36:12Z</time>
      </trkpt>
      <trkpt lat="42.74758" lon="0.1707">
        <ele>2171</ele>
        <time>2019-02-27T11:36:13Z</time>
      </trkpt>
      <trkpt lat="42.74758" lon="0.1707">
        <ele>2171</ele>
        <time>2019-02-27T11:36:14Z</time>
      </trkpt>
      <trkpt lat="42.74758" lon="0.17072">
        <ele>2171</ele>
        <time>2019-02-27T11:36:15Z</time>
      </trkpt>
      <trkpt lat="42.74758" lon="0.17072">
        <ele>2171</ele>
        <time>2019-02-27T11:36:16Z</time>
      </trkpt>
      <trkpt lat="42.7476" lon="0.17073">
        <ele>2171</ele>
        <time>2019-02-27T11:36:17Z</time>
      </trkpt>
      <trkpt lat="42.74762" lon="0.17074">
        <ele>2171</ele>
        <time>2019-02-27T11:36:18Z</time>
      </trkpt>
      <trkpt lat="42.74765" lon="0.17075">
        <ele>2171</ele>
        <time>2019-02-27T11:36:19Z</time>
      </trkpt>
      <trkpt lat="42.74767" lon="0.17076">
        <ele>2171</ele>
        <time>2019-02-27T11:36:20Z</time>
      </trkpt>
      <trkpt lat="42.74771" lon="0.17077">
        <ele>2171</ele>
        <time>2019-02-27T11:36:21Z</time>
      </trkpt>
      <trkpt lat="42.74775" lon="0.17079">
        <ele>2171</ele>
        <time>2019-02-27T11:36:22Z</time>
      </trkpt>
      <trkpt lat="42.74778" lon="0.17081">
        <ele>2170</ele>
        <time>2019-02-27T11:36:23Z</time>
      </trkpt>
      <trkpt lat="42.74782" lon="0.17083">
        <ele>2170</ele>
        <time>2019-02-27T11:36:24Z</time>
      </trkpt>
      <trkpt lat="42.74786" lon="0.17084">
        <ele>2170</ele>
        <time>2019-02-27T11:36:25Z</time>
      </trkpt>
      <trkpt lat="42.74791" lon="0.17086">
        <ele>2168</ele>
        <time>2019-02-27T11:36:26Z</time>
      </trkpt>
      <trkpt lat="42.74796" lon="0.17088">
        <ele>2167</ele>
        <time>2019-02-27T11:36:27Z</time>
      </trkpt>
      <trkpt lat="42.74801" lon="0.17091">
        <ele>2166</ele>
        <time>2019-02-27T11:36:28Z</time>
      </trkpt>
      <trkpt lat="42.74805" lon="0.17093">
        <ele>2166</ele>
        <time>2019-02-27T11:36:29Z</time>
      </trkpt>
      <trkpt lat="42.74808" lon="0.17096">
        <ele>2166</ele>
        <time>2019-02-27T11:36:30Z</time>
      </trkpt>
      <trkpt lat="42.7481" lon="0.17098">
        <ele>2166</ele>
        <time>2019-02-27T11:36:31Z</time>
      </trkpt>
      <trkpt lat="42.74813" lon="0.171">
        <ele>2165</ele>
        <time>2019-02-27T11:36:32Z</time>
      </trkpt>
      <trkpt lat="42.74814" lon="0.17101">
        <ele>2165</ele>
        <time>2019-02-27T11:36:33Z</time>
      </trkpt>
      <trkpt lat="42.74814" lon="0.17101">
        <ele>2165</ele>
        <time>2019-02-27T11:36:34Z</time>
      </trkpt>
      <trkpt lat="42.74817" lon="0.17102">
        <ele>2165</ele>
        <time>2019-02-27T11:36:35Z</time>
      </trkpt>
      <trkpt lat="42.74819" lon="0.17101">
        <ele>2165</ele>
        <time>2019-02-27T11:36:36Z</time>
      </trkpt>
      <trkpt lat="42.7482" lon="0.17098">
        <ele>2164</ele>
        <time>2019-02-27T11:36:37Z</time>
      </trkpt>
      <trkpt lat="42.7482" lon="0.17098">
        <ele>2163</ele>
        <time>2019-02-27T11:36:38Z</time>
      </trkpt>
      <trkpt lat="42.74823" lon="0.17085">
        <ele>2160</ele>
        <time>2019-02-27T11:36:40Z</time>
      </trkpt>
      <trkpt lat="42.74828" lon="0.17084">
        <ele>2159</ele>
        <time>2019-02-27T11:36:41Z</time>
      </trkpt>
      <trkpt lat="42.74829" lon="0.17083">
        <ele>2158</ele>
        <time>2019-02-27T11:36:42Z</time>
      </trkpt>
      <trkpt lat="42.7483" lon="0.17082">
        <ele>2156</ele>
        <time>2019-02-27T11:36:43Z</time>
      </trkpt>
      <trkpt lat="42.74831" lon="0.17081">
        <ele>2154</ele>
        <time>2019-02-27T11:36:44Z</time>
      </trkpt>
      <trkpt lat="42.74836" lon="0.17078">
        <ele>2153</ele>
        <time>2019-02-27T11:36:45Z</time>
      </trkpt>
      <trkpt lat="42.74839" lon="0.17081">
        <ele>2152</ele>
        <time>2019-02-27T11:36:46Z</time>
      </trkpt>
      <trkpt lat="42.74842" lon="0.17084">
        <ele>2151</ele>
        <time>2019-02-27T11:36:47Z</time>
      </trkpt>
      <trkpt lat="42.74842" lon="0.17084">
        <ele>2150</ele>
        <time>2019-02-27T11:36:48Z</time>
      </trkpt>
      <trkpt lat="42.74842" lon="0.17084">
        <ele>2150</ele>
        <time>2019-02-27T11:36:49Z</time>
      </trkpt>
      <trkpt lat="42.74842" lon="0.17084">
        <ele>2150</ele>
        <time>2019-02-27T11:36:50Z</time>
      </trkpt>
      <trkpt lat="42.7485" lon="0.1709">
        <ele>2150</ele>
        <time>2019-02-27T11:36:51Z</time>
      </trkpt>
      <trkpt lat="42.7485" lon="0.1709">
        <ele>2149</ele>
        <time>2019-02-27T11:36:52Z</time>
      </trkpt>
      <trkpt lat="42.7485" lon="0.1709">
        <ele>2149</ele>
        <time>2019-02-27T11:36:53Z</time>
      </trkpt>
      <trkpt lat="42.7485" lon="0.1709">
        <ele>2149</ele>
        <time>2019-02-27T11:36:54Z</time>
      </trkpt>
      <trkpt lat="42.7485" lon="0.1709">
        <ele>2149</ele>
        <time>2019-02-27T11:36:55Z</time>
      </trkpt>
      <trkpt lat="42.7485" lon="0.1709">
        <ele>2149</ele>
        <time>2019-02-27T11:36:56Z</time>
      </trkpt>
      <trkpt lat="42.7485" lon="0.1709">
        <ele>2149</ele>
        <time>2019-02-27T11:36:57Z</time>
      </trkpt>
      <trkpt lat="42.7485" lon="0.1709">
        <ele>2149</ele>
        <time>2019-02-27T11:36:58Z</time>
      </trkpt>
      <trkpt lat="42.7485" lon="0.1709">
        <ele>2149</ele>
        <time>2019-02-27T11:36:59Z</time>
      </trkpt>
      <trkpt lat="42.7485" lon="0.1709">
        <ele>2149</ele>
        <time>2019-02-27T11:37:00Z</time>
      </trkpt>
      <trkpt lat="42.74859" lon="0.17095">
        <ele>2147</ele>
        <time>2019-02-27T11:37:01Z</time>
      </trkpt>
      <trkpt lat="42.74859" lon="0.17095">
        <ele>2147</ele>
        <time>2019-02-27T11:37:02Z</time>
      </trkpt>
      <trkpt lat="42.74859" lon="0.17095">
        <ele>2147</ele>
        <time>2019-02-27T11:37:03Z</time>
      </trkpt>
      <trkpt lat="42.74859" lon="0.17095">
        <ele>2147</ele>
        <time>2019-02-27T11:37:04Z</time>
      </trkpt>
      <trkpt lat="42.74859" lon="0.17095">
        <ele>2147</ele>
        <time>2019-02-27T11:37:05Z</time>
      </trkpt>
      <trkpt lat="42.74869" lon="0.17103">
        <ele>2147</ele>
        <time>2019-02-27T11:37:06Z</time>
      </trkpt>
      <trkpt lat="42.7487" lon="0.17103">
        <ele>2146</ele>
        <time>2019-02-27T11:37:07Z</time>
      </trkpt>
      <trkpt lat="42.74871" lon="0.17104">
        <ele>2145</ele>
        <time>2019-02-27T11:37:08Z</time>
      </trkpt>
      <trkpt lat="42.74872" lon="0.17105">
        <ele>2145</ele>
        <time>2019-02-27T11:37:09Z</time>
      </trkpt>
      <trkpt lat="42.74873" lon="0.17105">
        <ele>2145</ele>
        <time>2019-02-27T11:37:10Z</time>
      </trkpt>
      <trkpt lat="42.74878" lon="0.17109">
        <ele>2145</ele>
        <time>2019-02-27T11:37:11Z</time>
      </trkpt>
      <trkpt lat="42.74878" lon="0.17109">
        <ele>2145</ele>
        <time>2019-02-27T11:37:12Z</time>
      </trkpt>
      <trkpt lat="42.74887" lon="0.17118">
        <ele>2145</ele>
        <time>2019-02-27T11:37:13Z</time>
      </trkpt>
      <trkpt lat="42.74889" lon="0.17119">
        <ele>2144</ele>
        <time>2019-02-27T11:37:14Z</time>
      </trkpt>
      <trkpt lat="42.74891" lon="0.17121">
        <ele>2142</ele>
        <time>2019-02-27T11:37:15Z</time>
      </trkpt>
      <trkpt lat="42.74897" lon="0.17128">
        <ele>2141</ele>
        <time>2019-02-27T11:37:16Z</time>
      </trkpt>
      <trkpt lat="42.74899" lon="0.17129">
        <ele>2141</ele>
        <time>2019-02-27T11:37:17Z</time>
      </trkpt>
      <trkpt lat="42.749" lon="0.17131">
        <ele>2141</ele>
        <time>2019-02-27T11:37:18Z</time>
      </trkpt>
      <trkpt lat="42.74904" lon="0.17135">
        <ele>2140</ele>
        <time>2019-02-27T11:37:19Z</time>
      </trkpt>
      <trkpt lat="42.74904" lon="0.17135">
        <ele>2140</ele>
        <time>2019-02-27T11:37:20Z</time>
      </trkpt>
      <trkpt lat="42.74915" lon="0.17141">
        <ele>2139</ele>
        <time>2019-02-27T11:37:21Z</time>
      </trkpt>
      <trkpt lat="42.74916" lon="0.17142">
        <ele>2138</ele>
        <time>2019-02-27T11:37:22Z</time>
      </trkpt>
      <trkpt lat="42.74918" lon="0.17144">
        <ele>2137</ele>
        <time>2019-02-27T11:37:23Z</time>
      </trkpt>
      <trkpt lat="42.74924" lon="0.17147">
        <ele>2137</ele>
        <time>2019-02-27T11:37:24Z</time>
      </trkpt>
      <trkpt lat="42.74925" lon="0.17146">
        <ele>2136</ele>
        <time>2019-02-27T11:37:25Z</time>
      </trkpt>
      <trkpt lat="42.74926" lon="0.17144">
        <ele>2135</ele>
        <time>2019-02-27T11:37:26Z</time>
      </trkpt>
      <trkpt lat="42.74927" lon="0.17143">
        <ele>2133</ele>
        <time>2019-02-27T11:37:27Z</time>
      </trkpt>
      <trkpt lat="42.74934" lon="0.17138">
        <ele>2131</ele>
        <time>2019-02-27T11:37:28Z</time>
      </trkpt>
      <trkpt lat="42.74937" lon="0.17136">
        <ele>2130</ele>
        <time>2019-02-27T11:37:29Z</time>
      </trkpt>
      <trkpt lat="42.74939" lon="0.17135">
        <ele>2128</ele>
        <time>2019-02-27T11:37:30Z</time>
      </trkpt>
      <trkpt lat="42.74947" lon="0.17131">
        <ele>2126</ele>
        <time>2019-02-27T11:37:31Z</time>
      </trkpt>
      <trkpt lat="42.7495" lon="0.17133">
        <ele>2125</ele>
        <time>2019-02-27T11:37:32Z</time>
      </trkpt>
      <trkpt lat="42.74957" lon="0.17138">
        <ele>2124</ele>
        <time>2019-02-27T11:37:33Z</time>
      </trkpt>
      <trkpt lat="42.7496" lon="0.1714">
        <ele>2122</ele>
        <time>2019-02-27T11:37:34Z</time>
      </trkpt>
      <trkpt lat="42.74968" lon="0.17147">
        <ele>2121</ele>
        <time>2019-02-27T11:37:35Z</time>
      </trkpt>
      <trkpt lat="42.74971" lon="0.17149">
        <ele>2121</ele>
        <time>2019-02-27T11:37:36Z</time>
      </trkpt>
      <trkpt lat="42.74977" lon="0.17153">
        <ele>2120</ele>
        <time>2019-02-27T11:37:37Z</time>
      </trkpt>
      <trkpt lat="42.74977" lon="0.17153">
        <ele>2119</ele>
        <time>2019-02-27T11:37:38Z</time>
      </trkpt>
      <trkpt lat="42.74988" lon="0.17157">
        <ele>2118</ele>
        <time>2019-02-27T11:37:39Z</time>
      </trkpt>
      <trkpt lat="42.74989" lon="0.17155">
        <ele>2116</ele>
        <time>2019-02-27T11:37:40Z</time>
      </trkpt>
      <trkpt lat="42.74991" lon="0.17153">
        <ele>2114</ele>
        <time>2019-02-27T11:37:41Z</time>
      </trkpt>
      <trkpt lat="42.74997" lon="0.17143">
        <ele>2111</ele>
        <time>2019-02-27T11:37:42Z</time>
      </trkpt>
      <trkpt lat="42.74999" lon="0.1714">
        <ele>2108</ele>
        <time>2019-02-27T11:37:43Z</time>
      </trkpt>
      <trkpt lat="42.75005" lon="0.17131">
        <ele>2106</ele>
        <time>2019-02-27T11:37:44Z</time>
      </trkpt>
      <trkpt lat="42.75007" lon="0.17129">
        <ele>2105</ele>
        <time>2019-02-27T11:37:45Z</time>
      </trkpt>
      <trkpt lat="42.75012" lon="0.17123">
        <ele>2103</ele>
        <time>2019-02-27T11:37:46Z</time>
      </trkpt>
      <trkpt lat="42.75012" lon="0.17123">
        <ele>2101</ele>
        <time>2019-02-27T11:37:47Z</time>
      </trkpt>
      <trkpt lat="42.75025" lon="0.17122">
        <ele>2099</ele>
        <time>2019-02-27T11:37:48Z</time>
      </trkpt>
      <trkpt lat="42.75028" lon="0.17124">
        <ele>2098</ele>
        <time>2019-02-27T11:37:49Z</time>
      </trkpt>
      <trkpt lat="42.75036" lon="0.17129">
        <ele>2097</ele>
        <time>2019-02-27T11:37:50Z</time>
      </trkpt>
      <trkpt lat="42.75039" lon="0.1713">
        <ele>2096</ele>
        <time>2019-02-27T11:37:51Z</time>
      </trkpt>
      <trkpt lat="42.75046" lon="0.1713">
        <ele>2095</ele>
        <time>2019-02-27T11:37:52Z</time>
      </trkpt>
      <trkpt lat="42.75048" lon="0.17127">
        <ele>2093</ele>
        <time>2019-02-27T11:37:53Z</time>
      </trkpt>
      <trkpt lat="42.75052" lon="0.17122">
        <ele>2090</ele>
        <time>2019-02-27T11:37:54Z</time>
      </trkpt>
      <trkpt lat="42.75052" lon="0.17122">
        <ele>2088</ele>
        <time>2019-02-27T11:37:55Z</time>
      </trkpt>
      <trkpt lat="42.75064" lon="0.1712">
        <ele>2087</ele>
        <time>2019-02-27T11:37:56Z</time>
      </trkpt>
      <trkpt lat="42.75067" lon="0.1712">
        <ele>2085</ele>
        <time>2019-02-27T11:37:57Z</time>
      </trkpt>
      <trkpt lat="42.75076" lon="0.17118">
        <ele>2083</ele>
        <time>2019-02-27T11:37:58Z</time>
      </trkpt>
      <trkpt lat="42.75078" lon="0.17118">
        <ele>2081</ele>
        <time>2019-02-27T11:37:59Z</time>
      </trkpt>
      <trkpt lat="42.75086" lon="0.17119">
        <ele>2080</ele>
        <time>2019-02-27T11:38:00Z</time>
      </trkpt>
      <trkpt lat="42.75089" lon="0.1712">
        <ele>2078</ele>
        <time>2019-02-27T11:38:01Z</time>
      </trkpt>
      <trkpt lat="42.75097" lon="0.17125">
        <ele>2078</ele>
        <time>2019-02-27T11:38:02Z</time>
      </trkpt>
      <trkpt lat="42.75099" lon="0.17128">
        <ele>2077</ele>
        <time>2019-02-27T11:38:03Z</time>
      </trkpt>
      <trkpt lat="42.75105" lon="0.17134">
        <ele>2077</ele>
        <time>2019-02-27T11:38:04Z</time>
      </trkpt>
      <trkpt lat="42.75107" lon="0.17136">
        <ele>2077</ele>
        <time>2019-02-27T11:38:05Z</time>
      </trkpt>
      <trkpt lat="42.75108" lon="0.17138">
        <ele>2076</ele>
        <time>2019-02-27T11:38:06Z</time>
      </trkpt>
      <trkpt lat="42.75114" lon="0.17143">
        <ele>2076</ele>
        <time>2019-02-27T11:38:07Z</time>
      </trkpt>
      <trkpt lat="42.75115" lon="0.17144">
        <ele>2076</ele>
        <time>2019-02-27T11:38:08Z</time>
      </trkpt>
      <trkpt lat="42.75116" lon="0.17144">
        <ele>2076</ele>
        <time>2019-02-27T11:38:09Z</time>
      </trkpt>
      <trkpt lat="42.75118" lon="0.17145">
        <ele>2075</ele>
        <time>2019-02-27T11:38:10Z</time>
      </trkpt>
      <trkpt lat="42.75124" lon="0.17148">
        <ele>2075</ele>
        <time>2019-02-27T11:38:11Z</time>
      </trkpt>
      <trkpt lat="42.75124" lon="0.17148">
        <ele>2075</ele>
        <time>2019-02-27T11:38:12Z</time>
      </trkpt>
      <trkpt lat="42.75134" lon="0.17154">
        <ele>2075</ele>
        <time>2019-02-27T11:38:13Z</time>
      </trkpt>
      <trkpt lat="42.75135" lon="0.17156">
        <ele>2075</ele>
        <time>2019-02-27T11:38:14Z</time>
      </trkpt>
      <trkpt lat="42.75136" lon="0.17158">
        <ele>2074</ele>
        <time>2019-02-27T11:38:15Z</time>
      </trkpt>
      <trkpt lat="42.7514" lon="0.17163">
        <ele>2074</ele>
        <time>2019-02-27T11:38:16Z</time>
      </trkpt>
      <trkpt lat="42.7514" lon="0.17163">
        <ele>2074</ele>
        <time>2019-02-27T11:38:17Z</time>
      </trkpt>
      <trkpt lat="42.7514" lon="0.17163">
        <ele>2073</ele>
        <time>2019-02-27T11:38:18Z</time>
      </trkpt>
      <trkpt lat="42.7514" lon="0.17163">
        <ele>2073</ele>
        <time>2019-02-27T11:38:19Z</time>
      </trkpt>
      <trkpt lat="42.7514" lon="0.17163">
        <ele>2073</ele>
        <time>2019-02-27T11:38:20Z</time>
      </trkpt>
      <trkpt lat="42.75146" lon="0.17172">
        <ele>2074</ele>
        <time>2019-02-27T11:38:21Z</time>
      </trkpt>
      <trkpt lat="42.75146" lon="0.17172">
        <ele>2074</ele>
        <time>2019-02-27T11:38:22Z</time>
      </trkpt>
      <trkpt lat="42.75146" lon="0.17172">
        <ele>2074</ele>
        <time>2019-02-27T11:38:23Z</time>
      </trkpt>
      <trkpt lat="42.75146" lon="0.17172">
        <ele>2074</ele>
        <time>2019-02-27T11:38:24Z</time>
      </trkpt>
      <trkpt lat="42.75146" lon="0.17172">
        <ele>2073</ele>
        <time>2019-02-27T11:38:25Z</time>
      </trkpt>
      <trkpt lat="42.75146" lon="0.17172">
        <ele>2073</ele>
        <time>2019-02-27T11:38:26Z</time>
      </trkpt>
      <trkpt lat="42.75146" lon="0.17172">
        <ele>2073</ele>
        <time>2019-02-27T11:38:27Z</time>
      </trkpt>
      <trkpt lat="42.75146" lon="0.17172">
        <ele>2073</ele>
        <time>2019-02-27T11:38:28Z</time>
      </trkpt>
      <trkpt lat="42.75146" lon="0.17172">
        <ele>2073</ele>
        <time>2019-02-27T11:38:29Z</time>
      </trkpt>
      <trkpt lat="42.75146" lon="0.17172">
        <ele>2073</ele>
        <time>2019-02-27T11:38:30Z</time>
      </trkpt>
      <trkpt lat="42.75146" lon="0.17172">
        <ele>2073</ele>
        <time>2019-02-27T11:38:31Z</time>
      </trkpt>
      <trkpt lat="42.75146" lon="0.17172">
        <ele>2073</ele>
        <time>2019-02-27T11:38:32Z</time>
      </trkpt>
      <trkpt lat="42.75146" lon="0.17172">
        <ele>2073</ele>
        <time>2019-02-27T11:38:33Z</time>
      </trkpt>
      <trkpt lat="42.75146" lon="0.17172">
        <ele>2073</ele>
        <time>2019-02-27T11:38:34Z</time>
      </trkpt>
      <trkpt lat="42.75146" lon="0.17172">
        <ele>2073</ele>
        <time>2019-02-27T11:38:35Z</time>
      </trkpt>
      <trkpt lat="42.75146" lon="0.17172">
        <ele>2073</ele>
        <time>2019-02-27T11:38:36Z</time>
      </trkpt>
      <trkpt lat="42.75146" lon="0.17172">
        <ele>2073</ele>
        <time>2019-02-27T11:38:37Z</time>
      </trkpt>
      <trkpt lat="42.75146" lon="0.17172">
        <ele>2074</ele>
        <time>2019-02-27T11:38:38Z</time>
      </trkpt>
      <trkpt lat="42.75146" lon="0.17172">
        <ele>2074</ele>
        <time>2019-02-27T11:38:39Z</time>
      </trkpt>
      <trkpt lat="42.75146" lon="0.17172">
        <ele>2074</ele>
        <time>2019-02-27T11:38:40Z</time>
      </trkpt>
      <trkpt lat="42.75146" lon="0.17172">
        <ele>2074</ele>
        <time>2019-02-27T11:38:41Z</time>
      </trkpt>
      <trkpt lat="42.75146" lon="0.17172">
        <ele>2074</ele>
        <time>2019-02-27T11:38:42Z</time>
      </trkpt>
      <trkpt lat="42.75146" lon="0.17172">
        <ele>2073</ele>
        <time>2019-02-27T11:38:43Z</time>
      </trkpt>
      <trkpt lat="42.75146" lon="0.17172">
        <ele>2073</ele>
        <time>2019-02-27T11:38:44Z</time>
      </trkpt>
      <trkpt lat="42.75146" lon="0.17172">
        <ele>2073</ele>
        <time>2019-02-27T11:38:45Z</time>
      </trkpt>
      <trkpt lat="42.75146" lon="0.17172">
        <ele>2073</ele>
        <time>2019-02-27T11:38:46Z</time>
      </trkpt>
      <trkpt lat="42.75146" lon="0.17172">
        <ele>2073</ele>
        <time>2019-02-27T11:38:47Z</time>
      </trkpt>
      <trkpt lat="42.75146" lon="0.17172">
        <ele>2073</ele>
        <time>2019-02-27T11:38:48Z</time>
      </trkpt>
      <trkpt lat="42.75146" lon="0.17172">
        <ele>2073</ele>
        <time>2019-02-27T11:38:49Z</time>
      </trkpt>
      <trkpt lat="42.75146" lon="0.17172">
        <ele>2073</ele>
        <time>2019-02-27T11:38:50Z</time>
      </trkpt>
      <trkpt lat="42.75146" lon="0.17172">
        <ele>2073</ele>
        <time>2019-02-27T11:38:51Z</time>
      </trkpt>
      <trkpt lat="42.75146" lon="0.17172">
        <ele>2073</ele>
        <time>2019-02-27T11:38:52Z</time>
      </trkpt>
      <trkpt lat="42.75146" lon="0.17172">
        <ele>2073</ele>
        <time>2019-02-27T11:38:53Z</time>
      </trkpt>
      <trkpt lat="42.75146" lon="0.17172">
        <ele>2073</ele>
        <time>2019-02-27T11:38:54Z</time>
      </trkpt>
      <trkpt lat="42.75146" lon="0.17172">
        <ele>2073</ele>
        <time>2019-02-27T11:38:55Z</time>
      </trkpt>
      <trkpt lat="42.75146" lon="0.17172">
        <ele>2073</ele>
        <time>2019-02-27T11:38:56Z</time>
      </trkpt>
      <trkpt lat="42.75146" lon="0.17172">
        <ele>2073</ele>
        <time>2019-02-27T11:38:57Z</time>
      </trkpt>
      <trkpt lat="42.75146" lon="0.17172">
        <ele>2073</ele>
        <time>2019-02-27T11:38:58Z</time>
      </trkpt>
      <trkpt lat="42.75146" lon="0.17172">
        <ele>2073</ele>
        <time>2019-02-27T11:38:59Z</time>
      </trkpt>
      <trkpt lat="42.75146" lon="0.17172">
        <ele>2073</ele>
        <time>2019-02-27T11:39:00Z</time>
      </trkpt>
      <trkpt lat="42.75146" lon="0.17172">
        <ele>2073</ele>
        <time>2019-02-27T11:39:01Z</time>
      </trkpt>
      <trkpt lat="42.75146" lon="0.17172">
        <ele>2073</ele>
        <time>2019-02-27T11:39:02Z</time>
      </trkpt>
      <trkpt lat="42.75146" lon="0.17172">
        <ele>2073</ele>
        <time>2019-02-27T11:39:03Z</time>
      </trkpt>
      <trkpt lat="42.75146" lon="0.17172">
        <ele>2073</ele>
        <time>2019-02-27T11:39:04Z</time>
      </trkpt>
      <trkpt lat="42.75146" lon="0.17172">
        <ele>2073</ele>
        <time>2019-02-27T11:39:05Z</time>
      </trkpt>
      <trkpt lat="42.75146" lon="0.17172">
        <ele>2073</ele>
        <time>2019-02-27T11:39:06Z</time>
      </trkpt>
      <trkpt lat="42.75146" lon="0.17172">
        <ele>2073</ele>
        <time>2019-02-27T11:39:07Z</time>
      </trkpt>
      <trkpt lat="42.75146" lon="0.17172">
        <ele>2073</ele>
        <time>2019-02-27T11:39:08Z</time>
      </trkpt>
      <trkpt lat="42.75146" lon="0.17172">
        <ele>2073</ele>
        <time>2019-02-27T11:39:09Z</time>
      </trkpt>
      <trkpt lat="42.75146" lon="0.17172">
        <ele>2073</ele>
        <time>2019-02-27T11:39:10Z</time>
      </trkpt>
      <trkpt lat="42.75146" lon="0.17172">
        <ele>2073</ele>
        <time>2019-02-27T11:39:11Z</time>
      </trkpt>
      <trkpt lat="42.75146" lon="0.17172">
        <ele>2073</ele>
        <time>2019-02-27T11:39:12Z</time>
      </trkpt>
      <trkpt lat="42.75146" lon="0.17172">
        <ele>2073</ele>
        <time>2019-02-27T11:39:13Z</time>
      </trkpt>
      <trkpt lat="42.75146" lon="0.17172">
        <ele>2073</ele>
        <time>2019-02-27T11:39:14Z</time>
      </trkpt>
      <trkpt lat="42.75146" lon="0.17172">
        <ele>2074</ele>
        <time>2019-02-27T11:39:15Z</time>
      </trkpt>
      <trkpt lat="42.75146" lon="0.17172">
        <ele>2074</ele>
        <time>2019-02-27T11:39:16Z</time>
      </trkpt>
      <trkpt lat="42.75146" lon="0.17172">
        <ele>2074</ele>
        <time>2019-02-27T11:39:17Z</time>
      </trkpt>
      <trkpt lat="42.75146" lon="0.17172">
        <ele>2074</ele>
        <time>2019-02-27T11:39:18Z</time>
      </trkpt>
      <trkpt lat="42.75144" lon="0.17173">
        <ele>2074</ele>
        <time>2019-02-27T11:39:19Z</time>
      </trkpt>
      <trkpt lat="42.75144" lon="0.17173">
        <ele>2074</ele>
        <time>2019-02-27T11:39:20Z</time>
      </trkpt>
      <trkpt lat="42.75144" lon="0.17173">
        <ele>2074</ele>
        <time>2019-02-27T11:39:21Z</time>
      </trkpt>
      <trkpt lat="42.75144" lon="0.17173">
        <ele>2074</ele>
        <time>2019-02-27T11:39:22Z</time>
      </trkpt>
      <trkpt lat="42.75144" lon="0.17173">
        <ele>2073</ele>
        <time>2019-02-27T11:39:23Z</time>
      </trkpt>
      <trkpt lat="42.75144" lon="0.17173">
        <ele>2073</ele>
        <time>2019-02-27T11:39:24Z</time>
      </trkpt>
      <trkpt lat="42.75144" lon="0.17173">
        <ele>2073</ele>
        <time>2019-02-27T11:39:25Z</time>
      </trkpt>
      <trkpt lat="42.75144" lon="0.17173">
        <ele>2073</ele>
        <time>2019-02-27T11:39:26Z</time>
      </trkpt>
      <trkpt lat="42.75144" lon="0.17173">
        <ele>2073</ele>
        <time>2019-02-27T11:39:27Z</time>
      </trkpt>
      <trkpt lat="42.75144" lon="0.17173">
        <ele>2073</ele>
        <time>2019-02-27T11:39:28Z</time>
      </trkpt>
      <trkpt lat="42.75144" lon="0.17173">
        <ele>2073</ele>
        <time>2019-02-27T11:39:29Z</time>
      </trkpt>
      <trkpt lat="42.75144" lon="0.17173">
        <ele>2073</ele>
        <time>2019-02-27T11:39:30Z</time>
      </trkpt>
      <trkpt lat="42.75144" lon="0.17173">
        <ele>2073</ele>
        <time>2019-02-27T11:39:31Z</time>
      </trkpt>
      <trkpt lat="42.75144" lon="0.17173">
        <ele>2073</ele>
        <time>2019-02-27T11:39:32Z</time>
      </trkpt>
      <trkpt lat="42.75144" lon="0.17173">
        <ele>2073</ele>
        <time>2019-02-27T11:39:33Z</time>
      </trkpt>
      <trkpt lat="42.75144" lon="0.17173">
        <ele>2073</ele>
        <time>2019-02-27T11:39:34Z</time>
      </trkpt>
      <trkpt lat="42.75144" lon="0.17173">
        <ele>2073</ele>
        <time>2019-02-27T11:39:35Z</time>
      </trkpt>
      <trkpt lat="42.75144" lon="0.17173">
        <ele>2073</ele>
        <time>2019-02-27T11:39:36Z</time>
      </trkpt>
      <trkpt lat="42.75144" lon="0.17173">
        <ele>2073</ele>
        <time>2019-02-27T11:39:37Z</time>
      </trkpt>
      <trkpt lat="42.75144" lon="0.17173">
        <ele>2073</ele>
        <time>2019-02-27T11:39:38Z</time>
      </trkpt>
      <trkpt lat="42.75144" lon="0.17173">
        <ele>2073</ele>
        <time>2019-02-27T11:39:39Z</time>
      </trkpt>
      <trkpt lat="42.75144" lon="0.17173">
        <ele>2073</ele>
        <time>2019-02-27T11:39:40Z</time>
      </trkpt>
      <trkpt lat="42.75144" lon="0.17173">
        <ele>2074</ele>
        <time>2019-02-27T11:39:41Z</time>
      </trkpt>
      <trkpt lat="42.75144" lon="0.17173">
        <ele>2074</ele>
        <time>2019-02-27T11:39:42Z</time>
      </trkpt>
      <trkpt lat="42.75144" lon="0.17173">
        <ele>2074</ele>
        <time>2019-02-27T11:39:43Z</time>
      </trkpt>
      <trkpt lat="42.75144" lon="0.17173">
        <ele>2074</ele>
        <time>2019-02-27T11:39:44Z</time>
      </trkpt>
      <trkpt lat="42.75144" lon="0.17173">
        <ele>2074</ele>
        <time>2019-02-27T11:39:45Z</time>
      </trkpt>
      <trkpt lat="42.75144" lon="0.17173">
        <ele>2074</ele>
        <time>2019-02-27T11:39:46Z</time>
      </trkpt>
      <trkpt lat="42.75144" lon="0.17173">
        <ele>2074</ele>
        <time>2019-02-27T11:39:47Z</time>
      </trkpt>
      <trkpt lat="42.75144" lon="0.17173">
        <ele>2074</ele>
        <time>2019-02-27T11:39:48Z</time>
      </trkpt>
      <trkpt lat="42.75144" lon="0.17173">
        <ele>2074</ele>
        <time>2019-02-27T11:39:49Z</time>
      </trkpt>
      <trkpt lat="42.75144" lon="0.17173">
        <ele>2074</ele>
        <time>2019-02-27T11:39:50Z</time>
      </trkpt>
      <trkpt lat="42.75144" lon="0.17173">
        <ele>2074</ele>
        <time>2019-02-27T11:39:51Z</time>
      </trkpt>
      <trkpt lat="42.75144" lon="0.17173">
        <ele>2074</ele>
        <time>2019-02-27T11:39:52Z</time>
      </trkpt>
      <trkpt lat="42.75144" lon="0.17173">
        <ele>2074</ele>
        <time>2019-02-27T11:39:53Z</time>
      </trkpt>
      <trkpt lat="42.75144" lon="0.17173">
        <ele>2074</ele>
        <time>2019-02-27T11:39:54Z</time>
      </trkpt>
      <trkpt lat="42.75144" lon="0.17173">
        <ele>2074</ele>
        <time>2019-02-27T11:39:55Z</time>
      </trkpt>
      <trkpt lat="42.75144" lon="0.17173">
        <ele>2073</ele>
        <time>2019-02-27T11:39:56Z</time>
      </trkpt>
      <trkpt lat="42.75144" lon="0.17173">
        <ele>2073</ele>
        <time>2019-02-27T11:39:57Z</time>
      </trkpt>
      <trkpt lat="42.75144" lon="0.17173">
        <ele>2073</ele>
        <time>2019-02-27T11:39:58Z</time>
      </trkpt>
      <trkpt lat="42.75144" lon="0.17173">
        <ele>2073</ele>
        <time>2019-02-27T11:39:59Z</time>
      </trkpt>
      <trkpt lat="42.75144" lon="0.17173">
        <ele>2073</ele>
        <time>2019-02-27T11:40:00Z</time>
      </trkpt>
      <trkpt lat="42.75144" lon="0.17173">
        <ele>2073</ele>
        <time>2019-02-27T11:40:01Z</time>
      </trkpt>
      <trkpt lat="42.75144" lon="0.17173">
        <ele>2073</ele>
        <time>2019-02-27T11:40:02Z</time>
      </trkpt>
      <trkpt lat="42.75144" lon="0.17173">
        <ele>2073</ele>
        <time>2019-02-27T11:40:03Z</time>
      </trkpt>
      <trkpt lat="42.75144" lon="0.17173">
        <ele>2073</ele>
        <time>2019-02-27T11:40:04Z</time>
      </trkpt>
      <trkpt lat="42.75144" lon="0.17173">
        <ele>2074</ele>
        <time>2019-02-27T11:40:05Z</time>
      </trkpt>
      <trkpt lat="42.75143" lon="0.17172">
        <ele>2074</ele>
        <time>2019-02-27T11:40:06Z</time>
      </trkpt>
      <trkpt lat="42.75143" lon="0.17172">
        <ele>2074</ele>
        <time>2019-02-27T11:40:07Z</time>
      </trkpt>
      <trkpt lat="42.75143" lon="0.17172">
        <ele>2074</ele>
        <time>2019-02-27T11:40:08Z</time>
      </trkpt>
      <trkpt lat="42.75143" lon="0.17172">
        <ele>2073</ele>
        <time>2019-02-27T11:40:09Z</time>
      </trkpt>
      <trkpt lat="42.75143" lon="0.17172">
        <ele>2073</ele>
        <time>2019-02-27T11:40:10Z</time>
      </trkpt>
      <trkpt lat="42.75143" lon="0.17172">
        <ele>2073</ele>
        <time>2019-02-27T11:40:11Z</time>
      </trkpt>
      <trkpt lat="42.75143" lon="0.17172">
        <ele>2073</ele>
        <time>2019-02-27T11:40:12Z</time>
      </trkpt>
      <trkpt lat="42.75143" lon="0.17172">
        <ele>2073</ele>
        <time>2019-02-27T11:40:13Z</time>
      </trkpt>
      <trkpt lat="42.75143" lon="0.17172">
        <ele>2073</ele>
        <time>2019-02-27T11:40:14Z</time>
      </trkpt>
      <trkpt lat="42.75143" lon="0.17172">
        <ele>2073</ele>
        <time>2019-02-27T11:40:15Z</time>
      </trkpt>
      <trkpt lat="42.75143" lon="0.17172">
        <ele>2074</ele>
        <time>2019-02-27T11:40:16Z</time>
      </trkpt>
      <trkpt lat="42.75143" lon="0.17172">
        <ele>2074</ele>
        <time>2019-02-27T11:40:17Z</time>
      </trkpt>
      <trkpt lat="42.75143" lon="0.17172">
        <ele>2074</ele>
        <time>2019-02-27T11:40:18Z</time>
      </trkpt>
      <trkpt lat="42.75143" lon="0.17172">
        <ele>2074</ele>
        <time>2019-02-27T11:40:19Z</time>
      </trkpt>
      <trkpt lat="42.75143" lon="0.17172">
        <ele>2073</ele>
        <time>2019-02-27T11:40:20Z</time>
      </trkpt>
      <trkpt lat="42.75143" lon="0.17172">
        <ele>2074</ele>
        <time>2019-02-27T11:40:21Z</time>
      </trkpt>
      <trkpt lat="42.75143" lon="0.17172">
        <ele>2074</ele>
        <time>2019-02-27T11:40:22Z</time>
      </trkpt>
      <trkpt lat="42.75143" lon="0.17172">
        <ele>2073</ele>
        <time>2019-02-27T11:40:23Z</time>
      </trkpt>
      <trkpt lat="42.75143" lon="0.17172">
        <ele>2073</ele>
        <time>2019-02-27T11:40:24Z</time>
      </trkpt>
      <trkpt lat="42.75143" lon="0.17172">
        <ele>2074</ele>
        <time>2019-02-27T11:40:25Z</time>
      </trkpt>
      <trkpt lat="42.75143" lon="0.17172">
        <ele>2074</ele>
        <time>2019-02-27T11:40:26Z</time>
      </trkpt>
      <trkpt lat="42.75143" lon="0.17172">
        <ele>2074</ele>
        <time>2019-02-27T11:40:27Z</time>
      </trkpt>
      <trkpt lat="42.75143" lon="0.17172">
        <ele>2074</ele>
        <time>2019-02-27T11:40:28Z</time>
      </trkpt>
      <trkpt lat="42.75143" lon="0.17172">
        <ele>2074</ele>
        <time>2019-02-27T11:40:29Z</time>
      </trkpt>
      <trkpt lat="42.75143" lon="0.17172">
        <ele>2074</ele>
        <time>2019-02-27T11:40:30Z</time>
      </trkpt>
      <trkpt lat="42.75143" lon="0.17172">
        <ele>2074</ele>
        <time>2019-02-27T11:40:31Z</time>
      </trkpt>
      <trkpt lat="42.75143" lon="0.17172">
        <ele>2074</ele>
        <time>2019-02-27T11:40:32Z</time>
      </trkpt>
      <trkpt lat="42.75143" lon="0.17172">
        <ele>2074</ele>
        <time>2019-02-27T11:40:33Z</time>
      </trkpt>
      <trkpt lat="42.75143" lon="0.17172">
        <ele>2074</ele>
        <time>2019-02-27T11:40:34Z</time>
      </trkpt>
      <trkpt lat="42.75143" lon="0.17172">
        <ele>2073</ele>
        <time>2019-02-27T11:40:35Z</time>
      </trkpt>
      <trkpt lat="42.75143" lon="0.17172">
        <ele>2074</ele>
        <time>2019-02-27T11:40:36Z</time>
      </trkpt>
      <trkpt lat="42.75143" lon="0.17172">
        <ele>2074</ele>
        <time>2019-02-27T11:40:37Z</time>
      </trkpt>
      <trkpt lat="42.75143" lon="0.17172">
        <ele>2074</ele>
        <time>2019-02-27T11:40:38Z</time>
      </trkpt>
      <trkpt lat="42.75143" lon="0.17172">
        <ele>2074</ele>
        <time>2019-02-27T11:40:39Z</time>
      </trkpt>
      <trkpt lat="42.75143" lon="0.17172">
        <ele>2074</ele>
        <time>2019-02-27T11:40:40Z</time>
      </trkpt>
      <trkpt lat="42.75143" lon="0.17172">
        <ele>2074</ele>
        <time>2019-02-27T11:40:41Z</time>
      </trkpt>
      <trkpt lat="42.75143" lon="0.17172">
        <ele>2074</ele>
        <time>2019-02-27T11:40:42Z</time>
      </trkpt>
      <trkpt lat="42.75143" lon="0.17172">
        <ele>2074</ele>
        <time>2019-02-27T11:40:43Z</time>
      </trkpt>
      <trkpt lat="42.75143" lon="0.17172">
        <ele>2074</ele>
        <time>2019-02-27T11:40:44Z</time>
      </trkpt>
      <trkpt lat="42.75143" lon="0.17172">
        <ele>2074</ele>
        <time>2019-02-27T11:40:45Z</time>
      </trkpt>
      <trkpt lat="42.75143" lon="0.17172">
        <ele>2074</ele>
        <time>2019-02-27T11:40:46Z</time>
      </trkpt>
      <trkpt lat="42.75143" lon="0.17172">
        <ele>2074</ele>
        <time>2019-02-27T11:40:47Z</time>
      </trkpt>
      <trkpt lat="42.75143" lon="0.17172">
        <ele>2074</ele>
        <time>2019-02-27T11:40:48Z</time>
      </trkpt>
      <trkpt lat="42.75143" lon="0.17172">
        <ele>2074</ele>
        <time>2019-02-27T11:40:49Z</time>
      </trkpt>
      <trkpt lat="42.75143" lon="0.17172">
        <ele>2073</ele>
        <time>2019-02-27T11:40:50Z</time>
      </trkpt>
      <trkpt lat="42.75143" lon="0.17172">
        <ele>2073</ele>
        <time>2019-02-27T11:40:51Z</time>
      </trkpt>
      <trkpt lat="42.75143" lon="0.17172">
        <ele>2074</ele>
        <time>2019-02-27T11:40:52Z</time>
      </trkpt>
      <trkpt lat="42.75143" lon="0.17172">
        <ele>2074</ele>
        <time>2019-02-27T11:40:53Z</time>
      </trkpt>
      <trkpt lat="42.75143" lon="0.17172">
        <ele>2074</ele>
        <time>2019-02-27T11:40:54Z</time>
      </trkpt>
      <trkpt lat="42.75143" lon="0.17172">
        <ele>2074</ele>
        <time>2019-02-27T11:40:55Z</time>
      </trkpt>
      <trkpt lat="42.75143" lon="0.17172">
        <ele>2074</ele>
        <time>2019-02-27T11:40:56Z</time>
      </trkpt>
      <trkpt lat="42.75143" lon="0.17172">
        <ele>2074</ele>
        <time>2019-02-27T11:40:57Z</time>
      </trkpt>
      <trkpt lat="42.75143" lon="0.17172">
        <ele>2074</ele>
        <time>2019-02-27T11:40:58Z</time>
      </trkpt>
      <trkpt lat="42.75143" lon="0.17172">
        <ele>2074</ele>
        <time>2019-02-27T11:40:59Z</time>
      </trkpt>
      <trkpt lat="42.75143" lon="0.17172">
        <ele>2074</ele>
        <time>2019-02-27T11:41:00Z</time>
      </trkpt>
      <trkpt lat="42.75143" lon="0.17172">
        <ele>2074</ele>
        <time>2019-02-27T11:41:01Z</time>
      </trkpt>
      <trkpt lat="42.75143" lon="0.17172">
        <ele>2074</ele>
        <time>2019-02-27T11:41:02Z</time>
      </trkpt>
      <trkpt lat="42.75143" lon="0.17172">
        <ele>2074</ele>
        <time>2019-02-27T11:41:03Z</time>
      </trkpt>
      <trkpt lat="42.75143" lon="0.17172">
        <ele>2074</ele>
        <time>2019-02-27T11:41:04Z</time>
      </trkpt>
      <trkpt lat="42.75143" lon="0.17172">
        <ele>2073</ele>
        <time>2019-02-27T11:41:05Z</time>
      </trkpt>
      <trkpt lat="42.75143" lon="0.17172">
        <ele>2073</ele>
        <time>2019-02-27T11:41:06Z</time>
      </trkpt>
      <trkpt lat="42.75143" lon="0.17172">
        <ele>2073</ele>
        <time>2019-02-27T11:41:07Z</time>
      </trkpt>
      <trkpt lat="42.75143" lon="0.17172">
        <ele>2073</ele>
        <time>2019-02-27T11:41:08Z</time>
      </trkpt>
      <trkpt lat="42.75143" lon="0.17172">
        <ele>2073</ele>
        <time>2019-02-27T11:41:09Z</time>
      </trkpt>
      <trkpt lat="42.75143" lon="0.17172">
        <ele>2073</ele>
        <time>2019-02-27T11:41:10Z</time>
      </trkpt>
      <trkpt lat="42.75143" lon="0.17172">
        <ele>2073</ele>
        <time>2019-02-27T11:41:11Z</time>
      </trkpt>
      <trkpt lat="42.75143" lon="0.17172">
        <ele>2073</ele>
        <time>2019-02-27T11:41:12Z</time>
      </trkpt>
      <trkpt lat="42.75143" lon="0.17172">
        <ele>2073</ele>
        <time>2019-02-27T11:41:13Z</time>
      </trkpt>
      <trkpt lat="42.75143" lon="0.17172">
        <ele>2073</ele>
        <time>2019-02-27T11:41:14Z</time>
      </trkpt>
      <trkpt lat="42.75143" lon="0.17172">
        <ele>2074</ele>
        <time>2019-02-27T11:41:15Z</time>
      </trkpt>
      <trkpt lat="42.75143" lon="0.17172">
        <ele>2074</ele>
        <time>2019-02-27T11:41:16Z</time>
      </trkpt>
      <trkpt lat="42.75143" lon="0.17172">
        <ele>2074</ele>
        <time>2019-02-27T11:41:17Z</time>
      </trkpt>
      <trkpt lat="42.75143" lon="0.17172">
        <ele>2074</ele>
        <time>2019-02-27T11:41:18Z</time>
      </trkpt>
      <trkpt lat="42.75143" lon="0.17172">
        <ele>2074</ele>
        <time>2019-02-27T11:41:19Z</time>
      </trkpt>
      <trkpt lat="42.75143" lon="0.17172">
        <ele>2074</ele>
        <time>2019-02-27T11:41:20Z</time>
      </trkpt>
      <trkpt lat="42.75143" lon="0.17172">
        <ele>2074</ele>
        <time>2019-02-27T11:41:21Z</time>
      </trkpt>
      <trkpt lat="42.75143" lon="0.17172">
        <ele>2074</ele>
        <time>2019-02-27T11:41:22Z</time>
      </trkpt>
      <trkpt lat="42.75143" lon="0.17172">
        <ele>2074</ele>
        <time>2019-02-27T11:41:23Z</time>
      </trkpt>
      <trkpt lat="42.75143" lon="0.17172">
        <ele>2074</ele>
        <time>2019-02-27T11:41:24Z</time>
      </trkpt>
      <trkpt lat="42.75143" lon="0.17172">
        <ele>2074</ele>
        <time>2019-02-27T11:41:25Z</time>
      </trkpt>
      <trkpt lat="42.75143" lon="0.17172">
        <ele>2074</ele>
        <time>2019-02-27T11:41:26Z</time>
      </trkpt>
      <trkpt lat="42.75143" lon="0.17172">
        <ele>2074</ele>
        <time>2019-02-27T11:41:27Z</time>
      </trkpt>
      <trkpt lat="42.75143" lon="0.17172">
        <ele>2074</ele>
        <time>2019-02-27T11:41:28Z</time>
      </trkpt>
      <trkpt lat="42.75143" lon="0.17172">
        <ele>2074</ele>
        <time>2019-02-27T11:41:29Z</time>
      </trkpt>
      <trkpt lat="42.75143" lon="0.17172">
        <ele>2074</ele>
        <time>2019-02-27T11:41:30Z</time>
      </trkpt>
      <trkpt lat="42.75143" lon="0.17172">
        <ele>2074</ele>
        <time>2019-02-27T11:41:31Z</time>
      </trkpt>
      <trkpt lat="42.75143" lon="0.17172">
        <ele>2074</ele>
        <time>2019-02-27T11:41:32Z</time>
      </trkpt>
      <trkpt lat="42.75143" lon="0.17172">
        <ele>2074</ele>
        <time>2019-02-27T11:41:33Z</time>
      </trkpt>
      <trkpt lat="42.75143" lon="0.17172">
        <ele>2074</ele>
        <time>2019-02-27T11:41:34Z</time>
      </trkpt>
      <trkpt lat="42.75143" lon="0.17172">
        <ele>2074</ele>
        <time>2019-02-27T11:41:35Z</time>
      </trkpt>
      <trkpt lat="42.75143" lon="0.17172">
        <ele>2074</ele>
        <time>2019-02-27T11:41:36Z</time>
      </trkpt>
      <trkpt lat="42.75143" lon="0.17172">
        <ele>2074</ele>
        <time>2019-02-27T11:41:37Z</time>
      </trkpt>
      <trkpt lat="42.75145" lon="0.17175">
        <ele>2074</ele>
        <time>2019-02-27T11:41:38Z</time>
      </trkpt>
      <trkpt lat="42.75145" lon="0.17175">
        <ele>2074</ele>
        <time>2019-02-27T11:41:39Z</time>
      </trkpt>
      <trkpt lat="42.75147" lon="0.17178">
        <ele>2074</ele>
        <time>2019-02-27T11:41:40Z</time>
      </trkpt>
      <trkpt lat="42.75147" lon="0.17178">
        <ele>2074</ele>
        <time>2019-02-27T11:41:41Z</time>
      </trkpt>
      <trkpt lat="42.75149" lon="0.17182">
        <ele>2073</ele>
        <time>2019-02-27T11:41:42Z</time>
      </trkpt>
      <trkpt lat="42.75149" lon="0.17184">
        <ele>2073</ele>
        <time>2019-02-27T11:41:43Z</time>
      </trkpt>
      <trkpt lat="42.75149" lon="0.17184">
        <ele>2073</ele>
        <time>2019-02-27T11:41:44Z</time>
      </trkpt>
      <trkpt lat="42.75151" lon="0.17188">
        <ele>2073</ele>
        <time>2019-02-27T11:41:45Z</time>
      </trkpt>
      <trkpt lat="42.75153" lon="0.17191">
        <ele>2072</ele>
        <time>2019-02-27T11:41:46Z</time>
      </trkpt>
      <trkpt lat="42.75155" lon="0.17195">
        <ele>2072</ele>
        <time>2019-02-27T11:41:47Z</time>
      </trkpt>
      <trkpt lat="42.75158" lon="0.17201">
        <ele>2071</ele>
        <time>2019-02-27T11:41:48Z</time>
      </trkpt>
      <trkpt lat="42.75162" lon="0.17206">
        <ele>2070</ele>
        <time>2019-02-27T11:41:49Z</time>
      </trkpt>
      <trkpt lat="42.75165" lon="0.17212">
        <ele>2069</ele>
        <time>2019-02-27T11:41:50Z</time>
      </trkpt>
      <trkpt lat="42.75169" lon="0.17219">
        <ele>2068</ele>
        <time>2019-02-27T11:41:51Z</time>
      </trkpt>
      <trkpt lat="42.75173" lon="0.17225">
        <ele>2067</ele>
        <time>2019-02-27T11:41:52Z</time>
      </trkpt>
      <trkpt lat="42.75176" lon="0.17231">
        <ele>2067</ele>
        <time>2019-02-27T11:41:53Z</time>
      </trkpt>
      <trkpt lat="42.75178" lon="0.17236">
        <ele>2067</ele>
        <time>2019-02-27T11:41:54Z</time>
      </trkpt>
      <trkpt lat="42.7518" lon="0.17241">
        <ele>2068</ele>
        <time>2019-02-27T11:41:55Z</time>
      </trkpt>
      <trkpt lat="42.75181" lon="0.17244">
        <ele>2068</ele>
        <time>2019-02-27T11:41:56Z</time>
      </trkpt>
      <trkpt lat="42.75182" lon="0.17248">
        <ele>2068</ele>
        <time>2019-02-27T11:41:57Z</time>
      </trkpt>
      <trkpt lat="42.75182" lon="0.17251">
        <ele>2068</ele>
        <time>2019-02-27T11:41:58Z</time>
      </trkpt>
      <trkpt lat="42.75183" lon="0.17253">
        <ele>2068</ele>
        <time>2019-02-27T11:41:59Z</time>
      </trkpt>
      <trkpt lat="42.75183" lon="0.17253">
        <ele>2068</ele>
        <time>2019-02-27T11:42:00Z</time>
      </trkpt>
      <trkpt lat="42.75184" lon="0.17256">
        <ele>2069</ele>
        <time>2019-02-27T11:42:01Z</time>
      </trkpt>
      <trkpt lat="42.75184" lon="0.17256">
        <ele>2069</ele>
        <time>2019-02-27T11:42:02Z</time>
      </trkpt>
      <trkpt lat="42.75185" lon="0.17259">
        <ele>2069</ele>
        <time>2019-02-27T11:42:03Z</time>
      </trkpt>
      <trkpt lat="42.75185" lon="0.17259">
        <ele>2069</ele>
        <time>2019-02-27T11:42:04Z</time>
      </trkpt>
      <trkpt lat="42.75188" lon="0.17263">
        <ele>2069</ele>
        <time>2019-02-27T11:42:05Z</time>
      </trkpt>
      <trkpt lat="42.75191" lon="0.17264">
        <ele>2069</ele>
        <time>2019-02-27T11:42:06Z</time>
      </trkpt>
      <trkpt lat="42.75195" lon="0.17263">
        <ele>2068</ele>
        <time>2019-02-27T11:42:07Z</time>
      </trkpt>
      <trkpt lat="42.752" lon="0.17263">
        <ele>2067</ele>
        <time>2019-02-27T11:42:08Z</time>
      </trkpt>
      <trkpt lat="42.75206" lon="0.17263">
        <ele>2066</ele>
        <time>2019-02-27T11:42:09Z</time>
      </trkpt>
      <trkpt lat="42.75212" lon="0.17263">
        <ele>2064</ele>
        <time>2019-02-27T11:42:10Z</time>
      </trkpt>
      <trkpt lat="42.75217" lon="0.17263">
        <ele>2064</ele>
        <time>2019-02-27T11:42:11Z</time>
      </trkpt>
      <trkpt lat="42.75225" lon="0.17263">
        <ele>2064</ele>
        <time>2019-02-27T11:42:12Z</time>
      </trkpt>
      <trkpt lat="42.75227" lon="0.17263">
        <ele>2063.6</ele>
        <time>2019-02-27T11:42:13Z</time>
      </trkpt>
      <trkpt lat="42.75232" lon="0.17263">
        <ele>2063</ele>
        <time>2019-02-27T11:42:14Z</time>
      </trkpt>
      <trkpt lat="42.75235" lon="0.17263">
        <ele>2064</ele>
        <time>2019-02-27T11:42:15Z</time>
      </trkpt>
      <trkpt lat="42.75238" lon="0.17262">
        <ele>2064</ele>
        <time>2019-02-27T11:42:16Z</time>
      </trkpt>
      <trkpt lat="42.75241" lon="0.17262">
        <ele>2064</ele>
        <time>2019-02-27T11:42:17Z</time>
      </trkpt>
      <trkpt lat="42.75243" lon="0.17262">
        <ele>2064</ele>
        <time>2019-02-27T11:42:18Z</time>
      </trkpt>
      <trkpt lat="42.75245" lon="0.17262">
        <ele>2064</ele>
        <time>2019-02-27T11:42:19Z</time>
      </trkpt>
      <trkpt lat="42.75247" lon="0.17262">
        <ele>2064</ele>
        <time>2019-02-27T11:42:20Z</time>
      </trkpt>
      <trkpt lat="42.75249" lon="0.17262">
        <ele>2064</ele>
        <time>2019-02-27T11:42:21Z</time>
      </trkpt>
      <trkpt lat="42.75252" lon="0.17262">
        <ele>2064</ele>
        <time>2019-02-27T11:42:22Z</time>
      </trkpt>
      <trkpt lat="42.75256" lon="0.17263">
        <ele>2063</ele>
        <time>2019-02-27T11:42:23Z</time>
      </trkpt>
      <trkpt lat="42.7526" lon="0.17263">
        <ele>2062</ele>
        <time>2019-02-27T11:42:24Z</time>
      </trkpt>
      <trkpt lat="42.75265" lon="0.17264">
        <ele>2062</ele>
        <time>2019-02-27T11:42:25Z</time>
      </trkpt>
      <trkpt lat="42.75271" lon="0.17265">
        <ele>2061</ele>
        <time>2019-02-27T11:42:26Z</time>
      </trkpt>
      <trkpt lat="42.75278" lon="0.17266">
        <ele>2060</ele>
        <time>2019-02-27T11:42:27Z</time>
      </trkpt>
      <trkpt lat="42.75284" lon="0.17265">
        <ele>2059</ele>
        <time>2019-02-27T11:42:28Z</time>
      </trkpt>
      <trkpt lat="42.7529" lon="0.17262">
        <ele>2058</ele>
        <time>2019-02-27T11:42:29Z</time>
      </trkpt>
      <trkpt lat="42.75297" lon="0.17258">
        <ele>2058</ele>
        <time>2019-02-27T11:42:30Z</time>
      </trkpt>
      <trkpt lat="42.75303" lon="0.17255">
        <ele>2057</ele>
        <time>2019-02-27T11:42:31Z</time>
      </trkpt>
      <trkpt lat="42.75309" lon="0.17254">
        <ele>2056</ele>
        <time>2019-02-27T11:42:32Z</time>
      </trkpt>
      <trkpt lat="42.75311" lon="0.17255">
        <ele>2057</ele>
        <time>2019-02-27T11:42:33Z</time>
      </trkpt>
      <trkpt lat="42.75311" lon="0.17255">
        <ele>2057</ele>
        <time>2019-02-27T11:42:34Z</time>
      </trkpt>
      <trkpt lat="42.75313" lon="0.17253">
        <ele>2057</ele>
        <time>2019-02-27T11:42:35Z</time>
      </trkpt>
      <trkpt lat="42.75315" lon="0.17252">
        <ele>2056</ele>
        <time>2019-02-27T11:42:36Z</time>
      </trkpt>
      <trkpt lat="42.75318" lon="0.17253">
        <ele>2056</ele>
        <time>2019-02-27T11:42:37Z</time>
      </trkpt>
      <trkpt lat="42.7532" lon="0.17254">
        <ele>2056</ele>
        <time>2019-02-27T11:42:38Z</time>
      </trkpt>
      <trkpt lat="42.75321" lon="0.17256">
        <ele>2056</ele>
        <time>2019-02-27T11:42:39Z</time>
      </trkpt>
      <trkpt lat="42.75323" lon="0.17257">
        <ele>2056</ele>
        <time>2019-02-27T11:42:41Z</time>
      </trkpt>
      <trkpt lat="42.75325" lon="0.17258">
        <ele>2056</ele>
        <time>2019-02-27T11:42:42Z</time>
      </trkpt>
      <trkpt lat="42.75328" lon="0.17258">
        <ele>2056</ele>
        <time>2019-02-27T11:42:43Z</time>
      </trkpt>
      <trkpt lat="42.75332" lon="0.17258">
        <ele>2056</ele>
        <time>2019-02-27T11:42:44Z</time>
      </trkpt>
      <trkpt lat="42.75335" lon="0.17258">
        <ele>2056</ele>
        <time>2019-02-27T11:42:45Z</time>
      </trkpt>
      <trkpt lat="42.75338" lon="0.17258">
        <ele>2055</ele>
        <time>2019-02-27T11:42:46Z</time>
      </trkpt>
      <trkpt lat="42.7534" lon="0.17258">
        <ele>2055</ele>
        <time>2019-02-27T11:42:47Z</time>
      </trkpt>
      <trkpt lat="42.75342" lon="0.17259">
        <ele>2055</ele>
        <time>2019-02-27T11:42:48Z</time>
      </trkpt>
      <trkpt lat="42.75344" lon="0.17259">
        <ele>2055</ele>
        <time>2019-02-27T11:42:49Z</time>
      </trkpt>
      <trkpt lat="42.75347" lon="0.1726">
        <ele>2055</ele>
        <time>2019-02-27T11:42:50Z</time>
      </trkpt>
      <trkpt lat="42.7535" lon="0.1726">
        <ele>2055</ele>
        <time>2019-02-27T11:42:51Z</time>
      </trkpt>
      <trkpt lat="42.75352" lon="0.17261">
        <ele>2055</ele>
        <time>2019-02-27T11:42:52Z</time>
      </trkpt>
      <trkpt lat="42.75354" lon="0.17261">
        <ele>2054</ele>
        <time>2019-02-27T11:42:53Z</time>
      </trkpt>
      <trkpt lat="42.75354" lon="0.17261">
        <ele>2054</ele>
        <time>2019-02-27T11:42:54Z</time>
      </trkpt>
      <trkpt lat="42.75356" lon="0.17262">
        <ele>2054</ele>
        <time>2019-02-27T11:42:55Z</time>
      </trkpt>
      <trkpt lat="42.75356" lon="0.17262">
        <ele>2054</ele>
        <time>2019-02-27T11:42:56Z</time>
      </trkpt>
      <trkpt lat="42.75359" lon="0.17263">
        <ele>2054</ele>
        <time>2019-02-27T11:42:57Z</time>
      </trkpt>
      <trkpt lat="42.75359" lon="0.17263">
        <ele>2055</ele>
        <time>2019-02-27T11:42:58Z</time>
      </trkpt>
      <trkpt lat="42.75363" lon="0.17263">
        <ele>2055</ele>
        <time>2019-02-27T11:42:59Z</time>
      </trkpt>
      <trkpt lat="42.75366" lon="0.17263">
        <ele>2055</ele>
        <time>2019-02-27T11:43:00Z</time>
      </trkpt>
      <trkpt lat="42.75369" lon="0.17264">
        <ele>2055</ele>
        <time>2019-02-27T11:43:01Z</time>
      </trkpt>
      <trkpt lat="42.75372" lon="0.17265">
        <ele>2054</ele>
        <time>2019-02-27T11:43:02Z</time>
      </trkpt>
      <trkpt lat="42.75375" lon="0.17267">
        <ele>2053</ele>
        <time>2019-02-27T11:43:03Z</time>
      </trkpt>
      <trkpt lat="42.75378" lon="0.17268">
        <ele>2053</ele>
        <time>2019-02-27T11:43:04Z</time>
      </trkpt>
      <trkpt lat="42.75381" lon="0.17269">
        <ele>2053</ele>
        <time>2019-02-27T11:43:05Z</time>
      </trkpt>
      <trkpt lat="42.75384" lon="0.17271">
        <ele>2052</ele>
        <time>2019-02-27T11:43:06Z</time>
      </trkpt>
      <trkpt lat="42.75386" lon="0.17273">
        <ele>2052</ele>
        <time>2019-02-27T11:43:07Z</time>
      </trkpt>
      <trkpt lat="42.75386" lon="0.17273">
        <ele>2052</ele>
        <time>2019-02-27T11:43:08Z</time>
      </trkpt>
      <trkpt lat="42.75386" lon="0.17273">
        <ele>2052</ele>
        <time>2019-02-27T11:43:09Z</time>
      </trkpt>
      <trkpt lat="42.75386" lon="0.17273">
        <ele>2052</ele>
        <time>2019-02-27T11:43:10Z</time>
      </trkpt>
      <trkpt lat="42.75386" lon="0.17273">
        <ele>2052</ele>
        <time>2019-02-27T11:43:11Z</time>
      </trkpt>
      <trkpt lat="42.75386" lon="0.17273">
        <ele>2052</ele>
        <time>2019-02-27T11:43:12Z</time>
      </trkpt>
      <trkpt lat="42.75386" lon="0.17273">
        <ele>2052</ele>
        <time>2019-02-27T11:43:13Z</time>
      </trkpt>
      <trkpt lat="42.75386" lon="0.17273">
        <ele>2052</ele>
        <time>2019-02-27T11:43:14Z</time>
      </trkpt>
      <trkpt lat="42.75386" lon="0.17273">
        <ele>2052</ele>
        <time>2019-02-27T11:43:15Z</time>
      </trkpt>
      <trkpt lat="42.75386" lon="0.17273">
        <ele>2052</ele>
        <time>2019-02-27T11:43:16Z</time>
      </trkpt>
      <trkpt lat="42.75386" lon="0.17273">
        <ele>2052</ele>
        <time>2019-02-27T11:43:17Z</time>
      </trkpt>
      <trkpt lat="42.75386" lon="0.17273">
        <ele>2052</ele>
        <time>2019-02-27T11:43:18Z</time>
      </trkpt>
      <trkpt lat="42.75386" lon="0.17273">
        <ele>2052</ele>
        <time>2019-02-27T11:43:19Z</time>
      </trkpt>
      <trkpt lat="42.75386" lon="0.17273">
        <ele>2052</ele>
        <time>2019-02-27T11:43:20Z</time>
      </trkpt>
      <trkpt lat="42.75386" lon="0.17273">
        <ele>2052</ele>
        <time>2019-02-27T11:43:21Z</time>
      </trkpt>
      <trkpt lat="42.75386" lon="0.17273">
        <ele>2052</ele>
        <time>2019-02-27T11:43:22Z</time>
      </trkpt>
      <trkpt lat="42.75386" lon="0.17273">
        <ele>2052</ele>
        <time>2019-02-27T11:43:23Z</time>
      </trkpt>
      <trkpt lat="42.75386" lon="0.17273">
        <ele>2052</ele>
        <time>2019-02-27T11:43:24Z</time>
      </trkpt>
      <trkpt lat="42.75386" lon="0.17273">
        <ele>2052</ele>
        <time>2019-02-27T11:43:25Z</time>
      </trkpt>
      <trkpt lat="42.75386" lon="0.17273">
        <ele>2052</ele>
        <time>2019-02-27T11:43:26Z</time>
      </trkpt>
      <trkpt lat="42.75386" lon="0.17273">
        <ele>2052</ele>
        <time>2019-02-27T11:43:27Z</time>
      </trkpt>
      <trkpt lat="42.75386" lon="0.17273">
        <ele>2052</ele>
        <time>2019-02-27T11:43:28Z</time>
      </trkpt>
      <trkpt lat="42.75386" lon="0.17273">
        <ele>2052</ele>
        <time>2019-02-27T11:43:29Z</time>
      </trkpt>
      <trkpt lat="42.75386" lon="0.17273">
        <ele>2052</ele>
        <time>2019-02-27T11:43:30Z</time>
      </trkpt>
      <trkpt lat="42.75386" lon="0.17273">
        <ele>2052</ele>
        <time>2019-02-27T11:43:31Z</time>
      </trkpt>
      <trkpt lat="42.75386" lon="0.17273">
        <ele>2052</ele>
        <time>2019-02-27T11:43:32Z</time>
      </trkpt>
      <trkpt lat="42.75386" lon="0.17273">
        <ele>2052</ele>
        <time>2019-02-27T11:43:33Z</time>
      </trkpt>
      <trkpt lat="42.75386" lon="0.17273">
        <ele>2052</ele>
        <time>2019-02-27T11:43:34Z</time>
      </trkpt>
      <trkpt lat="42.75386" lon="0.17273">
        <ele>2052</ele>
        <time>2019-02-27T11:43:35Z</time>
      </trkpt>
      <trkpt lat="42.75386" lon="0.17273">
        <ele>2052</ele>
        <time>2019-02-27T11:43:36Z</time>
      </trkpt>
      <trkpt lat="42.75386" lon="0.17273">
        <ele>2052</ele>
        <time>2019-02-27T11:43:37Z</time>
      </trkpt>
      <trkpt lat="42.75386" lon="0.17273">
        <ele>2052</ele>
        <time>2019-02-27T11:43:38Z</time>
      </trkpt>
      <trkpt lat="42.75386" lon="0.17273">
        <ele>2052</ele>
        <time>2019-02-27T11:43:39Z</time>
      </trkpt>
      <trkpt lat="42.75386" lon="0.17273">
        <ele>2052</ele>
        <time>2019-02-27T11:43:40Z</time>
      </trkpt>
      <trkpt lat="42.75386" lon="0.17273">
        <ele>2052</ele>
        <time>2019-02-27T11:43:41Z</time>
      </trkpt>
      <trkpt lat="42.75386" lon="0.17273">
        <ele>2052</ele>
        <time>2019-02-27T11:43:42Z</time>
      </trkpt>
      <trkpt lat="42.75386" lon="0.17273">
        <ele>2052</ele>
        <time>2019-02-27T11:43:43Z</time>
      </trkpt>
      <trkpt lat="42.75386" lon="0.17273">
        <ele>2052</ele>
        <time>2019-02-27T11:43:44Z</time>
      </trkpt>
      <trkpt lat="42.75386" lon="0.17273">
        <ele>2052</ele>
        <time>2019-02-27T11:43:45Z</time>
      </trkpt>
      <trkpt lat="42.75386" lon="0.17273">
        <ele>2052</ele>
        <time>2019-02-27T11:43:46Z</time>
      </trkpt>
      <trkpt lat="42.75386" lon="0.17273">
        <ele>2052</ele>
        <time>2019-02-27T11:43:47Z</time>
      </trkpt>
      <trkpt lat="42.75386" lon="0.17273">
        <ele>2052</ele>
        <time>2019-02-27T11:43:48Z</time>
      </trkpt>
      <trkpt lat="42.75386" lon="0.17273">
        <ele>2052</ele>
        <time>2019-02-27T11:43:49Z</time>
      </trkpt>
      <trkpt lat="42.75386" lon="0.17273">
        <ele>2052</ele>
        <time>2019-02-27T11:43:50Z</time>
      </trkpt>
      <trkpt lat="42.75386" lon="0.17273">
        <ele>2052</ele>
        <time>2019-02-27T11:43:51Z</time>
      </trkpt>
      <trkpt lat="42.75386" lon="0.17273">
        <ele>2052</ele>
        <time>2019-02-27T11:43:52Z</time>
      </trkpt>
      <trkpt lat="42.75386" lon="0.17273">
        <ele>2052</ele>
        <time>2019-02-27T11:43:53Z</time>
      </trkpt>
      <trkpt lat="42.75386" lon="0.17273">
        <ele>2052</ele>
        <time>2019-02-27T11:43:54Z</time>
      </trkpt>
      <trkpt lat="42.75386" lon="0.17273">
        <ele>2052</ele>
        <time>2019-02-27T11:43:55Z</time>
      </trkpt>
      <trkpt lat="42.75386" lon="0.17273">
        <ele>2052</ele>
        <time>2019-02-27T11:43:56Z</time>
      </trkpt>
      <trkpt lat="42.75386" lon="0.17273">
        <ele>2052</ele>
        <time>2019-02-27T11:43:57Z</time>
      </trkpt>
      <trkpt lat="42.75386" lon="0.17273">
        <ele>2052</ele>
        <time>2019-02-27T11:43:58Z</time>
      </trkpt>
      <trkpt lat="42.75386" lon="0.17273">
        <ele>2052</ele>
        <time>2019-02-27T11:43:59Z</time>
      </trkpt>
      <trkpt lat="42.75386" lon="0.17273">
        <ele>2052</ele>
        <time>2019-02-27T11:44:00Z</time>
      </trkpt>
      <trkpt lat="42.75386" lon="0.17273">
        <ele>2052</ele>
        <time>2019-02-27T11:44:01Z</time>
      </trkpt>
      <trkpt lat="42.75386" lon="0.17273">
        <ele>2052</ele>
        <time>2019-02-27T11:44:02Z</time>
      </trkpt>
      <trkpt lat="42.75386" lon="0.17273">
        <ele>2052</ele>
        <time>2019-02-27T11:44:03Z</time>
      </trkpt>
      <trkpt lat="42.75386" lon="0.17273">
        <ele>2052</ele>
        <time>2019-02-27T11:44:04Z</time>
      </trkpt>
      <trkpt lat="42.75386" lon="0.17273">
        <ele>2052</ele>
        <time>2019-02-27T11:44:05Z</time>
      </trkpt>
      <trkpt lat="42.75386" lon="0.17273">
        <ele>2052</ele>
        <time>2019-02-27T11:44:06Z</time>
      </trkpt>
      <trkpt lat="42.75386" lon="0.17273">
        <ele>2052</ele>
        <time>2019-02-27T11:44:07Z</time>
      </trkpt>
      <trkpt lat="42.75386" lon="0.17273">
        <ele>2052</ele>
        <time>2019-02-27T11:44:08Z</time>
      </trkpt>
      <trkpt lat="42.75386" lon="0.17273">
        <ele>2052</ele>
        <time>2019-02-27T11:44:09Z</time>
      </trkpt>
      <trkpt lat="42.75386" lon="0.17273">
        <ele>2052</ele>
        <time>2019-02-27T11:44:10Z</time>
      </trkpt>
      <trkpt lat="42.75386" lon="0.17273">
        <ele>2052</ele>
        <time>2019-02-27T11:44:11Z</time>
      </trkpt>
      <trkpt lat="42.75386" lon="0.17273">
        <ele>2052</ele>
        <time>2019-02-27T11:44:12Z</time>
      </trkpt>
      <trkpt lat="42.75386" lon="0.17273">
        <ele>2052</ele>
        <time>2019-02-27T11:44:13Z</time>
      </trkpt>
      <trkpt lat="42.75386" lon="0.17273">
        <ele>2052</ele>
        <time>2019-02-27T11:44:14Z</time>
      </trkpt>
      <trkpt lat="42.75386" lon="0.17273">
        <ele>2052</ele>
        <time>2019-02-27T11:44:15Z</time>
      </trkpt>
      <trkpt lat="42.75386" lon="0.17273">
        <ele>2052</ele>
        <time>2019-02-27T11:44:16Z</time>
      </trkpt>
      <trkpt lat="42.75386" lon="0.17273">
        <ele>2052</ele>
        <time>2019-02-27T11:44:17Z</time>
      </trkpt>
      <trkpt lat="42.75386" lon="0.17273">
        <ele>2052</ele>
        <time>2019-02-27T11:44:18Z</time>
      </trkpt>
      <trkpt lat="42.75386" lon="0.17273">
        <ele>2052</ele>
        <time>2019-02-27T11:44:19Z</time>
      </trkpt>
      <trkpt lat="42.75386" lon="0.17273">
        <ele>2052</ele>
        <time>2019-02-27T11:44:20Z</time>
      </trkpt>
      <trkpt lat="42.75386" lon="0.17273">
        <ele>2052</ele>
        <time>2019-02-27T11:44:21Z</time>
      </trkpt>
      <trkpt lat="42.75386" lon="0.17273">
        <ele>2052</ele>
        <time>2019-02-27T11:44:22Z</time>
      </trkpt>
      <trkpt lat="42.75386" lon="0.17273">
        <ele>2052</ele>
        <time>2019-02-27T11:44:23Z</time>
      </trkpt>
      <trkpt lat="42.75386" lon="0.17273">
        <ele>2052</ele>
        <time>2019-02-27T11:44:24Z</time>
      </trkpt>
      <trkpt lat="42.75386" lon="0.17273">
        <ele>2052</ele>
        <time>2019-02-27T11:44:25Z</time>
      </trkpt>
      <trkpt lat="42.75386" lon="0.17273">
        <ele>2052</ele>
        <time>2019-02-27T11:44:26Z</time>
      </trkpt>
      <trkpt lat="42.75386" lon="0.17273">
        <ele>2052</ele>
        <time>2019-02-27T11:44:27Z</time>
      </trkpt>
      <trkpt lat="42.75386" lon="0.17273">
        <ele>2052</ele>
        <time>2019-02-27T11:44:28Z</time>
      </trkpt>
      <trkpt lat="42.75386" lon="0.17273">
        <ele>2052</ele>
        <time>2019-02-27T11:44:29Z</time>
      </trkpt>
      <trkpt lat="42.75386" lon="0.17273">
        <ele>2052</ele>
        <time>2019-02-27T11:44:30Z</time>
      </trkpt>
      <trkpt lat="42.75386" lon="0.17273">
        <ele>2052</ele>
        <time>2019-02-27T11:44:31Z</time>
      </trkpt>
      <trkpt lat="42.75386" lon="0.17273">
        <ele>2052</ele>
        <time>2019-02-27T11:44:32Z</time>
      </trkpt>
      <trkpt lat="42.75386" lon="0.17273">
        <ele>2052</ele>
        <time>2019-02-27T11:44:33Z</time>
      </trkpt>
      <trkpt lat="42.75386" lon="0.17273">
        <ele>2052</ele>
        <time>2019-02-27T11:44:34Z</time>
      </trkpt>
      <trkpt lat="42.75386" lon="0.17273">
        <ele>2052</ele>
        <time>2019-02-27T11:44:35Z</time>
      </trkpt>
      <trkpt lat="42.75386" lon="0.17273">
        <ele>2052</ele>
        <time>2019-02-27T11:44:36Z</time>
      </trkpt>
      <trkpt lat="42.75387" lon="0.17275">
        <ele>2052</ele>
        <time>2019-02-27T11:44:37Z</time>
      </trkpt>
      <trkpt lat="42.75387" lon="0.17275">
        <ele>2052</ele>
        <time>2019-02-27T11:44:38Z</time>
      </trkpt>
      <trkpt lat="42.75389" lon="0.17279">
        <ele>2052</ele>
        <time>2019-02-27T11:44:39Z</time>
      </trkpt>
      <trkpt lat="42.75391" lon="0.17282">
        <ele>2051</ele>
        <time>2019-02-27T11:44:40Z</time>
      </trkpt>
      <trkpt lat="42.75392" lon="0.17287">
        <ele>2050</ele>
        <time>2019-02-27T11:44:41Z</time>
      </trkpt>
      <trkpt lat="42.75391" lon="0.17292">
        <ele>2049</ele>
        <time>2019-02-27T11:44:42Z</time>
      </trkpt>
      <trkpt lat="42.75391" lon="0.17295">
        <ele>2049</ele>
        <time>2019-02-27T11:44:43Z</time>
      </trkpt>
      <trkpt lat="42.75393" lon="0.17298">
        <ele>2048</ele>
        <time>2019-02-27T11:44:44Z</time>
      </trkpt>
      <trkpt lat="42.75395" lon="0.17299">
        <ele>2047</ele>
        <time>2019-02-27T11:44:45Z</time>
      </trkpt>
      <trkpt lat="42.75397" lon="0.17299">
        <ele>2046</ele>
        <time>2019-02-27T11:44:46Z</time>
      </trkpt>
      <trkpt lat="42.75397" lon="0.17299">
        <ele>2045</ele>
        <time>2019-02-27T11:44:47Z</time>
      </trkpt>
      <trkpt lat="42.754" lon="0.17298">
        <ele>2045</ele>
        <time>2019-02-27T11:44:48Z</time>
      </trkpt>
      <trkpt lat="42.75401" lon="0.17299">
        <ele>2045</ele>
        <time>2019-02-27T11:44:49Z</time>
      </trkpt>
      <trkpt lat="42.75404" lon="0.17302">
        <ele>2045</ele>
        <time>2019-02-27T11:44:50Z</time>
      </trkpt>
      <trkpt lat="42.75405" lon="0.17307">
        <ele>2042</ele>
        <time>2019-02-27T11:44:51Z</time>
      </trkpt>
      <trkpt lat="42.75406" lon="0.17314">
        <ele>2040</ele>
        <time>2019-02-27T11:44:52Z</time>
      </trkpt>
      <trkpt lat="42.75408" lon="0.17323">
        <ele>2036</ele>
        <time>2019-02-27T11:44:53Z</time>
      </trkpt>
      <trkpt lat="42.75411" lon="0.1733">
        <ele>2035</ele>
        <time>2019-02-27T11:44:54Z</time>
      </trkpt>
      <trkpt lat="42.75415" lon="0.17335">
        <ele>2035</ele>
        <time>2019-02-27T11:44:55Z</time>
      </trkpt>
      <trkpt lat="42.75415" lon="0.17335">
        <ele>2035</ele>
        <time>2019-02-27T11:44:56Z</time>
      </trkpt>
      <trkpt lat="42.75421" lon="0.17335">
        <ele>2035</ele>
        <time>2019-02-27T11:44:57Z</time>
      </trkpt>
      <trkpt lat="42.75421" lon="0.17335">
        <ele>2036</ele>
        <time>2019-02-27T11:44:58Z</time>
      </trkpt>
      <trkpt lat="42.75421" lon="0.17335">
        <ele>2036</ele>
        <time>2019-02-27T11:44:59Z</time>
      </trkpt>
      <trkpt lat="42.75421" lon="0.17335">
        <ele>2036</ele>
        <time>2019-02-27T11:45:00Z</time>
      </trkpt>
      <trkpt lat="42.75421" lon="0.17335">
        <ele>2036</ele>
        <time>2019-02-27T11:45:01Z</time>
      </trkpt>
      <trkpt lat="42.75425" lon="0.17332">
        <ele>2036</ele>
        <time>2019-02-27T11:45:02Z</time>
      </trkpt>
      <trkpt lat="42.75425" lon="0.17332">
        <ele>2036</ele>
        <time>2019-02-27T11:45:03Z</time>
      </trkpt>
      <trkpt lat="42.75425" lon="0.17332">
        <ele>2036</ele>
        <time>2019-02-27T11:45:04Z</time>
      </trkpt>
      <trkpt lat="42.75425" lon="0.17332">
        <ele>2036</ele>
        <time>2019-02-27T11:45:05Z</time>
      </trkpt>
      <trkpt lat="42.75425" lon="0.17332">
        <ele>2036</ele>
        <time>2019-02-27T11:45:06Z</time>
      </trkpt>
      <trkpt lat="42.75425" lon="0.17332">
        <ele>2036</ele>
        <time>2019-02-27T11:45:07Z</time>
      </trkpt>
      <trkpt lat="42.75425" lon="0.17332">
        <ele>2037</ele>
        <time>2019-02-27T11:45:08Z</time>
      </trkpt>
      <trkpt lat="42.75425" lon="0.17332">
        <ele>2037</ele>
        <time>2019-02-27T11:45:09Z</time>
      </trkpt>
      <trkpt lat="42.75425" lon="0.17332">
        <ele>2037</ele>
        <time>2019-02-27T11:45:10Z</time>
      </trkpt>
      <trkpt lat="42.75425" lon="0.17332">
        <ele>2037</ele>
        <time>2019-02-27T11:45:11Z</time>
      </trkpt>
      <trkpt lat="42.75425" lon="0.17332">
        <ele>2038</ele>
        <time>2019-02-27T11:45:12Z</time>
      </trkpt>
      <trkpt lat="42.75425" lon="0.17332">
        <ele>2038</ele>
        <time>2019-02-27T11:45:13Z</time>
      </trkpt>
      <trkpt lat="42.75425" lon="0.17332">
        <ele>2038</ele>
        <time>2019-02-27T11:45:14Z</time>
      </trkpt>
      <trkpt lat="42.75425" lon="0.17332">
        <ele>2038</ele>
        <time>2019-02-27T11:45:15Z</time>
      </trkpt>
      <trkpt lat="42.75425" lon="0.17332">
        <ele>2038</ele>
        <time>2019-02-27T11:45:16Z</time>
      </trkpt>
      <trkpt lat="42.75425" lon="0.17332">
        <ele>2038</ele>
        <time>2019-02-27T11:45:17Z</time>
      </trkpt>
      <trkpt lat="42.75425" lon="0.17332">
        <ele>2038</ele>
        <time>2019-02-27T11:45:18Z</time>
      </trkpt>
      <trkpt lat="42.75425" lon="0.17332">
        <ele>2038</ele>
        <time>2019-02-27T11:45:19Z</time>
      </trkpt>
      <trkpt lat="42.75426" lon="0.17333">
        <ele>2038</ele>
        <time>2019-02-27T11:45:20Z</time>
      </trkpt>
      <trkpt lat="42.75426" lon="0.17333">
        <ele>2038</ele>
        <time>2019-02-27T11:45:21Z</time>
      </trkpt>
      <trkpt lat="42.75426" lon="0.17333">
        <ele>2038</ele>
        <time>2019-02-27T11:45:22Z</time>
      </trkpt>
      <trkpt lat="42.75426" lon="0.17333">
        <ele>2038</ele>
        <time>2019-02-27T11:45:23Z</time>
      </trkpt>
      <trkpt lat="42.75426" lon="0.17333">
        <ele>2040</ele>
        <time>2019-02-27T11:45:24Z</time>
      </trkpt>
      <trkpt lat="42.75426" lon="0.17333">
        <ele>2040</ele>
        <time>2019-02-27T11:45:25Z</time>
      </trkpt>
      <trkpt lat="42.75426" lon="0.17333">
        <ele>2040</ele>
        <time>2019-02-27T11:45:26Z</time>
      </trkpt>
      <trkpt lat="42.75426" lon="0.17333">
        <ele>2040</ele>
        <time>2019-02-27T11:45:27Z</time>
      </trkpt>
      <trkpt lat="42.75426" lon="0.17333">
        <ele>2040</ele>
        <time>2019-02-27T11:45:28Z</time>
      </trkpt>
      <trkpt lat="42.75426" lon="0.17333">
        <ele>2040</ele>
        <time>2019-02-27T11:45:29Z</time>
      </trkpt>
      <trkpt lat="42.75426" lon="0.17333">
        <ele>2040</ele>
        <time>2019-02-27T11:45:30Z</time>
      </trkpt>
      <trkpt lat="42.75426" lon="0.17333">
        <ele>2040</ele>
        <time>2019-02-27T11:45:31Z</time>
      </trkpt>
      <trkpt lat="42.75426" lon="0.17333">
        <ele>2040</ele>
        <time>2019-02-27T11:45:32Z</time>
      </trkpt>
      <trkpt lat="42.75426" lon="0.17333">
        <ele>2038</ele>
        <time>2019-02-27T11:45:33Z</time>
      </trkpt>
      <trkpt lat="42.75426" lon="0.17333">
        <ele>2038</ele>
        <time>2019-02-27T11:45:34Z</time>
      </trkpt>
      <trkpt lat="42.75426" lon="0.17333">
        <ele>2038</ele>
        <time>2019-02-27T11:45:35Z</time>
      </trkpt>
      <trkpt lat="42.75428" lon="0.17333">
        <ele>2038</ele>
        <time>2019-02-27T11:45:36Z</time>
      </trkpt>
      <trkpt lat="42.75428" lon="0.17333">
        <ele>2038</ele>
        <time>2019-02-27T11:45:37Z</time>
      </trkpt>
      <trkpt lat="42.75431" lon="0.17331">
        <ele>2038</ele>
        <time>2019-02-27T11:45:38Z</time>
      </trkpt>
      <trkpt lat="42.75431" lon="0.17331">
        <ele>2038</ele>
        <time>2019-02-27T11:45:39Z</time>
      </trkpt>
      <trkpt lat="42.75433" lon="0.1733">
        <ele>2038</ele>
        <time>2019-02-27T11:45:40Z</time>
      </trkpt>
      <trkpt lat="42.75433" lon="0.1733">
        <ele>2038</ele>
        <time>2019-02-27T11:45:41Z</time>
      </trkpt>
      <trkpt lat="42.75433" lon="0.1733">
        <ele>2038</ele>
        <time>2019-02-27T11:45:42Z</time>
      </trkpt>
      <trkpt lat="42.75436" lon="0.17329">
        <ele>2038</ele>
        <time>2019-02-27T11:45:43Z</time>
      </trkpt>
      <trkpt lat="42.75436" lon="0.17329">
        <ele>2037</ele>
        <time>2019-02-27T11:45:44Z</time>
      </trkpt>
      <trkpt lat="42.75438" lon="0.17328">
        <ele>2037</ele>
        <time>2019-02-27T11:45:45Z</time>
      </trkpt>
      <trkpt lat="42.75438" lon="0.17328">
        <ele>2037</ele>
        <time>2019-02-27T11:45:46Z</time>
      </trkpt>
      <trkpt lat="42.7544" lon="0.17328">
        <ele>2038</ele>
        <time>2019-02-27T11:45:47Z</time>
      </trkpt>
      <trkpt lat="42.7544" lon="0.17328">
        <ele>2038</ele>
        <time>2019-02-27T11:45:48Z</time>
      </trkpt>
      <trkpt lat="42.7544" lon="0.17328">
        <ele>2038</ele>
        <time>2019-02-27T11:45:49Z</time>
      </trkpt>
      <trkpt lat="42.7544" lon="0.17328">
        <ele>2038</ele>
        <time>2019-02-27T11:45:50Z</time>
      </trkpt>
      <trkpt lat="42.7544" lon="0.17328">
        <ele>2038</ele>
        <time>2019-02-27T11:45:51Z</time>
      </trkpt>
      <trkpt lat="42.7544" lon="0.17328">
        <ele>2038</ele>
        <time>2019-02-27T11:45:52Z</time>
      </trkpt>
      <trkpt lat="42.7544" lon="0.17328">
        <ele>2038</ele>
        <time>2019-02-27T11:45:53Z</time>
      </trkpt>
      <trkpt lat="42.7544" lon="0.17328">
        <ele>2038</ele>
        <time>2019-02-27T11:45:54Z</time>
      </trkpt>
      <trkpt lat="42.7544" lon="0.17328">
        <ele>2038</ele>
        <time>2019-02-27T11:45:55Z</time>
      </trkpt>
      <trkpt lat="42.7544" lon="0.17328">
        <ele>2037</ele>
        <time>2019-02-27T11:45:56Z</time>
      </trkpt>
      <trkpt lat="42.7544" lon="0.17328">
        <ele>2038</ele>
        <time>2019-02-27T11:45:57Z</time>
      </trkpt>
      <trkpt lat="42.7544" lon="0.17328">
        <ele>2038</ele>
        <time>2019-02-27T11:45:58Z</time>
      </trkpt>
      <trkpt lat="42.7544" lon="0.17328">
        <ele>2037</ele>
        <time>2019-02-27T11:45:59Z</time>
      </trkpt>
      <trkpt lat="42.7544" lon="0.17328">
        <ele>2037</ele>
        <time>2019-02-27T11:46:00Z</time>
      </trkpt>
      <trkpt lat="42.7544" lon="0.17328">
        <ele>2037</ele>
        <time>2019-02-27T11:46:01Z</time>
      </trkpt>
      <trkpt lat="42.7544" lon="0.17328">
        <ele>2037</ele>
        <time>2019-02-27T11:46:02Z</time>
      </trkpt>
      <trkpt lat="42.7544" lon="0.17328">
        <ele>2037</ele>
        <time>2019-02-27T11:46:03Z</time>
      </trkpt>
      <trkpt lat="42.7544" lon="0.17328">
        <ele>2037</ele>
        <time>2019-02-27T11:46:04Z</time>
      </trkpt>
      <trkpt lat="42.7544" lon="0.17328">
        <ele>2037</ele>
        <time>2019-02-27T11:46:05Z</time>
      </trkpt>
      <trkpt lat="42.7544" lon="0.17328">
        <ele>2037</ele>
        <time>2019-02-27T11:46:06Z</time>
      </trkpt>
      <trkpt lat="42.7544" lon="0.17328">
        <ele>2037</ele>
        <time>2019-02-27T11:46:07Z</time>
      </trkpt>
      <trkpt lat="42.7544" lon="0.17328">
        <ele>2037</ele>
        <time>2019-02-27T11:46:08Z</time>
      </trkpt>
      <trkpt lat="42.7544" lon="0.17328">
        <ele>2037</ele>
        <time>2019-02-27T11:46:09Z</time>
      </trkpt>
      <trkpt lat="42.7544" lon="0.17328">
        <ele>2037</ele>
        <time>2019-02-27T11:46:10Z</time>
      </trkpt>
      <trkpt lat="42.7544" lon="0.17328">
        <ele>2037</ele>
        <time>2019-02-27T11:46:11Z</time>
      </trkpt>
      <trkpt lat="42.7544" lon="0.17328">
        <ele>2037</ele>
        <time>2019-02-27T11:46:12Z</time>
      </trkpt>
      <trkpt lat="42.7544" lon="0.17328">
        <ele>2037</ele>
        <time>2019-02-27T11:46:13Z</time>
      </trkpt>
      <trkpt lat="42.7544" lon="0.17328">
        <ele>2037</ele>
        <time>2019-02-27T11:46:14Z</time>
      </trkpt>
      <trkpt lat="42.7544" lon="0.17328">
        <ele>2038</ele>
        <time>2019-02-27T11:46:15Z</time>
      </trkpt>
      <trkpt lat="42.7544" lon="0.17328">
        <ele>2038</ele>
        <time>2019-02-27T11:46:16Z</time>
      </trkpt>
      <trkpt lat="42.7544" lon="0.17328">
        <ele>2038</ele>
        <time>2019-02-27T11:46:17Z</time>
      </trkpt>
      <trkpt lat="42.7544" lon="0.17328">
        <ele>2038</ele>
        <time>2019-02-27T11:46:18Z</time>
      </trkpt>
      <trkpt lat="42.7544" lon="0.17328">
        <ele>2038</ele>
        <time>2019-02-27T11:46:19Z</time>
      </trkpt>
      <trkpt lat="42.7544" lon="0.17328">
        <ele>2038</ele>
        <time>2019-02-27T11:46:20Z</time>
      </trkpt>
      <trkpt lat="42.7544" lon="0.17328">
        <ele>2038</ele>
        <time>2019-02-27T11:46:21Z</time>
      </trkpt>
      <trkpt lat="42.7544" lon="0.17328">
        <ele>2038</ele>
        <time>2019-02-27T11:46:22Z</time>
      </trkpt>
      <trkpt lat="42.7544" lon="0.17328">
        <ele>2038</ele>
        <time>2019-02-27T11:46:23Z</time>
      </trkpt>
      <trkpt lat="42.7544" lon="0.17328">
        <ele>2038</ele>
        <time>2019-02-27T11:46:24Z</time>
      </trkpt>
      <trkpt lat="42.7544" lon="0.17328">
        <ele>2038</ele>
        <time>2019-02-27T11:46:25Z</time>
      </trkpt>
      <trkpt lat="42.7544" lon="0.17328">
        <ele>2038</ele>
        <time>2019-02-27T11:46:26Z</time>
      </trkpt>
      <trkpt lat="42.7544" lon="0.17328">
        <ele>2038</ele>
        <time>2019-02-27T11:46:27Z</time>
      </trkpt>
      <trkpt lat="42.7544" lon="0.17328">
        <ele>2038</ele>
        <time>2019-02-27T11:46:28Z</time>
      </trkpt>
      <trkpt lat="42.7544" lon="0.17328">
        <ele>2038</ele>
        <time>2019-02-27T11:46:29Z</time>
      </trkpt>
      <trkpt lat="42.7544" lon="0.17328">
        <ele>2038</ele>
        <time>2019-02-27T11:46:30Z</time>
      </trkpt>
      <trkpt lat="42.7544" lon="0.17328">
        <ele>2038</ele>
        <time>2019-02-27T11:46:31Z</time>
      </trkpt>
      <trkpt lat="42.7544" lon="0.17328">
        <ele>2038</ele>
        <time>2019-02-27T11:46:32Z</time>
      </trkpt>
      <trkpt lat="42.7544" lon="0.17328">
        <ele>2038</ele>
        <time>2019-02-27T11:46:33Z</time>
      </trkpt>
      <trkpt lat="42.7544" lon="0.17328">
        <ele>2038</ele>
        <time>2019-02-27T11:46:34Z</time>
      </trkpt>
      <trkpt lat="42.7544" lon="0.17328">
        <ele>2038</ele>
        <time>2019-02-27T11:46:35Z</time>
      </trkpt>
      <trkpt lat="42.7544" lon="0.17328">
        <ele>2038</ele>
        <time>2019-02-27T11:46:36Z</time>
      </trkpt>
      <trkpt lat="42.7544" lon="0.17328">
        <ele>2038</ele>
        <time>2019-02-27T11:46:37Z</time>
      </trkpt>
      <trkpt lat="42.7544" lon="0.17328">
        <ele>2038</ele>
        <time>2019-02-27T11:46:38Z</time>
      </trkpt>
      <trkpt lat="42.7544" lon="0.17328">
        <ele>2038</ele>
        <time>2019-02-27T11:46:39Z</time>
      </trkpt>
      <trkpt lat="42.7544" lon="0.17328">
        <ele>2037</ele>
        <time>2019-02-27T11:46:40Z</time>
      </trkpt>
      <trkpt lat="42.7544" lon="0.17328">
        <ele>2037</ele>
        <time>2019-02-27T11:46:41Z</time>
      </trkpt>
      <trkpt lat="42.7544" lon="0.17328">
        <ele>2037</ele>
        <time>2019-02-27T11:46:42Z</time>
      </trkpt>
      <trkpt lat="42.7544" lon="0.17328">
        <ele>2037</ele>
        <time>2019-02-27T11:46:43Z</time>
      </trkpt>
      <trkpt lat="42.7544" lon="0.17328">
        <ele>2037</ele>
        <time>2019-02-27T11:46:44Z</time>
      </trkpt>
      <trkpt lat="42.7544" lon="0.17328">
        <ele>2037</ele>
        <time>2019-02-27T11:46:45Z</time>
      </trkpt>
      <trkpt lat="42.7544" lon="0.17328">
        <ele>2038</ele>
        <time>2019-02-27T11:46:46Z</time>
      </trkpt>
      <trkpt lat="42.7544" lon="0.17328">
        <ele>2038</ele>
        <time>2019-02-27T11:46:47Z</time>
      </trkpt>
      <trkpt lat="42.7544" lon="0.17328">
        <ele>2038</ele>
        <time>2019-02-27T11:46:48Z</time>
      </trkpt>
      <trkpt lat="42.7544" lon="0.17328">
        <ele>2038</ele>
        <time>2019-02-27T11:46:49Z</time>
      </trkpt>
      <trkpt lat="42.7544" lon="0.17328">
        <ele>2038</ele>
        <time>2019-02-27T11:46:50Z</time>
      </trkpt>
      <trkpt lat="42.7544" lon="0.17328">
        <ele>2038</ele>
        <time>2019-02-27T11:46:51Z</time>
      </trkpt>
      <trkpt lat="42.7544" lon="0.17328">
        <ele>2038</ele>
        <time>2019-02-27T11:46:52Z</time>
      </trkpt>
      <trkpt lat="42.7544" lon="0.17328">
        <ele>2038</ele>
        <time>2019-02-27T11:46:53Z</time>
      </trkpt>
      <trkpt lat="42.7544" lon="0.17328">
        <ele>2038</ele>
        <time>2019-02-27T11:46:54Z</time>
      </trkpt>
      <trkpt lat="42.7544" lon="0.17328">
        <ele>2038</ele>
        <time>2019-02-27T11:46:55Z</time>
      </trkpt>
      <trkpt lat="42.7544" lon="0.17328">
        <ele>2038</ele>
        <time>2019-02-27T11:46:56Z</time>
      </trkpt>
      <trkpt lat="42.7544" lon="0.17328">
        <ele>2039</ele>
        <time>2019-02-27T11:46:57Z</time>
      </trkpt>
      <trkpt lat="42.7544" lon="0.17328">
        <ele>2039</ele>
        <time>2019-02-27T11:46:58Z</time>
      </trkpt>
      <trkpt lat="42.7544" lon="0.17328">
        <ele>2038</ele>
        <time>2019-02-27T11:46:59Z</time>
      </trkpt>
      <trkpt lat="42.7544" lon="0.17328">
        <ele>2038</ele>
        <time>2019-02-27T11:47:00Z</time>
      </trkpt>
      <trkpt lat="42.7544" lon="0.17328">
        <ele>2038</ele>
        <time>2019-02-27T11:47:01Z</time>
      </trkpt>
      <trkpt lat="42.7544" lon="0.17328">
        <ele>2038</ele>
        <time>2019-02-27T11:47:02Z</time>
      </trkpt>
      <trkpt lat="42.7544" lon="0.17328">
        <ele>2038</ele>
        <time>2019-02-27T11:47:03Z</time>
      </trkpt>
      <trkpt lat="42.7544" lon="0.17328">
        <ele>2038</ele>
        <time>2019-02-27T11:47:04Z</time>
      </trkpt>
      <trkpt lat="42.7544" lon="0.17328">
        <ele>2038</ele>
        <time>2019-02-27T11:47:05Z</time>
      </trkpt>
      <trkpt lat="42.7544" lon="0.17328">
        <ele>2038</ele>
        <time>2019-02-27T11:47:06Z</time>
      </trkpt>
      <trkpt lat="42.7544" lon="0.17328">
        <ele>2038</ele>
        <time>2019-02-27T11:47:07Z</time>
      </trkpt>
      <trkpt lat="42.7544" lon="0.17328">
        <ele>2038</ele>
        <time>2019-02-27T11:47:08Z</time>
      </trkpt>
      <trkpt lat="42.7544" lon="0.17328">
        <ele>2038</ele>
        <time>2019-02-27T11:47:09Z</time>
      </trkpt>
      <trkpt lat="42.7544" lon="0.17328">
        <ele>2038</ele>
        <time>2019-02-27T11:47:10Z</time>
      </trkpt>
      <trkpt lat="42.7544" lon="0.17328">
        <ele>2038</ele>
        <time>2019-02-27T11:47:11Z</time>
      </trkpt>
      <trkpt lat="42.7544" lon="0.17328">
        <ele>2038</ele>
        <time>2019-02-27T11:47:12Z</time>
      </trkpt>
      <trkpt lat="42.7544" lon="0.17328">
        <ele>2038</ele>
        <time>2019-02-27T11:47:13Z</time>
      </trkpt>
      <trkpt lat="42.7544" lon="0.17328">
        <ele>2038</ele>
        <time>2019-02-27T11:47:14Z</time>
      </trkpt>
      <trkpt lat="42.7544" lon="0.17328">
        <ele>2038</ele>
        <time>2019-02-27T11:47:15Z</time>
      </trkpt>
      <trkpt lat="42.7544" lon="0.17328">
        <ele>2038</ele>
        <time>2019-02-27T11:47:16Z</time>
      </trkpt>
      <trkpt lat="42.7544" lon="0.17328">
        <ele>2038</ele>
        <time>2019-02-27T11:47:17Z</time>
      </trkpt>
      <trkpt lat="42.7544" lon="0.17328">
        <ele>2038</ele>
        <time>2019-02-27T11:47:18Z</time>
      </trkpt>
      <trkpt lat="42.7544" lon="0.17328">
        <ele>2038</ele>
        <time>2019-02-27T11:47:19Z</time>
      </trkpt>
      <trkpt lat="42.7544" lon="0.17328">
        <ele>2038</ele>
        <time>2019-02-27T11:47:20Z</time>
      </trkpt>
      <trkpt lat="42.7544" lon="0.17328">
        <ele>2038</ele>
        <time>2019-02-27T11:47:21Z</time>
      </trkpt>
      <trkpt lat="42.7544" lon="0.17328">
        <ele>2038</ele>
        <time>2019-02-27T11:47:22Z</time>
      </trkpt>
      <trkpt lat="42.7544" lon="0.17328">
        <ele>2038</ele>
        <time>2019-02-27T11:47:23Z</time>
      </trkpt>
      <trkpt lat="42.75441" lon="0.17326">
        <ele>2038</ele>
        <time>2019-02-27T11:47:24Z</time>
      </trkpt>
      <trkpt lat="42.75441" lon="0.17326">
        <ele>2039</ele>
        <time>2019-02-27T11:47:25Z</time>
      </trkpt>
      <trkpt lat="42.75441" lon="0.17326">
        <ele>2039</ele>
        <time>2019-02-27T11:47:26Z</time>
      </trkpt>
      <trkpt lat="42.75441" lon="0.17326">
        <ele>2039</ele>
        <time>2019-02-27T11:47:27Z</time>
      </trkpt>
      <trkpt lat="42.75441" lon="0.17326">
        <ele>2039</ele>
        <time>2019-02-27T11:47:28Z</time>
      </trkpt>
      <trkpt lat="42.75444" lon="0.17327">
        <ele>2038</ele>
        <time>2019-02-27T11:47:29Z</time>
      </trkpt>
      <trkpt lat="42.75446" lon="0.17328">
        <ele>2038</ele>
        <time>2019-02-27T11:47:30Z</time>
      </trkpt>
      <trkpt lat="42.75448" lon="0.17329">
        <ele>2038</ele>
        <time>2019-02-27T11:47:31Z</time>
      </trkpt>
      <trkpt lat="42.75451" lon="0.1733">
        <ele>2037</ele>
        <time>2019-02-27T11:47:32Z</time>
      </trkpt>
      <trkpt lat="42.75454" lon="0.17331">
        <ele>2037</ele>
        <time>2019-02-27T11:47:33Z</time>
      </trkpt>
      <trkpt lat="42.75458" lon="0.17333">
        <ele>2037</ele>
        <time>2019-02-27T11:47:34Z</time>
      </trkpt>
      <trkpt lat="42.75463" lon="0.17335">
        <ele>2036</ele>
        <time>2019-02-27T11:47:35Z</time>
      </trkpt>
      <trkpt lat="42.75469" lon="0.17337">
        <ele>2035</ele>
        <time>2019-02-27T11:47:36Z</time>
      </trkpt>
      <trkpt lat="42.75474" lon="0.17337">
        <ele>2034</ele>
        <time>2019-02-27T11:47:37Z</time>
      </trkpt>
      <trkpt lat="42.75478" lon="0.17336">
        <ele>2034</ele>
        <time>2019-02-27T11:47:38Z</time>
      </trkpt>
      <trkpt lat="42.75482" lon="0.17336">
        <ele>2034</ele>
        <time>2019-02-27T11:47:39Z</time>
      </trkpt>
      <trkpt lat="42.75485" lon="0.17336">
        <ele>2034</ele>
        <time>2019-02-27T11:47:40Z</time>
      </trkpt>
      <trkpt lat="42.75487" lon="0.17336">
        <ele>2035</ele>
        <time>2019-02-27T11:47:41Z</time>
      </trkpt>
      <trkpt lat="42.75489" lon="0.17336">
        <ele>2035</ele>
        <time>2019-02-27T11:47:42Z</time>
      </trkpt>
      <trkpt lat="42.75491" lon="0.17336">
        <ele>2035</ele>
        <time>2019-02-27T11:47:43Z</time>
      </trkpt>
      <trkpt lat="42.75493" lon="0.17336">
        <ele>2035</ele>
        <time>2019-02-27T11:47:44Z</time>
      </trkpt>
      <trkpt lat="42.75496" lon="0.17337">
        <ele>2035</ele>
        <time>2019-02-27T11:47:45Z</time>
      </trkpt>
      <trkpt lat="42.75498" lon="0.17337">
        <ele>2035</ele>
        <time>2019-02-27T11:47:46Z</time>
      </trkpt>
      <trkpt lat="42.75501" lon="0.17337">
        <ele>2035</ele>
        <time>2019-02-27T11:47:47Z</time>
      </trkpt>
      <trkpt lat="42.75504" lon="0.17338">
        <ele>2035</ele>
        <time>2019-02-27T11:47:48Z</time>
      </trkpt>
      <trkpt lat="42.75508" lon="0.17338">
        <ele>2034</ele>
        <time>2019-02-27T11:47:49Z</time>
      </trkpt>
      <trkpt lat="42.75511" lon="0.17339">
        <ele>2033</ele>
        <time>2019-02-27T11:47:50Z</time>
      </trkpt>
      <trkpt lat="42.75515" lon="0.1734">
        <ele>2033</ele>
        <time>2019-02-27T11:47:51Z</time>
      </trkpt>
      <trkpt lat="42.7552" lon="0.17342">
        <ele>2032</ele>
        <time>2019-02-27T11:47:52Z</time>
      </trkpt>
      <trkpt lat="42.75523" lon="0.17343">
        <ele>2031</ele>
        <time>2019-02-27T11:47:53Z</time>
      </trkpt>
      <trkpt lat="42.75526" lon="0.17345">
        <ele>2031</ele>
        <time>2019-02-27T11:47:54Z</time>
      </trkpt>
      <trkpt lat="42.7553" lon="0.17345">
        <ele>2031</ele>
        <time>2019-02-27T11:47:55Z</time>
      </trkpt>
      <trkpt lat="42.75534" lon="0.17346">
        <ele>2031</ele>
        <time>2019-02-27T11:47:56Z</time>
      </trkpt>
      <trkpt lat="42.75537" lon="0.17347">
        <ele>2031</ele>
        <time>2019-02-27T11:47:57Z</time>
      </trkpt>
      <trkpt lat="42.75541" lon="0.17347">
        <ele>2031</ele>
        <time>2019-02-27T11:47:58Z</time>
      </trkpt>
      <trkpt lat="42.75544" lon="0.17348">
        <ele>2031</ele>
        <time>2019-02-27T11:47:59Z</time>
      </trkpt>
      <trkpt lat="42.75546" lon="0.17348">
        <ele>2031</ele>
        <time>2019-02-27T11:48:00Z</time>
      </trkpt>
      <trkpt lat="42.75548" lon="0.17348">
        <ele>2032</ele>
        <time>2019-02-27T11:48:01Z</time>
      </trkpt>
      <trkpt lat="42.75548" lon="0.17348">
        <ele>2032</ele>
        <time>2019-02-27T11:48:02Z</time>
      </trkpt>
      <trkpt lat="42.75552" lon="0.17348">
        <ele>2032</ele>
        <time>2019-02-27T11:48:03Z</time>
      </trkpt>
      <trkpt lat="42.75554" lon="0.17349">
        <ele>2032</ele>
        <time>2019-02-27T11:48:04Z</time>
      </trkpt>
      <trkpt lat="42.75556" lon="0.17349">
        <ele>2031</ele>
        <time>2019-02-27T11:48:05Z</time>
      </trkpt>
      <trkpt lat="42.75558" lon="0.17349">
        <ele>2031</ele>
        <time>2019-02-27T11:48:06Z</time>
      </trkpt>
      <trkpt lat="42.75561" lon="0.17349">
        <ele>2031</ele>
        <time>2019-02-27T11:48:07Z</time>
      </trkpt>
      <trkpt lat="42.75564" lon="0.17349">
        <ele>2031</ele>
        <time>2019-02-27T11:48:08Z</time>
      </trkpt>
      <trkpt lat="42.75566" lon="0.17349">
        <ele>2031</ele>
        <time>2019-02-27T11:48:09Z</time>
      </trkpt>
      <trkpt lat="42.75569" lon="0.1735">
        <ele>2031</ele>
        <time>2019-02-27T11:48:10Z</time>
      </trkpt>
      <trkpt lat="42.75571" lon="0.1735">
        <ele>2031</ele>
        <time>2019-02-27T11:48:11Z</time>
      </trkpt>
      <trkpt lat="42.75574" lon="0.17351">
        <ele>2031</ele>
        <time>2019-02-27T11:48:12Z</time>
      </trkpt>
      <trkpt lat="42.75576" lon="0.17351">
        <ele>2031</ele>
        <time>2019-02-27T11:48:13Z</time>
      </trkpt>
      <trkpt lat="42.75578" lon="0.17352">
        <ele>2031</ele>
        <time>2019-02-27T11:48:14Z</time>
      </trkpt>
      <trkpt lat="42.75581" lon="0.17353">
        <ele>2031</ele>
        <time>2019-02-27T11:48:15Z</time>
      </trkpt>
      <trkpt lat="42.75583" lon="0.17354">
        <ele>2031</ele>
        <time>2019-02-27T11:48:16Z</time>
      </trkpt>
      <trkpt lat="42.75585" lon="0.17355">
        <ele>2031</ele>
        <time>2019-02-27T11:48:17Z</time>
      </trkpt>
      <trkpt lat="42.75587" lon="0.17355">
        <ele>2031</ele>
        <time>2019-02-27T11:48:18Z</time>
      </trkpt>
      <trkpt lat="42.75589" lon="0.17356">
        <ele>2031</ele>
        <time>2019-02-27T11:48:19Z</time>
      </trkpt>
      <trkpt lat="42.75591" lon="0.17357">
        <ele>2031</ele>
        <time>2019-02-27T11:48:20Z</time>
      </trkpt>
      <trkpt lat="42.75593" lon="0.17358">
        <ele>2030</ele>
        <time>2019-02-27T11:48:21Z</time>
      </trkpt>
      <trkpt lat="42.75595" lon="0.17358">
        <ele>2030</ele>
        <time>2019-02-27T11:48:22Z</time>
      </trkpt>
      <trkpt lat="42.75597" lon="0.17359">
        <ele>2030</ele>
        <time>2019-02-27T11:48:23Z</time>
      </trkpt>
      <trkpt lat="42.75599" lon="0.1736">
        <ele>2030</ele>
        <time>2019-02-27T11:48:24Z</time>
      </trkpt>
      <trkpt lat="42.756" lon="0.17362">
        <ele>2030</ele>
        <time>2019-02-27T11:48:25Z</time>
      </trkpt>
      <trkpt lat="42.75602" lon="0.17363">
        <ele>2030</ele>
        <time>2019-02-27T11:48:26Z</time>
      </trkpt>
      <trkpt lat="42.75604" lon="0.17364">
        <ele>2030</ele>
        <time>2019-02-27T11:48:27Z</time>
      </trkpt>
      <trkpt lat="42.75606" lon="0.17366">
        <ele>2030</ele>
        <time>2019-02-27T11:48:28Z</time>
      </trkpt>
      <trkpt lat="42.75606" lon="0.17366">
        <ele>2030</ele>
        <time>2019-02-27T11:48:29Z</time>
      </trkpt>
      <trkpt lat="42.75608" lon="0.17368">
        <ele>2030</ele>
        <time>2019-02-27T11:48:30Z</time>
      </trkpt>
      <trkpt lat="42.75608" lon="0.17368">
        <ele>2030</ele>
        <time>2019-02-27T11:48:31Z</time>
      </trkpt>
      <trkpt lat="42.75608" lon="0.17368">
        <ele>2030</ele>
        <time>2019-02-27T11:48:32Z</time>
      </trkpt>
      <trkpt lat="42.75609" lon="0.17371">
        <ele>2030</ele>
        <time>2019-02-27T11:48:33Z</time>
      </trkpt>
      <trkpt lat="42.75609" lon="0.17371">
        <ele>2030</ele>
        <time>2019-02-27T11:48:34Z</time>
      </trkpt>
      <trkpt lat="42.75609" lon="0.17371">
        <ele>2030</ele>
        <time>2019-02-27T11:48:35Z</time>
      </trkpt>
      <trkpt lat="42.75609" lon="0.17371">
        <ele>2030</ele>
        <time>2019-02-27T11:48:36Z</time>
      </trkpt>
      <trkpt lat="42.75609" lon="0.17371">
        <ele>2030</ele>
        <time>2019-02-27T11:48:37Z</time>
      </trkpt>
      <trkpt lat="42.75609" lon="0.17371">
        <ele>2029</ele>
        <time>2019-02-27T11:48:38Z</time>
      </trkpt>
      <trkpt lat="42.75609" lon="0.17371">
        <ele>2029</ele>
        <time>2019-02-27T11:48:39Z</time>
      </trkpt>
      <trkpt lat="42.75609" lon="0.17371">
        <ele>2029</ele>
        <time>2019-02-27T11:48:40Z</time>
      </trkpt>
      <trkpt lat="42.75609" lon="0.17371">
        <ele>2029</ele>
        <time>2019-02-27T11:48:41Z</time>
      </trkpt>
      <trkpt lat="42.75609" lon="0.17371">
        <ele>2029</ele>
        <time>2019-02-27T11:48:42Z</time>
      </trkpt>
      <trkpt lat="42.75609" lon="0.17371">
        <ele>2029</ele>
        <time>2019-02-27T11:48:43Z</time>
      </trkpt>
      <trkpt lat="42.75609" lon="0.17371">
        <ele>2029</ele>
        <time>2019-02-27T11:48:44Z</time>
      </trkpt>
      <trkpt lat="42.75609" lon="0.17371">
        <ele>2029</ele>
        <time>2019-02-27T11:48:45Z</time>
      </trkpt>
      <trkpt lat="42.75609" lon="0.17371">
        <ele>2029</ele>
        <time>2019-02-27T11:48:46Z</time>
      </trkpt>
      <trkpt lat="42.75609" lon="0.17371">
        <ele>2029</ele>
        <time>2019-02-27T11:48:47Z</time>
      </trkpt>
      <trkpt lat="42.75609" lon="0.17371">
        <ele>2029</ele>
        <time>2019-02-27T11:48:48Z</time>
      </trkpt>
      <trkpt lat="42.75609" lon="0.17371">
        <ele>2029</ele>
        <time>2019-02-27T11:48:49Z</time>
      </trkpt>
      <trkpt lat="42.75609" lon="0.17371">
        <ele>2029</ele>
        <time>2019-02-27T11:48:50Z</time>
      </trkpt>
      <trkpt lat="42.75609" lon="0.17371">
        <ele>2029</ele>
        <time>2019-02-27T11:48:51Z</time>
      </trkpt>
      <trkpt lat="42.75609" lon="0.17371">
        <ele>2029</ele>
        <time>2019-02-27T11:48:52Z</time>
      </trkpt>
      <trkpt lat="42.75609" lon="0.17371">
        <ele>2029</ele>
        <time>2019-02-27T11:48:53Z</time>
      </trkpt>
      <trkpt lat="42.75609" lon="0.17371">
        <ele>2029</ele>
        <time>2019-02-27T11:48:54Z</time>
      </trkpt>
      <trkpt lat="42.75609" lon="0.17371">
        <ele>2029</ele>
        <time>2019-02-27T11:48:55Z</time>
      </trkpt>
      <trkpt lat="42.75609" lon="0.17371">
        <ele>2029</ele>
        <time>2019-02-27T11:48:56Z</time>
      </trkpt>
      <trkpt lat="42.75609" lon="0.17371">
        <ele>2029</ele>
        <time>2019-02-27T11:48:57Z</time>
      </trkpt>
      <trkpt lat="42.75609" lon="0.17371">
        <ele>2029</ele>
        <time>2019-02-27T11:48:58Z</time>
      </trkpt>
      <trkpt lat="42.75609" lon="0.17371">
        <ele>2029</ele>
        <time>2019-02-27T11:48:59Z</time>
      </trkpt>
      <trkpt lat="42.75609" lon="0.17371">
        <ele>2029</ele>
        <time>2019-02-27T11:49:00Z</time>
      </trkpt>
      <trkpt lat="42.75609" lon="0.17371">
        <ele>2029</ele>
        <time>2019-02-27T11:49:01Z</time>
      </trkpt>
      <trkpt lat="42.75609" lon="0.17371">
        <ele>2029</ele>
        <time>2019-02-27T11:49:02Z</time>
      </trkpt>
      <trkpt lat="42.75609" lon="0.17371">
        <ele>2029</ele>
        <time>2019-02-27T11:49:03Z</time>
      </trkpt>
      <trkpt lat="42.75609" lon="0.17371">
        <ele>2029</ele>
        <time>2019-02-27T11:49:04Z</time>
      </trkpt>
      <trkpt lat="42.75609" lon="0.17371">
        <ele>2029</ele>
        <time>2019-02-27T11:49:05Z</time>
      </trkpt>
      <trkpt lat="42.75609" lon="0.17371">
        <ele>2029</ele>
        <time>2019-02-27T11:49:06Z</time>
      </trkpt>
      <trkpt lat="42.75609" lon="0.17371">
        <ele>2029</ele>
        <time>2019-02-27T11:49:07Z</time>
      </trkpt>
      <trkpt lat="42.75609" lon="0.17371">
        <ele>2029</ele>
        <time>2019-02-27T11:49:08Z</time>
      </trkpt>
      <trkpt lat="42.75609" lon="0.17371">
        <ele>2029</ele>
        <time>2019-02-27T11:49:09Z</time>
      </trkpt>
      <trkpt lat="42.75609" lon="0.17371">
        <ele>2029</ele>
        <time>2019-02-27T11:49:10Z</time>
      </trkpt>
      <trkpt lat="42.75609" lon="0.17371">
        <ele>2029</ele>
        <time>2019-02-27T11:49:11Z</time>
      </trkpt>
      <trkpt lat="42.75609" lon="0.17371">
        <ele>2029</ele>
        <time>2019-02-27T11:49:12Z</time>
      </trkpt>
      <trkpt lat="42.75609" lon="0.17371">
        <ele>2029</ele>
        <time>2019-02-27T11:49:13Z</time>
      </trkpt>
      <trkpt lat="42.75609" lon="0.17371">
        <ele>2029</ele>
        <time>2019-02-27T11:49:14Z</time>
      </trkpt>
      <trkpt lat="42.75609" lon="0.17371">
        <ele>2029</ele>
        <time>2019-02-27T11:49:15Z</time>
      </trkpt>
      <trkpt lat="42.75609" lon="0.17371">
        <ele>2029</ele>
        <time>2019-02-27T11:49:16Z</time>
      </trkpt>
      <trkpt lat="42.75609" lon="0.17371">
        <ele>2029</ele>
        <time>2019-02-27T11:49:17Z</time>
      </trkpt>
      <trkpt lat="42.75609" lon="0.17371">
        <ele>2029</ele>
        <time>2019-02-27T11:49:18Z</time>
      </trkpt>
      <trkpt lat="42.75609" lon="0.17371">
        <ele>2029</ele>
        <time>2019-02-27T11:49:19Z</time>
      </trkpt>
      <trkpt lat="42.75609" lon="0.17371">
        <ele>2029</ele>
        <time>2019-02-27T11:49:20Z</time>
      </trkpt>
      <trkpt lat="42.75609" lon="0.17371">
        <ele>2029</ele>
        <time>2019-02-27T11:49:21Z</time>
      </trkpt>
      <trkpt lat="42.75609" lon="0.17371">
        <ele>2029</ele>
        <time>2019-02-27T11:49:22Z</time>
      </trkpt>
      <trkpt lat="42.75609" lon="0.17371">
        <ele>2029</ele>
        <time>2019-02-27T11:49:23Z</time>
      </trkpt>
      <trkpt lat="42.75609" lon="0.17371">
        <ele>2029</ele>
        <time>2019-02-27T11:49:24Z</time>
      </trkpt>
      <trkpt lat="42.75609" lon="0.17371">
        <ele>2029</ele>
        <time>2019-02-27T11:49:25Z</time>
      </trkpt>
      <trkpt lat="42.75609" lon="0.17371">
        <ele>2029</ele>
        <time>2019-02-27T11:49:26Z</time>
      </trkpt>
      <trkpt lat="42.75609" lon="0.17371">
        <ele>2029</ele>
        <time>2019-02-27T11:49:27Z</time>
      </trkpt>
      <trkpt lat="42.75609" lon="0.17371">
        <ele>2029</ele>
        <time>2019-02-27T11:49:28Z</time>
      </trkpt>
      <trkpt lat="42.75609" lon="0.17371">
        <ele>2029</ele>
        <time>2019-02-27T11:49:29Z</time>
      </trkpt>
      <trkpt lat="42.75609" lon="0.17371">
        <ele>2029</ele>
        <time>2019-02-27T11:49:30Z</time>
      </trkpt>
      <trkpt lat="42.75609" lon="0.17371">
        <ele>2029</ele>
        <time>2019-02-27T11:49:31Z</time>
      </trkpt>
      <trkpt lat="42.75609" lon="0.17371">
        <ele>2029</ele>
        <time>2019-02-27T11:49:32Z</time>
      </trkpt>
      <trkpt lat="42.75609" lon="0.17371">
        <ele>2029</ele>
        <time>2019-02-27T11:49:33Z</time>
      </trkpt>
      <trkpt lat="42.75609" lon="0.17371">
        <ele>2029</ele>
        <time>2019-02-27T11:49:34Z</time>
      </trkpt>
      <trkpt lat="42.75609" lon="0.17371">
        <ele>2029</ele>
        <time>2019-02-27T11:49:35Z</time>
      </trkpt>
      <trkpt lat="42.75609" lon="0.17371">
        <ele>2029</ele>
        <time>2019-02-27T11:49:36Z</time>
      </trkpt>
      <trkpt lat="42.75609" lon="0.17371">
        <ele>2029</ele>
        <time>2019-02-27T11:49:37Z</time>
      </trkpt>
      <trkpt lat="42.75609" lon="0.17371">
        <ele>2029</ele>
        <time>2019-02-27T11:49:38Z</time>
      </trkpt>
      <trkpt lat="42.75609" lon="0.17371">
        <ele>2029</ele>
        <time>2019-02-27T11:49:39Z</time>
      </trkpt>
      <trkpt lat="42.75609" lon="0.17371">
        <ele>2029</ele>
        <time>2019-02-27T11:49:40Z</time>
      </trkpt>
      <trkpt lat="42.75609" lon="0.17371">
        <ele>2029</ele>
        <time>2019-02-27T11:49:41Z</time>
      </trkpt>
      <trkpt lat="42.75609" lon="0.17371">
        <ele>2029</ele>
        <time>2019-02-27T11:49:42Z</time>
      </trkpt>
      <trkpt lat="42.75609" lon="0.17371">
        <ele>2029</ele>
        <time>2019-02-27T11:49:43Z</time>
      </trkpt>
      <trkpt lat="42.75609" lon="0.17371">
        <ele>2029</ele>
        <time>2019-02-27T11:49:44Z</time>
      </trkpt>
      <trkpt lat="42.75609" lon="0.17371">
        <ele>2029</ele>
        <time>2019-02-27T11:49:45Z</time>
      </trkpt>
      <trkpt lat="42.75609" lon="0.17371">
        <ele>2029</ele>
        <time>2019-02-27T11:49:46Z</time>
      </trkpt>
      <trkpt lat="42.75609" lon="0.17371">
        <ele>2029</ele>
        <time>2019-02-27T11:49:47Z</time>
      </trkpt>
      <trkpt lat="42.75609" lon="0.17371">
        <ele>2029</ele>
        <time>2019-02-27T11:49:48Z</time>
      </trkpt>
      <trkpt lat="42.75609" lon="0.17371">
        <ele>2029</ele>
        <time>2019-02-27T11:49:49Z</time>
      </trkpt>
      <trkpt lat="42.75609" lon="0.17371">
        <ele>2029</ele>
        <time>2019-02-27T11:49:50Z</time>
      </trkpt>
      <trkpt lat="42.75609" lon="0.17371">
        <ele>2029</ele>
        <time>2019-02-27T11:49:51Z</time>
      </trkpt>
      <trkpt lat="42.75609" lon="0.17371">
        <ele>2029</ele>
        <time>2019-02-27T11:49:52Z</time>
      </trkpt>
      <trkpt lat="42.75609" lon="0.17371">
        <ele>2029</ele>
        <time>2019-02-27T11:49:53Z</time>
      </trkpt>
      <trkpt lat="42.75609" lon="0.17371">
        <ele>2029</ele>
        <time>2019-02-27T11:49:54Z</time>
      </trkpt>
      <trkpt lat="42.75609" lon="0.17371">
        <ele>2029</ele>
        <time>2019-02-27T11:49:55Z</time>
      </trkpt>
      <trkpt lat="42.75609" lon="0.17371">
        <ele>2029</ele>
        <time>2019-02-27T11:49:56Z</time>
      </trkpt>
      <trkpt lat="42.75609" lon="0.17371">
        <ele>2029</ele>
        <time>2019-02-27T11:49:57Z</time>
      </trkpt>
      <trkpt lat="42.75609" lon="0.17371">
        <ele>2029</ele>
        <time>2019-02-27T11:49:58Z</time>
      </trkpt>
      <trkpt lat="42.75609" lon="0.17371">
        <ele>2029</ele>
        <time>2019-02-27T11:49:59Z</time>
      </trkpt>
      <trkpt lat="42.75609" lon="0.17371">
        <ele>2029</ele>
        <time>2019-02-27T11:50:00Z</time>
      </trkpt>
      <trkpt lat="42.75609" lon="0.17371">
        <ele>2029</ele>
        <time>2019-02-27T11:50:01Z</time>
      </trkpt>
      <trkpt lat="42.75609" lon="0.17371">
        <ele>2029</ele>
        <time>2019-02-27T11:50:02Z</time>
      </trkpt>
      <trkpt lat="42.75609" lon="0.17371">
        <ele>2029</ele>
        <time>2019-02-27T11:50:03Z</time>
      </trkpt>
      <trkpt lat="42.75609" lon="0.17371">
        <ele>2029</ele>
        <time>2019-02-27T11:50:04Z</time>
      </trkpt>
      <trkpt lat="42.75609" lon="0.17371">
        <ele>2029</ele>
        <time>2019-02-27T11:50:05Z</time>
      </trkpt>
      <trkpt lat="42.75609" lon="0.17371">
        <ele>2029</ele>
        <time>2019-02-27T11:50:06Z</time>
      </trkpt>
      <trkpt lat="42.75609" lon="0.17371">
        <ele>2029</ele>
        <time>2019-02-27T11:50:07Z</time>
      </trkpt>
      <trkpt lat="42.75609" lon="0.17371">
        <ele>2029</ele>
        <time>2019-02-27T11:50:08Z</time>
      </trkpt>
      <trkpt lat="42.75609" lon="0.17371">
        <ele>2029</ele>
        <time>2019-02-27T11:50:09Z</time>
      </trkpt>
      <trkpt lat="42.75609" lon="0.17371">
        <ele>2029</ele>
        <time>2019-02-27T11:50:10Z</time>
      </trkpt>
      <trkpt lat="42.75609" lon="0.17371">
        <ele>2029</ele>
        <time>2019-02-27T11:50:11Z</time>
      </trkpt>
      <trkpt lat="42.75609" lon="0.17371">
        <ele>2029</ele>
        <time>2019-02-27T11:50:12Z</time>
      </trkpt>
      <trkpt lat="42.75609" lon="0.17371">
        <ele>2029</ele>
        <time>2019-02-27T11:50:13Z</time>
      </trkpt>
      <trkpt lat="42.75609" lon="0.17371">
        <ele>2029</ele>
        <time>2019-02-27T11:50:14Z</time>
      </trkpt>
      <trkpt lat="42.75609" lon="0.17371">
        <ele>2029</ele>
        <time>2019-02-27T11:50:15Z</time>
      </trkpt>
      <trkpt lat="42.75609" lon="0.17371">
        <ele>2029</ele>
        <time>2019-02-27T11:50:16Z</time>
      </trkpt>
      <trkpt lat="42.75609" lon="0.17371">
        <ele>2029</ele>
        <time>2019-02-27T11:50:17Z</time>
      </trkpt>
      <trkpt lat="42.75609" lon="0.17371">
        <ele>2029</ele>
        <time>2019-02-27T11:50:18Z</time>
      </trkpt>
      <trkpt lat="42.75609" lon="0.17371">
        <ele>2029</ele>
        <time>2019-02-27T11:50:19Z</time>
      </trkpt>
      <trkpt lat="42.75609" lon="0.17371">
        <ele>2029</ele>
        <time>2019-02-27T11:50:20Z</time>
      </trkpt>
      <trkpt lat="42.75609" lon="0.17371">
        <ele>2029</ele>
        <time>2019-02-27T11:50:21Z</time>
      </trkpt>
      <trkpt lat="42.75609" lon="0.17371">
        <ele>2029</ele>
        <time>2019-02-27T11:50:22Z</time>
      </trkpt>
      <trkpt lat="42.75609" lon="0.17371">
        <ele>2029</ele>
        <time>2019-02-27T11:50:23Z</time>
      </trkpt>
      <trkpt lat="42.75609" lon="0.17371">
        <ele>2029</ele>
        <time>2019-02-27T11:50:24Z</time>
      </trkpt>
      <trkpt lat="42.75609" lon="0.17371">
        <ele>2029</ele>
        <time>2019-02-27T11:50:25Z</time>
      </trkpt>
      <trkpt lat="42.75609" lon="0.17371">
        <ele>2029</ele>
        <time>2019-02-27T11:50:26Z</time>
      </trkpt>
      <trkpt lat="42.75609" lon="0.17371">
        <ele>2029</ele>
        <time>2019-02-27T11:50:27Z</time>
      </trkpt>
      <trkpt lat="42.75609" lon="0.17371">
        <ele>2029</ele>
        <time>2019-02-27T11:50:28Z</time>
      </trkpt>
      <trkpt lat="42.75609" lon="0.17371">
        <ele>2029</ele>
        <time>2019-02-27T11:50:29Z</time>
      </trkpt>
      <trkpt lat="42.75609" lon="0.17371">
        <ele>2029</ele>
        <time>2019-02-27T11:50:30Z</time>
      </trkpt>
      <trkpt lat="42.75609" lon="0.17371">
        <ele>2029</ele>
        <time>2019-02-27T11:50:31Z</time>
      </trkpt>
      <trkpt lat="42.75609" lon="0.17371">
        <ele>2029</ele>
        <time>2019-02-27T11:50:32Z</time>
      </trkpt>
      <trkpt lat="42.75609" lon="0.17371">
        <ele>2029</ele>
        <time>2019-02-27T11:50:33Z</time>
      </trkpt>
      <trkpt lat="42.75609" lon="0.17371">
        <ele>2029</ele>
        <time>2019-02-27T11:50:34Z</time>
      </trkpt>
      <trkpt lat="42.75609" lon="0.17371">
        <ele>2029</ele>
        <time>2019-02-27T11:50:35Z</time>
      </trkpt>
      <trkpt lat="42.75609" lon="0.17371">
        <ele>2029</ele>
        <time>2019-02-27T11:50:36Z</time>
      </trkpt>
      <trkpt lat="42.75609" lon="0.17371">
        <ele>2029</ele>
        <time>2019-02-27T11:50:37Z</time>
      </trkpt>
      <trkpt lat="42.75609" lon="0.17371">
        <ele>2029</ele>
        <time>2019-02-27T11:50:38Z</time>
      </trkpt>
      <trkpt lat="42.75609" lon="0.17371">
        <ele>2029</ele>
        <time>2019-02-27T11:50:39Z</time>
      </trkpt>
      <trkpt lat="42.75609" lon="0.17371">
        <ele>2029</ele>
        <time>2019-02-27T11:50:40Z</time>
      </trkpt>
      <trkpt lat="42.75609" lon="0.17371">
        <ele>2029</ele>
        <time>2019-02-27T11:50:41Z</time>
      </trkpt>
      <trkpt lat="42.75609" lon="0.17371">
        <ele>2029</ele>
        <time>2019-02-27T11:50:42Z</time>
      </trkpt>
      <trkpt lat="42.75609" lon="0.17371">
        <ele>2029</ele>
        <time>2019-02-27T11:50:43Z</time>
      </trkpt>
      <trkpt lat="42.75611" lon="0.17373">
        <ele>2029</ele>
        <time>2019-02-27T11:50:44Z</time>
      </trkpt>
      <trkpt lat="42.75611" lon="0.17373">
        <ele>2029</ele>
        <time>2019-02-27T11:50:45Z</time>
      </trkpt>
      <trkpt lat="42.75611" lon="0.17373">
        <ele>2029</ele>
        <time>2019-02-27T11:50:46Z</time>
      </trkpt>
      <trkpt lat="42.75611" lon="0.17373">
        <ele>2029</ele>
        <time>2019-02-27T11:50:47Z</time>
      </trkpt>
      <trkpt lat="42.75611" lon="0.17373">
        <ele>2029</ele>
        <time>2019-02-27T11:50:48Z</time>
      </trkpt>
      <trkpt lat="42.75611" lon="0.17373">
        <ele>2029</ele>
        <time>2019-02-27T11:50:49Z</time>
      </trkpt>
      <trkpt lat="42.75611" lon="0.17373">
        <ele>2029</ele>
        <time>2019-02-27T11:50:50Z</time>
      </trkpt>
      <trkpt lat="42.75611" lon="0.17373">
        <ele>2029</ele>
        <time>2019-02-27T11:50:51Z</time>
      </trkpt>
      <trkpt lat="42.75611" lon="0.17373">
        <ele>2029</ele>
        <time>2019-02-27T11:50:52Z</time>
      </trkpt>
      <trkpt lat="42.75615" lon="0.17375">
        <ele>2029</ele>
        <time>2019-02-27T11:50:53Z</time>
      </trkpt>
      <trkpt lat="42.75619" lon="0.17377">
        <ele>2028</ele>
        <time>2019-02-27T11:50:54Z</time>
      </trkpt>
      <trkpt lat="42.75622" lon="0.17381">
        <ele>2026</ele>
        <time>2019-02-27T11:50:55Z</time>
      </trkpt>
      <trkpt lat="42.75626" lon="0.17386">
        <ele>2024</ele>
        <time>2019-02-27T11:50:56Z</time>
      </trkpt>
      <trkpt lat="42.7563" lon="0.17391">
        <ele>2023</ele>
        <time>2019-02-27T11:50:57Z</time>
      </trkpt>
      <trkpt lat="42.75633" lon="0.17396">
        <ele>2022</ele>
        <time>2019-02-27T11:50:58Z</time>
      </trkpt>
      <trkpt lat="42.75636" lon="0.174">
        <ele>2022</ele>
        <time>2019-02-27T11:50:59Z</time>
      </trkpt>
      <trkpt lat="42.75639" lon="0.17402">
        <ele>2022</ele>
        <time>2019-02-27T11:51:00Z</time>
      </trkpt>
      <trkpt lat="42.75641" lon="0.17402">
        <ele>2018</ele>
        <time>2019-02-27T11:51:01Z</time>
      </trkpt>
      <trkpt lat="42.75642" lon="0.17398">
        <ele>2018</ele>
        <time>2019-02-27T11:51:02Z</time>
      </trkpt>
      <trkpt lat="42.75644" lon="0.17393">
        <ele>2017</ele>
        <time>2019-02-27T11:51:03Z</time>
      </trkpt>
      <trkpt lat="42.75648" lon="0.17391">
        <ele>2015</ele>
        <time>2019-02-27T11:51:04Z</time>
      </trkpt>
      <trkpt lat="42.75651" lon="0.17387">
        <ele>2012</ele>
        <time>2019-02-27T11:51:05Z</time>
      </trkpt>
      <trkpt lat="42.75654" lon="0.17383">
        <ele>2010</ele>
        <time>2019-02-27T11:51:06Z</time>
      </trkpt>
      <trkpt lat="42.75659" lon="0.17383">
        <ele>2008</ele>
        <time>2019-02-27T11:51:07Z</time>
      </trkpt>
      <trkpt lat="42.75663" lon="0.17387">
        <ele>2007</ele>
        <time>2019-02-27T11:51:08Z</time>
      </trkpt>
      <trkpt lat="42.75665" lon="0.17392">
        <ele>2006</ele>
        <time>2019-02-27T11:51:09Z</time>
      </trkpt>
      <trkpt lat="42.75667" lon="0.17395">
        <ele>2005</ele>
        <time>2019-02-27T11:51:10Z</time>
      </trkpt>
      <trkpt lat="42.75667" lon="0.17395">
        <ele>2005</ele>
        <time>2019-02-27T11:51:11Z</time>
      </trkpt>
      <trkpt lat="42.75669" lon="0.17397">
        <ele>2005</ele>
        <time>2019-02-27T11:51:12Z</time>
      </trkpt>
      <trkpt lat="42.75671" lon="0.17398">
        <ele>2005</ele>
        <time>2019-02-27T11:51:13Z</time>
      </trkpt>
      <trkpt lat="42.75673" lon="0.17399">
        <ele>2004</ele>
        <time>2019-02-27T11:51:14Z</time>
      </trkpt>
      <trkpt lat="42.75675" lon="0.17397">
        <ele>2002</ele>
        <time>2019-02-27T11:51:15Z</time>
      </trkpt>
      <trkpt lat="42.75675" lon="0.17393">
        <ele>2000</ele>
        <time>2019-02-27T11:51:16Z</time>
      </trkpt>
      <trkpt lat="42.75676" lon="0.1739">
        <ele>1999</ele>
        <time>2019-02-27T11:51:17Z</time>
      </trkpt>
      <trkpt lat="42.7568" lon="0.17389">
        <ele>1998</ele>
        <time>2019-02-27T11:51:18Z</time>
      </trkpt>
      <trkpt lat="42.75684" lon="0.17392">
        <ele>1996</ele>
        <time>2019-02-27T11:51:19Z</time>
      </trkpt>
      <trkpt lat="42.75688" lon="0.17395">
        <ele>1995</ele>
        <time>2019-02-27T11:51:20Z</time>
      </trkpt>
      <trkpt lat="42.75691" lon="0.17397">
        <ele>1994</ele>
        <time>2019-02-27T11:51:21Z</time>
      </trkpt>
      <trkpt lat="42.75695" lon="0.17399">
        <ele>1993</ele>
        <time>2019-02-27T11:51:22Z</time>
      </trkpt>
      <trkpt lat="42.75697" lon="0.17397">
        <ele>1989</ele>
        <time>2019-02-27T11:51:23Z</time>
      </trkpt>
      <trkpt lat="42.75701" lon="0.17392">
        <ele>1987</ele>
        <time>2019-02-27T11:51:24Z</time>
      </trkpt>
      <trkpt lat="42.75705" lon="0.1739">
        <ele>1985</ele>
        <time>2019-02-27T11:51:25Z</time>
      </trkpt>
      <trkpt lat="42.75709" lon="0.17389">
        <ele>1983</ele>
        <time>2019-02-27T11:51:26Z</time>
      </trkpt>
      <trkpt lat="42.75713" lon="0.17385">
        <ele>1982</ele>
        <time>2019-02-27T11:51:27Z</time>
      </trkpt>
      <trkpt lat="42.75714" lon="0.1738">
        <ele>1982</ele>
        <time>2019-02-27T11:51:28Z</time>
      </trkpt>
      <trkpt lat="42.75718" lon="0.17378">
        <ele>1980</ele>
        <time>2019-02-27T11:51:29Z</time>
      </trkpt>
      <trkpt lat="42.75721" lon="0.17374">
        <ele>1978</ele>
        <time>2019-02-27T11:51:30Z</time>
      </trkpt>
      <trkpt lat="42.75721" lon="0.17365">
        <ele>1977</ele>
        <time>2019-02-27T11:51:31Z</time>
      </trkpt>
      <trkpt lat="42.75722" lon="0.17358">
        <ele>1976</ele>
        <time>2019-02-27T11:51:32Z</time>
      </trkpt>
      <trkpt lat="42.75724" lon="0.17356">
        <ele>1975</ele>
        <time>2019-02-27T11:51:33Z</time>
      </trkpt>
      <trkpt lat="42.75724" lon="0.17356">
        <ele>1975</ele>
        <time>2019-02-27T11:51:34Z</time>
      </trkpt>
      <trkpt lat="42.75724" lon="0.17356">
        <ele>1975</ele>
        <time>2019-02-27T11:51:35Z</time>
      </trkpt>
      <trkpt lat="42.75724" lon="0.17356">
        <ele>1975</ele>
        <time>2019-02-27T11:51:36Z</time>
      </trkpt>
      <trkpt lat="42.75724" lon="0.17356">
        <ele>1975</ele>
        <time>2019-02-27T11:51:37Z</time>
      </trkpt>
      <trkpt lat="42.75724" lon="0.17356">
        <ele>1975</ele>
        <time>2019-02-27T11:51:38Z</time>
      </trkpt>
      <trkpt lat="42.75724" lon="0.17356">
        <ele>1975</ele>
        <time>2019-02-27T11:51:39Z</time>
      </trkpt>
      <trkpt lat="42.75724" lon="0.17356">
        <ele>1975</ele>
        <time>2019-02-27T11:51:40Z</time>
      </trkpt>
      <trkpt lat="42.75724" lon="0.17356">
        <ele>1975</ele>
        <time>2019-02-27T11:51:41Z</time>
      </trkpt>
      <trkpt lat="42.75724" lon="0.17356">
        <ele>1975</ele>
        <time>2019-02-27T11:51:42Z</time>
      </trkpt>
      <trkpt lat="42.75724" lon="0.17356">
        <ele>1975</ele>
        <time>2019-02-27T11:51:43Z</time>
      </trkpt>
      <trkpt lat="42.75724" lon="0.17356">
        <ele>1975</ele>
        <time>2019-02-27T11:51:44Z</time>
      </trkpt>
      <trkpt lat="42.75724" lon="0.17356">
        <ele>1975</ele>
        <time>2019-02-27T11:51:45Z</time>
      </trkpt>
      <trkpt lat="42.75724" lon="0.17356">
        <ele>1975</ele>
        <time>2019-02-27T11:51:46Z</time>
      </trkpt>
      <trkpt lat="42.75724" lon="0.17356">
        <ele>1975</ele>
        <time>2019-02-27T11:51:47Z</time>
      </trkpt>
      <trkpt lat="42.75724" lon="0.17356">
        <ele>1975</ele>
        <time>2019-02-27T11:51:48Z</time>
      </trkpt>
      <trkpt lat="42.75724" lon="0.17356">
        <ele>1975</ele>
        <time>2019-02-27T11:51:49Z</time>
      </trkpt>
      <trkpt lat="42.75724" lon="0.17356">
        <ele>1975</ele>
        <time>2019-02-27T11:51:50Z</time>
      </trkpt>
      <trkpt lat="42.75724" lon="0.17356">
        <ele>1975</ele>
        <time>2019-02-27T11:51:51Z</time>
      </trkpt>
      <trkpt lat="42.75724" lon="0.17356">
        <ele>1975</ele>
        <time>2019-02-27T11:51:52Z</time>
      </trkpt>
      <trkpt lat="42.75724" lon="0.17356">
        <ele>1975</ele>
        <time>2019-02-27T11:51:53Z</time>
      </trkpt>
      <trkpt lat="42.75724" lon="0.17356">
        <ele>1975</ele>
        <time>2019-02-27T11:51:54Z</time>
      </trkpt>
      <trkpt lat="42.75724" lon="0.17356">
        <ele>1975</ele>
        <time>2019-02-27T11:51:55Z</time>
      </trkpt>
      <trkpt lat="42.75724" lon="0.17356">
        <ele>1975</ele>
        <time>2019-02-27T11:51:56Z</time>
      </trkpt>
      <trkpt lat="42.75724" lon="0.17356">
        <ele>1975</ele>
        <time>2019-02-27T11:51:57Z</time>
      </trkpt>
      <trkpt lat="42.75724" lon="0.17356">
        <ele>1975</ele>
        <time>2019-02-27T11:51:58Z</time>
      </trkpt>
      <trkpt lat="42.75724" lon="0.17356">
        <ele>1975</ele>
        <time>2019-02-27T11:51:59Z</time>
      </trkpt>
      <trkpt lat="42.75724" lon="0.17356">
        <ele>1975</ele>
        <time>2019-02-27T11:52:00Z</time>
      </trkpt>
      <trkpt lat="42.75724" lon="0.17356">
        <ele>1975</ele>
        <time>2019-02-27T11:52:01Z</time>
      </trkpt>
      <trkpt lat="42.75724" lon="0.17356">
        <ele>1975</ele>
        <time>2019-02-27T11:52:02Z</time>
      </trkpt>
      <trkpt lat="42.75724" lon="0.17356">
        <ele>1975</ele>
        <time>2019-02-27T11:52:03Z</time>
      </trkpt>
      <trkpt lat="42.75724" lon="0.17356">
        <ele>1975</ele>
        <time>2019-02-27T11:52:04Z</time>
      </trkpt>
      <trkpt lat="42.75724" lon="0.17356">
        <ele>1975</ele>
        <time>2019-02-27T11:52:05Z</time>
      </trkpt>
      <trkpt lat="42.75724" lon="0.17356">
        <ele>1975</ele>
        <time>2019-02-27T11:52:06Z</time>
      </trkpt>
      <trkpt lat="42.75724" lon="0.17356">
        <ele>1975</ele>
        <time>2019-02-27T11:52:07Z</time>
      </trkpt>
      <trkpt lat="42.75724" lon="0.17356">
        <ele>1975</ele>
        <time>2019-02-27T11:52:08Z</time>
      </trkpt>
      <trkpt lat="42.75724" lon="0.17356">
        <ele>1975</ele>
        <time>2019-02-27T11:52:09Z</time>
      </trkpt>
      <trkpt lat="42.75724" lon="0.17356">
        <ele>1975</ele>
        <time>2019-02-27T11:52:10Z</time>
      </trkpt>
      <trkpt lat="42.75724" lon="0.17356">
        <ele>1975</ele>
        <time>2019-02-27T11:52:11Z</time>
      </trkpt>
      <trkpt lat="42.75724" lon="0.17356">
        <ele>1975</ele>
        <time>2019-02-27T11:52:12Z</time>
      </trkpt>
      <trkpt lat="42.75724" lon="0.17356">
        <ele>1975</ele>
        <time>2019-02-27T11:52:13Z</time>
      </trkpt>
      <trkpt lat="42.75724" lon="0.17356">
        <ele>1975</ele>
        <time>2019-02-27T11:52:14Z</time>
      </trkpt>
      <trkpt lat="42.75724" lon="0.17356">
        <ele>1975</ele>
        <time>2019-02-27T11:52:15Z</time>
      </trkpt>
      <trkpt lat="42.75724" lon="0.17356">
        <ele>1975</ele>
        <time>2019-02-27T11:52:16Z</time>
      </trkpt>
      <trkpt lat="42.75724" lon="0.17356">
        <ele>1975</ele>
        <time>2019-02-27T11:52:17Z</time>
      </trkpt>
      <trkpt lat="42.75724" lon="0.17356">
        <ele>1975</ele>
        <time>2019-02-27T11:52:18Z</time>
      </trkpt>
      <trkpt lat="42.75724" lon="0.17356">
        <ele>1975</ele>
        <time>2019-02-27T11:52:19Z</time>
      </trkpt>
      <trkpt lat="42.75724" lon="0.17356">
        <ele>1975</ele>
        <time>2019-02-27T11:52:20Z</time>
      </trkpt>
      <trkpt lat="42.75724" lon="0.17356">
        <ele>1975</ele>
        <time>2019-02-27T11:52:21Z</time>
      </trkpt>
      <trkpt lat="42.75724" lon="0.17356">
        <ele>1975</ele>
        <time>2019-02-27T11:52:22Z</time>
      </trkpt>
      <trkpt lat="42.75724" lon="0.17356">
        <ele>1975</ele>
        <time>2019-02-27T11:52:23Z</time>
      </trkpt>
      <trkpt lat="42.75724" lon="0.17356">
        <ele>1975</ele>
        <time>2019-02-27T11:52:24Z</time>
      </trkpt>
      <trkpt lat="42.75724" lon="0.17356">
        <ele>1975</ele>
        <time>2019-02-27T11:52:25Z</time>
      </trkpt>
      <trkpt lat="42.75724" lon="0.17356">
        <ele>1975</ele>
        <time>2019-02-27T11:52:26Z</time>
      </trkpt>
      <trkpt lat="42.75724" lon="0.17356">
        <ele>1975</ele>
        <time>2019-02-27T11:52:27Z</time>
      </trkpt>
      <trkpt lat="42.75724" lon="0.17356">
        <ele>1975</ele>
        <time>2019-02-27T11:52:28Z</time>
      </trkpt>
      <trkpt lat="42.75724" lon="0.17356">
        <ele>1975</ele>
        <time>2019-02-27T11:52:29Z</time>
      </trkpt>
      <trkpt lat="42.75724" lon="0.17356">
        <ele>1975</ele>
        <time>2019-02-27T11:52:30Z</time>
      </trkpt>
      <trkpt lat="42.75724" lon="0.17356">
        <ele>1975</ele>
        <time>2019-02-27T11:52:31Z</time>
      </trkpt>
      <trkpt lat="42.75724" lon="0.17356">
        <ele>1975</ele>
        <time>2019-02-27T11:52:32Z</time>
      </trkpt>
      <trkpt lat="42.75724" lon="0.17356">
        <ele>1975</ele>
        <time>2019-02-27T11:52:33Z</time>
      </trkpt>
      <trkpt lat="42.75724" lon="0.17356">
        <ele>1975</ele>
        <time>2019-02-27T11:52:34Z</time>
      </trkpt>
      <trkpt lat="42.75724" lon="0.17356">
        <ele>1975</ele>
        <time>2019-02-27T11:52:35Z</time>
      </trkpt>
      <trkpt lat="42.75724" lon="0.17356">
        <ele>1975</ele>
        <time>2019-02-27T11:52:36Z</time>
      </trkpt>
      <trkpt lat="42.75724" lon="0.17356">
        <ele>1975</ele>
        <time>2019-02-27T11:52:37Z</time>
      </trkpt>
      <trkpt lat="42.75724" lon="0.17356">
        <ele>1975</ele>
        <time>2019-02-27T11:52:38Z</time>
      </trkpt>
      <trkpt lat="42.75724" lon="0.17356">
        <ele>1975</ele>
        <time>2019-02-27T11:52:39Z</time>
      </trkpt>
      <trkpt lat="42.75724" lon="0.17356">
        <ele>1975</ele>
        <time>2019-02-27T11:52:40Z</time>
      </trkpt>
      <trkpt lat="42.75724" lon="0.17356">
        <ele>1975</ele>
        <time>2019-02-27T11:52:41Z</time>
      </trkpt>
      <trkpt lat="42.75724" lon="0.17356">
        <ele>1975</ele>
        <time>2019-02-27T11:52:42Z</time>
      </trkpt>
      <trkpt lat="42.75724" lon="0.17356">
        <ele>1975</ele>
        <time>2019-02-27T11:52:43Z</time>
      </trkpt>
      <trkpt lat="42.75724" lon="0.17356">
        <ele>1975</ele>
        <time>2019-02-27T11:52:44Z</time>
      </trkpt>
      <trkpt lat="42.75724" lon="0.17356">
        <ele>1975</ele>
        <time>2019-02-27T11:52:45Z</time>
      </trkpt>
      <trkpt lat="42.75724" lon="0.17356">
        <ele>1975</ele>
        <time>2019-02-27T11:52:46Z</time>
      </trkpt>
      <trkpt lat="42.75724" lon="0.17356">
        <ele>1975</ele>
        <time>2019-02-27T11:52:47Z</time>
      </trkpt>
      <trkpt lat="42.75724" lon="0.17356">
        <ele>1975</ele>
        <time>2019-02-27T11:52:48Z</time>
      </trkpt>
      <trkpt lat="42.75724" lon="0.17356">
        <ele>1975</ele>
        <time>2019-02-27T11:52:49Z</time>
      </trkpt>
      <trkpt lat="42.75724" lon="0.17356">
        <ele>1975</ele>
        <time>2019-02-27T11:52:50Z</time>
      </trkpt>
      <trkpt lat="42.75724" lon="0.17356">
        <ele>1975</ele>
        <time>2019-02-27T11:52:51Z</time>
      </trkpt>
      <trkpt lat="42.75724" lon="0.17356">
        <ele>1975</ele>
        <time>2019-02-27T11:52:52Z</time>
      </trkpt>
      <trkpt lat="42.75724" lon="0.17356">
        <ele>1975</ele>
        <time>2019-02-27T11:52:53Z</time>
      </trkpt>
      <trkpt lat="42.75724" lon="0.17356">
        <ele>1975</ele>
        <time>2019-02-27T11:52:54Z</time>
      </trkpt>
      <trkpt lat="42.75724" lon="0.17356">
        <ele>1975</ele>
        <time>2019-02-27T11:52:55Z</time>
      </trkpt>
      <trkpt lat="42.75724" lon="0.17356">
        <ele>1975</ele>
        <time>2019-02-27T11:52:56Z</time>
      </trkpt>
      <trkpt lat="42.75724" lon="0.17356">
        <ele>1975</ele>
        <time>2019-02-27T11:52:57Z</time>
      </trkpt>
      <trkpt lat="42.75724" lon="0.17356">
        <ele>1975</ele>
        <time>2019-02-27T11:52:58Z</time>
      </trkpt>
      <trkpt lat="42.75724" lon="0.17356">
        <ele>1975</ele>
        <time>2019-02-27T11:52:59Z</time>
      </trkpt>
      <trkpt lat="42.75724" lon="0.17356">
        <ele>1975</ele>
        <time>2019-02-27T11:53:00Z</time>
      </trkpt>
      <trkpt lat="42.75724" lon="0.17356">
        <ele>1975</ele>
        <time>2019-02-27T11:53:01Z</time>
      </trkpt>
      <trkpt lat="42.75724" lon="0.17356">
        <ele>1975</ele>
        <time>2019-02-27T11:53:02Z</time>
      </trkpt>
      <trkpt lat="42.75724" lon="0.17356">
        <ele>1975</ele>
        <time>2019-02-27T11:53:03Z</time>
      </trkpt>
      <trkpt lat="42.75724" lon="0.17356">
        <ele>1975</ele>
        <time>2019-02-27T11:53:04Z</time>
      </trkpt>
      <trkpt lat="42.75724" lon="0.17356">
        <ele>1975</ele>
        <time>2019-02-27T11:53:05Z</time>
      </trkpt>
      <trkpt lat="42.75724" lon="0.17356">
        <ele>1975</ele>
        <time>2019-02-27T11:53:06Z</time>
      </trkpt>
      <trkpt lat="42.75724" lon="0.17356">
        <ele>1975</ele>
        <time>2019-02-27T11:53:07Z</time>
      </trkpt>
      <trkpt lat="42.75724" lon="0.17356">
        <ele>1975</ele>
        <time>2019-02-27T11:53:08Z</time>
      </trkpt>
      <trkpt lat="42.75723" lon="0.17354">
        <ele>1975</ele>
        <time>2019-02-27T11:53:09Z</time>
      </trkpt>
      <trkpt lat="42.75723" lon="0.17354">
        <ele>1975</ele>
        <time>2019-02-27T11:53:10Z</time>
      </trkpt>
      <trkpt lat="42.75723" lon="0.17354">
        <ele>1975</ele>
        <time>2019-02-27T11:53:11Z</time>
      </trkpt>
      <trkpt lat="42.75723" lon="0.17354">
        <ele>1975</ele>
        <time>2019-02-27T11:53:12Z</time>
      </trkpt>
      <trkpt lat="42.75723" lon="0.17354">
        <ele>1975</ele>
        <time>2019-02-27T11:53:13Z</time>
      </trkpt>
      <trkpt lat="42.75723" lon="0.17354">
        <ele>1975</ele>
        <time>2019-02-27T11:53:14Z</time>
      </trkpt>
      <trkpt lat="42.75723" lon="0.17354">
        <ele>1975</ele>
        <time>2019-02-27T11:53:15Z</time>
      </trkpt>
      <trkpt lat="42.75723" lon="0.17354">
        <ele>1975</ele>
        <time>2019-02-27T11:53:16Z</time>
      </trkpt>
      <trkpt lat="42.75723" lon="0.17354">
        <ele>1975</ele>
        <time>2019-02-27T11:53:17Z</time>
      </trkpt>
      <trkpt lat="42.75723" lon="0.17354">
        <ele>1975</ele>
        <time>2019-02-27T11:53:18Z</time>
      </trkpt>
      <trkpt lat="42.75723" lon="0.17354">
        <ele>1975</ele>
        <time>2019-02-27T11:53:19Z</time>
      </trkpt>
      <trkpt lat="42.75723" lon="0.17354">
        <ele>1975</ele>
        <time>2019-02-27T11:53:20Z</time>
      </trkpt>
      <trkpt lat="42.75723" lon="0.17354">
        <ele>1975</ele>
        <time>2019-02-27T11:53:21Z</time>
      </trkpt>
      <trkpt lat="42.75725" lon="0.17355">
        <ele>1975</ele>
        <time>2019-02-27T11:53:22Z</time>
      </trkpt>
      <trkpt lat="42.75725" lon="0.17355">
        <ele>1975</ele>
        <time>2019-02-27T11:53:23Z</time>
      </trkpt>
      <trkpt lat="42.75725" lon="0.17355">
        <ele>1975</ele>
        <time>2019-02-27T11:53:24Z</time>
      </trkpt>
      <trkpt lat="42.75728" lon="0.17354">
        <ele>1975</ele>
        <time>2019-02-27T11:53:25Z</time>
      </trkpt>
      <trkpt lat="42.75731" lon="0.17351">
        <ele>1975</ele>
        <time>2019-02-27T11:53:26Z</time>
      </trkpt>
      <trkpt lat="42.75731" lon="0.1735">
        <ele>1974.4</ele>
        <time>2019-02-27T11:53:27Z</time>
      </trkpt>
      <trkpt lat="42.75733" lon="0.17346">
        <ele>1974</ele>
        <time>2019-02-27T11:53:28Z</time>
      </trkpt>
      <trkpt lat="42.75736" lon="0.17344">
        <ele>1974</ele>
        <time>2019-02-27T11:53:29Z</time>
      </trkpt>
      <trkpt lat="42.75741" lon="0.17344">
        <ele>1973</ele>
        <time>2019-02-27T11:53:30Z</time>
      </trkpt>
      <trkpt lat="42.75747" lon="0.17345">
        <ele>1971</ele>
        <time>2019-02-27T11:53:31Z</time>
      </trkpt>
      <trkpt lat="42.75753" lon="0.17342">
        <ele>1970</ele>
        <time>2019-02-27T11:53:32Z</time>
      </trkpt>
      <trkpt lat="42.75758" lon="0.17341">
        <ele>1969</ele>
        <time>2019-02-27T11:53:33Z</time>
      </trkpt>
      <trkpt lat="42.75763" lon="0.1734">
        <ele>1967</ele>
        <time>2019-02-27T11:53:34Z</time>
      </trkpt>
      <trkpt lat="42.75768" lon="0.17337">
        <ele>1966</ele>
        <time>2019-02-27T11:53:35Z</time>
      </trkpt>
      <trkpt lat="42.75773" lon="0.17335">
        <ele>1964</ele>
        <time>2019-02-27T11:53:36Z</time>
      </trkpt>
      <trkpt lat="42.75777" lon="0.17333">
        <ele>1964</ele>
        <time>2019-02-27T11:53:37Z</time>
      </trkpt>
      <trkpt lat="42.75781" lon="0.17328">
        <ele>1964</ele>
        <time>2019-02-27T11:53:38Z</time>
      </trkpt>
      <trkpt lat="42.75785" lon="0.17325">
        <ele>1962</ele>
        <time>2019-02-27T11:53:39Z</time>
      </trkpt>
      <trkpt lat="42.7579" lon="0.17327">
        <ele>1961</ele>
        <time>2019-02-27T11:53:40Z</time>
      </trkpt>
      <trkpt lat="42.75794" lon="0.17329">
        <ele>1960</ele>
        <time>2019-02-27T11:53:41Z</time>
      </trkpt>
      <trkpt lat="42.75796" lon="0.17331">
        <ele>1960</ele>
        <time>2019-02-27T11:53:42Z</time>
      </trkpt>
      <trkpt lat="42.75798" lon="0.17332">
        <ele>1961</ele>
        <time>2019-02-27T11:53:43Z</time>
      </trkpt>
      <trkpt lat="42.75801" lon="0.17333">
        <ele>1961</ele>
        <time>2019-02-27T11:53:44Z</time>
      </trkpt>
      <trkpt lat="42.75803" lon="0.17334">
        <ele>1961</ele>
        <time>2019-02-27T11:53:45Z</time>
      </trkpt>
      <trkpt lat="42.75806" lon="0.17335">
        <ele>1961</ele>
        <time>2019-02-27T11:53:46Z</time>
      </trkpt>
      <trkpt lat="42.7581" lon="0.17336">
        <ele>1961</ele>
        <time>2019-02-27T11:53:47Z</time>
      </trkpt>
      <trkpt lat="42.75814" lon="0.17338">
        <ele>1960</ele>
        <time>2019-02-27T11:53:48Z</time>
      </trkpt>
      <trkpt lat="42.75819" lon="0.1734">
        <ele>1959</ele>
        <time>2019-02-27T11:53:49Z</time>
      </trkpt>
      <trkpt lat="42.75823" lon="0.17342">
        <ele>1958</ele>
        <time>2019-02-27T11:53:50Z</time>
      </trkpt>
      <trkpt lat="42.75826" lon="0.17342">
        <ele>1948</ele>
        <time>2019-02-27T11:53:51Z</time>
      </trkpt>
      <trkpt lat="42.75827" lon="0.17336">
        <ele>1946</ele>
        <time>2019-02-27T11:53:52Z</time>
      </trkpt>
      <trkpt lat="42.7583" lon="0.17329">
        <ele>1947</ele>
        <time>2019-02-27T11:53:53Z</time>
      </trkpt>
      <trkpt lat="42.75834" lon="0.17321">
        <ele>1946</ele>
        <time>2019-02-27T11:53:54Z</time>
      </trkpt>
      <trkpt lat="42.7584" lon="0.17313">
        <ele>1944</ele>
        <time>2019-02-27T11:53:55Z</time>
      </trkpt>
      <trkpt lat="42.75848" lon="0.17308">
        <ele>1941</ele>
        <time>2019-02-27T11:53:56Z</time>
      </trkpt>
      <trkpt lat="42.75858" lon="0.17302">
        <ele>1939</ele>
        <time>2019-02-27T11:53:57Z</time>
      </trkpt>
      <trkpt lat="42.75864" lon="0.1729">
        <ele>1938</ele>
        <time>2019-02-27T11:53:58Z</time>
      </trkpt>
      <trkpt lat="42.7587" lon="0.17278">
        <ele>1936</ele>
        <time>2019-02-27T11:53:59Z</time>
      </trkpt>
      <trkpt lat="42.75879" lon="0.17273">
        <ele>1934</ele>
        <time>2019-02-27T11:54:00Z</time>
      </trkpt>
      <trkpt lat="42.75888" lon="0.17273">
        <ele>1933</ele>
        <time>2019-02-27T11:54:01Z</time>
      </trkpt>
      <trkpt lat="42.75894" lon="0.17271">
        <ele>1933</ele>
        <time>2019-02-27T11:54:02Z</time>
      </trkpt>
      <trkpt lat="42.75899" lon="0.17268">
        <ele>1934</ele>
        <time>2019-02-27T11:54:03Z</time>
      </trkpt>
      <trkpt lat="42.75904" lon="0.17266">
        <ele>1934</ele>
        <time>2019-02-27T11:54:04Z</time>
      </trkpt>
      <trkpt lat="42.7591" lon="0.17265">
        <ele>1931</ele>
        <time>2019-02-27T11:54:05Z</time>
      </trkpt>
      <trkpt lat="42.75915" lon="0.17262">
        <ele>1930</ele>
        <time>2019-02-27T11:54:06Z</time>
      </trkpt>
      <trkpt lat="42.7592" lon="0.17259">
        <ele>1928</ele>
        <time>2019-02-27T11:54:07Z</time>
      </trkpt>
      <trkpt lat="42.75926" lon="0.17257">
        <ele>1928</ele>
        <time>2019-02-27T11:54:08Z</time>
      </trkpt>
      <trkpt lat="42.75933" lon="0.17257">
        <ele>1928</ele>
        <time>2019-02-27T11:54:09Z</time>
      </trkpt>
      <trkpt lat="42.7594" lon="0.17259">
        <ele>1927</ele>
        <time>2019-02-27T11:54:10Z</time>
      </trkpt>
      <trkpt lat="42.75947" lon="0.17261">
        <ele>1926</ele>
        <time>2019-02-27T11:54:11Z</time>
      </trkpt>
      <trkpt lat="42.75954" lon="0.1726">
        <ele>1923</ele>
        <time>2019-02-27T11:54:12Z</time>
      </trkpt>
      <trkpt lat="42.7596" lon="0.17256">
        <ele>1922</ele>
        <time>2019-02-27T11:54:13Z</time>
      </trkpt>
      <trkpt lat="42.75964" lon="0.17251">
        <ele>1922</ele>
        <time>2019-02-27T11:54:14Z</time>
      </trkpt>
      <trkpt lat="42.75967" lon="0.17247">
        <ele>1922</ele>
        <time>2019-02-27T11:54:15Z</time>
      </trkpt>
      <trkpt lat="42.75969" lon="0.17242">
        <ele>1922</ele>
        <time>2019-02-27T11:54:16Z</time>
      </trkpt>
      <trkpt lat="42.75971" lon="0.17239">
        <ele>1922</ele>
        <time>2019-02-27T11:54:17Z</time>
      </trkpt>
      <trkpt lat="42.75973" lon="0.17238">
        <ele>1923</ele>
        <time>2019-02-27T11:54:18Z</time>
      </trkpt>
      <trkpt lat="42.75975" lon="0.17237">
        <ele>1923</ele>
        <time>2019-02-27T11:54:19Z</time>
      </trkpt>
      <trkpt lat="42.75975" lon="0.17234">
        <ele>1923</ele>
        <time>2019-02-27T11:54:20Z</time>
      </trkpt>
      <trkpt lat="42.75974" lon="0.17231">
        <ele>1922</ele>
        <time>2019-02-27T11:54:21Z</time>
      </trkpt>
      <trkpt lat="42.75973" lon="0.17229">
        <ele>1922</ele>
        <time>2019-02-27T11:54:22Z</time>
      </trkpt>
      <trkpt lat="42.75973" lon="0.17229">
        <ele>1922</ele>
        <time>2019-02-27T11:54:23Z</time>
      </trkpt>
      <trkpt lat="42.75973" lon="0.17229">
        <ele>1921</ele>
        <time>2019-02-27T11:54:24Z</time>
      </trkpt>
      <trkpt lat="42.75973" lon="0.17229">
        <ele>1921</ele>
        <time>2019-02-27T11:54:25Z</time>
      </trkpt>
      <trkpt lat="42.75973" lon="0.17229">
        <ele>1921</ele>
        <time>2019-02-27T11:54:26Z</time>
      </trkpt>
      <trkpt lat="42.75973" lon="0.17229">
        <ele>1921</ele>
        <time>2019-02-27T11:54:27Z</time>
      </trkpt>
      <trkpt lat="42.75973" lon="0.17229">
        <ele>1921</ele>
        <time>2019-02-27T11:54:28Z</time>
      </trkpt>
      <trkpt lat="42.75973" lon="0.17229">
        <ele>1921</ele>
        <time>2019-02-27T11:54:29Z</time>
      </trkpt>
      <trkpt lat="42.75973" lon="0.17229">
        <ele>1921</ele>
        <time>2019-02-27T11:54:30Z</time>
      </trkpt>
      <trkpt lat="42.75973" lon="0.17229">
        <ele>1921</ele>
        <time>2019-02-27T11:54:31Z</time>
      </trkpt>
      <trkpt lat="42.75973" lon="0.17229">
        <ele>1921</ele>
        <time>2019-02-27T11:54:32Z</time>
      </trkpt>
      <trkpt lat="42.75973" lon="0.17229">
        <ele>1921</ele>
        <time>2019-02-27T11:54:33Z</time>
      </trkpt>
      <trkpt lat="42.75973" lon="0.17229">
        <ele>1921</ele>
        <time>2019-02-27T11:54:34Z</time>
      </trkpt>
      <trkpt lat="42.75973" lon="0.17229">
        <ele>1922</ele>
        <time>2019-02-27T11:54:35Z</time>
      </trkpt>
      <trkpt lat="42.75973" lon="0.17229">
        <ele>1922</ele>
        <time>2019-02-27T11:54:36Z</time>
      </trkpt>
      <trkpt lat="42.75973" lon="0.17229">
        <ele>1921</ele>
        <time>2019-02-27T11:54:37Z</time>
      </trkpt>
      <trkpt lat="42.75973" lon="0.17229">
        <ele>1921</ele>
        <time>2019-02-27T11:54:38Z</time>
      </trkpt>
      <trkpt lat="42.75973" lon="0.17229">
        <ele>1921</ele>
        <time>2019-02-27T11:54:39Z</time>
      </trkpt>
      <trkpt lat="42.75973" lon="0.17229">
        <ele>1921</ele>
        <time>2019-02-27T11:54:40Z</time>
      </trkpt>
      <trkpt lat="42.75973" lon="0.17229">
        <ele>1921</ele>
        <time>2019-02-27T11:54:41Z</time>
      </trkpt>
      <trkpt lat="42.75973" lon="0.17229">
        <ele>1921</ele>
        <time>2019-02-27T11:54:42Z</time>
      </trkpt>
      <trkpt lat="42.75973" lon="0.17229">
        <ele>1921</ele>
        <time>2019-02-27T11:54:43Z</time>
      </trkpt>
      <trkpt lat="42.75973" lon="0.17229">
        <ele>1921</ele>
        <time>2019-02-27T11:54:44Z</time>
      </trkpt>
      <trkpt lat="42.75973" lon="0.17229">
        <ele>1921</ele>
        <time>2019-02-27T11:54:45Z</time>
      </trkpt>
      <trkpt lat="42.75973" lon="0.17229">
        <ele>1921</ele>
        <time>2019-02-27T11:54:46Z</time>
      </trkpt>
      <trkpt lat="42.75973" lon="0.17229">
        <ele>1921</ele>
        <time>2019-02-27T11:54:47Z</time>
      </trkpt>
      <trkpt lat="42.75973" lon="0.17229">
        <ele>1921</ele>
        <time>2019-02-27T11:54:48Z</time>
      </trkpt>
      <trkpt lat="42.75973" lon="0.17229">
        <ele>1921</ele>
        <time>2019-02-27T11:54:49Z</time>
      </trkpt>
      <trkpt lat="42.75973" lon="0.17229">
        <ele>1921</ele>
        <time>2019-02-27T11:54:50Z</time>
      </trkpt>
      <trkpt lat="42.75973" lon="0.17229">
        <ele>1921</ele>
        <time>2019-02-27T11:54:51Z</time>
      </trkpt>
      <trkpt lat="42.75973" lon="0.17229">
        <ele>1921</ele>
        <time>2019-02-27T11:54:52Z</time>
      </trkpt>
      <trkpt lat="42.75973" lon="0.17229">
        <ele>1921</ele>
        <time>2019-02-27T11:54:53Z</time>
      </trkpt>
      <trkpt lat="42.75973" lon="0.17229">
        <ele>1921</ele>
        <time>2019-02-27T11:54:54Z</time>
      </trkpt>
      <trkpt lat="42.75973" lon="0.17229">
        <ele>1921</ele>
        <time>2019-02-27T11:54:55Z</time>
      </trkpt>
      <trkpt lat="42.75973" lon="0.17229">
        <ele>1921</ele>
        <time>2019-02-27T11:54:56Z</time>
      </trkpt>
      <trkpt lat="42.75973" lon="0.17229">
        <ele>1922</ele>
        <time>2019-02-27T11:54:57Z</time>
      </trkpt>
      <trkpt lat="42.75973" lon="0.17229">
        <ele>1922</ele>
        <time>2019-02-27T11:54:58Z</time>
      </trkpt>
      <trkpt lat="42.75973" lon="0.17229">
        <ele>1922</ele>
        <time>2019-02-27T11:54:59Z</time>
      </trkpt>
      <trkpt lat="42.75973" lon="0.17229">
        <ele>1922</ele>
        <time>2019-02-27T11:55:00Z</time>
      </trkpt>
      <trkpt lat="42.75973" lon="0.17229">
        <ele>1922</ele>
        <time>2019-02-27T11:55:01Z</time>
      </trkpt>
      <trkpt lat="42.75973" lon="0.17229">
        <ele>1922</ele>
        <time>2019-02-27T11:55:02Z</time>
      </trkpt>
      <trkpt lat="42.75973" lon="0.17229">
        <ele>1922</ele>
        <time>2019-02-27T11:55:03Z</time>
      </trkpt>
      <trkpt lat="42.75973" lon="0.17229">
        <ele>1922</ele>
        <time>2019-02-27T11:55:04Z</time>
      </trkpt>
      <trkpt lat="42.75973" lon="0.17229">
        <ele>1922</ele>
        <time>2019-02-27T11:55:05Z</time>
      </trkpt>
      <trkpt lat="42.75973" lon="0.17229">
        <ele>1922</ele>
        <time>2019-02-27T11:55:06Z</time>
      </trkpt>
      <trkpt lat="42.75973" lon="0.17229">
        <ele>1922</ele>
        <time>2019-02-27T11:55:07Z</time>
      </trkpt>
      <trkpt lat="42.75973" lon="0.17229">
        <ele>1922</ele>
        <time>2019-02-27T11:55:08Z</time>
      </trkpt>
      <trkpt lat="42.75973" lon="0.17231">
        <ele>1922</ele>
        <time>2019-02-27T11:55:09Z</time>
      </trkpt>
      <trkpt lat="42.75973" lon="0.17231">
        <ele>1922</ele>
        <time>2019-02-27T11:55:10Z</time>
      </trkpt>
      <trkpt lat="42.75973" lon="0.17231">
        <ele>1922</ele>
        <time>2019-02-27T11:55:11Z</time>
      </trkpt>
      <trkpt lat="42.75973" lon="0.17231">
        <ele>1922</ele>
        <time>2019-02-27T11:55:12Z</time>
      </trkpt>
      <trkpt lat="42.75973" lon="0.17231">
        <ele>1921</ele>
        <time>2019-02-27T11:55:13Z</time>
      </trkpt>
      <trkpt lat="42.75973" lon="0.17231">
        <ele>1921</ele>
        <time>2019-02-27T11:55:14Z</time>
      </trkpt>
      <trkpt lat="42.75973" lon="0.17231">
        <ele>1921</ele>
        <time>2019-02-27T11:55:15Z</time>
      </trkpt>
      <trkpt lat="42.75973" lon="0.17231">
        <ele>1921</ele>
        <time>2019-02-27T11:55:16Z</time>
      </trkpt>
      <trkpt lat="42.75973" lon="0.17231">
        <ele>1921</ele>
        <time>2019-02-27T11:55:17Z</time>
      </trkpt>
      <trkpt lat="42.75973" lon="0.17231">
        <ele>1921</ele>
        <time>2019-02-27T11:55:18Z</time>
      </trkpt>
      <trkpt lat="42.75973" lon="0.17231">
        <ele>1921</ele>
        <time>2019-02-27T11:55:19Z</time>
      </trkpt>
      <trkpt lat="42.75973" lon="0.17231">
        <ele>1922</ele>
        <time>2019-02-27T11:55:20Z</time>
      </trkpt>
      <trkpt lat="42.75973" lon="0.17231">
        <ele>1922</ele>
        <time>2019-02-27T11:55:21Z</time>
      </trkpt>
      <trkpt lat="42.75973" lon="0.17231">
        <ele>1922</ele>
        <time>2019-02-27T11:55:22Z</time>
      </trkpt>
      <trkpt lat="42.75973" lon="0.17231">
        <ele>1922</ele>
        <time>2019-02-27T11:55:23Z</time>
      </trkpt>
      <trkpt lat="42.75973" lon="0.17231">
        <ele>1921</ele>
        <time>2019-02-27T11:55:24Z</time>
      </trkpt>
      <trkpt lat="42.75973" lon="0.17231">
        <ele>1921</ele>
        <time>2019-02-27T11:55:25Z</time>
      </trkpt>
      <trkpt lat="42.75973" lon="0.17231">
        <ele>1921</ele>
        <time>2019-02-27T11:55:26Z</time>
      </trkpt>
      <trkpt lat="42.75973" lon="0.17231">
        <ele>1921</ele>
        <time>2019-02-27T11:55:27Z</time>
      </trkpt>
      <trkpt lat="42.75973" lon="0.17231">
        <ele>1921</ele>
        <time>2019-02-27T11:55:28Z</time>
      </trkpt>
      <trkpt lat="42.75973" lon="0.17231">
        <ele>1922</ele>
        <time>2019-02-27T11:55:29Z</time>
      </trkpt>
      <trkpt lat="42.75973" lon="0.17231">
        <ele>1922</ele>
        <time>2019-02-27T11:55:30Z</time>
      </trkpt>
      <trkpt lat="42.75973" lon="0.17231">
        <ele>1922</ele>
        <time>2019-02-27T11:55:31Z</time>
      </trkpt>
      <trkpt lat="42.75973" lon="0.17231">
        <ele>1922</ele>
        <time>2019-02-27T11:55:32Z</time>
      </trkpt>
      <trkpt lat="42.75973" lon="0.17231">
        <ele>1922</ele>
        <time>2019-02-27T11:55:33Z</time>
      </trkpt>
      <trkpt lat="42.75973" lon="0.17231">
        <ele>1922</ele>
        <time>2019-02-27T11:55:34Z</time>
      </trkpt>
      <trkpt lat="42.75975" lon="0.17229">
        <ele>1922</ele>
        <time>2019-02-27T11:55:35Z</time>
      </trkpt>
      <trkpt lat="42.75977" lon="0.1723">
        <ele>1922</ele>
        <time>2019-02-27T11:55:36Z</time>
      </trkpt>
      <trkpt lat="42.7598" lon="0.17231">
        <ele>1922</ele>
        <time>2019-02-27T11:55:37Z</time>
      </trkpt>
      <trkpt lat="42.75982" lon="0.17231">
        <ele>1922</ele>
        <time>2019-02-27T11:55:38Z</time>
      </trkpt>
      <trkpt lat="42.75985" lon="0.17232">
        <ele>1921</ele>
        <time>2019-02-27T11:55:39Z</time>
      </trkpt>
      <trkpt lat="42.75988" lon="0.17232">
        <ele>1921</ele>
        <time>2019-02-27T11:55:40Z</time>
      </trkpt>
      <trkpt lat="42.75992" lon="0.17234">
        <ele>1920</ele>
        <time>2019-02-27T11:55:41Z</time>
      </trkpt>
      <trkpt lat="42.75997" lon="0.17235">
        <ele>1919</ele>
        <time>2019-02-27T11:55:42Z</time>
      </trkpt>
      <trkpt lat="42.76001" lon="0.17238">
        <ele>1919</ele>
        <time>2019-02-27T11:55:43Z</time>
      </trkpt>
      <trkpt lat="42.76005" lon="0.1724">
        <ele>1918</ele>
        <time>2019-02-27T11:55:44Z</time>
      </trkpt>
      <trkpt lat="42.7601" lon="0.17243">
        <ele>1917</ele>
        <time>2019-02-27T11:55:45Z</time>
      </trkpt>
      <trkpt lat="42.76015" lon="0.17245">
        <ele>1916</ele>
        <time>2019-02-27T11:55:46Z</time>
      </trkpt>
      <trkpt lat="42.76019" lon="0.17244">
        <ele>1915</ele>
        <time>2019-02-27T11:55:47Z</time>
      </trkpt>
      <trkpt lat="42.76024" lon="0.17242">
        <ele>1914</ele>
        <time>2019-02-27T11:55:48Z</time>
      </trkpt>
      <trkpt lat="42.76031" lon="0.17242">
        <ele>1913</ele>
        <time>2019-02-27T11:55:49Z</time>
      </trkpt>
      <trkpt lat="42.76038" lon="0.17243">
        <ele>1912</ele>
        <time>2019-02-27T11:55:50Z</time>
      </trkpt>
      <trkpt lat="42.76045" lon="0.17244">
        <ele>1911</ele>
        <time>2019-02-27T11:55:51Z</time>
      </trkpt>
      <trkpt lat="42.76051" lon="0.17245">
        <ele>1910</ele>
        <time>2019-02-27T11:55:52Z</time>
      </trkpt>
      <trkpt lat="42.76057" lon="0.17246">
        <ele>1909</ele>
        <time>2019-02-27T11:55:53Z</time>
      </trkpt>
      <trkpt lat="42.76062" lon="0.17247">
        <ele>1909</ele>
        <time>2019-02-27T11:55:54Z</time>
      </trkpt>
      <trkpt lat="42.76067" lon="0.17246">
        <ele>1907</ele>
        <time>2019-02-27T11:55:55Z</time>
      </trkpt>
      <trkpt lat="42.7607" lon="0.17243">
        <ele>1907</ele>
        <time>2019-02-27T11:55:56Z</time>
      </trkpt>
      <trkpt lat="42.76074" lon="0.1724">
        <ele>1908</ele>
        <time>2019-02-27T11:55:57Z</time>
      </trkpt>
      <trkpt lat="42.76082" lon="0.17242">
        <ele>1907.6</ele>
        <time>2019-02-27T11:55:59Z</time>
      </trkpt>
      <trkpt lat="42.76085" lon="0.17243">
        <ele>1907</ele>
        <time>2019-02-27T11:56:00Z</time>
      </trkpt>
      <trkpt lat="42.76088" lon="0.17244">
        <ele>1907</ele>
        <time>2019-02-27T11:56:01Z</time>
      </trkpt>
      <trkpt lat="42.76092" lon="0.17245">
        <ele>1907</ele>
        <time>2019-02-27T11:56:02Z</time>
      </trkpt>
      <trkpt lat="42.76095" lon="0.17246">
        <ele>1907</ele>
        <time>2019-02-27T11:56:03Z</time>
      </trkpt>
      <trkpt lat="42.76097" lon="0.17247">
        <ele>1907</ele>
        <time>2019-02-27T11:56:04Z</time>
      </trkpt>
      <trkpt lat="42.761" lon="0.17247">
        <ele>1907</ele>
        <time>2019-02-27T11:56:05Z</time>
      </trkpt>
      <trkpt lat="42.76102" lon="0.17248">
        <ele>1906</ele>
        <time>2019-02-27T11:56:06Z</time>
      </trkpt>
      <trkpt lat="42.76105" lon="0.17249">
        <ele>1906</ele>
        <time>2019-02-27T11:56:07Z</time>
      </trkpt>
      <trkpt lat="42.76108" lon="0.17249">
        <ele>1906</ele>
        <time>2019-02-27T11:56:08Z</time>
      </trkpt>
      <trkpt lat="42.76111" lon="0.17249">
        <ele>1906</ele>
        <time>2019-02-27T11:56:09Z</time>
      </trkpt>
      <trkpt lat="42.76114" lon="0.17249">
        <ele>1905</ele>
        <time>2019-02-27T11:56:10Z</time>
      </trkpt>
      <trkpt lat="42.76116" lon="0.17245">
        <ele>1903</ele>
        <time>2019-02-27T11:56:11Z</time>
      </trkpt>
      <trkpt lat="42.76115" lon="0.17237">
        <ele>1902</ele>
        <time>2019-02-27T11:56:12Z</time>
      </trkpt>
      <trkpt lat="42.76115" lon="0.1723">
        <ele>1900</ele>
        <time>2019-02-27T11:56:13Z</time>
      </trkpt>
      <trkpt lat="42.76115" lon="0.17224">
        <ele>1899</ele>
        <time>2019-02-27T11:56:14Z</time>
      </trkpt>
      <trkpt lat="42.76116" lon="0.17219">
        <ele>1899</ele>
        <time>2019-02-27T11:56:15Z</time>
      </trkpt>
      <trkpt lat="42.76119" lon="0.17218">
        <ele>1899</ele>
        <time>2019-02-27T11:56:16Z</time>
      </trkpt>
      <trkpt lat="42.76121" lon="0.17218">
        <ele>1899</ele>
        <time>2019-02-27T11:56:17Z</time>
      </trkpt>
      <trkpt lat="42.76121" lon="0.17218">
        <ele>1899</ele>
        <time>2019-02-27T11:56:18Z</time>
      </trkpt>
      <trkpt lat="42.76121" lon="0.17218">
        <ele>1899</ele>
        <time>2019-02-27T11:56:19Z</time>
      </trkpt>
      <trkpt lat="42.76121" lon="0.17218">
        <ele>1899</ele>
        <time>2019-02-27T11:56:20Z</time>
      </trkpt>
      <trkpt lat="42.76121" lon="0.17218">
        <ele>1899</ele>
        <time>2019-02-27T11:56:21Z</time>
      </trkpt>
      <trkpt lat="42.76121" lon="0.17218">
        <ele>1899</ele>
        <time>2019-02-27T11:56:22Z</time>
      </trkpt>
      <trkpt lat="42.76121" lon="0.17218">
        <ele>1899</ele>
        <time>2019-02-27T11:56:23Z</time>
      </trkpt>
      <trkpt lat="42.76121" lon="0.17218">
        <ele>1899</ele>
        <time>2019-02-27T11:56:24Z</time>
      </trkpt>
      <trkpt lat="42.76123" lon="0.17217">
        <ele>1899</ele>
        <time>2019-02-27T11:56:25Z</time>
      </trkpt>
      <trkpt lat="42.76124" lon="0.17215">
        <ele>1899</ele>
        <time>2019-02-27T11:56:26Z</time>
      </trkpt>
      <trkpt lat="42.76125" lon="0.17211">
        <ele>1898</ele>
        <time>2019-02-27T11:56:27Z</time>
      </trkpt>
      <trkpt lat="42.76126" lon="0.17204">
        <ele>1896</ele>
        <time>2019-02-27T11:56:28Z</time>
      </trkpt>
      <trkpt lat="42.76131" lon="0.17201">
        <ele>1895</ele>
        <time>2019-02-27T11:56:29Z</time>
      </trkpt>
      <trkpt lat="42.76136" lon="0.17201">
        <ele>1893</ele>
        <time>2019-02-27T11:56:30Z</time>
      </trkpt>
      <trkpt lat="42.76141" lon="0.17198">
        <ele>1890</ele>
        <time>2019-02-27T11:56:31Z</time>
      </trkpt>
      <trkpt lat="42.76144" lon="0.17191">
        <ele>1889</ele>
        <time>2019-02-27T11:56:32Z</time>
      </trkpt>
      <trkpt lat="42.76148" lon="0.17186">
        <ele>1889</ele>
        <time>2019-02-27T11:56:33Z</time>
      </trkpt>
      <trkpt lat="42.76152" lon="0.17181">
        <ele>1885</ele>
        <time>2019-02-27T11:56:34Z</time>
      </trkpt>
      <trkpt lat="42.76156" lon="0.17175">
        <ele>1884</ele>
        <time>2019-02-27T11:56:35Z</time>
      </trkpt>
      <trkpt lat="42.7616" lon="0.1717">
        <ele>1881</ele>
        <time>2019-02-27T11:56:36Z</time>
      </trkpt>
      <trkpt lat="42.76164" lon="0.17165">
        <ele>1880</ele>
        <time>2019-02-27T11:56:37Z</time>
      </trkpt>
      <trkpt lat="42.76169" lon="0.17162">
        <ele>1880</ele>
        <time>2019-02-27T11:56:38Z</time>
      </trkpt>
      <trkpt lat="42.76174" lon="0.17157">
        <ele>1880</ele>
        <time>2019-02-27T11:56:39Z</time>
      </trkpt>
      <trkpt lat="42.76178" lon="0.17152">
        <ele>1879</ele>
        <time>2019-02-27T11:56:40Z</time>
      </trkpt>
      <trkpt lat="42.76182" lon="0.17147">
        <ele>1878</ele>
        <time>2019-02-27T11:56:41Z</time>
      </trkpt>
      <trkpt lat="42.76187" lon="0.17143">
        <ele>1876</ele>
        <time>2019-02-27T11:56:42Z</time>
      </trkpt>
      <trkpt lat="42.7619" lon="0.17139">
        <ele>1875</ele>
        <time>2019-02-27T11:56:43Z</time>
      </trkpt>
      <trkpt lat="42.7619" lon="0.17132">
        <ele>1875</ele>
        <time>2019-02-27T11:56:44Z</time>
      </trkpt>
      <trkpt lat="42.76188" lon="0.17129">
        <ele>1874</ele>
        <time>2019-02-27T11:56:45Z</time>
      </trkpt>
      <trkpt lat="42.76181" lon="0.17122">
        <ele>1873</ele>
        <time>2019-02-27T11:56:46Z</time>
      </trkpt>
      <trkpt lat="42.76179" lon="0.1712">
        <ele>1872</ele>
        <time>2019-02-27T11:56:47Z</time>
      </trkpt>
      <trkpt lat="42.76172" lon="0.17115">
        <ele>1872</ele>
        <time>2019-02-27T11:56:48Z</time>
      </trkpt>
      <trkpt lat="42.7617" lon="0.17113">
        <ele>1871</ele>
        <time>2019-02-27T11:56:49Z</time>
      </trkpt>
      <trkpt lat="42.76169" lon="0.17111">
        <ele>1871</ele>
        <time>2019-02-27T11:56:50Z</time>
      </trkpt>
      <trkpt lat="42.76164" lon="0.17106">
        <ele>1871</ele>
        <time>2019-02-27T11:56:51Z</time>
      </trkpt>
      <trkpt lat="42.76164" lon="0.17106">
        <ele>1871</ele>
        <time>2019-02-27T11:56:52Z</time>
      </trkpt>
      <trkpt lat="42.76164" lon="0.17106">
        <ele>1871</ele>
        <time>2019-02-27T11:56:53Z</time>
      </trkpt>
      <trkpt lat="42.76164" lon="0.17106">
        <ele>1871</ele>
        <time>2019-02-27T11:56:54Z</time>
      </trkpt>
      <trkpt lat="42.7616" lon="0.171">
        <ele>1871</ele>
        <time>2019-02-27T11:56:55Z</time>
      </trkpt>
      <trkpt lat="42.7616" lon="0.171">
        <ele>1871</ele>
        <time>2019-02-27T11:56:56Z</time>
      </trkpt>
      <trkpt lat="42.76159" lon="0.17098">
        <ele>1871</ele>
        <time>2019-02-27T11:56:57Z</time>
      </trkpt>
      <trkpt lat="42.76159" lon="0.17098">
        <ele>1871</ele>
        <time>2019-02-27T11:56:58Z</time>
      </trkpt>
      <trkpt lat="42.76158" lon="0.17095">
        <ele>1871</ele>
        <time>2019-02-27T11:56:59Z</time>
      </trkpt>
      <trkpt lat="42.76158" lon="0.17095">
        <ele>1871</ele>
        <time>2019-02-27T11:57:00Z</time>
      </trkpt>
      <trkpt lat="42.76157" lon="0.17093">
        <ele>1872</ele>
        <time>2019-02-27T11:57:01Z</time>
      </trkpt>
      <trkpt lat="42.76157" lon="0.17093">
        <ele>1872</ele>
        <time>2019-02-27T11:57:02Z</time>
      </trkpt>
      <trkpt lat="42.76157" lon="0.17093">
        <ele>1872</ele>
        <time>2019-02-27T11:57:03Z</time>
      </trkpt>
      <trkpt lat="42.76157" lon="0.17093">
        <ele>1872</ele>
        <time>2019-02-27T11:57:04Z</time>
      </trkpt>
      <trkpt lat="42.76157" lon="0.17093">
        <ele>1872</ele>
        <time>2019-02-27T11:57:05Z</time>
      </trkpt>
      <trkpt lat="42.76157" lon="0.17093">
        <ele>1872</ele>
        <time>2019-02-27T11:57:06Z</time>
      </trkpt>
      <trkpt lat="42.76157" lon="0.17093">
        <ele>1872</ele>
        <time>2019-02-27T11:57:07Z</time>
      </trkpt>
      <trkpt lat="42.76157" lon="0.17093">
        <ele>1872</ele>
        <time>2019-02-27T11:57:08Z</time>
      </trkpt>
      <trkpt lat="42.76157" lon="0.17093">
        <ele>1872</ele>
        <time>2019-02-27T11:57:09Z</time>
      </trkpt>
      <trkpt lat="42.76157" lon="0.17093">
        <ele>1872</ele>
        <time>2019-02-27T11:57:10Z</time>
      </trkpt>
      <trkpt lat="42.76157" lon="0.17093">
        <ele>1872</ele>
        <time>2019-02-27T11:57:11Z</time>
      </trkpt>
      <trkpt lat="42.76157" lon="0.17093">
        <ele>1872</ele>
        <time>2019-02-27T11:57:12Z</time>
      </trkpt>
      <trkpt lat="42.76157" lon="0.17093">
        <ele>1872</ele>
        <time>2019-02-27T11:57:13Z</time>
      </trkpt>
      <trkpt lat="42.76156" lon="0.17091">
        <ele>1872</ele>
        <time>2019-02-27T11:57:14Z</time>
      </trkpt>
      <trkpt lat="42.76156" lon="0.17091">
        <ele>1872</ele>
        <time>2019-02-27T11:57:15Z</time>
      </trkpt>
      <trkpt lat="42.76154" lon="0.17089">
        <ele>1872</ele>
        <time>2019-02-27T11:57:16Z</time>
      </trkpt>
      <trkpt lat="42.76154" lon="0.17089">
        <ele>1872</ele>
        <time>2019-02-27T11:57:17Z</time>
      </trkpt>
      <trkpt lat="42.76154" lon="0.17089">
        <ele>1872</ele>
        <time>2019-02-27T11:57:18Z</time>
      </trkpt>
      <trkpt lat="42.76154" lon="0.17089">
        <ele>1872</ele>
        <time>2019-02-27T11:57:19Z</time>
      </trkpt>
      <trkpt lat="42.76153" lon="0.17087">
        <ele>1872</ele>
        <time>2019-02-27T11:57:20Z</time>
      </trkpt>
      <trkpt lat="42.76153" lon="0.17087">
        <ele>1872</ele>
        <time>2019-02-27T11:57:21Z</time>
      </trkpt>
      <trkpt lat="42.76153" lon="0.17087">
        <ele>1872</ele>
        <time>2019-02-27T11:57:22Z</time>
      </trkpt>
      <trkpt lat="42.76153" lon="0.17087">
        <ele>1872</ele>
        <time>2019-02-27T11:57:23Z</time>
      </trkpt>
      <trkpt lat="42.76151" lon="0.17085">
        <ele>1872</ele>
        <time>2019-02-27T11:57:24Z</time>
      </trkpt>
      <trkpt lat="42.76151" lon="0.17085">
        <ele>1872</ele>
        <time>2019-02-27T11:57:25Z</time>
      </trkpt>
      <trkpt lat="42.76148" lon="0.17083">
        <ele>1872</ele>
        <time>2019-02-27T11:57:26Z</time>
      </trkpt>
      <trkpt lat="42.76146" lon="0.17081">
        <ele>1872</ele>
        <time>2019-02-27T11:57:27Z</time>
      </trkpt>
      <trkpt lat="42.76144" lon="0.1708">
        <ele>1871</ele>
        <time>2019-02-27T11:57:28Z</time>
      </trkpt>
      <trkpt lat="42.76141" lon="0.17078">
        <ele>1871</ele>
        <time>2019-02-27T11:57:29Z</time>
      </trkpt>
      <trkpt lat="42.76138" lon="0.17076">
        <ele>1871</ele>
        <time>2019-02-27T11:57:30Z</time>
      </trkpt>
      <trkpt lat="42.76135" lon="0.17075">
        <ele>1871</ele>
        <time>2019-02-27T11:57:31Z</time>
      </trkpt>
      <trkpt lat="42.76133" lon="0.17074">
        <ele>1870</ele>
        <time>2019-02-27T11:57:32Z</time>
      </trkpt>
      <trkpt lat="42.76131" lon="0.17073">
        <ele>1870</ele>
        <time>2019-02-27T11:57:33Z</time>
      </trkpt>
      <trkpt lat="42.76131" lon="0.17073">
        <ele>1869</ele>
        <time>2019-02-27T11:57:34Z</time>
      </trkpt>
      <trkpt lat="42.76129" lon="0.17072">
        <ele>1869</ele>
        <time>2019-02-27T11:57:35Z</time>
      </trkpt>
      <trkpt lat="42.76129" lon="0.17072">
        <ele>1869</ele>
        <time>2019-02-27T11:57:36Z</time>
      </trkpt>
      <trkpt lat="42.76129" lon="0.17072">
        <ele>1869</ele>
        <time>2019-02-27T11:57:37Z</time>
      </trkpt>
      <trkpt lat="42.76129" lon="0.17072">
        <ele>1869</ele>
        <time>2019-02-27T11:57:38Z</time>
      </trkpt>
      <trkpt lat="42.76129" lon="0.17072">
        <ele>1869</ele>
        <time>2019-02-27T11:57:39Z</time>
      </trkpt>
      <trkpt lat="42.76129" lon="0.17072">
        <ele>1869</ele>
        <time>2019-02-27T11:57:40Z</time>
      </trkpt>
      <trkpt lat="42.76129" lon="0.17072">
        <ele>1869</ele>
        <time>2019-02-27T11:57:41Z</time>
      </trkpt>
      <trkpt lat="42.76129" lon="0.17072">
        <ele>1869</ele>
        <time>2019-02-27T11:57:42Z</time>
      </trkpt>
      <trkpt lat="42.76129" lon="0.17072">
        <ele>1869</ele>
        <time>2019-02-27T11:57:43Z</time>
      </trkpt>
      <trkpt lat="42.76129" lon="0.17072">
        <ele>1869</ele>
        <time>2019-02-27T11:57:44Z</time>
      </trkpt>
      <trkpt lat="42.76129" lon="0.17072">
        <ele>1869</ele>
        <time>2019-02-27T11:57:45Z</time>
      </trkpt>
      <trkpt lat="42.76129" lon="0.17072">
        <ele>1869</ele>
        <time>2019-02-27T11:57:46Z</time>
      </trkpt>
      <trkpt lat="42.76129" lon="0.17072">
        <ele>1869</ele>
        <time>2019-02-27T11:57:47Z</time>
      </trkpt>
      <trkpt lat="42.76129" lon="0.17072">
        <ele>1869</ele>
        <time>2019-02-27T11:57:48Z</time>
      </trkpt>
      <trkpt lat="42.76129" lon="0.17072">
        <ele>1869</ele>
        <time>2019-02-27T11:57:49Z</time>
      </trkpt>
      <trkpt lat="42.76129" lon="0.17072">
        <ele>1869</ele>
        <time>2019-02-27T11:57:50Z</time>
      </trkpt>
      <trkpt lat="42.76129" lon="0.17072">
        <ele>1869</ele>
        <time>2019-02-27T11:57:51Z</time>
      </trkpt>
      <trkpt lat="42.76129" lon="0.17072">
        <ele>1869</ele>
        <time>2019-02-27T11:57:52Z</time>
      </trkpt>
      <trkpt lat="42.76129" lon="0.17072">
        <ele>1869</ele>
        <time>2019-02-27T11:57:53Z</time>
      </trkpt>
      <trkpt lat="42.76129" lon="0.17072">
        <ele>1869</ele>
        <time>2019-02-27T11:57:54Z</time>
      </trkpt>
      <trkpt lat="42.76129" lon="0.17072">
        <ele>1869</ele>
        <time>2019-02-27T11:57:55Z</time>
      </trkpt>
      <trkpt lat="42.76129" lon="0.17072">
        <ele>1869</ele>
        <time>2019-02-27T11:57:56Z</time>
      </trkpt>
      <trkpt lat="42.76129" lon="0.17072">
        <ele>1869</ele>
        <time>2019-02-27T11:57:57Z</time>
      </trkpt>
      <trkpt lat="42.76129" lon="0.17072">
        <ele>1869</ele>
        <time>2019-02-27T11:57:58Z</time>
      </trkpt>
      <trkpt lat="42.76129" lon="0.17072">
        <ele>1869</ele>
        <time>2019-02-27T11:57:59Z</time>
      </trkpt>
      <trkpt lat="42.76129" lon="0.17072">
        <ele>1869</ele>
        <time>2019-02-27T11:58:00Z</time>
      </trkpt>
      <trkpt lat="42.76129" lon="0.17072">
        <ele>1869</ele>
        <time>2019-02-27T11:58:01Z</time>
      </trkpt>
      <trkpt lat="42.76129" lon="0.17072">
        <ele>1869</ele>
        <time>2019-02-27T11:58:02Z</time>
      </trkpt>
      <trkpt lat="42.76129" lon="0.17072">
        <ele>1869</ele>
        <time>2019-02-27T11:58:03Z</time>
      </trkpt>
      <trkpt lat="42.76129" lon="0.17072">
        <ele>1869</ele>
        <time>2019-02-27T11:58:04Z</time>
      </trkpt>
      <trkpt lat="42.76129" lon="0.17072">
        <ele>1870</ele>
        <time>2019-02-27T11:58:05Z</time>
      </trkpt>
      <trkpt lat="42.76129" lon="0.17072">
        <ele>1870</ele>
        <time>2019-02-27T11:58:06Z</time>
      </trkpt>
      <trkpt lat="42.76129" lon="0.17072">
        <ele>1870</ele>
        <time>2019-02-27T11:58:07Z</time>
      </trkpt>
      <trkpt lat="42.76129" lon="0.17072">
        <ele>1870</ele>
        <time>2019-02-27T11:58:08Z</time>
      </trkpt>
      <trkpt lat="42.76128" lon="0.1707">
        <ele>1870</ele>
        <time>2019-02-27T11:58:09Z</time>
      </trkpt>
      <trkpt lat="42.76128" lon="0.1707">
        <ele>1869</ele>
        <time>2019-02-27T11:58:10Z</time>
      </trkpt>
      <trkpt lat="42.76126" lon="0.17068">
        <ele>1869</ele>
        <time>2019-02-27T11:58:11Z</time>
      </trkpt>
      <trkpt lat="42.76126" lon="0.17068">
        <ele>1869</ele>
        <time>2019-02-27T11:58:12Z</time>
      </trkpt>
      <trkpt lat="42.76126" lon="0.17068">
        <ele>1869</ele>
        <time>2019-02-27T11:58:13Z</time>
      </trkpt>
      <trkpt lat="42.76126" lon="0.17068">
        <ele>1868</ele>
        <time>2019-02-27T11:58:14Z</time>
      </trkpt>
      <trkpt lat="42.76126" lon="0.17068">
        <ele>1868</ele>
        <time>2019-02-27T11:58:15Z</time>
      </trkpt>
      <trkpt lat="42.76126" lon="0.17068">
        <ele>1868</ele>
        <time>2019-02-27T11:58:16Z</time>
      </trkpt>
      <trkpt lat="42.76126" lon="0.17068">
        <ele>1868</ele>
        <time>2019-02-27T11:58:17Z</time>
      </trkpt>
      <trkpt lat="42.76126" lon="0.17068">
        <ele>1868</ele>
        <time>2019-02-27T11:58:18Z</time>
      </trkpt>
      <trkpt lat="42.76126" lon="0.17068">
        <ele>1868</ele>
        <time>2019-02-27T11:58:19Z</time>
      </trkpt>
      <trkpt lat="42.76126" lon="0.17068">
        <ele>1868</ele>
        <time>2019-02-27T11:58:20Z</time>
      </trkpt>
      <trkpt lat="42.76126" lon="0.17068">
        <ele>1868</ele>
        <time>2019-02-27T11:58:21Z</time>
      </trkpt>
      <trkpt lat="42.76126" lon="0.17068">
        <ele>1868</ele>
        <time>2019-02-27T11:58:22Z</time>
      </trkpt>
      <trkpt lat="42.76126" lon="0.17068">
        <ele>1868</ele>
        <time>2019-02-27T11:58:23Z</time>
      </trkpt>
      <trkpt lat="42.76126" lon="0.17068">
        <ele>1868</ele>
        <time>2019-02-27T11:58:24Z</time>
      </trkpt>
      <trkpt lat="42.76126" lon="0.17068">
        <ele>1868</ele>
        <time>2019-02-27T11:58:25Z</time>
      </trkpt>
      <trkpt lat="42.76125" lon="0.17066">
        <ele>1868</ele>
        <time>2019-02-27T11:58:26Z</time>
      </trkpt>
      <trkpt lat="42.76125" lon="0.17066">
        <ele>1868</ele>
        <time>2019-02-27T11:58:27Z</time>
      </trkpt>
      <trkpt lat="42.76125" lon="0.17066">
        <ele>1868</ele>
        <time>2019-02-27T11:58:28Z</time>
      </trkpt>
      <trkpt lat="42.76123" lon="0.17066">
        <ele>1868</ele>
        <time>2019-02-27T11:58:29Z</time>
      </trkpt>
      <trkpt lat="42.76123" lon="0.17066">
        <ele>1868</ele>
        <time>2019-02-27T11:58:30Z</time>
      </trkpt>
      <trkpt lat="42.76123" lon="0.17066">
        <ele>1868</ele>
        <time>2019-02-27T11:58:31Z</time>
      </trkpt>
      <trkpt lat="42.76123" lon="0.17066">
        <ele>1868</ele>
        <time>2019-02-27T11:58:32Z</time>
      </trkpt>
      <trkpt lat="42.76123" lon="0.17066">
        <ele>1867</ele>
        <time>2019-02-27T11:58:33Z</time>
      </trkpt>
      <trkpt lat="42.76123" lon="0.17066">
        <ele>1867</ele>
        <time>2019-02-27T11:58:34Z</time>
      </trkpt>
      <trkpt lat="42.76123" lon="0.17066">
        <ele>1867</ele>
        <time>2019-02-27T11:58:35Z</time>
      </trkpt>
      <trkpt lat="42.76123" lon="0.17066">
        <ele>1867</ele>
        <time>2019-02-27T11:58:36Z</time>
      </trkpt>
      <trkpt lat="42.76123" lon="0.17066">
        <ele>1867</ele>
        <time>2019-02-27T11:58:37Z</time>
      </trkpt>
      <trkpt lat="42.76123" lon="0.17066">
        <ele>1867</ele>
        <time>2019-02-27T11:58:38Z</time>
      </trkpt>
      <trkpt lat="42.76123" lon="0.17066">
        <ele>1867</ele>
        <time>2019-02-27T11:58:39Z</time>
      </trkpt>
      <trkpt lat="42.76123" lon="0.17066">
        <ele>1867</ele>
        <time>2019-02-27T11:58:40Z</time>
      </trkpt>
      <trkpt lat="42.76123" lon="0.17066">
        <ele>1867</ele>
        <time>2019-02-27T11:58:41Z</time>
      </trkpt>
      <trkpt lat="42.76121" lon="0.17066">
        <ele>1868</ele>
        <time>2019-02-27T11:58:42Z</time>
      </trkpt>
      <trkpt lat="42.76121" lon="0.17066">
        <ele>1868</ele>
        <time>2019-02-27T11:58:43Z</time>
      </trkpt>
      <trkpt lat="42.76121" lon="0.17066">
        <ele>1868</ele>
        <time>2019-02-27T11:58:44Z</time>
      </trkpt>
      <trkpt lat="42.76121" lon="0.17066">
        <ele>1868</ele>
        <time>2019-02-27T11:58:45Z</time>
      </trkpt>
      <trkpt lat="42.76121" lon="0.17066">
        <ele>1867</ele>
        <time>2019-02-27T11:58:46Z</time>
      </trkpt>
      <trkpt lat="42.76121" lon="0.17066">
        <ele>1867</ele>
        <time>2019-02-27T11:58:47Z</time>
      </trkpt>
      <trkpt lat="42.76121" lon="0.17066">
        <ele>1867</ele>
        <time>2019-02-27T11:58:48Z</time>
      </trkpt>
      <trkpt lat="42.76121" lon="0.17066">
        <ele>1867</ele>
        <time>2019-02-27T11:58:49Z</time>
      </trkpt>
      <trkpt lat="42.76119" lon="0.17065">
        <ele>1867</ele>
        <time>2019-02-27T11:58:50Z</time>
      </trkpt>
      <trkpt lat="42.76119" lon="0.17065">
        <ele>1867</ele>
        <time>2019-02-27T11:58:51Z</time>
      </trkpt>
      <trkpt lat="42.76119" lon="0.17065">
        <ele>1867</ele>
        <time>2019-02-27T11:58:52Z</time>
      </trkpt>
      <trkpt lat="42.76119" lon="0.17065">
        <ele>1867</ele>
        <time>2019-02-27T11:58:53Z</time>
      </trkpt>
      <trkpt lat="42.76119" lon="0.17065">
        <ele>1867</ele>
        <time>2019-02-27T11:58:54Z</time>
      </trkpt>
      <trkpt lat="42.76119" lon="0.17065">
        <ele>1867</ele>
        <time>2019-02-27T11:58:55Z</time>
      </trkpt>
      <trkpt lat="42.76119" lon="0.17065">
        <ele>1867</ele>
        <time>2019-02-27T11:58:56Z</time>
      </trkpt>
      <trkpt lat="42.76119" lon="0.17065">
        <ele>1867</ele>
        <time>2019-02-27T11:58:57Z</time>
      </trkpt>
      <trkpt lat="42.76119" lon="0.17065">
        <ele>1867</ele>
        <time>2019-02-27T11:58:58Z</time>
      </trkpt>
      <trkpt lat="42.76119" lon="0.17065">
        <ele>1867</ele>
        <time>2019-02-27T11:58:59Z</time>
      </trkpt>
      <trkpt lat="42.76119" lon="0.17065">
        <ele>1867</ele>
        <time>2019-02-27T11:59:00Z</time>
      </trkpt>
      <trkpt lat="42.76117" lon="0.17064">
        <ele>1867</ele>
        <time>2019-02-27T11:59:01Z</time>
      </trkpt>
      <trkpt lat="42.76117" lon="0.17064">
        <ele>1867</ele>
        <time>2019-02-27T11:59:02Z</time>
      </trkpt>
      <trkpt lat="42.76115" lon="0.17063">
        <ele>1866</ele>
        <time>2019-02-27T11:59:03Z</time>
      </trkpt>
      <trkpt lat="42.76112" lon="0.17061">
        <ele>1865</ele>
        <time>2019-02-27T11:59:04Z</time>
      </trkpt>
      <trkpt lat="42.76109" lon="0.17061">
        <ele>1865</ele>
        <time>2019-02-27T11:59:05Z</time>
      </trkpt>
      <trkpt lat="42.76107" lon="0.1706">
        <ele>1864</ele>
        <time>2019-02-27T11:59:06Z</time>
      </trkpt>
      <trkpt lat="42.76107" lon="0.1706">
        <ele>1864</ele>
        <time>2019-02-27T11:59:07Z</time>
      </trkpt>
      <trkpt lat="42.76104" lon="0.1706">
        <ele>1864</ele>
        <time>2019-02-27T11:59:08Z</time>
      </trkpt>
      <trkpt lat="42.76104" lon="0.1706">
        <ele>1864</ele>
        <time>2019-02-27T11:59:09Z</time>
      </trkpt>
      <trkpt lat="42.76104" lon="0.1706">
        <ele>1864</ele>
        <time>2019-02-27T11:59:10Z</time>
      </trkpt>
      <trkpt lat="42.76104" lon="0.1706">
        <ele>1864</ele>
        <time>2019-02-27T11:59:11Z</time>
      </trkpt>
      <trkpt lat="42.76104" lon="0.1706">
        <ele>1864</ele>
        <time>2019-02-27T11:59:12Z</time>
      </trkpt>
      <trkpt lat="42.76104" lon="0.1706">
        <ele>1864</ele>
        <time>2019-02-27T11:59:13Z</time>
      </trkpt>
      <trkpt lat="42.76104" lon="0.1706">
        <ele>1864</ele>
        <time>2019-02-27T11:59:14Z</time>
      </trkpt>
      <trkpt lat="42.76104" lon="0.1706">
        <ele>1864</ele>
        <time>2019-02-27T11:59:15Z</time>
      </trkpt>
      <trkpt lat="42.76104" lon="0.1706">
        <ele>1864</ele>
        <time>2019-02-27T11:59:16Z</time>
      </trkpt>
      <trkpt lat="42.76104" lon="0.1706">
        <ele>1864</ele>
        <time>2019-02-27T11:59:17Z</time>
      </trkpt>
      <trkpt lat="42.76104" lon="0.1706">
        <ele>1864</ele>
        <time>2019-02-27T11:59:18Z</time>
      </trkpt>
      <trkpt lat="42.76104" lon="0.1706">
        <ele>1864</ele>
        <time>2019-02-27T11:59:19Z</time>
      </trkpt>
      <trkpt lat="42.76104" lon="0.1706">
        <ele>1864</ele>
        <time>2019-02-27T11:59:20Z</time>
      </trkpt>
      <trkpt lat="42.76104" lon="0.1706">
        <ele>1864</ele>
        <time>2019-02-27T11:59:21Z</time>
      </trkpt>
      <trkpt lat="42.76104" lon="0.1706">
        <ele>1864</ele>
        <time>2019-02-27T11:59:22Z</time>
      </trkpt>
      <trkpt lat="42.76104" lon="0.1706">
        <ele>1864</ele>
        <time>2019-02-27T11:59:23Z</time>
      </trkpt>
      <trkpt lat="42.76104" lon="0.1706">
        <ele>1864</ele>
        <time>2019-02-27T11:59:24Z</time>
      </trkpt>
      <trkpt lat="42.76104" lon="0.1706">
        <ele>1864</ele>
        <time>2019-02-27T11:59:25Z</time>
      </trkpt>
      <trkpt lat="42.76104" lon="0.1706">
        <ele>1864</ele>
        <time>2019-02-27T11:59:26Z</time>
      </trkpt>
      <trkpt lat="42.76104" lon="0.1706">
        <ele>1864</ele>
        <time>2019-02-27T11:59:27Z</time>
      </trkpt>
      <trkpt lat="42.76104" lon="0.1706">
        <ele>1864</ele>
        <time>2019-02-27T11:59:28Z</time>
      </trkpt>
      <trkpt lat="42.76104" lon="0.1706">
        <ele>1864</ele>
        <time>2019-02-27T11:59:29Z</time>
      </trkpt>
      <trkpt lat="42.76104" lon="0.1706">
        <ele>1864</ele>
        <time>2019-02-27T11:59:30Z</time>
      </trkpt>
      <trkpt lat="42.76104" lon="0.1706">
        <ele>1864</ele>
        <time>2019-02-27T11:59:31Z</time>
      </trkpt>
      <trkpt lat="42.76104" lon="0.1706">
        <ele>1864</ele>
        <time>2019-02-27T11:59:32Z</time>
      </trkpt>
      <trkpt lat="42.76104" lon="0.1706">
        <ele>1864</ele>
        <time>2019-02-27T11:59:33Z</time>
      </trkpt>
      <trkpt lat="42.76104" lon="0.1706">
        <ele>1864</ele>
        <time>2019-02-27T11:59:34Z</time>
      </trkpt>
      <trkpt lat="42.76104" lon="0.1706">
        <ele>1864</ele>
        <time>2019-02-27T11:59:35Z</time>
      </trkpt>
      <trkpt lat="42.76104" lon="0.1706">
        <ele>1864</ele>
        <time>2019-02-27T11:59:36Z</time>
      </trkpt>
      <trkpt lat="42.76104" lon="0.1706">
        <ele>1864</ele>
        <time>2019-02-27T11:59:37Z</time>
      </trkpt>
      <trkpt lat="42.76104" lon="0.1706">
        <ele>1864</ele>
        <time>2019-02-27T11:59:38Z</time>
      </trkpt>
      <trkpt lat="42.76104" lon="0.1706">
        <ele>1864</ele>
        <time>2019-02-27T11:59:39Z</time>
      </trkpt>
      <trkpt lat="42.76104" lon="0.1706">
        <ele>1864</ele>
        <time>2019-02-27T11:59:40Z</time>
      </trkpt>
      <trkpt lat="42.76104" lon="0.1706">
        <ele>1864</ele>
        <time>2019-02-27T11:59:41Z</time>
      </trkpt>
      <trkpt lat="42.76104" lon="0.1706">
        <ele>1864</ele>
        <time>2019-02-27T11:59:42Z</time>
      </trkpt>
      <trkpt lat="42.76104" lon="0.1706">
        <ele>1864</ele>
        <time>2019-02-27T11:59:43Z</time>
      </trkpt>
      <trkpt lat="42.76104" lon="0.1706">
        <ele>1864</ele>
        <time>2019-02-27T11:59:44Z</time>
      </trkpt>
      <trkpt lat="42.76104" lon="0.1706">
        <ele>1864</ele>
        <time>2019-02-27T11:59:45Z</time>
      </trkpt>
      <trkpt lat="42.76104" lon="0.1706">
        <ele>1864</ele>
        <time>2019-02-27T11:59:46Z</time>
      </trkpt>
      <trkpt lat="42.76104" lon="0.1706">
        <ele>1864</ele>
        <time>2019-02-27T11:59:47Z</time>
      </trkpt>
      <trkpt lat="42.76104" lon="0.1706">
        <ele>1864</ele>
        <time>2019-02-27T11:59:48Z</time>
      </trkpt>
      <trkpt lat="42.76104" lon="0.1706">
        <ele>1864</ele>
        <time>2019-02-27T11:59:49Z</time>
      </trkpt>
      <trkpt lat="42.76104" lon="0.1706">
        <ele>1864</ele>
        <time>2019-02-27T11:59:50Z</time>
      </trkpt>
      <trkpt lat="42.76104" lon="0.1706">
        <ele>1864</ele>
        <time>2019-02-27T11:59:51Z</time>
      </trkpt>
      <trkpt lat="42.76104" lon="0.1706">
        <ele>1864</ele>
        <time>2019-02-27T11:59:52Z</time>
      </trkpt>
      <trkpt lat="42.76104" lon="0.1706">
        <ele>1864</ele>
        <time>2019-02-27T11:59:53Z</time>
      </trkpt>
      <trkpt lat="42.76101" lon="0.17059">
        <ele>1864</ele>
        <time>2019-02-27T11:59:54Z</time>
      </trkpt>
      <trkpt lat="42.76101" lon="0.17059">
        <ele>1864</ele>
        <time>2019-02-27T11:59:55Z</time>
      </trkpt>
      <trkpt lat="42.76101" lon="0.17059">
        <ele>1864</ele>
        <time>2019-02-27T11:59:56Z</time>
      </trkpt>
      <trkpt lat="42.76101" lon="0.17059">
        <ele>1864</ele>
        <time>2019-02-27T11:59:57Z</time>
      </trkpt>
      <trkpt lat="42.76101" lon="0.17059">
        <ele>1864</ele>
        <time>2019-02-27T11:59:58Z</time>
      </trkpt>
      <trkpt lat="42.76101" lon="0.17059">
        <ele>1864</ele>
        <time>2019-02-27T11:59:59Z</time>
      </trkpt>
      <trkpt lat="42.76101" lon="0.17059">
        <ele>1864</ele>
        <time>2019-02-27T12:00:00Z</time>
      </trkpt>
      <trkpt lat="42.76101" lon="0.17059">
        <ele>1864</ele>
        <time>2019-02-27T12:00:01Z</time>
      </trkpt>
      <trkpt lat="42.76101" lon="0.17059">
        <ele>1864</ele>
        <time>2019-02-27T12:00:02Z</time>
      </trkpt>
      <trkpt lat="42.76101" lon="0.17059">
        <ele>1864</ele>
        <time>2019-02-27T12:00:03Z</time>
      </trkpt>
      <trkpt lat="42.76101" lon="0.17059">
        <ele>1864</ele>
        <time>2019-02-27T12:00:04Z</time>
      </trkpt>
      <trkpt lat="42.76101" lon="0.17059">
        <ele>1864</ele>
        <time>2019-02-27T12:00:05Z</time>
      </trkpt>
      <trkpt lat="42.76101" lon="0.17059">
        <ele>1864</ele>
        <time>2019-02-27T12:00:06Z</time>
      </trkpt>
      <trkpt lat="42.76101" lon="0.17059">
        <ele>1864</ele>
        <time>2019-02-27T12:00:07Z</time>
      </trkpt>
      <trkpt lat="42.76101" lon="0.17059">
        <ele>1864</ele>
        <time>2019-02-27T12:00:08Z</time>
      </trkpt>
      <trkpt lat="42.76101" lon="0.17059">
        <ele>1864</ele>
        <time>2019-02-27T12:00:09Z</time>
      </trkpt>
      <trkpt lat="42.76101" lon="0.17059">
        <ele>1864</ele>
        <time>2019-02-27T12:00:10Z</time>
      </trkpt>
      <trkpt lat="42.76101" lon="0.17059">
        <ele>1864</ele>
        <time>2019-02-27T12:00:11Z</time>
      </trkpt>
      <trkpt lat="42.76101" lon="0.17059">
        <ele>1864</ele>
        <time>2019-02-27T12:00:12Z</time>
      </trkpt>
      <trkpt lat="42.76101" lon="0.17059">
        <ele>1864</ele>
        <time>2019-02-27T12:00:13Z</time>
      </trkpt>
      <trkpt lat="42.76101" lon="0.17059">
        <ele>1864</ele>
        <time>2019-02-27T12:00:14Z</time>
      </trkpt>
      <trkpt lat="42.76101" lon="0.17059">
        <ele>1864</ele>
        <time>2019-02-27T12:00:15Z</time>
      </trkpt>
      <trkpt lat="42.76101" lon="0.17059">
        <ele>1864</ele>
        <time>2019-02-27T12:00:16Z</time>
      </trkpt>
      <trkpt lat="42.76101" lon="0.17059">
        <ele>1864</ele>
        <time>2019-02-27T12:00:17Z</time>
      </trkpt>
      <trkpt lat="42.76101" lon="0.17059">
        <ele>1864</ele>
        <time>2019-02-27T12:00:18Z</time>
      </trkpt>
      <trkpt lat="42.76101" lon="0.17059">
        <ele>1864</ele>
        <time>2019-02-27T12:00:19Z</time>
      </trkpt>
      <trkpt lat="42.76101" lon="0.17059">
        <ele>1864</ele>
        <time>2019-02-27T12:00:20Z</time>
      </trkpt>
      <trkpt lat="42.76101" lon="0.17059">
        <ele>1863</ele>
        <time>2019-02-27T12:00:21Z</time>
      </trkpt>
      <trkpt lat="42.76101" lon="0.17059">
        <ele>1863</ele>
        <time>2019-02-27T12:00:22Z</time>
      </trkpt>
      <trkpt lat="42.76101" lon="0.17059">
        <ele>1863</ele>
        <time>2019-02-27T12:00:23Z</time>
      </trkpt>
      <trkpt lat="42.761" lon="0.17056">
        <ele>1862</ele>
        <time>2019-02-27T12:00:24Z</time>
      </trkpt>
      <trkpt lat="42.761" lon="0.17052">
        <ele>1861</ele>
        <time>2019-02-27T12:00:25Z</time>
      </trkpt>
      <trkpt lat="42.761" lon="0.17052">
        <ele>1859</ele>
        <time>2019-02-27T12:00:26Z</time>
      </trkpt>
      <trkpt lat="42.76099" lon="0.17048">
        <ele>1858</ele>
        <time>2019-02-27T12:00:27Z</time>
      </trkpt>
      <trkpt lat="42.76097" lon="0.17046">
        <ele>1858</ele>
        <time>2019-02-27T12:00:28Z</time>
      </trkpt>
      <trkpt lat="42.76096" lon="0.17042">
        <ele>1857</ele>
        <time>2019-02-27T12:00:29Z</time>
      </trkpt>
      <trkpt lat="42.76095" lon="0.17038">
        <ele>1855</ele>
        <time>2019-02-27T12:00:30Z</time>
      </trkpt>
      <trkpt lat="42.76094" lon="0.17033">
        <ele>1853</ele>
        <time>2019-02-27T12:00:31Z</time>
      </trkpt>
      <trkpt lat="42.76092" lon="0.1703">
        <ele>1852</ele>
        <time>2019-02-27T12:00:32Z</time>
      </trkpt>
      <trkpt lat="42.76086" lon="0.17028">
        <ele>1848</ele>
        <time>2019-02-27T12:00:33Z</time>
      </trkpt>
      <trkpt lat="42.76086" lon="0.17028">
        <ele>1846</ele>
        <time>2019-02-27T12:00:34Z</time>
      </trkpt>
      <trkpt lat="42.76086" lon="0.17028">
        <ele>1846</ele>
        <time>2019-02-27T12:00:35Z</time>
      </trkpt>
      <trkpt lat="42.76081" lon="0.17018">
        <ele>1845</ele>
        <time>2019-02-27T12:00:36Z</time>
      </trkpt>
      <trkpt lat="42.76079" lon="0.17011">
        <ele>1844</ele>
        <time>2019-02-27T12:00:37Z</time>
      </trkpt>
      <trkpt lat="42.7608" lon="0.17008">
        <ele>1842</ele>
        <time>2019-02-27T12:00:38Z</time>
      </trkpt>
      <trkpt lat="42.7608" lon="0.17006">
        <ele>1839</ele>
        <time>2019-02-27T12:00:39Z</time>
      </trkpt>
      <trkpt lat="42.7608" lon="0.16996">
        <ele>1837</ele>
        <time>2019-02-27T12:00:40Z</time>
      </trkpt>
      <trkpt lat="42.7608" lon="0.16993">
        <ele>1834</ele>
        <time>2019-02-27T12:00:41Z</time>
      </trkpt>
      <trkpt lat="42.76079" lon="0.1699">
        <ele>1831</ele>
        <time>2019-02-27T12:00:42Z</time>
      </trkpt>
      <trkpt lat="42.76077" lon="0.16982">
        <ele>1828</ele>
        <time>2019-02-27T12:00:43Z</time>
      </trkpt>
      <trkpt lat="42.76077" lon="0.16982">
        <ele>1825</ele>
        <time>2019-02-27T12:00:44Z</time>
      </trkpt>
      <trkpt lat="42.76073" lon="0.16968">
        <ele>1822</ele>
        <time>2019-02-27T12:00:45Z</time>
      </trkpt>
      <trkpt lat="42.76072" lon="0.16965">
        <ele>1819</ele>
        <time>2019-02-27T12:00:46Z</time>
      </trkpt>
      <trkpt lat="42.76072" lon="0.16962">
        <ele>1817</ele>
        <time>2019-02-27T12:00:47Z</time>
      </trkpt>
      <trkpt lat="42.76069" lon="0.16951">
        <ele>1814</ele>
        <time>2019-02-27T12:00:48Z</time>
      </trkpt>
      <trkpt lat="42.76066" lon="0.16948">
        <ele>1810</ele>
        <time>2019-02-27T12:00:49Z</time>
      </trkpt>
      <trkpt lat="42.76059" lon="0.16938">
        <ele>1808</ele>
        <time>2019-02-27T12:00:50Z</time>
      </trkpt>
      <trkpt lat="42.76058" lon="0.16935">
        <ele>1807</ele>
        <time>2019-02-27T12:00:51Z</time>
      </trkpt>
      <trkpt lat="42.76053" lon="0.16924">
        <ele>1802</ele>
        <time>2019-02-27T12:00:52Z</time>
      </trkpt>
      <trkpt lat="42.76051" lon="0.16921">
        <ele>1800</ele>
        <time>2019-02-27T12:00:53Z</time>
      </trkpt>
      <trkpt lat="42.76046" lon="0.16909">
        <ele>1797</ele>
        <time>2019-02-27T12:00:54Z</time>
      </trkpt>
      <trkpt lat="42.76045" lon="0.16906">
        <ele>1795</ele>
        <time>2019-02-27T12:00:55Z</time>
      </trkpt>
      <trkpt lat="42.76041" lon="0.16894">
        <ele>1792</ele>
        <time>2019-02-27T12:00:56Z</time>
      </trkpt>
      <trkpt lat="42.7604" lon="0.1689">
        <ele>1790</ele>
        <time>2019-02-27T12:00:57Z</time>
      </trkpt>
      <trkpt lat="42.76041" lon="0.16882">
        <ele>1790</ele>
        <time>2019-02-27T12:00:58Z</time>
      </trkpt>
      <trkpt lat="42.76044" lon="0.16881">
        <ele>1790</ele>
        <time>2019-02-27T12:00:59Z</time>
      </trkpt>
      <trkpt lat="42.76046" lon="0.16881">
        <ele>1788</ele>
        <time>2019-02-27T12:01:00Z</time>
      </trkpt>
      <trkpt lat="42.76054" lon="0.16879">
        <ele>1786</ele>
        <time>2019-02-27T12:01:01Z</time>
      </trkpt>
      <trkpt lat="42.76054" lon="0.16879">
        <ele>1786</ele>
        <time>2019-02-27T12:01:02Z</time>
      </trkpt>
      <trkpt lat="42.76054" lon="0.16879">
        <ele>1786</ele>
        <time>2019-02-27T12:01:03Z</time>
      </trkpt>
      <trkpt lat="42.76054" lon="0.16879">
        <ele>1786</ele>
        <time>2019-02-27T12:01:04Z</time>
      </trkpt>
      <trkpt lat="42.76062" lon="0.16886">
        <ele>1786</ele>
        <time>2019-02-27T12:01:05Z</time>
      </trkpt>
      <trkpt lat="42.76062" lon="0.16886">
        <ele>1786</ele>
        <time>2019-02-27T12:01:06Z</time>
      </trkpt>
      <trkpt lat="42.76062" lon="0.16886">
        <ele>1786</ele>
        <time>2019-02-27T12:01:07Z</time>
      </trkpt>
      <trkpt lat="42.76062" lon="0.16886">
        <ele>1785</ele>
        <time>2019-02-27T12:01:08Z</time>
      </trkpt>
      <trkpt lat="42.76065" lon="0.16884">
        <ele>1785</ele>
        <time>2019-02-27T12:01:09Z</time>
      </trkpt>
      <trkpt lat="42.76065" lon="0.16884">
        <ele>1786</ele>
        <time>2019-02-27T12:01:10Z</time>
      </trkpt>
      <trkpt lat="42.76065" lon="0.16884">
        <ele>1786</ele>
        <time>2019-02-27T12:01:11Z</time>
      </trkpt>
      <trkpt lat="42.76065" lon="0.16884">
        <ele>1785</ele>
        <time>2019-02-27T12:01:12Z</time>
      </trkpt>
      <trkpt lat="42.76065" lon="0.16884">
        <ele>1785</ele>
        <time>2019-02-27T12:01:13Z</time>
      </trkpt>
      <trkpt lat="42.76065" lon="0.16884">
        <ele>1785</ele>
        <time>2019-02-27T12:01:14Z</time>
      </trkpt>
      <trkpt lat="42.76065" lon="0.16884">
        <ele>1785</ele>
        <time>2019-02-27T12:01:15Z</time>
      </trkpt>
      <trkpt lat="42.76065" lon="0.16884">
        <ele>1785</ele>
        <time>2019-02-27T12:01:16Z</time>
      </trkpt>
      <trkpt lat="42.76065" lon="0.16884">
        <ele>1785</ele>
        <time>2019-02-27T12:01:17Z</time>
      </trkpt>
      <trkpt lat="42.76065" lon="0.16884">
        <ele>1785</ele>
        <time>2019-02-27T12:01:18Z</time>
      </trkpt>
      <trkpt lat="42.76065" lon="0.16884">
        <ele>1785</ele>
        <time>2019-02-27T12:01:19Z</time>
      </trkpt>
      <trkpt lat="42.76065" lon="0.16884">
        <ele>1785</ele>
        <time>2019-02-27T12:01:20Z</time>
      </trkpt>
      <trkpt lat="42.76065" lon="0.16884">
        <ele>1785</ele>
        <time>2019-02-27T12:01:21Z</time>
      </trkpt>
      <trkpt lat="42.76065" lon="0.16884">
        <ele>1785</ele>
        <time>2019-02-27T12:01:22Z</time>
      </trkpt>
      <trkpt lat="42.76065" lon="0.16884">
        <ele>1785</ele>
        <time>2019-02-27T12:01:23Z</time>
      </trkpt>
      <trkpt lat="42.76065" lon="0.16884">
        <ele>1785</ele>
        <time>2019-02-27T12:01:24Z</time>
      </trkpt>
      <trkpt lat="42.76065" lon="0.16884">
        <ele>1785</ele>
        <time>2019-02-27T12:01:25Z</time>
      </trkpt>
      <trkpt lat="42.76065" lon="0.16884">
        <ele>1785</ele>
        <time>2019-02-27T12:01:26Z</time>
      </trkpt>
      <trkpt lat="42.76065" lon="0.16884">
        <ele>1785</ele>
        <time>2019-02-27T12:01:27Z</time>
      </trkpt>
      <trkpt lat="42.76065" lon="0.16884">
        <ele>1785</ele>
        <time>2019-02-27T12:01:28Z</time>
      </trkpt>
      <trkpt lat="42.76065" lon="0.16884">
        <ele>1785</ele>
        <time>2019-02-27T12:01:29Z</time>
      </trkpt>
      <trkpt lat="42.76065" lon="0.16884">
        <ele>1785</ele>
        <time>2019-02-27T12:01:30Z</time>
      </trkpt>
      <trkpt lat="42.76065" lon="0.16884">
        <ele>1785</ele>
        <time>2019-02-27T12:01:31Z</time>
      </trkpt>
      <trkpt lat="42.76065" lon="0.16884">
        <ele>1785</ele>
        <time>2019-02-27T12:01:32Z</time>
      </trkpt>
      <trkpt lat="42.76065" lon="0.16884">
        <ele>1785</ele>
        <time>2019-02-27T12:01:33Z</time>
      </trkpt>
      <trkpt lat="42.76065" lon="0.16884">
        <ele>1785</ele>
        <time>2019-02-27T12:01:34Z</time>
      </trkpt>
      <trkpt lat="42.76065" lon="0.16884">
        <ele>1785</ele>
        <time>2019-02-27T12:01:35Z</time>
      </trkpt>
      <trkpt lat="42.76065" lon="0.16884">
        <ele>1785</ele>
        <time>2019-02-27T12:01:36Z</time>
      </trkpt>
      <trkpt lat="42.76065" lon="0.16884">
        <ele>1785</ele>
        <time>2019-02-27T12:01:37Z</time>
      </trkpt>
      <trkpt lat="42.76065" lon="0.16884">
        <ele>1785</ele>
        <time>2019-02-27T12:01:38Z</time>
      </trkpt>
      <trkpt lat="42.76065" lon="0.16884">
        <ele>1785</ele>
        <time>2019-02-27T12:01:39Z</time>
      </trkpt>
      <trkpt lat="42.76065" lon="0.16884">
        <ele>1785</ele>
        <time>2019-02-27T12:01:40Z</time>
      </trkpt>
      <trkpt lat="42.76065" lon="0.16884">
        <ele>1785</ele>
        <time>2019-02-27T12:01:41Z</time>
      </trkpt>
      <trkpt lat="42.76065" lon="0.16884">
        <ele>1785</ele>
        <time>2019-02-27T12:01:42Z</time>
      </trkpt>
      <trkpt lat="42.76065" lon="0.16884">
        <ele>1785</ele>
        <time>2019-02-27T12:01:43Z</time>
      </trkpt>
      <trkpt lat="42.76065" lon="0.16884">
        <ele>1785</ele>
        <time>2019-02-27T12:01:44Z</time>
      </trkpt>
      <trkpt lat="42.76065" lon="0.16884">
        <ele>1785</ele>
        <time>2019-02-27T12:01:45Z</time>
      </trkpt>
      <trkpt lat="42.76065" lon="0.16884">
        <ele>1785</ele>
        <time>2019-02-27T12:01:46Z</time>
      </trkpt>
      <trkpt lat="42.76065" lon="0.16884">
        <ele>1785</ele>
        <time>2019-02-27T12:01:47Z</time>
      </trkpt>
      <trkpt lat="42.76065" lon="0.16884">
        <ele>1785</ele>
        <time>2019-02-27T12:01:48Z</time>
      </trkpt>
      <trkpt lat="42.76065" lon="0.16884">
        <ele>1785</ele>
        <time>2019-02-27T12:01:49Z</time>
      </trkpt>
      <trkpt lat="42.76065" lon="0.16884">
        <ele>1785</ele>
        <time>2019-02-27T12:01:50Z</time>
      </trkpt>
      <trkpt lat="42.76065" lon="0.16884">
        <ele>1785</ele>
        <time>2019-02-27T12:01:51Z</time>
      </trkpt>
      <trkpt lat="42.76065" lon="0.16884">
        <ele>1785</ele>
        <time>2019-02-27T12:01:52Z</time>
      </trkpt>
      <trkpt lat="42.76065" lon="0.16884">
        <ele>1786</ele>
        <time>2019-02-27T12:01:53Z</time>
      </trkpt>
      <trkpt lat="42.76065" lon="0.16884">
        <ele>1786</ele>
        <time>2019-02-27T12:01:54Z</time>
      </trkpt>
      <trkpt lat="42.76065" lon="0.16884">
        <ele>1786</ele>
        <time>2019-02-27T12:01:55Z</time>
      </trkpt>
      <trkpt lat="42.76065" lon="0.16884">
        <ele>1785</ele>
        <time>2019-02-27T12:01:56Z</time>
      </trkpt>
      <trkpt lat="42.76065" lon="0.16884">
        <ele>1785</ele>
        <time>2019-02-27T12:01:57Z</time>
      </trkpt>
      <trkpt lat="42.76065" lon="0.16884">
        <ele>1785</ele>
        <time>2019-02-27T12:01:58Z</time>
      </trkpt>
      <trkpt lat="42.76065" lon="0.16884">
        <ele>1785</ele>
        <time>2019-02-27T12:01:59Z</time>
      </trkpt>
      <trkpt lat="42.76065" lon="0.16884">
        <ele>1785</ele>
        <time>2019-02-27T12:02:00Z</time>
      </trkpt>
      <trkpt lat="42.76065" lon="0.16884">
        <ele>1785</ele>
        <time>2019-02-27T12:02:01Z</time>
      </trkpt>
      <trkpt lat="42.76065" lon="0.16884">
        <ele>1785</ele>
        <time>2019-02-27T12:02:02Z</time>
      </trkpt>
      <trkpt lat="42.76065" lon="0.16884">
        <ele>1785</ele>
        <time>2019-02-27T12:02:03Z</time>
      </trkpt>
      <trkpt lat="42.76065" lon="0.16884">
        <ele>1785</ele>
        <time>2019-02-27T12:02:04Z</time>
      </trkpt>
      <trkpt lat="42.76065" lon="0.16884">
        <ele>1785</ele>
        <time>2019-02-27T12:02:05Z</time>
      </trkpt>
      <trkpt lat="42.76065" lon="0.16884">
        <ele>1785</ele>
        <time>2019-02-27T12:02:06Z</time>
      </trkpt>
      <trkpt lat="42.76065" lon="0.16884">
        <ele>1785</ele>
        <time>2019-02-27T12:02:07Z</time>
      </trkpt>
      <trkpt lat="42.76065" lon="0.16884">
        <ele>1785</ele>
        <time>2019-02-27T12:02:08Z</time>
      </trkpt>
      <trkpt lat="42.76064" lon="0.16888">
        <ele>1785</ele>
        <time>2019-02-27T12:02:09Z</time>
      </trkpt>
      <trkpt lat="42.76064" lon="0.16888">
        <ele>1785</ele>
        <time>2019-02-27T12:02:10Z</time>
      </trkpt>
      <trkpt lat="42.76064" lon="0.16888">
        <ele>1784</ele>
        <time>2019-02-27T12:02:11Z</time>
      </trkpt>
      <trkpt lat="42.76064" lon="0.16888">
        <ele>1784</ele>
        <time>2019-02-27T12:02:12Z</time>
      </trkpt>
      <trkpt lat="42.76064" lon="0.16888">
        <ele>1784</ele>
        <time>2019-02-27T12:02:13Z</time>
      </trkpt>
      <trkpt lat="42.76064" lon="0.16888">
        <ele>1784</ele>
        <time>2019-02-27T12:02:14Z</time>
      </trkpt>
      <trkpt lat="42.76064" lon="0.16888">
        <ele>1784</ele>
        <time>2019-02-27T12:02:15Z</time>
      </trkpt>
      <trkpt lat="42.76064" lon="0.16888">
        <ele>1784</ele>
        <time>2019-02-27T12:02:16Z</time>
      </trkpt>
      <trkpt lat="42.76064" lon="0.16888">
        <ele>1784</ele>
        <time>2019-02-27T12:02:17Z</time>
      </trkpt>
      <trkpt lat="42.76062" lon="0.16886">
        <ele>1785</ele>
        <time>2019-02-27T12:02:18Z</time>
      </trkpt>
      <trkpt lat="42.76062" lon="0.16886">
        <ele>1785</ele>
        <time>2019-02-27T12:02:19Z</time>
      </trkpt>
      <trkpt lat="42.76062" lon="0.16886">
        <ele>1785</ele>
        <time>2019-02-27T12:02:20Z</time>
      </trkpt>
      <trkpt lat="42.76062" lon="0.16886">
        <ele>1785</ele>
        <time>2019-02-27T12:02:21Z</time>
      </trkpt>
      <trkpt lat="42.76062" lon="0.16886">
        <ele>1785</ele>
        <time>2019-02-27T12:02:22Z</time>
      </trkpt>
      <trkpt lat="42.76062" lon="0.16886">
        <ele>1785</ele>
        <time>2019-02-27T12:02:23Z</time>
      </trkpt>
      <trkpt lat="42.76062" lon="0.16886">
        <ele>1785</ele>
        <time>2019-02-27T12:02:24Z</time>
      </trkpt>
      <trkpt lat="42.76062" lon="0.16886">
        <ele>1785</ele>
        <time>2019-02-27T12:02:25Z</time>
      </trkpt>
      <trkpt lat="42.76062" lon="0.16886">
        <ele>1785</ele>
        <time>2019-02-27T12:02:26Z</time>
      </trkpt>
      <trkpt lat="42.76062" lon="0.16886">
        <ele>1785</ele>
        <time>2019-02-27T12:02:27Z</time>
      </trkpt>
      <trkpt lat="42.76062" lon="0.16886">
        <ele>1785</ele>
        <time>2019-02-27T12:02:28Z</time>
      </trkpt>
      <trkpt lat="42.76062" lon="0.16886">
        <ele>1785</ele>
        <time>2019-02-27T12:02:29Z</time>
      </trkpt>
      <trkpt lat="42.76062" lon="0.16886">
        <ele>1785</ele>
        <time>2019-02-27T12:02:30Z</time>
      </trkpt>
      <trkpt lat="42.76062" lon="0.16886">
        <ele>1785</ele>
        <time>2019-02-27T12:02:31Z</time>
      </trkpt>
      <trkpt lat="42.76062" lon="0.16886">
        <ele>1785</ele>
        <time>2019-02-27T12:02:32Z</time>
      </trkpt>
      <trkpt lat="42.76062" lon="0.16886">
        <ele>1785</ele>
        <time>2019-02-27T12:02:33Z</time>
      </trkpt>
      <trkpt lat="42.76062" lon="0.16886">
        <ele>1785</ele>
        <time>2019-02-27T12:02:34Z</time>
      </trkpt>
      <trkpt lat="42.76062" lon="0.16886">
        <ele>1785</ele>
        <time>2019-02-27T12:02:35Z</time>
      </trkpt>
      <trkpt lat="42.76062" lon="0.16886">
        <ele>1785</ele>
        <time>2019-02-27T12:02:36Z</time>
      </trkpt>
      <trkpt lat="42.76062" lon="0.16886">
        <ele>1785</ele>
        <time>2019-02-27T12:02:37Z</time>
      </trkpt>
      <trkpt lat="42.76062" lon="0.16886">
        <ele>1785</ele>
        <time>2019-02-27T12:02:38Z</time>
      </trkpt>
      <trkpt lat="42.76062" lon="0.16886">
        <ele>1785</ele>
        <time>2019-02-27T12:02:39Z</time>
      </trkpt>
      <trkpt lat="42.76062" lon="0.16886">
        <ele>1785</ele>
        <time>2019-02-27T12:02:40Z</time>
      </trkpt>
      <trkpt lat="42.76062" lon="0.16886">
        <ele>1785</ele>
        <time>2019-02-27T12:02:41Z</time>
      </trkpt>
      <trkpt lat="42.76062" lon="0.16886">
        <ele>1785</ele>
        <time>2019-02-27T12:02:42Z</time>
      </trkpt>
      <trkpt lat="42.76062" lon="0.16886">
        <ele>1785</ele>
        <time>2019-02-27T12:02:43Z</time>
      </trkpt>
      <trkpt lat="42.76062" lon="0.16886">
        <ele>1785</ele>
        <time>2019-02-27T12:02:44Z</time>
      </trkpt>
      <trkpt lat="42.76062" lon="0.16886">
        <ele>1785</ele>
        <time>2019-02-27T12:02:45Z</time>
      </trkpt>
      <trkpt lat="42.76062" lon="0.16886">
        <ele>1785</ele>
        <time>2019-02-27T12:02:46Z</time>
      </trkpt>
      <trkpt lat="42.76062" lon="0.16886">
        <ele>1785</ele>
        <time>2019-02-27T12:02:47Z</time>
      </trkpt>
      <trkpt lat="42.76062" lon="0.16886">
        <ele>1785</ele>
        <time>2019-02-27T12:02:48Z</time>
      </trkpt>
      <trkpt lat="42.76062" lon="0.16886">
        <ele>1785</ele>
        <time>2019-02-27T12:02:49Z</time>
      </trkpt>
      <trkpt lat="42.76062" lon="0.16886">
        <ele>1785</ele>
        <time>2019-02-27T12:02:50Z</time>
      </trkpt>
      <trkpt lat="42.76062" lon="0.16886">
        <ele>1784</ele>
        <time>2019-02-27T12:02:51Z</time>
      </trkpt>
      <trkpt lat="42.76062" lon="0.16886">
        <ele>1784</ele>
        <time>2019-02-27T12:02:52Z</time>
      </trkpt>
      <trkpt lat="42.76062" lon="0.16886">
        <ele>1784</ele>
        <time>2019-02-27T12:02:53Z</time>
      </trkpt>
      <trkpt lat="42.76062" lon="0.16886">
        <ele>1784</ele>
        <time>2019-02-27T12:02:54Z</time>
      </trkpt>
      <trkpt lat="42.76062" lon="0.16886">
        <ele>1784</ele>
        <time>2019-02-27T12:02:55Z</time>
      </trkpt>
      <trkpt lat="42.76062" lon="0.16886">
        <ele>1784</ele>
        <time>2019-02-27T12:02:56Z</time>
      </trkpt>
      <trkpt lat="42.76062" lon="0.16886">
        <ele>1785</ele>
        <time>2019-02-27T12:02:57Z</time>
      </trkpt>
      <trkpt lat="42.76062" lon="0.16886">
        <ele>1785</ele>
        <time>2019-02-27T12:02:58Z</time>
      </trkpt>
      <trkpt lat="42.76062" lon="0.16886">
        <ele>1785</ele>
        <time>2019-02-27T12:02:59Z</time>
      </trkpt>
      <trkpt lat="42.76062" lon="0.16886">
        <ele>1785</ele>
        <time>2019-02-27T12:03:00Z</time>
      </trkpt>
      <trkpt lat="42.76062" lon="0.16886">
        <ele>1785</ele>
        <time>2019-02-27T12:03:01Z</time>
      </trkpt>
      <trkpt lat="42.76062" lon="0.16886">
        <ele>1785</ele>
        <time>2019-02-27T12:03:02Z</time>
      </trkpt>
      <trkpt lat="42.76062" lon="0.16886">
        <ele>1785</ele>
        <time>2019-02-27T12:03:03Z</time>
      </trkpt>
      <trkpt lat="42.76062" lon="0.16886">
        <ele>1785</ele>
        <time>2019-02-27T12:03:04Z</time>
      </trkpt>
      <trkpt lat="42.76062" lon="0.16886">
        <ele>1785</ele>
        <time>2019-02-27T12:03:05Z</time>
      </trkpt>
      <trkpt lat="42.76062" lon="0.16886">
        <ele>1785</ele>
        <time>2019-02-27T12:03:06Z</time>
      </trkpt>
      <trkpt lat="42.76062" lon="0.16886">
        <ele>1785</ele>
        <time>2019-02-27T12:03:07Z</time>
      </trkpt>
      <trkpt lat="42.76062" lon="0.16886">
        <ele>1785</ele>
        <time>2019-02-27T12:03:08Z</time>
      </trkpt>
      <trkpt lat="42.76062" lon="0.16886">
        <ele>1785</ele>
        <time>2019-02-27T12:03:09Z</time>
      </trkpt>
      <trkpt lat="42.76062" lon="0.16886">
        <ele>1785</ele>
        <time>2019-02-27T12:03:10Z</time>
      </trkpt>
      <trkpt lat="42.76062" lon="0.16886">
        <ele>1785</ele>
        <time>2019-02-27T12:03:11Z</time>
      </trkpt>
      <trkpt lat="42.76062" lon="0.16886">
        <ele>1785</ele>
        <time>2019-02-27T12:03:12Z</time>
      </trkpt>
      <trkpt lat="42.76062" lon="0.16886">
        <ele>1785</ele>
        <time>2019-02-27T12:03:13Z</time>
      </trkpt>
      <trkpt lat="42.76062" lon="0.16886">
        <ele>1785</ele>
        <time>2019-02-27T12:03:14Z</time>
      </trkpt>
      <trkpt lat="42.76062" lon="0.16886">
        <ele>1785</ele>
        <time>2019-02-27T12:03:15Z</time>
      </trkpt>
      <trkpt lat="42.76062" lon="0.16886">
        <ele>1785</ele>
        <time>2019-02-27T12:03:16Z</time>
      </trkpt>
      <trkpt lat="42.76062" lon="0.16886">
        <ele>1785</ele>
        <time>2019-02-27T12:03:17Z</time>
      </trkpt>
      <trkpt lat="42.7606" lon="0.16894">
        <ele>1785</ele>
        <time>2019-02-27T12:03:18Z</time>
      </trkpt>
      <trkpt lat="42.7606" lon="0.16894">
        <ele>1785</ele>
        <time>2019-02-27T12:03:19Z</time>
      </trkpt>
      <trkpt lat="42.7606" lon="0.16894">
        <ele>1785</ele>
        <time>2019-02-27T12:03:20Z</time>
      </trkpt>
      <trkpt lat="42.7606" lon="0.16894">
        <ele>1785</ele>
        <time>2019-02-27T12:03:21Z</time>
      </trkpt>
      <trkpt lat="42.7606" lon="0.16894">
        <ele>1785</ele>
        <time>2019-02-27T12:03:22Z</time>
      </trkpt>
      <trkpt lat="42.7606" lon="0.16894">
        <ele>1785</ele>
        <time>2019-02-27T12:03:23Z</time>
      </trkpt>
      <trkpt lat="42.7606" lon="0.16894">
        <ele>1785</ele>
        <time>2019-02-27T12:03:24Z</time>
      </trkpt>
      <trkpt lat="42.7606" lon="0.16894">
        <ele>1785</ele>
        <time>2019-02-27T12:03:25Z</time>
      </trkpt>
      <trkpt lat="42.7606" lon="0.16894">
        <ele>1785</ele>
        <time>2019-02-27T12:03:26Z</time>
      </trkpt>
      <trkpt lat="42.7606" lon="0.16894">
        <ele>1785</ele>
        <time>2019-02-27T12:03:27Z</time>
      </trkpt>
      <trkpt lat="42.7606" lon="0.16894">
        <ele>1785</ele>
        <time>2019-02-27T12:03:28Z</time>
      </trkpt>
      <trkpt lat="42.7606" lon="0.16894">
        <ele>1785</ele>
        <time>2019-02-27T12:03:29Z</time>
      </trkpt>
      <trkpt lat="42.7606" lon="0.16894">
        <ele>1785</ele>
        <time>2019-02-27T12:03:30Z</time>
      </trkpt>
      <trkpt lat="42.7606" lon="0.16894">
        <ele>1785</ele>
        <time>2019-02-27T12:03:31Z</time>
      </trkpt>
      <trkpt lat="42.7606" lon="0.16894">
        <ele>1785</ele>
        <time>2019-02-27T12:03:32Z</time>
      </trkpt>
      <trkpt lat="42.7606" lon="0.16894">
        <ele>1785</ele>
        <time>2019-02-27T12:03:33Z</time>
      </trkpt>
      <trkpt lat="42.7606" lon="0.16894">
        <ele>1785</ele>
        <time>2019-02-27T12:03:34Z</time>
      </trkpt>
      <trkpt lat="42.7606" lon="0.16894">
        <ele>1785</ele>
        <time>2019-02-27T12:03:35Z</time>
      </trkpt>
      <trkpt lat="42.7606" lon="0.16894">
        <ele>1785</ele>
        <time>2019-02-27T12:03:36Z</time>
      </trkpt>
      <trkpt lat="42.7606" lon="0.16894">
        <ele>1785</ele>
        <time>2019-02-27T12:03:37Z</time>
      </trkpt>
      <trkpt lat="42.7606" lon="0.16894">
        <ele>1785</ele>
        <time>2019-02-27T12:03:38Z</time>
      </trkpt>
      <trkpt lat="42.7606" lon="0.16894">
        <ele>1785</ele>
        <time>2019-02-27T12:03:39Z</time>
      </trkpt>
      <trkpt lat="42.7606" lon="0.16894">
        <ele>1786</ele>
        <time>2019-02-27T12:03:40Z</time>
      </trkpt>
      <trkpt lat="42.7606" lon="0.16894">
        <ele>1786</ele>
        <time>2019-02-27T12:03:41Z</time>
      </trkpt>
      <trkpt lat="42.7606" lon="0.16894">
        <ele>1786</ele>
        <time>2019-02-27T12:03:42Z</time>
      </trkpt>
      <trkpt lat="42.7606" lon="0.16894">
        <ele>1786</ele>
        <time>2019-02-27T12:03:43Z</time>
      </trkpt>
      <trkpt lat="42.76061" lon="0.16892">
        <ele>1786</ele>
        <time>2019-02-27T12:03:44Z</time>
      </trkpt>
      <trkpt lat="42.76061" lon="0.16892">
        <ele>1786</ele>
        <time>2019-02-27T12:03:45Z</time>
      </trkpt>
      <trkpt lat="42.76061" lon="0.16892">
        <ele>1786</ele>
        <time>2019-02-27T12:03:46Z</time>
      </trkpt>
      <trkpt lat="42.76061" lon="0.16892">
        <ele>1786</ele>
        <time>2019-02-27T12:03:47Z</time>
      </trkpt>
      <trkpt lat="42.76061" lon="0.16892">
        <ele>1785</ele>
        <time>2019-02-27T12:03:48Z</time>
      </trkpt>
      <trkpt lat="42.76061" lon="0.16892">
        <ele>1785</ele>
        <time>2019-02-27T12:03:49Z</time>
      </trkpt>
      <trkpt lat="42.76061" lon="0.16892">
        <ele>1785</ele>
        <time>2019-02-27T12:03:50Z</time>
      </trkpt>
      <trkpt lat="42.76061" lon="0.16892">
        <ele>1785</ele>
        <time>2019-02-27T12:03:51Z</time>
      </trkpt>
      <trkpt lat="42.76061" lon="0.16892">
        <ele>1785</ele>
        <time>2019-02-27T12:03:52Z</time>
      </trkpt>
      <trkpt lat="42.76061" lon="0.16892">
        <ele>1785</ele>
        <time>2019-02-27T12:03:53Z</time>
      </trkpt>
      <trkpt lat="42.76061" lon="0.16892">
        <ele>1786</ele>
        <time>2019-02-27T12:03:54Z</time>
      </trkpt>
      <trkpt lat="42.76061" lon="0.16892">
        <ele>1786</ele>
        <time>2019-02-27T12:03:55Z</time>
      </trkpt>
      <trkpt lat="42.76061" lon="0.16892">
        <ele>1786</ele>
        <time>2019-02-27T12:03:56Z</time>
      </trkpt>
      <trkpt lat="42.76061" lon="0.16892">
        <ele>1786</ele>
        <time>2019-02-27T12:03:57Z</time>
      </trkpt>
      <trkpt lat="42.76061" lon="0.16892">
        <ele>1786</ele>
        <time>2019-02-27T12:03:58Z</time>
      </trkpt>
      <trkpt lat="42.76061" lon="0.16892">
        <ele>1786</ele>
        <time>2019-02-27T12:03:59Z</time>
      </trkpt>
      <trkpt lat="42.76061" lon="0.16892">
        <ele>1786</ele>
        <time>2019-02-27T12:04:00Z</time>
      </trkpt>
      <trkpt lat="42.76061" lon="0.16892">
        <ele>1785</ele>
        <time>2019-02-27T12:04:01Z</time>
      </trkpt>
      <trkpt lat="42.7606" lon="0.16889">
        <ele>1785</ele>
        <time>2019-02-27T12:04:02Z</time>
      </trkpt>
      <trkpt lat="42.7606" lon="0.16889">
        <ele>1785</ele>
        <time>2019-02-27T12:04:03Z</time>
      </trkpt>
      <trkpt lat="42.7606" lon="0.16889">
        <ele>1785</ele>
        <time>2019-02-27T12:04:04Z</time>
      </trkpt>
      <trkpt lat="42.7606" lon="0.16889">
        <ele>1785</ele>
        <time>2019-02-27T12:04:05Z</time>
      </trkpt>
      <trkpt lat="42.7606" lon="0.16889">
        <ele>1785</ele>
        <time>2019-02-27T12:04:06Z</time>
      </trkpt>
      <trkpt lat="42.7606" lon="0.16889">
        <ele>1785</ele>
        <time>2019-02-27T12:04:07Z</time>
      </trkpt>
      <trkpt lat="42.76059" lon="0.16887">
        <ele>1785</ele>
        <time>2019-02-27T12:04:08Z</time>
      </trkpt>
      <trkpt lat="42.76059" lon="0.16887">
        <ele>1785</ele>
        <time>2019-02-27T12:04:09Z</time>
      </trkpt>
      <trkpt lat="42.76059" lon="0.16887">
        <ele>1785</ele>
        <time>2019-02-27T12:04:10Z</time>
      </trkpt>
      <trkpt lat="42.76059" lon="0.16887">
        <ele>1785</ele>
        <time>2019-02-27T12:04:11Z</time>
      </trkpt>
      <trkpt lat="42.76057" lon="0.16885">
        <ele>1785</ele>
        <time>2019-02-27T12:04:12Z</time>
      </trkpt>
      <trkpt lat="42.76057" lon="0.16885">
        <ele>1785</ele>
        <time>2019-02-27T12:04:13Z</time>
      </trkpt>
      <trkpt lat="42.76057" lon="0.16885">
        <ele>1785</ele>
        <time>2019-02-27T12:04:14Z</time>
      </trkpt>
      <trkpt lat="42.76057" lon="0.16885">
        <ele>1785</ele>
        <time>2019-02-27T12:04:15Z</time>
      </trkpt>
      <trkpt lat="42.76055" lon="0.16883">
        <ele>1785</ele>
        <time>2019-02-27T12:04:16Z</time>
      </trkpt>
      <trkpt lat="42.76055" lon="0.16883">
        <ele>1785</ele>
        <time>2019-02-27T12:04:17Z</time>
      </trkpt>
      <trkpt lat="42.76055" lon="0.16883">
        <ele>1785</ele>
        <time>2019-02-27T12:04:18Z</time>
      </trkpt>
      <trkpt lat="42.76053" lon="0.16881">
        <ele>1785</ele>
        <time>2019-02-27T12:04:19Z</time>
      </trkpt>
      <trkpt lat="42.76053" lon="0.16881">
        <ele>1785</ele>
        <time>2019-02-27T12:04:20Z</time>
      </trkpt>
      <trkpt lat="42.76051" lon="0.1688">
        <ele>1785</ele>
        <time>2019-02-27T12:04:21Z</time>
      </trkpt>
      <trkpt lat="42.76051" lon="0.1688">
        <ele>1785</ele>
        <time>2019-02-27T12:04:22Z</time>
      </trkpt>
      <trkpt lat="42.76048" lon="0.16878">
        <ele>1784</ele>
        <time>2019-02-27T12:04:23Z</time>
      </trkpt>
      <trkpt lat="42.76046" lon="0.16877">
        <ele>1784</ele>
        <time>2019-02-27T12:04:24Z</time>
      </trkpt>
      <trkpt lat="42.76044" lon="0.16875">
        <ele>1784</ele>
        <time>2019-02-27T12:04:25Z</time>
      </trkpt>
      <trkpt lat="42.76041" lon="0.16874">
        <ele>1784</ele>
        <time>2019-02-27T12:04:26Z</time>
      </trkpt>
      <trkpt lat="42.76038" lon="0.16873">
        <ele>1784</ele>
        <time>2019-02-27T12:04:27Z</time>
      </trkpt>
      <trkpt lat="42.76035" lon="0.16872">
        <ele>1784</ele>
        <time>2019-02-27T12:04:28Z</time>
      </trkpt>
      <trkpt lat="42.76032" lon="0.1687">
        <ele>1783</ele>
        <time>2019-02-27T12:04:29Z</time>
      </trkpt>
      <trkpt lat="42.76028" lon="0.16868">
        <ele>1782</ele>
        <time>2019-02-27T12:04:30Z</time>
      </trkpt>
      <trkpt lat="42.76024" lon="0.16865">
        <ele>1782</ele>
        <time>2019-02-27T12:04:31Z</time>
      </trkpt>
      <trkpt lat="42.76019" lon="0.16862">
        <ele>1781</ele>
        <time>2019-02-27T12:04:32Z</time>
      </trkpt>
      <trkpt lat="42.76015" lon="0.16858">
        <ele>1780</ele>
        <time>2019-02-27T12:04:33Z</time>
      </trkpt>
      <trkpt lat="42.76012" lon="0.16854">
        <ele>1780</ele>
        <time>2019-02-27T12:04:34Z</time>
      </trkpt>
      <trkpt lat="42.76009" lon="0.16849">
        <ele>1780</ele>
        <time>2019-02-27T12:04:35Z</time>
      </trkpt>
      <trkpt lat="42.76005" lon="0.16845">
        <ele>1779</ele>
        <time>2019-02-27T12:04:36Z</time>
      </trkpt>
      <trkpt lat="42.76002" lon="0.16841">
        <ele>1778</ele>
        <time>2019-02-27T12:04:37Z</time>
      </trkpt>
      <trkpt lat="42.75998" lon="0.16839">
        <ele>1778</ele>
        <time>2019-02-27T12:04:38Z</time>
      </trkpt>
      <trkpt lat="42.75995" lon="0.16837">
        <ele>1778</ele>
        <time>2019-02-27T12:04:39Z</time>
      </trkpt>
      <trkpt lat="42.75993" lon="0.16835">
        <ele>1778</ele>
        <time>2019-02-27T12:04:40Z</time>
      </trkpt>
      <trkpt lat="42.75991" lon="0.16834">
        <ele>1777</ele>
        <time>2019-02-27T12:04:41Z</time>
      </trkpt>
      <trkpt lat="42.75988" lon="0.16832">
        <ele>1777</ele>
        <time>2019-02-27T12:04:42Z</time>
      </trkpt>
      <trkpt lat="42.75987" lon="0.1683">
        <ele>1777</ele>
        <time>2019-02-27T12:04:43Z</time>
      </trkpt>
      <trkpt lat="42.75985" lon="0.16828">
        <ele>1777</ele>
        <time>2019-02-27T12:04:44Z</time>
      </trkpt>
      <trkpt lat="42.75983" lon="0.16824">
        <ele>1777</ele>
        <time>2019-02-27T12:04:45Z</time>
      </trkpt>
      <trkpt lat="42.75984" lon="0.16819">
        <ele>1776</ele>
        <time>2019-02-27T12:04:46Z</time>
      </trkpt>
      <trkpt lat="42.75983" lon="0.16816">
        <ele>1776</ele>
        <time>2019-02-27T12:04:47Z</time>
      </trkpt>
      <trkpt lat="42.75982" lon="0.16814">
        <ele>1776</ele>
        <time>2019-02-27T12:04:48Z</time>
      </trkpt>
      <trkpt lat="42.75982" lon="0.16814">
        <ele>1775</ele>
        <time>2019-02-27T12:04:49Z</time>
      </trkpt>
      <trkpt lat="42.75981" lon="0.16812">
        <ele>1775</ele>
        <time>2019-02-27T12:04:50Z</time>
      </trkpt>
      <trkpt lat="42.75981" lon="0.16812">
        <ele>1775</ele>
        <time>2019-02-27T12:04:51Z</time>
      </trkpt>
      <trkpt lat="42.75981" lon="0.16812">
        <ele>1775</ele>
        <time>2019-02-27T12:04:52Z</time>
      </trkpt>
      <trkpt lat="42.75981" lon="0.16812">
        <ele>1774</ele>
        <time>2019-02-27T12:04:53Z</time>
      </trkpt>
      <trkpt lat="42.75981" lon="0.16812">
        <ele>1774</ele>
        <time>2019-02-27T12:04:54Z</time>
      </trkpt>
      <trkpt lat="42.75981" lon="0.16812">
        <ele>1774</ele>
        <time>2019-02-27T12:04:55Z</time>
      </trkpt>
      <trkpt lat="42.75981" lon="0.16812">
        <ele>1774</ele>
        <time>2019-02-27T12:04:56Z</time>
      </trkpt>
      <trkpt lat="42.75981" lon="0.16812">
        <ele>1774</ele>
        <time>2019-02-27T12:04:57Z</time>
      </trkpt>
      <trkpt lat="42.75981" lon="0.16812">
        <ele>1774</ele>
        <time>2019-02-27T12:04:58Z</time>
      </trkpt>
      <trkpt lat="42.75981" lon="0.16812">
        <ele>1774</ele>
        <time>2019-02-27T12:04:59Z</time>
      </trkpt>
      <trkpt lat="42.75981" lon="0.16812">
        <ele>1774</ele>
        <time>2019-02-27T12:05:00Z</time>
      </trkpt>
      <trkpt lat="42.75981" lon="0.16812">
        <ele>1774</ele>
        <time>2019-02-27T12:05:01Z</time>
      </trkpt>
      <trkpt lat="42.75981" lon="0.16812">
        <ele>1774</ele>
        <time>2019-02-27T12:05:02Z</time>
      </trkpt>
      <trkpt lat="42.75981" lon="0.16812">
        <ele>1774</ele>
        <time>2019-02-27T12:05:03Z</time>
      </trkpt>
      <trkpt lat="42.75981" lon="0.16812">
        <ele>1774</ele>
        <time>2019-02-27T12:05:04Z</time>
      </trkpt>
      <trkpt lat="42.75981" lon="0.16812">
        <ele>1774</ele>
        <time>2019-02-27T12:05:05Z</time>
      </trkpt>
      <trkpt lat="42.7598" lon="0.16808">
        <ele>1774</ele>
        <time>2019-02-27T12:05:06Z</time>
      </trkpt>
      <trkpt lat="42.7598" lon="0.16808">
        <ele>1774</ele>
        <time>2019-02-27T12:05:07Z</time>
      </trkpt>
      <trkpt lat="42.7598" lon="0.16808">
        <ele>1774</ele>
        <time>2019-02-27T12:05:08Z</time>
      </trkpt>
      <trkpt lat="42.7598" lon="0.16808">
        <ele>1774</ele>
        <time>2019-02-27T12:05:09Z</time>
      </trkpt>
      <trkpt lat="42.7598" lon="0.16808">
        <ele>1774</ele>
        <time>2019-02-27T12:05:10Z</time>
      </trkpt>
      <trkpt lat="42.7598" lon="0.16808">
        <ele>1774</ele>
        <time>2019-02-27T12:05:11Z</time>
      </trkpt>
      <trkpt lat="42.75979" lon="0.16807">
        <ele>1774</ele>
        <time>2019-02-27T12:05:12Z</time>
      </trkpt>
      <trkpt lat="42.75979" lon="0.16807">
        <ele>1774</ele>
        <time>2019-02-27T12:05:13Z</time>
      </trkpt>
      <trkpt lat="42.75979" lon="0.16807">
        <ele>1774</ele>
        <time>2019-02-27T12:05:14Z</time>
      </trkpt>
      <trkpt lat="42.75979" lon="0.16807">
        <ele>1774</ele>
        <time>2019-02-27T12:05:15Z</time>
      </trkpt>
      <trkpt lat="42.75979" lon="0.16807">
        <ele>1774</ele>
        <time>2019-02-27T12:05:16Z</time>
      </trkpt>
      <trkpt lat="42.75979" lon="0.16807">
        <ele>1774</ele>
        <time>2019-02-27T12:05:17Z</time>
      </trkpt>
      <trkpt lat="42.75979" lon="0.16807">
        <ele>1773</ele>
        <time>2019-02-27T12:05:18Z</time>
      </trkpt>
      <trkpt lat="42.75979" lon="0.16807">
        <ele>1773</ele>
        <time>2019-02-27T12:05:19Z</time>
      </trkpt>
      <trkpt lat="42.75977" lon="0.16805">
        <ele>1773</ele>
        <time>2019-02-27T12:05:20Z</time>
      </trkpt>
      <trkpt lat="42.75977" lon="0.16805">
        <ele>1773</ele>
        <time>2019-02-27T12:05:21Z</time>
      </trkpt>
      <trkpt lat="42.75977" lon="0.16805">
        <ele>1773</ele>
        <time>2019-02-27T12:05:22Z</time>
      </trkpt>
      <trkpt lat="42.75977" lon="0.16805">
        <ele>1773</ele>
        <time>2019-02-27T12:05:23Z</time>
      </trkpt>
      <trkpt lat="42.75976" lon="0.16803">
        <ele>1773</ele>
        <time>2019-02-27T12:05:24Z</time>
      </trkpt>
      <trkpt lat="42.75974" lon="0.16801">
        <ele>1773</ele>
        <time>2019-02-27T12:05:25Z</time>
      </trkpt>
      <trkpt lat="42.75972" lon="0.16798">
        <ele>1772</ele>
        <time>2019-02-27T12:05:26Z</time>
      </trkpt>
      <trkpt lat="42.75969" lon="0.16794">
        <ele>1772</ele>
        <time>2019-02-27T12:05:27Z</time>
      </trkpt>
      <trkpt lat="42.75963" lon="0.16788">
        <ele>1772</ele>
        <time>2019-02-27T12:05:28Z</time>
      </trkpt>
      <trkpt lat="42.75961" lon="0.16786">
        <ele>1770</ele>
        <time>2019-02-27T12:05:29Z</time>
      </trkpt>
      <trkpt lat="42.75956" lon="0.16783">
        <ele>1769</ele>
        <time>2019-02-27T12:05:30Z</time>
      </trkpt>
      <trkpt lat="42.75951" lon="0.1678">
        <ele>1768</ele>
        <time>2019-02-27T12:05:31Z</time>
      </trkpt>
      <trkpt lat="42.75946" lon="0.16778">
        <ele>1767</ele>
        <time>2019-02-27T12:05:32Z</time>
      </trkpt>
      <trkpt lat="42.75942" lon="0.16776">
        <ele>1767</ele>
        <time>2019-02-27T12:05:33Z</time>
      </trkpt>
      <trkpt lat="42.7594" lon="0.16775">
        <ele>1767</ele>
        <time>2019-02-27T12:05:34Z</time>
      </trkpt>
      <trkpt lat="42.7594" lon="0.16775">
        <ele>1767</ele>
        <time>2019-02-27T12:05:35Z</time>
      </trkpt>
      <trkpt lat="42.7594" lon="0.16775">
        <ele>1767</ele>
        <time>2019-02-27T12:05:36Z</time>
      </trkpt>
      <trkpt lat="42.7594" lon="0.16775">
        <ele>1767</ele>
        <time>2019-02-27T12:05:37Z</time>
      </trkpt>
      <trkpt lat="42.7594" lon="0.16775">
        <ele>1767</ele>
        <time>2019-02-27T12:05:38Z</time>
      </trkpt>
      <trkpt lat="42.7594" lon="0.16775">
        <ele>1768</ele>
        <time>2019-02-27T12:05:39Z</time>
      </trkpt>
      <trkpt lat="42.7594" lon="0.16775">
        <ele>1768</ele>
        <time>2019-02-27T12:05:40Z</time>
      </trkpt>
      <trkpt lat="42.7594" lon="0.16775">
        <ele>1767</ele>
        <time>2019-02-27T12:05:41Z</time>
      </trkpt>
      <trkpt lat="42.7594" lon="0.16775">
        <ele>1767</ele>
        <time>2019-02-27T12:05:42Z</time>
      </trkpt>
      <trkpt lat="42.7594" lon="0.16775">
        <ele>1767</ele>
        <time>2019-02-27T12:05:43Z</time>
      </trkpt>
      <trkpt lat="42.7594" lon="0.16775">
        <ele>1767</ele>
        <time>2019-02-27T12:05:44Z</time>
      </trkpt>
      <trkpt lat="42.7594" lon="0.16775">
        <ele>1767</ele>
        <time>2019-02-27T12:05:45Z</time>
      </trkpt>
      <trkpt lat="42.7594" lon="0.16775">
        <ele>1767</ele>
        <time>2019-02-27T12:05:46Z</time>
      </trkpt>
      <trkpt lat="42.7594" lon="0.16775">
        <ele>1767</ele>
        <time>2019-02-27T12:05:47Z</time>
      </trkpt>
      <trkpt lat="42.7594" lon="0.16775">
        <ele>1767</ele>
        <time>2019-02-27T12:05:48Z</time>
      </trkpt>
      <trkpt lat="42.7594" lon="0.16775">
        <ele>1767</ele>
        <time>2019-02-27T12:05:49Z</time>
      </trkpt>
      <trkpt lat="42.7594" lon="0.16775">
        <ele>1767</ele>
        <time>2019-02-27T12:05:50Z</time>
      </trkpt>
      <trkpt lat="42.7594" lon="0.16775">
        <ele>1767</ele>
        <time>2019-02-27T12:05:51Z</time>
      </trkpt>
      <trkpt lat="42.7594" lon="0.16775">
        <ele>1767</ele>
        <time>2019-02-27T12:05:52Z</time>
      </trkpt>
      <trkpt lat="42.7594" lon="0.16775">
        <ele>1767</ele>
        <time>2019-02-27T12:05:53Z</time>
      </trkpt>
      <trkpt lat="42.7594" lon="0.16775">
        <ele>1767</ele>
        <time>2019-02-27T12:05:54Z</time>
      </trkpt>
      <trkpt lat="42.7594" lon="0.16775">
        <ele>1767</ele>
        <time>2019-02-27T12:05:55Z</time>
      </trkpt>
      <trkpt lat="42.7594" lon="0.16775">
        <ele>1767</ele>
        <time>2019-02-27T12:05:56Z</time>
      </trkpt>
      <trkpt lat="42.7594" lon="0.16775">
        <ele>1767</ele>
        <time>2019-02-27T12:05:57Z</time>
      </trkpt>
      <trkpt lat="42.7594" lon="0.16775">
        <ele>1767</ele>
        <time>2019-02-27T12:05:58Z</time>
      </trkpt>
      <trkpt lat="42.7594" lon="0.16775">
        <ele>1767</ele>
        <time>2019-02-27T12:05:59Z</time>
      </trkpt>
      <trkpt lat="42.7594" lon="0.16775">
        <ele>1768</ele>
        <time>2019-02-27T12:06:00Z</time>
      </trkpt>
      <trkpt lat="42.7594" lon="0.16775">
        <ele>1766</ele>
        <time>2019-02-27T12:06:01Z</time>
      </trkpt>
      <trkpt lat="42.7594" lon="0.1677">
        <ele>1766</ele>
        <time>2019-02-27T12:06:02Z</time>
      </trkpt>
      <trkpt lat="42.75942" lon="0.16769">
        <ele>1765</ele>
        <time>2019-02-27T12:06:03Z</time>
      </trkpt>
      <trkpt lat="42.75942" lon="0.16769">
        <ele>1763</ele>
        <time>2019-02-27T12:06:04Z</time>
      </trkpt>
      <trkpt lat="42.75942" lon="0.16764">
        <ele>1760</ele>
        <time>2019-02-27T12:06:05Z</time>
      </trkpt>
      <trkpt lat="42.7594" lon="0.16758">
        <ele>1757</ele>
        <time>2019-02-27T12:06:06Z</time>
      </trkpt>
      <trkpt lat="42.75938" lon="0.16752">
        <ele>1756</ele>
        <time>2019-02-27T12:06:07Z</time>
      </trkpt>
      <trkpt lat="42.75937" lon="0.16746">
        <ele>1755</ele>
        <time>2019-02-27T12:06:08Z</time>
      </trkpt>
      <trkpt lat="42.75938" lon="0.16742">
        <ele>1754</ele>
        <time>2019-02-27T12:06:09Z</time>
      </trkpt>
      <trkpt lat="42.75938" lon="0.16742">
        <ele>1753</ele>
        <time>2019-02-27T12:06:10Z</time>
      </trkpt>
      <trkpt lat="42.75938" lon="0.16742">
        <ele>1752</ele>
        <time>2019-02-27T12:06:11Z</time>
      </trkpt>
      <trkpt lat="42.75938" lon="0.16742">
        <ele>1752</ele>
        <time>2019-02-27T12:06:12Z</time>
      </trkpt>
      <trkpt lat="42.75938" lon="0.16742">
        <ele>1752</ele>
        <time>2019-02-27T12:06:13Z</time>
      </trkpt>
      <trkpt lat="42.75939" lon="0.16741">
        <ele>1752</ele>
        <time>2019-02-27T12:06:14Z</time>
      </trkpt>
      <trkpt lat="42.75939" lon="0.16741">
        <ele>1752</ele>
        <time>2019-02-27T12:06:15Z</time>
      </trkpt>
      <trkpt lat="42.75939" lon="0.16741">
        <ele>1752</ele>
        <time>2019-02-27T12:06:16Z</time>
      </trkpt>
      <trkpt lat="42.75939" lon="0.16741">
        <ele>1752</ele>
        <time>2019-02-27T12:06:17Z</time>
      </trkpt>
      <trkpt lat="42.75939" lon="0.16741">
        <ele>1752</ele>
        <time>2019-02-27T12:06:18Z</time>
      </trkpt>
      <trkpt lat="42.75939" lon="0.16741">
        <ele>1752</ele>
        <time>2019-02-27T12:06:19Z</time>
      </trkpt>
      <trkpt lat="42.75939" lon="0.16741">
        <ele>1752</ele>
        <time>2019-02-27T12:06:20Z</time>
      </trkpt>
      <trkpt lat="42.75939" lon="0.16741">
        <ele>1752</ele>
        <time>2019-02-27T12:06:21Z</time>
      </trkpt>
      <trkpt lat="42.75939" lon="0.16741">
        <ele>1752</ele>
        <time>2019-02-27T12:06:22Z</time>
      </trkpt>
      <trkpt lat="42.75939" lon="0.16741">
        <ele>1752</ele>
        <time>2019-02-27T12:06:23Z</time>
      </trkpt>
      <trkpt lat="42.75939" lon="0.16741">
        <ele>1752</ele>
        <time>2019-02-27T12:06:24Z</time>
      </trkpt>
      <trkpt lat="42.75939" lon="0.16741">
        <ele>1752</ele>
        <time>2019-02-27T12:06:25Z</time>
      </trkpt>
      <trkpt lat="42.75939" lon="0.16741">
        <ele>1752</ele>
        <time>2019-02-27T12:06:26Z</time>
      </trkpt>
      <trkpt lat="42.75939" lon="0.16741">
        <ele>1752</ele>
        <time>2019-02-27T12:06:27Z</time>
      </trkpt>
      <trkpt lat="42.75939" lon="0.16741">
        <ele>1752</ele>
        <time>2019-02-27T12:06:28Z</time>
      </trkpt>
      <trkpt lat="42.75939" lon="0.16741">
        <ele>1752</ele>
        <time>2019-02-27T12:06:29Z</time>
      </trkpt>
      <trkpt lat="42.75939" lon="0.16741">
        <ele>1752</ele>
        <time>2019-02-27T12:06:30Z</time>
      </trkpt>
      <trkpt lat="42.75939" lon="0.16741">
        <ele>1752</ele>
        <time>2019-02-27T12:06:31Z</time>
      </trkpt>
      <trkpt lat="42.75939" lon="0.16741">
        <ele>1752</ele>
        <time>2019-02-27T12:06:32Z</time>
      </trkpt>
      <trkpt lat="42.75939" lon="0.16741">
        <ele>1752</ele>
        <time>2019-02-27T12:06:33Z</time>
      </trkpt>
      <trkpt lat="42.75939" lon="0.16741">
        <ele>1752</ele>
        <time>2019-02-27T12:06:34Z</time>
      </trkpt>
      <trkpt lat="42.75939" lon="0.16741">
        <ele>1752</ele>
        <time>2019-02-27T12:06:35Z</time>
      </trkpt>
      <trkpt lat="42.75939" lon="0.16741">
        <ele>1752</ele>
        <time>2019-02-27T12:06:36Z</time>
      </trkpt>
      <trkpt lat="42.75939" lon="0.16741">
        <ele>1752</ele>
        <time>2019-02-27T12:06:37Z</time>
      </trkpt>
      <trkpt lat="42.75939" lon="0.16741">
        <ele>1752</ele>
        <time>2019-02-27T12:06:38Z</time>
      </trkpt>
      <trkpt lat="42.75939" lon="0.16741">
        <ele>1752</ele>
        <time>2019-02-27T12:06:39Z</time>
      </trkpt>
      <trkpt lat="42.75939" lon="0.16741">
        <ele>1752</ele>
        <time>2019-02-27T12:06:40Z</time>
      </trkpt>
      <trkpt lat="42.75939" lon="0.16741">
        <ele>1752</ele>
        <time>2019-02-27T12:06:41Z</time>
      </trkpt>
      <trkpt lat="42.75939" lon="0.16741">
        <ele>1752</ele>
        <time>2019-02-27T12:06:42Z</time>
      </trkpt>
      <trkpt lat="42.75939" lon="0.16741">
        <ele>1752</ele>
        <time>2019-02-27T12:06:43Z</time>
      </trkpt>
      <trkpt lat="42.75938" lon="0.16739">
        <ele>1752</ele>
        <time>2019-02-27T12:06:44Z</time>
      </trkpt>
      <trkpt lat="42.75938" lon="0.16739">
        <ele>1752</ele>
        <time>2019-02-27T12:06:45Z</time>
      </trkpt>
      <trkpt lat="42.75938" lon="0.16739">
        <ele>1752</ele>
        <time>2019-02-27T12:06:46Z</time>
      </trkpt>
      <trkpt lat="42.75938" lon="0.16739">
        <ele>1752</ele>
        <time>2019-02-27T12:06:47Z</time>
      </trkpt>
      <trkpt lat="42.75938" lon="0.16739">
        <ele>1752</ele>
        <time>2019-02-27T12:06:48Z</time>
      </trkpt>
      <trkpt lat="42.75938" lon="0.16739">
        <ele>1752</ele>
        <time>2019-02-27T12:06:49Z</time>
      </trkpt>
      <trkpt lat="42.75938" lon="0.16739">
        <ele>1752</ele>
        <time>2019-02-27T12:06:50Z</time>
      </trkpt>
      <trkpt lat="42.75938" lon="0.16739">
        <ele>1752</ele>
        <time>2019-02-27T12:06:51Z</time>
      </trkpt>
      <trkpt lat="42.75938" lon="0.16739">
        <ele>1752</ele>
        <time>2019-02-27T12:06:52Z</time>
      </trkpt>
      <trkpt lat="42.75938" lon="0.16739">
        <ele>1752</ele>
        <time>2019-02-27T12:06:53Z</time>
      </trkpt>
      <trkpt lat="42.75938" lon="0.16739">
        <ele>1752</ele>
        <time>2019-02-27T12:06:54Z</time>
      </trkpt>
      <trkpt lat="42.75938" lon="0.16739">
        <ele>1752</ele>
        <time>2019-02-27T12:06:55Z</time>
      </trkpt>
      <trkpt lat="42.75938" lon="0.16739">
        <ele>1752</ele>
        <time>2019-02-27T12:06:56Z</time>
      </trkpt>
      <trkpt lat="42.75938" lon="0.16739">
        <ele>1752</ele>
        <time>2019-02-27T12:06:57Z</time>
      </trkpt>
      <trkpt lat="42.75938" lon="0.16739">
        <ele>1752</ele>
        <time>2019-02-27T12:06:58Z</time>
      </trkpt>
      <trkpt lat="42.75938" lon="0.16739">
        <ele>1752</ele>
        <time>2019-02-27T12:06:59Z</time>
      </trkpt>
      <trkpt lat="42.75938" lon="0.16739">
        <ele>1752</ele>
        <time>2019-02-27T12:07:00Z</time>
      </trkpt>
      <trkpt lat="42.75938" lon="0.16739">
        <ele>1752</ele>
        <time>2019-02-27T12:07:01Z</time>
      </trkpt>
      <trkpt lat="42.75938" lon="0.16739">
        <ele>1752</ele>
        <time>2019-02-27T12:07:02Z</time>
      </trkpt>
      <trkpt lat="42.75938" lon="0.16739">
        <ele>1751</ele>
        <time>2019-02-27T12:07:03Z</time>
      </trkpt>
      <trkpt lat="42.75938" lon="0.16739">
        <ele>1751</ele>
        <time>2019-02-27T12:07:04Z</time>
      </trkpt>
      <trkpt lat="42.75938" lon="0.16739">
        <ele>1751</ele>
        <time>2019-02-27T12:07:05Z</time>
      </trkpt>
      <trkpt lat="42.75938" lon="0.16739">
        <ele>1752</ele>
        <time>2019-02-27T12:07:06Z</time>
      </trkpt>
      <trkpt lat="42.75938" lon="0.16739">
        <ele>1752</ele>
        <time>2019-02-27T12:07:07Z</time>
      </trkpt>
      <trkpt lat="42.75938" lon="0.16739">
        <ele>1752</ele>
        <time>2019-02-27T12:07:08Z</time>
      </trkpt>
      <trkpt lat="42.75938" lon="0.16739">
        <ele>1752</ele>
        <time>2019-02-27T12:07:09Z</time>
      </trkpt>
      <trkpt lat="42.75938" lon="0.16739">
        <ele>1752</ele>
        <time>2019-02-27T12:07:10Z</time>
      </trkpt>
      <trkpt lat="42.75938" lon="0.16739">
        <ele>1752</ele>
        <time>2019-02-27T12:07:11Z</time>
      </trkpt>
      <trkpt lat="42.75938" lon="0.16739">
        <ele>1752</ele>
        <time>2019-02-27T12:07:12Z</time>
      </trkpt>
      <trkpt lat="42.75938" lon="0.16739">
        <ele>1752</ele>
        <time>2019-02-27T12:07:13Z</time>
      </trkpt>
      <trkpt lat="42.75938" lon="0.16739">
        <ele>1752</ele>
        <time>2019-02-27T12:07:14Z</time>
      </trkpt>
      <trkpt lat="42.75938" lon="0.16739">
        <ele>1752</ele>
        <time>2019-02-27T12:07:15Z</time>
      </trkpt>
      <trkpt lat="42.75938" lon="0.16739">
        <ele>1752</ele>
        <time>2019-02-27T12:07:16Z</time>
      </trkpt>
      <trkpt lat="42.75938" lon="0.16739">
        <ele>1752</ele>
        <time>2019-02-27T12:07:17Z</time>
      </trkpt>
      <trkpt lat="42.75938" lon="0.16739">
        <ele>1752</ele>
        <time>2019-02-27T12:07:18Z</time>
      </trkpt>
      <trkpt lat="42.75938" lon="0.16739">
        <ele>1752</ele>
        <time>2019-02-27T12:07:19Z</time>
      </trkpt>
      <trkpt lat="42.75938" lon="0.16739">
        <ele>1752</ele>
        <time>2019-02-27T12:07:20Z</time>
      </trkpt>
      <trkpt lat="42.75938" lon="0.16739">
        <ele>1752</ele>
        <time>2019-02-27T12:07:21Z</time>
      </trkpt>
      <trkpt lat="42.75938" lon="0.16739">
        <ele>1752</ele>
        <time>2019-02-27T12:07:22Z</time>
      </trkpt>
      <trkpt lat="42.75938" lon="0.16739">
        <ele>1752</ele>
        <time>2019-02-27T12:07:23Z</time>
      </trkpt>
      <trkpt lat="42.75938" lon="0.16739">
        <ele>1752</ele>
        <time>2019-02-27T12:07:24Z</time>
      </trkpt>
      <trkpt lat="42.75938" lon="0.16739">
        <ele>1752</ele>
        <time>2019-02-27T12:07:25Z</time>
      </trkpt>
      <trkpt lat="42.75938" lon="0.16739">
        <ele>1752</ele>
        <time>2019-02-27T12:07:26Z</time>
      </trkpt>
      <trkpt lat="42.75938" lon="0.16739">
        <ele>1752</ele>
        <time>2019-02-27T12:07:27Z</time>
      </trkpt>
      <trkpt lat="42.75938" lon="0.16739">
        <ele>1752</ele>
        <time>2019-02-27T12:07:28Z</time>
      </trkpt>
      <trkpt lat="42.75938" lon="0.16739">
        <ele>1752</ele>
        <time>2019-02-27T12:07:29Z</time>
      </trkpt>
      <trkpt lat="42.75938" lon="0.16739">
        <ele>1752</ele>
        <time>2019-02-27T12:07:30Z</time>
      </trkpt>
      <trkpt lat="42.75938" lon="0.16739">
        <ele>1752</ele>
        <time>2019-02-27T12:07:31Z</time>
      </trkpt>
      <trkpt lat="42.7594" lon="0.16737">
        <ele>1752</ele>
        <time>2019-02-27T12:07:32Z</time>
      </trkpt>
      <trkpt lat="42.7594" lon="0.16737">
        <ele>1752</ele>
        <time>2019-02-27T12:07:33Z</time>
      </trkpt>
      <trkpt lat="42.7594" lon="0.16737">
        <ele>1752</ele>
        <time>2019-02-27T12:07:34Z</time>
      </trkpt>
      <trkpt lat="42.7594" lon="0.16737">
        <ele>1752</ele>
        <time>2019-02-27T12:07:35Z</time>
      </trkpt>
      <trkpt lat="42.7594" lon="0.16737">
        <ele>1752</ele>
        <time>2019-02-27T12:07:36Z</time>
      </trkpt>
      <trkpt lat="42.7594" lon="0.16737">
        <ele>1752</ele>
        <time>2019-02-27T12:07:37Z</time>
      </trkpt>
      <trkpt lat="42.7594" lon="0.16737">
        <ele>1752</ele>
        <time>2019-02-27T12:07:38Z</time>
      </trkpt>
      <trkpt lat="42.7594" lon="0.16737">
        <ele>1752</ele>
        <time>2019-02-27T12:07:39Z</time>
      </trkpt>
      <trkpt lat="42.7594" lon="0.16737">
        <ele>1752</ele>
        <time>2019-02-27T12:07:40Z</time>
      </trkpt>
      <trkpt lat="42.7594" lon="0.16737">
        <ele>1752</ele>
        <time>2019-02-27T12:07:41Z</time>
      </trkpt>
      <trkpt lat="42.7594" lon="0.16737">
        <ele>1752</ele>
        <time>2019-02-27T12:07:42Z</time>
      </trkpt>
      <trkpt lat="42.7594" lon="0.16737">
        <ele>1752</ele>
        <time>2019-02-27T12:07:43Z</time>
      </trkpt>
      <trkpt lat="42.7594" lon="0.16737">
        <ele>1752</ele>
        <time>2019-02-27T12:07:44Z</time>
      </trkpt>
      <trkpt lat="42.7594" lon="0.16737">
        <ele>1752</ele>
        <time>2019-02-27T12:07:45Z</time>
      </trkpt>
      <trkpt lat="42.7594" lon="0.16737">
        <ele>1752</ele>
        <time>2019-02-27T12:07:46Z</time>
      </trkpt>
      <trkpt lat="42.7594" lon="0.16737">
        <ele>1752</ele>
        <time>2019-02-27T12:07:47Z</time>
      </trkpt>
      <trkpt lat="42.7594" lon="0.16737">
        <ele>1752</ele>
        <time>2019-02-27T12:07:48Z</time>
      </trkpt>
      <trkpt lat="42.7594" lon="0.16737">
        <ele>1752</ele>
        <time>2019-02-27T12:07:49Z</time>
      </trkpt>
      <trkpt lat="42.7594" lon="0.16737">
        <ele>1752</ele>
        <time>2019-02-27T12:07:50Z</time>
      </trkpt>
      <trkpt lat="42.7594" lon="0.16737">
        <ele>1752</ele>
        <time>2019-02-27T12:07:51Z</time>
      </trkpt>
      <trkpt lat="42.7594" lon="0.16737">
        <ele>1752</ele>
        <time>2019-02-27T12:07:52Z</time>
      </trkpt>
      <trkpt lat="42.7594" lon="0.16737">
        <ele>1752</ele>
        <time>2019-02-27T12:07:53Z</time>
      </trkpt>
      <trkpt lat="42.7594" lon="0.16737">
        <ele>1752</ele>
        <time>2019-02-27T12:07:54Z</time>
      </trkpt>
      <trkpt lat="42.7594" lon="0.16737">
        <ele>1752</ele>
        <time>2019-02-27T12:07:55Z</time>
      </trkpt>
      <trkpt lat="42.7594" lon="0.16731">
        <ele>1743</ele>
        <time>2019-02-27T12:07:56Z</time>
      </trkpt>
      <trkpt lat="42.7594" lon="0.16729">
        <ele>1740</ele>
        <time>2019-02-27T12:07:57Z</time>
      </trkpt>
      <trkpt lat="42.75939" lon="0.16727">
        <ele>1743</ele>
        <time>2019-02-27T12:07:58Z</time>
      </trkpt>
      <trkpt lat="42.75939" lon="0.16725">
        <ele>1737</ele>
        <time>2019-02-27T12:07:59Z</time>
      </trkpt>
      <trkpt lat="42.75939" lon="0.16715">
        <ele>1735</ele>
        <time>2019-02-27T12:08:00Z</time>
      </trkpt>
      <trkpt lat="42.75939" lon="0.16713">
        <ele>1737</ele>
        <time>2019-02-27T12:08:01Z</time>
      </trkpt>
      <trkpt lat="42.75939" lon="0.1671">
        <ele>1736</ele>
        <time>2019-02-27T12:08:02Z</time>
      </trkpt>
      <trkpt lat="42.75939" lon="0.16703">
        <ele>1724</ele>
        <time>2019-02-27T12:08:03Z</time>
      </trkpt>
      <trkpt lat="42.75939" lon="0.16703">
        <ele>1722</ele>
        <time>2019-02-27T12:08:04Z</time>
      </trkpt>
      <trkpt lat="42.75936" lon="0.16687">
        <ele>1726</ele>
        <time>2019-02-27T12:08:05Z</time>
      </trkpt>
      <trkpt lat="42.75937" lon="0.16684">
        <ele>1726</ele>
        <time>2019-02-27T12:08:06Z</time>
      </trkpt>
      <trkpt lat="42.75937" lon="0.16682">
        <ele>1726</ele>
        <time>2019-02-27T12:08:07Z</time>
      </trkpt>
      <trkpt lat="42.75939" lon="0.16674">
        <ele>1723</ele>
        <time>2019-02-27T12:08:08Z</time>
      </trkpt>
      <trkpt lat="42.75939" lon="0.16674">
        <ele>1719</ele>
        <time>2019-02-27T12:08:09Z</time>
      </trkpt>
      <trkpt lat="42.75929" lon="0.16661">
        <ele>1717</ele>
        <time>2019-02-27T12:08:10Z</time>
      </trkpt>
      <trkpt lat="42.75927" lon="0.16657">
        <ele>1714</ele>
        <time>2019-02-27T12:08:11Z</time>
      </trkpt>
      <trkpt lat="42.75921" lon="0.1665">
        <ele>1713</ele>
        <time>2019-02-27T12:08:12Z</time>
      </trkpt>
      <trkpt lat="42.75921" lon="0.1665">
        <ele>1712</ele>
        <time>2019-02-27T12:08:13Z</time>
      </trkpt>
      <trkpt lat="42.75921" lon="0.1665">
        <ele>1713</ele>
        <time>2019-02-27T12:08:14Z</time>
      </trkpt>
      <trkpt lat="42.75927" lon="0.16641">
        <ele>1714</ele>
        <time>2019-02-27T12:08:15Z</time>
      </trkpt>
      <trkpt lat="42.75935" lon="0.16646">
        <ele>1714</ele>
        <time>2019-02-27T12:08:16Z</time>
      </trkpt>
      <trkpt lat="42.75935" lon="0.16646">
        <ele>1714</ele>
        <time>2019-02-27T12:08:17Z</time>
      </trkpt>
      <trkpt lat="42.75935" lon="0.16646">
        <ele>1714</ele>
        <time>2019-02-27T12:08:18Z</time>
      </trkpt>
      <trkpt lat="42.75935" lon="0.16646">
        <ele>1714</ele>
        <time>2019-02-27T12:08:19Z</time>
      </trkpt>
      <trkpt lat="42.75935" lon="0.16646">
        <ele>1714</ele>
        <time>2019-02-27T12:08:20Z</time>
      </trkpt>
      <trkpt lat="42.75935" lon="0.16646">
        <ele>1714</ele>
        <time>2019-02-27T12:08:21Z</time>
      </trkpt>
      <trkpt lat="42.75935" lon="0.16646">
        <ele>1713</ele>
        <time>2019-02-27T12:08:22Z</time>
      </trkpt>
      <trkpt lat="42.75935" lon="0.16646">
        <ele>1713</ele>
        <time>2019-02-27T12:08:23Z</time>
      </trkpt>
      <trkpt lat="42.75935" lon="0.16646">
        <ele>1714</ele>
        <time>2019-02-27T12:08:24Z</time>
      </trkpt>
      <trkpt lat="42.75935" lon="0.16646">
        <ele>1714</ele>
        <time>2019-02-27T12:08:25Z</time>
      </trkpt>
      <trkpt lat="42.75935" lon="0.16646">
        <ele>1714</ele>
        <time>2019-02-27T12:08:26Z</time>
      </trkpt>
      <trkpt lat="42.75935" lon="0.16646">
        <ele>1714</ele>
        <time>2019-02-27T12:08:27Z</time>
      </trkpt>
      <trkpt lat="42.75935" lon="0.16646">
        <ele>1714</ele>
        <time>2019-02-27T12:08:28Z</time>
      </trkpt>
      <trkpt lat="42.75935" lon="0.16646">
        <ele>1714</ele>
        <time>2019-02-27T12:08:29Z</time>
      </trkpt>
      <trkpt lat="42.75935" lon="0.16646">
        <ele>1714</ele>
        <time>2019-02-27T12:08:30Z</time>
      </trkpt>
      <trkpt lat="42.75935" lon="0.16646">
        <ele>1713</ele>
        <time>2019-02-27T12:08:31Z</time>
      </trkpt>
      <trkpt lat="42.75935" lon="0.16646">
        <ele>1713</ele>
        <time>2019-02-27T12:08:32Z</time>
      </trkpt>
      <trkpt lat="42.75935" lon="0.16646">
        <ele>1713</ele>
        <time>2019-02-27T12:08:33Z</time>
      </trkpt>
      <trkpt lat="42.75935" lon="0.16646">
        <ele>1714</ele>
        <time>2019-02-27T12:08:34Z</time>
      </trkpt>
      <trkpt lat="42.75935" lon="0.16646">
        <ele>1714</ele>
        <time>2019-02-27T12:08:35Z</time>
      </trkpt>
      <trkpt lat="42.75935" lon="0.16646">
        <ele>1714</ele>
        <time>2019-02-27T12:08:36Z</time>
      </trkpt>
      <trkpt lat="42.75935" lon="0.16646">
        <ele>1714</ele>
        <time>2019-02-27T12:08:37Z</time>
      </trkpt>
      <trkpt lat="42.75935" lon="0.16646">
        <ele>1714</ele>
        <time>2019-02-27T12:08:38Z</time>
      </trkpt>
      <trkpt lat="42.75935" lon="0.16646">
        <ele>1714</ele>
        <time>2019-02-27T12:08:39Z</time>
      </trkpt>
      <trkpt lat="42.75935" lon="0.16646">
        <ele>1714</ele>
        <time>2019-02-27T12:08:40Z</time>
      </trkpt>
      <trkpt lat="42.75935" lon="0.16646">
        <ele>1714</ele>
        <time>2019-02-27T12:08:41Z</time>
      </trkpt>
      <trkpt lat="42.75935" lon="0.16646">
        <ele>1714</ele>
        <time>2019-02-27T12:08:42Z</time>
      </trkpt>
      <trkpt lat="42.75935" lon="0.16646">
        <ele>1714</ele>
        <time>2019-02-27T12:08:43Z</time>
      </trkpt>
      <trkpt lat="42.75935" lon="0.16646">
        <ele>1714</ele>
        <time>2019-02-27T12:08:44Z</time>
      </trkpt>
      <trkpt lat="42.75935" lon="0.16646">
        <ele>1714</ele>
        <time>2019-02-27T12:08:45Z</time>
      </trkpt>
      <trkpt lat="42.75935" lon="0.16646">
        <ele>1714</ele>
        <time>2019-02-27T12:08:46Z</time>
      </trkpt>
      <trkpt lat="42.75943" lon="0.16647">
        <ele>1714</ele>
        <time>2019-02-27T12:08:47Z</time>
      </trkpt>
      <trkpt lat="42.75943" lon="0.16647">
        <ele>1714</ele>
        <time>2019-02-27T12:08:48Z</time>
      </trkpt>
      <trkpt lat="42.75943" lon="0.16647">
        <ele>1713</ele>
        <time>2019-02-27T12:08:49Z</time>
      </trkpt>
      <trkpt lat="42.75943" lon="0.16647">
        <ele>1713</ele>
        <time>2019-02-27T12:08:50Z</time>
      </trkpt>
      <trkpt lat="42.75943" lon="0.16647">
        <ele>1713</ele>
        <time>2019-02-27T12:08:51Z</time>
      </trkpt>
      <trkpt lat="42.75943" lon="0.16647">
        <ele>1713</ele>
        <time>2019-02-27T12:08:52Z</time>
      </trkpt>
      <trkpt lat="42.75943" lon="0.16647">
        <ele>1713</ele>
        <time>2019-02-27T12:08:53Z</time>
      </trkpt>
      <trkpt lat="42.75943" lon="0.16647">
        <ele>1713</ele>
        <time>2019-02-27T12:08:54Z</time>
      </trkpt>
      <trkpt lat="42.75943" lon="0.16647">
        <ele>1714</ele>
        <time>2019-02-27T12:08:55Z</time>
      </trkpt>
      <trkpt lat="42.75943" lon="0.16647">
        <ele>1714</ele>
        <time>2019-02-27T12:08:56Z</time>
      </trkpt>
      <trkpt lat="42.75943" lon="0.16647">
        <ele>1714</ele>
        <time>2019-02-27T12:08:57Z</time>
      </trkpt>
      <trkpt lat="42.75943" lon="0.16647">
        <ele>1713</ele>
        <time>2019-02-27T12:08:58Z</time>
      </trkpt>
      <trkpt lat="42.75943" lon="0.16647">
        <ele>1713</ele>
        <time>2019-02-27T12:08:59Z</time>
      </trkpt>
      <trkpt lat="42.75943" lon="0.16647">
        <ele>1713</ele>
        <time>2019-02-27T12:09:00Z</time>
      </trkpt>
      <trkpt lat="42.75943" lon="0.16647">
        <ele>1713</ele>
        <time>2019-02-27T12:09:01Z</time>
      </trkpt>
      <trkpt lat="42.75943" lon="0.16647">
        <ele>1713</ele>
        <time>2019-02-27T12:09:02Z</time>
      </trkpt>
      <trkpt lat="42.75943" lon="0.16647">
        <ele>1713</ele>
        <time>2019-02-27T12:09:03Z</time>
      </trkpt>
      <trkpt lat="42.75943" lon="0.16647">
        <ele>1714</ele>
        <time>2019-02-27T12:09:04Z</time>
      </trkpt>
      <trkpt lat="42.75943" lon="0.16647">
        <ele>1714</ele>
        <time>2019-02-27T12:09:05Z</time>
      </trkpt>
      <trkpt lat="42.75943" lon="0.16647">
        <ele>1714</ele>
        <time>2019-02-27T12:09:06Z</time>
      </trkpt>
      <trkpt lat="42.75943" lon="0.16647">
        <ele>1714</ele>
        <time>2019-02-27T12:09:07Z</time>
      </trkpt>
      <trkpt lat="42.75943" lon="0.16647">
        <ele>1714</ele>
        <time>2019-02-27T12:09:08Z</time>
      </trkpt>
      <trkpt lat="42.75943" lon="0.16647">
        <ele>1714</ele>
        <time>2019-02-27T12:09:09Z</time>
      </trkpt>
      <trkpt lat="42.75943" lon="0.16647">
        <ele>1714</ele>
        <time>2019-02-27T12:09:10Z</time>
      </trkpt>
      <trkpt lat="42.75943" lon="0.16647">
        <ele>1714</ele>
        <time>2019-02-27T12:09:11Z</time>
      </trkpt>
      <trkpt lat="42.75941" lon="0.16646">
        <ele>1714</ele>
        <time>2019-02-27T12:09:12Z</time>
      </trkpt>
      <trkpt lat="42.75941" lon="0.16646">
        <ele>1714</ele>
        <time>2019-02-27T12:09:13Z</time>
      </trkpt>
      <trkpt lat="42.75941" lon="0.16646">
        <ele>1714</ele>
        <time>2019-02-27T12:09:14Z</time>
      </trkpt>
      <trkpt lat="42.75941" lon="0.16646">
        <ele>1714</ele>
        <time>2019-02-27T12:09:15Z</time>
      </trkpt>
      <trkpt lat="42.75941" lon="0.16646">
        <ele>1714</ele>
        <time>2019-02-27T12:09:16Z</time>
      </trkpt>
      <trkpt lat="42.75941" lon="0.16646">
        <ele>1714</ele>
        <time>2019-02-27T12:09:17Z</time>
      </trkpt>
      <trkpt lat="42.75941" lon="0.16646">
        <ele>1714</ele>
        <time>2019-02-27T12:09:18Z</time>
      </trkpt>
      <trkpt lat="42.75941" lon="0.16646">
        <ele>1714</ele>
        <time>2019-02-27T12:09:19Z</time>
      </trkpt>
      <trkpt lat="42.75941" lon="0.16646">
        <ele>1714</ele>
        <time>2019-02-27T12:09:20Z</time>
      </trkpt>
      <trkpt lat="42.75941" lon="0.16646">
        <ele>1714</ele>
        <time>2019-02-27T12:09:21Z</time>
      </trkpt>
      <trkpt lat="42.75941" lon="0.16646">
        <ele>1714</ele>
        <time>2019-02-27T12:09:22Z</time>
      </trkpt>
      <trkpt lat="42.75941" lon="0.16646">
        <ele>1714</ele>
        <time>2019-02-27T12:09:23Z</time>
      </trkpt>
      <trkpt lat="42.75941" lon="0.16646">
        <ele>1714</ele>
        <time>2019-02-27T12:09:24Z</time>
      </trkpt>
      <trkpt lat="42.75941" lon="0.16646">
        <ele>1714</ele>
        <time>2019-02-27T12:09:25Z</time>
      </trkpt>
      <trkpt lat="42.75941" lon="0.16646">
        <ele>1714</ele>
        <time>2019-02-27T12:09:26Z</time>
      </trkpt>
      <trkpt lat="42.75941" lon="0.16646">
        <ele>1714</ele>
        <time>2019-02-27T12:09:27Z</time>
      </trkpt>
      <trkpt lat="42.75941" lon="0.16646">
        <ele>1714</ele>
        <time>2019-02-27T12:09:28Z</time>
      </trkpt>
      <trkpt lat="42.75941" lon="0.16646">
        <ele>1714</ele>
        <time>2019-02-27T12:09:29Z</time>
      </trkpt>
      <trkpt lat="42.75941" lon="0.16646">
        <ele>1714</ele>
        <time>2019-02-27T12:09:30Z</time>
      </trkpt>
      <trkpt lat="42.75941" lon="0.16646">
        <ele>1714</ele>
        <time>2019-02-27T12:09:31Z</time>
      </trkpt>
      <trkpt lat="42.75941" lon="0.16646">
        <ele>1714</ele>
        <time>2019-02-27T12:09:32Z</time>
      </trkpt>
      <trkpt lat="42.75941" lon="0.16646">
        <ele>1714</ele>
        <time>2019-02-27T12:09:33Z</time>
      </trkpt>
      <trkpt lat="42.7594" lon="0.16648">
        <ele>1714</ele>
        <time>2019-02-27T12:09:34Z</time>
      </trkpt>
      <trkpt lat="42.7594" lon="0.16648">
        <ele>1714</ele>
        <time>2019-02-27T12:09:35Z</time>
      </trkpt>
      <trkpt lat="42.7594" lon="0.16648">
        <ele>1714</ele>
        <time>2019-02-27T12:09:36Z</time>
      </trkpt>
      <trkpt lat="42.7594" lon="0.16648">
        <ele>1714</ele>
        <time>2019-02-27T12:09:37Z</time>
      </trkpt>
      <trkpt lat="42.7594" lon="0.16648">
        <ele>1714</ele>
        <time>2019-02-27T12:09:38Z</time>
      </trkpt>
      <trkpt lat="42.7594" lon="0.16648">
        <ele>1714</ele>
        <time>2019-02-27T12:09:39Z</time>
      </trkpt>
      <trkpt lat="42.7594" lon="0.16648">
        <ele>1714</ele>
        <time>2019-02-27T12:09:40Z</time>
      </trkpt>
      <trkpt lat="42.7594" lon="0.16648">
        <ele>1714</ele>
        <time>2019-02-27T12:09:41Z</time>
      </trkpt>
      <trkpt lat="42.7594" lon="0.16648">
        <ele>1714</ele>
        <time>2019-02-27T12:09:42Z</time>
      </trkpt>
      <trkpt lat="42.7594" lon="0.16648">
        <ele>1714</ele>
        <time>2019-02-27T12:09:43Z</time>
      </trkpt>
      <trkpt lat="42.7594" lon="0.16648">
        <ele>1714</ele>
        <time>2019-02-27T12:09:44Z</time>
      </trkpt>
      <trkpt lat="42.7594" lon="0.16648">
        <ele>1714</ele>
        <time>2019-02-27T12:09:45Z</time>
      </trkpt>
      <trkpt lat="42.7594" lon="0.16648">
        <ele>1714</ele>
        <time>2019-02-27T12:09:46Z</time>
      </trkpt>
      <trkpt lat="42.75938" lon="0.1665">
        <ele>1714</ele>
        <time>2019-02-27T12:09:47Z</time>
      </trkpt>
      <trkpt lat="42.75938" lon="0.1665">
        <ele>1714</ele>
        <time>2019-02-27T12:09:48Z</time>
      </trkpt>
      <trkpt lat="42.75938" lon="0.1665">
        <ele>1714</ele>
        <time>2019-02-27T12:09:49Z</time>
      </trkpt>
      <trkpt lat="42.75936" lon="0.16651">
        <ele>1714</ele>
        <time>2019-02-27T12:09:50Z</time>
      </trkpt>
      <trkpt lat="42.75936" lon="0.16651">
        <ele>1714</ele>
        <time>2019-02-27T12:09:51Z</time>
      </trkpt>
      <trkpt lat="42.75936" lon="0.16651">
        <ele>1714</ele>
        <time>2019-02-27T12:09:52Z</time>
      </trkpt>
      <trkpt lat="42.75934" lon="0.16652">
        <ele>1714</ele>
        <time>2019-02-27T12:09:53Z</time>
      </trkpt>
      <trkpt lat="42.75934" lon="0.16652">
        <ele>1714</ele>
        <time>2019-02-27T12:09:54Z</time>
      </trkpt>
      <trkpt lat="42.75934" lon="0.16652">
        <ele>1714</ele>
        <time>2019-02-27T12:09:55Z</time>
      </trkpt>
      <trkpt lat="42.75932" lon="0.16653">
        <ele>1714</ele>
        <time>2019-02-27T12:09:56Z</time>
      </trkpt>
      <trkpt lat="42.75932" lon="0.16653">
        <ele>1714</ele>
        <time>2019-02-27T12:09:57Z</time>
      </trkpt>
      <trkpt lat="42.75932" lon="0.16653">
        <ele>1714</ele>
        <time>2019-02-27T12:09:58Z</time>
      </trkpt>
      <trkpt lat="42.75932" lon="0.16653">
        <ele>1714</ele>
        <time>2019-02-27T12:09:59Z</time>
      </trkpt>
      <trkpt lat="42.75932" lon="0.16653">
        <ele>1714</ele>
        <time>2019-02-27T12:10:00Z</time>
      </trkpt>
      <trkpt lat="42.75932" lon="0.16653">
        <ele>1714</ele>
        <time>2019-02-27T12:10:01Z</time>
      </trkpt>
      <trkpt lat="42.75932" lon="0.16653">
        <ele>1714</ele>
        <time>2019-02-27T12:10:02Z</time>
      </trkpt>
      <trkpt lat="42.75932" lon="0.16653">
        <ele>1714</ele>
        <time>2019-02-27T12:10:03Z</time>
      </trkpt>
      <trkpt lat="42.75932" lon="0.16653">
        <ele>1714</ele>
        <time>2019-02-27T12:10:04Z</time>
      </trkpt>
      <trkpt lat="42.75932" lon="0.16653">
        <ele>1714</ele>
        <time>2019-02-27T12:10:05Z</time>
      </trkpt>
      <trkpt lat="42.75932" lon="0.16653">
        <ele>1714</ele>
        <time>2019-02-27T12:10:06Z</time>
      </trkpt>
      <trkpt lat="42.75932" lon="0.16653">
        <ele>1714</ele>
        <time>2019-02-27T12:10:07Z</time>
      </trkpt>
      <trkpt lat="42.75932" lon="0.16653">
        <ele>1714</ele>
        <time>2019-02-27T12:10:08Z</time>
      </trkpt>
      <trkpt lat="42.75932" lon="0.16653">
        <ele>1714</ele>
        <time>2019-02-27T12:10:09Z</time>
      </trkpt>
      <trkpt lat="42.75933" lon="0.16654">
        <ele>1714</ele>
        <time>2019-02-27T12:10:10Z</time>
      </trkpt>
      <trkpt lat="42.75933" lon="0.16654">
        <ele>1714</ele>
        <time>2019-02-27T12:10:11Z</time>
      </trkpt>
      <trkpt lat="42.75936" lon="0.16655">
        <ele>1714</ele>
        <time>2019-02-27T12:10:12Z</time>
      </trkpt>
      <trkpt lat="42.75936" lon="0.16655">
        <ele>1714</ele>
        <time>2019-02-27T12:10:13Z</time>
      </trkpt>
      <trkpt lat="42.75936" lon="0.16655">
        <ele>1714</ele>
        <time>2019-02-27T12:10:14Z</time>
      </trkpt>
      <trkpt lat="42.75936" lon="0.16655">
        <ele>1714</ele>
        <time>2019-02-27T12:10:15Z</time>
      </trkpt>
      <trkpt lat="42.75936" lon="0.16655">
        <ele>1714</ele>
        <time>2019-02-27T12:10:16Z</time>
      </trkpt>
      <trkpt lat="42.75936" lon="0.16655">
        <ele>1714</ele>
        <time>2019-02-27T12:10:17Z</time>
      </trkpt>
      <trkpt lat="42.75936" lon="0.16655">
        <ele>1714</ele>
        <time>2019-02-27T12:10:18Z</time>
      </trkpt>
      <trkpt lat="42.75936" lon="0.16655">
        <ele>1714</ele>
        <time>2019-02-27T12:10:19Z</time>
      </trkpt>
      <trkpt lat="42.75936" lon="0.16655">
        <ele>1714</ele>
        <time>2019-02-27T12:10:20Z</time>
      </trkpt>
      <trkpt lat="42.75936" lon="0.16655">
        <ele>1714</ele>
        <time>2019-02-27T12:10:21Z</time>
      </trkpt>
      <trkpt lat="42.75936" lon="0.16655">
        <ele>1714</ele>
        <time>2019-02-27T12:10:22Z</time>
      </trkpt>
      <trkpt lat="42.75938" lon="0.16656">
        <ele>1714</ele>
        <time>2019-02-27T12:10:23Z</time>
      </trkpt>
      <trkpt lat="42.75938" lon="0.16656">
        <ele>1714</ele>
        <time>2019-02-27T12:10:24Z</time>
      </trkpt>
      <trkpt lat="42.75938" lon="0.16656">
        <ele>1714</ele>
        <time>2019-02-27T12:10:25Z</time>
      </trkpt>
      <trkpt lat="42.75938" lon="0.16656">
        <ele>1714</ele>
        <time>2019-02-27T12:10:26Z</time>
      </trkpt>
      <trkpt lat="42.75938" lon="0.16659">
        <ele>1714</ele>
        <time>2019-02-27T12:10:27Z</time>
      </trkpt>
      <trkpt lat="42.75938" lon="0.16659">
        <ele>1714</ele>
        <time>2019-02-27T12:10:28Z</time>
      </trkpt>
      <trkpt lat="42.75938" lon="0.16659">
        <ele>1714</ele>
        <time>2019-02-27T12:10:29Z</time>
      </trkpt>
      <trkpt lat="42.75936" lon="0.16659">
        <ele>1714</ele>
        <time>2019-02-27T12:10:30Z</time>
      </trkpt>
      <trkpt lat="42.75936" lon="0.16659">
        <ele>1714</ele>
        <time>2019-02-27T12:10:31Z</time>
      </trkpt>
      <trkpt lat="42.75933" lon="0.1666">
        <ele>1714</ele>
        <time>2019-02-27T12:10:32Z</time>
      </trkpt>
      <trkpt lat="42.75933" lon="0.1666">
        <ele>1714</ele>
        <time>2019-02-27T12:10:33Z</time>
      </trkpt>
      <trkpt lat="42.7593" lon="0.16661">
        <ele>1714</ele>
        <time>2019-02-27T12:10:34Z</time>
      </trkpt>
      <trkpt lat="42.7593" lon="0.16661">
        <ele>1714</ele>
        <time>2019-02-27T12:10:35Z</time>
      </trkpt>
      <trkpt lat="42.75927" lon="0.16662">
        <ele>1714</ele>
        <time>2019-02-27T12:10:36Z</time>
      </trkpt>
      <trkpt lat="42.75927" lon="0.16662">
        <ele>1714</ele>
        <time>2019-02-27T12:10:37Z</time>
      </trkpt>
      <trkpt lat="42.75927" lon="0.16662">
        <ele>1714</ele>
        <time>2019-02-27T12:10:38Z</time>
      </trkpt>
      <trkpt lat="42.75927" lon="0.16662">
        <ele>1714</ele>
        <time>2019-02-27T12:10:39Z</time>
      </trkpt>
      <trkpt lat="42.75927" lon="0.16662">
        <ele>1714</ele>
        <time>2019-02-27T12:10:40Z</time>
      </trkpt>
      <trkpt lat="42.75927" lon="0.16662">
        <ele>1714</ele>
        <time>2019-02-27T12:10:41Z</time>
      </trkpt>
      <trkpt lat="42.75925" lon="0.16663">
        <ele>1714</ele>
        <time>2019-02-27T12:10:42Z</time>
      </trkpt>
      <trkpt lat="42.75925" lon="0.16663">
        <ele>1714</ele>
        <time>2019-02-27T12:10:43Z</time>
      </trkpt>
      <trkpt lat="42.75925" lon="0.16663">
        <ele>1714</ele>
        <time>2019-02-27T12:10:44Z</time>
      </trkpt>
      <trkpt lat="42.75923" lon="0.16661">
        <ele>1714</ele>
        <time>2019-02-27T12:10:45Z</time>
      </trkpt>
      <trkpt lat="42.75923" lon="0.16661">
        <ele>1715</ele>
        <time>2019-02-27T12:10:46Z</time>
      </trkpt>
      <trkpt lat="42.75923" lon="0.16661">
        <ele>1715</ele>
        <time>2019-02-27T12:10:47Z</time>
      </trkpt>
      <trkpt lat="42.75923" lon="0.16661">
        <ele>1714</ele>
        <time>2019-02-27T12:10:48Z</time>
      </trkpt>
      <trkpt lat="42.75923" lon="0.16661">
        <ele>1714</ele>
        <time>2019-02-27T12:10:49Z</time>
      </trkpt>
      <trkpt lat="42.75923" lon="0.16661">
        <ele>1713</ele>
        <time>2019-02-27T12:10:50Z</time>
      </trkpt>
      <trkpt lat="42.75923" lon="0.16661">
        <ele>1713</ele>
        <time>2019-02-27T12:10:51Z</time>
      </trkpt>
      <trkpt lat="42.75923" lon="0.16661">
        <ele>1713</ele>
        <time>2019-02-27T12:10:52Z</time>
      </trkpt>
      <trkpt lat="42.75923" lon="0.16661">
        <ele>1713</ele>
        <time>2019-02-27T12:10:53Z</time>
      </trkpt>
      <trkpt lat="42.75923" lon="0.16661">
        <ele>1713</ele>
        <time>2019-02-27T12:10:54Z</time>
      </trkpt>
      <trkpt lat="42.75923" lon="0.16661">
        <ele>1713</ele>
        <time>2019-02-27T12:10:55Z</time>
      </trkpt>
      <trkpt lat="42.75923" lon="0.16661">
        <ele>1713</ele>
        <time>2019-02-27T12:10:56Z</time>
      </trkpt>
      <trkpt lat="42.75923" lon="0.16661">
        <ele>1713</ele>
        <time>2019-02-27T12:10:57Z</time>
      </trkpt>
      <trkpt lat="42.75925" lon="0.16663">
        <ele>1713</ele>
        <time>2019-02-27T12:10:58Z</time>
      </trkpt>
      <trkpt lat="42.75925" lon="0.16663">
        <ele>1713</ele>
        <time>2019-02-27T12:10:59Z</time>
      </trkpt>
      <trkpt lat="42.75925" lon="0.16663">
        <ele>1713</ele>
        <time>2019-02-27T12:11:00Z</time>
      </trkpt>
      <trkpt lat="42.75925" lon="0.16663">
        <ele>1713</ele>
        <time>2019-02-27T12:11:01Z</time>
      </trkpt>
      <trkpt lat="42.75924" lon="0.16661">
        <ele>1713</ele>
        <time>2019-02-27T12:11:02Z</time>
      </trkpt>
      <trkpt lat="42.75924" lon="0.16661">
        <ele>1713</ele>
        <time>2019-02-27T12:11:03Z</time>
      </trkpt>
      <trkpt lat="42.75924" lon="0.16661">
        <ele>1713</ele>
        <time>2019-02-27T12:11:04Z</time>
      </trkpt>
      <trkpt lat="42.75924" lon="0.16661">
        <ele>1713</ele>
        <time>2019-02-27T12:11:05Z</time>
      </trkpt>
      <trkpt lat="42.75924" lon="0.16661">
        <ele>1713</ele>
        <time>2019-02-27T12:11:06Z</time>
      </trkpt>
      <trkpt lat="42.75924" lon="0.16661">
        <ele>1713</ele>
        <time>2019-02-27T12:11:07Z</time>
      </trkpt>
      <trkpt lat="42.75924" lon="0.16661">
        <ele>1713</ele>
        <time>2019-02-27T12:11:08Z</time>
      </trkpt>
      <trkpt lat="42.75924" lon="0.16661">
        <ele>1712</ele>
        <time>2019-02-27T12:11:09Z</time>
      </trkpt>
      <trkpt lat="42.75927" lon="0.16667">
        <ele>1712</ele>
        <time>2019-02-27T12:11:10Z</time>
      </trkpt>
      <trkpt lat="42.75928" lon="0.16667">
        <ele>1712</ele>
        <time>2019-02-27T12:11:11Z</time>
      </trkpt>
      <trkpt lat="42.75928" lon="0.16667">
        <ele>1713</ele>
        <time>2019-02-27T12:11:12Z</time>
      </trkpt>
      <trkpt lat="42.75929" lon="0.16667">
        <ele>1713</ele>
        <time>2019-02-27T12:11:13Z</time>
      </trkpt>
      <trkpt lat="42.7593" lon="0.16667">
        <ele>1712</ele>
        <time>2019-02-27T12:11:14Z</time>
      </trkpt>
      <trkpt lat="42.7593" lon="0.16667">
        <ele>1712</ele>
        <time>2019-02-27T12:11:15Z</time>
      </trkpt>
      <trkpt lat="42.75931" lon="0.16667">
        <ele>1713</ele>
        <time>2019-02-27T12:11:16Z</time>
      </trkpt>
      <trkpt lat="42.75932" lon="0.16667">
        <ele>1713</ele>
        <time>2019-02-27T12:11:17Z</time>
      </trkpt>
      <trkpt lat="42.75937" lon="0.16667">
        <ele>1713</ele>
        <time>2019-02-27T12:11:18Z</time>
      </trkpt>
      <trkpt lat="42.75937" lon="0.16667">
        <ele>1713</ele>
        <time>2019-02-27T12:11:19Z</time>
      </trkpt>
      <trkpt lat="42.75937" lon="0.16667">
        <ele>1713</ele>
        <time>2019-02-27T12:11:20Z</time>
      </trkpt>
      <trkpt lat="42.75937" lon="0.16667">
        <ele>1713</ele>
        <time>2019-02-27T12:11:21Z</time>
      </trkpt>
      <trkpt lat="42.75937" lon="0.16667">
        <ele>1713</ele>
        <time>2019-02-27T12:11:22Z</time>
      </trkpt>
      <trkpt lat="42.75929" lon="0.16663">
        <ele>1713</ele>
        <time>2019-02-27T12:11:23Z</time>
      </trkpt>
      <trkpt lat="42.75929" lon="0.16663">
        <ele>1713</ele>
        <time>2019-02-27T12:11:24Z</time>
      </trkpt>
      <trkpt lat="42.75929" lon="0.16663">
        <ele>1714</ele>
        <time>2019-02-27T12:11:25Z</time>
      </trkpt>
      <trkpt lat="42.75929" lon="0.16663">
        <ele>1714</ele>
        <time>2019-02-27T12:11:26Z</time>
      </trkpt>
      <trkpt lat="42.75929" lon="0.16663">
        <ele>1714</ele>
        <time>2019-02-27T12:11:27Z</time>
      </trkpt>
      <trkpt lat="42.75929" lon="0.16663">
        <ele>1714</ele>
        <time>2019-02-27T12:11:28Z</time>
      </trkpt>
      <trkpt lat="42.75927" lon="0.16663">
        <ele>1713</ele>
        <time>2019-02-27T12:11:29Z</time>
      </trkpt>
      <trkpt lat="42.75927" lon="0.16663">
        <ele>1712</ele>
        <time>2019-02-27T12:11:30Z</time>
      </trkpt>
      <trkpt lat="42.75927" lon="0.16663">
        <ele>1713</ele>
        <time>2019-02-27T12:11:31Z</time>
      </trkpt>
      <trkpt lat="42.75927" lon="0.16663">
        <ele>1713</ele>
        <time>2019-02-27T12:11:32Z</time>
      </trkpt>
      <trkpt lat="42.75927" lon="0.16663">
        <ele>1713</ele>
        <time>2019-02-27T12:11:33Z</time>
      </trkpt>
      <trkpt lat="42.75926" lon="0.16666">
        <ele>1713</ele>
        <time>2019-02-27T12:11:34Z</time>
      </trkpt>
      <trkpt lat="42.75926" lon="0.16666">
        <ele>1713</ele>
        <time>2019-02-27T12:11:35Z</time>
      </trkpt>
      <trkpt lat="42.75926" lon="0.16666">
        <ele>1713</ele>
        <time>2019-02-27T12:11:36Z</time>
      </trkpt>
      <trkpt lat="42.75926" lon="0.16666">
        <ele>1713</ele>
        <time>2019-02-27T12:11:37Z</time>
      </trkpt>
      <trkpt lat="42.75926" lon="0.16666">
        <ele>1713</ele>
        <time>2019-02-27T12:11:38Z</time>
      </trkpt>
      <trkpt lat="42.75926" lon="0.16666">
        <ele>1713</ele>
        <time>2019-02-27T12:11:39Z</time>
      </trkpt>
      <trkpt lat="42.75926" lon="0.16666">
        <ele>1713</ele>
        <time>2019-02-27T12:11:40Z</time>
      </trkpt>
      <trkpt lat="42.75926" lon="0.16666">
        <ele>1713</ele>
        <time>2019-02-27T12:11:41Z</time>
      </trkpt>
      <trkpt lat="42.75926" lon="0.16666">
        <ele>1713</ele>
        <time>2019-02-27T12:11:42Z</time>
      </trkpt>
      <trkpt lat="42.75926" lon="0.16666">
        <ele>1713</ele>
        <time>2019-02-27T12:11:43Z</time>
      </trkpt>
      <trkpt lat="42.75926" lon="0.16666">
        <ele>1713</ele>
        <time>2019-02-27T12:11:44Z</time>
      </trkpt>
      <trkpt lat="42.75926" lon="0.16666">
        <ele>1713</ele>
        <time>2019-02-27T12:11:45Z</time>
      </trkpt>
      <trkpt lat="42.75926" lon="0.16666">
        <ele>1713</ele>
        <time>2019-02-27T12:11:46Z</time>
      </trkpt>
      <trkpt lat="42.75926" lon="0.16666">
        <ele>1713</ele>
        <time>2019-02-27T12:11:47Z</time>
      </trkpt>
      <trkpt lat="42.75926" lon="0.16666">
        <ele>1713</ele>
        <time>2019-02-27T12:11:48Z</time>
      </trkpt>
      <trkpt lat="42.75926" lon="0.16666">
        <ele>1713</ele>
        <time>2019-02-27T12:11:49Z</time>
      </trkpt>
      <trkpt lat="42.75926" lon="0.16666">
        <ele>1713</ele>
        <time>2019-02-27T12:11:50Z</time>
      </trkpt>
      <trkpt lat="42.75926" lon="0.16666">
        <ele>1713</ele>
        <time>2019-02-27T12:11:51Z</time>
      </trkpt>
      <trkpt lat="42.75926" lon="0.16666">
        <ele>1713</ele>
        <time>2019-02-27T12:11:52Z</time>
      </trkpt>
      <trkpt lat="42.75926" lon="0.16666">
        <ele>1713</ele>
        <time>2019-02-27T12:11:53Z</time>
      </trkpt>
      <trkpt lat="42.75926" lon="0.16666">
        <ele>1713</ele>
        <time>2019-02-27T12:11:54Z</time>
      </trkpt>
      <trkpt lat="42.75926" lon="0.16666">
        <ele>1713</ele>
        <time>2019-02-27T12:11:55Z</time>
      </trkpt>
      <trkpt lat="42.75926" lon="0.16666">
        <ele>1713</ele>
        <time>2019-02-27T12:11:56Z</time>
      </trkpt>
      <trkpt lat="42.75926" lon="0.16666">
        <ele>1713</ele>
        <time>2019-02-27T12:11:57Z</time>
      </trkpt>
      <trkpt lat="42.75926" lon="0.16666">
        <ele>1713</ele>
        <time>2019-02-27T12:11:58Z</time>
      </trkpt>
      <trkpt lat="42.75926" lon="0.16666">
        <ele>1713</ele>
        <time>2019-02-27T12:11:59Z</time>
      </trkpt>
      <trkpt lat="42.75926" lon="0.16666">
        <ele>1713</ele>
        <time>2019-02-27T12:12:00Z</time>
      </trkpt>
      <trkpt lat="42.75926" lon="0.16666">
        <ele>1713</ele>
        <time>2019-02-27T12:12:01Z</time>
      </trkpt>
      <trkpt lat="42.75926" lon="0.16666">
        <ele>1713</ele>
        <time>2019-02-27T12:12:02Z</time>
      </trkpt>
      <trkpt lat="42.75926" lon="0.16666">
        <ele>1714</ele>
        <time>2019-02-27T12:12:03Z</time>
      </trkpt>
      <trkpt lat="42.75926" lon="0.16666">
        <ele>1714</ele>
        <time>2019-02-27T12:12:04Z</time>
      </trkpt>
      <trkpt lat="42.75926" lon="0.16666">
        <ele>1714</ele>
        <time>2019-02-27T12:12:05Z</time>
      </trkpt>
      <trkpt lat="42.75926" lon="0.16666">
        <ele>1714</ele>
        <time>2019-02-27T12:12:06Z</time>
      </trkpt>
      <trkpt lat="42.75926" lon="0.16666">
        <ele>1714</ele>
        <time>2019-02-27T12:12:07Z</time>
      </trkpt>
      <trkpt lat="42.75926" lon="0.16666">
        <ele>1714</ele>
        <time>2019-02-27T12:12:08Z</time>
      </trkpt>
      <trkpt lat="42.75926" lon="0.16666">
        <ele>1714</ele>
        <time>2019-02-27T12:12:09Z</time>
      </trkpt>
      <trkpt lat="42.75926" lon="0.16666">
        <ele>1714</ele>
        <time>2019-02-27T12:12:10Z</time>
      </trkpt>
      <trkpt lat="42.75926" lon="0.16666">
        <ele>1714</ele>
        <time>2019-02-27T12:12:11Z</time>
      </trkpt>
      <trkpt lat="42.75926" lon="0.16666">
        <ele>1714</ele>
        <time>2019-02-27T12:12:12Z</time>
      </trkpt>
      <trkpt lat="42.75921" lon="0.16664">
        <ele>1714</ele>
        <time>2019-02-27T12:12:13Z</time>
      </trkpt>
      <trkpt lat="42.75921" lon="0.16664">
        <ele>1714</ele>
        <time>2019-02-27T12:12:14Z</time>
      </trkpt>
      <trkpt lat="42.75921" lon="0.16664">
        <ele>1714</ele>
        <time>2019-02-27T12:12:15Z</time>
      </trkpt>
      <trkpt lat="42.75921" lon="0.16664">
        <ele>1714</ele>
        <time>2019-02-27T12:12:16Z</time>
      </trkpt>
      <trkpt lat="42.75921" lon="0.16664">
        <ele>1714</ele>
        <time>2019-02-27T12:12:17Z</time>
      </trkpt>
      <trkpt lat="42.75921" lon="0.16664">
        <ele>1714</ele>
        <time>2019-02-27T12:12:18Z</time>
      </trkpt>
      <trkpt lat="42.75921" lon="0.16664">
        <ele>1714</ele>
        <time>2019-02-27T12:12:19Z</time>
      </trkpt>
      <trkpt lat="42.75921" lon="0.16664">
        <ele>1714</ele>
        <time>2019-02-27T12:12:20Z</time>
      </trkpt>
      <trkpt lat="42.75921" lon="0.16664">
        <ele>1714</ele>
        <time>2019-02-27T12:12:21Z</time>
      </trkpt>
      <trkpt lat="42.75921" lon="0.16664">
        <ele>1714</ele>
        <time>2019-02-27T12:12:22Z</time>
      </trkpt>
      <trkpt lat="42.75921" lon="0.16664">
        <ele>1714</ele>
        <time>2019-02-27T12:12:23Z</time>
      </trkpt>
      <trkpt lat="42.75921" lon="0.16664">
        <ele>1714</ele>
        <time>2019-02-27T12:12:24Z</time>
      </trkpt>
      <trkpt lat="42.75921" lon="0.16664">
        <ele>1714</ele>
        <time>2019-02-27T12:12:25Z</time>
      </trkpt>
      <trkpt lat="42.75921" lon="0.16664">
        <ele>1714</ele>
        <time>2019-02-27T12:12:26Z</time>
      </trkpt>
      <trkpt lat="42.75921" lon="0.16664">
        <ele>1714</ele>
        <time>2019-02-27T12:12:27Z</time>
      </trkpt>
      <trkpt lat="42.75921" lon="0.16664">
        <ele>1714</ele>
        <time>2019-02-27T12:12:28Z</time>
      </trkpt>
      <trkpt lat="42.75921" lon="0.16664">
        <ele>1714</ele>
        <time>2019-02-27T12:12:29Z</time>
      </trkpt>
      <trkpt lat="42.75921" lon="0.16664">
        <ele>1714</ele>
        <time>2019-02-27T12:12:30Z</time>
      </trkpt>
      <trkpt lat="42.75921" lon="0.16664">
        <ele>1714</ele>
        <time>2019-02-27T12:12:31Z</time>
      </trkpt>
      <trkpt lat="42.75921" lon="0.16664">
        <ele>1714</ele>
        <time>2019-02-27T12:12:32Z</time>
      </trkpt>
      <trkpt lat="42.75921" lon="0.16664">
        <ele>1714</ele>
        <time>2019-02-27T12:12:33Z</time>
      </trkpt>
      <trkpt lat="42.75921" lon="0.16664">
        <ele>1714</ele>
        <time>2019-02-27T12:12:34Z</time>
      </trkpt>
      <trkpt lat="42.75921" lon="0.16664">
        <ele>1714</ele>
        <time>2019-02-27T12:12:35Z</time>
      </trkpt>
      <trkpt lat="42.75921" lon="0.16664">
        <ele>1714</ele>
        <time>2019-02-27T12:12:36Z</time>
      </trkpt>
      <trkpt lat="42.75921" lon="0.16664">
        <ele>1714</ele>
        <time>2019-02-27T12:12:37Z</time>
      </trkpt>
      <trkpt lat="42.75921" lon="0.16664">
        <ele>1714</ele>
        <time>2019-02-27T12:12:38Z</time>
      </trkpt>
      <trkpt lat="42.75921" lon="0.16664">
        <ele>1714</ele>
        <time>2019-02-27T12:12:39Z</time>
      </trkpt>
      <trkpt lat="42.75921" lon="0.16664">
        <ele>1714</ele>
        <time>2019-02-27T12:12:40Z</time>
      </trkpt>
      <trkpt lat="42.75921" lon="0.16664">
        <ele>1714</ele>
        <time>2019-02-27T12:12:41Z</time>
      </trkpt>
      <trkpt lat="42.75921" lon="0.16664">
        <ele>1714</ele>
        <time>2019-02-27T12:12:42Z</time>
      </trkpt>
      <trkpt lat="42.75921" lon="0.16664">
        <ele>1713</ele>
        <time>2019-02-27T12:12:43Z</time>
      </trkpt>
      <trkpt lat="42.75921" lon="0.16664">
        <ele>1714</ele>
        <time>2019-02-27T12:12:44Z</time>
      </trkpt>
      <trkpt lat="42.75921" lon="0.16664">
        <ele>1714</ele>
        <time>2019-02-27T12:12:45Z</time>
      </trkpt>
      <trkpt lat="42.75921" lon="0.16664">
        <ele>1714</ele>
        <time>2019-02-27T12:12:46Z</time>
      </trkpt>
      <trkpt lat="42.75923" lon="0.16663">
        <ele>1714</ele>
        <time>2019-02-27T12:12:47Z</time>
      </trkpt>
      <trkpt lat="42.75923" lon="0.16663">
        <ele>1714</ele>
        <time>2019-02-27T12:12:48Z</time>
      </trkpt>
      <trkpt lat="42.75923" lon="0.16663">
        <ele>1714</ele>
        <time>2019-02-27T12:12:49Z</time>
      </trkpt>
      <trkpt lat="42.75925" lon="0.16665">
        <ele>1714</ele>
        <time>2019-02-27T12:12:50Z</time>
      </trkpt>
      <trkpt lat="42.75927" lon="0.16664">
        <ele>1714</ele>
        <time>2019-02-27T12:12:51Z</time>
      </trkpt>
      <trkpt lat="42.75927" lon="0.16664">
        <ele>1714</ele>
        <time>2019-02-27T12:12:52Z</time>
      </trkpt>
      <trkpt lat="42.75927" lon="0.16664">
        <ele>1714</ele>
        <time>2019-02-27T12:12:53Z</time>
      </trkpt>
      <trkpt lat="42.75927" lon="0.16664">
        <ele>1714</ele>
        <time>2019-02-27T12:12:54Z</time>
      </trkpt>
      <trkpt lat="42.7593" lon="0.16665">
        <ele>1714</ele>
        <time>2019-02-27T12:12:55Z</time>
      </trkpt>
      <trkpt lat="42.7593" lon="0.16665">
        <ele>1714</ele>
        <time>2019-02-27T12:12:56Z</time>
      </trkpt>
      <trkpt lat="42.7593" lon="0.16665">
        <ele>1714</ele>
        <time>2019-02-27T12:12:57Z</time>
      </trkpt>
      <trkpt lat="42.7593" lon="0.16665">
        <ele>1714</ele>
        <time>2019-02-27T12:12:58Z</time>
      </trkpt>
      <trkpt lat="42.7593" lon="0.16665">
        <ele>1714</ele>
        <time>2019-02-27T12:12:59Z</time>
      </trkpt>
      <trkpt lat="42.75928" lon="0.16665">
        <ele>1714</ele>
        <time>2019-02-27T12:13:00Z</time>
      </trkpt>
      <trkpt lat="42.75928" lon="0.16665">
        <ele>1714</ele>
        <time>2019-02-27T12:13:01Z</time>
      </trkpt>
      <trkpt lat="42.75926" lon="0.16663">
        <ele>1714</ele>
        <time>2019-02-27T12:13:02Z</time>
      </trkpt>
      <trkpt lat="42.75926" lon="0.16663">
        <ele>1714</ele>
        <time>2019-02-27T12:13:03Z</time>
      </trkpt>
      <trkpt lat="42.75926" lon="0.16663">
        <ele>1714</ele>
        <time>2019-02-27T12:13:04Z</time>
      </trkpt>
      <trkpt lat="42.75926" lon="0.16663">
        <ele>1714</ele>
        <time>2019-02-27T12:13:05Z</time>
      </trkpt>
      <trkpt lat="42.75926" lon="0.16663">
        <ele>1713</ele>
        <time>2019-02-27T12:13:06Z</time>
      </trkpt>
      <trkpt lat="42.75924" lon="0.16663">
        <ele>1713</ele>
        <time>2019-02-27T12:13:07Z</time>
      </trkpt>
      <trkpt lat="42.75924" lon="0.16663">
        <ele>1713</ele>
        <time>2019-02-27T12:13:08Z</time>
      </trkpt>
      <trkpt lat="42.75924" lon="0.16663">
        <ele>1713</ele>
        <time>2019-02-27T12:13:09Z</time>
      </trkpt>
      <trkpt lat="42.75924" lon="0.16663">
        <ele>1713</ele>
        <time>2019-02-27T12:13:10Z</time>
      </trkpt>
      <trkpt lat="42.75924" lon="0.16663">
        <ele>1713</ele>
        <time>2019-02-27T12:13:11Z</time>
      </trkpt>
      <trkpt lat="42.75924" lon="0.16663">
        <ele>1713</ele>
        <time>2019-02-27T12:13:12Z</time>
      </trkpt>
      <trkpt lat="42.75924" lon="0.16663">
        <ele>1713</ele>
        <time>2019-02-27T12:13:13Z</time>
      </trkpt>
      <trkpt lat="42.75924" lon="0.16663">
        <ele>1713</ele>
        <time>2019-02-27T12:13:14Z</time>
      </trkpt>
      <trkpt lat="42.75924" lon="0.16663">
        <ele>1713</ele>
        <time>2019-02-27T12:13:15Z</time>
      </trkpt>
      <trkpt lat="42.75924" lon="0.16663">
        <ele>1713</ele>
        <time>2019-02-27T12:13:16Z</time>
      </trkpt>
      <trkpt lat="42.75924" lon="0.16663">
        <ele>1713</ele>
        <time>2019-02-27T12:13:17Z</time>
      </trkpt>
      <trkpt lat="42.75924" lon="0.16663">
        <ele>1713</ele>
        <time>2019-02-27T12:13:18Z</time>
      </trkpt>
      <trkpt lat="42.75924" lon="0.16663">
        <ele>1713</ele>
        <time>2019-02-27T12:13:19Z</time>
      </trkpt>
      <trkpt lat="42.75924" lon="0.16663">
        <ele>1713</ele>
        <time>2019-02-27T12:13:20Z</time>
      </trkpt>
      <trkpt lat="42.75924" lon="0.16663">
        <ele>1713</ele>
        <time>2019-02-27T12:13:21Z</time>
      </trkpt>
      <trkpt lat="42.75924" lon="0.16663">
        <ele>1713</ele>
        <time>2019-02-27T12:13:22Z</time>
      </trkpt>
      <trkpt lat="42.75924" lon="0.16663">
        <ele>1714</ele>
        <time>2019-02-27T12:13:23Z</time>
      </trkpt>
      <trkpt lat="42.75924" lon="0.16663">
        <ele>1714</ele>
        <time>2019-02-27T12:13:24Z</time>
      </trkpt>
      <trkpt lat="42.75924" lon="0.16663">
        <ele>1714</ele>
        <time>2019-02-27T12:13:25Z</time>
      </trkpt>
      <trkpt lat="42.75924" lon="0.16663">
        <ele>1714</ele>
        <time>2019-02-27T12:13:26Z</time>
      </trkpt>
      <trkpt lat="42.75924" lon="0.16663">
        <ele>1714</ele>
        <time>2019-02-27T12:13:27Z</time>
      </trkpt>
      <trkpt lat="42.75924" lon="0.16663">
        <ele>1714</ele>
        <time>2019-02-27T12:13:28Z</time>
      </trkpt>
      <trkpt lat="42.75924" lon="0.16663">
        <ele>1714</ele>
        <time>2019-02-27T12:13:29Z</time>
      </trkpt>
      <trkpt lat="42.75924" lon="0.16663">
        <ele>1714</ele>
        <time>2019-02-27T12:13:30Z</time>
      </trkpt>
      <trkpt lat="42.75924" lon="0.16663">
        <ele>1714</ele>
        <time>2019-02-27T12:13:31Z</time>
      </trkpt>
      <trkpt lat="42.75924" lon="0.16663">
        <ele>1714</ele>
        <time>2019-02-27T12:13:32Z</time>
      </trkpt>
      <trkpt lat="42.75924" lon="0.16663">
        <ele>1714</ele>
        <time>2019-02-27T12:13:33Z</time>
      </trkpt>
      <trkpt lat="42.75924" lon="0.16663">
        <ele>1714</ele>
        <time>2019-02-27T12:13:34Z</time>
      </trkpt>
      <trkpt lat="42.75924" lon="0.16663">
        <ele>1714</ele>
        <time>2019-02-27T12:13:35Z</time>
      </trkpt>
      <trkpt lat="42.75924" lon="0.16663">
        <ele>1714</ele>
        <time>2019-02-27T12:13:36Z</time>
      </trkpt>
      <trkpt lat="42.75924" lon="0.16663">
        <ele>1714</ele>
        <time>2019-02-27T12:13:37Z</time>
      </trkpt>
      <trkpt lat="42.75924" lon="0.16663">
        <ele>1714</ele>
        <time>2019-02-27T12:13:38Z</time>
      </trkpt>
      <trkpt lat="42.75924" lon="0.16663">
        <ele>1714</ele>
        <time>2019-02-27T12:13:39Z</time>
      </trkpt>
      <trkpt lat="42.75924" lon="0.16663">
        <ele>1714</ele>
        <time>2019-02-27T12:13:40Z</time>
      </trkpt>
      <trkpt lat="42.75924" lon="0.16663">
        <ele>1714</ele>
        <time>2019-02-27T12:13:41Z</time>
      </trkpt>
      <trkpt lat="42.75924" lon="0.16663">
        <ele>1714</ele>
        <time>2019-02-27T12:13:42Z</time>
      </trkpt>
      <trkpt lat="42.75924" lon="0.16663">
        <ele>1714</ele>
        <time>2019-02-27T12:13:43Z</time>
      </trkpt>
      <trkpt lat="42.75924" lon="0.16663">
        <ele>1714</ele>
        <time>2019-02-27T12:13:44Z</time>
      </trkpt>
      <trkpt lat="42.75924" lon="0.16663">
        <ele>1714</ele>
        <time>2019-02-27T12:13:45Z</time>
      </trkpt>
      <trkpt lat="42.75924" lon="0.16663">
        <ele>1714</ele>
        <time>2019-02-27T12:13:46Z</time>
      </trkpt>
      <trkpt lat="42.75924" lon="0.16663">
        <ele>1714</ele>
        <time>2019-02-27T12:13:47Z</time>
      </trkpt>
      <trkpt lat="42.75924" lon="0.16663">
        <ele>1714</ele>
        <time>2019-02-27T12:13:48Z</time>
      </trkpt>
      <trkpt lat="42.75924" lon="0.16663">
        <ele>1714</ele>
        <time>2019-02-27T12:13:49Z</time>
      </trkpt>
      <trkpt lat="42.75924" lon="0.16663">
        <ele>1714</ele>
        <time>2019-02-27T12:13:50Z</time>
      </trkpt>
      <trkpt lat="42.75924" lon="0.16663">
        <ele>1714</ele>
        <time>2019-02-27T12:13:51Z</time>
      </trkpt>
      <trkpt lat="42.75924" lon="0.16663">
        <ele>1714</ele>
        <time>2019-02-27T12:13:52Z</time>
      </trkpt>
      <trkpt lat="42.75924" lon="0.16663">
        <ele>1714</ele>
        <time>2019-02-27T12:13:53Z</time>
      </trkpt>
      <trkpt lat="42.75924" lon="0.16663">
        <ele>1714</ele>
        <time>2019-02-27T12:13:54Z</time>
      </trkpt>
      <trkpt lat="42.75924" lon="0.16663">
        <ele>1714</ele>
        <time>2019-02-27T12:13:55Z</time>
      </trkpt>
      <trkpt lat="42.7592" lon="0.16663">
        <ele>1714</ele>
        <time>2019-02-27T12:13:56Z</time>
      </trkpt>
      <trkpt lat="42.7592" lon="0.16663">
        <ele>1714</ele>
        <time>2019-02-27T12:13:57Z</time>
      </trkpt>
      <trkpt lat="42.7592" lon="0.16663">
        <ele>1714</ele>
        <time>2019-02-27T12:13:58Z</time>
      </trkpt>
      <trkpt lat="42.7592" lon="0.16663">
        <ele>1714</ele>
        <time>2019-02-27T12:13:59Z</time>
      </trkpt>
      <trkpt lat="42.7592" lon="0.16663">
        <ele>1714</ele>
        <time>2019-02-27T12:14:00Z</time>
      </trkpt>
      <trkpt lat="42.7592" lon="0.16663">
        <ele>1714</ele>
        <time>2019-02-27T12:14:01Z</time>
      </trkpt>
      <trkpt lat="42.7592" lon="0.16663">
        <ele>1714</ele>
        <time>2019-02-27T12:14:02Z</time>
      </trkpt>
      <trkpt lat="42.7592" lon="0.16663">
        <ele>1714</ele>
        <time>2019-02-27T12:14:03Z</time>
      </trkpt>
      <trkpt lat="42.7592" lon="0.16663">
        <ele>1713</ele>
        <time>2019-02-27T12:14:04Z</time>
      </trkpt>
      <trkpt lat="42.7592" lon="0.16663">
        <ele>1713</ele>
        <time>2019-02-27T12:14:05Z</time>
      </trkpt>
      <trkpt lat="42.7592" lon="0.16663">
        <ele>1713</ele>
        <time>2019-02-27T12:14:06Z</time>
      </trkpt>
      <trkpt lat="42.7592" lon="0.16663">
        <ele>1713</ele>
        <time>2019-02-27T12:14:07Z</time>
      </trkpt>
      <trkpt lat="42.7592" lon="0.16663">
        <ele>1713</ele>
        <time>2019-02-27T12:14:08Z</time>
      </trkpt>
      <trkpt lat="42.7592" lon="0.16663">
        <ele>1713</ele>
        <time>2019-02-27T12:14:09Z</time>
      </trkpt>
      <trkpt lat="42.7592" lon="0.16663">
        <ele>1714</ele>
        <time>2019-02-27T12:14:10Z</time>
      </trkpt>
      <trkpt lat="42.7592" lon="0.16663">
        <ele>1714</ele>
        <time>2019-02-27T12:14:11Z</time>
      </trkpt>
      <trkpt lat="42.7592" lon="0.16663">
        <ele>1714</ele>
        <time>2019-02-27T12:14:12Z</time>
      </trkpt>
      <trkpt lat="42.7592" lon="0.16663">
        <ele>1714</ele>
        <time>2019-02-27T12:14:13Z</time>
      </trkpt>
      <trkpt lat="42.7592" lon="0.16663">
        <ele>1714</ele>
        <time>2019-02-27T12:14:14Z</time>
      </trkpt>
      <trkpt lat="42.7592" lon="0.16663">
        <ele>1714</ele>
        <time>2019-02-27T12:14:15Z</time>
      </trkpt>
      <trkpt lat="42.7592" lon="0.16663">
        <ele>1714</ele>
        <time>2019-02-27T12:14:16Z</time>
      </trkpt>
      <trkpt lat="42.7592" lon="0.16663">
        <ele>1714</ele>
        <time>2019-02-27T12:14:17Z</time>
      </trkpt>
      <trkpt lat="42.7592" lon="0.16663">
        <ele>1714</ele>
        <time>2019-02-27T12:14:18Z</time>
      </trkpt>
      <trkpt lat="42.7592" lon="0.16663">
        <ele>1714</ele>
        <time>2019-02-27T12:14:19Z</time>
      </trkpt>
      <trkpt lat="42.7592" lon="0.16663">
        <ele>1714</ele>
        <time>2019-02-27T12:14:20Z</time>
      </trkpt>
      <trkpt lat="42.7592" lon="0.16663">
        <ele>1714</ele>
        <time>2019-02-27T12:14:21Z</time>
      </trkpt>
      <trkpt lat="42.7592" lon="0.16663">
        <ele>1714</ele>
        <time>2019-02-27T12:14:22Z</time>
      </trkpt>
      <trkpt lat="42.7592" lon="0.16663">
        <ele>1714</ele>
        <time>2019-02-27T12:14:23Z</time>
      </trkpt>
      <trkpt lat="42.7592" lon="0.16663">
        <ele>1714</ele>
        <time>2019-02-27T12:14:24Z</time>
      </trkpt>
      <trkpt lat="42.7592" lon="0.16663">
        <ele>1714</ele>
        <time>2019-02-27T12:14:25Z</time>
      </trkpt>
      <trkpt lat="42.7592" lon="0.16663">
        <ele>1714</ele>
        <time>2019-02-27T12:14:26Z</time>
      </trkpt>
      <trkpt lat="42.7592" lon="0.16663">
        <ele>1714</ele>
        <time>2019-02-27T12:14:27Z</time>
      </trkpt>
      <trkpt lat="42.7592" lon="0.16663">
        <ele>1714</ele>
        <time>2019-02-27T12:14:28Z</time>
      </trkpt>
      <trkpt lat="42.7592" lon="0.16663">
        <ele>1714</ele>
        <time>2019-02-27T12:14:29Z</time>
      </trkpt>
      <trkpt lat="42.7592" lon="0.16663">
        <ele>1714</ele>
        <time>2019-02-27T12:14:30Z</time>
      </trkpt>
      <trkpt lat="42.7592" lon="0.16663">
        <ele>1714</ele>
        <time>2019-02-27T12:14:31Z</time>
      </trkpt>
      <trkpt lat="42.7592" lon="0.16663">
        <ele>1714</ele>
        <time>2019-02-27T12:14:32Z</time>
      </trkpt>
      <trkpt lat="42.7592" lon="0.16663">
        <ele>1714</ele>
        <time>2019-02-27T12:14:33Z</time>
      </trkpt>
      <trkpt lat="42.7592" lon="0.16663">
        <ele>1714</ele>
        <time>2019-02-27T12:14:34Z</time>
      </trkpt>
      <trkpt lat="42.7592" lon="0.16663">
        <ele>1714</ele>
        <time>2019-02-27T12:14:35Z</time>
      </trkpt>
      <trkpt lat="42.7592" lon="0.16663">
        <ele>1714</ele>
        <time>2019-02-27T12:14:36Z</time>
      </trkpt>
      <trkpt lat="42.7592" lon="0.16663">
        <ele>1714</ele>
        <time>2019-02-27T12:14:37Z</time>
      </trkpt>
      <trkpt lat="42.7592" lon="0.16663">
        <ele>1714</ele>
        <time>2019-02-27T12:14:38Z</time>
      </trkpt>
      <trkpt lat="42.7592" lon="0.16663">
        <ele>1714</ele>
        <time>2019-02-27T12:14:39Z</time>
      </trkpt>
      <trkpt lat="42.7592" lon="0.16663">
        <ele>1714</ele>
        <time>2019-02-27T12:14:40Z</time>
      </trkpt>
      <trkpt lat="42.7592" lon="0.16663">
        <ele>1714</ele>
        <time>2019-02-27T12:14:41Z</time>
      </trkpt>
      <trkpt lat="42.7592" lon="0.16663">
        <ele>1714</ele>
        <time>2019-02-27T12:14:42Z</time>
      </trkpt>
      <trkpt lat="42.7592" lon="0.16663">
        <ele>1714</ele>
        <time>2019-02-27T12:14:43Z</time>
      </trkpt>
      <trkpt lat="42.7592" lon="0.16663">
        <ele>1714</ele>
        <time>2019-02-27T12:14:44Z</time>
      </trkpt>
      <trkpt lat="42.7592" lon="0.16663">
        <ele>1714</ele>
        <time>2019-02-27T12:14:45Z</time>
      </trkpt>
      <trkpt lat="42.7592" lon="0.16663">
        <ele>1714</ele>
        <time>2019-02-27T12:14:46Z</time>
      </trkpt>
      <trkpt lat="42.7592" lon="0.16663">
        <ele>1714</ele>
        <time>2019-02-27T12:14:47Z</time>
      </trkpt>
      <trkpt lat="42.7592" lon="0.16663">
        <ele>1714</ele>
        <time>2019-02-27T12:14:48Z</time>
      </trkpt>
      <trkpt lat="42.7592" lon="0.16663">
        <ele>1714</ele>
        <time>2019-02-27T12:14:49Z</time>
      </trkpt>
      <trkpt lat="42.7592" lon="0.16663">
        <ele>1714</ele>
        <time>2019-02-27T12:14:50Z</time>
      </trkpt>
      <trkpt lat="42.7592" lon="0.16663">
        <ele>1715</ele>
        <time>2019-02-27T12:14:51Z</time>
      </trkpt>
      <trkpt lat="42.7592" lon="0.16663">
        <ele>1715</ele>
        <time>2019-02-27T12:14:52Z</time>
      </trkpt>
      <trkpt lat="42.7592" lon="0.16663">
        <ele>1715</ele>
        <time>2019-02-27T12:14:53Z</time>
      </trkpt>
      <trkpt lat="42.7592" lon="0.16663">
        <ele>1714</ele>
        <time>2019-02-27T12:14:54Z</time>
      </trkpt>
      <trkpt lat="42.7592" lon="0.16663">
        <ele>1714</ele>
        <time>2019-02-27T12:14:55Z</time>
      </trkpt>
      <trkpt lat="42.7592" lon="0.16663">
        <ele>1714</ele>
        <time>2019-02-27T12:14:56Z</time>
      </trkpt>
      <trkpt lat="42.7592" lon="0.16663">
        <ele>1714</ele>
        <time>2019-02-27T12:14:57Z</time>
      </trkpt>
      <trkpt lat="42.7592" lon="0.16663">
        <ele>1714</ele>
        <time>2019-02-27T12:14:58Z</time>
      </trkpt>
      <trkpt lat="42.7592" lon="0.16663">
        <ele>1714</ele>
        <time>2019-02-27T12:14:59Z</time>
      </trkpt>
      <trkpt lat="42.7592" lon="0.16663">
        <ele>1714</ele>
        <time>2019-02-27T12:15:00Z</time>
      </trkpt>
      <trkpt lat="42.7592" lon="0.16663">
        <ele>1714</ele>
        <time>2019-02-27T12:15:01Z</time>
      </trkpt>
      <trkpt lat="42.7592" lon="0.16663">
        <ele>1714</ele>
        <time>2019-02-27T12:15:02Z</time>
      </trkpt>
      <trkpt lat="42.7592" lon="0.16663">
        <ele>1714</ele>
        <time>2019-02-27T12:15:03Z</time>
      </trkpt>
      <trkpt lat="42.7592" lon="0.16663">
        <ele>1714</ele>
        <time>2019-02-27T12:15:04Z</time>
      </trkpt>
      <trkpt lat="42.7592" lon="0.16663">
        <ele>1714</ele>
        <time>2019-02-27T12:15:05Z</time>
      </trkpt>
      <trkpt lat="42.7592" lon="0.16663">
        <ele>1714</ele>
        <time>2019-02-27T12:15:06Z</time>
      </trkpt>
      <trkpt lat="42.7592" lon="0.16663">
        <ele>1714</ele>
        <time>2019-02-27T12:15:07Z</time>
      </trkpt>
      <trkpt lat="42.7592" lon="0.16663">
        <ele>1714</ele>
        <time>2019-02-27T12:15:08Z</time>
      </trkpt>
      <trkpt lat="42.7592" lon="0.16663">
        <ele>1714</ele>
        <time>2019-02-27T12:15:09Z</time>
      </trkpt>
      <trkpt lat="42.7592" lon="0.16663">
        <ele>1714</ele>
        <time>2019-02-27T12:15:10Z</time>
      </trkpt>
      <trkpt lat="42.7592" lon="0.16663">
        <ele>1714</ele>
        <time>2019-02-27T12:15:11Z</time>
      </trkpt>
      <trkpt lat="42.7592" lon="0.16663">
        <ele>1714</ele>
        <time>2019-02-27T12:15:12Z</time>
      </trkpt>
      <trkpt lat="42.75924" lon="0.16664">
        <ele>1714</ele>
        <time>2019-02-27T12:15:13Z</time>
      </trkpt>
      <trkpt lat="42.75924" lon="0.16664">
        <ele>1713</ele>
        <time>2019-02-27T12:15:14Z</time>
      </trkpt>
      <trkpt lat="42.75924" lon="0.16664">
        <ele>1713</ele>
        <time>2019-02-27T12:15:15Z</time>
      </trkpt>
      <trkpt lat="42.75924" lon="0.16664">
        <ele>1713</ele>
        <time>2019-02-27T12:15:16Z</time>
      </trkpt>
      <trkpt lat="42.75924" lon="0.16664">
        <ele>1713</ele>
        <time>2019-02-27T12:15:17Z</time>
      </trkpt>
      <trkpt lat="42.75924" lon="0.16664">
        <ele>1713</ele>
        <time>2019-02-27T12:15:18Z</time>
      </trkpt>
      <trkpt lat="42.75925" lon="0.16662">
        <ele>1713</ele>
        <time>2019-02-27T12:15:19Z</time>
      </trkpt>
      <trkpt lat="42.75925" lon="0.16662">
        <ele>1713</ele>
        <time>2019-02-27T12:15:20Z</time>
      </trkpt>
      <trkpt lat="42.75925" lon="0.16662">
        <ele>1713</ele>
        <time>2019-02-27T12:15:21Z</time>
      </trkpt>
      <trkpt lat="42.75925" lon="0.16662">
        <ele>1713</ele>
        <time>2019-02-27T12:15:22Z</time>
      </trkpt>
      <trkpt lat="42.75925" lon="0.16662">
        <ele>1713</ele>
        <time>2019-02-27T12:15:23Z</time>
      </trkpt>
      <trkpt lat="42.75925" lon="0.16662">
        <ele>1713</ele>
        <time>2019-02-27T12:15:24Z</time>
      </trkpt>
      <trkpt lat="42.75925" lon="0.16662">
        <ele>1713</ele>
        <time>2019-02-27T12:15:25Z</time>
      </trkpt>
      <trkpt lat="42.75925" lon="0.16662">
        <ele>1713</ele>
        <time>2019-02-27T12:15:26Z</time>
      </trkpt>
      <trkpt lat="42.75925" lon="0.16662">
        <ele>1714</ele>
        <time>2019-02-27T12:15:27Z</time>
      </trkpt>
      <trkpt lat="42.75925" lon="0.16662">
        <ele>1714</ele>
        <time>2019-02-27T12:15:28Z</time>
      </trkpt>
      <trkpt lat="42.75925" lon="0.16662">
        <ele>1714</ele>
        <time>2019-02-27T12:15:29Z</time>
      </trkpt>
      <trkpt lat="42.75925" lon="0.16662">
        <ele>1714</ele>
        <time>2019-02-27T12:15:30Z</time>
      </trkpt>
      <trkpt lat="42.75925" lon="0.16662">
        <ele>1714</ele>
        <time>2019-02-27T12:15:31Z</time>
      </trkpt>
      <trkpt lat="42.75925" lon="0.16662">
        <ele>1714</ele>
        <time>2019-02-27T12:15:32Z</time>
      </trkpt>
      <trkpt lat="42.75925" lon="0.16662">
        <ele>1714</ele>
        <time>2019-02-27T12:15:33Z</time>
      </trkpt>
      <trkpt lat="42.75925" lon="0.16662">
        <ele>1714</ele>
        <time>2019-02-27T12:15:34Z</time>
      </trkpt>
      <trkpt lat="42.75925" lon="0.16662">
        <ele>1714</ele>
        <time>2019-02-27T12:15:35Z</time>
      </trkpt>
      <trkpt lat="42.75925" lon="0.16662">
        <ele>1714</ele>
        <time>2019-02-27T12:15:36Z</time>
      </trkpt>
      <trkpt lat="42.75925" lon="0.16662">
        <ele>1714</ele>
        <time>2019-02-27T12:15:37Z</time>
      </trkpt>
      <trkpt lat="42.75925" lon="0.16662">
        <ele>1714</ele>
        <time>2019-02-27T12:15:38Z</time>
      </trkpt>
      <trkpt lat="42.75925" lon="0.16662">
        <ele>1714</ele>
        <time>2019-02-27T12:15:39Z</time>
      </trkpt>
      <trkpt lat="42.75925" lon="0.16662">
        <ele>1714</ele>
        <time>2019-02-27T12:15:40Z</time>
      </trkpt>
      <trkpt lat="42.75925" lon="0.16662">
        <ele>1714</ele>
        <time>2019-02-27T12:15:41Z</time>
      </trkpt>
      <trkpt lat="42.75925" lon="0.16662">
        <ele>1714</ele>
        <time>2019-02-27T12:15:42Z</time>
      </trkpt>
      <trkpt lat="42.75925" lon="0.16662">
        <ele>1714</ele>
        <time>2019-02-27T12:15:43Z</time>
      </trkpt>
      <trkpt lat="42.75925" lon="0.16662">
        <ele>1714</ele>
        <time>2019-02-27T12:15:44Z</time>
      </trkpt>
      <trkpt lat="42.75925" lon="0.16662">
        <ele>1714</ele>
        <time>2019-02-27T12:15:45Z</time>
      </trkpt>
      <trkpt lat="42.75925" lon="0.16662">
        <ele>1714</ele>
        <time>2019-02-27T12:15:46Z</time>
      </trkpt>
      <trkpt lat="42.75925" lon="0.16662">
        <ele>1714</ele>
        <time>2019-02-27T12:15:47Z</time>
      </trkpt>
      <trkpt lat="42.75925" lon="0.16662">
        <ele>1714</ele>
        <time>2019-02-27T12:15:48Z</time>
      </trkpt>
      <trkpt lat="42.75925" lon="0.16662">
        <ele>1714</ele>
        <time>2019-02-27T12:15:49Z</time>
      </trkpt>
      <trkpt lat="42.75925" lon="0.16662">
        <ele>1714</ele>
        <time>2019-02-27T12:15:50Z</time>
      </trkpt>
      <trkpt lat="42.75925" lon="0.16662">
        <ele>1714</ele>
        <time>2019-02-27T12:15:51Z</time>
      </trkpt>
      <trkpt lat="42.75925" lon="0.16662">
        <ele>1714</ele>
        <time>2019-02-27T12:15:52Z</time>
      </trkpt>
      <trkpt lat="42.75925" lon="0.16662">
        <ele>1714</ele>
        <time>2019-02-27T12:15:53Z</time>
      </trkpt>
      <trkpt lat="42.75925" lon="0.16662">
        <ele>1714</ele>
        <time>2019-02-27T12:15:54Z</time>
      </trkpt>
      <trkpt lat="42.75925" lon="0.16662">
        <ele>1714</ele>
        <time>2019-02-27T12:15:55Z</time>
      </trkpt>
      <trkpt lat="42.75925" lon="0.16662">
        <ele>1714</ele>
        <time>2019-02-27T12:15:56Z</time>
      </trkpt>
      <trkpt lat="42.75925" lon="0.16662">
        <ele>1714</ele>
        <time>2019-02-27T12:15:57Z</time>
      </trkpt>
      <trkpt lat="42.75925" lon="0.16662">
        <ele>1714</ele>
        <time>2019-02-27T12:15:58Z</time>
      </trkpt>
      <trkpt lat="42.75925" lon="0.16662">
        <ele>1714</ele>
        <time>2019-02-27T12:15:59Z</time>
      </trkpt>
      <trkpt lat="42.75925" lon="0.16662">
        <ele>1714</ele>
        <time>2019-02-27T12:16:00Z</time>
      </trkpt>
      <trkpt lat="42.75925" lon="0.16662">
        <ele>1714</ele>
        <time>2019-02-27T12:16:01Z</time>
      </trkpt>
      <trkpt lat="42.75925" lon="0.16662">
        <ele>1714</ele>
        <time>2019-02-27T12:16:02Z</time>
      </trkpt>
      <trkpt lat="42.75925" lon="0.16662">
        <ele>1714</ele>
        <time>2019-02-27T12:16:03Z</time>
      </trkpt>
      <trkpt lat="42.75925" lon="0.16662">
        <ele>1714</ele>
        <time>2019-02-27T12:16:04Z</time>
      </trkpt>
      <trkpt lat="42.75925" lon="0.16662">
        <ele>1714</ele>
        <time>2019-02-27T12:16:05Z</time>
      </trkpt>
      <trkpt lat="42.75925" lon="0.16662">
        <ele>1714</ele>
        <time>2019-02-27T12:16:06Z</time>
      </trkpt>
      <trkpt lat="42.75925" lon="0.16662">
        <ele>1714</ele>
        <time>2019-02-27T12:16:07Z</time>
      </trkpt>
      <trkpt lat="42.75925" lon="0.16662">
        <ele>1714</ele>
        <time>2019-02-27T12:16:08Z</time>
      </trkpt>
      <trkpt lat="42.75925" lon="0.16662">
        <ele>1714</ele>
        <time>2019-02-27T12:16:09Z</time>
      </trkpt>
      <trkpt lat="42.75925" lon="0.16662">
        <ele>1714</ele>
        <time>2019-02-27T12:16:10Z</time>
      </trkpt>
      <trkpt lat="42.75925" lon="0.16662">
        <ele>1714</ele>
        <time>2019-02-27T12:16:11Z</time>
      </trkpt>
      <trkpt lat="42.75925" lon="0.16662">
        <ele>1714</ele>
        <time>2019-02-27T12:16:12Z</time>
      </trkpt>
      <trkpt lat="42.75925" lon="0.16662">
        <ele>1714</ele>
        <time>2019-02-27T12:16:13Z</time>
      </trkpt>
      <trkpt lat="42.75925" lon="0.16662">
        <ele>1714</ele>
        <time>2019-02-27T12:16:14Z</time>
      </trkpt>
      <trkpt lat="42.75923" lon="0.16661">
        <ele>1714</ele>
        <time>2019-02-27T12:16:15Z</time>
      </trkpt>
      <trkpt lat="42.75923" lon="0.16661">
        <ele>1714</ele>
        <time>2019-02-27T12:16:16Z</time>
      </trkpt>
      <trkpt lat="42.75923" lon="0.16661">
        <ele>1714</ele>
        <time>2019-02-27T12:16:17Z</time>
      </trkpt>
      <trkpt lat="42.75923" lon="0.16661">
        <ele>1714</ele>
        <time>2019-02-27T12:16:18Z</time>
      </trkpt>
      <trkpt lat="42.75923" lon="0.16661">
        <ele>1714</ele>
        <time>2019-02-27T12:16:19Z</time>
      </trkpt>
      <trkpt lat="42.75923" lon="0.16661">
        <ele>1714</ele>
        <time>2019-02-27T12:16:20Z</time>
      </trkpt>
      <trkpt lat="42.75923" lon="0.16661">
        <ele>1714</ele>
        <time>2019-02-27T12:16:21Z</time>
      </trkpt>
      <trkpt lat="42.75923" lon="0.16661">
        <ele>1714</ele>
        <time>2019-02-27T12:16:22Z</time>
      </trkpt>
      <trkpt lat="42.75923" lon="0.16661">
        <ele>1714</ele>
        <time>2019-02-27T12:16:23Z</time>
      </trkpt>
      <trkpt lat="42.75923" lon="0.16661">
        <ele>1714</ele>
        <time>2019-02-27T12:16:24Z</time>
      </trkpt>
      <trkpt lat="42.75923" lon="0.16661">
        <ele>1714</ele>
        <time>2019-02-27T12:16:25Z</time>
      </trkpt>
      <trkpt lat="42.75923" lon="0.16661">
        <ele>1714</ele>
        <time>2019-02-27T12:16:26Z</time>
      </trkpt>
      <trkpt lat="42.75923" lon="0.16661">
        <ele>1714</ele>
        <time>2019-02-27T12:16:27Z</time>
      </trkpt>
      <trkpt lat="42.75923" lon="0.16661">
        <ele>1714</ele>
        <time>2019-02-27T12:16:28Z</time>
      </trkpt>
      <trkpt lat="42.75923" lon="0.16661">
        <ele>1713</ele>
        <time>2019-02-27T12:16:29Z</time>
      </trkpt>
      <trkpt lat="42.75923" lon="0.16661">
        <ele>1713</ele>
        <time>2019-02-27T12:16:30Z</time>
      </trkpt>
      <trkpt lat="42.75923" lon="0.16661">
        <ele>1713</ele>
        <time>2019-02-27T12:16:31Z</time>
      </trkpt>
      <trkpt lat="42.75923" lon="0.16661">
        <ele>1713</ele>
        <time>2019-02-27T12:16:32Z</time>
      </trkpt>
      <trkpt lat="42.75923" lon="0.16661">
        <ele>1713</ele>
        <time>2019-02-27T12:16:33Z</time>
      </trkpt>
      <trkpt lat="42.75923" lon="0.16661">
        <ele>1713</ele>
        <time>2019-02-27T12:16:34Z</time>
      </trkpt>
      <trkpt lat="42.75923" lon="0.16661">
        <ele>1713</ele>
        <time>2019-02-27T12:16:35Z</time>
      </trkpt>
      <trkpt lat="42.75923" lon="0.16661">
        <ele>1713</ele>
        <time>2019-02-27T12:16:36Z</time>
      </trkpt>
      <trkpt lat="42.75923" lon="0.16661">
        <ele>1713</ele>
        <time>2019-02-27T12:16:37Z</time>
      </trkpt>
      <trkpt lat="42.75923" lon="0.16661">
        <ele>1713</ele>
        <time>2019-02-27T12:16:38Z</time>
      </trkpt>
      <trkpt lat="42.75923" lon="0.16661">
        <ele>1713</ele>
        <time>2019-02-27T12:16:39Z</time>
      </trkpt>
      <trkpt lat="42.75923" lon="0.16661">
        <ele>1713</ele>
        <time>2019-02-27T12:16:40Z</time>
      </trkpt>
      <trkpt lat="42.75923" lon="0.16661">
        <ele>1713</ele>
        <time>2019-02-27T12:16:41Z</time>
      </trkpt>
      <trkpt lat="42.75923" lon="0.16661">
        <ele>1713</ele>
        <time>2019-02-27T12:16:42Z</time>
      </trkpt>
      <trkpt lat="42.75923" lon="0.16661">
        <ele>1713</ele>
        <time>2019-02-27T12:16:43Z</time>
      </trkpt>
      <trkpt lat="42.75923" lon="0.16661">
        <ele>1713</ele>
        <time>2019-02-27T12:16:44Z</time>
      </trkpt>
      <trkpt lat="42.75923" lon="0.16661">
        <ele>1713</ele>
        <time>2019-02-27T12:16:45Z</time>
      </trkpt>
      <trkpt lat="42.75923" lon="0.16661">
        <ele>1713</ele>
        <time>2019-02-27T12:16:46Z</time>
      </trkpt>
      <trkpt lat="42.75923" lon="0.16661">
        <ele>1713</ele>
        <time>2019-02-27T12:16:47Z</time>
      </trkpt>
      <trkpt lat="42.75923" lon="0.16661">
        <ele>1713</ele>
        <time>2019-02-27T12:16:48Z</time>
      </trkpt>
      <trkpt lat="42.75919" lon="0.16658">
        <ele>1713</ele>
        <time>2019-02-27T12:16:49Z</time>
      </trkpt>
      <trkpt lat="42.75919" lon="0.16658">
        <ele>1713</ele>
        <time>2019-02-27T12:16:50Z</time>
      </trkpt>
      <trkpt lat="42.75919" lon="0.16658">
        <ele>1713</ele>
        <time>2019-02-27T12:16:51Z</time>
      </trkpt>
      <trkpt lat="42.75919" lon="0.16658">
        <ele>1713</ele>
        <time>2019-02-27T12:16:52Z</time>
      </trkpt>
      <trkpt lat="42.7592" lon="0.1666">
        <ele>1713</ele>
        <time>2019-02-27T12:16:53Z</time>
      </trkpt>
      <trkpt lat="42.7592" lon="0.1666">
        <ele>1713</ele>
        <time>2019-02-27T12:16:54Z</time>
      </trkpt>
      <trkpt lat="42.7592" lon="0.1666">
        <ele>1713</ele>
        <time>2019-02-27T12:16:55Z</time>
      </trkpt>
      <trkpt lat="42.7592" lon="0.1666">
        <ele>1713</ele>
        <time>2019-02-27T12:16:56Z</time>
      </trkpt>
      <trkpt lat="42.7592" lon="0.1666">
        <ele>1713</ele>
        <time>2019-02-27T12:16:57Z</time>
      </trkpt>
      <trkpt lat="42.7592" lon="0.1666">
        <ele>1713</ele>
        <time>2019-02-27T12:16:58Z</time>
      </trkpt>
      <trkpt lat="42.7592" lon="0.1666">
        <ele>1713</ele>
        <time>2019-02-27T12:16:59Z</time>
      </trkpt>
      <trkpt lat="42.75922" lon="0.16662">
        <ele>1713</ele>
        <time>2019-02-27T12:17:00Z</time>
      </trkpt>
      <trkpt lat="42.75922" lon="0.16662">
        <ele>1713</ele>
        <time>2019-02-27T12:17:01Z</time>
      </trkpt>
      <trkpt lat="42.75922" lon="0.16662">
        <ele>1713</ele>
        <time>2019-02-27T12:17:02Z</time>
      </trkpt>
      <trkpt lat="42.75922" lon="0.16662">
        <ele>1713</ele>
        <time>2019-02-27T12:17:03Z</time>
      </trkpt>
      <trkpt lat="42.75922" lon="0.16662">
        <ele>1713</ele>
        <time>2019-02-27T12:17:04Z</time>
      </trkpt>
      <trkpt lat="42.75922" lon="0.16662">
        <ele>1713</ele>
        <time>2019-02-27T12:17:05Z</time>
      </trkpt>
      <trkpt lat="42.75922" lon="0.16662">
        <ele>1713</ele>
        <time>2019-02-27T12:17:06Z</time>
      </trkpt>
      <trkpt lat="42.75922" lon="0.16662">
        <ele>1713</ele>
        <time>2019-02-27T12:17:07Z</time>
      </trkpt>
      <trkpt lat="42.75922" lon="0.16662">
        <ele>1713</ele>
        <time>2019-02-27T12:17:08Z</time>
      </trkpt>
      <trkpt lat="42.75922" lon="0.16662">
        <ele>1713</ele>
        <time>2019-02-27T12:17:09Z</time>
      </trkpt>
      <trkpt lat="42.75922" lon="0.16662">
        <ele>1713</ele>
        <time>2019-02-27T12:17:10Z</time>
      </trkpt>
      <trkpt lat="42.75922" lon="0.16662">
        <ele>1713</ele>
        <time>2019-02-27T12:17:11Z</time>
      </trkpt>
      <trkpt lat="42.75922" lon="0.16662">
        <ele>1713</ele>
        <time>2019-02-27T12:17:12Z</time>
      </trkpt>
      <trkpt lat="42.75922" lon="0.16662">
        <ele>1713</ele>
        <time>2019-02-27T12:17:13Z</time>
      </trkpt>
      <trkpt lat="42.75922" lon="0.16662">
        <ele>1713</ele>
        <time>2019-02-27T12:17:14Z</time>
      </trkpt>
      <trkpt lat="42.75922" lon="0.16662">
        <ele>1713</ele>
        <time>2019-02-27T12:17:15Z</time>
      </trkpt>
      <trkpt lat="42.75924" lon="0.16662">
        <ele>1713</ele>
        <time>2019-02-27T12:17:16Z</time>
      </trkpt>
      <trkpt lat="42.75924" lon="0.16662">
        <ele>1713</ele>
        <time>2019-02-27T12:17:17Z</time>
      </trkpt>
      <trkpt lat="42.75924" lon="0.16662">
        <ele>1713</ele>
        <time>2019-02-27T12:17:18Z</time>
      </trkpt>
      <trkpt lat="42.75924" lon="0.16662">
        <ele>1713</ele>
        <time>2019-02-27T12:17:19Z</time>
      </trkpt>
      <trkpt lat="42.75924" lon="0.16662">
        <ele>1713</ele>
        <time>2019-02-27T12:17:20Z</time>
      </trkpt>
      <trkpt lat="42.75924" lon="0.16662">
        <ele>1713</ele>
        <time>2019-02-27T12:17:21Z</time>
      </trkpt>
      <trkpt lat="42.75924" lon="0.16662">
        <ele>1713</ele>
        <time>2019-02-27T12:17:22Z</time>
      </trkpt>
      <trkpt lat="42.75924" lon="0.16662">
        <ele>1713</ele>
        <time>2019-02-27T12:17:23Z</time>
      </trkpt>
      <trkpt lat="42.75924" lon="0.16662">
        <ele>1713</ele>
        <time>2019-02-27T12:17:24Z</time>
      </trkpt>
      <trkpt lat="42.75924" lon="0.16662">
        <ele>1713</ele>
        <time>2019-02-27T12:17:25Z</time>
      </trkpt>
      <trkpt lat="42.75924" lon="0.16662">
        <ele>1713</ele>
        <time>2019-02-27T12:17:26Z</time>
      </trkpt>
      <trkpt lat="42.75924" lon="0.16662">
        <ele>1713</ele>
        <time>2019-02-27T12:17:27Z</time>
      </trkpt>
      <trkpt lat="42.75924" lon="0.16662">
        <ele>1713</ele>
        <time>2019-02-27T12:17:28Z</time>
      </trkpt>
      <trkpt lat="42.75924" lon="0.16662">
        <ele>1713</ele>
        <time>2019-02-27T12:17:29Z</time>
      </trkpt>
      <trkpt lat="42.75924" lon="0.16662">
        <ele>1713</ele>
        <time>2019-02-27T12:17:30Z</time>
      </trkpt>
      <trkpt lat="42.75924" lon="0.16662">
        <ele>1713</ele>
        <time>2019-02-27T12:17:31Z</time>
      </trkpt>
      <trkpt lat="42.75924" lon="0.16662">
        <ele>1713</ele>
        <time>2019-02-27T12:17:32Z</time>
      </trkpt>
      <trkpt lat="42.75924" lon="0.16662">
        <ele>1713</ele>
        <time>2019-02-27T12:17:33Z</time>
      </trkpt>
      <trkpt lat="42.75924" lon="0.16662">
        <ele>1713</ele>
        <time>2019-02-27T12:17:34Z</time>
      </trkpt>
      <trkpt lat="42.75924" lon="0.16662">
        <ele>1713</ele>
        <time>2019-02-27T12:17:35Z</time>
      </trkpt>
      <trkpt lat="42.75924" lon="0.16662">
        <ele>1713</ele>
        <time>2019-02-27T12:17:36Z</time>
      </trkpt>
      <trkpt lat="42.75924" lon="0.16662">
        <ele>1713</ele>
        <time>2019-02-27T12:17:37Z</time>
      </trkpt>
      <trkpt lat="42.75924" lon="0.16662">
        <ele>1714</ele>
        <time>2019-02-27T12:17:38Z</time>
      </trkpt>
      <trkpt lat="42.75924" lon="0.16662">
        <ele>1714</ele>
        <time>2019-02-27T12:17:39Z</time>
      </trkpt>
      <trkpt lat="42.75924" lon="0.16662">
        <ele>1714</ele>
        <time>2019-02-27T12:17:40Z</time>
      </trkpt>
      <trkpt lat="42.75924" lon="0.16662">
        <ele>1714</ele>
        <time>2019-02-27T12:17:41Z</time>
      </trkpt>
      <trkpt lat="42.75924" lon="0.16662">
        <ele>1714</ele>
        <time>2019-02-27T12:17:42Z</time>
      </trkpt>
      <trkpt lat="42.75924" lon="0.16662">
        <ele>1714</ele>
        <time>2019-02-27T12:17:43Z</time>
      </trkpt>
      <trkpt lat="42.75924" lon="0.16662">
        <ele>1714</ele>
        <time>2019-02-27T12:17:44Z</time>
      </trkpt>
      <trkpt lat="42.75924" lon="0.16662">
        <ele>1714</ele>
        <time>2019-02-27T12:17:45Z</time>
      </trkpt>
      <trkpt lat="42.75924" lon="0.16662">
        <ele>1713</ele>
        <time>2019-02-27T12:17:46Z</time>
      </trkpt>
      <trkpt lat="42.75924" lon="0.16662">
        <ele>1713</ele>
        <time>2019-02-27T12:17:47Z</time>
      </trkpt>
      <trkpt lat="42.75924" lon="0.16662">
        <ele>1713</ele>
        <time>2019-02-27T12:17:48Z</time>
      </trkpt>
      <trkpt lat="42.75924" lon="0.16662">
        <ele>1713</ele>
        <time>2019-02-27T12:17:49Z</time>
      </trkpt>
      <trkpt lat="42.75924" lon="0.16662">
        <ele>1713</ele>
        <time>2019-02-27T12:17:50Z</time>
      </trkpt>
      <trkpt lat="42.75924" lon="0.16662">
        <ele>1714</ele>
        <time>2019-02-27T12:17:51Z</time>
      </trkpt>
      <trkpt lat="42.75924" lon="0.16662">
        <ele>1714</ele>
        <time>2019-02-27T12:17:52Z</time>
      </trkpt>
      <trkpt lat="42.75924" lon="0.16662">
        <ele>1714</ele>
        <time>2019-02-27T12:17:53Z</time>
      </trkpt>
      <trkpt lat="42.75924" lon="0.16662">
        <ele>1714</ele>
        <time>2019-02-27T12:17:54Z</time>
      </trkpt>
      <trkpt lat="42.75924" lon="0.16662">
        <ele>1714</ele>
        <time>2019-02-27T12:17:55Z</time>
      </trkpt>
      <trkpt lat="42.75924" lon="0.16662">
        <ele>1714</ele>
        <time>2019-02-27T12:17:56Z</time>
      </trkpt>
      <trkpt lat="42.75924" lon="0.16662">
        <ele>1714</ele>
        <time>2019-02-27T12:17:57Z</time>
      </trkpt>
      <trkpt lat="42.75924" lon="0.16662">
        <ele>1714</ele>
        <time>2019-02-27T12:17:58Z</time>
      </trkpt>
      <trkpt lat="42.75924" lon="0.16662">
        <ele>1714</ele>
        <time>2019-02-27T12:17:59Z</time>
      </trkpt>
      <trkpt lat="42.75924" lon="0.16662">
        <ele>1714</ele>
        <time>2019-02-27T12:18:00Z</time>
      </trkpt>
      <trkpt lat="42.75924" lon="0.16662">
        <ele>1714</ele>
        <time>2019-02-27T12:18:01Z</time>
      </trkpt>
      <trkpt lat="42.75924" lon="0.16662">
        <ele>1714</ele>
        <time>2019-02-27T12:18:02Z</time>
      </trkpt>
      <trkpt lat="42.75924" lon="0.16662">
        <ele>1714</ele>
        <time>2019-02-27T12:18:03Z</time>
      </trkpt>
      <trkpt lat="42.75924" lon="0.16662">
        <ele>1714</ele>
        <time>2019-02-27T12:18:04Z</time>
      </trkpt>
      <trkpt lat="42.75924" lon="0.16662">
        <ele>1714</ele>
        <time>2019-02-27T12:18:05Z</time>
      </trkpt>
      <trkpt lat="42.75924" lon="0.16662">
        <ele>1714</ele>
        <time>2019-02-27T12:18:06Z</time>
      </trkpt>
      <trkpt lat="42.75924" lon="0.16662">
        <ele>1714</ele>
        <time>2019-02-27T12:18:07Z</time>
      </trkpt>
      <trkpt lat="42.75924" lon="0.16662">
        <ele>1714</ele>
        <time>2019-02-27T12:18:08Z</time>
      </trkpt>
      <trkpt lat="42.75924" lon="0.16662">
        <ele>1714</ele>
        <time>2019-02-27T12:18:09Z</time>
      </trkpt>
      <trkpt lat="42.75924" lon="0.16662">
        <ele>1714</ele>
        <time>2019-02-27T12:18:10Z</time>
      </trkpt>
      <trkpt lat="42.75924" lon="0.16662">
        <ele>1714</ele>
        <time>2019-02-27T12:18:11Z</time>
      </trkpt>
      <trkpt lat="42.75924" lon="0.16662">
        <ele>1714</ele>
        <time>2019-02-27T12:18:12Z</time>
      </trkpt>
      <trkpt lat="42.75924" lon="0.16662">
        <ele>1714</ele>
        <time>2019-02-27T12:18:13Z</time>
      </trkpt>
      <trkpt lat="42.75924" lon="0.16662">
        <ele>1714</ele>
        <time>2019-02-27T12:18:14Z</time>
      </trkpt>
      <trkpt lat="42.75924" lon="0.16662">
        <ele>1714</ele>
        <time>2019-02-27T12:18:15Z</time>
      </trkpt>
      <trkpt lat="42.75924" lon="0.16662">
        <ele>1714</ele>
        <time>2019-02-27T12:18:16Z</time>
      </trkpt>
      <trkpt lat="42.75924" lon="0.16662">
        <ele>1714</ele>
        <time>2019-02-27T12:18:17Z</time>
      </trkpt>
      <trkpt lat="42.75924" lon="0.16662">
        <ele>1714</ele>
        <time>2019-02-27T12:18:18Z</time>
      </trkpt>
      <trkpt lat="42.75924" lon="0.16662">
        <ele>1714</ele>
        <time>2019-02-27T12:18:19Z</time>
      </trkpt>
      <trkpt lat="42.75924" lon="0.16662">
        <ele>1714</ele>
        <time>2019-02-27T12:18:20Z</time>
      </trkpt>
      <trkpt lat="42.75924" lon="0.16662">
        <ele>1714</ele>
        <time>2019-02-27T12:18:21Z</time>
      </trkpt>
      <trkpt lat="42.75924" lon="0.16662">
        <ele>1714</ele>
        <time>2019-02-27T12:18:22Z</time>
      </trkpt>
      <trkpt lat="42.75924" lon="0.16662">
        <ele>1714</ele>
        <time>2019-02-27T12:18:23Z</time>
      </trkpt>
      <trkpt lat="42.75924" lon="0.16662">
        <ele>1714</ele>
        <time>2019-02-27T12:18:24Z</time>
      </trkpt>
      <trkpt lat="42.75924" lon="0.16662">
        <ele>1714</ele>
        <time>2019-02-27T12:18:25Z</time>
      </trkpt>
      <trkpt lat="42.75924" lon="0.16662">
        <ele>1714</ele>
        <time>2019-02-27T12:18:26Z</time>
      </trkpt>
      <trkpt lat="42.75924" lon="0.16662">
        <ele>1714</ele>
        <time>2019-02-27T12:18:27Z</time>
      </trkpt>
      <trkpt lat="42.75924" lon="0.16662">
        <ele>1714</ele>
        <time>2019-02-27T12:18:28Z</time>
      </trkpt>
      <trkpt lat="42.75924" lon="0.16662">
        <ele>1714</ele>
        <time>2019-02-27T12:18:29Z</time>
      </trkpt>
      <trkpt lat="42.75924" lon="0.16662">
        <ele>1714</ele>
        <time>2019-02-27T12:18:30Z</time>
      </trkpt>
      <trkpt lat="42.75924" lon="0.16662">
        <ele>1714</ele>
        <time>2019-02-27T12:18:31Z</time>
      </trkpt>
      <trkpt lat="42.75924" lon="0.16662">
        <ele>1714</ele>
        <time>2019-02-27T12:18:32Z</time>
      </trkpt>
      <trkpt lat="42.75924" lon="0.16662">
        <ele>1714</ele>
        <time>2019-02-27T12:18:33Z</time>
      </trkpt>
      <trkpt lat="42.75924" lon="0.16662">
        <ele>1714</ele>
        <time>2019-02-27T12:18:34Z</time>
      </trkpt>
      <trkpt lat="42.75924" lon="0.16662">
        <ele>1714</ele>
        <time>2019-02-27T12:18:35Z</time>
      </trkpt>
      <trkpt lat="42.75924" lon="0.16662">
        <ele>1714</ele>
        <time>2019-02-27T12:18:36Z</time>
      </trkpt>
      <trkpt lat="42.75924" lon="0.16662">
        <ele>1714</ele>
        <time>2019-02-27T12:18:37Z</time>
      </trkpt>
      <trkpt lat="42.75924" lon="0.16662">
        <ele>1714</ele>
        <time>2019-02-27T12:18:38Z</time>
      </trkpt>
      <trkpt lat="42.75924" lon="0.16662">
        <ele>1714</ele>
        <time>2019-02-27T12:18:39Z</time>
      </trkpt>
      <trkpt lat="42.75924" lon="0.16662">
        <ele>1714</ele>
        <time>2019-02-27T12:18:40Z</time>
      </trkpt>
      <trkpt lat="42.75924" lon="0.16662">
        <ele>1714</ele>
        <time>2019-02-27T12:18:41Z</time>
      </trkpt>
      <trkpt lat="42.75924" lon="0.16662">
        <ele>1714</ele>
        <time>2019-02-27T12:18:42Z</time>
      </trkpt>
      <trkpt lat="42.75924" lon="0.16662">
        <ele>1713</ele>
        <time>2019-02-27T12:18:43Z</time>
      </trkpt>
      <trkpt lat="42.75924" lon="0.16662">
        <ele>1713</ele>
        <time>2019-02-27T12:18:44Z</time>
      </trkpt>
      <trkpt lat="42.75924" lon="0.16662">
        <ele>1713</ele>
        <time>2019-02-27T12:18:45Z</time>
      </trkpt>
      <trkpt lat="42.75924" lon="0.16662">
        <ele>1714</ele>
        <time>2019-02-27T12:18:46Z</time>
      </trkpt>
      <trkpt lat="42.75924" lon="0.16662">
        <ele>1714</ele>
        <time>2019-02-27T12:18:47Z</time>
      </trkpt>
      <trkpt lat="42.75924" lon="0.16662">
        <ele>1714</ele>
        <time>2019-02-27T12:18:48Z</time>
      </trkpt>
      <trkpt lat="42.75924" lon="0.16662">
        <ele>1714</ele>
        <time>2019-02-27T12:18:49Z</time>
      </trkpt>
      <trkpt lat="42.75924" lon="0.16662">
        <ele>1714</ele>
        <time>2019-02-27T12:18:50Z</time>
      </trkpt>
      <trkpt lat="42.75924" lon="0.16662">
        <ele>1714</ele>
        <time>2019-02-27T12:18:51Z</time>
      </trkpt>
      <trkpt lat="42.75924" lon="0.16662">
        <ele>1714</ele>
        <time>2019-02-27T12:18:52Z</time>
      </trkpt>
      <trkpt lat="42.75924" lon="0.16662">
        <ele>1714</ele>
        <time>2019-02-27T12:18:53Z</time>
      </trkpt>
      <trkpt lat="42.75924" lon="0.16662">
        <ele>1714</ele>
        <time>2019-02-27T12:18:54Z</time>
      </trkpt>
      <trkpt lat="42.75924" lon="0.16662">
        <ele>1714</ele>
        <time>2019-02-27T12:18:55Z</time>
      </trkpt>
      <trkpt lat="42.75924" lon="0.16662">
        <ele>1714</ele>
        <time>2019-02-27T12:18:56Z</time>
      </trkpt>
      <trkpt lat="42.75924" lon="0.16662">
        <ele>1714</ele>
        <time>2019-02-27T12:18:57Z</time>
      </trkpt>
      <trkpt lat="42.75924" lon="0.16662">
        <ele>1713</ele>
        <time>2019-02-27T12:18:58Z</time>
      </trkpt>
      <trkpt lat="42.75924" lon="0.16662">
        <ele>1713</ele>
        <time>2019-02-27T12:18:59Z</time>
      </trkpt>
      <trkpt lat="42.75924" lon="0.16662">
        <ele>1713</ele>
        <time>2019-02-27T12:19:00Z</time>
      </trkpt>
      <trkpt lat="42.75924" lon="0.16662">
        <ele>1713</ele>
        <time>2019-02-27T12:19:01Z</time>
      </trkpt>
      <trkpt lat="42.75924" lon="0.16662">
        <ele>1714</ele>
        <time>2019-02-27T12:19:02Z</time>
      </trkpt>
      <trkpt lat="42.75924" lon="0.16662">
        <ele>1714</ele>
        <time>2019-02-27T12:19:03Z</time>
      </trkpt>
      <trkpt lat="42.75924" lon="0.16662">
        <ele>1714</ele>
        <time>2019-02-27T12:19:04Z</time>
      </trkpt>
      <trkpt lat="42.75924" lon="0.16662">
        <ele>1714</ele>
        <time>2019-02-27T12:19:05Z</time>
      </trkpt>
      <trkpt lat="42.75924" lon="0.16662">
        <ele>1714</ele>
        <time>2019-02-27T12:19:06Z</time>
      </trkpt>
      <trkpt lat="42.75924" lon="0.16662">
        <ele>1714</ele>
        <time>2019-02-27T12:19:07Z</time>
      </trkpt>
      <trkpt lat="42.75924" lon="0.16662">
        <ele>1714</ele>
        <time>2019-02-27T12:19:08Z</time>
      </trkpt>
      <trkpt lat="42.75924" lon="0.16662">
        <ele>1714</ele>
        <time>2019-02-27T12:19:09Z</time>
      </trkpt>
      <trkpt lat="42.75924" lon="0.16662">
        <ele>1714</ele>
        <time>2019-02-27T12:19:10Z</time>
      </trkpt>
      <trkpt lat="42.75924" lon="0.16662">
        <ele>1714</ele>
        <time>2019-02-27T12:19:11Z</time>
      </trkpt>
      <trkpt lat="42.75924" lon="0.16662">
        <ele>1714</ele>
        <time>2019-02-27T12:19:12Z</time>
      </trkpt>
      <trkpt lat="42.75924" lon="0.16662">
        <ele>1714</ele>
        <time>2019-02-27T12:19:13Z</time>
      </trkpt>
      <trkpt lat="42.75924" lon="0.16662">
        <ele>1714</ele>
        <time>2019-02-27T12:19:14Z</time>
      </trkpt>
      <trkpt lat="42.75924" lon="0.16662">
        <ele>1714</ele>
        <time>2019-02-27T12:19:15Z</time>
      </trkpt>
      <trkpt lat="42.75924" lon="0.16662">
        <ele>1714</ele>
        <time>2019-02-27T12:19:16Z</time>
      </trkpt>
      <trkpt lat="42.75924" lon="0.16662">
        <ele>1713</ele>
        <time>2019-02-27T12:19:17Z</time>
      </trkpt>
      <trkpt lat="42.75924" lon="0.16662">
        <ele>1713</ele>
        <time>2019-02-27T12:19:18Z</time>
      </trkpt>
      <trkpt lat="42.75924" lon="0.16662">
        <ele>1713</ele>
        <time>2019-02-27T12:19:19Z</time>
      </trkpt>
      <trkpt lat="42.75924" lon="0.16662">
        <ele>1713</ele>
        <time>2019-02-27T12:19:20Z</time>
      </trkpt>
      <trkpt lat="42.75924" lon="0.16662">
        <ele>1713</ele>
        <time>2019-02-27T12:19:21Z</time>
      </trkpt>
      <trkpt lat="42.75924" lon="0.16662">
        <ele>1713</ele>
        <time>2019-02-27T12:19:22Z</time>
      </trkpt>
      <trkpt lat="42.75924" lon="0.16662">
        <ele>1713</ele>
        <time>2019-02-27T12:19:23Z</time>
      </trkpt>
      <trkpt lat="42.75924" lon="0.16662">
        <ele>1713</ele>
        <time>2019-02-27T12:19:24Z</time>
      </trkpt>
      <trkpt lat="42.75924" lon="0.16662">
        <ele>1713</ele>
        <time>2019-02-27T12:19:25Z</time>
      </trkpt>
      <trkpt lat="42.75924" lon="0.16662">
        <ele>1713</ele>
        <time>2019-02-27T12:19:26Z</time>
      </trkpt>
      <trkpt lat="42.75924" lon="0.16662">
        <ele>1713</ele>
        <time>2019-02-27T12:19:27Z</time>
      </trkpt>
      <trkpt lat="42.75924" lon="0.16662">
        <ele>1713</ele>
        <time>2019-02-27T12:19:28Z</time>
      </trkpt>
      <trkpt lat="42.75924" lon="0.16662">
        <ele>1714</ele>
        <time>2019-02-27T12:19:29Z</time>
      </trkpt>
      <trkpt lat="42.75924" lon="0.16662">
        <ele>1714</ele>
        <time>2019-02-27T12:19:30Z</time>
      </trkpt>
      <trkpt lat="42.75924" lon="0.16662">
        <ele>1714</ele>
        <time>2019-02-27T12:19:31Z</time>
      </trkpt>
      <trkpt lat="42.75924" lon="0.16662">
        <ele>1714</ele>
        <time>2019-02-27T12:19:32Z</time>
      </trkpt>
      <trkpt lat="42.75924" lon="0.16662">
        <ele>1714</ele>
        <time>2019-02-27T12:19:33Z</time>
      </trkpt>
      <trkpt lat="42.75924" lon="0.16662">
        <ele>1714</ele>
        <time>2019-02-27T12:19:34Z</time>
      </trkpt>
      <trkpt lat="42.75924" lon="0.16662">
        <ele>1714</ele>
        <time>2019-02-27T12:19:35Z</time>
      </trkpt>
      <trkpt lat="42.75924" lon="0.16662">
        <ele>1714</ele>
        <time>2019-02-27T12:19:36Z</time>
      </trkpt>
      <trkpt lat="42.75924" lon="0.16662">
        <ele>1714</ele>
        <time>2019-02-27T12:19:37Z</time>
      </trkpt>
      <trkpt lat="42.75924" lon="0.16662">
        <ele>1714</ele>
        <time>2019-02-27T12:19:38Z</time>
      </trkpt>
      <trkpt lat="42.75924" lon="0.16662">
        <ele>1714</ele>
        <time>2019-02-27T12:19:39Z</time>
      </trkpt>
      <trkpt lat="42.75924" lon="0.16662">
        <ele>1714</ele>
        <time>2019-02-27T12:19:40Z</time>
      </trkpt>
      <trkpt lat="42.75924" lon="0.16662">
        <ele>1714</ele>
        <time>2019-02-27T12:19:41Z</time>
      </trkpt>
      <trkpt lat="42.75924" lon="0.16662">
        <ele>1714</ele>
        <time>2019-02-27T12:19:42Z</time>
      </trkpt>
      <trkpt lat="42.75924" lon="0.16662">
        <ele>1714</ele>
        <time>2019-02-27T12:19:43Z</time>
      </trkpt>
      <trkpt lat="42.75924" lon="0.16662">
        <ele>1714</ele>
        <time>2019-02-27T12:19:44Z</time>
      </trkpt>
      <trkpt lat="42.75924" lon="0.16662">
        <ele>1714</ele>
        <time>2019-02-27T12:19:45Z</time>
      </trkpt>
      <trkpt lat="42.75924" lon="0.16662">
        <ele>1714</ele>
        <time>2019-02-27T12:19:46Z</time>
      </trkpt>
      <trkpt lat="42.75924" lon="0.16662">
        <ele>1714</ele>
        <time>2019-02-27T12:19:47Z</time>
      </trkpt>
      <trkpt lat="42.75924" lon="0.16662">
        <ele>1714</ele>
        <time>2019-02-27T12:19:48Z</time>
      </trkpt>
      <trkpt lat="42.75924" lon="0.16662">
        <ele>1714</ele>
        <time>2019-02-27T12:19:49Z</time>
      </trkpt>
      <trkpt lat="42.75924" lon="0.16662">
        <ele>1714</ele>
        <time>2019-02-27T12:19:50Z</time>
      </trkpt>
      <trkpt lat="42.75924" lon="0.16662">
        <ele>1714</ele>
        <time>2019-02-27T12:19:51Z</time>
      </trkpt>
      <trkpt lat="42.75924" lon="0.16662">
        <ele>1714</ele>
        <time>2019-02-27T12:19:52Z</time>
      </trkpt>
      <trkpt lat="42.75924" lon="0.16662">
        <ele>1714</ele>
        <time>2019-02-27T12:19:53Z</time>
      </trkpt>
      <trkpt lat="42.75924" lon="0.16662">
        <ele>1714</ele>
        <time>2019-02-27T12:19:54Z</time>
      </trkpt>
      <trkpt lat="42.75924" lon="0.16662">
        <ele>1714</ele>
        <time>2019-02-27T12:19:55Z</time>
      </trkpt>
      <trkpt lat="42.75924" lon="0.16662">
        <ele>1714</ele>
        <time>2019-02-27T12:19:56Z</time>
      </trkpt>
      <trkpt lat="42.75924" lon="0.16662">
        <ele>1714</ele>
        <time>2019-02-27T12:19:57Z</time>
      </trkpt>
      <trkpt lat="42.75924" lon="0.16662">
        <ele>1714</ele>
        <time>2019-02-27T12:19:58Z</time>
      </trkpt>
      <trkpt lat="42.75924" lon="0.16662">
        <ele>1714</ele>
        <time>2019-02-27T12:19:59Z</time>
      </trkpt>
      <trkpt lat="42.75924" lon="0.16662">
        <ele>1715</ele>
        <time>2019-02-27T12:20:00Z</time>
      </trkpt>
      <trkpt lat="42.75924" lon="0.16662">
        <ele>1714</ele>
        <time>2019-02-27T12:20:01Z</time>
      </trkpt>
      <trkpt lat="42.75924" lon="0.16662">
        <ele>1714</ele>
        <time>2019-02-27T12:20:02Z</time>
      </trkpt>
      <trkpt lat="42.75924" lon="0.16662">
        <ele>1714</ele>
        <time>2019-02-27T12:20:03Z</time>
      </trkpt>
      <trkpt lat="42.75924" lon="0.16662">
        <ele>1714</ele>
        <time>2019-02-27T12:20:04Z</time>
      </trkpt>
      <trkpt lat="42.75924" lon="0.16662">
        <ele>1714</ele>
        <time>2019-02-27T12:20:05Z</time>
      </trkpt>
      <trkpt lat="42.75924" lon="0.16662">
        <ele>1714</ele>
        <time>2019-02-27T12:20:06Z</time>
      </trkpt>
      <trkpt lat="42.75924" lon="0.16662">
        <ele>1714</ele>
        <time>2019-02-27T12:20:07Z</time>
      </trkpt>
      <trkpt lat="42.75924" lon="0.16662">
        <ele>1714</ele>
        <time>2019-02-27T12:20:08Z</time>
      </trkpt>
      <trkpt lat="42.75924" lon="0.16662">
        <ele>1714</ele>
        <time>2019-02-27T12:20:09Z</time>
      </trkpt>
      <trkpt lat="42.75924" lon="0.16662">
        <ele>1714</ele>
        <time>2019-02-27T12:20:10Z</time>
      </trkpt>
      <trkpt lat="42.75924" lon="0.16662">
        <ele>1714</ele>
        <time>2019-02-27T12:20:11Z</time>
      </trkpt>
      <trkpt lat="42.75924" lon="0.16662">
        <ele>1714</ele>
        <time>2019-02-27T12:20:12Z</time>
      </trkpt>
      <trkpt lat="42.75924" lon="0.16662">
        <ele>1714</ele>
        <time>2019-02-27T12:20:13Z</time>
      </trkpt>
      <trkpt lat="42.75924" lon="0.16662">
        <ele>1714</ele>
        <time>2019-02-27T12:20:14Z</time>
      </trkpt>
      <trkpt lat="42.75924" lon="0.16662">
        <ele>1714</ele>
        <time>2019-02-27T12:20:15Z</time>
      </trkpt>
      <trkpt lat="42.75924" lon="0.16662">
        <ele>1714</ele>
        <time>2019-02-27T12:20:16Z</time>
      </trkpt>
      <trkpt lat="42.75924" lon="0.16662">
        <ele>1714</ele>
        <time>2019-02-27T12:20:17Z</time>
      </trkpt>
      <trkpt lat="42.75924" lon="0.16662">
        <ele>1714</ele>
        <time>2019-02-27T12:20:18Z</time>
      </trkpt>
      <trkpt lat="42.75924" lon="0.16662">
        <ele>1714</ele>
        <time>2019-02-27T12:20:19Z</time>
      </trkpt>
      <trkpt lat="42.75924" lon="0.16662">
        <ele>1714</ele>
        <time>2019-02-27T12:20:20Z</time>
      </trkpt>
      <trkpt lat="42.75924" lon="0.16662">
        <ele>1714</ele>
        <time>2019-02-27T12:20:21Z</time>
      </trkpt>
      <trkpt lat="42.75924" lon="0.16662">
        <ele>1714</ele>
        <time>2019-02-27T12:20:22Z</time>
      </trkpt>
      <trkpt lat="42.75924" lon="0.16662">
        <ele>1714</ele>
        <time>2019-02-27T12:20:23Z</time>
      </trkpt>
      <trkpt lat="42.75924" lon="0.16662">
        <ele>1714</ele>
        <time>2019-02-27T12:20:24Z</time>
      </trkpt>
      <trkpt lat="42.75924" lon="0.16662">
        <ele>1714</ele>
        <time>2019-02-27T12:20:25Z</time>
      </trkpt>
      <trkpt lat="42.75924" lon="0.16662">
        <ele>1714</ele>
        <time>2019-02-27T12:20:26Z</time>
      </trkpt>
      <trkpt lat="42.75924" lon="0.16662">
        <ele>1714</ele>
        <time>2019-02-27T12:20:27Z</time>
      </trkpt>
      <trkpt lat="42.75924" lon="0.16662">
        <ele>1714</ele>
        <time>2019-02-27T12:20:28Z</time>
      </trkpt>
      <trkpt lat="42.75924" lon="0.16662">
        <ele>1714</ele>
        <time>2019-02-27T12:20:29Z</time>
      </trkpt>
      <trkpt lat="42.75924" lon="0.16662">
        <ele>1714</ele>
        <time>2019-02-27T12:20:30Z</time>
      </trkpt>
      <trkpt lat="42.75924" lon="0.16662">
        <ele>1714</ele>
        <time>2019-02-27T12:20:31Z</time>
      </trkpt>
      <trkpt lat="42.75924" lon="0.16662">
        <ele>1714</ele>
        <time>2019-02-27T12:20:32Z</time>
      </trkpt>
      <trkpt lat="42.75924" lon="0.16662">
        <ele>1714</ele>
        <time>2019-02-27T12:20:33Z</time>
      </trkpt>
      <trkpt lat="42.75924" lon="0.16662">
        <ele>1714</ele>
        <time>2019-02-27T12:20:34Z</time>
      </trkpt>
      <trkpt lat="42.75924" lon="0.16662">
        <ele>1714</ele>
        <time>2019-02-27T12:20:35Z</time>
      </trkpt>
      <trkpt lat="42.75924" lon="0.16662">
        <ele>1714</ele>
        <time>2019-02-27T12:20:36Z</time>
      </trkpt>
      <trkpt lat="42.75924" lon="0.16662">
        <ele>1714</ele>
        <time>2019-02-27T12:20:37Z</time>
      </trkpt>
      <trkpt lat="42.75924" lon="0.16662">
        <ele>1714</ele>
        <time>2019-02-27T12:20:38Z</time>
      </trkpt>
      <trkpt lat="42.75924" lon="0.16662">
        <ele>1714</ele>
        <time>2019-02-27T12:20:39Z</time>
      </trkpt>
      <trkpt lat="42.75924" lon="0.16662">
        <ele>1714</ele>
        <time>2019-02-27T12:20:40Z</time>
      </trkpt>
      <trkpt lat="42.75924" lon="0.16662">
        <ele>1714</ele>
        <time>2019-02-27T12:20:41Z</time>
      </trkpt>
      <trkpt lat="42.75924" lon="0.16662">
        <ele>1714</ele>
        <time>2019-02-27T12:20:42Z</time>
      </trkpt>
      <trkpt lat="42.75924" lon="0.16662">
        <ele>1714</ele>
        <time>2019-02-27T12:20:43Z</time>
      </trkpt>
      <trkpt lat="42.75924" lon="0.16662">
        <ele>1714</ele>
        <time>2019-02-27T12:20:44Z</time>
      </trkpt>
      <trkpt lat="42.75924" lon="0.16662">
        <ele>1714</ele>
        <time>2019-02-27T12:20:45Z</time>
      </trkpt>
      <trkpt lat="42.75924" lon="0.16662">
        <ele>1714</ele>
        <time>2019-02-27T12:20:46Z</time>
      </trkpt>
      <trkpt lat="42.75924" lon="0.16662">
        <ele>1714</ele>
        <time>2019-02-27T12:20:47Z</time>
      </trkpt>
      <trkpt lat="42.75924" lon="0.16662">
        <ele>1714</ele>
        <time>2019-02-27T12:20:48Z</time>
      </trkpt>
      <trkpt lat="42.75924" lon="0.16662">
        <ele>1714</ele>
        <time>2019-02-27T12:20:49Z</time>
      </trkpt>
      <trkpt lat="42.75924" lon="0.16662">
        <ele>1714</ele>
        <time>2019-02-27T12:20:50Z</time>
      </trkpt>
      <trkpt lat="42.75924" lon="0.16662">
        <ele>1714</ele>
        <time>2019-02-27T12:20:51Z</time>
      </trkpt>
      <trkpt lat="42.75924" lon="0.16662">
        <ele>1714</ele>
        <time>2019-02-27T12:20:52Z</time>
      </trkpt>
      <trkpt lat="42.75924" lon="0.16662">
        <ele>1714</ele>
        <time>2019-02-27T12:20:53Z</time>
      </trkpt>
      <trkpt lat="42.75924" lon="0.16662">
        <ele>1714</ele>
        <time>2019-02-27T12:20:54Z</time>
      </trkpt>
      <trkpt lat="42.75924" lon="0.16662">
        <ele>1714</ele>
        <time>2019-02-27T12:20:55Z</time>
      </trkpt>
      <trkpt lat="42.75924" lon="0.16662">
        <ele>1714</ele>
        <time>2019-02-27T12:20:56Z</time>
      </trkpt>
      <trkpt lat="42.75924" lon="0.16662">
        <ele>1714</ele>
        <time>2019-02-27T12:20:57Z</time>
      </trkpt>
      <trkpt lat="42.75924" lon="0.16662">
        <ele>1714</ele>
        <time>2019-02-27T12:20:58Z</time>
      </trkpt>
      <trkpt lat="42.75924" lon="0.16662">
        <ele>1714</ele>
        <time>2019-02-27T12:20:59Z</time>
      </trkpt>
      <trkpt lat="42.75924" lon="0.16662">
        <ele>1714</ele>
        <time>2019-02-27T12:21:00Z</time>
      </trkpt>
      <trkpt lat="42.75924" lon="0.16662">
        <ele>1714</ele>
        <time>2019-02-27T12:21:01Z</time>
      </trkpt>
      <trkpt lat="42.75924" lon="0.16662">
        <ele>1714</ele>
        <time>2019-02-27T12:21:02Z</time>
      </trkpt>
      <trkpt lat="42.75924" lon="0.16662">
        <ele>1714</ele>
        <time>2019-02-27T12:21:03Z</time>
      </trkpt>
      <trkpt lat="42.75924" lon="0.16662">
        <ele>1714</ele>
        <time>2019-02-27T12:21:04Z</time>
      </trkpt>
      <trkpt lat="42.75924" lon="0.16662">
        <ele>1714</ele>
        <time>2019-02-27T12:21:05Z</time>
      </trkpt>
      <trkpt lat="42.75924" lon="0.16662">
        <ele>1714</ele>
        <time>2019-02-27T12:21:06Z</time>
      </trkpt>
      <trkpt lat="42.75924" lon="0.16662">
        <ele>1714</ele>
        <time>2019-02-27T12:21:07Z</time>
      </trkpt>
      <trkpt lat="42.75924" lon="0.16662">
        <ele>1714</ele>
        <time>2019-02-27T12:21:08Z</time>
      </trkpt>
      <trkpt lat="42.75924" lon="0.16662">
        <ele>1714</ele>
        <time>2019-02-27T12:21:09Z</time>
      </trkpt>
      <trkpt lat="42.75924" lon="0.16662">
        <ele>1714</ele>
        <time>2019-02-27T12:21:10Z</time>
      </trkpt>
      <trkpt lat="42.75924" lon="0.16662">
        <ele>1714</ele>
        <time>2019-02-27T12:21:11Z</time>
      </trkpt>
      <trkpt lat="42.75924" lon="0.16662">
        <ele>1714</ele>
        <time>2019-02-27T12:21:12Z</time>
      </trkpt>
      <trkpt lat="42.75924" lon="0.16662">
        <ele>1714</ele>
        <time>2019-02-27T12:21:13Z</time>
      </trkpt>
      <trkpt lat="42.75924" lon="0.16662">
        <ele>1714</ele>
        <time>2019-02-27T12:21:14Z</time>
      </trkpt>
      <trkpt lat="42.75924" lon="0.16662">
        <ele>1714</ele>
        <time>2019-02-27T12:21:15Z</time>
      </trkpt>
      <trkpt lat="42.75924" lon="0.16662">
        <ele>1714</ele>
        <time>2019-02-27T12:21:16Z</time>
      </trkpt>
      <trkpt lat="42.75924" lon="0.16662">
        <ele>1714</ele>
        <time>2019-02-27T12:21:17Z</time>
      </trkpt>
      <trkpt lat="42.75924" lon="0.16662">
        <ele>1714</ele>
        <time>2019-02-27T12:21:18Z</time>
      </trkpt>
      <trkpt lat="42.75924" lon="0.16662">
        <ele>1714</ele>
        <time>2019-02-27T12:21:19Z</time>
      </trkpt>
      <trkpt lat="42.75924" lon="0.16662">
        <ele>1714</ele>
        <time>2019-02-27T12:21:20Z</time>
      </trkpt>
      <trkpt lat="42.75924" lon="0.16662">
        <ele>1714</ele>
        <time>2019-02-27T12:21:21Z</time>
      </trkpt>
      <trkpt lat="42.75924" lon="0.16662">
        <ele>1714</ele>
        <time>2019-02-27T12:21:22Z</time>
      </trkpt>
      <trkpt lat="42.75924" lon="0.16662">
        <ele>1714</ele>
        <time>2019-02-27T12:21:23Z</time>
      </trkpt>
      <trkpt lat="42.75924" lon="0.16662">
        <ele>1714</ele>
        <time>2019-02-27T12:21:24Z</time>
      </trkpt>
      <trkpt lat="42.75924" lon="0.16662">
        <ele>1714</ele>
        <time>2019-02-27T12:21:25Z</time>
      </trkpt>
      <trkpt lat="42.75924" lon="0.16662">
        <ele>1714</ele>
        <time>2019-02-27T12:21:26Z</time>
      </trkpt>
      <trkpt lat="42.75924" lon="0.16662">
        <ele>1714</ele>
        <time>2019-02-27T12:21:27Z</time>
      </trkpt>
      <trkpt lat="42.75924" lon="0.16662">
        <ele>1715</ele>
        <time>2019-02-27T12:21:28Z</time>
      </trkpt>
      <trkpt lat="42.75924" lon="0.16662">
        <ele>1715</ele>
        <time>2019-02-27T12:21:29Z</time>
      </trkpt>
      <trkpt lat="42.75924" lon="0.16662">
        <ele>1714</ele>
        <time>2019-02-27T12:21:30Z</time>
      </trkpt>
      <trkpt lat="42.75924" lon="0.16662">
        <ele>1714</ele>
        <time>2019-02-27T12:21:31Z</time>
      </trkpt>
      <trkpt lat="42.75924" lon="0.16662">
        <ele>1714</ele>
        <time>2019-02-27T12:21:32Z</time>
      </trkpt>
      <trkpt lat="42.75924" lon="0.16662">
        <ele>1714</ele>
        <time>2019-02-27T12:21:33Z</time>
      </trkpt>
      <trkpt lat="42.75924" lon="0.16662">
        <ele>1714</ele>
        <time>2019-02-27T12:21:34Z</time>
      </trkpt>
      <trkpt lat="42.75924" lon="0.16662">
        <ele>1714</ele>
        <time>2019-02-27T12:21:35Z</time>
      </trkpt>
      <trkpt lat="42.75924" lon="0.16662">
        <ele>1714</ele>
        <time>2019-02-27T12:21:36Z</time>
      </trkpt>
      <trkpt lat="42.75924" lon="0.16662">
        <ele>1714</ele>
        <time>2019-02-27T12:21:37Z</time>
      </trkpt>
      <trkpt lat="42.75924" lon="0.16662">
        <ele>1714</ele>
        <time>2019-02-27T12:21:38Z</time>
      </trkpt>
      <trkpt lat="42.75924" lon="0.16662">
        <ele>1714</ele>
        <time>2019-02-27T12:21:39Z</time>
      </trkpt>
      <trkpt lat="42.75924" lon="0.16662">
        <ele>1714</ele>
        <time>2019-02-27T12:21:40Z</time>
      </trkpt>
      <trkpt lat="42.75924" lon="0.16662">
        <ele>1714</ele>
        <time>2019-02-27T12:21:41Z</time>
      </trkpt>
      <trkpt lat="42.75924" lon="0.16662">
        <ele>1714</ele>
        <time>2019-02-27T12:21:42Z</time>
      </trkpt>
      <trkpt lat="42.75924" lon="0.16662">
        <ele>1714</ele>
        <time>2019-02-27T12:21:43Z</time>
      </trkpt>
      <trkpt lat="42.75924" lon="0.16662">
        <ele>1714</ele>
        <time>2019-02-27T12:21:44Z</time>
      </trkpt>
      <trkpt lat="42.75924" lon="0.16662">
        <ele>1714</ele>
        <time>2019-02-27T12:21:45Z</time>
      </trkpt>
      <trkpt lat="42.75924" lon="0.16662">
        <ele>1714</ele>
        <time>2019-02-27T12:21:46Z</time>
      </trkpt>
      <trkpt lat="42.75924" lon="0.16662">
        <ele>1714</ele>
        <time>2019-02-27T12:21:47Z</time>
      </trkpt>
      <trkpt lat="42.75924" lon="0.16662">
        <ele>1714</ele>
        <time>2019-02-27T12:21:48Z</time>
      </trkpt>
      <trkpt lat="42.75924" lon="0.16662">
        <ele>1714</ele>
        <time>2019-02-27T12:21:49Z</time>
      </trkpt>
      <trkpt lat="42.75924" lon="0.16662">
        <ele>1714</ele>
        <time>2019-02-27T12:21:50Z</time>
      </trkpt>
      <trkpt lat="42.75924" lon="0.16662">
        <ele>1714</ele>
        <time>2019-02-27T12:21:51Z</time>
      </trkpt>
      <trkpt lat="42.75924" lon="0.16662">
        <ele>1714</ele>
        <time>2019-02-27T12:21:52Z</time>
      </trkpt>
      <trkpt lat="42.75924" lon="0.16662">
        <ele>1714</ele>
        <time>2019-02-27T12:21:53Z</time>
      </trkpt>
      <trkpt lat="42.75924" lon="0.16662">
        <ele>1714</ele>
        <time>2019-02-27T12:21:54Z</time>
      </trkpt>
      <trkpt lat="42.75924" lon="0.16662">
        <ele>1715</ele>
        <time>2019-02-27T12:21:55Z</time>
      </trkpt>
      <trkpt lat="42.75924" lon="0.16662">
        <ele>1715</ele>
        <time>2019-02-27T12:21:56Z</time>
      </trkpt>
      <trkpt lat="42.75924" lon="0.16662">
        <ele>1715</ele>
        <time>2019-02-27T12:21:57Z</time>
      </trkpt>
      <trkpt lat="42.75924" lon="0.16662">
        <ele>1715</ele>
        <time>2019-02-27T12:21:58Z</time>
      </trkpt>
      <trkpt lat="42.75924" lon="0.16662">
        <ele>1714</ele>
        <time>2019-02-27T12:21:59Z</time>
      </trkpt>
      <trkpt lat="42.75924" lon="0.16662">
        <ele>1714</ele>
        <time>2019-02-27T12:22:00Z</time>
      </trkpt>
      <trkpt lat="42.75924" lon="0.16662">
        <ele>1714</ele>
        <time>2019-02-27T12:22:01Z</time>
      </trkpt>
      <trkpt lat="42.75924" lon="0.16662">
        <ele>1714</ele>
        <time>2019-02-27T12:22:02Z</time>
      </trkpt>
      <trkpt lat="42.75924" lon="0.16662">
        <ele>1714</ele>
        <time>2019-02-27T12:22:03Z</time>
      </trkpt>
      <trkpt lat="42.75924" lon="0.16662">
        <ele>1714</ele>
        <time>2019-02-27T12:22:04Z</time>
      </trkpt>
      <trkpt lat="42.75924" lon="0.16662">
        <ele>1714</ele>
        <time>2019-02-27T12:22:05Z</time>
      </trkpt>
      <trkpt lat="42.75924" lon="0.16662">
        <ele>1714</ele>
        <time>2019-02-27T12:22:06Z</time>
      </trkpt>
      <trkpt lat="42.75924" lon="0.16662">
        <ele>1714</ele>
        <time>2019-02-27T12:22:07Z</time>
      </trkpt>
      <trkpt lat="42.75924" lon="0.16662">
        <ele>1714</ele>
        <time>2019-02-27T12:22:08Z</time>
      </trkpt>
      <trkpt lat="42.75924" lon="0.16662">
        <ele>1714</ele>
        <time>2019-02-27T12:22:09Z</time>
      </trkpt>
      <trkpt lat="42.75924" lon="0.16662">
        <ele>1714</ele>
        <time>2019-02-27T12:22:10Z</time>
      </trkpt>
      <trkpt lat="42.75924" lon="0.16662">
        <ele>1714</ele>
        <time>2019-02-27T12:22:11Z</time>
      </trkpt>
      <trkpt lat="42.75924" lon="0.16662">
        <ele>1714</ele>
        <time>2019-02-27T12:22:12Z</time>
      </trkpt>
      <trkpt lat="42.75924" lon="0.16662">
        <ele>1714</ele>
        <time>2019-02-27T12:22:13Z</time>
      </trkpt>
      <trkpt lat="42.75924" lon="0.16662">
        <ele>1714</ele>
        <time>2019-02-27T12:22:14Z</time>
      </trkpt>
      <trkpt lat="42.75924" lon="0.16662">
        <ele>1714</ele>
        <time>2019-02-27T12:22:15Z</time>
      </trkpt>
      <trkpt lat="42.75924" lon="0.16662">
        <ele>1714</ele>
        <time>2019-02-27T12:22:16Z</time>
      </trkpt>
      <trkpt lat="42.75924" lon="0.16662">
        <ele>1714</ele>
        <time>2019-02-27T12:22:17Z</time>
      </trkpt>
      <trkpt lat="42.75924" lon="0.16662">
        <ele>1714</ele>
        <time>2019-02-27T12:22:18Z</time>
      </trkpt>
      <trkpt lat="42.75924" lon="0.16662">
        <ele>1714</ele>
        <time>2019-02-27T12:22:19Z</time>
      </trkpt>
      <trkpt lat="42.75924" lon="0.16662">
        <ele>1714</ele>
        <time>2019-02-27T12:22:20Z</time>
      </trkpt>
      <trkpt lat="42.75924" lon="0.16662">
        <ele>1714</ele>
        <time>2019-02-27T12:22:21Z</time>
      </trkpt>
      <trkpt lat="42.75924" lon="0.16662">
        <ele>1714</ele>
        <time>2019-02-27T12:22:22Z</time>
      </trkpt>
      <trkpt lat="42.75924" lon="0.16662">
        <ele>1714</ele>
        <time>2019-02-27T12:22:23Z</time>
      </trkpt>
      <trkpt lat="42.75924" lon="0.16662">
        <ele>1714</ele>
        <time>2019-02-27T12:22:24Z</time>
      </trkpt>
      <trkpt lat="42.75924" lon="0.16662">
        <ele>1714</ele>
        <time>2019-02-27T12:22:25Z</time>
      </trkpt>
      <trkpt lat="42.75924" lon="0.16662">
        <ele>1714</ele>
        <time>2019-02-27T12:22:26Z</time>
      </trkpt>
      <trkpt lat="42.75924" lon="0.16662">
        <ele>1714</ele>
        <time>2019-02-27T12:22:27Z</time>
      </trkpt>
      <trkpt lat="42.75924" lon="0.16662">
        <ele>1714</ele>
        <time>2019-02-27T12:22:28Z</time>
      </trkpt>
      <trkpt lat="42.75924" lon="0.16662">
        <ele>1714</ele>
        <time>2019-02-27T12:22:29Z</time>
      </trkpt>
      <trkpt lat="42.75924" lon="0.16662">
        <ele>1714</ele>
        <time>2019-02-27T12:22:30Z</time>
      </trkpt>
      <trkpt lat="42.75924" lon="0.16662">
        <ele>1714</ele>
        <time>2019-02-27T12:22:31Z</time>
      </trkpt>
      <trkpt lat="42.75924" lon="0.16662">
        <ele>1714</ele>
        <time>2019-02-27T12:22:32Z</time>
      </trkpt>
      <trkpt lat="42.75924" lon="0.16662">
        <ele>1714</ele>
        <time>2019-02-27T12:22:33Z</time>
      </trkpt>
      <trkpt lat="42.75924" lon="0.16662">
        <ele>1714</ele>
        <time>2019-02-27T12:22:34Z</time>
      </trkpt>
      <trkpt lat="42.75924" lon="0.16662">
        <ele>1714</ele>
        <time>2019-02-27T12:22:35Z</time>
      </trkpt>
      <trkpt lat="42.75924" lon="0.16662">
        <ele>1714</ele>
        <time>2019-02-27T12:22:36Z</time>
      </trkpt>
      <trkpt lat="42.75924" lon="0.16662">
        <ele>1714</ele>
        <time>2019-02-27T12:22:37Z</time>
      </trkpt>
      <trkpt lat="42.75924" lon="0.16662">
        <ele>1714</ele>
        <time>2019-02-27T12:22:38Z</time>
      </trkpt>
      <trkpt lat="42.75924" lon="0.16662">
        <ele>1714</ele>
        <time>2019-02-27T12:22:39Z</time>
      </trkpt>
      <trkpt lat="42.75924" lon="0.16662">
        <ele>1714</ele>
        <time>2019-02-27T12:22:40Z</time>
      </trkpt>
      <trkpt lat="42.75924" lon="0.16662">
        <ele>1714</ele>
        <time>2019-02-27T12:22:41Z</time>
      </trkpt>
      <trkpt lat="42.75924" lon="0.16662">
        <ele>1714</ele>
        <time>2019-02-27T12:22:42Z</time>
      </trkpt>
      <trkpt lat="42.75924" lon="0.16662">
        <ele>1714</ele>
        <time>2019-02-27T12:22:43Z</time>
      </trkpt>
      <trkpt lat="42.75924" lon="0.16662">
        <ele>1714</ele>
        <time>2019-02-27T12:22:44Z</time>
      </trkpt>
      <trkpt lat="42.75924" lon="0.16662">
        <ele>1714</ele>
        <time>2019-02-27T12:22:45Z</time>
      </trkpt>
      <trkpt lat="42.75924" lon="0.16662">
        <ele>1714</ele>
        <time>2019-02-27T12:22:46Z</time>
      </trkpt>
      <trkpt lat="42.75924" lon="0.16662">
        <ele>1714</ele>
        <time>2019-02-27T12:22:47Z</time>
      </trkpt>
      <trkpt lat="42.75924" lon="0.16662">
        <ele>1714</ele>
        <time>2019-02-27T12:22:48Z</time>
      </trkpt>
      <trkpt lat="42.75924" lon="0.16662">
        <ele>1714</ele>
        <time>2019-02-27T12:22:49Z</time>
      </trkpt>
      <trkpt lat="42.75924" lon="0.16662">
        <ele>1714</ele>
        <time>2019-02-27T12:22:50Z</time>
      </trkpt>
      <trkpt lat="42.75924" lon="0.16662">
        <ele>1714</ele>
        <time>2019-02-27T12:22:51Z</time>
      </trkpt>
      <trkpt lat="42.75924" lon="0.16662">
        <ele>1714</ele>
        <time>2019-02-27T12:22:52Z</time>
      </trkpt>
      <trkpt lat="42.75924" lon="0.16662">
        <ele>1714</ele>
        <time>2019-02-27T12:22:53Z</time>
      </trkpt>
      <trkpt lat="42.75924" lon="0.16662">
        <ele>1714</ele>
        <time>2019-02-27T12:22:54Z</time>
      </trkpt>
      <trkpt lat="42.75924" lon="0.16662">
        <ele>1714</ele>
        <time>2019-02-27T12:22:55Z</time>
      </trkpt>
      <trkpt lat="42.75924" lon="0.16662">
        <ele>1714</ele>
        <time>2019-02-27T12:22:56Z</time>
      </trkpt>
      <trkpt lat="42.75924" lon="0.16662">
        <ele>1714</ele>
        <time>2019-02-27T12:22:57Z</time>
      </trkpt>
      <trkpt lat="42.75924" lon="0.16662">
        <ele>1714</ele>
        <time>2019-02-27T12:22:58Z</time>
      </trkpt>
      <trkpt lat="42.75924" lon="0.16662">
        <ele>1714</ele>
        <time>2019-02-27T12:22:59Z</time>
      </trkpt>
      <trkpt lat="42.75924" lon="0.16662">
        <ele>1714</ele>
        <time>2019-02-27T12:23:00Z</time>
      </trkpt>
      <trkpt lat="42.75924" lon="0.16662">
        <ele>1714</ele>
        <time>2019-02-27T12:23:01Z</time>
      </trkpt>
      <trkpt lat="42.75924" lon="0.16662">
        <ele>1714</ele>
        <time>2019-02-27T12:23:02Z</time>
      </trkpt>
      <trkpt lat="42.75924" lon="0.16662">
        <ele>1714</ele>
        <time>2019-02-27T12:23:03Z</time>
      </trkpt>
      <trkpt lat="42.75924" lon="0.16662">
        <ele>1714</ele>
        <time>2019-02-27T12:23:04Z</time>
      </trkpt>
      <trkpt lat="42.75924" lon="0.16662">
        <ele>1714</ele>
        <time>2019-02-27T12:23:05Z</time>
      </trkpt>
      <trkpt lat="42.75924" lon="0.16662">
        <ele>1714</ele>
        <time>2019-02-27T12:23:06Z</time>
      </trkpt>
      <trkpt lat="42.75924" lon="0.16662">
        <ele>1714</ele>
        <time>2019-02-27T12:23:07Z</time>
      </trkpt>
      <trkpt lat="42.75924" lon="0.16662">
        <ele>1714</ele>
        <time>2019-02-27T12:23:08Z</time>
      </trkpt>
      <trkpt lat="42.75924" lon="0.16662">
        <ele>1714</ele>
        <time>2019-02-27T12:23:09Z</time>
      </trkpt>
      <trkpt lat="42.75924" lon="0.16662">
        <ele>1714</ele>
        <time>2019-02-27T12:23:10Z</time>
      </trkpt>
      <trkpt lat="42.75924" lon="0.16662">
        <ele>1714</ele>
        <time>2019-02-27T12:23:11Z</time>
      </trkpt>
      <trkpt lat="42.75924" lon="0.16662">
        <ele>1714</ele>
        <time>2019-02-27T12:23:12Z</time>
      </trkpt>
      <trkpt lat="42.75924" lon="0.16662">
        <ele>1714</ele>
        <time>2019-02-27T12:23:13Z</time>
      </trkpt>
      <trkpt lat="42.75924" lon="0.16662">
        <ele>1714</ele>
        <time>2019-02-27T12:23:14Z</time>
      </trkpt>
      <trkpt lat="42.75924" lon="0.16662">
        <ele>1714</ele>
        <time>2019-02-27T12:23:15Z</time>
      </trkpt>
      <trkpt lat="42.75924" lon="0.16662">
        <ele>1714</ele>
        <time>2019-02-27T12:23:16Z</time>
      </trkpt>
      <trkpt lat="42.75924" lon="0.16662">
        <ele>1714</ele>
        <time>2019-02-27T12:23:17Z</time>
      </trkpt>
      <trkpt lat="42.75924" lon="0.16662">
        <ele>1714</ele>
        <time>2019-02-27T12:23:18Z</time>
      </trkpt>
      <trkpt lat="42.75924" lon="0.16662">
        <ele>1714</ele>
        <time>2019-02-27T12:23:19Z</time>
      </trkpt>
      <trkpt lat="42.75924" lon="0.16662">
        <ele>1714</ele>
        <time>2019-02-27T12:23:20Z</time>
      </trkpt>
      <trkpt lat="42.75924" lon="0.16662">
        <ele>1714</ele>
        <time>2019-02-27T12:23:21Z</time>
      </trkpt>
      <trkpt lat="42.75924" lon="0.16662">
        <ele>1714</ele>
        <time>2019-02-27T12:23:22Z</time>
      </trkpt>
      <trkpt lat="42.75924" lon="0.16662">
        <ele>1714</ele>
        <time>2019-02-27T12:23:23Z</time>
      </trkpt>
      <trkpt lat="42.75924" lon="0.16662">
        <ele>1714</ele>
        <time>2019-02-27T12:23:24Z</time>
      </trkpt>
      <trkpt lat="42.75924" lon="0.16662">
        <ele>1714</ele>
        <time>2019-02-27T12:23:25Z</time>
      </trkpt>
      <trkpt lat="42.75924" lon="0.16662">
        <ele>1714</ele>
        <time>2019-02-27T12:23:26Z</time>
      </trkpt>
      <trkpt lat="42.75924" lon="0.16662">
        <ele>1714</ele>
        <time>2019-02-27T12:23:27Z</time>
      </trkpt>
      <trkpt lat="42.75924" lon="0.16662">
        <ele>1714</ele>
        <time>2019-02-27T12:23:28Z</time>
      </trkpt>
      <trkpt lat="42.75924" lon="0.16662">
        <ele>1714</ele>
        <time>2019-02-27T12:23:29Z</time>
      </trkpt>
      <trkpt lat="42.75924" lon="0.16662">
        <ele>1714</ele>
        <time>2019-02-27T12:23:30Z</time>
      </trkpt>
      <trkpt lat="42.75924" lon="0.16662">
        <ele>1714</ele>
        <time>2019-02-27T12:23:31Z</time>
      </trkpt>
      <trkpt lat="42.75924" lon="0.16662">
        <ele>1714</ele>
        <time>2019-02-27T12:23:32Z</time>
      </trkpt>
      <trkpt lat="42.75924" lon="0.16662">
        <ele>1714</ele>
        <time>2019-02-27T12:23:33Z</time>
      </trkpt>
      <trkpt lat="42.75924" lon="0.16662">
        <ele>1714</ele>
        <time>2019-02-27T12:23:34Z</time>
      </trkpt>
      <trkpt lat="42.75924" lon="0.16662">
        <ele>1714</ele>
        <time>2019-02-27T12:23:35Z</time>
      </trkpt>
      <trkpt lat="42.75924" lon="0.16662">
        <ele>1714</ele>
        <time>2019-02-27T12:23:36Z</time>
      </trkpt>
      <trkpt lat="42.75924" lon="0.16662">
        <ele>1714</ele>
        <time>2019-02-27T12:23:37Z</time>
      </trkpt>
      <trkpt lat="42.75924" lon="0.16662">
        <ele>1714</ele>
        <time>2019-02-27T12:23:38Z</time>
      </trkpt>
      <trkpt lat="42.75924" lon="0.16662">
        <ele>1714</ele>
        <time>2019-02-27T12:23:39Z</time>
      </trkpt>
      <trkpt lat="42.75924" lon="0.16662">
        <ele>1714</ele>
        <time>2019-02-27T12:23:40Z</time>
      </trkpt>
      <trkpt lat="42.75924" lon="0.16662">
        <ele>1714</ele>
        <time>2019-02-27T12:23:41Z</time>
      </trkpt>
      <trkpt lat="42.75924" lon="0.16662">
        <ele>1714</ele>
        <time>2019-02-27T12:23:42Z</time>
      </trkpt>
      <trkpt lat="42.75924" lon="0.16662">
        <ele>1714</ele>
        <time>2019-02-27T12:23:43Z</time>
      </trkpt>
      <trkpt lat="42.75924" lon="0.16662">
        <ele>1714</ele>
        <time>2019-02-27T12:23:44Z</time>
      </trkpt>
      <trkpt lat="42.75924" lon="0.16662">
        <ele>1714</ele>
        <time>2019-02-27T12:23:45Z</time>
      </trkpt>
      <trkpt lat="42.75924" lon="0.16662">
        <ele>1714</ele>
        <time>2019-02-27T12:23:46Z</time>
      </trkpt>
      <trkpt lat="42.75924" lon="0.16662">
        <ele>1714</ele>
        <time>2019-02-27T12:23:47Z</time>
      </trkpt>
      <trkpt lat="42.75924" lon="0.16662">
        <ele>1714</ele>
        <time>2019-02-27T12:23:48Z</time>
      </trkpt>
      <trkpt lat="42.75924" lon="0.16662">
        <ele>1714</ele>
        <time>2019-02-27T12:23:49Z</time>
      </trkpt>
      <trkpt lat="42.75924" lon="0.16662">
        <ele>1714</ele>
        <time>2019-02-27T12:23:50Z</time>
      </trkpt>
      <trkpt lat="42.75924" lon="0.16662">
        <ele>1714</ele>
        <time>2019-02-27T12:23:51Z</time>
      </trkpt>
      <trkpt lat="42.75924" lon="0.16662">
        <ele>1714</ele>
        <time>2019-02-27T12:23:52Z</time>
      </trkpt>
      <trkpt lat="42.75924" lon="0.16662">
        <ele>1714</ele>
        <time>2019-02-27T12:23:53Z</time>
      </trkpt>
      <trkpt lat="42.75924" lon="0.16662">
        <ele>1714</ele>
        <time>2019-02-27T12:23:54Z</time>
      </trkpt>
      <trkpt lat="42.75924" lon="0.16662">
        <ele>1714</ele>
        <time>2019-02-27T12:23:55Z</time>
      </trkpt>
      <trkpt lat="42.75924" lon="0.16662">
        <ele>1714</ele>
        <time>2019-02-27T12:23:56Z</time>
      </trkpt>
      <trkpt lat="42.75924" lon="0.16662">
        <ele>1714</ele>
        <time>2019-02-27T12:23:57Z</time>
      </trkpt>
      <trkpt lat="42.75924" lon="0.16662">
        <ele>1714</ele>
        <time>2019-02-27T12:23:58Z</time>
      </trkpt>
      <trkpt lat="42.75924" lon="0.16662">
        <ele>1714</ele>
        <time>2019-02-27T12:23:59Z</time>
      </trkpt>
      <trkpt lat="42.75924" lon="0.16662">
        <ele>1714</ele>
        <time>2019-02-27T12:24:00Z</time>
      </trkpt>
      <trkpt lat="42.75924" lon="0.16662">
        <ele>1714</ele>
        <time>2019-02-27T12:24:01Z</time>
      </trkpt>
      <trkpt lat="42.75924" lon="0.16662">
        <ele>1714</ele>
        <time>2019-02-27T12:24:02Z</time>
      </trkpt>
      <trkpt lat="42.75924" lon="0.16662">
        <ele>1714</ele>
        <time>2019-02-27T12:24:03Z</time>
      </trkpt>
      <trkpt lat="42.75924" lon="0.16662">
        <ele>1714</ele>
        <time>2019-02-27T12:24:04Z</time>
      </trkpt>
      <trkpt lat="42.75924" lon="0.16662">
        <ele>1714</ele>
        <time>2019-02-27T12:24:05Z</time>
      </trkpt>
      <trkpt lat="42.75924" lon="0.16662">
        <ele>1714</ele>
        <time>2019-02-27T12:24:06Z</time>
      </trkpt>
      <trkpt lat="42.75924" lon="0.16662">
        <ele>1714</ele>
        <time>2019-02-27T12:24:07Z</time>
      </trkpt>
      <trkpt lat="42.75924" lon="0.16662">
        <ele>1714</ele>
        <time>2019-02-27T12:24:08Z</time>
      </trkpt>
      <trkpt lat="42.75924" lon="0.16662">
        <ele>1714</ele>
        <time>2019-02-27T12:24:09Z</time>
      </trkpt>
      <trkpt lat="42.75924" lon="0.16662">
        <ele>1714</ele>
        <time>2019-02-27T12:24:10Z</time>
      </trkpt>
      <trkpt lat="42.75924" lon="0.16662">
        <ele>1714</ele>
        <time>2019-02-27T12:24:11Z</time>
      </trkpt>
      <trkpt lat="42.75924" lon="0.16662">
        <ele>1714</ele>
        <time>2019-02-27T12:24:12Z</time>
      </trkpt>
      <trkpt lat="42.75924" lon="0.16662">
        <ele>1714</ele>
        <time>2019-02-27T12:24:13Z</time>
      </trkpt>
      <trkpt lat="42.75924" lon="0.16662">
        <ele>1714</ele>
        <time>2019-02-27T12:24:14Z</time>
      </trkpt>
      <trkpt lat="42.75924" lon="0.16662">
        <ele>1714</ele>
        <time>2019-02-27T12:24:15Z</time>
      </trkpt>
      <trkpt lat="42.75924" lon="0.16662">
        <ele>1714</ele>
        <time>2019-02-27T12:24:16Z</time>
      </trkpt>
      <trkpt lat="42.75924" lon="0.16662">
        <ele>1714</ele>
        <time>2019-02-27T12:24:17Z</time>
      </trkpt>
      <trkpt lat="42.75924" lon="0.16662">
        <ele>1714</ele>
        <time>2019-02-27T12:24:18Z</time>
      </trkpt>
      <trkpt lat="42.75924" lon="0.16662">
        <ele>1714</ele>
        <time>2019-02-27T12:24:19Z</time>
      </trkpt>
      <trkpt lat="42.75924" lon="0.16662">
        <ele>1714</ele>
        <time>2019-02-27T12:24:20Z</time>
      </trkpt>
      <trkpt lat="42.75924" lon="0.16662">
        <ele>1714</ele>
        <time>2019-02-27T12:24:21Z</time>
      </trkpt>
      <trkpt lat="42.75924" lon="0.16662">
        <ele>1714</ele>
        <time>2019-02-27T12:24:22Z</time>
      </trkpt>
      <trkpt lat="42.75924" lon="0.16662">
        <ele>1714</ele>
        <time>2019-02-27T12:24:23Z</time>
      </trkpt>
      <trkpt lat="42.75924" lon="0.16662">
        <ele>1714</ele>
        <time>2019-02-27T12:24:24Z</time>
      </trkpt>
      <trkpt lat="42.75924" lon="0.16662">
        <ele>1714</ele>
        <time>2019-02-27T12:24:25Z</time>
      </trkpt>
      <trkpt lat="42.75924" lon="0.16662">
        <ele>1714</ele>
        <time>2019-02-27T12:24:26Z</time>
      </trkpt>
      <trkpt lat="42.75924" lon="0.16662">
        <ele>1714</ele>
        <time>2019-02-27T12:24:27Z</time>
      </trkpt>
      <trkpt lat="42.75924" lon="0.16662">
        <ele>1714</ele>
        <time>2019-02-27T12:24:28Z</time>
      </trkpt>
      <trkpt lat="42.75924" lon="0.16662">
        <ele>1714</ele>
        <time>2019-02-27T12:24:29Z</time>
      </trkpt>
      <trkpt lat="42.75924" lon="0.16662">
        <ele>1714</ele>
        <time>2019-02-27T12:24:30Z</time>
      </trkpt>
      <trkpt lat="42.75924" lon="0.16662">
        <ele>1714</ele>
        <time>2019-02-27T12:24:31Z</time>
      </trkpt>
      <trkpt lat="42.75924" lon="0.16662">
        <ele>1714</ele>
        <time>2019-02-27T12:24:32Z</time>
      </trkpt>
      <trkpt lat="42.75924" lon="0.16662">
        <ele>1714</ele>
        <time>2019-02-27T12:24:33Z</time>
      </trkpt>
      <trkpt lat="42.75924" lon="0.16662">
        <ele>1714</ele>
        <time>2019-02-27T12:24:34Z</time>
      </trkpt>
      <trkpt lat="42.75924" lon="0.16662">
        <ele>1714</ele>
        <time>2019-02-27T12:24:35Z</time>
      </trkpt>
      <trkpt lat="42.75924" lon="0.16662">
        <ele>1714</ele>
        <time>2019-02-27T12:24:36Z</time>
      </trkpt>
      <trkpt lat="42.75924" lon="0.16662">
        <ele>1714</ele>
        <time>2019-02-27T12:24:37Z</time>
      </trkpt>
      <trkpt lat="42.75924" lon="0.16662">
        <ele>1714</ele>
        <time>2019-02-27T12:24:38Z</time>
      </trkpt>
      <trkpt lat="42.75924" lon="0.16662">
        <ele>1714</ele>
        <time>2019-02-27T12:24:39Z</time>
      </trkpt>
      <trkpt lat="42.75924" lon="0.16662">
        <ele>1714</ele>
        <time>2019-02-27T12:24:40Z</time>
      </trkpt>
      <trkpt lat="42.75924" lon="0.16662">
        <ele>1714</ele>
        <time>2019-02-27T12:24:41Z</time>
      </trkpt>
      <trkpt lat="42.75924" lon="0.16662">
        <ele>1714</ele>
        <time>2019-02-27T12:24:42Z</time>
      </trkpt>
      <trkpt lat="42.75924" lon="0.16662">
        <ele>1714</ele>
        <time>2019-02-27T12:24:43Z</time>
      </trkpt>
      <trkpt lat="42.75924" lon="0.16662">
        <ele>1714</ele>
        <time>2019-02-27T12:24:44Z</time>
      </trkpt>
      <trkpt lat="42.75924" lon="0.16662">
        <ele>1714</ele>
        <time>2019-02-27T12:24:45Z</time>
      </trkpt>
      <trkpt lat="42.75924" lon="0.16662">
        <ele>1714</ele>
        <time>2019-02-27T12:24:46Z</time>
      </trkpt>
      <trkpt lat="42.75924" lon="0.16662">
        <ele>1714</ele>
        <time>2019-02-27T12:24:47Z</time>
      </trkpt>
      <trkpt lat="42.75924" lon="0.16662">
        <ele>1714</ele>
        <time>2019-02-27T12:24:48Z</time>
      </trkpt>
      <trkpt lat="42.75924" lon="0.16662">
        <ele>1714</ele>
        <time>2019-02-27T12:24:49Z</time>
      </trkpt>
      <trkpt lat="42.75924" lon="0.16662">
        <ele>1714</ele>
        <time>2019-02-27T12:24:50Z</time>
      </trkpt>
      <trkpt lat="42.75924" lon="0.16662">
        <ele>1714</ele>
        <time>2019-02-27T12:24:51Z</time>
      </trkpt>
      <trkpt lat="42.75924" lon="0.16662">
        <ele>1714</ele>
        <time>2019-02-27T12:24:52Z</time>
      </trkpt>
      <trkpt lat="42.75924" lon="0.16662">
        <ele>1714</ele>
        <time>2019-02-27T12:24:53Z</time>
      </trkpt>
      <trkpt lat="42.75924" lon="0.16662">
        <ele>1714</ele>
        <time>2019-02-27T12:24:54Z</time>
      </trkpt>
      <trkpt lat="42.75924" lon="0.16662">
        <ele>1714</ele>
        <time>2019-02-27T12:24:55Z</time>
      </trkpt>
      <trkpt lat="42.75924" lon="0.16662">
        <ele>1714</ele>
        <time>2019-02-27T12:24:56Z</time>
      </trkpt>
      <trkpt lat="42.75924" lon="0.16662">
        <ele>1714</ele>
        <time>2019-02-27T12:24:57Z</time>
      </trkpt>
      <trkpt lat="42.75924" lon="0.16662">
        <ele>1714</ele>
        <time>2019-02-27T12:24:58Z</time>
      </trkpt>
      <trkpt lat="42.75924" lon="0.16662">
        <ele>1714</ele>
        <time>2019-02-27T12:24:59Z</time>
      </trkpt>
      <trkpt lat="42.75924" lon="0.16662">
        <ele>1714</ele>
        <time>2019-02-27T12:25:00Z</time>
      </trkpt>
      <trkpt lat="42.75924" lon="0.16662">
        <ele>1714</ele>
        <time>2019-02-27T12:25:01Z</time>
      </trkpt>
      <trkpt lat="42.75924" lon="0.16662">
        <ele>1714</ele>
        <time>2019-02-27T12:25:02Z</time>
      </trkpt>
      <trkpt lat="42.75924" lon="0.16662">
        <ele>1714</ele>
        <time>2019-02-27T12:25:03Z</time>
      </trkpt>
      <trkpt lat="42.75924" lon="0.16662">
        <ele>1714</ele>
        <time>2019-02-27T12:25:04Z</time>
      </trkpt>
      <trkpt lat="42.75924" lon="0.16662">
        <ele>1714</ele>
        <time>2019-02-27T12:25:05Z</time>
      </trkpt>
      <trkpt lat="42.75924" lon="0.16662">
        <ele>1714</ele>
        <time>2019-02-27T12:25:06Z</time>
      </trkpt>
      <trkpt lat="42.75932" lon="0.1667">
        <ele>1714</ele>
        <time>2019-02-27T12:25:07Z</time>
      </trkpt>
      <trkpt lat="42.75933" lon="0.16671">
        <ele>1714</ele>
        <time>2019-02-27T12:25:08Z</time>
      </trkpt>
      <trkpt lat="42.75934" lon="0.16672">
        <ele>1714</ele>
        <time>2019-02-27T12:25:09Z</time>
      </trkpt>
      <trkpt lat="42.75935" lon="0.16673">
        <ele>1714</ele>
        <time>2019-02-27T12:25:10Z</time>
      </trkpt>
      <trkpt lat="42.75936" lon="0.16674">
        <ele>1714</ele>
        <time>2019-02-27T12:25:11Z</time>
      </trkpt>
      <trkpt lat="42.7594" lon="0.16679">
        <ele>1714</ele>
        <time>2019-02-27T12:25:12Z</time>
      </trkpt>
      <trkpt lat="42.7594" lon="0.16679">
        <ele>1714</ele>
        <time>2019-02-27T12:25:13Z</time>
      </trkpt>
      <trkpt lat="42.7594" lon="0.16678">
        <ele>1714</ele>
        <time>2019-02-27T12:25:14Z</time>
      </trkpt>
      <trkpt lat="42.7594" lon="0.16678">
        <ele>1714</ele>
        <time>2019-02-27T12:25:15Z</time>
      </trkpt>
      <trkpt lat="42.7594" lon="0.16678">
        <ele>1714</ele>
        <time>2019-02-27T12:25:16Z</time>
      </trkpt>
      <trkpt lat="42.7594" lon="0.16678">
        <ele>1714</ele>
        <time>2019-02-27T12:25:17Z</time>
      </trkpt>
      <trkpt lat="42.7594" lon="0.16678">
        <ele>1714</ele>
        <time>2019-02-27T12:25:18Z</time>
      </trkpt>
      <trkpt lat="42.75939" lon="0.16678">
        <ele>1714</ele>
        <time>2019-02-27T12:25:19Z</time>
      </trkpt>
      <trkpt lat="42.75939" lon="0.16678">
        <ele>1714</ele>
        <time>2019-02-27T12:25:20Z</time>
      </trkpt>
      <trkpt lat="42.75939" lon="0.16678">
        <ele>1714</ele>
        <time>2019-02-27T12:25:21Z</time>
      </trkpt>
      <trkpt lat="42.75939" lon="0.16678">
        <ele>1714</ele>
        <time>2019-02-27T12:25:22Z</time>
      </trkpt>
      <trkpt lat="42.75939" lon="0.16678">
        <ele>1714</ele>
        <time>2019-02-27T12:25:23Z</time>
      </trkpt>
      <trkpt lat="42.75939" lon="0.16678">
        <ele>1714</ele>
        <time>2019-02-27T12:25:24Z</time>
      </trkpt>
      <trkpt lat="42.75939" lon="0.16678">
        <ele>1714</ele>
        <time>2019-02-27T12:25:25Z</time>
      </trkpt>
      <trkpt lat="42.75939" lon="0.16678">
        <ele>1714</ele>
        <time>2019-02-27T12:25:26Z</time>
      </trkpt>
      <trkpt lat="42.75939" lon="0.16678">
        <ele>1714</ele>
        <time>2019-02-27T12:25:27Z</time>
      </trkpt>
      <trkpt lat="42.75939" lon="0.16678">
        <ele>1714</ele>
        <time>2019-02-27T12:25:28Z</time>
      </trkpt>
      <trkpt lat="42.75939" lon="0.16678">
        <ele>1714</ele>
        <time>2019-02-27T12:25:29Z</time>
      </trkpt>
      <trkpt lat="42.75939" lon="0.16678">
        <ele>1714</ele>
        <time>2019-02-27T12:25:30Z</time>
      </trkpt>
      <trkpt lat="42.75939" lon="0.16678">
        <ele>1714</ele>
        <time>2019-02-27T12:25:31Z</time>
      </trkpt>
      <trkpt lat="42.75939" lon="0.16678">
        <ele>1714</ele>
        <time>2019-02-27T12:25:32Z</time>
      </trkpt>
      <trkpt lat="42.75939" lon="0.16677">
        <ele>1714</ele>
        <time>2019-02-27T12:25:33Z</time>
      </trkpt>
      <trkpt lat="42.75938" lon="0.16677">
        <ele>1714</ele>
        <time>2019-02-27T12:25:34Z</time>
      </trkpt>
      <trkpt lat="42.75938" lon="0.16677">
        <ele>1714</ele>
        <time>2019-02-27T12:25:35Z</time>
      </trkpt>
      <trkpt lat="42.75938" lon="0.16677">
        <ele>1714</ele>
        <time>2019-02-27T12:25:36Z</time>
      </trkpt>
      <trkpt lat="42.75938" lon="0.16677">
        <ele>1714</ele>
        <time>2019-02-27T12:25:37Z</time>
      </trkpt>
      <trkpt lat="42.75938" lon="0.16677">
        <ele>1714</ele>
        <time>2019-02-27T12:25:38Z</time>
      </trkpt>
      <trkpt lat="42.75938" lon="0.16677">
        <ele>1714</ele>
        <time>2019-02-27T12:25:39Z</time>
      </trkpt>
      <trkpt lat="42.75938" lon="0.16677">
        <ele>1714</ele>
        <time>2019-02-27T12:25:40Z</time>
      </trkpt>
      <trkpt lat="42.75938" lon="0.16677">
        <ele>1714</ele>
        <time>2019-02-27T12:25:41Z</time>
      </trkpt>
      <trkpt lat="42.75938" lon="0.16677">
        <ele>1714</ele>
        <time>2019-02-27T12:25:42Z</time>
      </trkpt>
      <trkpt lat="42.75938" lon="0.16677">
        <ele>1714</ele>
        <time>2019-02-27T12:25:43Z</time>
      </trkpt>
      <trkpt lat="42.75938" lon="0.16677">
        <ele>1714</ele>
        <time>2019-02-27T12:25:44Z</time>
      </trkpt>
      <trkpt lat="42.75938" lon="0.16677">
        <ele>1714</ele>
        <time>2019-02-27T12:25:45Z</time>
      </trkpt>
      <trkpt lat="42.75938" lon="0.16677">
        <ele>1714</ele>
        <time>2019-02-27T12:25:46Z</time>
      </trkpt>
      <trkpt lat="42.75938" lon="0.16677">
        <ele>1714</ele>
        <time>2019-02-27T12:25:47Z</time>
      </trkpt>
      <trkpt lat="42.75937" lon="0.16677">
        <ele>1714</ele>
        <time>2019-02-27T12:25:48Z</time>
      </trkpt>
      <trkpt lat="42.75937" lon="0.16677">
        <ele>1714</ele>
        <time>2019-02-27T12:25:49Z</time>
      </trkpt>
      <trkpt lat="42.75937" lon="0.16677">
        <ele>1714</ele>
        <time>2019-02-27T12:25:50Z</time>
      </trkpt>
      <trkpt lat="42.75937" lon="0.16677">
        <ele>1714</ele>
        <time>2019-02-27T12:25:51Z</time>
      </trkpt>
      <trkpt lat="42.75937" lon="0.16676">
        <ele>1714</ele>
        <time>2019-02-27T12:25:52Z</time>
      </trkpt>
      <trkpt lat="42.75937" lon="0.16676">
        <ele>1714</ele>
        <time>2019-02-27T12:25:53Z</time>
      </trkpt>
      <trkpt lat="42.75937" lon="0.16676">
        <ele>1714</ele>
        <time>2019-02-27T12:25:54Z</time>
      </trkpt>
      <trkpt lat="42.75937" lon="0.16676">
        <ele>1714</ele>
        <time>2019-02-27T12:25:55Z</time>
      </trkpt>
      <trkpt lat="42.75937" lon="0.16676">
        <ele>1714</ele>
        <time>2019-02-27T12:25:56Z</time>
      </trkpt>
      <trkpt lat="42.75937" lon="0.16676">
        <ele>1714</ele>
        <time>2019-02-27T12:25:57Z</time>
      </trkpt>
      <trkpt lat="42.75937" lon="0.16676">
        <ele>1714</ele>
        <time>2019-02-27T12:25:58Z</time>
      </trkpt>
      <trkpt lat="42.75937" lon="0.16676">
        <ele>1714</ele>
        <time>2019-02-27T12:25:59Z</time>
      </trkpt>
      <trkpt lat="42.75937" lon="0.16676">
        <ele>1714</ele>
        <time>2019-02-27T12:26:00Z</time>
      </trkpt>
      <trkpt lat="42.75937" lon="0.16676">
        <ele>1714</ele>
        <time>2019-02-27T12:26:01Z</time>
      </trkpt>
      <trkpt lat="42.75936" lon="0.16676">
        <ele>1714</ele>
        <time>2019-02-27T12:26:02Z</time>
      </trkpt>
      <trkpt lat="42.75936" lon="0.16676">
        <ele>1714</ele>
        <time>2019-02-27T12:26:03Z</time>
      </trkpt>
      <trkpt lat="42.75936" lon="0.16676">
        <ele>1714</ele>
        <time>2019-02-27T12:26:04Z</time>
      </trkpt>
      <trkpt lat="42.75936" lon="0.16676">
        <ele>1714</ele>
        <time>2019-02-27T12:26:05Z</time>
      </trkpt>
      <trkpt lat="42.75936" lon="0.16676">
        <ele>1714</ele>
        <time>2019-02-27T12:26:06Z</time>
      </trkpt>
      <trkpt lat="42.75936" lon="0.16676">
        <ele>1714</ele>
        <time>2019-02-27T12:26:07Z</time>
      </trkpt>
      <trkpt lat="42.75936" lon="0.16676">
        <ele>1714</ele>
        <time>2019-02-27T12:26:08Z</time>
      </trkpt>
      <trkpt lat="42.75936" lon="0.16676">
        <ele>1714</ele>
        <time>2019-02-27T12:26:09Z</time>
      </trkpt>
      <trkpt lat="42.75936" lon="0.16676">
        <ele>1714</ele>
        <time>2019-02-27T12:26:10Z</time>
      </trkpt>
      <trkpt lat="42.75936" lon="0.16675">
        <ele>1714</ele>
        <time>2019-02-27T12:26:11Z</time>
      </trkpt>
      <trkpt lat="42.75936" lon="0.16675">
        <ele>1714</ele>
        <time>2019-02-27T12:26:12Z</time>
      </trkpt>
      <trkpt lat="42.75936" lon="0.16675">
        <ele>1714</ele>
        <time>2019-02-27T12:26:13Z</time>
      </trkpt>
      <trkpt lat="42.75936" lon="0.16675">
        <ele>1714</ele>
        <time>2019-02-27T12:26:14Z</time>
      </trkpt>
      <trkpt lat="42.75936" lon="0.16675">
        <ele>1714</ele>
        <time>2019-02-27T12:26:15Z</time>
      </trkpt>
      <trkpt lat="42.75931" lon="0.16672">
        <ele>1714</ele>
        <time>2019-02-27T12:26:16Z</time>
      </trkpt>
      <trkpt lat="42.75931" lon="0.16672">
        <ele>1714</ele>
        <time>2019-02-27T12:26:17Z</time>
      </trkpt>
      <trkpt lat="42.75931" lon="0.16672">
        <ele>1714</ele>
        <time>2019-02-27T12:26:18Z</time>
      </trkpt>
      <trkpt lat="42.75931" lon="0.16672">
        <ele>1714</ele>
        <time>2019-02-27T12:26:19Z</time>
      </trkpt>
      <trkpt lat="42.75931" lon="0.16672">
        <ele>1714</ele>
        <time>2019-02-27T12:26:20Z</time>
      </trkpt>
      <trkpt lat="42.75931" lon="0.16672">
        <ele>1714</ele>
        <time>2019-02-27T12:26:21Z</time>
      </trkpt>
      <trkpt lat="42.75931" lon="0.16672">
        <ele>1714</ele>
        <time>2019-02-27T12:26:22Z</time>
      </trkpt>
      <trkpt lat="42.75931" lon="0.16672">
        <ele>1714</ele>
        <time>2019-02-27T12:26:23Z</time>
      </trkpt>
      <trkpt lat="42.75931" lon="0.16672">
        <ele>1714</ele>
        <time>2019-02-27T12:26:24Z</time>
      </trkpt>
      <trkpt lat="42.75931" lon="0.16672">
        <ele>1714</ele>
        <time>2019-02-27T12:26:25Z</time>
      </trkpt>
      <trkpt lat="42.75931" lon="0.16672">
        <ele>1714</ele>
        <time>2019-02-27T12:26:26Z</time>
      </trkpt>
      <trkpt lat="42.75931" lon="0.16672">
        <ele>1714</ele>
        <time>2019-02-27T12:26:27Z</time>
      </trkpt>
      <trkpt lat="42.75931" lon="0.16672">
        <ele>1714</ele>
        <time>2019-02-27T12:26:28Z</time>
      </trkpt>
      <trkpt lat="42.75931" lon="0.16672">
        <ele>1714</ele>
        <time>2019-02-27T12:26:29Z</time>
      </trkpt>
      <trkpt lat="42.75931" lon="0.16672">
        <ele>1714</ele>
        <time>2019-02-27T12:26:30Z</time>
      </trkpt>
      <trkpt lat="42.75931" lon="0.16672">
        <ele>1714</ele>
        <time>2019-02-27T12:26:31Z</time>
      </trkpt>
      <trkpt lat="42.75931" lon="0.16672">
        <ele>1714</ele>
        <time>2019-02-27T12:26:32Z</time>
      </trkpt>
      <trkpt lat="42.75931" lon="0.16672">
        <ele>1714</ele>
        <time>2019-02-27T12:26:33Z</time>
      </trkpt>
      <trkpt lat="42.75931" lon="0.16672">
        <ele>1714</ele>
        <time>2019-02-27T12:26:34Z</time>
      </trkpt>
      <trkpt lat="42.75931" lon="0.16672">
        <ele>1714</ele>
        <time>2019-02-27T12:26:35Z</time>
      </trkpt>
      <trkpt lat="42.75931" lon="0.16672">
        <ele>1714</ele>
        <time>2019-02-27T12:26:36Z</time>
      </trkpt>
      <trkpt lat="42.75931" lon="0.16672">
        <ele>1714</ele>
        <time>2019-02-27T12:26:37Z</time>
      </trkpt>
      <trkpt lat="42.75931" lon="0.16672">
        <ele>1714</ele>
        <time>2019-02-27T12:26:38Z</time>
      </trkpt>
      <trkpt lat="42.75931" lon="0.16672">
        <ele>1714</ele>
        <time>2019-02-27T12:26:39Z</time>
      </trkpt>
      <trkpt lat="42.75931" lon="0.16672">
        <ele>1714</ele>
        <time>2019-02-27T12:26:40Z</time>
      </trkpt>
      <trkpt lat="42.75931" lon="0.16672">
        <ele>1714</ele>
        <time>2019-02-27T12:26:41Z</time>
      </trkpt>
      <trkpt lat="42.75931" lon="0.16672">
        <ele>1714</ele>
        <time>2019-02-27T12:26:42Z</time>
      </trkpt>
      <trkpt lat="42.75931" lon="0.16672">
        <ele>1714</ele>
        <time>2019-02-27T12:26:43Z</time>
      </trkpt>
      <trkpt lat="42.75931" lon="0.16672">
        <ele>1714</ele>
        <time>2019-02-27T12:26:44Z</time>
      </trkpt>
      <trkpt lat="42.75931" lon="0.16672">
        <ele>1714</ele>
        <time>2019-02-27T12:26:45Z</time>
      </trkpt>
      <trkpt lat="42.75931" lon="0.16672">
        <ele>1714</ele>
        <time>2019-02-27T12:26:46Z</time>
      </trkpt>
      <trkpt lat="42.75931" lon="0.16672">
        <ele>1714</ele>
        <time>2019-02-27T12:26:47Z</time>
      </trkpt>
      <trkpt lat="42.75931" lon="0.16672">
        <ele>1714</ele>
        <time>2019-02-27T12:26:48Z</time>
      </trkpt>
      <trkpt lat="42.75931" lon="0.16672">
        <ele>1714</ele>
        <time>2019-02-27T12:26:49Z</time>
      </trkpt>
      <trkpt lat="42.75931" lon="0.16672">
        <ele>1714</ele>
        <time>2019-02-27T12:26:50Z</time>
      </trkpt>
      <trkpt lat="42.75931" lon="0.16672">
        <ele>1714</ele>
        <time>2019-02-27T12:26:51Z</time>
      </trkpt>
      <trkpt lat="42.75931" lon="0.16672">
        <ele>1714</ele>
        <time>2019-02-27T12:26:52Z</time>
      </trkpt>
      <trkpt lat="42.75931" lon="0.16672">
        <ele>1714</ele>
        <time>2019-02-27T12:26:53Z</time>
      </trkpt>
      <trkpt lat="42.75927" lon="0.1666">
        <ele>1714</ele>
        <time>2019-02-27T12:26:54Z</time>
      </trkpt>
      <trkpt lat="42.75927" lon="0.1666">
        <ele>1714</ele>
        <time>2019-02-27T12:26:55Z</time>
      </trkpt>
      <trkpt lat="42.75927" lon="0.1666">
        <ele>1714</ele>
        <time>2019-02-27T12:26:56Z</time>
      </trkpt>
      <trkpt lat="42.75927" lon="0.1666">
        <ele>1714</ele>
        <time>2019-02-27T12:26:57Z</time>
      </trkpt>
      <trkpt lat="42.75927" lon="0.1666">
        <ele>1714</ele>
        <time>2019-02-27T12:26:58Z</time>
      </trkpt>
      <trkpt lat="42.75927" lon="0.1666">
        <ele>1714</ele>
        <time>2019-02-27T12:26:59Z</time>
      </trkpt>
      <trkpt lat="42.75927" lon="0.1666">
        <ele>1714</ele>
        <time>2019-02-27T12:27:00Z</time>
      </trkpt>
      <trkpt lat="42.75927" lon="0.1666">
        <ele>1714</ele>
        <time>2019-02-27T12:27:01Z</time>
      </trkpt>
      <trkpt lat="42.75927" lon="0.1666">
        <ele>1714</ele>
        <time>2019-02-27T12:27:02Z</time>
      </trkpt>
      <trkpt lat="42.75927" lon="0.1666">
        <ele>1714</ele>
        <time>2019-02-27T12:27:03Z</time>
      </trkpt>
      <trkpt lat="42.75927" lon="0.1666">
        <ele>1714</ele>
        <time>2019-02-27T12:27:04Z</time>
      </trkpt>
      <trkpt lat="42.75927" lon="0.1666">
        <ele>1714</ele>
        <time>2019-02-27T12:27:05Z</time>
      </trkpt>
      <trkpt lat="42.75927" lon="0.1666">
        <ele>1714</ele>
        <time>2019-02-27T12:27:06Z</time>
      </trkpt>
      <trkpt lat="42.75927" lon="0.1666">
        <ele>1714</ele>
        <time>2019-02-27T12:27:07Z</time>
      </trkpt>
      <trkpt lat="42.75927" lon="0.1666">
        <ele>1714</ele>
        <time>2019-02-27T12:27:08Z</time>
      </trkpt>
      <trkpt lat="42.75927" lon="0.1666">
        <ele>1714</ele>
        <time>2019-02-27T12:27:09Z</time>
      </trkpt>
      <trkpt lat="42.75927" lon="0.1666">
        <ele>1714</ele>
        <time>2019-02-27T12:27:10Z</time>
      </trkpt>
      <trkpt lat="42.75927" lon="0.1666">
        <ele>1714</ele>
        <time>2019-02-27T12:27:11Z</time>
      </trkpt>
      <trkpt lat="42.75927" lon="0.1666">
        <ele>1714</ele>
        <time>2019-02-27T12:27:12Z</time>
      </trkpt>
      <trkpt lat="42.75927" lon="0.1666">
        <ele>1714</ele>
        <time>2019-02-27T12:27:13Z</time>
      </trkpt>
      <trkpt lat="42.75927" lon="0.1666">
        <ele>1714</ele>
        <time>2019-02-27T12:27:14Z</time>
      </trkpt>
      <trkpt lat="42.75927" lon="0.1666">
        <ele>1714</ele>
        <time>2019-02-27T12:27:15Z</time>
      </trkpt>
      <trkpt lat="42.75927" lon="0.1666">
        <ele>1714</ele>
        <time>2019-02-27T12:27:16Z</time>
      </trkpt>
      <trkpt lat="42.75925" lon="0.1666">
        <ele>1714</ele>
        <time>2019-02-27T12:27:17Z</time>
      </trkpt>
      <trkpt lat="42.75925" lon="0.1666">
        <ele>1714</ele>
        <time>2019-02-27T12:27:18Z</time>
      </trkpt>
      <trkpt lat="42.75925" lon="0.1666">
        <ele>1714</ele>
        <time>2019-02-27T12:27:19Z</time>
      </trkpt>
      <trkpt lat="42.75923" lon="0.16661">
        <ele>1714</ele>
        <time>2019-02-27T12:27:20Z</time>
      </trkpt>
      <trkpt lat="42.75923" lon="0.16661">
        <ele>1713</ele>
        <time>2019-02-27T12:27:21Z</time>
      </trkpt>
      <trkpt lat="42.75923" lon="0.16661">
        <ele>1713</ele>
        <time>2019-02-27T12:27:22Z</time>
      </trkpt>
      <trkpt lat="42.75921" lon="0.16663">
        <ele>1713</ele>
        <time>2019-02-27T12:27:23Z</time>
      </trkpt>
      <trkpt lat="42.75921" lon="0.16663">
        <ele>1713</ele>
        <time>2019-02-27T12:27:24Z</time>
      </trkpt>
      <trkpt lat="42.75921" lon="0.16663">
        <ele>1713</ele>
        <time>2019-02-27T12:27:25Z</time>
      </trkpt>
      <trkpt lat="42.75924" lon="0.16667">
        <ele>1713</ele>
        <time>2019-02-27T12:27:26Z</time>
      </trkpt>
      <trkpt lat="42.75924" lon="0.16667">
        <ele>1713</ele>
        <time>2019-02-27T12:27:27Z</time>
      </trkpt>
      <trkpt lat="42.75924" lon="0.16667">
        <ele>1713</ele>
        <time>2019-02-27T12:27:28Z</time>
      </trkpt>
      <trkpt lat="42.75926" lon="0.1667">
        <ele>1713</ele>
        <time>2019-02-27T12:27:29Z</time>
      </trkpt>
      <trkpt lat="42.75926" lon="0.1667">
        <ele>1713</ele>
        <time>2019-02-27T12:27:30Z</time>
      </trkpt>
      <trkpt lat="42.75926" lon="0.1667">
        <ele>1713</ele>
        <time>2019-02-27T12:27:31Z</time>
      </trkpt>
      <trkpt lat="42.75926" lon="0.1667">
        <ele>1713</ele>
        <time>2019-02-27T12:27:32Z</time>
      </trkpt>
      <trkpt lat="42.75926" lon="0.1667">
        <ele>1713</ele>
        <time>2019-02-27T12:27:33Z</time>
      </trkpt>
      <trkpt lat="42.75926" lon="0.1667">
        <ele>1713</ele>
        <time>2019-02-27T12:27:34Z</time>
      </trkpt>
      <trkpt lat="42.75926" lon="0.1667">
        <ele>1713</ele>
        <time>2019-02-27T12:27:35Z</time>
      </trkpt>
      <trkpt lat="42.75926" lon="0.1667">
        <ele>1713</ele>
        <time>2019-02-27T12:27:36Z</time>
      </trkpt>
      <trkpt lat="42.75926" lon="0.1667">
        <ele>1713</ele>
        <time>2019-02-27T12:27:37Z</time>
      </trkpt>
      <trkpt lat="42.75926" lon="0.1667">
        <ele>1713</ele>
        <time>2019-02-27T12:27:38Z</time>
      </trkpt>
      <trkpt lat="42.75926" lon="0.1667">
        <ele>1713</ele>
        <time>2019-02-27T12:27:39Z</time>
      </trkpt>
      <trkpt lat="42.75926" lon="0.1667">
        <ele>1713</ele>
        <time>2019-02-27T12:27:40Z</time>
      </trkpt>
      <trkpt lat="42.75926" lon="0.1667">
        <ele>1713</ele>
        <time>2019-02-27T12:27:41Z</time>
      </trkpt>
      <trkpt lat="42.75926" lon="0.1667">
        <ele>1713</ele>
        <time>2019-02-27T12:27:42Z</time>
      </trkpt>
      <trkpt lat="42.75926" lon="0.1667">
        <ele>1713</ele>
        <time>2019-02-27T12:27:43Z</time>
      </trkpt>
      <trkpt lat="42.75926" lon="0.1667">
        <ele>1713</ele>
        <time>2019-02-27T12:27:44Z</time>
      </trkpt>
      <trkpt lat="42.75926" lon="0.1667">
        <ele>1713</ele>
        <time>2019-02-27T12:27:45Z</time>
      </trkpt>
      <trkpt lat="42.75926" lon="0.1667">
        <ele>1713</ele>
        <time>2019-02-27T12:27:46Z</time>
      </trkpt>
      <trkpt lat="42.75926" lon="0.1667">
        <ele>1713</ele>
        <time>2019-02-27T12:27:47Z</time>
      </trkpt>
      <trkpt lat="42.75926" lon="0.1667">
        <ele>1713</ele>
        <time>2019-02-27T12:27:48Z</time>
      </trkpt>
      <trkpt lat="42.75926" lon="0.1667">
        <ele>1713</ele>
        <time>2019-02-27T12:27:49Z</time>
      </trkpt>
      <trkpt lat="42.75926" lon="0.1667">
        <ele>1713</ele>
        <time>2019-02-27T12:27:50Z</time>
      </trkpt>
      <trkpt lat="42.75926" lon="0.1667">
        <ele>1713</ele>
        <time>2019-02-27T12:27:51Z</time>
      </trkpt>
      <trkpt lat="42.75926" lon="0.1667">
        <ele>1713</ele>
        <time>2019-02-27T12:27:52Z</time>
      </trkpt>
      <trkpt lat="42.75926" lon="0.1667">
        <ele>1713</ele>
        <time>2019-02-27T12:27:53Z</time>
      </trkpt>
      <trkpt lat="42.75926" lon="0.1667">
        <ele>1713</ele>
        <time>2019-02-27T12:27:54Z</time>
      </trkpt>
      <trkpt lat="42.75926" lon="0.1667">
        <ele>1713</ele>
        <time>2019-02-27T12:27:55Z</time>
      </trkpt>
      <trkpt lat="42.75926" lon="0.1667">
        <ele>1713</ele>
        <time>2019-02-27T12:27:56Z</time>
      </trkpt>
      <trkpt lat="42.75926" lon="0.1667">
        <ele>1713</ele>
        <time>2019-02-27T12:27:57Z</time>
      </trkpt>
      <trkpt lat="42.75926" lon="0.1667">
        <ele>1713</ele>
        <time>2019-02-27T12:27:58Z</time>
      </trkpt>
      <trkpt lat="42.75926" lon="0.1667">
        <ele>1713</ele>
        <time>2019-02-27T12:27:59Z</time>
      </trkpt>
      <trkpt lat="42.75926" lon="0.1667">
        <ele>1713</ele>
        <time>2019-02-27T12:28:00Z</time>
      </trkpt>
      <trkpt lat="42.75926" lon="0.1667">
        <ele>1713</ele>
        <time>2019-02-27T12:28:01Z</time>
      </trkpt>
      <trkpt lat="42.75926" lon="0.1667">
        <ele>1713</ele>
        <time>2019-02-27T12:28:02Z</time>
      </trkpt>
      <trkpt lat="42.75926" lon="0.1667">
        <ele>1713</ele>
        <time>2019-02-27T12:28:03Z</time>
      </trkpt>
      <trkpt lat="42.75926" lon="0.1667">
        <ele>1713</ele>
        <time>2019-02-27T12:28:04Z</time>
      </trkpt>
      <trkpt lat="42.75926" lon="0.1667">
        <ele>1713</ele>
        <time>2019-02-27T12:28:05Z</time>
      </trkpt>
      <trkpt lat="42.75926" lon="0.1667">
        <ele>1713</ele>
        <time>2019-02-27T12:28:06Z</time>
      </trkpt>
      <trkpt lat="42.75926" lon="0.1667">
        <ele>1713</ele>
        <time>2019-02-27T12:28:07Z</time>
      </trkpt>
      <trkpt lat="42.75926" lon="0.1667">
        <ele>1713</ele>
        <time>2019-02-27T12:28:08Z</time>
      </trkpt>
      <trkpt lat="42.75926" lon="0.1667">
        <ele>1713</ele>
        <time>2019-02-27T12:28:09Z</time>
      </trkpt>
      <trkpt lat="42.75926" lon="0.1667">
        <ele>1713</ele>
        <time>2019-02-27T12:28:10Z</time>
      </trkpt>
      <trkpt lat="42.75926" lon="0.1667">
        <ele>1713</ele>
        <time>2019-02-27T12:28:11Z</time>
      </trkpt>
      <trkpt lat="42.75926" lon="0.1667">
        <ele>1713</ele>
        <time>2019-02-27T12:28:12Z</time>
      </trkpt>
      <trkpt lat="42.75926" lon="0.1667">
        <ele>1713</ele>
        <time>2019-02-27T12:28:13Z</time>
      </trkpt>
      <trkpt lat="42.75926" lon="0.1667">
        <ele>1713</ele>
        <time>2019-02-27T12:28:14Z</time>
      </trkpt>
      <trkpt lat="42.75926" lon="0.1667">
        <ele>1713</ele>
        <time>2019-02-27T12:28:15Z</time>
      </trkpt>
      <trkpt lat="42.75926" lon="0.1667">
        <ele>1713</ele>
        <time>2019-02-27T12:28:16Z</time>
      </trkpt>
      <trkpt lat="42.75926" lon="0.1667">
        <ele>1713</ele>
        <time>2019-02-27T12:28:17Z</time>
      </trkpt>
      <trkpt lat="42.75924" lon="0.16664">
        <ele>1713</ele>
        <time>2019-02-27T12:28:18Z</time>
      </trkpt>
      <trkpt lat="42.75924" lon="0.16664">
        <ele>1713</ele>
        <time>2019-02-27T12:28:19Z</time>
      </trkpt>
      <trkpt lat="42.75924" lon="0.16664">
        <ele>1713</ele>
        <time>2019-02-27T12:28:20Z</time>
      </trkpt>
      <trkpt lat="42.75922" lon="0.16663">
        <ele>1713</ele>
        <time>2019-02-27T12:28:21Z</time>
      </trkpt>
      <trkpt lat="42.75922" lon="0.16663">
        <ele>1713</ele>
        <time>2019-02-27T12:28:22Z</time>
      </trkpt>
      <trkpt lat="42.75922" lon="0.16663">
        <ele>1713</ele>
        <time>2019-02-27T12:28:23Z</time>
      </trkpt>
      <trkpt lat="42.75922" lon="0.16663">
        <ele>1713</ele>
        <time>2019-02-27T12:28:24Z</time>
      </trkpt>
      <trkpt lat="42.75922" lon="0.16663">
        <ele>1713</ele>
        <time>2019-02-27T12:28:25Z</time>
      </trkpt>
      <trkpt lat="42.75922" lon="0.16663">
        <ele>1713</ele>
        <time>2019-02-27T12:28:26Z</time>
      </trkpt>
      <trkpt lat="42.75922" lon="0.16663">
        <ele>1713</ele>
        <time>2019-02-27T12:28:27Z</time>
      </trkpt>
      <trkpt lat="42.75922" lon="0.16663">
        <ele>1713</ele>
        <time>2019-02-27T12:28:28Z</time>
      </trkpt>
      <trkpt lat="42.75922" lon="0.16663">
        <ele>1713</ele>
        <time>2019-02-27T12:28:29Z</time>
      </trkpt>
      <trkpt lat="42.75922" lon="0.16663">
        <ele>1713</ele>
        <time>2019-02-27T12:28:30Z</time>
      </trkpt>
      <trkpt lat="42.75922" lon="0.16663">
        <ele>1713</ele>
        <time>2019-02-27T12:28:31Z</time>
      </trkpt>
      <trkpt lat="42.75922" lon="0.16663">
        <ele>1713</ele>
        <time>2019-02-27T12:28:32Z</time>
      </trkpt>
      <trkpt lat="42.75922" lon="0.16663">
        <ele>1713</ele>
        <time>2019-02-27T12:28:33Z</time>
      </trkpt>
      <trkpt lat="42.75922" lon="0.16663">
        <ele>1713</ele>
        <time>2019-02-27T12:28:34Z</time>
      </trkpt>
      <trkpt lat="42.75922" lon="0.16663">
        <ele>1713</ele>
        <time>2019-02-27T12:28:35Z</time>
      </trkpt>
      <trkpt lat="42.75922" lon="0.16663">
        <ele>1713</ele>
        <time>2019-02-27T12:28:36Z</time>
      </trkpt>
      <trkpt lat="42.75922" lon="0.16663">
        <ele>1713</ele>
        <time>2019-02-27T12:28:37Z</time>
      </trkpt>
      <trkpt lat="42.75922" lon="0.16663">
        <ele>1713</ele>
        <time>2019-02-27T12:28:38Z</time>
      </trkpt>
      <trkpt lat="42.75922" lon="0.16663">
        <ele>1713</ele>
        <time>2019-02-27T12:28:39Z</time>
      </trkpt>
      <trkpt lat="42.75922" lon="0.16663">
        <ele>1713</ele>
        <time>2019-02-27T12:28:40Z</time>
      </trkpt>
      <trkpt lat="42.75922" lon="0.16663">
        <ele>1713</ele>
        <time>2019-02-27T12:28:41Z</time>
      </trkpt>
      <trkpt lat="42.75922" lon="0.16663">
        <ele>1713</ele>
        <time>2019-02-27T12:28:42Z</time>
      </trkpt>
      <trkpt lat="42.75922" lon="0.16663">
        <ele>1713</ele>
        <time>2019-02-27T12:28:43Z</time>
      </trkpt>
      <trkpt lat="42.75922" lon="0.16663">
        <ele>1713</ele>
        <time>2019-02-27T12:28:44Z</time>
      </trkpt>
      <trkpt lat="42.75922" lon="0.16663">
        <ele>1713</ele>
        <time>2019-02-27T12:28:45Z</time>
      </trkpt>
      <trkpt lat="42.75922" lon="0.16663">
        <ele>1713</ele>
        <time>2019-02-27T12:28:46Z</time>
      </trkpt>
      <trkpt lat="42.75922" lon="0.16663">
        <ele>1713</ele>
        <time>2019-02-27T12:28:47Z</time>
      </trkpt>
      <trkpt lat="42.75922" lon="0.16663">
        <ele>1713</ele>
        <time>2019-02-27T12:28:48Z</time>
      </trkpt>
      <trkpt lat="42.75922" lon="0.16663">
        <ele>1713</ele>
        <time>2019-02-27T12:28:49Z</time>
      </trkpt>
      <trkpt lat="42.75922" lon="0.16663">
        <ele>1713</ele>
        <time>2019-02-27T12:28:50Z</time>
      </trkpt>
      <trkpt lat="42.75922" lon="0.16663">
        <ele>1713</ele>
        <time>2019-02-27T12:28:51Z</time>
      </trkpt>
      <trkpt lat="42.75922" lon="0.16663">
        <ele>1713</ele>
        <time>2019-02-27T12:28:52Z</time>
      </trkpt>
      <trkpt lat="42.75922" lon="0.16663">
        <ele>1713</ele>
        <time>2019-02-27T12:28:53Z</time>
      </trkpt>
      <trkpt lat="42.75922" lon="0.16663">
        <ele>1713</ele>
        <time>2019-02-27T12:28:54Z</time>
      </trkpt>
      <trkpt lat="42.75922" lon="0.16663">
        <ele>1713</ele>
        <time>2019-02-27T12:28:55Z</time>
      </trkpt>
      <trkpt lat="42.75922" lon="0.16663">
        <ele>1713</ele>
        <time>2019-02-27T12:28:56Z</time>
      </trkpt>
      <trkpt lat="42.75922" lon="0.16663">
        <ele>1713</ele>
        <time>2019-02-27T12:28:57Z</time>
      </trkpt>
      <trkpt lat="42.75922" lon="0.16663">
        <ele>1713</ele>
        <time>2019-02-27T12:28:58Z</time>
      </trkpt>
      <trkpt lat="42.75922" lon="0.16663">
        <ele>1713</ele>
        <time>2019-02-27T12:28:59Z</time>
      </trkpt>
      <trkpt lat="42.75922" lon="0.16663">
        <ele>1713</ele>
        <time>2019-02-27T12:29:00Z</time>
      </trkpt>
      <trkpt lat="42.75922" lon="0.16663">
        <ele>1713</ele>
        <time>2019-02-27T12:29:01Z</time>
      </trkpt>
      <trkpt lat="42.75922" lon="0.16663">
        <ele>1713</ele>
        <time>2019-02-27T12:29:02Z</time>
      </trkpt>
      <trkpt lat="42.75922" lon="0.16663">
        <ele>1713</ele>
        <time>2019-02-27T12:29:03Z</time>
      </trkpt>
      <trkpt lat="42.75922" lon="0.16663">
        <ele>1713</ele>
        <time>2019-02-27T12:29:04Z</time>
      </trkpt>
      <trkpt lat="42.75922" lon="0.16663">
        <ele>1713</ele>
        <time>2019-02-27T12:29:05Z</time>
      </trkpt>
      <trkpt lat="42.75922" lon="0.16663">
        <ele>1713</ele>
        <time>2019-02-27T12:29:06Z</time>
      </trkpt>
      <trkpt lat="42.75922" lon="0.16663">
        <ele>1713</ele>
        <time>2019-02-27T12:29:07Z</time>
      </trkpt>
      <trkpt lat="42.75922" lon="0.16663">
        <ele>1713</ele>
        <time>2019-02-27T12:29:08Z</time>
      </trkpt>
      <trkpt lat="42.75922" lon="0.16663">
        <ele>1713</ele>
        <time>2019-02-27T12:29:09Z</time>
      </trkpt>
      <trkpt lat="42.75922" lon="0.16663">
        <ele>1713</ele>
        <time>2019-02-27T12:29:10Z</time>
      </trkpt>
      <trkpt lat="42.75922" lon="0.16663">
        <ele>1713</ele>
        <time>2019-02-27T12:29:11Z</time>
      </trkpt>
      <trkpt lat="42.75922" lon="0.16663">
        <ele>1713</ele>
        <time>2019-02-27T12:29:12Z</time>
      </trkpt>
      <trkpt lat="42.75922" lon="0.16663">
        <ele>1713</ele>
        <time>2019-02-27T12:29:13Z</time>
      </trkpt>
      <trkpt lat="42.75922" lon="0.16663">
        <ele>1713</ele>
        <time>2019-02-27T12:29:14Z</time>
      </trkpt>
      <trkpt lat="42.75922" lon="0.16663">
        <ele>1713</ele>
        <time>2019-02-27T12:29:15Z</time>
      </trkpt>
      <trkpt lat="42.75922" lon="0.16663">
        <ele>1713</ele>
        <time>2019-02-27T12:29:16Z</time>
      </trkpt>
      <trkpt lat="42.75922" lon="0.16663">
        <ele>1713</ele>
        <time>2019-02-27T12:29:17Z</time>
      </trkpt>
      <trkpt lat="42.75922" lon="0.16663">
        <ele>1713</ele>
        <time>2019-02-27T12:29:18Z</time>
      </trkpt>
      <trkpt lat="42.75922" lon="0.16663">
        <ele>1713</ele>
        <time>2019-02-27T12:29:19Z</time>
      </trkpt>
      <trkpt lat="42.75922" lon="0.16663">
        <ele>1713</ele>
        <time>2019-02-27T12:29:20Z</time>
      </trkpt>
      <trkpt lat="42.75922" lon="0.16663">
        <ele>1713</ele>
        <time>2019-02-27T12:29:21Z</time>
      </trkpt>
      <trkpt lat="42.75922" lon="0.16663">
        <ele>1713</ele>
        <time>2019-02-27T12:29:22Z</time>
      </trkpt>
      <trkpt lat="42.75922" lon="0.16663">
        <ele>1713</ele>
        <time>2019-02-27T12:29:23Z</time>
      </trkpt>
      <trkpt lat="42.75922" lon="0.16663">
        <ele>1713</ele>
        <time>2019-02-27T12:29:24Z</time>
      </trkpt>
      <trkpt lat="42.75922" lon="0.16663">
        <ele>1713</ele>
        <time>2019-02-27T12:29:25Z</time>
      </trkpt>
      <trkpt lat="42.75922" lon="0.16663">
        <ele>1713</ele>
        <time>2019-02-27T12:29:26Z</time>
      </trkpt>
      <trkpt lat="42.75922" lon="0.16663">
        <ele>1713</ele>
        <time>2019-02-27T12:29:27Z</time>
      </trkpt>
      <trkpt lat="42.75922" lon="0.16663">
        <ele>1713</ele>
        <time>2019-02-27T12:29:28Z</time>
      </trkpt>
      <trkpt lat="42.75922" lon="0.16663">
        <ele>1713</ele>
        <time>2019-02-27T12:29:29Z</time>
      </trkpt>
      <trkpt lat="42.75922" lon="0.16663">
        <ele>1713</ele>
        <time>2019-02-27T12:29:30Z</time>
      </trkpt>
      <trkpt lat="42.75922" lon="0.16663">
        <ele>1713</ele>
        <time>2019-02-27T12:29:31Z</time>
      </trkpt>
      <trkpt lat="42.75922" lon="0.16663">
        <ele>1713</ele>
        <time>2019-02-27T12:29:32Z</time>
      </trkpt>
      <trkpt lat="42.75922" lon="0.16663">
        <ele>1713</ele>
        <time>2019-02-27T12:29:33Z</time>
      </trkpt>
      <trkpt lat="42.75922" lon="0.16663">
        <ele>1713</ele>
        <time>2019-02-27T12:29:34Z</time>
      </trkpt>
      <trkpt lat="42.75922" lon="0.16663">
        <ele>1713</ele>
        <time>2019-02-27T12:29:35Z</time>
      </trkpt>
      <trkpt lat="42.75922" lon="0.16663">
        <ele>1713</ele>
        <time>2019-02-27T12:29:36Z</time>
      </trkpt>
      <trkpt lat="42.75922" lon="0.16663">
        <ele>1713</ele>
        <time>2019-02-27T12:29:37Z</time>
      </trkpt>
      <trkpt lat="42.75922" lon="0.16663">
        <ele>1713</ele>
        <time>2019-02-27T12:29:38Z</time>
      </trkpt>
      <trkpt lat="42.75922" lon="0.16663">
        <ele>1713</ele>
        <time>2019-02-27T12:29:39Z</time>
      </trkpt>
      <trkpt lat="42.75922" lon="0.16663">
        <ele>1713</ele>
        <time>2019-02-27T12:29:40Z</time>
      </trkpt>
      <trkpt lat="42.75922" lon="0.16663">
        <ele>1713</ele>
        <time>2019-02-27T12:29:41Z</time>
      </trkpt>
      <trkpt lat="42.75922" lon="0.16663">
        <ele>1713</ele>
        <time>2019-02-27T12:29:42Z</time>
      </trkpt>
      <trkpt lat="42.75922" lon="0.16663">
        <ele>1713</ele>
        <time>2019-02-27T12:29:43Z</time>
      </trkpt>
      <trkpt lat="42.75922" lon="0.16663">
        <ele>1713</ele>
        <time>2019-02-27T12:29:44Z</time>
      </trkpt>
      <trkpt lat="42.75922" lon="0.16663">
        <ele>1713</ele>
        <time>2019-02-27T12:29:45Z</time>
      </trkpt>
      <trkpt lat="42.75922" lon="0.16663">
        <ele>1713</ele>
        <time>2019-02-27T12:29:46Z</time>
      </trkpt>
      <trkpt lat="42.75922" lon="0.16663">
        <ele>1713</ele>
        <time>2019-02-27T12:29:47Z</time>
      </trkpt>
      <trkpt lat="42.75922" lon="0.16663">
        <ele>1713</ele>
        <time>2019-02-27T12:29:48Z</time>
      </trkpt>
      <trkpt lat="42.75922" lon="0.16663">
        <ele>1713</ele>
        <time>2019-02-27T12:29:49Z</time>
      </trkpt>
      <trkpt lat="42.75922" lon="0.16663">
        <ele>1713</ele>
        <time>2019-02-27T12:29:50Z</time>
      </trkpt>
      <trkpt lat="42.75922" lon="0.16663">
        <ele>1713</ele>
        <time>2019-02-27T12:29:51Z</time>
      </trkpt>
      <trkpt lat="42.75922" lon="0.16663">
        <ele>1713</ele>
        <time>2019-02-27T12:29:52Z</time>
      </trkpt>
      <trkpt lat="42.75922" lon="0.16663">
        <ele>1713</ele>
        <time>2019-02-27T12:29:53Z</time>
      </trkpt>
      <trkpt lat="42.75922" lon="0.16663">
        <ele>1713</ele>
        <time>2019-02-27T12:29:54Z</time>
      </trkpt>
      <trkpt lat="42.75922" lon="0.16663">
        <ele>1713</ele>
        <time>2019-02-27T12:29:55Z</time>
      </trkpt>
      <trkpt lat="42.75924" lon="0.16665">
        <ele>1713</ele>
        <time>2019-02-27T12:29:56Z</time>
      </trkpt>
      <trkpt lat="42.75924" lon="0.16665">
        <ele>1713</ele>
        <time>2019-02-27T12:29:57Z</time>
      </trkpt>
      <trkpt lat="42.75924" lon="0.16665">
        <ele>1713</ele>
        <time>2019-02-27T12:29:58Z</time>
      </trkpt>
      <trkpt lat="42.75924" lon="0.16665">
        <ele>1713</ele>
        <time>2019-02-27T12:29:59Z</time>
      </trkpt>
      <trkpt lat="42.75924" lon="0.16665">
        <ele>1713</ele>
        <time>2019-02-27T12:30:00Z</time>
      </trkpt>
      <trkpt lat="42.75927" lon="0.16666">
        <ele>1713</ele>
        <time>2019-02-27T12:30:01Z</time>
      </trkpt>
      <trkpt lat="42.75927" lon="0.16666">
        <ele>1713</ele>
        <time>2019-02-27T12:30:02Z</time>
      </trkpt>
      <trkpt lat="42.75927" lon="0.16666">
        <ele>1713</ele>
        <time>2019-02-27T12:30:03Z</time>
      </trkpt>
      <trkpt lat="42.75927" lon="0.16666">
        <ele>1713</ele>
        <time>2019-02-27T12:30:04Z</time>
      </trkpt>
      <trkpt lat="42.75927" lon="0.16666">
        <ele>1713</ele>
        <time>2019-02-27T12:30:05Z</time>
      </trkpt>
      <trkpt lat="42.7593" lon="0.16668">
        <ele>1713</ele>
        <time>2019-02-27T12:30:06Z</time>
      </trkpt>
      <trkpt lat="42.7593" lon="0.16668">
        <ele>1713</ele>
        <time>2019-02-27T12:30:07Z</time>
      </trkpt>
      <trkpt lat="42.7593" lon="0.16668">
        <ele>1713</ele>
        <time>2019-02-27T12:30:08Z</time>
      </trkpt>
      <trkpt lat="42.7593" lon="0.16668">
        <ele>1713</ele>
        <time>2019-02-27T12:30:09Z</time>
      </trkpt>
      <trkpt lat="42.7593" lon="0.16668">
        <ele>1713</ele>
        <time>2019-02-27T12:30:10Z</time>
      </trkpt>
      <trkpt lat="42.7593" lon="0.16668">
        <ele>1713</ele>
        <time>2019-02-27T12:30:11Z</time>
      </trkpt>
      <trkpt lat="42.7593" lon="0.16668">
        <ele>1713</ele>
        <time>2019-02-27T12:30:12Z</time>
      </trkpt>
      <trkpt lat="42.7593" lon="0.16668">
        <ele>1713</ele>
        <time>2019-02-27T12:30:13Z</time>
      </trkpt>
      <trkpt lat="42.7593" lon="0.16668">
        <ele>1713</ele>
        <time>2019-02-27T12:30:14Z</time>
      </trkpt>
      <trkpt lat="42.7593" lon="0.16668">
        <ele>1713</ele>
        <time>2019-02-27T12:30:15Z</time>
      </trkpt>
      <trkpt lat="42.7593" lon="0.16668">
        <ele>1713</ele>
        <time>2019-02-27T12:30:16Z</time>
      </trkpt>
      <trkpt lat="42.7593" lon="0.16668">
        <ele>1713</ele>
        <time>2019-02-27T12:30:17Z</time>
      </trkpt>
      <trkpt lat="42.7593" lon="0.16668">
        <ele>1713</ele>
        <time>2019-02-27T12:30:18Z</time>
      </trkpt>
      <trkpt lat="42.75932" lon="0.16672">
        <ele>1713</ele>
        <time>2019-02-27T12:30:19Z</time>
      </trkpt>
      <trkpt lat="42.75932" lon="0.16672">
        <ele>1713</ele>
        <time>2019-02-27T12:30:20Z</time>
      </trkpt>
      <trkpt lat="42.75933" lon="0.16675">
        <ele>1713</ele>
        <time>2019-02-27T12:30:21Z</time>
      </trkpt>
      <trkpt lat="42.75933" lon="0.16675">
        <ele>1713</ele>
        <time>2019-02-27T12:30:22Z</time>
      </trkpt>
      <trkpt lat="42.75933" lon="0.16675">
        <ele>1713</ele>
        <time>2019-02-27T12:30:23Z</time>
      </trkpt>
      <trkpt lat="42.75933" lon="0.16675">
        <ele>1713</ele>
        <time>2019-02-27T12:30:24Z</time>
      </trkpt>
      <trkpt lat="42.75933" lon="0.16675">
        <ele>1713</ele>
        <time>2019-02-27T12:30:25Z</time>
      </trkpt>
      <trkpt lat="42.75933" lon="0.16675">
        <ele>1713</ele>
        <time>2019-02-27T12:30:26Z</time>
      </trkpt>
      <trkpt lat="42.75933" lon="0.16675">
        <ele>1713</ele>
        <time>2019-02-27T12:30:27Z</time>
      </trkpt>
      <trkpt lat="42.75933" lon="0.16675">
        <ele>1713</ele>
        <time>2019-02-27T12:30:28Z</time>
      </trkpt>
      <trkpt lat="42.75933" lon="0.16675">
        <ele>1713</ele>
        <time>2019-02-27T12:30:29Z</time>
      </trkpt>
      <trkpt lat="42.75933" lon="0.16675">
        <ele>1713</ele>
        <time>2019-02-27T12:30:30Z</time>
      </trkpt>
      <trkpt lat="42.75933" lon="0.16675">
        <ele>1713</ele>
        <time>2019-02-27T12:30:31Z</time>
      </trkpt>
      <trkpt lat="42.75933" lon="0.16675">
        <ele>1713</ele>
        <time>2019-02-27T12:30:32Z</time>
      </trkpt>
      <trkpt lat="42.75933" lon="0.16675">
        <ele>1713</ele>
        <time>2019-02-27T12:30:33Z</time>
      </trkpt>
      <trkpt lat="42.75933" lon="0.16675">
        <ele>1713</ele>
        <time>2019-02-27T12:30:34Z</time>
      </trkpt>
      <trkpt lat="42.75933" lon="0.16675">
        <ele>1713</ele>
        <time>2019-02-27T12:30:35Z</time>
      </trkpt>
      <trkpt lat="42.75933" lon="0.16675">
        <ele>1713</ele>
        <time>2019-02-27T12:30:36Z</time>
      </trkpt>
      <trkpt lat="42.75933" lon="0.16675">
        <ele>1713</ele>
        <time>2019-02-27T12:30:37Z</time>
      </trkpt>
      <trkpt lat="42.75933" lon="0.16675">
        <ele>1713</ele>
        <time>2019-02-27T12:30:38Z</time>
      </trkpt>
      <trkpt lat="42.75933" lon="0.16675">
        <ele>1713</ele>
        <time>2019-02-27T12:30:39Z</time>
      </trkpt>
      <trkpt lat="42.75933" lon="0.16675">
        <ele>1713</ele>
        <time>2019-02-27T12:30:40Z</time>
      </trkpt>
      <trkpt lat="42.7593" lon="0.16673">
        <ele>1713</ele>
        <time>2019-02-27T12:30:41Z</time>
      </trkpt>
      <trkpt lat="42.7593" lon="0.16673">
        <ele>1713</ele>
        <time>2019-02-27T12:30:42Z</time>
      </trkpt>
      <trkpt lat="42.7593" lon="0.16673">
        <ele>1713</ele>
        <time>2019-02-27T12:30:43Z</time>
      </trkpt>
      <trkpt lat="42.7593" lon="0.16673">
        <ele>1713</ele>
        <time>2019-02-27T12:30:44Z</time>
      </trkpt>
      <trkpt lat="42.7593" lon="0.16673">
        <ele>1713</ele>
        <time>2019-02-27T12:30:45Z</time>
      </trkpt>
      <trkpt lat="42.7593" lon="0.16673">
        <ele>1713</ele>
        <time>2019-02-27T12:30:46Z</time>
      </trkpt>
      <trkpt lat="42.7593" lon="0.16673">
        <ele>1713</ele>
        <time>2019-02-27T12:30:47Z</time>
      </trkpt>
      <trkpt lat="42.7593" lon="0.16673">
        <ele>1713</ele>
        <time>2019-02-27T12:30:48Z</time>
      </trkpt>
      <trkpt lat="42.7593" lon="0.16673">
        <ele>1713</ele>
        <time>2019-02-27T12:30:49Z</time>
      </trkpt>
      <trkpt lat="42.7593" lon="0.16673">
        <ele>1713</ele>
        <time>2019-02-27T12:30:50Z</time>
      </trkpt>
      <trkpt lat="42.7593" lon="0.16673">
        <ele>1713</ele>
        <time>2019-02-27T12:30:51Z</time>
      </trkpt>
      <trkpt lat="42.7593" lon="0.16673">
        <ele>1713</ele>
        <time>2019-02-27T12:30:52Z</time>
      </trkpt>
      <trkpt lat="42.75929" lon="0.16671">
        <ele>1713</ele>
        <time>2019-02-27T12:30:53Z</time>
      </trkpt>
      <trkpt lat="42.75929" lon="0.16671">
        <ele>1713</ele>
        <time>2019-02-27T12:30:54Z</time>
      </trkpt>
      <trkpt lat="42.75929" lon="0.16671">
        <ele>1713</ele>
        <time>2019-02-27T12:30:55Z</time>
      </trkpt>
      <trkpt lat="42.75929" lon="0.16671">
        <ele>1713</ele>
        <time>2019-02-27T12:30:56Z</time>
      </trkpt>
      <trkpt lat="42.75929" lon="0.16671">
        <ele>1713</ele>
        <time>2019-02-27T12:30:57Z</time>
      </trkpt>
      <trkpt lat="42.75929" lon="0.16671">
        <ele>1713</ele>
        <time>2019-02-27T12:30:58Z</time>
      </trkpt>
      <trkpt lat="42.75929" lon="0.16671">
        <ele>1713</ele>
        <time>2019-02-27T12:30:59Z</time>
      </trkpt>
      <trkpt lat="42.75929" lon="0.16671">
        <ele>1713</ele>
        <time>2019-02-27T12:31:00Z</time>
      </trkpt>
      <trkpt lat="42.75929" lon="0.16671">
        <ele>1713</ele>
        <time>2019-02-27T12:31:01Z</time>
      </trkpt>
      <trkpt lat="42.75929" lon="0.16671">
        <ele>1713</ele>
        <time>2019-02-27T12:31:02Z</time>
      </trkpt>
      <trkpt lat="42.75929" lon="0.16671">
        <ele>1713</ele>
        <time>2019-02-27T12:31:03Z</time>
      </trkpt>
      <trkpt lat="42.75929" lon="0.16671">
        <ele>1713</ele>
        <time>2019-02-27T12:31:04Z</time>
      </trkpt>
      <trkpt lat="42.75929" lon="0.16671">
        <ele>1713</ele>
        <time>2019-02-27T12:31:05Z</time>
      </trkpt>
      <trkpt lat="42.75929" lon="0.16671">
        <ele>1713</ele>
        <time>2019-02-27T12:31:06Z</time>
      </trkpt>
      <trkpt lat="42.75921" lon="0.16666">
        <ele>1713</ele>
        <time>2019-02-27T12:31:07Z</time>
      </trkpt>
      <trkpt lat="42.75921" lon="0.16666">
        <ele>1713</ele>
        <time>2019-02-27T12:31:08Z</time>
      </trkpt>
      <trkpt lat="42.75921" lon="0.16666">
        <ele>1713</ele>
        <time>2019-02-27T12:31:09Z</time>
      </trkpt>
      <trkpt lat="42.75921" lon="0.16666">
        <ele>1713</ele>
        <time>2019-02-27T12:31:10Z</time>
      </trkpt>
      <trkpt lat="42.75921" lon="0.16666">
        <ele>1713</ele>
        <time>2019-02-27T12:31:11Z</time>
      </trkpt>
      <trkpt lat="42.75921" lon="0.16666">
        <ele>1713</ele>
        <time>2019-02-27T12:31:12Z</time>
      </trkpt>
      <trkpt lat="42.75921" lon="0.16666">
        <ele>1713</ele>
        <time>2019-02-27T12:31:13Z</time>
      </trkpt>
      <trkpt lat="42.75921" lon="0.16666">
        <ele>1713</ele>
        <time>2019-02-27T12:31:14Z</time>
      </trkpt>
      <trkpt lat="42.75921" lon="0.16666">
        <ele>1713</ele>
        <time>2019-02-27T12:31:15Z</time>
      </trkpt>
      <trkpt lat="42.75921" lon="0.16666">
        <ele>1713</ele>
        <time>2019-02-27T12:31:16Z</time>
      </trkpt>
      <trkpt lat="42.75921" lon="0.16666">
        <ele>1713</ele>
        <time>2019-02-27T12:31:17Z</time>
      </trkpt>
      <trkpt lat="42.75921" lon="0.16666">
        <ele>1713</ele>
        <time>2019-02-27T12:31:18Z</time>
      </trkpt>
      <trkpt lat="42.75921" lon="0.16666">
        <ele>1713</ele>
        <time>2019-02-27T12:31:19Z</time>
      </trkpt>
      <trkpt lat="42.75921" lon="0.16666">
        <ele>1713</ele>
        <time>2019-02-27T12:31:20Z</time>
      </trkpt>
      <trkpt lat="42.75921" lon="0.16666">
        <ele>1713</ele>
        <time>2019-02-27T12:31:21Z</time>
      </trkpt>
      <trkpt lat="42.75921" lon="0.16666">
        <ele>1713</ele>
        <time>2019-02-27T12:31:22Z</time>
      </trkpt>
      <trkpt lat="42.75921" lon="0.16666">
        <ele>1713</ele>
        <time>2019-02-27T12:31:23Z</time>
      </trkpt>
      <trkpt lat="42.75921" lon="0.16666">
        <ele>1713</ele>
        <time>2019-02-27T12:31:24Z</time>
      </trkpt>
      <trkpt lat="42.75921" lon="0.16666">
        <ele>1713</ele>
        <time>2019-02-27T12:31:25Z</time>
      </trkpt>
      <trkpt lat="42.75921" lon="0.16666">
        <ele>1713</ele>
        <time>2019-02-27T12:31:26Z</time>
      </trkpt>
      <trkpt lat="42.75921" lon="0.16666">
        <ele>1713</ele>
        <time>2019-02-27T12:31:27Z</time>
      </trkpt>
      <trkpt lat="42.75921" lon="0.16666">
        <ele>1713</ele>
        <time>2019-02-27T12:31:28Z</time>
      </trkpt>
      <trkpt lat="42.75921" lon="0.16666">
        <ele>1713</ele>
        <time>2019-02-27T12:31:29Z</time>
      </trkpt>
      <trkpt lat="42.75921" lon="0.16666">
        <ele>1713</ele>
        <time>2019-02-27T12:31:30Z</time>
      </trkpt>
      <trkpt lat="42.75921" lon="0.16666">
        <ele>1713</ele>
        <time>2019-02-27T12:31:31Z</time>
      </trkpt>
      <trkpt lat="42.75921" lon="0.16666">
        <ele>1713</ele>
        <time>2019-02-27T12:31:32Z</time>
      </trkpt>
      <trkpt lat="42.75921" lon="0.16666">
        <ele>1713</ele>
        <time>2019-02-27T12:31:33Z</time>
      </trkpt>
      <trkpt lat="42.75921" lon="0.16666">
        <ele>1713</ele>
        <time>2019-02-27T12:31:34Z</time>
      </trkpt>
      <trkpt lat="42.75921" lon="0.16666">
        <ele>1713</ele>
        <time>2019-02-27T12:31:35Z</time>
      </trkpt>
      <trkpt lat="42.75921" lon="0.16666">
        <ele>1713</ele>
        <time>2019-02-27T12:31:36Z</time>
      </trkpt>
      <trkpt lat="42.75921" lon="0.16666">
        <ele>1713</ele>
        <time>2019-02-27T12:31:37Z</time>
      </trkpt>
      <trkpt lat="42.75921" lon="0.16666">
        <ele>1713</ele>
        <time>2019-02-27T12:31:38Z</time>
      </trkpt>
      <trkpt lat="42.75921" lon="0.16666">
        <ele>1713</ele>
        <time>2019-02-27T12:31:39Z</time>
      </trkpt>
      <trkpt lat="42.75921" lon="0.16666">
        <ele>1713</ele>
        <time>2019-02-27T12:31:40Z</time>
      </trkpt>
      <trkpt lat="42.75921" lon="0.16666">
        <ele>1713</ele>
        <time>2019-02-27T12:31:41Z</time>
      </trkpt>
      <trkpt lat="42.75921" lon="0.16666">
        <ele>1713</ele>
        <time>2019-02-27T12:31:42Z</time>
      </trkpt>
      <trkpt lat="42.75921" lon="0.16666">
        <ele>1713</ele>
        <time>2019-02-27T12:31:43Z</time>
      </trkpt>
      <trkpt lat="42.75921" lon="0.16666">
        <ele>1713</ele>
        <time>2019-02-27T12:31:44Z</time>
      </trkpt>
      <trkpt lat="42.75921" lon="0.16666">
        <ele>1713</ele>
        <time>2019-02-27T12:31:45Z</time>
      </trkpt>
      <trkpt lat="42.75921" lon="0.16666">
        <ele>1713</ele>
        <time>2019-02-27T12:31:46Z</time>
      </trkpt>
      <trkpt lat="42.75921" lon="0.16666">
        <ele>1713</ele>
        <time>2019-02-27T12:31:47Z</time>
      </trkpt>
      <trkpt lat="42.75921" lon="0.16666">
        <ele>1713</ele>
        <time>2019-02-27T12:31:48Z</time>
      </trkpt>
      <trkpt lat="42.75921" lon="0.16666">
        <ele>1713</ele>
        <time>2019-02-27T12:31:49Z</time>
      </trkpt>
      <trkpt lat="42.75921" lon="0.16666">
        <ele>1713</ele>
        <time>2019-02-27T12:31:50Z</time>
      </trkpt>
      <trkpt lat="42.75921" lon="0.16666">
        <ele>1713</ele>
        <time>2019-02-27T12:31:51Z</time>
      </trkpt>
      <trkpt lat="42.75921" lon="0.16666">
        <ele>1713</ele>
        <time>2019-02-27T12:31:52Z</time>
      </trkpt>
      <trkpt lat="42.75921" lon="0.16666">
        <ele>1713</ele>
        <time>2019-02-27T12:31:53Z</time>
      </trkpt>
      <trkpt lat="42.75921" lon="0.16666">
        <ele>1713</ele>
        <time>2019-02-27T12:31:54Z</time>
      </trkpt>
      <trkpt lat="42.75921" lon="0.16666">
        <ele>1713</ele>
        <time>2019-02-27T12:31:55Z</time>
      </trkpt>
      <trkpt lat="42.75921" lon="0.16666">
        <ele>1713</ele>
        <time>2019-02-27T12:31:56Z</time>
      </trkpt>
      <trkpt lat="42.75921" lon="0.16666">
        <ele>1713</ele>
        <time>2019-02-27T12:31:57Z</time>
      </trkpt>
      <trkpt lat="42.75921" lon="0.16666">
        <ele>1713</ele>
        <time>2019-02-27T12:31:58Z</time>
      </trkpt>
      <trkpt lat="42.75921" lon="0.16666">
        <ele>1713</ele>
        <time>2019-02-27T12:31:59Z</time>
      </trkpt>
      <trkpt lat="42.75921" lon="0.16666">
        <ele>1713</ele>
        <time>2019-02-27T12:32:00Z</time>
      </trkpt>
      <trkpt lat="42.75921" lon="0.16666">
        <ele>1713</ele>
        <time>2019-02-27T12:32:01Z</time>
      </trkpt>
      <trkpt lat="42.75921" lon="0.16666">
        <ele>1713</ele>
        <time>2019-02-27T12:32:02Z</time>
      </trkpt>
      <trkpt lat="42.75921" lon="0.16666">
        <ele>1713</ele>
        <time>2019-02-27T12:32:03Z</time>
      </trkpt>
      <trkpt lat="42.75921" lon="0.16666">
        <ele>1713</ele>
        <time>2019-02-27T12:32:04Z</time>
      </trkpt>
      <trkpt lat="42.75921" lon="0.16666">
        <ele>1713</ele>
        <time>2019-02-27T12:32:05Z</time>
      </trkpt>
      <trkpt lat="42.75921" lon="0.16666">
        <ele>1713</ele>
        <time>2019-02-27T12:32:06Z</time>
      </trkpt>
      <trkpt lat="42.75921" lon="0.16666">
        <ele>1713</ele>
        <time>2019-02-27T12:32:07Z</time>
      </trkpt>
      <trkpt lat="42.75921" lon="0.16666">
        <ele>1713</ele>
        <time>2019-02-27T12:32:08Z</time>
      </trkpt>
      <trkpt lat="42.75921" lon="0.16666">
        <ele>1713</ele>
        <time>2019-02-27T12:32:09Z</time>
      </trkpt>
      <trkpt lat="42.75921" lon="0.16666">
        <ele>1713</ele>
        <time>2019-02-27T12:32:10Z</time>
      </trkpt>
      <trkpt lat="42.75921" lon="0.16666">
        <ele>1713</ele>
        <time>2019-02-27T12:32:11Z</time>
      </trkpt>
      <trkpt lat="42.75921" lon="0.16666">
        <ele>1713</ele>
        <time>2019-02-27T12:32:12Z</time>
      </trkpt>
      <trkpt lat="42.75921" lon="0.16666">
        <ele>1713</ele>
        <time>2019-02-27T12:32:13Z</time>
      </trkpt>
      <trkpt lat="42.75921" lon="0.16666">
        <ele>1713</ele>
        <time>2019-02-27T12:32:14Z</time>
      </trkpt>
      <trkpt lat="42.75921" lon="0.16666">
        <ele>1713</ele>
        <time>2019-02-27T12:32:15Z</time>
      </trkpt>
      <trkpt lat="42.75921" lon="0.16666">
        <ele>1713</ele>
        <time>2019-02-27T12:32:16Z</time>
      </trkpt>
      <trkpt lat="42.75921" lon="0.16666">
        <ele>1713</ele>
        <time>2019-02-27T12:32:17Z</time>
      </trkpt>
      <trkpt lat="42.75921" lon="0.16666">
        <ele>1713</ele>
        <time>2019-02-27T12:32:18Z</time>
      </trkpt>
      <trkpt lat="42.75921" lon="0.16666">
        <ele>1713</ele>
        <time>2019-02-27T12:32:19Z</time>
      </trkpt>
      <trkpt lat="42.75921" lon="0.16666">
        <ele>1713</ele>
        <time>2019-02-27T12:32:20Z</time>
      </trkpt>
      <trkpt lat="42.75921" lon="0.16666">
        <ele>1713</ele>
        <time>2019-02-27T12:32:21Z</time>
      </trkpt>
      <trkpt lat="42.75921" lon="0.16666">
        <ele>1713</ele>
        <time>2019-02-27T12:32:22Z</time>
      </trkpt>
      <trkpt lat="42.75921" lon="0.16666">
        <ele>1713</ele>
        <time>2019-02-27T12:32:23Z</time>
      </trkpt>
      <trkpt lat="42.75921" lon="0.16666">
        <ele>1713</ele>
        <time>2019-02-27T12:32:24Z</time>
      </trkpt>
      <trkpt lat="42.75921" lon="0.16666">
        <ele>1713</ele>
        <time>2019-02-27T12:32:25Z</time>
      </trkpt>
      <trkpt lat="42.75921" lon="0.16666">
        <ele>1713</ele>
        <time>2019-02-27T12:32:26Z</time>
      </trkpt>
      <trkpt lat="42.75921" lon="0.16666">
        <ele>1713</ele>
        <time>2019-02-27T12:32:27Z</time>
      </trkpt>
      <trkpt lat="42.75921" lon="0.16666">
        <ele>1713</ele>
        <time>2019-02-27T12:32:28Z</time>
      </trkpt>
      <trkpt lat="42.75921" lon="0.16666">
        <ele>1713</ele>
        <time>2019-02-27T12:32:29Z</time>
      </trkpt>
      <trkpt lat="42.75921" lon="0.16666">
        <ele>1713</ele>
        <time>2019-02-27T12:32:30Z</time>
      </trkpt>
      <trkpt lat="42.75921" lon="0.16666">
        <ele>1713</ele>
        <time>2019-02-27T12:32:31Z</time>
      </trkpt>
      <trkpt lat="42.75921" lon="0.16666">
        <ele>1713</ele>
        <time>2019-02-27T12:32:32Z</time>
      </trkpt>
      <trkpt lat="42.75921" lon="0.16666">
        <ele>1713</ele>
        <time>2019-02-27T12:32:33Z</time>
      </trkpt>
      <trkpt lat="42.75921" lon="0.16666">
        <ele>1713</ele>
        <time>2019-02-27T12:32:34Z</time>
      </trkpt>
      <trkpt lat="42.75921" lon="0.16666">
        <ele>1713</ele>
        <time>2019-02-27T12:32:35Z</time>
      </trkpt>
      <trkpt lat="42.75921" lon="0.16666">
        <ele>1713</ele>
        <time>2019-02-27T12:32:36Z</time>
      </trkpt>
      <trkpt lat="42.75921" lon="0.16666">
        <ele>1713</ele>
        <time>2019-02-27T12:32:37Z</time>
      </trkpt>
      <trkpt lat="42.75921" lon="0.16666">
        <ele>1713</ele>
        <time>2019-02-27T12:32:38Z</time>
      </trkpt>
      <trkpt lat="42.75921" lon="0.16666">
        <ele>1713</ele>
        <time>2019-02-27T12:32:39Z</time>
      </trkpt>
      <trkpt lat="42.75921" lon="0.16666">
        <ele>1713</ele>
        <time>2019-02-27T12:32:40Z</time>
      </trkpt>
      <trkpt lat="42.75921" lon="0.16666">
        <ele>1713</ele>
        <time>2019-02-27T12:32:41Z</time>
      </trkpt>
      <trkpt lat="42.75921" lon="0.16666">
        <ele>1713</ele>
        <time>2019-02-27T12:32:42Z</time>
      </trkpt>
      <trkpt lat="42.75921" lon="0.16666">
        <ele>1713</ele>
        <time>2019-02-27T12:32:43Z</time>
      </trkpt>
      <trkpt lat="42.75921" lon="0.16666">
        <ele>1713</ele>
        <time>2019-02-27T12:32:44Z</time>
      </trkpt>
      <trkpt lat="42.75921" lon="0.16666">
        <ele>1713</ele>
        <time>2019-02-27T12:32:45Z</time>
      </trkpt>
      <trkpt lat="42.75921" lon="0.16666">
        <ele>1713</ele>
        <time>2019-02-27T12:32:46Z</time>
      </trkpt>
      <trkpt lat="42.75921" lon="0.16666">
        <ele>1713</ele>
        <time>2019-02-27T12:32:47Z</time>
      </trkpt>
      <trkpt lat="42.75921" lon="0.16666">
        <ele>1713</ele>
        <time>2019-02-27T12:32:48Z</time>
      </trkpt>
      <trkpt lat="42.75921" lon="0.16666">
        <ele>1713</ele>
        <time>2019-02-27T12:32:49Z</time>
      </trkpt>
      <trkpt lat="42.75921" lon="0.16666">
        <ele>1713</ele>
        <time>2019-02-27T12:32:50Z</time>
      </trkpt>
      <trkpt lat="42.75921" lon="0.16666">
        <ele>1713</ele>
        <time>2019-02-27T12:32:51Z</time>
      </trkpt>
      <trkpt lat="42.75921" lon="0.16666">
        <ele>1713</ele>
        <time>2019-02-27T12:32:52Z</time>
      </trkpt>
      <trkpt lat="42.75921" lon="0.16666">
        <ele>1713</ele>
        <time>2019-02-27T12:32:53Z</time>
      </trkpt>
      <trkpt lat="42.75921" lon="0.16666">
        <ele>1713</ele>
        <time>2019-02-27T12:32:54Z</time>
      </trkpt>
      <trkpt lat="42.75921" lon="0.16666">
        <ele>1713</ele>
        <time>2019-02-27T12:32:55Z</time>
      </trkpt>
      <trkpt lat="42.75921" lon="0.16666">
        <ele>1713</ele>
        <time>2019-02-27T12:32:56Z</time>
      </trkpt>
      <trkpt lat="42.75921" lon="0.16666">
        <ele>1713</ele>
        <time>2019-02-27T12:32:57Z</time>
      </trkpt>
      <trkpt lat="42.75921" lon="0.16666">
        <ele>1713</ele>
        <time>2019-02-27T12:32:58Z</time>
      </trkpt>
      <trkpt lat="42.75921" lon="0.16666">
        <ele>1713</ele>
        <time>2019-02-27T12:32:59Z</time>
      </trkpt>
      <trkpt lat="42.75921" lon="0.16666">
        <ele>1713</ele>
        <time>2019-02-27T12:33:00Z</time>
      </trkpt>
      <trkpt lat="42.75921" lon="0.16666">
        <ele>1713</ele>
        <time>2019-02-27T12:33:01Z</time>
      </trkpt>
      <trkpt lat="42.75921" lon="0.16666">
        <ele>1713</ele>
        <time>2019-02-27T12:33:02Z</time>
      </trkpt>
      <trkpt lat="42.75921" lon="0.16666">
        <ele>1713</ele>
        <time>2019-02-27T12:33:03Z</time>
      </trkpt>
      <trkpt lat="42.75921" lon="0.16666">
        <ele>1713</ele>
        <time>2019-02-27T12:33:04Z</time>
      </trkpt>
      <trkpt lat="42.75921" lon="0.16666">
        <ele>1713</ele>
        <time>2019-02-27T12:33:05Z</time>
      </trkpt>
      <trkpt lat="42.75921" lon="0.16666">
        <ele>1713</ele>
        <time>2019-02-27T12:33:06Z</time>
      </trkpt>
      <trkpt lat="42.75921" lon="0.16666">
        <ele>1713</ele>
        <time>2019-02-27T12:33:07Z</time>
      </trkpt>
      <trkpt lat="42.75922" lon="0.16663">
        <ele>1713</ele>
        <time>2019-02-27T12:33:08Z</time>
      </trkpt>
      <trkpt lat="42.75922" lon="0.16663">
        <ele>1713</ele>
        <time>2019-02-27T12:33:09Z</time>
      </trkpt>
      <trkpt lat="42.75922" lon="0.16663">
        <ele>1713</ele>
        <time>2019-02-27T12:33:10Z</time>
      </trkpt>
      <trkpt lat="42.75922" lon="0.16663">
        <ele>1713</ele>
        <time>2019-02-27T12:33:11Z</time>
      </trkpt>
      <trkpt lat="42.75922" lon="0.16663">
        <ele>1713</ele>
        <time>2019-02-27T12:33:12Z</time>
      </trkpt>
      <trkpt lat="42.75922" lon="0.16663">
        <ele>1713</ele>
        <time>2019-02-27T12:33:13Z</time>
      </trkpt>
      <trkpt lat="42.75922" lon="0.16663">
        <ele>1713</ele>
        <time>2019-02-27T12:33:14Z</time>
      </trkpt>
      <trkpt lat="42.75922" lon="0.16663">
        <ele>1713</ele>
        <time>2019-02-27T12:33:15Z</time>
      </trkpt>
      <trkpt lat="42.75922" lon="0.16663">
        <ele>1713</ele>
        <time>2019-02-27T12:33:16Z</time>
      </trkpt>
      <trkpt lat="42.75922" lon="0.16663">
        <ele>1713</ele>
        <time>2019-02-27T12:33:17Z</time>
      </trkpt>
      <trkpt lat="42.75922" lon="0.16663">
        <ele>1713</ele>
        <time>2019-02-27T12:33:18Z</time>
      </trkpt>
      <trkpt lat="42.75922" lon="0.16663">
        <ele>1713</ele>
        <time>2019-02-27T12:33:19Z</time>
      </trkpt>
      <trkpt lat="42.75922" lon="0.16663">
        <ele>1713</ele>
        <time>2019-02-27T12:33:20Z</time>
      </trkpt>
      <trkpt lat="42.75922" lon="0.16663">
        <ele>1713</ele>
        <time>2019-02-27T12:33:21Z</time>
      </trkpt>
      <trkpt lat="42.75922" lon="0.16663">
        <ele>1713</ele>
        <time>2019-02-27T12:33:22Z</time>
      </trkpt>
      <trkpt lat="42.75922" lon="0.16663">
        <ele>1713</ele>
        <time>2019-02-27T12:33:23Z</time>
      </trkpt>
      <trkpt lat="42.75922" lon="0.16663">
        <ele>1713</ele>
        <time>2019-02-27T12:33:24Z</time>
      </trkpt>
      <trkpt lat="42.75922" lon="0.16663">
        <ele>1713</ele>
        <time>2019-02-27T12:33:25Z</time>
      </trkpt>
      <trkpt lat="42.75922" lon="0.16663">
        <ele>1713</ele>
        <time>2019-02-27T12:33:26Z</time>
      </trkpt>
      <trkpt lat="42.75922" lon="0.16663">
        <ele>1713</ele>
        <time>2019-02-27T12:33:27Z</time>
      </trkpt>
      <trkpt lat="42.75922" lon="0.16663">
        <ele>1713</ele>
        <time>2019-02-27T12:33:28Z</time>
      </trkpt>
      <trkpt lat="42.75922" lon="0.16663">
        <ele>1713</ele>
        <time>2019-02-27T12:33:29Z</time>
      </trkpt>
      <trkpt lat="42.75922" lon="0.16663">
        <ele>1713</ele>
        <time>2019-02-27T12:33:30Z</time>
      </trkpt>
      <trkpt lat="42.75923" lon="0.16666">
        <ele>1713</ele>
        <time>2019-02-27T12:33:31Z</time>
      </trkpt>
      <trkpt lat="42.75923" lon="0.16666">
        <ele>1713</ele>
        <time>2019-02-27T12:33:32Z</time>
      </trkpt>
      <trkpt lat="42.75923" lon="0.16666">
        <ele>1713</ele>
        <time>2019-02-27T12:33:33Z</time>
      </trkpt>
      <trkpt lat="42.75923" lon="0.16666">
        <ele>1713</ele>
        <time>2019-02-27T12:33:34Z</time>
      </trkpt>
      <trkpt lat="42.75923" lon="0.16666">
        <ele>1713</ele>
        <time>2019-02-27T12:33:35Z</time>
      </trkpt>
      <trkpt lat="42.75923" lon="0.16666">
        <ele>1713</ele>
        <time>2019-02-27T12:33:36Z</time>
      </trkpt>
      <trkpt lat="42.75923" lon="0.16666">
        <ele>1713</ele>
        <time>2019-02-27T12:33:37Z</time>
      </trkpt>
      <trkpt lat="42.75923" lon="0.16666">
        <ele>1713</ele>
        <time>2019-02-27T12:33:38Z</time>
      </trkpt>
      <trkpt lat="42.75923" lon="0.16666">
        <ele>1713</ele>
        <time>2019-02-27T12:33:39Z</time>
      </trkpt>
      <trkpt lat="42.75923" lon="0.16666">
        <ele>1713</ele>
        <time>2019-02-27T12:33:40Z</time>
      </trkpt>
      <trkpt lat="42.75923" lon="0.16666">
        <ele>1713</ele>
        <time>2019-02-27T12:33:41Z</time>
      </trkpt>
      <trkpt lat="42.75923" lon="0.16666">
        <ele>1713</ele>
        <time>2019-02-27T12:33:42Z</time>
      </trkpt>
      <trkpt lat="42.75923" lon="0.16666">
        <ele>1713</ele>
        <time>2019-02-27T12:33:43Z</time>
      </trkpt>
      <trkpt lat="42.75923" lon="0.16666">
        <ele>1713</ele>
        <time>2019-02-27T12:33:44Z</time>
      </trkpt>
      <trkpt lat="42.75923" lon="0.16666">
        <ele>1713</ele>
        <time>2019-02-27T12:33:45Z</time>
      </trkpt>
      <trkpt lat="42.75923" lon="0.16666">
        <ele>1713</ele>
        <time>2019-02-27T12:33:46Z</time>
      </trkpt>
      <trkpt lat="42.75923" lon="0.16666">
        <ele>1713</ele>
        <time>2019-02-27T12:33:47Z</time>
      </trkpt>
      <trkpt lat="42.75923" lon="0.16666">
        <ele>1713</ele>
        <time>2019-02-27T12:33:48Z</time>
      </trkpt>
      <trkpt lat="42.75923" lon="0.16666">
        <ele>1713</ele>
        <time>2019-02-27T12:33:49Z</time>
      </trkpt>
      <trkpt lat="42.75923" lon="0.16666">
        <ele>1713</ele>
        <time>2019-02-27T12:33:50Z</time>
      </trkpt>
      <trkpt lat="42.75923" lon="0.16666">
        <ele>1713</ele>
        <time>2019-02-27T12:33:51Z</time>
      </trkpt>
      <trkpt lat="42.75923" lon="0.16666">
        <ele>1713</ele>
        <time>2019-02-27T12:33:52Z</time>
      </trkpt>
      <trkpt lat="42.75923" lon="0.16666">
        <ele>1713</ele>
        <time>2019-02-27T12:33:53Z</time>
      </trkpt>
      <trkpt lat="42.75923" lon="0.16666">
        <ele>1713</ele>
        <time>2019-02-27T12:33:54Z</time>
      </trkpt>
      <trkpt lat="42.75923" lon="0.16666">
        <ele>1713</ele>
        <time>2019-02-27T12:33:55Z</time>
      </trkpt>
      <trkpt lat="42.75923" lon="0.16666">
        <ele>1713</ele>
        <time>2019-02-27T12:33:56Z</time>
      </trkpt>
      <trkpt lat="42.75923" lon="0.16666">
        <ele>1713</ele>
        <time>2019-02-27T12:33:57Z</time>
      </trkpt>
      <trkpt lat="42.75923" lon="0.16666">
        <ele>1713</ele>
        <time>2019-02-27T12:33:58Z</time>
      </trkpt>
      <trkpt lat="42.75923" lon="0.16666">
        <ele>1713</ele>
        <time>2019-02-27T12:33:59Z</time>
      </trkpt>
      <trkpt lat="42.75923" lon="0.16666">
        <ele>1713</ele>
        <time>2019-02-27T12:34:00Z</time>
      </trkpt>
      <trkpt lat="42.75923" lon="0.16666">
        <ele>1713</ele>
        <time>2019-02-27T12:34:01Z</time>
      </trkpt>
      <trkpt lat="42.7592" lon="0.16665">
        <ele>1713</ele>
        <time>2019-02-27T12:34:02Z</time>
      </trkpt>
      <trkpt lat="42.7592" lon="0.16665">
        <ele>1713</ele>
        <time>2019-02-27T12:34:03Z</time>
      </trkpt>
      <trkpt lat="42.7592" lon="0.16665">
        <ele>1713</ele>
        <time>2019-02-27T12:34:04Z</time>
      </trkpt>
      <trkpt lat="42.7592" lon="0.16665">
        <ele>1713</ele>
        <time>2019-02-27T12:34:05Z</time>
      </trkpt>
      <trkpt lat="42.7592" lon="0.16665">
        <ele>1713</ele>
        <time>2019-02-27T12:34:06Z</time>
      </trkpt>
      <trkpt lat="42.7592" lon="0.16665">
        <ele>1713</ele>
        <time>2019-02-27T12:34:07Z</time>
      </trkpt>
      <trkpt lat="42.7592" lon="0.16665">
        <ele>1713</ele>
        <time>2019-02-27T12:34:08Z</time>
      </trkpt>
      <trkpt lat="42.7592" lon="0.16665">
        <ele>1713</ele>
        <time>2019-02-27T12:34:09Z</time>
      </trkpt>
      <trkpt lat="42.7592" lon="0.16665">
        <ele>1713</ele>
        <time>2019-02-27T12:34:10Z</time>
      </trkpt>
      <trkpt lat="42.7592" lon="0.16665">
        <ele>1713</ele>
        <time>2019-02-27T12:34:11Z</time>
      </trkpt>
      <trkpt lat="42.7592" lon="0.16665">
        <ele>1713</ele>
        <time>2019-02-27T12:34:12Z</time>
      </trkpt>
      <trkpt lat="42.7592" lon="0.16665">
        <ele>1713</ele>
        <time>2019-02-27T12:34:13Z</time>
      </trkpt>
      <trkpt lat="42.7592" lon="0.16665">
        <ele>1713</ele>
        <time>2019-02-27T12:34:14Z</time>
      </trkpt>
      <trkpt lat="42.7592" lon="0.16665">
        <ele>1713</ele>
        <time>2019-02-27T12:34:15Z</time>
      </trkpt>
      <trkpt lat="42.7592" lon="0.16665">
        <ele>1713</ele>
        <time>2019-02-27T12:34:16Z</time>
      </trkpt>
      <trkpt lat="42.7592" lon="0.16665">
        <ele>1713</ele>
        <time>2019-02-27T12:34:17Z</time>
      </trkpt>
      <trkpt lat="42.7592" lon="0.16665">
        <ele>1713</ele>
        <time>2019-02-27T12:34:18Z</time>
      </trkpt>
      <trkpt lat="42.7592" lon="0.16665">
        <ele>1713</ele>
        <time>2019-02-27T12:34:19Z</time>
      </trkpt>
      <trkpt lat="42.7592" lon="0.16665">
        <ele>1713</ele>
        <time>2019-02-27T12:34:20Z</time>
      </trkpt>
      <trkpt lat="42.7592" lon="0.16665">
        <ele>1713</ele>
        <time>2019-02-27T12:34:21Z</time>
      </trkpt>
      <trkpt lat="42.7592" lon="0.16665">
        <ele>1713</ele>
        <time>2019-02-27T12:34:22Z</time>
      </trkpt>
      <trkpt lat="42.7592" lon="0.16665">
        <ele>1713</ele>
        <time>2019-02-27T12:34:23Z</time>
      </trkpt>
      <trkpt lat="42.7592" lon="0.16665">
        <ele>1713</ele>
        <time>2019-02-27T12:34:24Z</time>
      </trkpt>
      <trkpt lat="42.7592" lon="0.16665">
        <ele>1713</ele>
        <time>2019-02-27T12:34:25Z</time>
      </trkpt>
      <trkpt lat="42.7592" lon="0.16665">
        <ele>1713</ele>
        <time>2019-02-27T12:34:26Z</time>
      </trkpt>
      <trkpt lat="42.7592" lon="0.16665">
        <ele>1713</ele>
        <time>2019-02-27T12:34:27Z</time>
      </trkpt>
      <trkpt lat="42.7592" lon="0.16665">
        <ele>1713</ele>
        <time>2019-02-27T12:34:28Z</time>
      </trkpt>
      <trkpt lat="42.7592" lon="0.16665">
        <ele>1713</ele>
        <time>2019-02-27T12:34:29Z</time>
      </trkpt>
      <trkpt lat="42.7592" lon="0.16665">
        <ele>1713</ele>
        <time>2019-02-27T12:34:30Z</time>
      </trkpt>
      <trkpt lat="42.7592" lon="0.16665">
        <ele>1713</ele>
        <time>2019-02-27T12:34:31Z</time>
      </trkpt>
      <trkpt lat="42.7592" lon="0.16665">
        <ele>1713</ele>
        <time>2019-02-27T12:34:32Z</time>
      </trkpt>
      <trkpt lat="42.7592" lon="0.16665">
        <ele>1713</ele>
        <time>2019-02-27T12:34:33Z</time>
      </trkpt>
      <trkpt lat="42.7592" lon="0.16665">
        <ele>1713</ele>
        <time>2019-02-27T12:34:34Z</time>
      </trkpt>
      <trkpt lat="42.7592" lon="0.16665">
        <ele>1713</ele>
        <time>2019-02-27T12:34:35Z</time>
      </trkpt>
      <trkpt lat="42.7592" lon="0.16665">
        <ele>1713</ele>
        <time>2019-02-27T12:34:36Z</time>
      </trkpt>
      <trkpt lat="42.7592" lon="0.16665">
        <ele>1713</ele>
        <time>2019-02-27T12:34:37Z</time>
      </trkpt>
      <trkpt lat="42.7592" lon="0.16665">
        <ele>1713</ele>
        <time>2019-02-27T12:34:38Z</time>
      </trkpt>
      <trkpt lat="42.7592" lon="0.16665">
        <ele>1713</ele>
        <time>2019-02-27T12:34:39Z</time>
      </trkpt>
      <trkpt lat="42.7592" lon="0.16665">
        <ele>1713</ele>
        <time>2019-02-27T12:34:40Z</time>
      </trkpt>
      <trkpt lat="42.7592" lon="0.16665">
        <ele>1713</ele>
        <time>2019-02-27T12:34:41Z</time>
      </trkpt>
      <trkpt lat="42.7592" lon="0.16665">
        <ele>1713</ele>
        <time>2019-02-27T12:34:42Z</time>
      </trkpt>
      <trkpt lat="42.7592" lon="0.16665">
        <ele>1713</ele>
        <time>2019-02-27T12:34:43Z</time>
      </trkpt>
      <trkpt lat="42.7592" lon="0.16665">
        <ele>1713</ele>
        <time>2019-02-27T12:34:44Z</time>
      </trkpt>
      <trkpt lat="42.7592" lon="0.16665">
        <ele>1713</ele>
        <time>2019-02-27T12:34:45Z</time>
      </trkpt>
      <trkpt lat="42.7592" lon="0.16665">
        <ele>1713</ele>
        <time>2019-02-27T12:34:46Z</time>
      </trkpt>
      <trkpt lat="42.7592" lon="0.16665">
        <ele>1713</ele>
        <time>2019-02-27T12:34:47Z</time>
      </trkpt>
      <trkpt lat="42.7592" lon="0.16665">
        <ele>1713</ele>
        <time>2019-02-27T12:34:48Z</time>
      </trkpt>
      <trkpt lat="42.7592" lon="0.16665">
        <ele>1713</ele>
        <time>2019-02-27T12:34:49Z</time>
      </trkpt>
      <trkpt lat="42.7592" lon="0.16665">
        <ele>1713</ele>
        <time>2019-02-27T12:34:50Z</time>
      </trkpt>
      <trkpt lat="42.7592" lon="0.16665">
        <ele>1713</ele>
        <time>2019-02-27T12:34:51Z</time>
      </trkpt>
      <trkpt lat="42.7592" lon="0.16665">
        <ele>1713</ele>
        <time>2019-02-27T12:34:52Z</time>
      </trkpt>
      <trkpt lat="42.7592" lon="0.16665">
        <ele>1713</ele>
        <time>2019-02-27T12:34:53Z</time>
      </trkpt>
      <trkpt lat="42.7592" lon="0.16665">
        <ele>1713</ele>
        <time>2019-02-27T12:34:54Z</time>
      </trkpt>
      <trkpt lat="42.7592" lon="0.16665">
        <ele>1713</ele>
        <time>2019-02-27T12:34:55Z</time>
      </trkpt>
      <trkpt lat="42.7592" lon="0.16665">
        <ele>1713</ele>
        <time>2019-02-27T12:34:56Z</time>
      </trkpt>
      <trkpt lat="42.7592" lon="0.16665">
        <ele>1713</ele>
        <time>2019-02-27T12:34:57Z</time>
      </trkpt>
      <trkpt lat="42.7592" lon="0.16665">
        <ele>1713</ele>
        <time>2019-02-27T12:34:58Z</time>
      </trkpt>
      <trkpt lat="42.7592" lon="0.16665">
        <ele>1713</ele>
        <time>2019-02-27T12:34:59Z</time>
      </trkpt>
      <trkpt lat="42.7592" lon="0.16665">
        <ele>1713</ele>
        <time>2019-02-27T12:35:00Z</time>
      </trkpt>
      <trkpt lat="42.7592" lon="0.16665">
        <ele>1713</ele>
        <time>2019-02-27T12:35:01Z</time>
      </trkpt>
      <trkpt lat="42.7592" lon="0.16665">
        <ele>1713</ele>
        <time>2019-02-27T12:35:02Z</time>
      </trkpt>
      <trkpt lat="42.7592" lon="0.16665">
        <ele>1713</ele>
        <time>2019-02-27T12:35:03Z</time>
      </trkpt>
      <trkpt lat="42.7592" lon="0.16665">
        <ele>1713</ele>
        <time>2019-02-27T12:35:04Z</time>
      </trkpt>
      <trkpt lat="42.7592" lon="0.16665">
        <ele>1713</ele>
        <time>2019-02-27T12:35:05Z</time>
      </trkpt>
      <trkpt lat="42.7592" lon="0.16665">
        <ele>1713</ele>
        <time>2019-02-27T12:35:06Z</time>
      </trkpt>
      <trkpt lat="42.7592" lon="0.16665">
        <ele>1713</ele>
        <time>2019-02-27T12:35:07Z</time>
      </trkpt>
      <trkpt lat="42.7592" lon="0.16665">
        <ele>1713</ele>
        <time>2019-02-27T12:35:08Z</time>
      </trkpt>
      <trkpt lat="42.7592" lon="0.16665">
        <ele>1713</ele>
        <time>2019-02-27T12:35:09Z</time>
      </trkpt>
      <trkpt lat="42.7592" lon="0.16665">
        <ele>1713</ele>
        <time>2019-02-27T12:35:10Z</time>
      </trkpt>
      <trkpt lat="42.7592" lon="0.16665">
        <ele>1713</ele>
        <time>2019-02-27T12:35:11Z</time>
      </trkpt>
      <trkpt lat="42.7592" lon="0.16665">
        <ele>1713</ele>
        <time>2019-02-27T12:35:12Z</time>
      </trkpt>
      <trkpt lat="42.7592" lon="0.16665">
        <ele>1713</ele>
        <time>2019-02-27T12:35:13Z</time>
      </trkpt>
      <trkpt lat="42.7592" lon="0.16665">
        <ele>1713</ele>
        <time>2019-02-27T12:35:14Z</time>
      </trkpt>
      <trkpt lat="42.7592" lon="0.16665">
        <ele>1713</ele>
        <time>2019-02-27T12:35:15Z</time>
      </trkpt>
      <trkpt lat="42.7592" lon="0.16665">
        <ele>1713</ele>
        <time>2019-02-27T12:35:16Z</time>
      </trkpt>
      <trkpt lat="42.7592" lon="0.16665">
        <ele>1713</ele>
        <time>2019-02-27T12:35:17Z</time>
      </trkpt>
      <trkpt lat="42.7592" lon="0.16665">
        <ele>1713</ele>
        <time>2019-02-27T12:35:18Z</time>
      </trkpt>
      <trkpt lat="42.7592" lon="0.16665">
        <ele>1713</ele>
        <time>2019-02-27T12:35:19Z</time>
      </trkpt>
      <trkpt lat="42.7592" lon="0.16665">
        <ele>1713</ele>
        <time>2019-02-27T12:35:20Z</time>
      </trkpt>
      <trkpt lat="42.7592" lon="0.16665">
        <ele>1713</ele>
        <time>2019-02-27T12:35:21Z</time>
      </trkpt>
      <trkpt lat="42.7592" lon="0.16665">
        <ele>1713</ele>
        <time>2019-02-27T12:35:22Z</time>
      </trkpt>
      <trkpt lat="42.7592" lon="0.16665">
        <ele>1713</ele>
        <time>2019-02-27T12:35:23Z</time>
      </trkpt>
      <trkpt lat="42.7592" lon="0.16665">
        <ele>1713</ele>
        <time>2019-02-27T12:35:24Z</time>
      </trkpt>
      <trkpt lat="42.7592" lon="0.16665">
        <ele>1713</ele>
        <time>2019-02-27T12:35:25Z</time>
      </trkpt>
      <trkpt lat="42.7592" lon="0.16665">
        <ele>1713</ele>
        <time>2019-02-27T12:35:26Z</time>
      </trkpt>
      <trkpt lat="42.7592" lon="0.16665">
        <ele>1713</ele>
        <time>2019-02-27T12:35:27Z</time>
      </trkpt>
      <trkpt lat="42.7592" lon="0.16665">
        <ele>1713</ele>
        <time>2019-02-27T12:35:28Z</time>
      </trkpt>
      <trkpt lat="42.7592" lon="0.16665">
        <ele>1713</ele>
        <time>2019-02-27T12:35:29Z</time>
      </trkpt>
      <trkpt lat="42.7592" lon="0.16665">
        <ele>1713</ele>
        <time>2019-02-27T12:35:30Z</time>
      </trkpt>
      <trkpt lat="42.7592" lon="0.16665">
        <ele>1713</ele>
        <time>2019-02-27T12:35:31Z</time>
      </trkpt>
      <trkpt lat="42.7592" lon="0.16665">
        <ele>1713</ele>
        <time>2019-02-27T12:35:32Z</time>
      </trkpt>
      <trkpt lat="42.7592" lon="0.16665">
        <ele>1713</ele>
        <time>2019-02-27T12:35:33Z</time>
      </trkpt>
      <trkpt lat="42.7592" lon="0.16665">
        <ele>1713</ele>
        <time>2019-02-27T12:35:34Z</time>
      </trkpt>
      <trkpt lat="42.7592" lon="0.16665">
        <ele>1713</ele>
        <time>2019-02-27T12:35:35Z</time>
      </trkpt>
      <trkpt lat="42.7592" lon="0.16665">
        <ele>1713</ele>
        <time>2019-02-27T12:35:36Z</time>
      </trkpt>
      <trkpt lat="42.7592" lon="0.16665">
        <ele>1713</ele>
        <time>2019-02-27T12:35:37Z</time>
      </trkpt>
      <trkpt lat="42.7592" lon="0.16665">
        <ele>1713</ele>
        <time>2019-02-27T12:35:38Z</time>
      </trkpt>
      <trkpt lat="42.7592" lon="0.16665">
        <ele>1713</ele>
        <time>2019-02-27T12:35:39Z</time>
      </trkpt>
      <trkpt lat="42.7592" lon="0.16665">
        <ele>1713</ele>
        <time>2019-02-27T12:35:40Z</time>
      </trkpt>
      <trkpt lat="42.7592" lon="0.16665">
        <ele>1713</ele>
        <time>2019-02-27T12:35:41Z</time>
      </trkpt>
      <trkpt lat="42.7592" lon="0.16665">
        <ele>1713</ele>
        <time>2019-02-27T12:35:42Z</time>
      </trkpt>
      <trkpt lat="42.7592" lon="0.16665">
        <ele>1713</ele>
        <time>2019-02-27T12:35:43Z</time>
      </trkpt>
      <trkpt lat="42.7592" lon="0.16665">
        <ele>1713</ele>
        <time>2019-02-27T12:35:44Z</time>
      </trkpt>
      <trkpt lat="42.7592" lon="0.16665">
        <ele>1713</ele>
        <time>2019-02-27T12:35:45Z</time>
      </trkpt>
      <trkpt lat="42.7592" lon="0.16665">
        <ele>1713</ele>
        <time>2019-02-27T12:35:46Z</time>
      </trkpt>
      <trkpt lat="42.7592" lon="0.16665">
        <ele>1713</ele>
        <time>2019-02-27T12:35:47Z</time>
      </trkpt>
      <trkpt lat="42.7592" lon="0.16665">
        <ele>1713</ele>
        <time>2019-02-27T12:35:48Z</time>
      </trkpt>
      <trkpt lat="42.7592" lon="0.16665">
        <ele>1713</ele>
        <time>2019-02-27T12:35:49Z</time>
      </trkpt>
      <trkpt lat="42.7592" lon="0.16665">
        <ele>1713</ele>
        <time>2019-02-27T12:35:50Z</time>
      </trkpt>
      <trkpt lat="42.7592" lon="0.16665">
        <ele>1713</ele>
        <time>2019-02-27T12:35:51Z</time>
      </trkpt>
      <trkpt lat="42.7592" lon="0.16665">
        <ele>1713</ele>
        <time>2019-02-27T12:35:52Z</time>
      </trkpt>
      <trkpt lat="42.7592" lon="0.16665">
        <ele>1713</ele>
        <time>2019-02-27T12:35:53Z</time>
      </trkpt>
      <trkpt lat="42.7592" lon="0.16665">
        <ele>1713</ele>
        <time>2019-02-27T12:35:54Z</time>
      </trkpt>
      <trkpt lat="42.7592" lon="0.16665">
        <ele>1713</ele>
        <time>2019-02-27T12:35:55Z</time>
      </trkpt>
      <trkpt lat="42.7592" lon="0.16665">
        <ele>1713</ele>
        <time>2019-02-27T12:35:56Z</time>
      </trkpt>
      <trkpt lat="42.7592" lon="0.16665">
        <ele>1713</ele>
        <time>2019-02-27T12:35:57Z</time>
      </trkpt>
      <trkpt lat="42.7592" lon="0.16665">
        <ele>1713</ele>
        <time>2019-02-27T12:35:58Z</time>
      </trkpt>
      <trkpt lat="42.7592" lon="0.16665">
        <ele>1713</ele>
        <time>2019-02-27T12:35:59Z</time>
      </trkpt>
      <trkpt lat="42.7592" lon="0.16665">
        <ele>1713</ele>
        <time>2019-02-27T12:36:00Z</time>
      </trkpt>
      <trkpt lat="42.7592" lon="0.16665">
        <ele>1713</ele>
        <time>2019-02-27T12:36:01Z</time>
      </trkpt>
      <trkpt lat="42.7592" lon="0.16665">
        <ele>1713</ele>
        <time>2019-02-27T12:36:02Z</time>
      </trkpt>
      <trkpt lat="42.7592" lon="0.16665">
        <ele>1713</ele>
        <time>2019-02-27T12:36:03Z</time>
      </trkpt>
      <trkpt lat="42.7592" lon="0.16665">
        <ele>1713</ele>
        <time>2019-02-27T12:36:04Z</time>
      </trkpt>
      <trkpt lat="42.7592" lon="0.16665">
        <ele>1713</ele>
        <time>2019-02-27T12:36:05Z</time>
      </trkpt>
      <trkpt lat="42.7592" lon="0.16665">
        <ele>1713</ele>
        <time>2019-02-27T12:36:06Z</time>
      </trkpt>
      <trkpt lat="42.7592" lon="0.16665">
        <ele>1713</ele>
        <time>2019-02-27T12:36:07Z</time>
      </trkpt>
      <trkpt lat="42.7592" lon="0.16665">
        <ele>1713</ele>
        <time>2019-02-27T12:36:08Z</time>
      </trkpt>
      <trkpt lat="42.7592" lon="0.16665">
        <ele>1713</ele>
        <time>2019-02-27T12:36:09Z</time>
      </trkpt>
      <trkpt lat="42.7592" lon="0.16665">
        <ele>1713</ele>
        <time>2019-02-27T12:36:10Z</time>
      </trkpt>
      <trkpt lat="42.7592" lon="0.16665">
        <ele>1713</ele>
        <time>2019-02-27T12:36:11Z</time>
      </trkpt>
      <trkpt lat="42.7592" lon="0.16665">
        <ele>1713</ele>
        <time>2019-02-27T12:36:12Z</time>
      </trkpt>
      <trkpt lat="42.7592" lon="0.16665">
        <ele>1713</ele>
        <time>2019-02-27T12:36:13Z</time>
      </trkpt>
      <trkpt lat="42.7592" lon="0.16665">
        <ele>1713</ele>
        <time>2019-02-27T12:36:14Z</time>
      </trkpt>
      <trkpt lat="42.7592" lon="0.16665">
        <ele>1713</ele>
        <time>2019-02-27T12:36:15Z</time>
      </trkpt>
      <trkpt lat="42.7592" lon="0.16665">
        <ele>1713</ele>
        <time>2019-02-27T12:36:16Z</time>
      </trkpt>
      <trkpt lat="42.7592" lon="0.16665">
        <ele>1713</ele>
        <time>2019-02-27T12:36:17Z</time>
      </trkpt>
      <trkpt lat="42.7592" lon="0.16665">
        <ele>1713</ele>
        <time>2019-02-27T12:36:18Z</time>
      </trkpt>
      <trkpt lat="42.7592" lon="0.16665">
        <ele>1713</ele>
        <time>2019-02-27T12:36:19Z</time>
      </trkpt>
      <trkpt lat="42.7592" lon="0.16665">
        <ele>1713</ele>
        <time>2019-02-27T12:36:20Z</time>
      </trkpt>
      <trkpt lat="42.7592" lon="0.16665">
        <ele>1713</ele>
        <time>2019-02-27T12:36:21Z</time>
      </trkpt>
      <trkpt lat="42.7592" lon="0.16665">
        <ele>1713</ele>
        <time>2019-02-27T12:36:22Z</time>
      </trkpt>
      <trkpt lat="42.7592" lon="0.16665">
        <ele>1713</ele>
        <time>2019-02-27T12:36:23Z</time>
      </trkpt>
      <trkpt lat="42.7592" lon="0.16665">
        <ele>1713</ele>
        <time>2019-02-27T12:36:24Z</time>
      </trkpt>
      <trkpt lat="42.7592" lon="0.16665">
        <ele>1713</ele>
        <time>2019-02-27T12:36:25Z</time>
      </trkpt>
      <trkpt lat="42.7592" lon="0.16665">
        <ele>1713</ele>
        <time>2019-02-27T12:36:26Z</time>
      </trkpt>
      <trkpt lat="42.7592" lon="0.16665">
        <ele>1713</ele>
        <time>2019-02-27T12:36:27Z</time>
      </trkpt>
      <trkpt lat="42.7592" lon="0.16665">
        <ele>1713</ele>
        <time>2019-02-27T12:36:28Z</time>
      </trkpt>
      <trkpt lat="42.7592" lon="0.16665">
        <ele>1713</ele>
        <time>2019-02-27T12:36:29Z</time>
      </trkpt>
      <trkpt lat="42.7592" lon="0.16665">
        <ele>1713</ele>
        <time>2019-02-27T12:36:30Z</time>
      </trkpt>
      <trkpt lat="42.7592" lon="0.16665">
        <ele>1713</ele>
        <time>2019-02-27T12:36:31Z</time>
      </trkpt>
      <trkpt lat="42.7592" lon="0.16665">
        <ele>1713</ele>
        <time>2019-02-27T12:36:32Z</time>
      </trkpt>
      <trkpt lat="42.7592" lon="0.16665">
        <ele>1713</ele>
        <time>2019-02-27T12:36:33Z</time>
      </trkpt>
      <trkpt lat="42.7592" lon="0.16665">
        <ele>1713</ele>
        <time>2019-02-27T12:36:34Z</time>
      </trkpt>
      <trkpt lat="42.7592" lon="0.16665">
        <ele>1713</ele>
        <time>2019-02-27T12:36:35Z</time>
      </trkpt>
      <trkpt lat="42.7592" lon="0.16665">
        <ele>1713</ele>
        <time>2019-02-27T12:36:36Z</time>
      </trkpt>
      <trkpt lat="42.7592" lon="0.16665">
        <ele>1713</ele>
        <time>2019-02-27T12:36:37Z</time>
      </trkpt>
      <trkpt lat="42.7592" lon="0.16665">
        <ele>1713</ele>
        <time>2019-02-27T12:36:38Z</time>
      </trkpt>
      <trkpt lat="42.7592" lon="0.16665">
        <ele>1713</ele>
        <time>2019-02-27T12:36:39Z</time>
      </trkpt>
      <trkpt lat="42.7592" lon="0.16665">
        <ele>1713</ele>
        <time>2019-02-27T12:36:40Z</time>
      </trkpt>
      <trkpt lat="42.7592" lon="0.16665">
        <ele>1713</ele>
        <time>2019-02-27T12:36:41Z</time>
      </trkpt>
      <trkpt lat="42.7592" lon="0.16665">
        <ele>1713</ele>
        <time>2019-02-27T12:36:42Z</time>
      </trkpt>
      <trkpt lat="42.7592" lon="0.16665">
        <ele>1713</ele>
        <time>2019-02-27T12:36:43Z</time>
      </trkpt>
      <trkpt lat="42.7592" lon="0.16665">
        <ele>1713</ele>
        <time>2019-02-27T12:36:44Z</time>
      </trkpt>
      <trkpt lat="42.7592" lon="0.16665">
        <ele>1713</ele>
        <time>2019-02-27T12:36:45Z</time>
      </trkpt>
      <trkpt lat="42.7592" lon="0.16665">
        <ele>1713</ele>
        <time>2019-02-27T12:36:46Z</time>
      </trkpt>
      <trkpt lat="42.7592" lon="0.16665">
        <ele>1713</ele>
        <time>2019-02-27T12:36:47Z</time>
      </trkpt>
      <trkpt lat="42.7592" lon="0.16665">
        <ele>1713</ele>
        <time>2019-02-27T12:36:48Z</time>
      </trkpt>
      <trkpt lat="42.7592" lon="0.16665">
        <ele>1713</ele>
        <time>2019-02-27T12:36:49Z</time>
      </trkpt>
      <trkpt lat="42.7592" lon="0.16665">
        <ele>1713</ele>
        <time>2019-02-27T12:36:50Z</time>
      </trkpt>
      <trkpt lat="42.7592" lon="0.16665">
        <ele>1713</ele>
        <time>2019-02-27T12:36:51Z</time>
      </trkpt>
      <trkpt lat="42.7592" lon="0.16665">
        <ele>1713</ele>
        <time>2019-02-27T12:36:52Z</time>
      </trkpt>
      <trkpt lat="42.7592" lon="0.16665">
        <ele>1713</ele>
        <time>2019-02-27T12:36:53Z</time>
      </trkpt>
      <trkpt lat="42.7592" lon="0.16665">
        <ele>1713</ele>
        <time>2019-02-27T12:36:54Z</time>
      </trkpt>
      <trkpt lat="42.7592" lon="0.16665">
        <ele>1713</ele>
        <time>2019-02-27T12:36:55Z</time>
      </trkpt>
      <trkpt lat="42.7592" lon="0.16665">
        <ele>1713</ele>
        <time>2019-02-27T12:36:56Z</time>
      </trkpt>
      <trkpt lat="42.7592" lon="0.16665">
        <ele>1713</ele>
        <time>2019-02-27T12:36:57Z</time>
      </trkpt>
      <trkpt lat="42.7592" lon="0.16665">
        <ele>1713</ele>
        <time>2019-02-27T12:36:58Z</time>
      </trkpt>
      <trkpt lat="42.7592" lon="0.16665">
        <ele>1713</ele>
        <time>2019-02-27T12:36:59Z</time>
      </trkpt>
      <trkpt lat="42.7592" lon="0.16665">
        <ele>1713</ele>
        <time>2019-02-27T12:37:00Z</time>
      </trkpt>
      <trkpt lat="42.7592" lon="0.16665">
        <ele>1713</ele>
        <time>2019-02-27T12:37:01Z</time>
      </trkpt>
      <trkpt lat="42.7592" lon="0.16665">
        <ele>1713</ele>
        <time>2019-02-27T12:37:02Z</time>
      </trkpt>
      <trkpt lat="42.7592" lon="0.16665">
        <ele>1713</ele>
        <time>2019-02-27T12:37:03Z</time>
      </trkpt>
      <trkpt lat="42.7592" lon="0.16665">
        <ele>1713</ele>
        <time>2019-02-27T12:37:04Z</time>
      </trkpt>
      <trkpt lat="42.7592" lon="0.16665">
        <ele>1713</ele>
        <time>2019-02-27T12:37:05Z</time>
      </trkpt>
      <trkpt lat="42.7592" lon="0.16665">
        <ele>1713</ele>
        <time>2019-02-27T12:37:06Z</time>
      </trkpt>
      <trkpt lat="42.7592" lon="0.16665">
        <ele>1713</ele>
        <time>2019-02-27T12:37:07Z</time>
      </trkpt>
      <trkpt lat="42.7592" lon="0.16665">
        <ele>1713</ele>
        <time>2019-02-27T12:37:08Z</time>
      </trkpt>
      <trkpt lat="42.7592" lon="0.16665">
        <ele>1713</ele>
        <time>2019-02-27T12:37:09Z</time>
      </trkpt>
      <trkpt lat="42.7592" lon="0.16665">
        <ele>1713</ele>
        <time>2019-02-27T12:37:10Z</time>
      </trkpt>
      <trkpt lat="42.7592" lon="0.16665">
        <ele>1713</ele>
        <time>2019-02-27T12:37:11Z</time>
      </trkpt>
      <trkpt lat="42.7592" lon="0.16665">
        <ele>1713</ele>
        <time>2019-02-27T12:37:12Z</time>
      </trkpt>
      <trkpt lat="42.7592" lon="0.16665">
        <ele>1713</ele>
        <time>2019-02-27T12:37:13Z</time>
      </trkpt>
      <trkpt lat="42.7592" lon="0.16665">
        <ele>1713</ele>
        <time>2019-02-27T12:37:14Z</time>
      </trkpt>
      <trkpt lat="42.7592" lon="0.16665">
        <ele>1713</ele>
        <time>2019-02-27T12:37:15Z</time>
      </trkpt>
      <trkpt lat="42.7592" lon="0.16665">
        <ele>1713</ele>
        <time>2019-02-27T12:37:16Z</time>
      </trkpt>
      <trkpt lat="42.7592" lon="0.16665">
        <ele>1713</ele>
        <time>2019-02-27T12:37:17Z</time>
      </trkpt>
      <trkpt lat="42.75922" lon="0.16664">
        <ele>1713</ele>
        <time>2019-02-27T12:37:18Z</time>
      </trkpt>
      <trkpt lat="42.75922" lon="0.16664">
        <ele>1712</ele>
        <time>2019-02-27T12:37:19Z</time>
      </trkpt>
      <trkpt lat="42.75922" lon="0.16664">
        <ele>1712</ele>
        <time>2019-02-27T12:37:20Z</time>
      </trkpt>
      <trkpt lat="42.75922" lon="0.16664">
        <ele>1712</ele>
        <time>2019-02-27T12:37:21Z</time>
      </trkpt>
      <trkpt lat="42.75922" lon="0.16664">
        <ele>1712</ele>
        <time>2019-02-27T12:37:22Z</time>
      </trkpt>
      <trkpt lat="42.75922" lon="0.16664">
        <ele>1712</ele>
        <time>2019-02-27T12:37:23Z</time>
      </trkpt>
      <trkpt lat="42.75922" lon="0.16664">
        <ele>1712</ele>
        <time>2019-02-27T12:37:24Z</time>
      </trkpt>
      <trkpt lat="42.75922" lon="0.16664">
        <ele>1712</ele>
        <time>2019-02-27T12:37:25Z</time>
      </trkpt>
      <trkpt lat="42.75922" lon="0.16664">
        <ele>1712</ele>
        <time>2019-02-27T12:37:26Z</time>
      </trkpt>
      <trkpt lat="42.75922" lon="0.16664">
        <ele>1712</ele>
        <time>2019-02-27T12:37:27Z</time>
      </trkpt>
      <trkpt lat="42.75922" lon="0.16664">
        <ele>1712</ele>
        <time>2019-02-27T12:37:28Z</time>
      </trkpt>
      <trkpt lat="42.75922" lon="0.16664">
        <ele>1712</ele>
        <time>2019-02-27T12:37:29Z</time>
      </trkpt>
      <trkpt lat="42.75922" lon="0.16664">
        <ele>1712</ele>
        <time>2019-02-27T12:37:30Z</time>
      </trkpt>
      <trkpt lat="42.75922" lon="0.16664">
        <ele>1712</ele>
        <time>2019-02-27T12:37:31Z</time>
      </trkpt>
      <trkpt lat="42.75922" lon="0.16664">
        <ele>1712</ele>
        <time>2019-02-27T12:37:32Z</time>
      </trkpt>
      <trkpt lat="42.75922" lon="0.16664">
        <ele>1712</ele>
        <time>2019-02-27T12:37:33Z</time>
      </trkpt>
      <trkpt lat="42.75922" lon="0.16664">
        <ele>1712</ele>
        <time>2019-02-27T12:37:34Z</time>
      </trkpt>
      <trkpt lat="42.75922" lon="0.16664">
        <ele>1712</ele>
        <time>2019-02-27T12:37:35Z</time>
      </trkpt>
      <trkpt lat="42.75922" lon="0.16664">
        <ele>1712</ele>
        <time>2019-02-27T12:37:36Z</time>
      </trkpt>
      <trkpt lat="42.75922" lon="0.16664">
        <ele>1712</ele>
        <time>2019-02-27T12:37:37Z</time>
      </trkpt>
      <trkpt lat="42.75922" lon="0.16664">
        <ele>1712</ele>
        <time>2019-02-27T12:37:38Z</time>
      </trkpt>
      <trkpt lat="42.75922" lon="0.16664">
        <ele>1712</ele>
        <time>2019-02-27T12:37:39Z</time>
      </trkpt>
      <trkpt lat="42.75922" lon="0.16664">
        <ele>1712</ele>
        <time>2019-02-27T12:37:40Z</time>
      </trkpt>
      <trkpt lat="42.75922" lon="0.16664">
        <ele>1712</ele>
        <time>2019-02-27T12:37:41Z</time>
      </trkpt>
      <trkpt lat="42.75922" lon="0.16664">
        <ele>1712</ele>
        <time>2019-02-27T12:37:42Z</time>
      </trkpt>
      <trkpt lat="42.75922" lon="0.16664">
        <ele>1712</ele>
        <time>2019-02-27T12:37:43Z</time>
      </trkpt>
      <trkpt lat="42.75922" lon="0.16664">
        <ele>1712</ele>
        <time>2019-02-27T12:37:44Z</time>
      </trkpt>
      <trkpt lat="42.75922" lon="0.16664">
        <ele>1712</ele>
        <time>2019-02-27T12:37:45Z</time>
      </trkpt>
      <trkpt lat="42.75922" lon="0.16664">
        <ele>1712</ele>
        <time>2019-02-27T12:37:46Z</time>
      </trkpt>
      <trkpt lat="42.75922" lon="0.16664">
        <ele>1712</ele>
        <time>2019-02-27T12:37:47Z</time>
      </trkpt>
      <trkpt lat="42.75922" lon="0.16664">
        <ele>1712</ele>
        <time>2019-02-27T12:37:48Z</time>
      </trkpt>
      <trkpt lat="42.75922" lon="0.16664">
        <ele>1712</ele>
        <time>2019-02-27T12:37:49Z</time>
      </trkpt>
      <trkpt lat="42.75922" lon="0.16664">
        <ele>1712</ele>
        <time>2019-02-27T12:37:50Z</time>
      </trkpt>
      <trkpt lat="42.75922" lon="0.16664">
        <ele>1712</ele>
        <time>2019-02-27T12:37:51Z</time>
      </trkpt>
      <trkpt lat="42.75922" lon="0.16664">
        <ele>1712</ele>
        <time>2019-02-27T12:37:52Z</time>
      </trkpt>
      <trkpt lat="42.75922" lon="0.16664">
        <ele>1712</ele>
        <time>2019-02-27T12:37:53Z</time>
      </trkpt>
      <trkpt lat="42.75922" lon="0.16664">
        <ele>1712</ele>
        <time>2019-02-27T12:37:54Z</time>
      </trkpt>
      <trkpt lat="42.75922" lon="0.16664">
        <ele>1712</ele>
        <time>2019-02-27T12:37:55Z</time>
      </trkpt>
      <trkpt lat="42.75922" lon="0.16664">
        <ele>1712</ele>
        <time>2019-02-27T12:37:56Z</time>
      </trkpt>
      <trkpt lat="42.75922" lon="0.16664">
        <ele>1712</ele>
        <time>2019-02-27T12:37:57Z</time>
      </trkpt>
      <trkpt lat="42.75922" lon="0.16664">
        <ele>1712</ele>
        <time>2019-02-27T12:37:58Z</time>
      </trkpt>
      <trkpt lat="42.75922" lon="0.16664">
        <ele>1712</ele>
        <time>2019-02-27T12:37:59Z</time>
      </trkpt>
      <trkpt lat="42.75922" lon="0.16664">
        <ele>1712</ele>
        <time>2019-02-27T12:38:00Z</time>
      </trkpt>
      <trkpt lat="42.75922" lon="0.16664">
        <ele>1712</ele>
        <time>2019-02-27T12:38:01Z</time>
      </trkpt>
      <trkpt lat="42.75922" lon="0.16664">
        <ele>1712</ele>
        <time>2019-02-27T12:38:02Z</time>
      </trkpt>
      <trkpt lat="42.75922" lon="0.16664">
        <ele>1712</ele>
        <time>2019-02-27T12:38:03Z</time>
      </trkpt>
      <trkpt lat="42.75922" lon="0.16664">
        <ele>1712</ele>
        <time>2019-02-27T12:38:04Z</time>
      </trkpt>
      <trkpt lat="42.75922" lon="0.16664">
        <ele>1712</ele>
        <time>2019-02-27T12:38:05Z</time>
      </trkpt>
      <trkpt lat="42.75922" lon="0.16664">
        <ele>1712</ele>
        <time>2019-02-27T12:38:06Z</time>
      </trkpt>
      <trkpt lat="42.75922" lon="0.16664">
        <ele>1712</ele>
        <time>2019-02-27T12:38:07Z</time>
      </trkpt>
      <trkpt lat="42.75922" lon="0.16664">
        <ele>1712</ele>
        <time>2019-02-27T12:38:08Z</time>
      </trkpt>
      <trkpt lat="42.75922" lon="0.16664">
        <ele>1712</ele>
        <time>2019-02-27T12:38:09Z</time>
      </trkpt>
      <trkpt lat="42.75922" lon="0.16664">
        <ele>1712</ele>
        <time>2019-02-27T12:38:10Z</time>
      </trkpt>
      <trkpt lat="42.75922" lon="0.16664">
        <ele>1712</ele>
        <time>2019-02-27T12:38:11Z</time>
      </trkpt>
      <trkpt lat="42.75922" lon="0.16664">
        <ele>1712</ele>
        <time>2019-02-27T12:38:12Z</time>
      </trkpt>
      <trkpt lat="42.75922" lon="0.16664">
        <ele>1712</ele>
        <time>2019-02-27T12:38:13Z</time>
      </trkpt>
      <trkpt lat="42.75922" lon="0.16664">
        <ele>1712</ele>
        <time>2019-02-27T12:38:14Z</time>
      </trkpt>
      <trkpt lat="42.75922" lon="0.16664">
        <ele>1712</ele>
        <time>2019-02-27T12:38:15Z</time>
      </trkpt>
      <trkpt lat="42.75922" lon="0.16664">
        <ele>1712</ele>
        <time>2019-02-27T12:38:16Z</time>
      </trkpt>
      <trkpt lat="42.75922" lon="0.16664">
        <ele>1712</ele>
        <time>2019-02-27T12:38:17Z</time>
      </trkpt>
      <trkpt lat="42.75922" lon="0.16664">
        <ele>1712</ele>
        <time>2019-02-27T12:38:18Z</time>
      </trkpt>
      <trkpt lat="42.75922" lon="0.16664">
        <ele>1712</ele>
        <time>2019-02-27T12:38:19Z</time>
      </trkpt>
      <trkpt lat="42.75922" lon="0.16664">
        <ele>1712</ele>
        <time>2019-02-27T12:38:20Z</time>
      </trkpt>
      <trkpt lat="42.75922" lon="0.16664">
        <ele>1712</ele>
        <time>2019-02-27T12:38:21Z</time>
      </trkpt>
      <trkpt lat="42.75922" lon="0.16664">
        <ele>1712</ele>
        <time>2019-02-27T12:38:22Z</time>
      </trkpt>
      <trkpt lat="42.75922" lon="0.16664">
        <ele>1712</ele>
        <time>2019-02-27T12:38:23Z</time>
      </trkpt>
      <trkpt lat="42.75922" lon="0.16664">
        <ele>1712</ele>
        <time>2019-02-27T12:38:24Z</time>
      </trkpt>
      <trkpt lat="42.75922" lon="0.16664">
        <ele>1712</ele>
        <time>2019-02-27T12:38:25Z</time>
      </trkpt>
      <trkpt lat="42.75922" lon="0.16664">
        <ele>1712</ele>
        <time>2019-02-27T12:38:26Z</time>
      </trkpt>
      <trkpt lat="42.75922" lon="0.16664">
        <ele>1712</ele>
        <time>2019-02-27T12:38:27Z</time>
      </trkpt>
      <trkpt lat="42.75922" lon="0.16664">
        <ele>1712</ele>
        <time>2019-02-27T12:38:28Z</time>
      </trkpt>
      <trkpt lat="42.75922" lon="0.16664">
        <ele>1712</ele>
        <time>2019-02-27T12:38:29Z</time>
      </trkpt>
      <trkpt lat="42.75922" lon="0.16664">
        <ele>1712</ele>
        <time>2019-02-27T12:38:30Z</time>
      </trkpt>
      <trkpt lat="42.75922" lon="0.16664">
        <ele>1712</ele>
        <time>2019-02-27T12:38:31Z</time>
      </trkpt>
      <trkpt lat="42.75922" lon="0.16664">
        <ele>1712</ele>
        <time>2019-02-27T12:38:32Z</time>
      </trkpt>
      <trkpt lat="42.75922" lon="0.16664">
        <ele>1712</ele>
        <time>2019-02-27T12:38:33Z</time>
      </trkpt>
      <trkpt lat="42.75922" lon="0.16664">
        <ele>1712</ele>
        <time>2019-02-27T12:38:34Z</time>
      </trkpt>
      <trkpt lat="42.75922" lon="0.16664">
        <ele>1712</ele>
        <time>2019-02-27T12:38:35Z</time>
      </trkpt>
      <trkpt lat="42.75922" lon="0.16664">
        <ele>1712</ele>
        <time>2019-02-27T12:38:36Z</time>
      </trkpt>
      <trkpt lat="42.75922" lon="0.16664">
        <ele>1712</ele>
        <time>2019-02-27T12:38:37Z</time>
      </trkpt>
      <trkpt lat="42.75922" lon="0.16664">
        <ele>1712</ele>
        <time>2019-02-27T12:38:38Z</time>
      </trkpt>
      <trkpt lat="42.75922" lon="0.16664">
        <ele>1712</ele>
        <time>2019-02-27T12:38:39Z</time>
      </trkpt>
      <trkpt lat="42.75922" lon="0.16664">
        <ele>1712</ele>
        <time>2019-02-27T12:38:40Z</time>
      </trkpt>
      <trkpt lat="42.75922" lon="0.16664">
        <ele>1712</ele>
        <time>2019-02-27T12:38:41Z</time>
      </trkpt>
      <trkpt lat="42.75922" lon="0.16664">
        <ele>1712</ele>
        <time>2019-02-27T12:38:42Z</time>
      </trkpt>
      <trkpt lat="42.75922" lon="0.16664">
        <ele>1712</ele>
        <time>2019-02-27T12:38:43Z</time>
      </trkpt>
      <trkpt lat="42.75922" lon="0.16664">
        <ele>1712</ele>
        <time>2019-02-27T12:38:44Z</time>
      </trkpt>
      <trkpt lat="42.75922" lon="0.16664">
        <ele>1712</ele>
        <time>2019-02-27T12:38:45Z</time>
      </trkpt>
      <trkpt lat="42.75922" lon="0.16664">
        <ele>1712</ele>
        <time>2019-02-27T12:38:46Z</time>
      </trkpt>
      <trkpt lat="42.75922" lon="0.16664">
        <ele>1712</ele>
        <time>2019-02-27T12:38:47Z</time>
      </trkpt>
      <trkpt lat="42.75922" lon="0.16664">
        <ele>1712</ele>
        <time>2019-02-27T12:38:48Z</time>
      </trkpt>
      <trkpt lat="42.75922" lon="0.16664">
        <ele>1712</ele>
        <time>2019-02-27T12:38:49Z</time>
      </trkpt>
      <trkpt lat="42.75922" lon="0.16664">
        <ele>1712</ele>
        <time>2019-02-27T12:38:50Z</time>
      </trkpt>
      <trkpt lat="42.75922" lon="0.16664">
        <ele>1712</ele>
        <time>2019-02-27T12:38:51Z</time>
      </trkpt>
      <trkpt lat="42.75922" lon="0.16664">
        <ele>1712</ele>
        <time>2019-02-27T12:38:52Z</time>
      </trkpt>
      <trkpt lat="42.75922" lon="0.16664">
        <ele>1712</ele>
        <time>2019-02-27T12:38:53Z</time>
      </trkpt>
      <trkpt lat="42.75922" lon="0.16664">
        <ele>1712</ele>
        <time>2019-02-27T12:38:54Z</time>
      </trkpt>
      <trkpt lat="42.75922" lon="0.16664">
        <ele>1712</ele>
        <time>2019-02-27T12:38:55Z</time>
      </trkpt>
      <trkpt lat="42.75922" lon="0.16664">
        <ele>1712</ele>
        <time>2019-02-27T12:38:56Z</time>
      </trkpt>
      <trkpt lat="42.75922" lon="0.16664">
        <ele>1712</ele>
        <time>2019-02-27T12:38:57Z</time>
      </trkpt>
      <trkpt lat="42.75922" lon="0.16664">
        <ele>1712</ele>
        <time>2019-02-27T12:38:58Z</time>
      </trkpt>
      <trkpt lat="42.75922" lon="0.16664">
        <ele>1712</ele>
        <time>2019-02-27T12:38:59Z</time>
      </trkpt>
      <trkpt lat="42.75922" lon="0.16664">
        <ele>1712</ele>
        <time>2019-02-27T12:39:00Z</time>
      </trkpt>
      <trkpt lat="42.75922" lon="0.16664">
        <ele>1712</ele>
        <time>2019-02-27T12:39:01Z</time>
      </trkpt>
      <trkpt lat="42.75922" lon="0.16664">
        <ele>1712</ele>
        <time>2019-02-27T12:39:02Z</time>
      </trkpt>
      <trkpt lat="42.75922" lon="0.16664">
        <ele>1712</ele>
        <time>2019-02-27T12:39:03Z</time>
      </trkpt>
      <trkpt lat="42.75922" lon="0.16664">
        <ele>1712</ele>
        <time>2019-02-27T12:39:04Z</time>
      </trkpt>
      <trkpt lat="42.75922" lon="0.16664">
        <ele>1712</ele>
        <time>2019-02-27T12:39:05Z</time>
      </trkpt>
      <trkpt lat="42.75922" lon="0.16664">
        <ele>1712</ele>
        <time>2019-02-27T12:39:06Z</time>
      </trkpt>
      <trkpt lat="42.75922" lon="0.16664">
        <ele>1712</ele>
        <time>2019-02-27T12:39:07Z</time>
      </trkpt>
      <trkpt lat="42.75922" lon="0.16664">
        <ele>1712</ele>
        <time>2019-02-27T12:39:08Z</time>
      </trkpt>
      <trkpt lat="42.75922" lon="0.16664">
        <ele>1712</ele>
        <time>2019-02-27T12:39:09Z</time>
      </trkpt>
      <trkpt lat="42.75922" lon="0.16664">
        <ele>1712</ele>
        <time>2019-02-27T12:39:10Z</time>
      </trkpt>
      <trkpt lat="42.75922" lon="0.16664">
        <ele>1712</ele>
        <time>2019-02-27T12:39:11Z</time>
      </trkpt>
      <trkpt lat="42.75922" lon="0.16664">
        <ele>1712</ele>
        <time>2019-02-27T12:39:12Z</time>
      </trkpt>
      <trkpt lat="42.75922" lon="0.16664">
        <ele>1712</ele>
        <time>2019-02-27T12:39:13Z</time>
      </trkpt>
      <trkpt lat="42.75922" lon="0.16664">
        <ele>1712</ele>
        <time>2019-02-27T12:39:14Z</time>
      </trkpt>
      <trkpt lat="42.75922" lon="0.16664">
        <ele>1712</ele>
        <time>2019-02-27T12:39:15Z</time>
      </trkpt>
      <trkpt lat="42.75922" lon="0.16664">
        <ele>1712</ele>
        <time>2019-02-27T12:39:16Z</time>
      </trkpt>
      <trkpt lat="42.75922" lon="0.16664">
        <ele>1712</ele>
        <time>2019-02-27T12:39:17Z</time>
      </trkpt>
      <trkpt lat="42.75922" lon="0.16664">
        <ele>1712</ele>
        <time>2019-02-27T12:39:18Z</time>
      </trkpt>
      <trkpt lat="42.75922" lon="0.16664">
        <ele>1712</ele>
        <time>2019-02-27T12:39:19Z</time>
      </trkpt>
      <trkpt lat="42.75922" lon="0.16664">
        <ele>1712</ele>
        <time>2019-02-27T12:39:20Z</time>
      </trkpt>
      <trkpt lat="42.75922" lon="0.16664">
        <ele>1712</ele>
        <time>2019-02-27T12:39:21Z</time>
      </trkpt>
      <trkpt lat="42.75922" lon="0.16664">
        <ele>1712</ele>
        <time>2019-02-27T12:39:22Z</time>
      </trkpt>
      <trkpt lat="42.75922" lon="0.16664">
        <ele>1712</ele>
        <time>2019-02-27T12:39:23Z</time>
      </trkpt>
      <trkpt lat="42.75922" lon="0.16664">
        <ele>1712</ele>
        <time>2019-02-27T12:39:24Z</time>
      </trkpt>
      <trkpt lat="42.75922" lon="0.16664">
        <ele>1712</ele>
        <time>2019-02-27T12:39:25Z</time>
      </trkpt>
      <trkpt lat="42.75922" lon="0.16664">
        <ele>1712</ele>
        <time>2019-02-27T12:39:26Z</time>
      </trkpt>
      <trkpt lat="42.75922" lon="0.16664">
        <ele>1712</ele>
        <time>2019-02-27T12:39:27Z</time>
      </trkpt>
      <trkpt lat="42.75922" lon="0.16664">
        <ele>1712</ele>
        <time>2019-02-27T12:39:28Z</time>
      </trkpt>
      <trkpt lat="42.75922" lon="0.16664">
        <ele>1712</ele>
        <time>2019-02-27T12:39:29Z</time>
      </trkpt>
      <trkpt lat="42.75922" lon="0.16664">
        <ele>1712</ele>
        <time>2019-02-27T12:39:30Z</time>
      </trkpt>
      <trkpt lat="42.75922" lon="0.16664">
        <ele>1712</ele>
        <time>2019-02-27T12:39:31Z</time>
      </trkpt>
      <trkpt lat="42.75922" lon="0.16664">
        <ele>1712</ele>
        <time>2019-02-27T12:39:32Z</time>
      </trkpt>
      <trkpt lat="42.75922" lon="0.16664">
        <ele>1712</ele>
        <time>2019-02-27T12:39:33Z</time>
      </trkpt>
      <trkpt lat="42.75922" lon="0.16664">
        <ele>1712</ele>
        <time>2019-02-27T12:39:34Z</time>
      </trkpt>
      <trkpt lat="42.75922" lon="0.16664">
        <ele>1712</ele>
        <time>2019-02-27T12:39:35Z</time>
      </trkpt>
      <trkpt lat="42.75922" lon="0.16664">
        <ele>1712</ele>
        <time>2019-02-27T12:39:36Z</time>
      </trkpt>
      <trkpt lat="42.75922" lon="0.16664">
        <ele>1712</ele>
        <time>2019-02-27T12:39:37Z</time>
      </trkpt>
      <trkpt lat="42.75922" lon="0.16664">
        <ele>1712</ele>
        <time>2019-02-27T12:39:38Z</time>
      </trkpt>
      <trkpt lat="42.75922" lon="0.16664">
        <ele>1712</ele>
        <time>2019-02-27T12:39:39Z</time>
      </trkpt>
      <trkpt lat="42.75922" lon="0.16664">
        <ele>1712</ele>
        <time>2019-02-27T12:39:40Z</time>
      </trkpt>
      <trkpt lat="42.75922" lon="0.16664">
        <ele>1712</ele>
        <time>2019-02-27T12:39:41Z</time>
      </trkpt>
      <trkpt lat="42.75922" lon="0.16664">
        <ele>1712</ele>
        <time>2019-02-27T12:39:42Z</time>
      </trkpt>
      <trkpt lat="42.75922" lon="0.16664">
        <ele>1712</ele>
        <time>2019-02-27T12:39:43Z</time>
      </trkpt>
      <trkpt lat="42.75922" lon="0.16664">
        <ele>1712</ele>
        <time>2019-02-27T12:39:44Z</time>
      </trkpt>
      <trkpt lat="42.75922" lon="0.16664">
        <ele>1712</ele>
        <time>2019-02-27T12:39:45Z</time>
      </trkpt>
      <trkpt lat="42.75922" lon="0.16664">
        <ele>1712</ele>
        <time>2019-02-27T12:39:46Z</time>
      </trkpt>
      <trkpt lat="42.75922" lon="0.16664">
        <ele>1712</ele>
        <time>2019-02-27T12:39:47Z</time>
      </trkpt>
      <trkpt lat="42.75922" lon="0.16664">
        <ele>1712</ele>
        <time>2019-02-27T12:39:48Z</time>
      </trkpt>
      <trkpt lat="42.75922" lon="0.16664">
        <ele>1712</ele>
        <time>2019-02-27T12:39:49Z</time>
      </trkpt>
      <trkpt lat="42.75922" lon="0.16664">
        <ele>1712</ele>
        <time>2019-02-27T12:39:50Z</time>
      </trkpt>
      <trkpt lat="42.75922" lon="0.16664">
        <ele>1712</ele>
        <time>2019-02-27T12:39:51Z</time>
      </trkpt>
      <trkpt lat="42.75922" lon="0.16664">
        <ele>1712</ele>
        <time>2019-02-27T12:39:52Z</time>
      </trkpt>
      <trkpt lat="42.75922" lon="0.16664">
        <ele>1712</ele>
        <time>2019-02-27T12:39:53Z</time>
      </trkpt>
      <trkpt lat="42.75922" lon="0.16664">
        <ele>1712</ele>
        <time>2019-02-27T12:39:54Z</time>
      </trkpt>
      <trkpt lat="42.75922" lon="0.16664">
        <ele>1712</ele>
        <time>2019-02-27T12:39:55Z</time>
      </trkpt>
      <trkpt lat="42.75922" lon="0.16664">
        <ele>1712</ele>
        <time>2019-02-27T12:39:56Z</time>
      </trkpt>
      <trkpt lat="42.75922" lon="0.16664">
        <ele>1711</ele>
        <time>2019-02-27T12:39:57Z</time>
      </trkpt>
      <trkpt lat="42.75922" lon="0.16664">
        <ele>1711</ele>
        <time>2019-02-27T12:39:58Z</time>
      </trkpt>
      <trkpt lat="42.75922" lon="0.16664">
        <ele>1711</ele>
        <time>2019-02-27T12:39:59Z</time>
      </trkpt>
      <trkpt lat="42.75922" lon="0.16664">
        <ele>1711</ele>
        <time>2019-02-27T12:40:00Z</time>
      </trkpt>
      <trkpt lat="42.75922" lon="0.16664">
        <ele>1711</ele>
        <time>2019-02-27T12:40:01Z</time>
      </trkpt>
      <trkpt lat="42.75922" lon="0.16664">
        <ele>1711</ele>
        <time>2019-02-27T12:40:02Z</time>
      </trkpt>
      <trkpt lat="42.75922" lon="0.16664">
        <ele>1711</ele>
        <time>2019-02-27T12:40:03Z</time>
      </trkpt>
      <trkpt lat="42.75922" lon="0.16664">
        <ele>1711</ele>
        <time>2019-02-27T12:40:04Z</time>
      </trkpt>
      <trkpt lat="42.75922" lon="0.16664">
        <ele>1711</ele>
        <time>2019-02-27T12:40:05Z</time>
      </trkpt>
      <trkpt lat="42.75922" lon="0.16664">
        <ele>1711</ele>
        <time>2019-02-27T12:40:06Z</time>
      </trkpt>
      <trkpt lat="42.75922" lon="0.16664">
        <ele>1711</ele>
        <time>2019-02-27T12:40:07Z</time>
      </trkpt>
      <trkpt lat="42.75922" lon="0.16664">
        <ele>1711</ele>
        <time>2019-02-27T12:40:08Z</time>
      </trkpt>
      <trkpt lat="42.75922" lon="0.16664">
        <ele>1711</ele>
        <time>2019-02-27T12:40:09Z</time>
      </trkpt>
      <trkpt lat="42.75922" lon="0.16664">
        <ele>1711</ele>
        <time>2019-02-27T12:40:10Z</time>
      </trkpt>
      <trkpt lat="42.75922" lon="0.16664">
        <ele>1711</ele>
        <time>2019-02-27T12:40:11Z</time>
      </trkpt>
      <trkpt lat="42.75922" lon="0.16664">
        <ele>1711</ele>
        <time>2019-02-27T12:40:12Z</time>
      </trkpt>
      <trkpt lat="42.75922" lon="0.16664">
        <ele>1711</ele>
        <time>2019-02-27T12:40:13Z</time>
      </trkpt>
      <trkpt lat="42.75922" lon="0.16664">
        <ele>1711</ele>
        <time>2019-02-27T12:40:14Z</time>
      </trkpt>
      <trkpt lat="42.75922" lon="0.16664">
        <ele>1711</ele>
        <time>2019-02-27T12:40:15Z</time>
      </trkpt>
      <trkpt lat="42.75922" lon="0.16664">
        <ele>1711</ele>
        <time>2019-02-27T12:40:16Z</time>
      </trkpt>
      <trkpt lat="42.75922" lon="0.16664">
        <ele>1711</ele>
        <time>2019-02-27T12:40:17Z</time>
      </trkpt>
      <trkpt lat="42.75922" lon="0.16664">
        <ele>1711</ele>
        <time>2019-02-27T12:40:18Z</time>
      </trkpt>
      <trkpt lat="42.75922" lon="0.16664">
        <ele>1711</ele>
        <time>2019-02-27T12:40:19Z</time>
      </trkpt>
      <trkpt lat="42.75922" lon="0.16664">
        <ele>1711</ele>
        <time>2019-02-27T12:40:20Z</time>
      </trkpt>
      <trkpt lat="42.75922" lon="0.16664">
        <ele>1711</ele>
        <time>2019-02-27T12:40:21Z</time>
      </trkpt>
      <trkpt lat="42.75922" lon="0.16664">
        <ele>1711</ele>
        <time>2019-02-27T12:40:22Z</time>
      </trkpt>
      <trkpt lat="42.75922" lon="0.16664">
        <ele>1711</ele>
        <time>2019-02-27T12:40:23Z</time>
      </trkpt>
      <trkpt lat="42.75922" lon="0.16664">
        <ele>1711</ele>
        <time>2019-02-27T12:40:24Z</time>
      </trkpt>
      <trkpt lat="42.75922" lon="0.16664">
        <ele>1711</ele>
        <time>2019-02-27T12:40:25Z</time>
      </trkpt>
      <trkpt lat="42.75922" lon="0.16664">
        <ele>1711</ele>
        <time>2019-02-27T12:40:26Z</time>
      </trkpt>
      <trkpt lat="42.75922" lon="0.16664">
        <ele>1711</ele>
        <time>2019-02-27T12:40:27Z</time>
      </trkpt>
      <trkpt lat="42.75922" lon="0.16664">
        <ele>1711</ele>
        <time>2019-02-27T12:40:28Z</time>
      </trkpt>
      <trkpt lat="42.75922" lon="0.16664">
        <ele>1711</ele>
        <time>2019-02-27T12:40:29Z</time>
      </trkpt>
      <trkpt lat="42.75922" lon="0.16664">
        <ele>1711</ele>
        <time>2019-02-27T12:40:30Z</time>
      </trkpt>
      <trkpt lat="42.75922" lon="0.16664">
        <ele>1711</ele>
        <time>2019-02-27T12:40:31Z</time>
      </trkpt>
      <trkpt lat="42.75922" lon="0.16664">
        <ele>1711</ele>
        <time>2019-02-27T12:40:32Z</time>
      </trkpt>
      <trkpt lat="42.75922" lon="0.16664">
        <ele>1711</ele>
        <time>2019-02-27T12:40:33Z</time>
      </trkpt>
      <trkpt lat="42.75922" lon="0.16664">
        <ele>1711</ele>
        <time>2019-02-27T12:40:34Z</time>
      </trkpt>
      <trkpt lat="42.75922" lon="0.16664">
        <ele>1711</ele>
        <time>2019-02-27T12:40:35Z</time>
      </trkpt>
      <trkpt lat="42.75922" lon="0.16664">
        <ele>1711</ele>
        <time>2019-02-27T12:40:36Z</time>
      </trkpt>
      <trkpt lat="42.75922" lon="0.16664">
        <ele>1711</ele>
        <time>2019-02-27T12:40:37Z</time>
      </trkpt>
      <trkpt lat="42.75923" lon="0.16662">
        <ele>1711</ele>
        <time>2019-02-27T12:40:38Z</time>
      </trkpt>
      <trkpt lat="42.75923" lon="0.16662">
        <ele>1711</ele>
        <time>2019-02-27T12:40:39Z</time>
      </trkpt>
      <trkpt lat="42.75923" lon="0.16662">
        <ele>1711</ele>
        <time>2019-02-27T12:40:40Z</time>
      </trkpt>
      <trkpt lat="42.75923" lon="0.16662">
        <ele>1711</ele>
        <time>2019-02-27T12:40:41Z</time>
      </trkpt>
      <trkpt lat="42.75923" lon="0.16662">
        <ele>1711</ele>
        <time>2019-02-27T12:40:42Z</time>
      </trkpt>
      <trkpt lat="42.75923" lon="0.16662">
        <ele>1711</ele>
        <time>2019-02-27T12:40:43Z</time>
      </trkpt>
      <trkpt lat="42.75923" lon="0.16662">
        <ele>1711</ele>
        <time>2019-02-27T12:40:44Z</time>
      </trkpt>
      <trkpt lat="42.75923" lon="0.16662">
        <ele>1711</ele>
        <time>2019-02-27T12:40:45Z</time>
      </trkpt>
      <trkpt lat="42.75923" lon="0.16662">
        <ele>1711</ele>
        <time>2019-02-27T12:40:46Z</time>
      </trkpt>
      <trkpt lat="42.75923" lon="0.16662">
        <ele>1711</ele>
        <time>2019-02-27T12:40:47Z</time>
      </trkpt>
      <trkpt lat="42.75923" lon="0.16662">
        <ele>1711</ele>
        <time>2019-02-27T12:40:48Z</time>
      </trkpt>
      <trkpt lat="42.75925" lon="0.16664">
        <ele>1711</ele>
        <time>2019-02-27T12:40:49Z</time>
      </trkpt>
      <trkpt lat="42.75925" lon="0.16664">
        <ele>1711</ele>
        <time>2019-02-27T12:40:50Z</time>
      </trkpt>
      <trkpt lat="42.75925" lon="0.16664">
        <ele>1711</ele>
        <time>2019-02-27T12:40:51Z</time>
      </trkpt>
      <trkpt lat="42.75925" lon="0.16664">
        <ele>1711</ele>
        <time>2019-02-27T12:40:52Z</time>
      </trkpt>
      <trkpt lat="42.75925" lon="0.16664">
        <ele>1711</ele>
        <time>2019-02-27T12:40:53Z</time>
      </trkpt>
      <trkpt lat="42.75925" lon="0.16664">
        <ele>1711</ele>
        <time>2019-02-27T12:40:54Z</time>
      </trkpt>
      <trkpt lat="42.75925" lon="0.16664">
        <ele>1711</ele>
        <time>2019-02-27T12:40:55Z</time>
      </trkpt>
      <trkpt lat="42.75925" lon="0.16664">
        <ele>1711</ele>
        <time>2019-02-27T12:40:56Z</time>
      </trkpt>
      <trkpt lat="42.75925" lon="0.16664">
        <ele>1711</ele>
        <time>2019-02-27T12:40:57Z</time>
      </trkpt>
      <trkpt lat="42.75925" lon="0.16664">
        <ele>1711</ele>
        <time>2019-02-27T12:40:58Z</time>
      </trkpt>
      <trkpt lat="42.75925" lon="0.16664">
        <ele>1711</ele>
        <time>2019-02-27T12:40:59Z</time>
      </trkpt>
      <trkpt lat="42.75925" lon="0.16664">
        <ele>1711</ele>
        <time>2019-02-27T12:41:00Z</time>
      </trkpt>
      <trkpt lat="42.75925" lon="0.16664">
        <ele>1711</ele>
        <time>2019-02-27T12:41:01Z</time>
      </trkpt>
      <trkpt lat="42.75925" lon="0.16664">
        <ele>1711</ele>
        <time>2019-02-27T12:41:02Z</time>
      </trkpt>
      <trkpt lat="42.75925" lon="0.16664">
        <ele>1711</ele>
        <time>2019-02-27T12:41:03Z</time>
      </trkpt>
      <trkpt lat="42.75925" lon="0.16664">
        <ele>1711</ele>
        <time>2019-02-27T12:41:04Z</time>
      </trkpt>
      <trkpt lat="42.75925" lon="0.16664">
        <ele>1711</ele>
        <time>2019-02-27T12:41:05Z</time>
      </trkpt>
      <trkpt lat="42.75925" lon="0.16664">
        <ele>1711</ele>
        <time>2019-02-27T12:41:06Z</time>
      </trkpt>
      <trkpt lat="42.75925" lon="0.16664">
        <ele>1711</ele>
        <time>2019-02-27T12:41:07Z</time>
      </trkpt>
      <trkpt lat="42.75925" lon="0.16664">
        <ele>1711</ele>
        <time>2019-02-27T12:41:08Z</time>
      </trkpt>
      <trkpt lat="42.75925" lon="0.16664">
        <ele>1711</ele>
        <time>2019-02-27T12:41:09Z</time>
      </trkpt>
      <trkpt lat="42.75925" lon="0.16664">
        <ele>1711</ele>
        <time>2019-02-27T12:41:10Z</time>
      </trkpt>
      <trkpt lat="42.75925" lon="0.16664">
        <ele>1711</ele>
        <time>2019-02-27T12:41:11Z</time>
      </trkpt>
      <trkpt lat="42.75925" lon="0.16664">
        <ele>1711</ele>
        <time>2019-02-27T12:41:12Z</time>
      </trkpt>
      <trkpt lat="42.75925" lon="0.16664">
        <ele>1711</ele>
        <time>2019-02-27T12:41:13Z</time>
      </trkpt>
      <trkpt lat="42.75925" lon="0.16664">
        <ele>1711</ele>
        <time>2019-02-27T12:41:14Z</time>
      </trkpt>
      <trkpt lat="42.75925" lon="0.16664">
        <ele>1711</ele>
        <time>2019-02-27T12:41:15Z</time>
      </trkpt>
      <trkpt lat="42.75925" lon="0.16664">
        <ele>1711</ele>
        <time>2019-02-27T12:41:16Z</time>
      </trkpt>
      <trkpt lat="42.75925" lon="0.16664">
        <ele>1711</ele>
        <time>2019-02-27T12:41:17Z</time>
      </trkpt>
      <trkpt lat="42.75925" lon="0.16664">
        <ele>1711</ele>
        <time>2019-02-27T12:41:18Z</time>
      </trkpt>
      <trkpt lat="42.75925" lon="0.16664">
        <ele>1711</ele>
        <time>2019-02-27T12:41:19Z</time>
      </trkpt>
      <trkpt lat="42.75925" lon="0.16664">
        <ele>1711</ele>
        <time>2019-02-27T12:41:20Z</time>
      </trkpt>
      <trkpt lat="42.75925" lon="0.16664">
        <ele>1711</ele>
        <time>2019-02-27T12:41:21Z</time>
      </trkpt>
      <trkpt lat="42.75925" lon="0.16664">
        <ele>1711</ele>
        <time>2019-02-27T12:41:22Z</time>
      </trkpt>
      <trkpt lat="42.75925" lon="0.16664">
        <ele>1711</ele>
        <time>2019-02-27T12:41:23Z</time>
      </trkpt>
      <trkpt lat="42.75925" lon="0.16664">
        <ele>1711</ele>
        <time>2019-02-27T12:41:24Z</time>
      </trkpt>
      <trkpt lat="42.75925" lon="0.16664">
        <ele>1711</ele>
        <time>2019-02-27T12:41:25Z</time>
      </trkpt>
      <trkpt lat="42.75925" lon="0.16664">
        <ele>1711</ele>
        <time>2019-02-27T12:41:26Z</time>
      </trkpt>
      <trkpt lat="42.75925" lon="0.16664">
        <ele>1711</ele>
        <time>2019-02-27T12:41:27Z</time>
      </trkpt>
      <trkpt lat="42.75925" lon="0.16664">
        <ele>1711</ele>
        <time>2019-02-27T12:41:28Z</time>
      </trkpt>
      <trkpt lat="42.75925" lon="0.16668">
        <ele>1711</ele>
        <time>2019-02-27T12:41:29Z</time>
      </trkpt>
      <trkpt lat="42.75925" lon="0.16668">
        <ele>1711</ele>
        <time>2019-02-27T12:41:30Z</time>
      </trkpt>
      <trkpt lat="42.75925" lon="0.16668">
        <ele>1711</ele>
        <time>2019-02-27T12:41:31Z</time>
      </trkpt>
      <trkpt lat="42.75925" lon="0.16668">
        <ele>1711</ele>
        <time>2019-02-27T12:41:32Z</time>
      </trkpt>
      <trkpt lat="42.75925" lon="0.16668">
        <ele>1711</ele>
        <time>2019-02-27T12:41:33Z</time>
      </trkpt>
      <trkpt lat="42.75925" lon="0.16668">
        <ele>1711</ele>
        <time>2019-02-27T12:41:34Z</time>
      </trkpt>
      <trkpt lat="42.75925" lon="0.16668">
        <ele>1711</ele>
        <time>2019-02-27T12:41:35Z</time>
      </trkpt>
      <trkpt lat="42.75925" lon="0.16668">
        <ele>1711</ele>
        <time>2019-02-27T12:41:36Z</time>
      </trkpt>
      <trkpt lat="42.75925" lon="0.16668">
        <ele>1711</ele>
        <time>2019-02-27T12:41:37Z</time>
      </trkpt>
      <trkpt lat="42.75925" lon="0.16668">
        <ele>1711</ele>
        <time>2019-02-27T12:41:38Z</time>
      </trkpt>
      <trkpt lat="42.75925" lon="0.16668">
        <ele>1711</ele>
        <time>2019-02-27T12:41:39Z</time>
      </trkpt>
      <trkpt lat="42.75925" lon="0.16668">
        <ele>1711</ele>
        <time>2019-02-27T12:41:40Z</time>
      </trkpt>
      <trkpt lat="42.75925" lon="0.16668">
        <ele>1711</ele>
        <time>2019-02-27T12:41:41Z</time>
      </trkpt>
      <trkpt lat="42.75925" lon="0.16668">
        <ele>1711</ele>
        <time>2019-02-27T12:41:42Z</time>
      </trkpt>
      <trkpt lat="42.75925" lon="0.16668">
        <ele>1711</ele>
        <time>2019-02-27T12:41:43Z</time>
      </trkpt>
      <trkpt lat="42.75925" lon="0.16668">
        <ele>1711</ele>
        <time>2019-02-27T12:41:44Z</time>
      </trkpt>
      <trkpt lat="42.75925" lon="0.16668">
        <ele>1711</ele>
        <time>2019-02-27T12:41:45Z</time>
      </trkpt>
      <trkpt lat="42.75925" lon="0.16668">
        <ele>1711</ele>
        <time>2019-02-27T12:41:46Z</time>
      </trkpt>
      <trkpt lat="42.75925" lon="0.16668">
        <ele>1711</ele>
        <time>2019-02-27T12:41:47Z</time>
      </trkpt>
      <trkpt lat="42.75925" lon="0.16668">
        <ele>1711</ele>
        <time>2019-02-27T12:41:48Z</time>
      </trkpt>
      <trkpt lat="42.75925" lon="0.16668">
        <ele>1711</ele>
        <time>2019-02-27T12:41:49Z</time>
      </trkpt>
      <trkpt lat="42.75925" lon="0.16668">
        <ele>1711</ele>
        <time>2019-02-27T12:41:50Z</time>
      </trkpt>
      <trkpt lat="42.75925" lon="0.16668">
        <ele>1711</ele>
        <time>2019-02-27T12:41:51Z</time>
      </trkpt>
      <trkpt lat="42.75925" lon="0.16668">
        <ele>1711</ele>
        <time>2019-02-27T12:41:52Z</time>
      </trkpt>
      <trkpt lat="42.75925" lon="0.16668">
        <ele>1711</ele>
        <time>2019-02-27T12:41:53Z</time>
      </trkpt>
      <trkpt lat="42.75925" lon="0.16668">
        <ele>1711</ele>
        <time>2019-02-27T12:41:54Z</time>
      </trkpt>
      <trkpt lat="42.75925" lon="0.16668">
        <ele>1711</ele>
        <time>2019-02-27T12:41:55Z</time>
      </trkpt>
      <trkpt lat="42.75925" lon="0.16668">
        <ele>1711</ele>
        <time>2019-02-27T12:41:56Z</time>
      </trkpt>
      <trkpt lat="42.75925" lon="0.16668">
        <ele>1711</ele>
        <time>2019-02-27T12:41:57Z</time>
      </trkpt>
      <trkpt lat="42.75925" lon="0.16668">
        <ele>1711</ele>
        <time>2019-02-27T12:41:58Z</time>
      </trkpt>
      <trkpt lat="42.75925" lon="0.16668">
        <ele>1711</ele>
        <time>2019-02-27T12:41:59Z</time>
      </trkpt>
      <trkpt lat="42.75925" lon="0.16668">
        <ele>1711</ele>
        <time>2019-02-27T12:42:00Z</time>
      </trkpt>
      <trkpt lat="42.75925" lon="0.16668">
        <ele>1711</ele>
        <time>2019-02-27T12:42:01Z</time>
      </trkpt>
      <trkpt lat="42.75925" lon="0.16668">
        <ele>1711</ele>
        <time>2019-02-27T12:42:02Z</time>
      </trkpt>
      <trkpt lat="42.75925" lon="0.16668">
        <ele>1711</ele>
        <time>2019-02-27T12:42:03Z</time>
      </trkpt>
      <trkpt lat="42.75925" lon="0.16668">
        <ele>1711</ele>
        <time>2019-02-27T12:42:04Z</time>
      </trkpt>
      <trkpt lat="42.75925" lon="0.16668">
        <ele>1711</ele>
        <time>2019-02-27T12:42:05Z</time>
      </trkpt>
      <trkpt lat="42.75925" lon="0.16668">
        <ele>1711</ele>
        <time>2019-02-27T12:42:06Z</time>
      </trkpt>
      <trkpt lat="42.75925" lon="0.16668">
        <ele>1711</ele>
        <time>2019-02-27T12:42:07Z</time>
      </trkpt>
      <trkpt lat="42.75925" lon="0.16668">
        <ele>1711</ele>
        <time>2019-02-27T12:42:08Z</time>
      </trkpt>
      <trkpt lat="42.75925" lon="0.16668">
        <ele>1711</ele>
        <time>2019-02-27T12:42:09Z</time>
      </trkpt>
      <trkpt lat="42.75925" lon="0.16668">
        <ele>1711</ele>
        <time>2019-02-27T12:42:10Z</time>
      </trkpt>
      <trkpt lat="42.75925" lon="0.16668">
        <ele>1711</ele>
        <time>2019-02-27T12:42:11Z</time>
      </trkpt>
      <trkpt lat="42.75925" lon="0.16668">
        <ele>1711</ele>
        <time>2019-02-27T12:42:12Z</time>
      </trkpt>
      <trkpt lat="42.75925" lon="0.16668">
        <ele>1711</ele>
        <time>2019-02-27T12:42:13Z</time>
      </trkpt>
      <trkpt lat="42.75925" lon="0.16668">
        <ele>1711</ele>
        <time>2019-02-27T12:42:14Z</time>
      </trkpt>
      <trkpt lat="42.75925" lon="0.16668">
        <ele>1711</ele>
        <time>2019-02-27T12:42:15Z</time>
      </trkpt>
      <trkpt lat="42.75925" lon="0.16668">
        <ele>1711</ele>
        <time>2019-02-27T12:42:16Z</time>
      </trkpt>
      <trkpt lat="42.75925" lon="0.16668">
        <ele>1711</ele>
        <time>2019-02-27T12:42:17Z</time>
      </trkpt>
      <trkpt lat="42.75925" lon="0.16668">
        <ele>1711</ele>
        <time>2019-02-27T12:42:18Z</time>
      </trkpt>
      <trkpt lat="42.75925" lon="0.16668">
        <ele>1711</ele>
        <time>2019-02-27T12:42:19Z</time>
      </trkpt>
      <trkpt lat="42.75925" lon="0.16668">
        <ele>1711</ele>
        <time>2019-02-27T12:42:20Z</time>
      </trkpt>
      <trkpt lat="42.75925" lon="0.16668">
        <ele>1711</ele>
        <time>2019-02-27T12:42:21Z</time>
      </trkpt>
      <trkpt lat="42.75925" lon="0.16668">
        <ele>1711</ele>
        <time>2019-02-27T12:42:22Z</time>
      </trkpt>
      <trkpt lat="42.75925" lon="0.16668">
        <ele>1711</ele>
        <time>2019-02-27T12:42:23Z</time>
      </trkpt>
      <trkpt lat="42.75925" lon="0.16668">
        <ele>1711</ele>
        <time>2019-02-27T12:42:24Z</time>
      </trkpt>
      <trkpt lat="42.75925" lon="0.16668">
        <ele>1711</ele>
        <time>2019-02-27T12:42:25Z</time>
      </trkpt>
      <trkpt lat="42.75925" lon="0.16668">
        <ele>1711</ele>
        <time>2019-02-27T12:42:26Z</time>
      </trkpt>
      <trkpt lat="42.75925" lon="0.16668">
        <ele>1711</ele>
        <time>2019-02-27T12:42:27Z</time>
      </trkpt>
      <trkpt lat="42.75925" lon="0.16668">
        <ele>1711</ele>
        <time>2019-02-27T12:42:28Z</time>
      </trkpt>
      <trkpt lat="42.75925" lon="0.16668">
        <ele>1711</ele>
        <time>2019-02-27T12:42:29Z</time>
      </trkpt>
      <trkpt lat="42.75925" lon="0.16668">
        <ele>1711</ele>
        <time>2019-02-27T12:42:30Z</time>
      </trkpt>
      <trkpt lat="42.75925" lon="0.16668">
        <ele>1711</ele>
        <time>2019-02-27T12:42:31Z</time>
      </trkpt>
      <trkpt lat="42.75925" lon="0.16668">
        <ele>1711</ele>
        <time>2019-02-27T12:42:32Z</time>
      </trkpt>
      <trkpt lat="42.75925" lon="0.16668">
        <ele>1711</ele>
        <time>2019-02-27T12:42:33Z</time>
      </trkpt>
      <trkpt lat="42.75925" lon="0.16668">
        <ele>1711</ele>
        <time>2019-02-27T12:42:34Z</time>
      </trkpt>
      <trkpt lat="42.75925" lon="0.16668">
        <ele>1711</ele>
        <time>2019-02-27T12:42:35Z</time>
      </trkpt>
      <trkpt lat="42.75925" lon="0.16668">
        <ele>1711</ele>
        <time>2019-02-27T12:42:36Z</time>
      </trkpt>
      <trkpt lat="42.75925" lon="0.16668">
        <ele>1711</ele>
        <time>2019-02-27T12:42:37Z</time>
      </trkpt>
      <trkpt lat="42.75925" lon="0.16668">
        <ele>1711</ele>
        <time>2019-02-27T12:42:38Z</time>
      </trkpt>
      <trkpt lat="42.75925" lon="0.16668">
        <ele>1711</ele>
        <time>2019-02-27T12:42:39Z</time>
      </trkpt>
      <trkpt lat="42.75925" lon="0.16668">
        <ele>1711</ele>
        <time>2019-02-27T12:42:40Z</time>
      </trkpt>
      <trkpt lat="42.75925" lon="0.16668">
        <ele>1711</ele>
        <time>2019-02-27T12:42:41Z</time>
      </trkpt>
      <trkpt lat="42.75925" lon="0.16668">
        <ele>1711</ele>
        <time>2019-02-27T12:42:42Z</time>
      </trkpt>
      <trkpt lat="42.75925" lon="0.16668">
        <ele>1711</ele>
        <time>2019-02-27T12:42:43Z</time>
      </trkpt>
      <trkpt lat="42.75925" lon="0.16668">
        <ele>1711</ele>
        <time>2019-02-27T12:42:44Z</time>
      </trkpt>
      <trkpt lat="42.75925" lon="0.16668">
        <ele>1711</ele>
        <time>2019-02-27T12:42:45Z</time>
      </trkpt>
      <trkpt lat="42.75925" lon="0.16668">
        <ele>1711</ele>
        <time>2019-02-27T12:42:46Z</time>
      </trkpt>
      <trkpt lat="42.75925" lon="0.16668">
        <ele>1711</ele>
        <time>2019-02-27T12:42:47Z</time>
      </trkpt>
      <trkpt lat="42.75925" lon="0.16668">
        <ele>1711</ele>
        <time>2019-02-27T12:42:48Z</time>
      </trkpt>
      <trkpt lat="42.75925" lon="0.16668">
        <ele>1711</ele>
        <time>2019-02-27T12:42:49Z</time>
      </trkpt>
      <trkpt lat="42.75925" lon="0.16668">
        <ele>1711</ele>
        <time>2019-02-27T12:42:50Z</time>
      </trkpt>
      <trkpt lat="42.75925" lon="0.16668">
        <ele>1711</ele>
        <time>2019-02-27T12:42:51Z</time>
      </trkpt>
      <trkpt lat="42.75924" lon="0.16665">
        <ele>1711</ele>
        <time>2019-02-27T12:42:52Z</time>
      </trkpt>
      <trkpt lat="42.75924" lon="0.16665">
        <ele>1711</ele>
        <time>2019-02-27T12:42:53Z</time>
      </trkpt>
      <trkpt lat="42.75924" lon="0.16665">
        <ele>1711</ele>
        <time>2019-02-27T12:42:54Z</time>
      </trkpt>
      <trkpt lat="42.75924" lon="0.16665">
        <ele>1711</ele>
        <time>2019-02-27T12:42:55Z</time>
      </trkpt>
      <trkpt lat="42.75924" lon="0.16665">
        <ele>1711</ele>
        <time>2019-02-27T12:42:56Z</time>
      </trkpt>
      <trkpt lat="42.75924" lon="0.16665">
        <ele>1711</ele>
        <time>2019-02-27T12:42:57Z</time>
      </trkpt>
      <trkpt lat="42.75924" lon="0.16665">
        <ele>1711</ele>
        <time>2019-02-27T12:42:58Z</time>
      </trkpt>
      <trkpt lat="42.75924" lon="0.16665">
        <ele>1711</ele>
        <time>2019-02-27T12:42:59Z</time>
      </trkpt>
      <trkpt lat="42.75924" lon="0.16665">
        <ele>1711</ele>
        <time>2019-02-27T12:43:00Z</time>
      </trkpt>
      <trkpt lat="42.75924" lon="0.16665">
        <ele>1711</ele>
        <time>2019-02-27T12:43:01Z</time>
      </trkpt>
      <trkpt lat="42.75924" lon="0.16665">
        <ele>1711</ele>
        <time>2019-02-27T12:43:02Z</time>
      </trkpt>
      <trkpt lat="42.75924" lon="0.16665">
        <ele>1711</ele>
        <time>2019-02-27T12:43:03Z</time>
      </trkpt>
      <trkpt lat="42.75924" lon="0.16665">
        <ele>1711</ele>
        <time>2019-02-27T12:43:04Z</time>
      </trkpt>
      <trkpt lat="42.75924" lon="0.16665">
        <ele>1711</ele>
        <time>2019-02-27T12:43:05Z</time>
      </trkpt>
      <trkpt lat="42.75924" lon="0.16665">
        <ele>1711</ele>
        <time>2019-02-27T12:43:06Z</time>
      </trkpt>
      <trkpt lat="42.75924" lon="0.16665">
        <ele>1711</ele>
        <time>2019-02-27T12:43:07Z</time>
      </trkpt>
      <trkpt lat="42.75924" lon="0.16665">
        <ele>1711</ele>
        <time>2019-02-27T12:43:08Z</time>
      </trkpt>
      <trkpt lat="42.75924" lon="0.16665">
        <ele>1711</ele>
        <time>2019-02-27T12:43:09Z</time>
      </trkpt>
      <trkpt lat="42.75924" lon="0.16665">
        <ele>1711</ele>
        <time>2019-02-27T12:43:10Z</time>
      </trkpt>
      <trkpt lat="42.75924" lon="0.16665">
        <ele>1711</ele>
        <time>2019-02-27T12:43:11Z</time>
      </trkpt>
      <trkpt lat="42.75924" lon="0.16665">
        <ele>1711</ele>
        <time>2019-02-27T12:43:12Z</time>
      </trkpt>
      <trkpt lat="42.75924" lon="0.16665">
        <ele>1711</ele>
        <time>2019-02-27T12:43:13Z</time>
      </trkpt>
      <trkpt lat="42.75924" lon="0.16665">
        <ele>1711</ele>
        <time>2019-02-27T12:43:14Z</time>
      </trkpt>
      <trkpt lat="42.75924" lon="0.16665">
        <ele>1711</ele>
        <time>2019-02-27T12:43:15Z</time>
      </trkpt>
      <trkpt lat="42.75924" lon="0.16665">
        <ele>1711</ele>
        <time>2019-02-27T12:43:16Z</time>
      </trkpt>
      <trkpt lat="42.75924" lon="0.16665">
        <ele>1711</ele>
        <time>2019-02-27T12:43:17Z</time>
      </trkpt>
      <trkpt lat="42.75924" lon="0.16665">
        <ele>1711</ele>
        <time>2019-02-27T12:43:18Z</time>
      </trkpt>
      <trkpt lat="42.75924" lon="0.16665">
        <ele>1711</ele>
        <time>2019-02-27T12:43:19Z</time>
      </trkpt>
      <trkpt lat="42.75924" lon="0.16665">
        <ele>1711</ele>
        <time>2019-02-27T12:43:20Z</time>
      </trkpt>
      <trkpt lat="42.75924" lon="0.16665">
        <ele>1711</ele>
        <time>2019-02-27T12:43:21Z</time>
      </trkpt>
      <trkpt lat="42.75924" lon="0.16665">
        <ele>1711</ele>
        <time>2019-02-27T12:43:22Z</time>
      </trkpt>
      <trkpt lat="42.75924" lon="0.16665">
        <ele>1711</ele>
        <time>2019-02-27T12:43:23Z</time>
      </trkpt>
      <trkpt lat="42.75924" lon="0.16665">
        <ele>1711</ele>
        <time>2019-02-27T12:43:24Z</time>
      </trkpt>
      <trkpt lat="42.75924" lon="0.16665">
        <ele>1711</ele>
        <time>2019-02-27T12:43:25Z</time>
      </trkpt>
      <trkpt lat="42.75924" lon="0.16665">
        <ele>1711</ele>
        <time>2019-02-27T12:43:26Z</time>
      </trkpt>
      <trkpt lat="42.75924" lon="0.16665">
        <ele>1711</ele>
        <time>2019-02-27T12:43:27Z</time>
      </trkpt>
      <trkpt lat="42.75924" lon="0.16665">
        <ele>1711</ele>
        <time>2019-02-27T12:43:28Z</time>
      </trkpt>
      <trkpt lat="42.75924" lon="0.16665">
        <ele>1711</ele>
        <time>2019-02-27T12:43:29Z</time>
      </trkpt>
      <trkpt lat="42.75924" lon="0.16665">
        <ele>1711</ele>
        <time>2019-02-27T12:43:30Z</time>
      </trkpt>
      <trkpt lat="42.75924" lon="0.16665">
        <ele>1711</ele>
        <time>2019-02-27T12:43:31Z</time>
      </trkpt>
      <trkpt lat="42.75924" lon="0.16665">
        <ele>1711</ele>
        <time>2019-02-27T12:43:32Z</time>
      </trkpt>
      <trkpt lat="42.75924" lon="0.16665">
        <ele>1711</ele>
        <time>2019-02-27T12:43:33Z</time>
      </trkpt>
      <trkpt lat="42.75924" lon="0.16665">
        <ele>1711</ele>
        <time>2019-02-27T12:43:34Z</time>
      </trkpt>
      <trkpt lat="42.75924" lon="0.16665">
        <ele>1711</ele>
        <time>2019-02-27T12:43:35Z</time>
      </trkpt>
      <trkpt lat="42.75924" lon="0.16665">
        <ele>1711</ele>
        <time>2019-02-27T12:43:36Z</time>
      </trkpt>
      <trkpt lat="42.75924" lon="0.16665">
        <ele>1711</ele>
        <time>2019-02-27T12:43:37Z</time>
      </trkpt>
      <trkpt lat="42.75924" lon="0.16665">
        <ele>1711</ele>
        <time>2019-02-27T12:43:38Z</time>
      </trkpt>
      <trkpt lat="42.75924" lon="0.16665">
        <ele>1711</ele>
        <time>2019-02-27T12:43:39Z</time>
      </trkpt>
      <trkpt lat="42.75924" lon="0.16665">
        <ele>1711</ele>
        <time>2019-02-27T12:43:40Z</time>
      </trkpt>
      <trkpt lat="42.75924" lon="0.16665">
        <ele>1711</ele>
        <time>2019-02-27T12:43:41Z</time>
      </trkpt>
      <trkpt lat="42.75924" lon="0.16665">
        <ele>1711</ele>
        <time>2019-02-27T12:43:42Z</time>
      </trkpt>
      <trkpt lat="42.75924" lon="0.16665">
        <ele>1711</ele>
        <time>2019-02-27T12:43:43Z</time>
      </trkpt>
      <trkpt lat="42.75924" lon="0.16665">
        <ele>1711</ele>
        <time>2019-02-27T12:43:44Z</time>
      </trkpt>
      <trkpt lat="42.75924" lon="0.16665">
        <ele>1711</ele>
        <time>2019-02-27T12:43:45Z</time>
      </trkpt>
      <trkpt lat="42.75924" lon="0.16665">
        <ele>1711</ele>
        <time>2019-02-27T12:43:46Z</time>
      </trkpt>
      <trkpt lat="42.75924" lon="0.16665">
        <ele>1711</ele>
        <time>2019-02-27T12:43:47Z</time>
      </trkpt>
      <trkpt lat="42.75924" lon="0.16665">
        <ele>1711</ele>
        <time>2019-02-27T12:43:48Z</time>
      </trkpt>
      <trkpt lat="42.75924" lon="0.16665">
        <ele>1711</ele>
        <time>2019-02-27T12:43:49Z</time>
      </trkpt>
      <trkpt lat="42.75924" lon="0.16665">
        <ele>1711</ele>
        <time>2019-02-27T12:43:50Z</time>
      </trkpt>
      <trkpt lat="42.75924" lon="0.16665">
        <ele>1711</ele>
        <time>2019-02-27T12:43:51Z</time>
      </trkpt>
      <trkpt lat="42.75924" lon="0.16665">
        <ele>1711</ele>
        <time>2019-02-27T12:43:52Z</time>
      </trkpt>
      <trkpt lat="42.75924" lon="0.16665">
        <ele>1711</ele>
        <time>2019-02-27T12:43:53Z</time>
      </trkpt>
      <trkpt lat="42.75924" lon="0.16665">
        <ele>1711</ele>
        <time>2019-02-27T12:43:54Z</time>
      </trkpt>
      <trkpt lat="42.75924" lon="0.16665">
        <ele>1711</ele>
        <time>2019-02-27T12:43:55Z</time>
      </trkpt>
      <trkpt lat="42.75924" lon="0.16665">
        <ele>1711</ele>
        <time>2019-02-27T12:43:56Z</time>
      </trkpt>
      <trkpt lat="42.75924" lon="0.16665">
        <ele>1711</ele>
        <time>2019-02-27T12:43:57Z</time>
      </trkpt>
      <trkpt lat="42.75924" lon="0.16665">
        <ele>1711</ele>
        <time>2019-02-27T12:43:58Z</time>
      </trkpt>
      <trkpt lat="42.75924" lon="0.16665">
        <ele>1711</ele>
        <time>2019-02-27T12:43:59Z</time>
      </trkpt>
      <trkpt lat="42.75924" lon="0.16665">
        <ele>1711</ele>
        <time>2019-02-27T12:44:00Z</time>
      </trkpt>
      <trkpt lat="42.75924" lon="0.16665">
        <ele>1711</ele>
        <time>2019-02-27T12:44:01Z</time>
      </trkpt>
      <trkpt lat="42.75924" lon="0.16665">
        <ele>1711</ele>
        <time>2019-02-27T12:44:02Z</time>
      </trkpt>
      <trkpt lat="42.75924" lon="0.16665">
        <ele>1711</ele>
        <time>2019-02-27T12:44:03Z</time>
      </trkpt>
      <trkpt lat="42.75924" lon="0.16665">
        <ele>1711</ele>
        <time>2019-02-27T12:44:04Z</time>
      </trkpt>
      <trkpt lat="42.75924" lon="0.16665">
        <ele>1711</ele>
        <time>2019-02-27T12:44:05Z</time>
      </trkpt>
      <trkpt lat="42.75924" lon="0.16665">
        <ele>1711</ele>
        <time>2019-02-27T12:44:06Z</time>
      </trkpt>
      <trkpt lat="42.75924" lon="0.16665">
        <ele>1711</ele>
        <time>2019-02-27T12:44:07Z</time>
      </trkpt>
      <trkpt lat="42.75924" lon="0.16665">
        <ele>1711</ele>
        <time>2019-02-27T12:44:08Z</time>
      </trkpt>
      <trkpt lat="42.75924" lon="0.16665">
        <ele>1711</ele>
        <time>2019-02-27T12:44:09Z</time>
      </trkpt>
      <trkpt lat="42.75924" lon="0.16665">
        <ele>1711</ele>
        <time>2019-02-27T12:44:10Z</time>
      </trkpt>
      <trkpt lat="42.75924" lon="0.16665">
        <ele>1711</ele>
        <time>2019-02-27T12:44:11Z</time>
      </trkpt>
      <trkpt lat="42.75924" lon="0.16665">
        <ele>1711</ele>
        <time>2019-02-27T12:44:12Z</time>
      </trkpt>
      <trkpt lat="42.75924" lon="0.16665">
        <ele>1711</ele>
        <time>2019-02-27T12:44:13Z</time>
      </trkpt>
      <trkpt lat="42.75924" lon="0.16665">
        <ele>1711</ele>
        <time>2019-02-27T12:44:14Z</time>
      </trkpt>
      <trkpt lat="42.75924" lon="0.16665">
        <ele>1711</ele>
        <time>2019-02-27T12:44:15Z</time>
      </trkpt>
      <trkpt lat="42.75924" lon="0.16665">
        <ele>1711</ele>
        <time>2019-02-27T12:44:16Z</time>
      </trkpt>
      <trkpt lat="42.75924" lon="0.16665">
        <ele>1711</ele>
        <time>2019-02-27T12:44:17Z</time>
      </trkpt>
      <trkpt lat="42.75924" lon="0.16665">
        <ele>1711</ele>
        <time>2019-02-27T12:44:18Z</time>
      </trkpt>
      <trkpt lat="42.75924" lon="0.16665">
        <ele>1711</ele>
        <time>2019-02-27T12:44:19Z</time>
      </trkpt>
      <trkpt lat="42.75924" lon="0.16665">
        <ele>1711</ele>
        <time>2019-02-27T12:44:20Z</time>
      </trkpt>
      <trkpt lat="42.75924" lon="0.16665">
        <ele>1711</ele>
        <time>2019-02-27T12:44:21Z</time>
      </trkpt>
      <trkpt lat="42.75924" lon="0.16665">
        <ele>1711</ele>
        <time>2019-02-27T12:44:22Z</time>
      </trkpt>
      <trkpt lat="42.75924" lon="0.16665">
        <ele>1711</ele>
        <time>2019-02-27T12:44:23Z</time>
      </trkpt>
      <trkpt lat="42.75924" lon="0.16665">
        <ele>1711</ele>
        <time>2019-02-27T12:44:24Z</time>
      </trkpt>
      <trkpt lat="42.75924" lon="0.16665">
        <ele>1711</ele>
        <time>2019-02-27T12:44:25Z</time>
      </trkpt>
      <trkpt lat="42.75924" lon="0.16665">
        <ele>1711</ele>
        <time>2019-02-27T12:44:26Z</time>
      </trkpt>
      <trkpt lat="42.75924" lon="0.16665">
        <ele>1711</ele>
        <time>2019-02-27T12:44:27Z</time>
      </trkpt>
      <trkpt lat="42.75924" lon="0.16665">
        <ele>1711</ele>
        <time>2019-02-27T12:44:28Z</time>
      </trkpt>
      <trkpt lat="42.75924" lon="0.16665">
        <ele>1711</ele>
        <time>2019-02-27T12:44:29Z</time>
      </trkpt>
      <trkpt lat="42.75924" lon="0.16665">
        <ele>1711</ele>
        <time>2019-02-27T12:44:30Z</time>
      </trkpt>
      <trkpt lat="42.75924" lon="0.16665">
        <ele>1711</ele>
        <time>2019-02-27T12:44:31Z</time>
      </trkpt>
      <trkpt lat="42.75924" lon="0.16665">
        <ele>1711</ele>
        <time>2019-02-27T12:44:32Z</time>
      </trkpt>
      <trkpt lat="42.75924" lon="0.16665">
        <ele>1711</ele>
        <time>2019-02-27T12:44:33Z</time>
      </trkpt>
      <trkpt lat="42.75924" lon="0.16665">
        <ele>1711</ele>
        <time>2019-02-27T12:44:34Z</time>
      </trkpt>
      <trkpt lat="42.75924" lon="0.16665">
        <ele>1711</ele>
        <time>2019-02-27T12:44:35Z</time>
      </trkpt>
      <trkpt lat="42.75924" lon="0.16665">
        <ele>1711</ele>
        <time>2019-02-27T12:44:36Z</time>
      </trkpt>
      <trkpt lat="42.75924" lon="0.16665">
        <ele>1711</ele>
        <time>2019-02-27T12:44:37Z</time>
      </trkpt>
      <trkpt lat="42.75924" lon="0.16665">
        <ele>1711</ele>
        <time>2019-02-27T12:44:38Z</time>
      </trkpt>
      <trkpt lat="42.75924" lon="0.16665">
        <ele>1711</ele>
        <time>2019-02-27T12:44:39Z</time>
      </trkpt>
      <trkpt lat="42.75924" lon="0.16665">
        <ele>1711</ele>
        <time>2019-02-27T12:44:40Z</time>
      </trkpt>
      <trkpt lat="42.75924" lon="0.16665">
        <ele>1711</ele>
        <time>2019-02-27T12:44:41Z</time>
      </trkpt>
      <trkpt lat="42.75924" lon="0.16665">
        <ele>1711</ele>
        <time>2019-02-27T12:44:42Z</time>
      </trkpt>
      <trkpt lat="42.75924" lon="0.16665">
        <ele>1711</ele>
        <time>2019-02-27T12:44:43Z</time>
      </trkpt>
      <trkpt lat="42.75924" lon="0.16665">
        <ele>1711</ele>
        <time>2019-02-27T12:44:44Z</time>
      </trkpt>
      <trkpt lat="42.75924" lon="0.16665">
        <ele>1711</ele>
        <time>2019-02-27T12:44:45Z</time>
      </trkpt>
      <trkpt lat="42.75924" lon="0.16665">
        <ele>1711</ele>
        <time>2019-02-27T12:44:46Z</time>
      </trkpt>
      <trkpt lat="42.75924" lon="0.16665">
        <ele>1711</ele>
        <time>2019-02-27T12:44:47Z</time>
      </trkpt>
      <trkpt lat="42.75924" lon="0.16665">
        <ele>1711</ele>
        <time>2019-02-27T12:44:48Z</time>
      </trkpt>
      <trkpt lat="42.75924" lon="0.16665">
        <ele>1711</ele>
        <time>2019-02-27T12:44:49Z</time>
      </trkpt>
      <trkpt lat="42.75924" lon="0.16665">
        <ele>1711</ele>
        <time>2019-02-27T12:44:50Z</time>
      </trkpt>
      <trkpt lat="42.75924" lon="0.16665">
        <ele>1711</ele>
        <time>2019-02-27T12:44:51Z</time>
      </trkpt>
      <trkpt lat="42.75924" lon="0.16665">
        <ele>1711</ele>
        <time>2019-02-27T12:44:52Z</time>
      </trkpt>
      <trkpt lat="42.75924" lon="0.16665">
        <ele>1711</ele>
        <time>2019-02-27T12:44:53Z</time>
      </trkpt>
      <trkpt lat="42.75924" lon="0.16665">
        <ele>1711</ele>
        <time>2019-02-27T12:44:54Z</time>
      </trkpt>
      <trkpt lat="42.75924" lon="0.16665">
        <ele>1711</ele>
        <time>2019-02-27T12:44:55Z</time>
      </trkpt>
      <trkpt lat="42.75924" lon="0.16665">
        <ele>1711</ele>
        <time>2019-02-27T12:44:56Z</time>
      </trkpt>
      <trkpt lat="42.75924" lon="0.16665">
        <ele>1711</ele>
        <time>2019-02-27T12:44:57Z</time>
      </trkpt>
      <trkpt lat="42.75924" lon="0.16665">
        <ele>1711</ele>
        <time>2019-02-27T12:44:58Z</time>
      </trkpt>
      <trkpt lat="42.75924" lon="0.16665">
        <ele>1711</ele>
        <time>2019-02-27T12:44:59Z</time>
      </trkpt>
      <trkpt lat="42.75924" lon="0.16665">
        <ele>1711</ele>
        <time>2019-02-27T12:45:00Z</time>
      </trkpt>
      <trkpt lat="42.75924" lon="0.16665">
        <ele>1711</ele>
        <time>2019-02-27T12:45:01Z</time>
      </trkpt>
      <trkpt lat="42.75924" lon="0.16665">
        <ele>1711</ele>
        <time>2019-02-27T12:45:02Z</time>
      </trkpt>
      <trkpt lat="42.75924" lon="0.16665">
        <ele>1711</ele>
        <time>2019-02-27T12:45:03Z</time>
      </trkpt>
      <trkpt lat="42.75924" lon="0.16665">
        <ele>1711</ele>
        <time>2019-02-27T12:45:04Z</time>
      </trkpt>
      <trkpt lat="42.75924" lon="0.16665">
        <ele>1711</ele>
        <time>2019-02-27T12:45:05Z</time>
      </trkpt>
      <trkpt lat="42.75924" lon="0.16665">
        <ele>1711</ele>
        <time>2019-02-27T12:45:06Z</time>
      </trkpt>
      <trkpt lat="42.75924" lon="0.16665">
        <ele>1711</ele>
        <time>2019-02-27T12:45:07Z</time>
      </trkpt>
      <trkpt lat="42.75923" lon="0.16662">
        <ele>1711</ele>
        <time>2019-02-27T12:45:08Z</time>
      </trkpt>
      <trkpt lat="42.75923" lon="0.16662">
        <ele>1711</ele>
        <time>2019-02-27T12:45:09Z</time>
      </trkpt>
      <trkpt lat="42.75923" lon="0.16662">
        <ele>1711</ele>
        <time>2019-02-27T12:45:10Z</time>
      </trkpt>
      <trkpt lat="42.75923" lon="0.16662">
        <ele>1711</ele>
        <time>2019-02-27T12:45:11Z</time>
      </trkpt>
      <trkpt lat="42.75923" lon="0.16662">
        <ele>1711</ele>
        <time>2019-02-27T12:45:12Z</time>
      </trkpt>
      <trkpt lat="42.75923" lon="0.16662">
        <ele>1711</ele>
        <time>2019-02-27T12:45:13Z</time>
      </trkpt>
      <trkpt lat="42.75923" lon="0.16662">
        <ele>1711</ele>
        <time>2019-02-27T12:45:14Z</time>
      </trkpt>
      <trkpt lat="42.75923" lon="0.16662">
        <ele>1711</ele>
        <time>2019-02-27T12:45:15Z</time>
      </trkpt>
      <trkpt lat="42.75923" lon="0.16662">
        <ele>1711</ele>
        <time>2019-02-27T12:45:16Z</time>
      </trkpt>
      <trkpt lat="42.75923" lon="0.16662">
        <ele>1711</ele>
        <time>2019-02-27T12:45:17Z</time>
      </trkpt>
      <trkpt lat="42.75923" lon="0.16662">
        <ele>1711</ele>
        <time>2019-02-27T12:45:18Z</time>
      </trkpt>
      <trkpt lat="42.75923" lon="0.16662">
        <ele>1711</ele>
        <time>2019-02-27T12:45:19Z</time>
      </trkpt>
      <trkpt lat="42.75923" lon="0.16662">
        <ele>1711</ele>
        <time>2019-02-27T12:45:20Z</time>
      </trkpt>
      <trkpt lat="42.75923" lon="0.16662">
        <ele>1711</ele>
        <time>2019-02-27T12:45:21Z</time>
      </trkpt>
      <trkpt lat="42.75923" lon="0.16662">
        <ele>1711</ele>
        <time>2019-02-27T12:45:22Z</time>
      </trkpt>
      <trkpt lat="42.75923" lon="0.16662">
        <ele>1711</ele>
        <time>2019-02-27T12:45:23Z</time>
      </trkpt>
      <trkpt lat="42.75923" lon="0.16662">
        <ele>1711</ele>
        <time>2019-02-27T12:45:24Z</time>
      </trkpt>
      <trkpt lat="42.75923" lon="0.16662">
        <ele>1711</ele>
        <time>2019-02-27T12:45:25Z</time>
      </trkpt>
      <trkpt lat="42.75923" lon="0.16662">
        <ele>1711</ele>
        <time>2019-02-27T12:45:26Z</time>
      </trkpt>
      <trkpt lat="42.75923" lon="0.16662">
        <ele>1711</ele>
        <time>2019-02-27T12:45:27Z</time>
      </trkpt>
      <trkpt lat="42.75923" lon="0.16662">
        <ele>1711</ele>
        <time>2019-02-27T12:45:28Z</time>
      </trkpt>
      <trkpt lat="42.75923" lon="0.16662">
        <ele>1711</ele>
        <time>2019-02-27T12:45:29Z</time>
      </trkpt>
      <trkpt lat="42.75923" lon="0.16662">
        <ele>1711</ele>
        <time>2019-02-27T12:45:30Z</time>
      </trkpt>
      <trkpt lat="42.75923" lon="0.16662">
        <ele>1711</ele>
        <time>2019-02-27T12:45:31Z</time>
      </trkpt>
      <trkpt lat="42.75923" lon="0.16662">
        <ele>1711</ele>
        <time>2019-02-27T12:45:32Z</time>
      </trkpt>
      <trkpt lat="42.75923" lon="0.16662">
        <ele>1711</ele>
        <time>2019-02-27T12:45:33Z</time>
      </trkpt>
      <trkpt lat="42.75923" lon="0.16662">
        <ele>1711</ele>
        <time>2019-02-27T12:45:34Z</time>
      </trkpt>
      <trkpt lat="42.75923" lon="0.16662">
        <ele>1711</ele>
        <time>2019-02-27T12:45:35Z</time>
      </trkpt>
      <trkpt lat="42.75923" lon="0.16662">
        <ele>1711</ele>
        <time>2019-02-27T12:45:36Z</time>
      </trkpt>
      <trkpt lat="42.75923" lon="0.16662">
        <ele>1711</ele>
        <time>2019-02-27T12:45:37Z</time>
      </trkpt>
      <trkpt lat="42.75923" lon="0.16662">
        <ele>1711</ele>
        <time>2019-02-27T12:45:38Z</time>
      </trkpt>
      <trkpt lat="42.75923" lon="0.16662">
        <ele>1711</ele>
        <time>2019-02-27T12:45:39Z</time>
      </trkpt>
      <trkpt lat="42.75923" lon="0.16662">
        <ele>1711</ele>
        <time>2019-02-27T12:45:40Z</time>
      </trkpt>
      <trkpt lat="42.75923" lon="0.16662">
        <ele>1711</ele>
        <time>2019-02-27T12:45:41Z</time>
      </trkpt>
      <trkpt lat="42.75923" lon="0.16662">
        <ele>1711</ele>
        <time>2019-02-27T12:45:42Z</time>
      </trkpt>
      <trkpt lat="42.75923" lon="0.16662">
        <ele>1711</ele>
        <time>2019-02-27T12:45:43Z</time>
      </trkpt>
      <trkpt lat="42.75923" lon="0.16662">
        <ele>1711</ele>
        <time>2019-02-27T12:45:44Z</time>
      </trkpt>
      <trkpt lat="42.75923" lon="0.16662">
        <ele>1711</ele>
        <time>2019-02-27T12:45:45Z</time>
      </trkpt>
      <trkpt lat="42.75923" lon="0.16662">
        <ele>1711</ele>
        <time>2019-02-27T12:45:46Z</time>
      </trkpt>
      <trkpt lat="42.75923" lon="0.16662">
        <ele>1711</ele>
        <time>2019-02-27T12:45:47Z</time>
      </trkpt>
      <trkpt lat="42.75923" lon="0.16662">
        <ele>1711</ele>
        <time>2019-02-27T12:45:48Z</time>
      </trkpt>
      <trkpt lat="42.75923" lon="0.16662">
        <ele>1711</ele>
        <time>2019-02-27T12:45:49Z</time>
      </trkpt>
      <trkpt lat="42.75923" lon="0.16662">
        <ele>1711</ele>
        <time>2019-02-27T12:45:50Z</time>
      </trkpt>
      <trkpt lat="42.75923" lon="0.16662">
        <ele>1711</ele>
        <time>2019-02-27T12:45:51Z</time>
      </trkpt>
      <trkpt lat="42.75923" lon="0.16662">
        <ele>1711</ele>
        <time>2019-02-27T12:45:52Z</time>
      </trkpt>
      <trkpt lat="42.75923" lon="0.16662">
        <ele>1711</ele>
        <time>2019-02-27T12:45:53Z</time>
      </trkpt>
      <trkpt lat="42.75923" lon="0.16662">
        <ele>1711</ele>
        <time>2019-02-27T12:45:54Z</time>
      </trkpt>
      <trkpt lat="42.75923" lon="0.16662">
        <ele>1711</ele>
        <time>2019-02-27T12:45:55Z</time>
      </trkpt>
      <trkpt lat="42.75923" lon="0.16662">
        <ele>1711</ele>
        <time>2019-02-27T12:45:56Z</time>
      </trkpt>
      <trkpt lat="42.75923" lon="0.16662">
        <ele>1711</ele>
        <time>2019-02-27T12:45:57Z</time>
      </trkpt>
      <trkpt lat="42.75923" lon="0.16662">
        <ele>1711</ele>
        <time>2019-02-27T12:45:58Z</time>
      </trkpt>
      <trkpt lat="42.75923" lon="0.16662">
        <ele>1711</ele>
        <time>2019-02-27T12:45:59Z</time>
      </trkpt>
      <trkpt lat="42.75923" lon="0.16662">
        <ele>1711</ele>
        <time>2019-02-27T12:46:00Z</time>
      </trkpt>
      <trkpt lat="42.75923" lon="0.16662">
        <ele>1711</ele>
        <time>2019-02-27T12:46:01Z</time>
      </trkpt>
      <trkpt lat="42.75923" lon="0.16662">
        <ele>1711</ele>
        <time>2019-02-27T12:46:02Z</time>
      </trkpt>
      <trkpt lat="42.75923" lon="0.16662">
        <ele>1711</ele>
        <time>2019-02-27T12:46:03Z</time>
      </trkpt>
      <trkpt lat="42.75923" lon="0.16662">
        <ele>1711</ele>
        <time>2019-02-27T12:46:04Z</time>
      </trkpt>
      <trkpt lat="42.75923" lon="0.16662">
        <ele>1711</ele>
        <time>2019-02-27T12:46:05Z</time>
      </trkpt>
      <trkpt lat="42.75923" lon="0.16662">
        <ele>1711</ele>
        <time>2019-02-27T12:46:06Z</time>
      </trkpt>
      <trkpt lat="42.75923" lon="0.16662">
        <ele>1711</ele>
        <time>2019-02-27T12:46:07Z</time>
      </trkpt>
      <trkpt lat="42.75923" lon="0.16662">
        <ele>1711</ele>
        <time>2019-02-27T12:46:08Z</time>
      </trkpt>
      <trkpt lat="42.75923" lon="0.16662">
        <ele>1711</ele>
        <time>2019-02-27T12:46:09Z</time>
      </trkpt>
      <trkpt lat="42.75923" lon="0.16662">
        <ele>1711</ele>
        <time>2019-02-27T12:46:10Z</time>
      </trkpt>
      <trkpt lat="42.75923" lon="0.16662">
        <ele>1711</ele>
        <time>2019-02-27T12:46:11Z</time>
      </trkpt>
      <trkpt lat="42.75923" lon="0.16662">
        <ele>1711</ele>
        <time>2019-02-27T12:46:12Z</time>
      </trkpt>
      <trkpt lat="42.75923" lon="0.16662">
        <ele>1711</ele>
        <time>2019-02-27T12:46:13Z</time>
      </trkpt>
      <trkpt lat="42.75923" lon="0.16662">
        <ele>1711</ele>
        <time>2019-02-27T12:46:14Z</time>
      </trkpt>
      <trkpt lat="42.75923" lon="0.16662">
        <ele>1711</ele>
        <time>2019-02-27T12:46:15Z</time>
      </trkpt>
      <trkpt lat="42.75923" lon="0.16662">
        <ele>1711</ele>
        <time>2019-02-27T12:46:16Z</time>
      </trkpt>
      <trkpt lat="42.75923" lon="0.16662">
        <ele>1711</ele>
        <time>2019-02-27T12:46:17Z</time>
      </trkpt>
      <trkpt lat="42.75923" lon="0.16662">
        <ele>1711</ele>
        <time>2019-02-27T12:46:18Z</time>
      </trkpt>
      <trkpt lat="42.75923" lon="0.16662">
        <ele>1711</ele>
        <time>2019-02-27T12:46:19Z</time>
      </trkpt>
      <trkpt lat="42.75923" lon="0.16662">
        <ele>1711</ele>
        <time>2019-02-27T12:46:20Z</time>
      </trkpt>
      <trkpt lat="42.75923" lon="0.16662">
        <ele>1711</ele>
        <time>2019-02-27T12:46:21Z</time>
      </trkpt>
      <trkpt lat="42.75923" lon="0.16662">
        <ele>1711</ele>
        <time>2019-02-27T12:46:22Z</time>
      </trkpt>
      <trkpt lat="42.75923" lon="0.16662">
        <ele>1711</ele>
        <time>2019-02-27T12:46:23Z</time>
      </trkpt>
      <trkpt lat="42.75923" lon="0.16662">
        <ele>1711</ele>
        <time>2019-02-27T12:46:24Z</time>
      </trkpt>
      <trkpt lat="42.75923" lon="0.16662">
        <ele>1711</ele>
        <time>2019-02-27T12:46:25Z</time>
      </trkpt>
      <trkpt lat="42.75923" lon="0.16662">
        <ele>1711</ele>
        <time>2019-02-27T12:46:26Z</time>
      </trkpt>
      <trkpt lat="42.75923" lon="0.16662">
        <ele>1711</ele>
        <time>2019-02-27T12:46:27Z</time>
      </trkpt>
      <trkpt lat="42.75923" lon="0.16662">
        <ele>1711</ele>
        <time>2019-02-27T12:46:28Z</time>
      </trkpt>
      <trkpt lat="42.75923" lon="0.16662">
        <ele>1711</ele>
        <time>2019-02-27T12:46:29Z</time>
      </trkpt>
      <trkpt lat="42.75923" lon="0.16662">
        <ele>1711</ele>
        <time>2019-02-27T12:46:30Z</time>
      </trkpt>
      <trkpt lat="42.75923" lon="0.16662">
        <ele>1711</ele>
        <time>2019-02-27T12:46:31Z</time>
      </trkpt>
      <trkpt lat="42.75923" lon="0.16662">
        <ele>1711</ele>
        <time>2019-02-27T12:46:32Z</time>
      </trkpt>
      <trkpt lat="42.75923" lon="0.16662">
        <ele>1711</ele>
        <time>2019-02-27T12:46:33Z</time>
      </trkpt>
      <trkpt lat="42.75923" lon="0.16662">
        <ele>1711</ele>
        <time>2019-02-27T12:46:34Z</time>
      </trkpt>
      <trkpt lat="42.75923" lon="0.16662">
        <ele>1711</ele>
        <time>2019-02-27T12:46:35Z</time>
      </trkpt>
      <trkpt lat="42.75923" lon="0.16662">
        <ele>1711</ele>
        <time>2019-02-27T12:46:36Z</time>
      </trkpt>
      <trkpt lat="42.75923" lon="0.16662">
        <ele>1711</ele>
        <time>2019-02-27T12:46:37Z</time>
      </trkpt>
      <trkpt lat="42.75923" lon="0.16662">
        <ele>1711</ele>
        <time>2019-02-27T12:46:38Z</time>
      </trkpt>
      <trkpt lat="42.75923" lon="0.16662">
        <ele>1711</ele>
        <time>2019-02-27T12:46:39Z</time>
      </trkpt>
      <trkpt lat="42.75923" lon="0.16662">
        <ele>1711</ele>
        <time>2019-02-27T12:46:40Z</time>
      </trkpt>
      <trkpt lat="42.75923" lon="0.16662">
        <ele>1711</ele>
        <time>2019-02-27T12:46:41Z</time>
      </trkpt>
      <trkpt lat="42.75923" lon="0.16662">
        <ele>1711</ele>
        <time>2019-02-27T12:46:42Z</time>
      </trkpt>
      <trkpt lat="42.75923" lon="0.16662">
        <ele>1711</ele>
        <time>2019-02-27T12:46:43Z</time>
      </trkpt>
      <trkpt lat="42.75923" lon="0.16662">
        <ele>1711</ele>
        <time>2019-02-27T12:46:44Z</time>
      </trkpt>
      <trkpt lat="42.75923" lon="0.16662">
        <ele>1711</ele>
        <time>2019-02-27T12:46:45Z</time>
      </trkpt>
      <trkpt lat="42.75923" lon="0.16662">
        <ele>1711</ele>
        <time>2019-02-27T12:46:46Z</time>
      </trkpt>
      <trkpt lat="42.75923" lon="0.16662">
        <ele>1711</ele>
        <time>2019-02-27T12:46:47Z</time>
      </trkpt>
      <trkpt lat="42.75923" lon="0.16662">
        <ele>1711</ele>
        <time>2019-02-27T12:46:48Z</time>
      </trkpt>
      <trkpt lat="42.75923" lon="0.16662">
        <ele>1711</ele>
        <time>2019-02-27T12:46:49Z</time>
      </trkpt>
      <trkpt lat="42.75923" lon="0.16662">
        <ele>1711</ele>
        <time>2019-02-27T12:46:50Z</time>
      </trkpt>
      <trkpt lat="42.75923" lon="0.16662">
        <ele>1711</ele>
        <time>2019-02-27T12:46:51Z</time>
      </trkpt>
      <trkpt lat="42.75923" lon="0.16662">
        <ele>1711</ele>
        <time>2019-02-27T12:46:52Z</time>
      </trkpt>
      <trkpt lat="42.75923" lon="0.16662">
        <ele>1711</ele>
        <time>2019-02-27T12:46:53Z</time>
      </trkpt>
      <trkpt lat="42.75923" lon="0.16662">
        <ele>1711</ele>
        <time>2019-02-27T12:46:54Z</time>
      </trkpt>
      <trkpt lat="42.75923" lon="0.16662">
        <ele>1711</ele>
        <time>2019-02-27T12:46:55Z</time>
      </trkpt>
      <trkpt lat="42.75923" lon="0.16662">
        <ele>1711</ele>
        <time>2019-02-27T12:46:56Z</time>
      </trkpt>
      <trkpt lat="42.75923" lon="0.16662">
        <ele>1711</ele>
        <time>2019-02-27T12:46:57Z</time>
      </trkpt>
      <trkpt lat="42.75923" lon="0.16662">
        <ele>1711</ele>
        <time>2019-02-27T12:46:58Z</time>
      </trkpt>
      <trkpt lat="42.75923" lon="0.16662">
        <ele>1711</ele>
        <time>2019-02-27T12:46:59Z</time>
      </trkpt>
      <trkpt lat="42.75923" lon="0.16662">
        <ele>1711</ele>
        <time>2019-02-27T12:47:00Z</time>
      </trkpt>
      <trkpt lat="42.75923" lon="0.16662">
        <ele>1711</ele>
        <time>2019-02-27T12:47:01Z</time>
      </trkpt>
      <trkpt lat="42.75923" lon="0.16662">
        <ele>1711</ele>
        <time>2019-02-27T12:47:02Z</time>
      </trkpt>
      <trkpt lat="42.75923" lon="0.16662">
        <ele>1711</ele>
        <time>2019-02-27T12:47:03Z</time>
      </trkpt>
      <trkpt lat="42.75923" lon="0.16662">
        <ele>1711</ele>
        <time>2019-02-27T12:47:04Z</time>
      </trkpt>
      <trkpt lat="42.75923" lon="0.16662">
        <ele>1711</ele>
        <time>2019-02-27T12:47:05Z</time>
      </trkpt>
      <trkpt lat="42.75923" lon="0.16662">
        <ele>1711</ele>
        <time>2019-02-27T12:47:06Z</time>
      </trkpt>
      <trkpt lat="42.75923" lon="0.16662">
        <ele>1711</ele>
        <time>2019-02-27T12:47:07Z</time>
      </trkpt>
      <trkpt lat="42.75923" lon="0.16662">
        <ele>1711</ele>
        <time>2019-02-27T12:47:08Z</time>
      </trkpt>
      <trkpt lat="42.75923" lon="0.16662">
        <ele>1711</ele>
        <time>2019-02-27T12:47:09Z</time>
      </trkpt>
      <trkpt lat="42.75923" lon="0.16662">
        <ele>1711</ele>
        <time>2019-02-27T12:47:10Z</time>
      </trkpt>
      <trkpt lat="42.75923" lon="0.16662">
        <ele>1711</ele>
        <time>2019-02-27T12:47:11Z</time>
      </trkpt>
      <trkpt lat="42.75923" lon="0.16662">
        <ele>1711</ele>
        <time>2019-02-27T12:47:12Z</time>
      </trkpt>
      <trkpt lat="42.75923" lon="0.16662">
        <ele>1711</ele>
        <time>2019-02-27T12:47:13Z</time>
      </trkpt>
      <trkpt lat="42.75923" lon="0.16662">
        <ele>1711</ele>
        <time>2019-02-27T12:47:14Z</time>
      </trkpt>
      <trkpt lat="42.75923" lon="0.16662">
        <ele>1711</ele>
        <time>2019-02-27T12:47:15Z</time>
      </trkpt>
      <trkpt lat="42.75923" lon="0.16662">
        <ele>1711</ele>
        <time>2019-02-27T12:47:16Z</time>
      </trkpt>
      <trkpt lat="42.75923" lon="0.16662">
        <ele>1711</ele>
        <time>2019-02-27T12:47:17Z</time>
      </trkpt>
      <trkpt lat="42.75923" lon="0.16662">
        <ele>1711</ele>
        <time>2019-02-27T12:47:18Z</time>
      </trkpt>
      <trkpt lat="42.75923" lon="0.16662">
        <ele>1711</ele>
        <time>2019-02-27T12:47:19Z</time>
      </trkpt>
      <trkpt lat="42.75923" lon="0.16662">
        <ele>1711</ele>
        <time>2019-02-27T12:47:20Z</time>
      </trkpt>
      <trkpt lat="42.75923" lon="0.16662">
        <ele>1711</ele>
        <time>2019-02-27T12:47:21Z</time>
      </trkpt>
      <trkpt lat="42.75923" lon="0.16662">
        <ele>1711</ele>
        <time>2019-02-27T12:47:22Z</time>
      </trkpt>
      <trkpt lat="42.75923" lon="0.16662">
        <ele>1711</ele>
        <time>2019-02-27T12:47:23Z</time>
      </trkpt>
      <trkpt lat="42.75923" lon="0.16662">
        <ele>1711</ele>
        <time>2019-02-27T12:47:24Z</time>
      </trkpt>
      <trkpt lat="42.75923" lon="0.16662">
        <ele>1711</ele>
        <time>2019-02-27T12:47:25Z</time>
      </trkpt>
      <trkpt lat="42.75923" lon="0.16662">
        <ele>1711</ele>
        <time>2019-02-27T12:47:26Z</time>
      </trkpt>
      <trkpt lat="42.75923" lon="0.16662">
        <ele>1711</ele>
        <time>2019-02-27T12:47:27Z</time>
      </trkpt>
      <trkpt lat="42.75923" lon="0.16662">
        <ele>1711</ele>
        <time>2019-02-27T12:47:28Z</time>
      </trkpt>
      <trkpt lat="42.75923" lon="0.16662">
        <ele>1711</ele>
        <time>2019-02-27T12:47:29Z</time>
      </trkpt>
      <trkpt lat="42.75923" lon="0.16662">
        <ele>1711</ele>
        <time>2019-02-27T12:47:30Z</time>
      </trkpt>
      <trkpt lat="42.75923" lon="0.16662">
        <ele>1711</ele>
        <time>2019-02-27T12:47:31Z</time>
      </trkpt>
      <trkpt lat="42.75923" lon="0.16662">
        <ele>1711</ele>
        <time>2019-02-27T12:47:32Z</time>
      </trkpt>
      <trkpt lat="42.75923" lon="0.16662">
        <ele>1711</ele>
        <time>2019-02-27T12:47:33Z</time>
      </trkpt>
      <trkpt lat="42.75923" lon="0.16662">
        <ele>1711</ele>
        <time>2019-02-27T12:47:34Z</time>
      </trkpt>
      <trkpt lat="42.75923" lon="0.16662">
        <ele>1711</ele>
        <time>2019-02-27T12:47:35Z</time>
      </trkpt>
      <trkpt lat="42.75923" lon="0.16662">
        <ele>1711</ele>
        <time>2019-02-27T12:47:36Z</time>
      </trkpt>
      <trkpt lat="42.75923" lon="0.16662">
        <ele>1711</ele>
        <time>2019-02-27T12:47:37Z</time>
      </trkpt>
      <trkpt lat="42.75923" lon="0.16662">
        <ele>1711</ele>
        <time>2019-02-27T12:47:38Z</time>
      </trkpt>
      <trkpt lat="42.75923" lon="0.16662">
        <ele>1711</ele>
        <time>2019-02-27T12:47:39Z</time>
      </trkpt>
      <trkpt lat="42.75923" lon="0.16662">
        <ele>1711</ele>
        <time>2019-02-27T12:47:40Z</time>
      </trkpt>
      <trkpt lat="42.75923" lon="0.16662">
        <ele>1711</ele>
        <time>2019-02-27T12:47:41Z</time>
      </trkpt>
      <trkpt lat="42.75923" lon="0.16662">
        <ele>1711</ele>
        <time>2019-02-27T12:47:42Z</time>
      </trkpt>
      <trkpt lat="42.75923" lon="0.16662">
        <ele>1711</ele>
        <time>2019-02-27T12:47:43Z</time>
      </trkpt>
      <trkpt lat="42.75923" lon="0.16662">
        <ele>1711</ele>
        <time>2019-02-27T12:47:44Z</time>
      </trkpt>
      <trkpt lat="42.75923" lon="0.16662">
        <ele>1711</ele>
        <time>2019-02-27T12:47:45Z</time>
      </trkpt>
      <trkpt lat="42.75923" lon="0.16662">
        <ele>1711</ele>
        <time>2019-02-27T12:47:46Z</time>
      </trkpt>
      <trkpt lat="42.75923" lon="0.16662">
        <ele>1711</ele>
        <time>2019-02-27T12:47:47Z</time>
      </trkpt>
      <trkpt lat="42.75923" lon="0.16662">
        <ele>1711</ele>
        <time>2019-02-27T12:47:48Z</time>
      </trkpt>
      <trkpt lat="42.75923" lon="0.16662">
        <ele>1711</ele>
        <time>2019-02-27T12:47:49Z</time>
      </trkpt>
      <trkpt lat="42.75923" lon="0.16662">
        <ele>1711</ele>
        <time>2019-02-27T12:47:50Z</time>
      </trkpt>
      <trkpt lat="42.75923" lon="0.16662">
        <ele>1711</ele>
        <time>2019-02-27T12:47:51Z</time>
      </trkpt>
      <trkpt lat="42.75923" lon="0.16662">
        <ele>1711</ele>
        <time>2019-02-27T12:47:52Z</time>
      </trkpt>
      <trkpt lat="42.75923" lon="0.16662">
        <ele>1711</ele>
        <time>2019-02-27T12:47:53Z</time>
      </trkpt>
      <trkpt lat="42.75923" lon="0.16662">
        <ele>1711</ele>
        <time>2019-02-27T12:47:54Z</time>
      </trkpt>
      <trkpt lat="42.75923" lon="0.16662">
        <ele>1711</ele>
        <time>2019-02-27T12:47:55Z</time>
      </trkpt>
      <trkpt lat="42.75923" lon="0.16662">
        <ele>1711</ele>
        <time>2019-02-27T12:47:56Z</time>
      </trkpt>
      <trkpt lat="42.75923" lon="0.16662">
        <ele>1711</ele>
        <time>2019-02-27T12:47:57Z</time>
      </trkpt>
      <trkpt lat="42.75923" lon="0.16662">
        <ele>1711</ele>
        <time>2019-02-27T12:47:58Z</time>
      </trkpt>
      <trkpt lat="42.75923" lon="0.16662">
        <ele>1711</ele>
        <time>2019-02-27T12:47:59Z</time>
      </trkpt>
      <trkpt lat="42.75923" lon="0.16662">
        <ele>1711</ele>
        <time>2019-02-27T12:48:00Z</time>
      </trkpt>
      <trkpt lat="42.75923" lon="0.16662">
        <ele>1711</ele>
        <time>2019-02-27T12:48:01Z</time>
      </trkpt>
      <trkpt lat="42.75923" lon="0.16662">
        <ele>1711</ele>
        <time>2019-02-27T12:48:02Z</time>
      </trkpt>
      <trkpt lat="42.75923" lon="0.16662">
        <ele>1711</ele>
        <time>2019-02-27T12:48:03Z</time>
      </trkpt>
      <trkpt lat="42.75921" lon="0.16665">
        <ele>1711</ele>
        <time>2019-02-27T12:48:04Z</time>
      </trkpt>
      <trkpt lat="42.75921" lon="0.16665">
        <ele>1711</ele>
        <time>2019-02-27T12:48:05Z</time>
      </trkpt>
      <trkpt lat="42.75921" lon="0.16665">
        <ele>1711</ele>
        <time>2019-02-27T12:48:06Z</time>
      </trkpt>
      <trkpt lat="42.75921" lon="0.16665">
        <ele>1711</ele>
        <time>2019-02-27T12:48:07Z</time>
      </trkpt>
      <trkpt lat="42.75921" lon="0.16665">
        <ele>1711</ele>
        <time>2019-02-27T12:48:08Z</time>
      </trkpt>
      <trkpt lat="42.75921" lon="0.16665">
        <ele>1711</ele>
        <time>2019-02-27T12:48:09Z</time>
      </trkpt>
      <trkpt lat="42.75921" lon="0.16665">
        <ele>1711</ele>
        <time>2019-02-27T12:48:10Z</time>
      </trkpt>
      <trkpt lat="42.75921" lon="0.16665">
        <ele>1711</ele>
        <time>2019-02-27T12:48:11Z</time>
      </trkpt>
      <trkpt lat="42.75921" lon="0.16665">
        <ele>1711</ele>
        <time>2019-02-27T12:48:12Z</time>
      </trkpt>
      <trkpt lat="42.75921" lon="0.16665">
        <ele>1711</ele>
        <time>2019-02-27T12:48:13Z</time>
      </trkpt>
      <trkpt lat="42.75921" lon="0.16665">
        <ele>1711</ele>
        <time>2019-02-27T12:48:14Z</time>
      </trkpt>
      <trkpt lat="42.75921" lon="0.16665">
        <ele>1711</ele>
        <time>2019-02-27T12:48:15Z</time>
      </trkpt>
      <trkpt lat="42.75921" lon="0.16665">
        <ele>1711</ele>
        <time>2019-02-27T12:48:16Z</time>
      </trkpt>
      <trkpt lat="42.75921" lon="0.16665">
        <ele>1711</ele>
        <time>2019-02-27T12:48:17Z</time>
      </trkpt>
      <trkpt lat="42.75921" lon="0.16665">
        <ele>1711</ele>
        <time>2019-02-27T12:48:18Z</time>
      </trkpt>
      <trkpt lat="42.75921" lon="0.16665">
        <ele>1711</ele>
        <time>2019-02-27T12:48:19Z</time>
      </trkpt>
      <trkpt lat="42.75921" lon="0.16665">
        <ele>1711</ele>
        <time>2019-02-27T12:48:20Z</time>
      </trkpt>
      <trkpt lat="42.75921" lon="0.16665">
        <ele>1711</ele>
        <time>2019-02-27T12:48:21Z</time>
      </trkpt>
      <trkpt lat="42.75921" lon="0.16665">
        <ele>1711</ele>
        <time>2019-02-27T12:48:22Z</time>
      </trkpt>
      <trkpt lat="42.75921" lon="0.16665">
        <ele>1711</ele>
        <time>2019-02-27T12:48:23Z</time>
      </trkpt>
      <trkpt lat="42.75921" lon="0.16665">
        <ele>1711</ele>
        <time>2019-02-27T12:48:24Z</time>
      </trkpt>
      <trkpt lat="42.75921" lon="0.16665">
        <ele>1711</ele>
        <time>2019-02-27T12:48:25Z</time>
      </trkpt>
      <trkpt lat="42.75921" lon="0.16665">
        <ele>1711</ele>
        <time>2019-02-27T12:48:26Z</time>
      </trkpt>
      <trkpt lat="42.75921" lon="0.16665">
        <ele>1711</ele>
        <time>2019-02-27T12:48:27Z</time>
      </trkpt>
      <trkpt lat="42.75921" lon="0.16665">
        <ele>1711</ele>
        <time>2019-02-27T12:48:28Z</time>
      </trkpt>
      <trkpt lat="42.75921" lon="0.16665">
        <ele>1711</ele>
        <time>2019-02-27T12:48:29Z</time>
      </trkpt>
      <trkpt lat="42.75921" lon="0.16665">
        <ele>1711</ele>
        <time>2019-02-27T12:48:30Z</time>
      </trkpt>
      <trkpt lat="42.75921" lon="0.16665">
        <ele>1711</ele>
        <time>2019-02-27T12:48:31Z</time>
      </trkpt>
      <trkpt lat="42.75921" lon="0.16665">
        <ele>1711</ele>
        <time>2019-02-27T12:48:32Z</time>
      </trkpt>
      <trkpt lat="42.75921" lon="0.16665">
        <ele>1711</ele>
        <time>2019-02-27T12:48:33Z</time>
      </trkpt>
      <trkpt lat="42.75921" lon="0.16665">
        <ele>1711</ele>
        <time>2019-02-27T12:48:34Z</time>
      </trkpt>
      <trkpt lat="42.75921" lon="0.16665">
        <ele>1711</ele>
        <time>2019-02-27T12:48:35Z</time>
      </trkpt>
      <trkpt lat="42.75921" lon="0.16665">
        <ele>1711</ele>
        <time>2019-02-27T12:48:36Z</time>
      </trkpt>
      <trkpt lat="42.75921" lon="0.16665">
        <ele>1711</ele>
        <time>2019-02-27T12:48:37Z</time>
      </trkpt>
      <trkpt lat="42.75921" lon="0.16665">
        <ele>1711</ele>
        <time>2019-02-27T12:48:38Z</time>
      </trkpt>
      <trkpt lat="42.75921" lon="0.16665">
        <ele>1711</ele>
        <time>2019-02-27T12:48:39Z</time>
      </trkpt>
      <trkpt lat="42.75921" lon="0.16665">
        <ele>1711</ele>
        <time>2019-02-27T12:48:40Z</time>
      </trkpt>
      <trkpt lat="42.75921" lon="0.16665">
        <ele>1711</ele>
        <time>2019-02-27T12:48:41Z</time>
      </trkpt>
      <trkpt lat="42.75921" lon="0.16665">
        <ele>1711</ele>
        <time>2019-02-27T12:48:42Z</time>
      </trkpt>
      <trkpt lat="42.75921" lon="0.16665">
        <ele>1711</ele>
        <time>2019-02-27T12:48:43Z</time>
      </trkpt>
      <trkpt lat="42.75921" lon="0.16665">
        <ele>1711</ele>
        <time>2019-02-27T12:48:44Z</time>
      </trkpt>
      <trkpt lat="42.75921" lon="0.16665">
        <ele>1711</ele>
        <time>2019-02-27T12:48:45Z</time>
      </trkpt>
      <trkpt lat="42.75921" lon="0.16665">
        <ele>1711</ele>
        <time>2019-02-27T12:48:46Z</time>
      </trkpt>
      <trkpt lat="42.75921" lon="0.16665">
        <ele>1711</ele>
        <time>2019-02-27T12:48:47Z</time>
      </trkpt>
      <trkpt lat="42.75921" lon="0.16665">
        <ele>1711</ele>
        <time>2019-02-27T12:48:48Z</time>
      </trkpt>
      <trkpt lat="42.75921" lon="0.16665">
        <ele>1711</ele>
        <time>2019-02-27T12:48:49Z</time>
      </trkpt>
      <trkpt lat="42.75921" lon="0.16665">
        <ele>1711</ele>
        <time>2019-02-27T12:48:50Z</time>
      </trkpt>
      <trkpt lat="42.75921" lon="0.16665">
        <ele>1711</ele>
        <time>2019-02-27T12:48:51Z</time>
      </trkpt>
      <trkpt lat="42.75921" lon="0.16665">
        <ele>1711</ele>
        <time>2019-02-27T12:48:52Z</time>
      </trkpt>
      <trkpt lat="42.75921" lon="0.16665">
        <ele>1711</ele>
        <time>2019-02-27T12:48:53Z</time>
      </trkpt>
      <trkpt lat="42.75921" lon="0.16665">
        <ele>1711</ele>
        <time>2019-02-27T12:48:54Z</time>
      </trkpt>
      <trkpt lat="42.75921" lon="0.16665">
        <ele>1711</ele>
        <time>2019-02-27T12:48:55Z</time>
      </trkpt>
      <trkpt lat="42.75921" lon="0.16665">
        <ele>1711</ele>
        <time>2019-02-27T12:48:56Z</time>
      </trkpt>
      <trkpt lat="42.75921" lon="0.16665">
        <ele>1711</ele>
        <time>2019-02-27T12:48:57Z</time>
      </trkpt>
      <trkpt lat="42.75921" lon="0.16665">
        <ele>1711</ele>
        <time>2019-02-27T12:48:58Z</time>
      </trkpt>
      <trkpt lat="42.75921" lon="0.16665">
        <ele>1711</ele>
        <time>2019-02-27T12:48:59Z</time>
      </trkpt>
      <trkpt lat="42.75921" lon="0.16665">
        <ele>1711</ele>
        <time>2019-02-27T12:49:00Z</time>
      </trkpt>
      <trkpt lat="42.75921" lon="0.16665">
        <ele>1711</ele>
        <time>2019-02-27T12:49:01Z</time>
      </trkpt>
      <trkpt lat="42.75921" lon="0.16665">
        <ele>1711</ele>
        <time>2019-02-27T12:49:02Z</time>
      </trkpt>
      <trkpt lat="42.75921" lon="0.16665">
        <ele>1711</ele>
        <time>2019-02-27T12:49:03Z</time>
      </trkpt>
      <trkpt lat="42.75921" lon="0.16665">
        <ele>1711</ele>
        <time>2019-02-27T12:49:04Z</time>
      </trkpt>
      <trkpt lat="42.75921" lon="0.16665">
        <ele>1711</ele>
        <time>2019-02-27T12:49:05Z</time>
      </trkpt>
      <trkpt lat="42.75921" lon="0.16665">
        <ele>1711</ele>
        <time>2019-02-27T12:49:06Z</time>
      </trkpt>
      <trkpt lat="42.75921" lon="0.16665">
        <ele>1711</ele>
        <time>2019-02-27T12:49:07Z</time>
      </trkpt>
      <trkpt lat="42.75921" lon="0.16665">
        <ele>1711</ele>
        <time>2019-02-27T12:49:08Z</time>
      </trkpt>
      <trkpt lat="42.75921" lon="0.16665">
        <ele>1711</ele>
        <time>2019-02-27T12:49:09Z</time>
      </trkpt>
      <trkpt lat="42.75921" lon="0.16665">
        <ele>1711</ele>
        <time>2019-02-27T12:49:10Z</time>
      </trkpt>
      <trkpt lat="42.75921" lon="0.16665">
        <ele>1711</ele>
        <time>2019-02-27T12:49:11Z</time>
      </trkpt>
      <trkpt lat="42.75921" lon="0.16665">
        <ele>1711</ele>
        <time>2019-02-27T12:49:12Z</time>
      </trkpt>
      <trkpt lat="42.75921" lon="0.16665">
        <ele>1711</ele>
        <time>2019-02-27T12:49:13Z</time>
      </trkpt>
      <trkpt lat="42.75921" lon="0.16665">
        <ele>1711</ele>
        <time>2019-02-27T12:49:14Z</time>
      </trkpt>
      <trkpt lat="42.75921" lon="0.16665">
        <ele>1711</ele>
        <time>2019-02-27T12:49:15Z</time>
      </trkpt>
      <trkpt lat="42.75921" lon="0.16665">
        <ele>1711</ele>
        <time>2019-02-27T12:49:16Z</time>
      </trkpt>
      <trkpt lat="42.75921" lon="0.16665">
        <ele>1711</ele>
        <time>2019-02-27T12:49:17Z</time>
      </trkpt>
      <trkpt lat="42.75921" lon="0.16665">
        <ele>1711</ele>
        <time>2019-02-27T12:49:18Z</time>
      </trkpt>
      <trkpt lat="42.75921" lon="0.16665">
        <ele>1711</ele>
        <time>2019-02-27T12:49:19Z</time>
      </trkpt>
      <trkpt lat="42.75921" lon="0.16665">
        <ele>1711</ele>
        <time>2019-02-27T12:49:20Z</time>
      </trkpt>
      <trkpt lat="42.75921" lon="0.16665">
        <ele>1711</ele>
        <time>2019-02-27T12:49:21Z</time>
      </trkpt>
      <trkpt lat="42.75921" lon="0.16665">
        <ele>1711</ele>
        <time>2019-02-27T12:49:22Z</time>
      </trkpt>
      <trkpt lat="42.75921" lon="0.16665">
        <ele>1711</ele>
        <time>2019-02-27T12:49:23Z</time>
      </trkpt>
      <trkpt lat="42.75921" lon="0.16665">
        <ele>1711</ele>
        <time>2019-02-27T12:49:24Z</time>
      </trkpt>
      <trkpt lat="42.75921" lon="0.16665">
        <ele>1711</ele>
        <time>2019-02-27T12:49:25Z</time>
      </trkpt>
      <trkpt lat="42.75921" lon="0.16665">
        <ele>1711</ele>
        <time>2019-02-27T12:49:26Z</time>
      </trkpt>
      <trkpt lat="42.75921" lon="0.16665">
        <ele>1711</ele>
        <time>2019-02-27T12:49:27Z</time>
      </trkpt>
      <trkpt lat="42.75921" lon="0.16665">
        <ele>1711</ele>
        <time>2019-02-27T12:49:28Z</time>
      </trkpt>
      <trkpt lat="42.75921" lon="0.16665">
        <ele>1711</ele>
        <time>2019-02-27T12:49:29Z</time>
      </trkpt>
      <trkpt lat="42.75921" lon="0.16665">
        <ele>1711</ele>
        <time>2019-02-27T12:49:30Z</time>
      </trkpt>
      <trkpt lat="42.75921" lon="0.16665">
        <ele>1711</ele>
        <time>2019-02-27T12:49:31Z</time>
      </trkpt>
      <trkpt lat="42.75921" lon="0.16665">
        <ele>1711</ele>
        <time>2019-02-27T12:49:32Z</time>
      </trkpt>
      <trkpt lat="42.75921" lon="0.16665">
        <ele>1711</ele>
        <time>2019-02-27T12:49:33Z</time>
      </trkpt>
      <trkpt lat="42.75921" lon="0.16665">
        <ele>1711</ele>
        <time>2019-02-27T12:49:34Z</time>
      </trkpt>
      <trkpt lat="42.75921" lon="0.16665">
        <ele>1711</ele>
        <time>2019-02-27T12:49:35Z</time>
      </trkpt>
      <trkpt lat="42.75921" lon="0.16665">
        <ele>1711</ele>
        <time>2019-02-27T12:49:36Z</time>
      </trkpt>
      <trkpt lat="42.75921" lon="0.16665">
        <ele>1711</ele>
        <time>2019-02-27T12:49:37Z</time>
      </trkpt>
      <trkpt lat="42.75921" lon="0.16665">
        <ele>1711</ele>
        <time>2019-02-27T12:49:38Z</time>
      </trkpt>
      <trkpt lat="42.75921" lon="0.16665">
        <ele>1711</ele>
        <time>2019-02-27T12:49:39Z</time>
      </trkpt>
      <trkpt lat="42.75921" lon="0.16665">
        <ele>1711</ele>
        <time>2019-02-27T12:49:40Z</time>
      </trkpt>
      <trkpt lat="42.75921" lon="0.16665">
        <ele>1711</ele>
        <time>2019-02-27T12:49:41Z</time>
      </trkpt>
      <trkpt lat="42.75921" lon="0.16665">
        <ele>1711</ele>
        <time>2019-02-27T12:49:42Z</time>
      </trkpt>
      <trkpt lat="42.75921" lon="0.16665">
        <ele>1711</ele>
        <time>2019-02-27T12:49:43Z</time>
      </trkpt>
      <trkpt lat="42.75921" lon="0.16665">
        <ele>1711</ele>
        <time>2019-02-27T12:49:44Z</time>
      </trkpt>
      <trkpt lat="42.75921" lon="0.16665">
        <ele>1711</ele>
        <time>2019-02-27T12:49:45Z</time>
      </trkpt>
      <trkpt lat="42.75921" lon="0.16665">
        <ele>1711</ele>
        <time>2019-02-27T12:49:46Z</time>
      </trkpt>
      <trkpt lat="42.75921" lon="0.16665">
        <ele>1711</ele>
        <time>2019-02-27T12:49:47Z</time>
      </trkpt>
      <trkpt lat="42.75921" lon="0.16665">
        <ele>1711</ele>
        <time>2019-02-27T12:49:48Z</time>
      </trkpt>
      <trkpt lat="42.75921" lon="0.16665">
        <ele>1711</ele>
        <time>2019-02-27T12:49:49Z</time>
      </trkpt>
      <trkpt lat="42.75921" lon="0.16665">
        <ele>1711</ele>
        <time>2019-02-27T12:49:50Z</time>
      </trkpt>
      <trkpt lat="42.75921" lon="0.16665">
        <ele>1711</ele>
        <time>2019-02-27T12:49:51Z</time>
      </trkpt>
      <trkpt lat="42.75921" lon="0.16665">
        <ele>1711</ele>
        <time>2019-02-27T12:49:52Z</time>
      </trkpt>
      <trkpt lat="42.75921" lon="0.16665">
        <ele>1711</ele>
        <time>2019-02-27T12:49:53Z</time>
      </trkpt>
      <trkpt lat="42.75921" lon="0.16665">
        <ele>1711</ele>
        <time>2019-02-27T12:49:54Z</time>
      </trkpt>
      <trkpt lat="42.75921" lon="0.16665">
        <ele>1711</ele>
        <time>2019-02-27T12:49:55Z</time>
      </trkpt>
      <trkpt lat="42.75921" lon="0.16665">
        <ele>1711</ele>
        <time>2019-02-27T12:49:56Z</time>
      </trkpt>
      <trkpt lat="42.75921" lon="0.16665">
        <ele>1711</ele>
        <time>2019-02-27T12:49:57Z</time>
      </trkpt>
      <trkpt lat="42.75921" lon="0.16665">
        <ele>1711</ele>
        <time>2019-02-27T12:49:58Z</time>
      </trkpt>
      <trkpt lat="42.75921" lon="0.16665">
        <ele>1711</ele>
        <time>2019-02-27T12:49:59Z</time>
      </trkpt>
      <trkpt lat="42.75921" lon="0.16665">
        <ele>1711</ele>
        <time>2019-02-27T12:50:00Z</time>
      </trkpt>
      <trkpt lat="42.75921" lon="0.16665">
        <ele>1711</ele>
        <time>2019-02-27T12:50:01Z</time>
      </trkpt>
      <trkpt lat="42.75921" lon="0.16665">
        <ele>1711</ele>
        <time>2019-02-27T12:50:02Z</time>
      </trkpt>
      <trkpt lat="42.75921" lon="0.16665">
        <ele>1711</ele>
        <time>2019-02-27T12:50:03Z</time>
      </trkpt>
      <trkpt lat="42.75921" lon="0.16665">
        <ele>1711</ele>
        <time>2019-02-27T12:50:04Z</time>
      </trkpt>
      <trkpt lat="42.75921" lon="0.16665">
        <ele>1711</ele>
        <time>2019-02-27T12:50:05Z</time>
      </trkpt>
      <trkpt lat="42.75921" lon="0.16665">
        <ele>1711</ele>
        <time>2019-02-27T12:50:06Z</time>
      </trkpt>
      <trkpt lat="42.75921" lon="0.16665">
        <ele>1711</ele>
        <time>2019-02-27T12:50:07Z</time>
      </trkpt>
      <trkpt lat="42.75921" lon="0.16665">
        <ele>1711</ele>
        <time>2019-02-27T12:50:08Z</time>
      </trkpt>
      <trkpt lat="42.75921" lon="0.16665">
        <ele>1711</ele>
        <time>2019-02-27T12:50:09Z</time>
      </trkpt>
      <trkpt lat="42.75921" lon="0.16665">
        <ele>1711</ele>
        <time>2019-02-27T12:50:10Z</time>
      </trkpt>
      <trkpt lat="42.75921" lon="0.16665">
        <ele>1711</ele>
        <time>2019-02-27T12:50:11Z</time>
      </trkpt>
      <trkpt lat="42.75921" lon="0.16665">
        <ele>1711</ele>
        <time>2019-02-27T12:50:12Z</time>
      </trkpt>
      <trkpt lat="42.75921" lon="0.16665">
        <ele>1711</ele>
        <time>2019-02-27T12:50:13Z</time>
      </trkpt>
      <trkpt lat="42.75921" lon="0.16665">
        <ele>1711</ele>
        <time>2019-02-27T12:50:14Z</time>
      </trkpt>
      <trkpt lat="42.75921" lon="0.16665">
        <ele>1711</ele>
        <time>2019-02-27T12:50:15Z</time>
      </trkpt>
      <trkpt lat="42.75921" lon="0.16665">
        <ele>1711</ele>
        <time>2019-02-27T12:50:16Z</time>
      </trkpt>
      <trkpt lat="42.75923" lon="0.16665">
        <ele>1711</ele>
        <time>2019-02-27T12:50:17Z</time>
      </trkpt>
      <trkpt lat="42.75923" lon="0.16665">
        <ele>1711</ele>
        <time>2019-02-27T12:50:18Z</time>
      </trkpt>
      <trkpt lat="42.75923" lon="0.16665">
        <ele>1711</ele>
        <time>2019-02-27T12:50:19Z</time>
      </trkpt>
      <trkpt lat="42.75923" lon="0.16665">
        <ele>1711</ele>
        <time>2019-02-27T12:50:20Z</time>
      </trkpt>
      <trkpt lat="42.75923" lon="0.16665">
        <ele>1711</ele>
        <time>2019-02-27T12:50:21Z</time>
      </trkpt>
      <trkpt lat="42.75923" lon="0.16665">
        <ele>1711</ele>
        <time>2019-02-27T12:50:22Z</time>
      </trkpt>
      <trkpt lat="42.75923" lon="0.16665">
        <ele>1711</ele>
        <time>2019-02-27T12:50:23Z</time>
      </trkpt>
      <trkpt lat="42.75923" lon="0.16665">
        <ele>1711</ele>
        <time>2019-02-27T12:50:24Z</time>
      </trkpt>
      <trkpt lat="42.75923" lon="0.16665">
        <ele>1711</ele>
        <time>2019-02-27T12:50:25Z</time>
      </trkpt>
      <trkpt lat="42.75923" lon="0.16665">
        <ele>1711</ele>
        <time>2019-02-27T12:50:26Z</time>
      </trkpt>
      <trkpt lat="42.75923" lon="0.16665">
        <ele>1711</ele>
        <time>2019-02-27T12:50:27Z</time>
      </trkpt>
      <trkpt lat="42.75923" lon="0.16665">
        <ele>1711</ele>
        <time>2019-02-27T12:50:28Z</time>
      </trkpt>
      <trkpt lat="42.75923" lon="0.16665">
        <ele>1711</ele>
        <time>2019-02-27T12:50:29Z</time>
      </trkpt>
      <trkpt lat="42.75923" lon="0.16665">
        <ele>1711</ele>
        <time>2019-02-27T12:50:30Z</time>
      </trkpt>
      <trkpt lat="42.75923" lon="0.16665">
        <ele>1711</ele>
        <time>2019-02-27T12:50:31Z</time>
      </trkpt>
      <trkpt lat="42.75923" lon="0.16665">
        <ele>1711</ele>
        <time>2019-02-27T12:50:32Z</time>
      </trkpt>
      <trkpt lat="42.75923" lon="0.16665">
        <ele>1711</ele>
        <time>2019-02-27T12:50:33Z</time>
      </trkpt>
      <trkpt lat="42.75923" lon="0.16665">
        <ele>1711</ele>
        <time>2019-02-27T12:50:34Z</time>
      </trkpt>
      <trkpt lat="42.75923" lon="0.16665">
        <ele>1711</ele>
        <time>2019-02-27T12:50:35Z</time>
      </trkpt>
      <trkpt lat="42.75923" lon="0.16665">
        <ele>1711</ele>
        <time>2019-02-27T12:50:36Z</time>
      </trkpt>
      <trkpt lat="42.75923" lon="0.16665">
        <ele>1711</ele>
        <time>2019-02-27T12:50:37Z</time>
      </trkpt>
      <trkpt lat="42.75923" lon="0.16665">
        <ele>1711</ele>
        <time>2019-02-27T12:50:38Z</time>
      </trkpt>
      <trkpt lat="42.75923" lon="0.16665">
        <ele>1711</ele>
        <time>2019-02-27T12:50:39Z</time>
      </trkpt>
      <trkpt lat="42.75923" lon="0.16665">
        <ele>1711</ele>
        <time>2019-02-27T12:50:40Z</time>
      </trkpt>
      <trkpt lat="42.75923" lon="0.16665">
        <ele>1711</ele>
        <time>2019-02-27T12:50:41Z</time>
      </trkpt>
      <trkpt lat="42.75923" lon="0.16665">
        <ele>1711</ele>
        <time>2019-02-27T12:50:42Z</time>
      </trkpt>
      <trkpt lat="42.75923" lon="0.16665">
        <ele>1711</ele>
        <time>2019-02-27T12:50:43Z</time>
      </trkpt>
      <trkpt lat="42.75923" lon="0.16665">
        <ele>1711</ele>
        <time>2019-02-27T12:50:44Z</time>
      </trkpt>
      <trkpt lat="42.75923" lon="0.16665">
        <ele>1711</ele>
        <time>2019-02-27T12:50:45Z</time>
      </trkpt>
      <trkpt lat="42.75923" lon="0.16665">
        <ele>1711</ele>
        <time>2019-02-27T12:50:46Z</time>
      </trkpt>
      <trkpt lat="42.75923" lon="0.16665">
        <ele>1711</ele>
        <time>2019-02-27T12:50:47Z</time>
      </trkpt>
      <trkpt lat="42.75923" lon="0.16665">
        <ele>1711</ele>
        <time>2019-02-27T12:50:48Z</time>
      </trkpt>
      <trkpt lat="42.75923" lon="0.16665">
        <ele>1711</ele>
        <time>2019-02-27T12:50:49Z</time>
      </trkpt>
      <trkpt lat="42.75923" lon="0.16665">
        <ele>1711</ele>
        <time>2019-02-27T12:50:50Z</time>
      </trkpt>
      <trkpt lat="42.75923" lon="0.16665">
        <ele>1711</ele>
        <time>2019-02-27T12:50:51Z</time>
      </trkpt>
      <trkpt lat="42.75923" lon="0.16665">
        <ele>1711</ele>
        <time>2019-02-27T12:50:52Z</time>
      </trkpt>
      <trkpt lat="42.75923" lon="0.16665">
        <ele>1711</ele>
        <time>2019-02-27T12:50:53Z</time>
      </trkpt>
      <trkpt lat="42.75923" lon="0.16665">
        <ele>1711</ele>
        <time>2019-02-27T12:50:54Z</time>
      </trkpt>
      <trkpt lat="42.75923" lon="0.16665">
        <ele>1711</ele>
        <time>2019-02-27T12:50:55Z</time>
      </trkpt>
      <trkpt lat="42.75923" lon="0.16665">
        <ele>1711</ele>
        <time>2019-02-27T12:50:56Z</time>
      </trkpt>
      <trkpt lat="42.75923" lon="0.16665">
        <ele>1711</ele>
        <time>2019-02-27T12:50:57Z</time>
      </trkpt>
      <trkpt lat="42.75923" lon="0.16665">
        <ele>1711</ele>
        <time>2019-02-27T12:50:58Z</time>
      </trkpt>
      <trkpt lat="42.75923" lon="0.16665">
        <ele>1711</ele>
        <time>2019-02-27T12:50:59Z</time>
      </trkpt>
      <trkpt lat="42.75923" lon="0.16665">
        <ele>1711</ele>
        <time>2019-02-27T12:51:00Z</time>
      </trkpt>
      <trkpt lat="42.75923" lon="0.16665">
        <ele>1711</ele>
        <time>2019-02-27T12:51:01Z</time>
      </trkpt>
      <trkpt lat="42.75923" lon="0.16665">
        <ele>1711</ele>
        <time>2019-02-27T12:51:02Z</time>
      </trkpt>
      <trkpt lat="42.75923" lon="0.16665">
        <ele>1711</ele>
        <time>2019-02-27T12:51:03Z</time>
      </trkpt>
      <trkpt lat="42.75923" lon="0.16665">
        <ele>1711</ele>
        <time>2019-02-27T12:51:04Z</time>
      </trkpt>
      <trkpt lat="42.75923" lon="0.16665">
        <ele>1711</ele>
        <time>2019-02-27T12:51:05Z</time>
      </trkpt>
      <trkpt lat="42.75923" lon="0.16665">
        <ele>1711</ele>
        <time>2019-02-27T12:51:06Z</time>
      </trkpt>
      <trkpt lat="42.75923" lon="0.16665">
        <ele>1711</ele>
        <time>2019-02-27T12:51:07Z</time>
      </trkpt>
      <trkpt lat="42.75923" lon="0.16665">
        <ele>1711</ele>
        <time>2019-02-27T12:51:08Z</time>
      </trkpt>
      <trkpt lat="42.75923" lon="0.16665">
        <ele>1711</ele>
        <time>2019-02-27T12:51:09Z</time>
      </trkpt>
      <trkpt lat="42.75923" lon="0.16665">
        <ele>1711</ele>
        <time>2019-02-27T12:51:10Z</time>
      </trkpt>
      <trkpt lat="42.75921" lon="0.16663">
        <ele>1711</ele>
        <time>2019-02-27T12:51:11Z</time>
      </trkpt>
      <trkpt lat="42.75921" lon="0.16663">
        <ele>1711</ele>
        <time>2019-02-27T12:51:12Z</time>
      </trkpt>
      <trkpt lat="42.75921" lon="0.16663">
        <ele>1711</ele>
        <time>2019-02-27T12:51:13Z</time>
      </trkpt>
      <trkpt lat="42.75921" lon="0.16663">
        <ele>1711</ele>
        <time>2019-02-27T12:51:14Z</time>
      </trkpt>
      <trkpt lat="42.75921" lon="0.16663">
        <ele>1711</ele>
        <time>2019-02-27T12:51:15Z</time>
      </trkpt>
      <trkpt lat="42.75921" lon="0.16663">
        <ele>1711</ele>
        <time>2019-02-27T12:51:16Z</time>
      </trkpt>
      <trkpt lat="42.75921" lon="0.16663">
        <ele>1711</ele>
        <time>2019-02-27T12:51:17Z</time>
      </trkpt>
      <trkpt lat="42.75921" lon="0.16663">
        <ele>1711</ele>
        <time>2019-02-27T12:51:18Z</time>
      </trkpt>
      <trkpt lat="42.75921" lon="0.16663">
        <ele>1711</ele>
        <time>2019-02-27T12:51:19Z</time>
      </trkpt>
      <trkpt lat="42.75921" lon="0.16663">
        <ele>1711</ele>
        <time>2019-02-27T12:51:20Z</time>
      </trkpt>
      <trkpt lat="42.75921" lon="0.16663">
        <ele>1711</ele>
        <time>2019-02-27T12:51:21Z</time>
      </trkpt>
      <trkpt lat="42.75921" lon="0.16663">
        <ele>1711</ele>
        <time>2019-02-27T12:51:22Z</time>
      </trkpt>
      <trkpt lat="42.75921" lon="0.16663">
        <ele>1711</ele>
        <time>2019-02-27T12:51:23Z</time>
      </trkpt>
      <trkpt lat="42.75921" lon="0.16663">
        <ele>1711</ele>
        <time>2019-02-27T12:51:24Z</time>
      </trkpt>
      <trkpt lat="42.75921" lon="0.16663">
        <ele>1711</ele>
        <time>2019-02-27T12:51:25Z</time>
      </trkpt>
      <trkpt lat="42.75921" lon="0.16663">
        <ele>1711</ele>
        <time>2019-02-27T12:51:26Z</time>
      </trkpt>
      <trkpt lat="42.75921" lon="0.16663">
        <ele>1711</ele>
        <time>2019-02-27T12:51:27Z</time>
      </trkpt>
      <trkpt lat="42.75921" lon="0.16663">
        <ele>1711</ele>
        <time>2019-02-27T12:51:28Z</time>
      </trkpt>
      <trkpt lat="42.75921" lon="0.16663">
        <ele>1711</ele>
        <time>2019-02-27T12:51:29Z</time>
      </trkpt>
      <trkpt lat="42.75921" lon="0.16663">
        <ele>1711</ele>
        <time>2019-02-27T12:51:30Z</time>
      </trkpt>
      <trkpt lat="42.75921" lon="0.16663">
        <ele>1711</ele>
        <time>2019-02-27T12:51:31Z</time>
      </trkpt>
      <trkpt lat="42.75921" lon="0.16663">
        <ele>1711</ele>
        <time>2019-02-27T12:51:32Z</time>
      </trkpt>
      <trkpt lat="42.75921" lon="0.16663">
        <ele>1711</ele>
        <time>2019-02-27T12:51:33Z</time>
      </trkpt>
      <trkpt lat="42.75921" lon="0.16663">
        <ele>1711</ele>
        <time>2019-02-27T12:51:34Z</time>
      </trkpt>
      <trkpt lat="42.75921" lon="0.16663">
        <ele>1711</ele>
        <time>2019-02-27T12:51:35Z</time>
      </trkpt>
      <trkpt lat="42.75921" lon="0.16663">
        <ele>1711</ele>
        <time>2019-02-27T12:51:36Z</time>
      </trkpt>
      <trkpt lat="42.75921" lon="0.16663">
        <ele>1711</ele>
        <time>2019-02-27T12:51:37Z</time>
      </trkpt>
      <trkpt lat="42.75921" lon="0.16663">
        <ele>1711</ele>
        <time>2019-02-27T12:51:38Z</time>
      </trkpt>
      <trkpt lat="42.75921" lon="0.16663">
        <ele>1711</ele>
        <time>2019-02-27T12:51:39Z</time>
      </trkpt>
      <trkpt lat="42.75921" lon="0.16663">
        <ele>1711</ele>
        <time>2019-02-27T12:51:40Z</time>
      </trkpt>
      <trkpt lat="42.75921" lon="0.16663">
        <ele>1711</ele>
        <time>2019-02-27T12:51:41Z</time>
      </trkpt>
      <trkpt lat="42.75921" lon="0.16663">
        <ele>1711</ele>
        <time>2019-02-27T12:51:42Z</time>
      </trkpt>
      <trkpt lat="42.75921" lon="0.16663">
        <ele>1711</ele>
        <time>2019-02-27T12:51:43Z</time>
      </trkpt>
      <trkpt lat="42.75921" lon="0.16663">
        <ele>1711</ele>
        <time>2019-02-27T12:51:44Z</time>
      </trkpt>
      <trkpt lat="42.75921" lon="0.16663">
        <ele>1711</ele>
        <time>2019-02-27T12:51:45Z</time>
      </trkpt>
      <trkpt lat="42.75921" lon="0.16663">
        <ele>1711</ele>
        <time>2019-02-27T12:51:46Z</time>
      </trkpt>
      <trkpt lat="42.75921" lon="0.16663">
        <ele>1711</ele>
        <time>2019-02-27T12:51:47Z</time>
      </trkpt>
      <trkpt lat="42.75921" lon="0.16663">
        <ele>1711</ele>
        <time>2019-02-27T12:51:48Z</time>
      </trkpt>
      <trkpt lat="42.75921" lon="0.16663">
        <ele>1711</ele>
        <time>2019-02-27T12:51:49Z</time>
      </trkpt>
      <trkpt lat="42.75921" lon="0.16663">
        <ele>1711</ele>
        <time>2019-02-27T12:51:50Z</time>
      </trkpt>
      <trkpt lat="42.75921" lon="0.16663">
        <ele>1711</ele>
        <time>2019-02-27T12:51:51Z</time>
      </trkpt>
      <trkpt lat="42.75921" lon="0.16663">
        <ele>1711</ele>
        <time>2019-02-27T12:51:52Z</time>
      </trkpt>
      <trkpt lat="42.75921" lon="0.16663">
        <ele>1711</ele>
        <time>2019-02-27T12:51:53Z</time>
      </trkpt>
      <trkpt lat="42.75921" lon="0.16663">
        <ele>1711</ele>
        <time>2019-02-27T12:51:54Z</time>
      </trkpt>
      <trkpt lat="42.75921" lon="0.16663">
        <ele>1711</ele>
        <time>2019-02-27T12:51:55Z</time>
      </trkpt>
      <trkpt lat="42.75921" lon="0.16663">
        <ele>1711</ele>
        <time>2019-02-27T12:51:56Z</time>
      </trkpt>
      <trkpt lat="42.75921" lon="0.16663">
        <ele>1711</ele>
        <time>2019-02-27T12:51:57Z</time>
      </trkpt>
      <trkpt lat="42.75921" lon="0.16663">
        <ele>1711</ele>
        <time>2019-02-27T12:51:58Z</time>
      </trkpt>
      <trkpt lat="42.75921" lon="0.16663">
        <ele>1711</ele>
        <time>2019-02-27T12:51:59Z</time>
      </trkpt>
      <trkpt lat="42.75921" lon="0.16663">
        <ele>1711</ele>
        <time>2019-02-27T12:52:00Z</time>
      </trkpt>
      <trkpt lat="42.75921" lon="0.16663">
        <ele>1711</ele>
        <time>2019-02-27T12:52:01Z</time>
      </trkpt>
      <trkpt lat="42.75921" lon="0.16663">
        <ele>1711</ele>
        <time>2019-02-27T12:52:02Z</time>
      </trkpt>
      <trkpt lat="42.75921" lon="0.16663">
        <ele>1711</ele>
        <time>2019-02-27T12:52:03Z</time>
      </trkpt>
      <trkpt lat="42.75921" lon="0.16663">
        <ele>1711</ele>
        <time>2019-02-27T12:52:04Z</time>
      </trkpt>
      <trkpt lat="42.75921" lon="0.16663">
        <ele>1711</ele>
        <time>2019-02-27T12:52:05Z</time>
      </trkpt>
      <trkpt lat="42.75921" lon="0.16663">
        <ele>1711</ele>
        <time>2019-02-27T12:52:06Z</time>
      </trkpt>
      <trkpt lat="42.75921" lon="0.16663">
        <ele>1711</ele>
        <time>2019-02-27T12:52:07Z</time>
      </trkpt>
      <trkpt lat="42.75921" lon="0.16663">
        <ele>1711</ele>
        <time>2019-02-27T12:52:08Z</time>
      </trkpt>
      <trkpt lat="42.75921" lon="0.16663">
        <ele>1711</ele>
        <time>2019-02-27T12:52:09Z</time>
      </trkpt>
      <trkpt lat="42.75921" lon="0.16663">
        <ele>1711</ele>
        <time>2019-02-27T12:52:10Z</time>
      </trkpt>
      <trkpt lat="42.75921" lon="0.16663">
        <ele>1711</ele>
        <time>2019-02-27T12:52:11Z</time>
      </trkpt>
      <trkpt lat="42.75921" lon="0.16663">
        <ele>1711</ele>
        <time>2019-02-27T12:52:12Z</time>
      </trkpt>
      <trkpt lat="42.75921" lon="0.16663">
        <ele>1711</ele>
        <time>2019-02-27T12:52:13Z</time>
      </trkpt>
      <trkpt lat="42.75921" lon="0.16663">
        <ele>1711</ele>
        <time>2019-02-27T12:52:14Z</time>
      </trkpt>
      <trkpt lat="42.75921" lon="0.16663">
        <ele>1711</ele>
        <time>2019-02-27T12:52:15Z</time>
      </trkpt>
      <trkpt lat="42.75921" lon="0.16663">
        <ele>1711</ele>
        <time>2019-02-27T12:52:16Z</time>
      </trkpt>
      <trkpt lat="42.75921" lon="0.16663">
        <ele>1711</ele>
        <time>2019-02-27T12:52:17Z</time>
      </trkpt>
      <trkpt lat="42.75921" lon="0.16663">
        <ele>1711</ele>
        <time>2019-02-27T12:52:18Z</time>
      </trkpt>
      <trkpt lat="42.75921" lon="0.16663">
        <ele>1711</ele>
        <time>2019-02-27T12:52:19Z</time>
      </trkpt>
      <trkpt lat="42.75921" lon="0.16663">
        <ele>1711</ele>
        <time>2019-02-27T12:52:20Z</time>
      </trkpt>
      <trkpt lat="42.75921" lon="0.16663">
        <ele>1711</ele>
        <time>2019-02-27T12:52:21Z</time>
      </trkpt>
      <trkpt lat="42.75921" lon="0.16663">
        <ele>1711</ele>
        <time>2019-02-27T12:52:22Z</time>
      </trkpt>
      <trkpt lat="42.75921" lon="0.16663">
        <ele>1711</ele>
        <time>2019-02-27T12:52:23Z</time>
      </trkpt>
      <trkpt lat="42.75921" lon="0.16663">
        <ele>1711</ele>
        <time>2019-02-27T12:52:24Z</time>
      </trkpt>
      <trkpt lat="42.75921" lon="0.16663">
        <ele>1711</ele>
        <time>2019-02-27T12:52:25Z</time>
      </trkpt>
      <trkpt lat="42.75921" lon="0.16663">
        <ele>1711</ele>
        <time>2019-02-27T12:52:26Z</time>
      </trkpt>
      <trkpt lat="42.75921" lon="0.16663">
        <ele>1711</ele>
        <time>2019-02-27T12:52:27Z</time>
      </trkpt>
      <trkpt lat="42.75921" lon="0.16663">
        <ele>1711</ele>
        <time>2019-02-27T12:52:28Z</time>
      </trkpt>
      <trkpt lat="42.75921" lon="0.16663">
        <ele>1711</ele>
        <time>2019-02-27T12:52:29Z</time>
      </trkpt>
      <trkpt lat="42.75921" lon="0.16663">
        <ele>1711</ele>
        <time>2019-02-27T12:52:30Z</time>
      </trkpt>
      <trkpt lat="42.75921" lon="0.16663">
        <ele>1711</ele>
        <time>2019-02-27T12:52:31Z</time>
      </trkpt>
      <trkpt lat="42.75921" lon="0.16663">
        <ele>1711</ele>
        <time>2019-02-27T12:52:32Z</time>
      </trkpt>
      <trkpt lat="42.75921" lon="0.16663">
        <ele>1711</ele>
        <time>2019-02-27T12:52:33Z</time>
      </trkpt>
      <trkpt lat="42.75921" lon="0.16663">
        <ele>1711</ele>
        <time>2019-02-27T12:52:34Z</time>
      </trkpt>
      <trkpt lat="42.75921" lon="0.16663">
        <ele>1711</ele>
        <time>2019-02-27T12:52:35Z</time>
      </trkpt>
      <trkpt lat="42.75921" lon="0.16663">
        <ele>1711</ele>
        <time>2019-02-27T12:52:36Z</time>
      </trkpt>
      <trkpt lat="42.75921" lon="0.16663">
        <ele>1711</ele>
        <time>2019-02-27T12:52:37Z</time>
      </trkpt>
      <trkpt lat="42.75921" lon="0.16663">
        <ele>1711</ele>
        <time>2019-02-27T12:52:38Z</time>
      </trkpt>
      <trkpt lat="42.75921" lon="0.16663">
        <ele>1711</ele>
        <time>2019-02-27T12:52:39Z</time>
      </trkpt>
      <trkpt lat="42.75921" lon="0.16667">
        <ele>1711</ele>
        <time>2019-02-27T12:52:40Z</time>
      </trkpt>
      <trkpt lat="42.75921" lon="0.16667">
        <ele>1711</ele>
        <time>2019-02-27T12:52:41Z</time>
      </trkpt>
      <trkpt lat="42.75921" lon="0.16667">
        <ele>1711</ele>
        <time>2019-02-27T12:52:42Z</time>
      </trkpt>
      <trkpt lat="42.75921" lon="0.16667">
        <ele>1711</ele>
        <time>2019-02-27T12:52:43Z</time>
      </trkpt>
      <trkpt lat="42.75921" lon="0.16667">
        <ele>1711</ele>
        <time>2019-02-27T12:52:44Z</time>
      </trkpt>
      <trkpt lat="42.75921" lon="0.16667">
        <ele>1711</ele>
        <time>2019-02-27T12:52:45Z</time>
      </trkpt>
      <trkpt lat="42.75921" lon="0.16667">
        <ele>1711</ele>
        <time>2019-02-27T12:52:46Z</time>
      </trkpt>
      <trkpt lat="42.75921" lon="0.16667">
        <ele>1711</ele>
        <time>2019-02-27T12:52:47Z</time>
      </trkpt>
      <trkpt lat="42.75921" lon="0.16667">
        <ele>1711</ele>
        <time>2019-02-27T12:52:48Z</time>
      </trkpt>
      <trkpt lat="42.75921" lon="0.16667">
        <ele>1711</ele>
        <time>2019-02-27T12:52:49Z</time>
      </trkpt>
      <trkpt lat="42.75921" lon="0.16667">
        <ele>1711</ele>
        <time>2019-02-27T12:52:50Z</time>
      </trkpt>
      <trkpt lat="42.75921" lon="0.16667">
        <ele>1711</ele>
        <time>2019-02-27T12:52:51Z</time>
      </trkpt>
      <trkpt lat="42.75921" lon="0.16667">
        <ele>1711</ele>
        <time>2019-02-27T12:52:52Z</time>
      </trkpt>
      <trkpt lat="42.75921" lon="0.16667">
        <ele>1711</ele>
        <time>2019-02-27T12:52:53Z</time>
      </trkpt>
      <trkpt lat="42.75921" lon="0.16667">
        <ele>1711</ele>
        <time>2019-02-27T12:52:54Z</time>
      </trkpt>
      <trkpt lat="42.75921" lon="0.16667">
        <ele>1711</ele>
        <time>2019-02-27T12:52:55Z</time>
      </trkpt>
      <trkpt lat="42.75921" lon="0.16667">
        <ele>1711</ele>
        <time>2019-02-27T12:52:56Z</time>
      </trkpt>
      <trkpt lat="42.75921" lon="0.16667">
        <ele>1711</ele>
        <time>2019-02-27T12:52:57Z</time>
      </trkpt>
      <trkpt lat="42.75921" lon="0.16667">
        <ele>1711</ele>
        <time>2019-02-27T12:52:58Z</time>
      </trkpt>
      <trkpt lat="42.75921" lon="0.16667">
        <ele>1711</ele>
        <time>2019-02-27T12:52:59Z</time>
      </trkpt>
      <trkpt lat="42.75921" lon="0.16667">
        <ele>1711</ele>
        <time>2019-02-27T12:53:00Z</time>
      </trkpt>
      <trkpt lat="42.75921" lon="0.16667">
        <ele>1711</ele>
        <time>2019-02-27T12:53:01Z</time>
      </trkpt>
      <trkpt lat="42.75921" lon="0.16667">
        <ele>1711</ele>
        <time>2019-02-27T12:53:02Z</time>
      </trkpt>
      <trkpt lat="42.75921" lon="0.16667">
        <ele>1711</ele>
        <time>2019-02-27T12:53:03Z</time>
      </trkpt>
      <trkpt lat="42.75921" lon="0.16667">
        <ele>1711</ele>
        <time>2019-02-27T12:53:04Z</time>
      </trkpt>
      <trkpt lat="42.75921" lon="0.16667">
        <ele>1711</ele>
        <time>2019-02-27T12:53:05Z</time>
      </trkpt>
      <trkpt lat="42.75921" lon="0.16667">
        <ele>1711</ele>
        <time>2019-02-27T12:53:06Z</time>
      </trkpt>
      <trkpt lat="42.75921" lon="0.16667">
        <ele>1711</ele>
        <time>2019-02-27T12:53:07Z</time>
      </trkpt>
      <trkpt lat="42.75921" lon="0.16667">
        <ele>1711</ele>
        <time>2019-02-27T12:53:08Z</time>
      </trkpt>
      <trkpt lat="42.75921" lon="0.16667">
        <ele>1711</ele>
        <time>2019-02-27T12:53:09Z</time>
      </trkpt>
      <trkpt lat="42.75921" lon="0.16667">
        <ele>1711</ele>
        <time>2019-02-27T12:53:10Z</time>
      </trkpt>
      <trkpt lat="42.75921" lon="0.16667">
        <ele>1711</ele>
        <time>2019-02-27T12:53:11Z</time>
      </trkpt>
      <trkpt lat="42.75921" lon="0.16667">
        <ele>1711</ele>
        <time>2019-02-27T12:53:12Z</time>
      </trkpt>
      <trkpt lat="42.75921" lon="0.16667">
        <ele>1711</ele>
        <time>2019-02-27T12:53:13Z</time>
      </trkpt>
      <trkpt lat="42.75923" lon="0.16666">
        <ele>1711</ele>
        <time>2019-02-27T12:53:14Z</time>
      </trkpt>
      <trkpt lat="42.75923" lon="0.16666">
        <ele>1711</ele>
        <time>2019-02-27T12:53:15Z</time>
      </trkpt>
      <trkpt lat="42.75923" lon="0.16666">
        <ele>1711</ele>
        <time>2019-02-27T12:53:16Z</time>
      </trkpt>
      <trkpt lat="42.75923" lon="0.16666">
        <ele>1711</ele>
        <time>2019-02-27T12:53:17Z</time>
      </trkpt>
      <trkpt lat="42.75923" lon="0.16666">
        <ele>1711</ele>
        <time>2019-02-27T12:53:18Z</time>
      </trkpt>
      <trkpt lat="42.75923" lon="0.16666">
        <ele>1711</ele>
        <time>2019-02-27T12:53:19Z</time>
      </trkpt>
      <trkpt lat="42.75923" lon="0.16666">
        <ele>1711</ele>
        <time>2019-02-27T12:53:20Z</time>
      </trkpt>
      <trkpt lat="42.75923" lon="0.16666">
        <ele>1711</ele>
        <time>2019-02-27T12:53:21Z</time>
      </trkpt>
      <trkpt lat="42.75923" lon="0.16666">
        <ele>1711</ele>
        <time>2019-02-27T12:53:22Z</time>
      </trkpt>
      <trkpt lat="42.75923" lon="0.16666">
        <ele>1711</ele>
        <time>2019-02-27T12:53:23Z</time>
      </trkpt>
      <trkpt lat="42.75923" lon="0.16666">
        <ele>1711</ele>
        <time>2019-02-27T12:53:24Z</time>
      </trkpt>
      <trkpt lat="42.75923" lon="0.16666">
        <ele>1711</ele>
        <time>2019-02-27T12:53:25Z</time>
      </trkpt>
      <trkpt lat="42.75923" lon="0.16666">
        <ele>1711</ele>
        <time>2019-02-27T12:53:26Z</time>
      </trkpt>
      <trkpt lat="42.75923" lon="0.16666">
        <ele>1711</ele>
        <time>2019-02-27T12:53:27Z</time>
      </trkpt>
      <trkpt lat="42.75923" lon="0.16666">
        <ele>1711</ele>
        <time>2019-02-27T12:53:28Z</time>
      </trkpt>
      <trkpt lat="42.75923" lon="0.16666">
        <ele>1711</ele>
        <time>2019-02-27T12:53:29Z</time>
      </trkpt>
      <trkpt lat="42.75923" lon="0.16666">
        <ele>1711</ele>
        <time>2019-02-27T12:53:30Z</time>
      </trkpt>
      <trkpt lat="42.75923" lon="0.16666">
        <ele>1711</ele>
        <time>2019-02-27T12:53:31Z</time>
      </trkpt>
      <trkpt lat="42.75923" lon="0.16666">
        <ele>1711</ele>
        <time>2019-02-27T12:53:32Z</time>
      </trkpt>
      <trkpt lat="42.75923" lon="0.16666">
        <ele>1711</ele>
        <time>2019-02-27T12:53:33Z</time>
      </trkpt>
      <trkpt lat="42.75923" lon="0.16666">
        <ele>1711</ele>
        <time>2019-02-27T12:53:34Z</time>
      </trkpt>
      <trkpt lat="42.75923" lon="0.16666">
        <ele>1711</ele>
        <time>2019-02-27T12:53:35Z</time>
      </trkpt>
      <trkpt lat="42.75923" lon="0.16666">
        <ele>1711</ele>
        <time>2019-02-27T12:53:36Z</time>
      </trkpt>
      <trkpt lat="42.75923" lon="0.16666">
        <ele>1711</ele>
        <time>2019-02-27T12:53:37Z</time>
      </trkpt>
      <trkpt lat="42.75923" lon="0.16666">
        <ele>1711</ele>
        <time>2019-02-27T12:53:38Z</time>
      </trkpt>
      <trkpt lat="42.75923" lon="0.16666">
        <ele>1711</ele>
        <time>2019-02-27T12:53:39Z</time>
      </trkpt>
      <trkpt lat="42.75923" lon="0.16666">
        <ele>1711</ele>
        <time>2019-02-27T12:53:40Z</time>
      </trkpt>
      <trkpt lat="42.75923" lon="0.16666">
        <ele>1711</ele>
        <time>2019-02-27T12:53:41Z</time>
      </trkpt>
      <trkpt lat="42.75923" lon="0.16666">
        <ele>1711</ele>
        <time>2019-02-27T12:53:42Z</time>
      </trkpt>
      <trkpt lat="42.75923" lon="0.16666">
        <ele>1711</ele>
        <time>2019-02-27T12:53:43Z</time>
      </trkpt>
      <trkpt lat="42.75923" lon="0.16666">
        <ele>1711</ele>
        <time>2019-02-27T12:53:44Z</time>
      </trkpt>
      <trkpt lat="42.75923" lon="0.16666">
        <ele>1711</ele>
        <time>2019-02-27T12:53:45Z</time>
      </trkpt>
      <trkpt lat="42.75923" lon="0.16666">
        <ele>1711</ele>
        <time>2019-02-27T12:53:46Z</time>
      </trkpt>
      <trkpt lat="42.75923" lon="0.16666">
        <ele>1711</ele>
        <time>2019-02-27T12:53:47Z</time>
      </trkpt>
      <trkpt lat="42.75923" lon="0.16666">
        <ele>1711</ele>
        <time>2019-02-27T12:53:48Z</time>
      </trkpt>
      <trkpt lat="42.75923" lon="0.16666">
        <ele>1711</ele>
        <time>2019-02-27T12:53:49Z</time>
      </trkpt>
      <trkpt lat="42.75923" lon="0.16666">
        <ele>1711</ele>
        <time>2019-02-27T12:53:50Z</time>
      </trkpt>
      <trkpt lat="42.75923" lon="0.16666">
        <ele>1711</ele>
        <time>2019-02-27T12:53:51Z</time>
      </trkpt>
      <trkpt lat="42.75923" lon="0.16666">
        <ele>1711</ele>
        <time>2019-02-27T12:53:52Z</time>
      </trkpt>
      <trkpt lat="42.75923" lon="0.16666">
        <ele>1711</ele>
        <time>2019-02-27T12:53:53Z</time>
      </trkpt>
      <trkpt lat="42.75923" lon="0.16666">
        <ele>1711</ele>
        <time>2019-02-27T12:53:54Z</time>
      </trkpt>
      <trkpt lat="42.75923" lon="0.16666">
        <ele>1711</ele>
        <time>2019-02-27T12:53:55Z</time>
      </trkpt>
      <trkpt lat="42.75923" lon="0.16666">
        <ele>1711</ele>
        <time>2019-02-27T12:53:56Z</time>
      </trkpt>
      <trkpt lat="42.75923" lon="0.16666">
        <ele>1711</ele>
        <time>2019-02-27T12:53:57Z</time>
      </trkpt>
      <trkpt lat="42.75924" lon="0.16669">
        <ele>1711</ele>
        <time>2019-02-27T12:53:58Z</time>
      </trkpt>
      <trkpt lat="42.75924" lon="0.16669">
        <ele>1711</ele>
        <time>2019-02-27T12:53:59Z</time>
      </trkpt>
      <trkpt lat="42.75924" lon="0.16669">
        <ele>1711</ele>
        <time>2019-02-27T12:54:00Z</time>
      </trkpt>
      <trkpt lat="42.75924" lon="0.16669">
        <ele>1711</ele>
        <time>2019-02-27T12:54:01Z</time>
      </trkpt>
      <trkpt lat="42.75924" lon="0.16669">
        <ele>1711</ele>
        <time>2019-02-27T12:54:02Z</time>
      </trkpt>
      <trkpt lat="42.75924" lon="0.16669">
        <ele>1711</ele>
        <time>2019-02-27T12:54:03Z</time>
      </trkpt>
      <trkpt lat="42.75924" lon="0.16669">
        <ele>1711</ele>
        <time>2019-02-27T12:54:04Z</time>
      </trkpt>
      <trkpt lat="42.75924" lon="0.16669">
        <ele>1711</ele>
        <time>2019-02-27T12:54:05Z</time>
      </trkpt>
      <trkpt lat="42.75924" lon="0.16669">
        <ele>1711</ele>
        <time>2019-02-27T12:54:06Z</time>
      </trkpt>
      <trkpt lat="42.75924" lon="0.16669">
        <ele>1711</ele>
        <time>2019-02-27T12:54:07Z</time>
      </trkpt>
      <trkpt lat="42.75924" lon="0.16669">
        <ele>1711</ele>
        <time>2019-02-27T12:54:08Z</time>
      </trkpt>
      <trkpt lat="42.75924" lon="0.16669">
        <ele>1711</ele>
        <time>2019-02-27T12:54:09Z</time>
      </trkpt>
      <trkpt lat="42.75924" lon="0.16669">
        <ele>1711</ele>
        <time>2019-02-27T12:54:10Z</time>
      </trkpt>
      <trkpt lat="42.75924" lon="0.16669">
        <ele>1711</ele>
        <time>2019-02-27T12:54:11Z</time>
      </trkpt>
      <trkpt lat="42.75924" lon="0.16669">
        <ele>1711</ele>
        <time>2019-02-27T12:54:12Z</time>
      </trkpt>
      <trkpt lat="42.75924" lon="0.16669">
        <ele>1711</ele>
        <time>2019-02-27T12:54:13Z</time>
      </trkpt>
      <trkpt lat="42.75924" lon="0.16669">
        <ele>1711</ele>
        <time>2019-02-27T12:54:14Z</time>
      </trkpt>
      <trkpt lat="42.75924" lon="0.16669">
        <ele>1711</ele>
        <time>2019-02-27T12:54:15Z</time>
      </trkpt>
      <trkpt lat="42.75925" lon="0.16671">
        <ele>1711</ele>
        <time>2019-02-27T12:54:16Z</time>
      </trkpt>
      <trkpt lat="42.75925" lon="0.16671">
        <ele>1711</ele>
        <time>2019-02-27T12:54:17Z</time>
      </trkpt>
      <trkpt lat="42.75925" lon="0.16671">
        <ele>1711</ele>
        <time>2019-02-27T12:54:18Z</time>
      </trkpt>
      <trkpt lat="42.75925" lon="0.16671">
        <ele>1711</ele>
        <time>2019-02-27T12:54:19Z</time>
      </trkpt>
      <trkpt lat="42.75925" lon="0.16671">
        <ele>1711</ele>
        <time>2019-02-27T12:54:20Z</time>
      </trkpt>
      <trkpt lat="42.75925" lon="0.16671">
        <ele>1711</ele>
        <time>2019-02-27T12:54:21Z</time>
      </trkpt>
      <trkpt lat="42.75925" lon="0.16671">
        <ele>1711</ele>
        <time>2019-02-27T12:54:22Z</time>
      </trkpt>
      <trkpt lat="42.75925" lon="0.16671">
        <ele>1711</ele>
        <time>2019-02-27T12:54:23Z</time>
      </trkpt>
      <trkpt lat="42.75925" lon="0.16671">
        <ele>1711</ele>
        <time>2019-02-27T12:54:24Z</time>
      </trkpt>
      <trkpt lat="42.75925" lon="0.16671">
        <ele>1711</ele>
        <time>2019-02-27T12:54:25Z</time>
      </trkpt>
      <trkpt lat="42.75925" lon="0.16671">
        <ele>1711</ele>
        <time>2019-02-27T12:54:26Z</time>
      </trkpt>
      <trkpt lat="42.75925" lon="0.16671">
        <ele>1711</ele>
        <time>2019-02-27T12:54:27Z</time>
      </trkpt>
      <trkpt lat="42.75925" lon="0.16671">
        <ele>1711</ele>
        <time>2019-02-27T12:54:28Z</time>
      </trkpt>
      <trkpt lat="42.75925" lon="0.16671">
        <ele>1711</ele>
        <time>2019-02-27T12:54:29Z</time>
      </trkpt>
      <trkpt lat="42.75925" lon="0.16671">
        <ele>1711</ele>
        <time>2019-02-27T12:54:30Z</time>
      </trkpt>
      <trkpt lat="42.75925" lon="0.16671">
        <ele>1711</ele>
        <time>2019-02-27T12:54:31Z</time>
      </trkpt>
      <trkpt lat="42.75925" lon="0.16671">
        <ele>1711</ele>
        <time>2019-02-27T12:54:32Z</time>
      </trkpt>
      <trkpt lat="42.75925" lon="0.16671">
        <ele>1711</ele>
        <time>2019-02-27T12:54:33Z</time>
      </trkpt>
      <trkpt lat="42.75925" lon="0.16671">
        <ele>1711</ele>
        <time>2019-02-27T12:54:34Z</time>
      </trkpt>
      <trkpt lat="42.75925" lon="0.16671">
        <ele>1711</ele>
        <time>2019-02-27T12:54:35Z</time>
      </trkpt>
      <trkpt lat="42.75925" lon="0.16671">
        <ele>1711</ele>
        <time>2019-02-27T12:54:36Z</time>
      </trkpt>
      <trkpt lat="42.75925" lon="0.16671">
        <ele>1711</ele>
        <time>2019-02-27T12:54:37Z</time>
      </trkpt>
      <trkpt lat="42.75925" lon="0.16671">
        <ele>1711</ele>
        <time>2019-02-27T12:54:38Z</time>
      </trkpt>
      <trkpt lat="42.75925" lon="0.16671">
        <ele>1711</ele>
        <time>2019-02-27T12:54:39Z</time>
      </trkpt>
      <trkpt lat="42.75925" lon="0.16671">
        <ele>1711</ele>
        <time>2019-02-27T12:54:40Z</time>
      </trkpt>
      <trkpt lat="42.75925" lon="0.16671">
        <ele>1711</ele>
        <time>2019-02-27T12:54:41Z</time>
      </trkpt>
      <trkpt lat="42.75925" lon="0.16671">
        <ele>1711</ele>
        <time>2019-02-27T12:54:42Z</time>
      </trkpt>
      <trkpt lat="42.75925" lon="0.16671">
        <ele>1711</ele>
        <time>2019-02-27T12:54:43Z</time>
      </trkpt>
      <trkpt lat="42.75925" lon="0.16671">
        <ele>1711</ele>
        <time>2019-02-27T12:54:44Z</time>
      </trkpt>
      <trkpt lat="42.75925" lon="0.16671">
        <ele>1711</ele>
        <time>2019-02-27T12:54:45Z</time>
      </trkpt>
      <trkpt lat="42.75925" lon="0.16671">
        <ele>1711</ele>
        <time>2019-02-27T12:54:46Z</time>
      </trkpt>
      <trkpt lat="42.75925" lon="0.16671">
        <ele>1711</ele>
        <time>2019-02-27T12:54:47Z</time>
      </trkpt>
      <trkpt lat="42.75925" lon="0.16671">
        <ele>1711</ele>
        <time>2019-02-27T12:54:48Z</time>
      </trkpt>
      <trkpt lat="42.75925" lon="0.16671">
        <ele>1711</ele>
        <time>2019-02-27T12:54:49Z</time>
      </trkpt>
      <trkpt lat="42.75925" lon="0.16671">
        <ele>1711</ele>
        <time>2019-02-27T12:54:50Z</time>
      </trkpt>
      <trkpt lat="42.75925" lon="0.16671">
        <ele>1711</ele>
        <time>2019-02-27T12:54:51Z</time>
      </trkpt>
      <trkpt lat="42.75925" lon="0.16671">
        <ele>1711</ele>
        <time>2019-02-27T12:54:52Z</time>
      </trkpt>
      <trkpt lat="42.75925" lon="0.16671">
        <ele>1711</ele>
        <time>2019-02-27T12:54:53Z</time>
      </trkpt>
      <trkpt lat="42.75925" lon="0.16671">
        <ele>1711</ele>
        <time>2019-02-27T12:54:54Z</time>
      </trkpt>
      <trkpt lat="42.75925" lon="0.16671">
        <ele>1711</ele>
        <time>2019-02-27T12:54:55Z</time>
      </trkpt>
      <trkpt lat="42.75925" lon="0.16671">
        <ele>1711</ele>
        <time>2019-02-27T12:54:56Z</time>
      </trkpt>
      <trkpt lat="42.75926" lon="0.16671">
        <ele>1711</ele>
        <time>2019-02-27T12:54:57Z</time>
      </trkpt>
      <trkpt lat="42.75926" lon="0.16671">
        <ele>1711</ele>
        <time>2019-02-27T12:54:58Z</time>
      </trkpt>
      <trkpt lat="42.75926" lon="0.16671">
        <ele>1711</ele>
        <time>2019-02-27T12:54:59Z</time>
      </trkpt>
      <trkpt lat="42.75926" lon="0.16671">
        <ele>1711</ele>
        <time>2019-02-27T12:55:00Z</time>
      </trkpt>
      <trkpt lat="42.75926" lon="0.16671">
        <ele>1711</ele>
        <time>2019-02-27T12:55:01Z</time>
      </trkpt>
      <trkpt lat="42.75926" lon="0.16671">
        <ele>1711</ele>
        <time>2019-02-27T12:55:02Z</time>
      </trkpt>
      <trkpt lat="42.75926" lon="0.16671">
        <ele>1711</ele>
        <time>2019-02-27T12:55:03Z</time>
      </trkpt>
      <trkpt lat="42.75926" lon="0.16671">
        <ele>1711</ele>
        <time>2019-02-27T12:55:04Z</time>
      </trkpt>
      <trkpt lat="42.75926" lon="0.16671">
        <ele>1711</ele>
        <time>2019-02-27T12:55:05Z</time>
      </trkpt>
      <trkpt lat="42.75926" lon="0.16671">
        <ele>1711</ele>
        <time>2019-02-27T12:55:06Z</time>
      </trkpt>
      <trkpt lat="42.75926" lon="0.16671">
        <ele>1711</ele>
        <time>2019-02-27T12:55:07Z</time>
      </trkpt>
      <trkpt lat="42.75926" lon="0.16671">
        <ele>1711</ele>
        <time>2019-02-27T12:55:08Z</time>
      </trkpt>
      <trkpt lat="42.75926" lon="0.16671">
        <ele>1711</ele>
        <time>2019-02-27T12:55:09Z</time>
      </trkpt>
      <trkpt lat="42.75926" lon="0.16671">
        <ele>1711</ele>
        <time>2019-02-27T12:55:10Z</time>
      </trkpt>
      <trkpt lat="42.75926" lon="0.16671">
        <ele>1711</ele>
        <time>2019-02-27T12:55:11Z</time>
      </trkpt>
      <trkpt lat="42.75926" lon="0.16671">
        <ele>1711</ele>
        <time>2019-02-27T12:55:12Z</time>
      </trkpt>
      <trkpt lat="42.75926" lon="0.16671">
        <ele>1711</ele>
        <time>2019-02-27T12:55:13Z</time>
      </trkpt>
      <trkpt lat="42.75926" lon="0.16671">
        <ele>1711</ele>
        <time>2019-02-27T12:55:14Z</time>
      </trkpt>
      <trkpt lat="42.75926" lon="0.16671">
        <ele>1711</ele>
        <time>2019-02-27T12:55:15Z</time>
      </trkpt>
      <trkpt lat="42.75926" lon="0.16671">
        <ele>1711</ele>
        <time>2019-02-27T12:55:16Z</time>
      </trkpt>
      <trkpt lat="42.75926" lon="0.16671">
        <ele>1711</ele>
        <time>2019-02-27T12:55:17Z</time>
      </trkpt>
      <trkpt lat="42.75926" lon="0.16668">
        <ele>1711</ele>
        <time>2019-02-27T12:55:18Z</time>
      </trkpt>
      <trkpt lat="42.75926" lon="0.16668">
        <ele>1711</ele>
        <time>2019-02-27T12:55:19Z</time>
      </trkpt>
      <trkpt lat="42.75926" lon="0.16668">
        <ele>1711</ele>
        <time>2019-02-27T12:55:20Z</time>
      </trkpt>
      <trkpt lat="42.75926" lon="0.16668">
        <ele>1711</ele>
        <time>2019-02-27T12:55:21Z</time>
      </trkpt>
      <trkpt lat="42.75926" lon="0.16668">
        <ele>1711</ele>
        <time>2019-02-27T12:55:22Z</time>
      </trkpt>
      <trkpt lat="42.75926" lon="0.16668">
        <ele>1711</ele>
        <time>2019-02-27T12:55:23Z</time>
      </trkpt>
      <trkpt lat="42.75926" lon="0.16668">
        <ele>1711</ele>
        <time>2019-02-27T12:55:24Z</time>
      </trkpt>
      <trkpt lat="42.75926" lon="0.16668">
        <ele>1711</ele>
        <time>2019-02-27T12:55:25Z</time>
      </trkpt>
      <trkpt lat="42.75926" lon="0.16668">
        <ele>1711</ele>
        <time>2019-02-27T12:55:26Z</time>
      </trkpt>
      <trkpt lat="42.75926" lon="0.16668">
        <ele>1711</ele>
        <time>2019-02-27T12:55:27Z</time>
      </trkpt>
      <trkpt lat="42.75926" lon="0.16668">
        <ele>1711</ele>
        <time>2019-02-27T12:55:28Z</time>
      </trkpt>
      <trkpt lat="42.75926" lon="0.16668">
        <ele>1711</ele>
        <time>2019-02-27T12:55:29Z</time>
      </trkpt>
      <trkpt lat="42.75926" lon="0.16668">
        <ele>1711</ele>
        <time>2019-02-27T12:55:30Z</time>
      </trkpt>
      <trkpt lat="42.75924" lon="0.16667">
        <ele>1711</ele>
        <time>2019-02-27T12:55:31Z</time>
      </trkpt>
      <trkpt lat="42.75924" lon="0.16667">
        <ele>1711</ele>
        <time>2019-02-27T12:55:32Z</time>
      </trkpt>
      <trkpt lat="42.75924" lon="0.16667">
        <ele>1711</ele>
        <time>2019-02-27T12:55:33Z</time>
      </trkpt>
      <trkpt lat="42.75924" lon="0.16667">
        <ele>1711</ele>
        <time>2019-02-27T12:55:34Z</time>
      </trkpt>
      <trkpt lat="42.75924" lon="0.16667">
        <ele>1711</ele>
        <time>2019-02-27T12:55:35Z</time>
      </trkpt>
      <trkpt lat="42.75924" lon="0.16667">
        <ele>1711</ele>
        <time>2019-02-27T12:55:36Z</time>
      </trkpt>
      <trkpt lat="42.75924" lon="0.16667">
        <ele>1711</ele>
        <time>2019-02-27T12:55:37Z</time>
      </trkpt>
      <trkpt lat="42.75924" lon="0.16667">
        <ele>1711</ele>
        <time>2019-02-27T12:55:38Z</time>
      </trkpt>
      <trkpt lat="42.75924" lon="0.16667">
        <ele>1711</ele>
        <time>2019-02-27T12:55:39Z</time>
      </trkpt>
      <trkpt lat="42.75924" lon="0.16667">
        <ele>1711</ele>
        <time>2019-02-27T12:55:40Z</time>
      </trkpt>
      <trkpt lat="42.75924" lon="0.16667">
        <ele>1711</ele>
        <time>2019-02-27T12:55:41Z</time>
      </trkpt>
      <trkpt lat="42.75924" lon="0.16667">
        <ele>1711</ele>
        <time>2019-02-27T12:55:42Z</time>
      </trkpt>
      <trkpt lat="42.75924" lon="0.16667">
        <ele>1711</ele>
        <time>2019-02-27T12:55:43Z</time>
      </trkpt>
      <trkpt lat="42.75924" lon="0.16667">
        <ele>1711</ele>
        <time>2019-02-27T12:55:44Z</time>
      </trkpt>
      <trkpt lat="42.75924" lon="0.16667">
        <ele>1711</ele>
        <time>2019-02-27T12:55:45Z</time>
      </trkpt>
      <trkpt lat="42.75924" lon="0.16667">
        <ele>1711</ele>
        <time>2019-02-27T12:55:46Z</time>
      </trkpt>
      <trkpt lat="42.75924" lon="0.16667">
        <ele>1711</ele>
        <time>2019-02-27T12:55:47Z</time>
      </trkpt>
      <trkpt lat="42.75924" lon="0.16667">
        <ele>1711</ele>
        <time>2019-02-27T12:55:48Z</time>
      </trkpt>
      <trkpt lat="42.75924" lon="0.16667">
        <ele>1711</ele>
        <time>2019-02-27T12:55:49Z</time>
      </trkpt>
      <trkpt lat="42.75924" lon="0.16667">
        <ele>1711</ele>
        <time>2019-02-27T12:55:50Z</time>
      </trkpt>
      <trkpt lat="42.75924" lon="0.16667">
        <ele>1711</ele>
        <time>2019-02-27T12:55:51Z</time>
      </trkpt>
      <trkpt lat="42.75924" lon="0.16667">
        <ele>1711</ele>
        <time>2019-02-27T12:55:52Z</time>
      </trkpt>
      <trkpt lat="42.75924" lon="0.16667">
        <ele>1711</ele>
        <time>2019-02-27T12:55:53Z</time>
      </trkpt>
      <trkpt lat="42.75924" lon="0.16667">
        <ele>1711</ele>
        <time>2019-02-27T12:55:54Z</time>
      </trkpt>
      <trkpt lat="42.75924" lon="0.16667">
        <ele>1711</ele>
        <time>2019-02-27T12:55:55Z</time>
      </trkpt>
      <trkpt lat="42.75924" lon="0.16667">
        <ele>1711</ele>
        <time>2019-02-27T12:55:56Z</time>
      </trkpt>
      <trkpt lat="42.75924" lon="0.16667">
        <ele>1711</ele>
        <time>2019-02-27T12:55:57Z</time>
      </trkpt>
      <trkpt lat="42.75924" lon="0.16667">
        <ele>1711</ele>
        <time>2019-02-27T12:55:58Z</time>
      </trkpt>
      <trkpt lat="42.75924" lon="0.16667">
        <ele>1711</ele>
        <time>2019-02-27T12:55:59Z</time>
      </trkpt>
      <trkpt lat="42.75924" lon="0.16667">
        <ele>1711</ele>
        <time>2019-02-27T12:56:00Z</time>
      </trkpt>
      <trkpt lat="42.75923" lon="0.16665">
        <ele>1711</ele>
        <time>2019-02-27T12:56:01Z</time>
      </trkpt>
      <trkpt lat="42.75923" lon="0.16665">
        <ele>1711</ele>
        <time>2019-02-27T12:56:02Z</time>
      </trkpt>
      <trkpt lat="42.75923" lon="0.16665">
        <ele>1711</ele>
        <time>2019-02-27T12:56:03Z</time>
      </trkpt>
      <trkpt lat="42.75923" lon="0.16665">
        <ele>1711</ele>
        <time>2019-02-27T12:56:04Z</time>
      </trkpt>
      <trkpt lat="42.75923" lon="0.16665">
        <ele>1711</ele>
        <time>2019-02-27T12:56:05Z</time>
      </trkpt>
      <trkpt lat="42.75923" lon="0.16665">
        <ele>1711</ele>
        <time>2019-02-27T12:56:06Z</time>
      </trkpt>
      <trkpt lat="42.75923" lon="0.16665">
        <ele>1711</ele>
        <time>2019-02-27T12:56:07Z</time>
      </trkpt>
      <trkpt lat="42.75923" lon="0.16665">
        <ele>1711</ele>
        <time>2019-02-27T12:56:08Z</time>
      </trkpt>
      <trkpt lat="42.75923" lon="0.16665">
        <ele>1711</ele>
        <time>2019-02-27T12:56:09Z</time>
      </trkpt>
      <trkpt lat="42.75923" lon="0.16665">
        <ele>1711</ele>
        <time>2019-02-27T12:56:10Z</time>
      </trkpt>
      <trkpt lat="42.75923" lon="0.16665">
        <ele>1711</ele>
        <time>2019-02-27T12:56:11Z</time>
      </trkpt>
      <trkpt lat="42.75923" lon="0.16665">
        <ele>1711</ele>
        <time>2019-02-27T12:56:12Z</time>
      </trkpt>
      <trkpt lat="42.75923" lon="0.16665">
        <ele>1711</ele>
        <time>2019-02-27T12:56:13Z</time>
      </trkpt>
      <trkpt lat="42.75923" lon="0.16665">
        <ele>1711</ele>
        <time>2019-02-27T12:56:14Z</time>
      </trkpt>
      <trkpt lat="42.75923" lon="0.16665">
        <ele>1711</ele>
        <time>2019-02-27T12:56:15Z</time>
      </trkpt>
      <trkpt lat="42.75923" lon="0.16665">
        <ele>1711</ele>
        <time>2019-02-27T12:56:16Z</time>
      </trkpt>
      <trkpt lat="42.75923" lon="0.16665">
        <ele>1711</ele>
        <time>2019-02-27T12:56:17Z</time>
      </trkpt>
      <trkpt lat="42.75923" lon="0.16665">
        <ele>1711</ele>
        <time>2019-02-27T12:56:18Z</time>
      </trkpt>
      <trkpt lat="42.75923" lon="0.16665">
        <ele>1711</ele>
        <time>2019-02-27T12:56:19Z</time>
      </trkpt>
      <trkpt lat="42.75923" lon="0.16665">
        <ele>1711</ele>
        <time>2019-02-27T12:56:20Z</time>
      </trkpt>
      <trkpt lat="42.75923" lon="0.16665">
        <ele>1711</ele>
        <time>2019-02-27T12:56:21Z</time>
      </trkpt>
      <trkpt lat="42.75923" lon="0.16665">
        <ele>1711</ele>
        <time>2019-02-27T12:56:22Z</time>
      </trkpt>
      <trkpt lat="42.75923" lon="0.16665">
        <ele>1711</ele>
        <time>2019-02-27T12:56:23Z</time>
      </trkpt>
      <trkpt lat="42.75923" lon="0.16665">
        <ele>1711</ele>
        <time>2019-02-27T12:56:24Z</time>
      </trkpt>
      <trkpt lat="42.75923" lon="0.16665">
        <ele>1711</ele>
        <time>2019-02-27T12:56:25Z</time>
      </trkpt>
      <trkpt lat="42.75923" lon="0.16665">
        <ele>1711</ele>
        <time>2019-02-27T12:56:26Z</time>
      </trkpt>
      <trkpt lat="42.75923" lon="0.16665">
        <ele>1711</ele>
        <time>2019-02-27T12:56:27Z</time>
      </trkpt>
      <trkpt lat="42.75923" lon="0.16665">
        <ele>1711</ele>
        <time>2019-02-27T12:56:28Z</time>
      </trkpt>
      <trkpt lat="42.75923" lon="0.16665">
        <ele>1711</ele>
        <time>2019-02-27T12:56:29Z</time>
      </trkpt>
      <trkpt lat="42.75923" lon="0.16665">
        <ele>1711</ele>
        <time>2019-02-27T12:56:30Z</time>
      </trkpt>
      <trkpt lat="42.75923" lon="0.16665">
        <ele>1711</ele>
        <time>2019-02-27T12:56:31Z</time>
      </trkpt>
      <trkpt lat="42.75923" lon="0.16665">
        <ele>1711</ele>
        <time>2019-02-27T12:56:32Z</time>
      </trkpt>
      <trkpt lat="42.75923" lon="0.16665">
        <ele>1711</ele>
        <time>2019-02-27T12:56:33Z</time>
      </trkpt>
      <trkpt lat="42.75923" lon="0.16665">
        <ele>1711</ele>
        <time>2019-02-27T12:56:34Z</time>
      </trkpt>
      <trkpt lat="42.75923" lon="0.16665">
        <ele>1711</ele>
        <time>2019-02-27T12:56:35Z</time>
      </trkpt>
      <trkpt lat="42.75923" lon="0.16665">
        <ele>1711</ele>
        <time>2019-02-27T12:56:36Z</time>
      </trkpt>
      <trkpt lat="42.75923" lon="0.16665">
        <ele>1711</ele>
        <time>2019-02-27T12:56:37Z</time>
      </trkpt>
      <trkpt lat="42.75923" lon="0.16665">
        <ele>1711</ele>
        <time>2019-02-27T12:56:38Z</time>
      </trkpt>
      <trkpt lat="42.75923" lon="0.16665">
        <ele>1711</ele>
        <time>2019-02-27T12:56:39Z</time>
      </trkpt>
      <trkpt lat="42.75923" lon="0.16665">
        <ele>1711</ele>
        <time>2019-02-27T12:56:40Z</time>
      </trkpt>
      <trkpt lat="42.75923" lon="0.16665">
        <ele>1711</ele>
        <time>2019-02-27T12:56:41Z</time>
      </trkpt>
      <trkpt lat="42.75923" lon="0.16665">
        <ele>1711</ele>
        <time>2019-02-27T12:56:42Z</time>
      </trkpt>
      <trkpt lat="42.75923" lon="0.16665">
        <ele>1711</ele>
        <time>2019-02-27T12:56:43Z</time>
      </trkpt>
      <trkpt lat="42.75923" lon="0.16665">
        <ele>1711</ele>
        <time>2019-02-27T12:56:44Z</time>
      </trkpt>
      <trkpt lat="42.75923" lon="0.16665">
        <ele>1711</ele>
        <time>2019-02-27T12:56:45Z</time>
      </trkpt>
      <trkpt lat="42.75923" lon="0.16665">
        <ele>1711</ele>
        <time>2019-02-27T12:56:46Z</time>
      </trkpt>
      <trkpt lat="42.75923" lon="0.16665">
        <ele>1711</ele>
        <time>2019-02-27T12:56:47Z</time>
      </trkpt>
      <trkpt lat="42.75923" lon="0.16665">
        <ele>1711</ele>
        <time>2019-02-27T12:56:48Z</time>
      </trkpt>
      <trkpt lat="42.75923" lon="0.16665">
        <ele>1711</ele>
        <time>2019-02-27T12:56:49Z</time>
      </trkpt>
      <trkpt lat="42.75923" lon="0.16665">
        <ele>1711</ele>
        <time>2019-02-27T12:56:50Z</time>
      </trkpt>
      <trkpt lat="42.75923" lon="0.16665">
        <ele>1711</ele>
        <time>2019-02-27T12:56:51Z</time>
      </trkpt>
      <trkpt lat="42.75923" lon="0.16665">
        <ele>1711</ele>
        <time>2019-02-27T12:56:52Z</time>
      </trkpt>
      <trkpt lat="42.75923" lon="0.16665">
        <ele>1711</ele>
        <time>2019-02-27T12:56:53Z</time>
      </trkpt>
      <trkpt lat="42.75923" lon="0.16665">
        <ele>1711</ele>
        <time>2019-02-27T12:56:54Z</time>
      </trkpt>
      <trkpt lat="42.75923" lon="0.16665">
        <ele>1711</ele>
        <time>2019-02-27T12:56:55Z</time>
      </trkpt>
      <trkpt lat="42.75923" lon="0.16665">
        <ele>1711</ele>
        <time>2019-02-27T12:56:56Z</time>
      </trkpt>
      <trkpt lat="42.75923" lon="0.16665">
        <ele>1711</ele>
        <time>2019-02-27T12:56:57Z</time>
      </trkpt>
      <trkpt lat="42.75923" lon="0.16665">
        <ele>1711</ele>
        <time>2019-02-27T12:56:58Z</time>
      </trkpt>
      <trkpt lat="42.75923" lon="0.16665">
        <ele>1711</ele>
        <time>2019-02-27T12:56:59Z</time>
      </trkpt>
      <trkpt lat="42.75923" lon="0.16665">
        <ele>1711</ele>
        <time>2019-02-27T12:57:00Z</time>
      </trkpt>
      <trkpt lat="42.75923" lon="0.16665">
        <ele>1711</ele>
        <time>2019-02-27T12:57:01Z</time>
      </trkpt>
      <trkpt lat="42.75923" lon="0.16665">
        <ele>1711</ele>
        <time>2019-02-27T12:57:02Z</time>
      </trkpt>
      <trkpt lat="42.75923" lon="0.16665">
        <ele>1711</ele>
        <time>2019-02-27T12:57:03Z</time>
      </trkpt>
      <trkpt lat="42.75923" lon="0.16665">
        <ele>1711</ele>
        <time>2019-02-27T12:57:04Z</time>
      </trkpt>
      <trkpt lat="42.75923" lon="0.16665">
        <ele>1711</ele>
        <time>2019-02-27T12:57:05Z</time>
      </trkpt>
      <trkpt lat="42.75923" lon="0.16665">
        <ele>1711</ele>
        <time>2019-02-27T12:57:06Z</time>
      </trkpt>
      <trkpt lat="42.75923" lon="0.16665">
        <ele>1711</ele>
        <time>2019-02-27T12:57:07Z</time>
      </trkpt>
      <trkpt lat="42.75923" lon="0.16665">
        <ele>1711</ele>
        <time>2019-02-27T12:57:08Z</time>
      </trkpt>
      <trkpt lat="42.75923" lon="0.16665">
        <ele>1711</ele>
        <time>2019-02-27T12:57:09Z</time>
      </trkpt>
      <trkpt lat="42.75923" lon="0.16665">
        <ele>1711</ele>
        <time>2019-02-27T12:57:10Z</time>
      </trkpt>
      <trkpt lat="42.75923" lon="0.16665">
        <ele>1711</ele>
        <time>2019-02-27T12:57:11Z</time>
      </trkpt>
      <trkpt lat="42.75923" lon="0.16665">
        <ele>1711</ele>
        <time>2019-02-27T12:57:12Z</time>
      </trkpt>
      <trkpt lat="42.75923" lon="0.16665">
        <ele>1711</ele>
        <time>2019-02-27T12:57:13Z</time>
      </trkpt>
      <trkpt lat="42.75923" lon="0.16665">
        <ele>1711</ele>
        <time>2019-02-27T12:57:14Z</time>
      </trkpt>
      <trkpt lat="42.75923" lon="0.16665">
        <ele>1711</ele>
        <time>2019-02-27T12:57:15Z</time>
      </trkpt>
      <trkpt lat="42.75923" lon="0.16665">
        <ele>1711</ele>
        <time>2019-02-27T12:57:16Z</time>
      </trkpt>
      <trkpt lat="42.75923" lon="0.16665">
        <ele>1711</ele>
        <time>2019-02-27T12:57:17Z</time>
      </trkpt>
      <trkpt lat="42.75923" lon="0.16665">
        <ele>1711</ele>
        <time>2019-02-27T12:57:18Z</time>
      </trkpt>
      <trkpt lat="42.75923" lon="0.16665">
        <ele>1711</ele>
        <time>2019-02-27T12:57:19Z</time>
      </trkpt>
      <trkpt lat="42.75923" lon="0.16665">
        <ele>1711</ele>
        <time>2019-02-27T12:57:20Z</time>
      </trkpt>
      <trkpt lat="42.75923" lon="0.16665">
        <ele>1711</ele>
        <time>2019-02-27T12:57:21Z</time>
      </trkpt>
      <trkpt lat="42.75923" lon="0.16665">
        <ele>1711</ele>
        <time>2019-02-27T12:57:22Z</time>
      </trkpt>
      <trkpt lat="42.75923" lon="0.16665">
        <ele>1711</ele>
        <time>2019-02-27T12:57:23Z</time>
      </trkpt>
      <trkpt lat="42.75923" lon="0.16665">
        <ele>1711</ele>
        <time>2019-02-27T12:57:24Z</time>
      </trkpt>
      <trkpt lat="42.75923" lon="0.16665">
        <ele>1711</ele>
        <time>2019-02-27T12:57:25Z</time>
      </trkpt>
      <trkpt lat="42.75923" lon="0.16665">
        <ele>1711</ele>
        <time>2019-02-27T12:57:26Z</time>
      </trkpt>
      <trkpt lat="42.75923" lon="0.16665">
        <ele>1711</ele>
        <time>2019-02-27T12:57:27Z</time>
      </trkpt>
      <trkpt lat="42.75923" lon="0.16665">
        <ele>1711</ele>
        <time>2019-02-27T12:57:28Z</time>
      </trkpt>
      <trkpt lat="42.75923" lon="0.16665">
        <ele>1711</ele>
        <time>2019-02-27T12:57:29Z</time>
      </trkpt>
      <trkpt lat="42.75923" lon="0.16665">
        <ele>1711</ele>
        <time>2019-02-27T12:57:30Z</time>
      </trkpt>
      <trkpt lat="42.75923" lon="0.16665">
        <ele>1711</ele>
        <time>2019-02-27T12:57:31Z</time>
      </trkpt>
      <trkpt lat="42.75923" lon="0.16665">
        <ele>1711</ele>
        <time>2019-02-27T12:57:32Z</time>
      </trkpt>
      <trkpt lat="42.75923" lon="0.16665">
        <ele>1711</ele>
        <time>2019-02-27T12:57:33Z</time>
      </trkpt>
      <trkpt lat="42.75923" lon="0.16665">
        <ele>1711</ele>
        <time>2019-02-27T12:57:34Z</time>
      </trkpt>
      <trkpt lat="42.75923" lon="0.16665">
        <ele>1711</ele>
        <time>2019-02-27T12:57:35Z</time>
      </trkpt>
      <trkpt lat="42.75923" lon="0.16665">
        <ele>1711</ele>
        <time>2019-02-27T12:57:36Z</time>
      </trkpt>
      <trkpt lat="42.75923" lon="0.16665">
        <ele>1711</ele>
        <time>2019-02-27T12:57:37Z</time>
      </trkpt>
      <trkpt lat="42.75923" lon="0.16665">
        <ele>1711</ele>
        <time>2019-02-27T12:57:38Z</time>
      </trkpt>
      <trkpt lat="42.75923" lon="0.16665">
        <ele>1711</ele>
        <time>2019-02-27T12:57:39Z</time>
      </trkpt>
      <trkpt lat="42.75923" lon="0.16665">
        <ele>1711</ele>
        <time>2019-02-27T12:57:40Z</time>
      </trkpt>
      <trkpt lat="42.75923" lon="0.16665">
        <ele>1711</ele>
        <time>2019-02-27T12:57:41Z</time>
      </trkpt>
      <trkpt lat="42.75923" lon="0.16665">
        <ele>1711</ele>
        <time>2019-02-27T12:57:42Z</time>
      </trkpt>
      <trkpt lat="42.75923" lon="0.16665">
        <ele>1711</ele>
        <time>2019-02-27T12:57:43Z</time>
      </trkpt>
      <trkpt lat="42.75923" lon="0.16665">
        <ele>1711</ele>
        <time>2019-02-27T12:57:44Z</time>
      </trkpt>
      <trkpt lat="42.75923" lon="0.16665">
        <ele>1711</ele>
        <time>2019-02-27T12:57:45Z</time>
      </trkpt>
      <trkpt lat="42.75923" lon="0.16665">
        <ele>1711</ele>
        <time>2019-02-27T12:57:46Z</time>
      </trkpt>
      <trkpt lat="42.75923" lon="0.16665">
        <ele>1711</ele>
        <time>2019-02-27T12:57:47Z</time>
      </trkpt>
      <trkpt lat="42.75923" lon="0.16665">
        <ele>1711</ele>
        <time>2019-02-27T12:57:48Z</time>
      </trkpt>
      <trkpt lat="42.75923" lon="0.16665">
        <ele>1711</ele>
        <time>2019-02-27T12:57:49Z</time>
      </trkpt>
      <trkpt lat="42.75923" lon="0.16665">
        <ele>1711</ele>
        <time>2019-02-27T12:57:50Z</time>
      </trkpt>
      <trkpt lat="42.75923" lon="0.16665">
        <ele>1711</ele>
        <time>2019-02-27T12:57:51Z</time>
      </trkpt>
      <trkpt lat="42.75923" lon="0.16665">
        <ele>1711</ele>
        <time>2019-02-27T12:57:52Z</time>
      </trkpt>
      <trkpt lat="42.75923" lon="0.16665">
        <ele>1711</ele>
        <time>2019-02-27T12:57:53Z</time>
      </trkpt>
      <trkpt lat="42.75923" lon="0.16665">
        <ele>1711</ele>
        <time>2019-02-27T12:57:54Z</time>
      </trkpt>
      <trkpt lat="42.75923" lon="0.16665">
        <ele>1711</ele>
        <time>2019-02-27T12:57:55Z</time>
      </trkpt>
      <trkpt lat="42.75923" lon="0.16665">
        <ele>1711</ele>
        <time>2019-02-27T12:57:56Z</time>
      </trkpt>
      <trkpt lat="42.75923" lon="0.16665">
        <ele>1711</ele>
        <time>2019-02-27T12:57:57Z</time>
      </trkpt>
      <trkpt lat="42.75923" lon="0.16665">
        <ele>1711</ele>
        <time>2019-02-27T12:57:58Z</time>
      </trkpt>
      <trkpt lat="42.75923" lon="0.16665">
        <ele>1711</ele>
        <time>2019-02-27T12:57:59Z</time>
      </trkpt>
      <trkpt lat="42.75923" lon="0.16665">
        <ele>1711</ele>
        <time>2019-02-27T12:58:00Z</time>
      </trkpt>
      <trkpt lat="42.75923" lon="0.16665">
        <ele>1711</ele>
        <time>2019-02-27T12:58:01Z</time>
      </trkpt>
      <trkpt lat="42.75923" lon="0.16665">
        <ele>1711</ele>
        <time>2019-02-27T12:58:02Z</time>
      </trkpt>
      <trkpt lat="42.75923" lon="0.16665">
        <ele>1711</ele>
        <time>2019-02-27T12:58:03Z</time>
      </trkpt>
      <trkpt lat="42.75923" lon="0.16665">
        <ele>1711</ele>
        <time>2019-02-27T12:58:04Z</time>
      </trkpt>
      <trkpt lat="42.75923" lon="0.16665">
        <ele>1711</ele>
        <time>2019-02-27T12:58:05Z</time>
      </trkpt>
      <trkpt lat="42.75923" lon="0.16665">
        <ele>1711</ele>
        <time>2019-02-27T12:58:06Z</time>
      </trkpt>
      <trkpt lat="42.75923" lon="0.16665">
        <ele>1711</ele>
        <time>2019-02-27T12:58:07Z</time>
      </trkpt>
      <trkpt lat="42.75923" lon="0.16665">
        <ele>1711</ele>
        <time>2019-02-27T12:58:08Z</time>
      </trkpt>
      <trkpt lat="42.75923" lon="0.16665">
        <ele>1711</ele>
        <time>2019-02-27T12:58:09Z</time>
      </trkpt>
      <trkpt lat="42.75923" lon="0.16665">
        <ele>1711</ele>
        <time>2019-02-27T12:58:10Z</time>
      </trkpt>
      <trkpt lat="42.75923" lon="0.16665">
        <ele>1711</ele>
        <time>2019-02-27T12:58:11Z</time>
      </trkpt>
      <trkpt lat="42.75923" lon="0.16665">
        <ele>1711</ele>
        <time>2019-02-27T12:58:12Z</time>
      </trkpt>
      <trkpt lat="42.75923" lon="0.16665">
        <ele>1711</ele>
        <time>2019-02-27T12:58:13Z</time>
      </trkpt>
      <trkpt lat="42.75923" lon="0.16665">
        <ele>1711</ele>
        <time>2019-02-27T12:58:14Z</time>
      </trkpt>
      <trkpt lat="42.75923" lon="0.16665">
        <ele>1711</ele>
        <time>2019-02-27T12:58:15Z</time>
      </trkpt>
      <trkpt lat="42.75923" lon="0.16665">
        <ele>1711</ele>
        <time>2019-02-27T12:58:16Z</time>
      </trkpt>
      <trkpt lat="42.75923" lon="0.16665">
        <ele>1711</ele>
        <time>2019-02-27T12:58:17Z</time>
      </trkpt>
      <trkpt lat="42.75923" lon="0.16665">
        <ele>1711</ele>
        <time>2019-02-27T12:58:18Z</time>
      </trkpt>
      <trkpt lat="42.75923" lon="0.16665">
        <ele>1711</ele>
        <time>2019-02-27T12:58:19Z</time>
      </trkpt>
      <trkpt lat="42.75923" lon="0.16665">
        <ele>1711</ele>
        <time>2019-02-27T12:58:20Z</time>
      </trkpt>
      <trkpt lat="42.75923" lon="0.16665">
        <ele>1711</ele>
        <time>2019-02-27T12:58:21Z</time>
      </trkpt>
      <trkpt lat="42.75923" lon="0.16665">
        <ele>1711</ele>
        <time>2019-02-27T12:58:22Z</time>
      </trkpt>
      <trkpt lat="42.75923" lon="0.16665">
        <ele>1711</ele>
        <time>2019-02-27T12:58:23Z</time>
      </trkpt>
      <trkpt lat="42.75923" lon="0.16665">
        <ele>1711</ele>
        <time>2019-02-27T12:58:24Z</time>
      </trkpt>
      <trkpt lat="42.75923" lon="0.16665">
        <ele>1711</ele>
        <time>2019-02-27T12:58:25Z</time>
      </trkpt>
      <trkpt lat="42.75925" lon="0.16664">
        <ele>1711</ele>
        <time>2019-02-27T12:58:26Z</time>
      </trkpt>
      <trkpt lat="42.75925" lon="0.16664">
        <ele>1711</ele>
        <time>2019-02-27T12:58:27Z</time>
      </trkpt>
      <trkpt lat="42.75925" lon="0.16664">
        <ele>1711</ele>
        <time>2019-02-27T12:58:28Z</time>
      </trkpt>
      <trkpt lat="42.75925" lon="0.16664">
        <ele>1711</ele>
        <time>2019-02-27T12:58:29Z</time>
      </trkpt>
      <trkpt lat="42.75925" lon="0.16664">
        <ele>1711</ele>
        <time>2019-02-27T12:58:30Z</time>
      </trkpt>
      <trkpt lat="42.75925" lon="0.16664">
        <ele>1711</ele>
        <time>2019-02-27T12:58:31Z</time>
      </trkpt>
      <trkpt lat="42.75925" lon="0.16664">
        <ele>1711</ele>
        <time>2019-02-27T12:58:32Z</time>
      </trkpt>
      <trkpt lat="42.75925" lon="0.16664">
        <ele>1711</ele>
        <time>2019-02-27T12:58:33Z</time>
      </trkpt>
      <trkpt lat="42.75925" lon="0.16664">
        <ele>1711</ele>
        <time>2019-02-27T12:58:34Z</time>
      </trkpt>
      <trkpt lat="42.75925" lon="0.16664">
        <ele>1711</ele>
        <time>2019-02-27T12:58:35Z</time>
      </trkpt>
      <trkpt lat="42.75925" lon="0.16664">
        <ele>1711</ele>
        <time>2019-02-27T12:58:36Z</time>
      </trkpt>
      <trkpt lat="42.75925" lon="0.16664">
        <ele>1711</ele>
        <time>2019-02-27T12:58:37Z</time>
      </trkpt>
      <trkpt lat="42.75925" lon="0.16664">
        <ele>1711</ele>
        <time>2019-02-27T12:58:38Z</time>
      </trkpt>
      <trkpt lat="42.75925" lon="0.16664">
        <ele>1711</ele>
        <time>2019-02-27T12:58:39Z</time>
      </trkpt>
      <trkpt lat="42.75925" lon="0.16664">
        <ele>1711</ele>
        <time>2019-02-27T12:58:40Z</time>
      </trkpt>
      <trkpt lat="42.75925" lon="0.16664">
        <ele>1711</ele>
        <time>2019-02-27T12:58:41Z</time>
      </trkpt>
      <trkpt lat="42.75925" lon="0.16664">
        <ele>1711</ele>
        <time>2019-02-27T12:58:42Z</time>
      </trkpt>
      <trkpt lat="42.75925" lon="0.16664">
        <ele>1711</ele>
        <time>2019-02-27T12:58:43Z</time>
      </trkpt>
      <trkpt lat="42.75925" lon="0.16664">
        <ele>1711</ele>
        <time>2019-02-27T12:58:44Z</time>
      </trkpt>
      <trkpt lat="42.75925" lon="0.16664">
        <ele>1711</ele>
        <time>2019-02-27T12:58:45Z</time>
      </trkpt>
      <trkpt lat="42.75925" lon="0.16664">
        <ele>1711</ele>
        <time>2019-02-27T12:58:46Z</time>
      </trkpt>
      <trkpt lat="42.75925" lon="0.16664">
        <ele>1711</ele>
        <time>2019-02-27T12:58:47Z</time>
      </trkpt>
      <trkpt lat="42.75925" lon="0.16664">
        <ele>1711</ele>
        <time>2019-02-27T12:58:48Z</time>
      </trkpt>
      <trkpt lat="42.75925" lon="0.16664">
        <ele>1711</ele>
        <time>2019-02-27T12:58:49Z</time>
      </trkpt>
      <trkpt lat="42.75925" lon="0.16664">
        <ele>1711</ele>
        <time>2019-02-27T12:58:50Z</time>
      </trkpt>
      <trkpt lat="42.75925" lon="0.16664">
        <ele>1711</ele>
        <time>2019-02-27T12:58:51Z</time>
      </trkpt>
      <trkpt lat="42.75925" lon="0.16664">
        <ele>1711</ele>
        <time>2019-02-27T12:58:52Z</time>
      </trkpt>
      <trkpt lat="42.75925" lon="0.16664">
        <ele>1711</ele>
        <time>2019-02-27T12:58:53Z</time>
      </trkpt>
      <trkpt lat="42.75925" lon="0.16664">
        <ele>1711</ele>
        <time>2019-02-27T12:58:54Z</time>
      </trkpt>
      <trkpt lat="42.75925" lon="0.16664">
        <ele>1711</ele>
        <time>2019-02-27T12:58:55Z</time>
      </trkpt>
      <trkpt lat="42.75925" lon="0.16664">
        <ele>1711</ele>
        <time>2019-02-27T12:58:56Z</time>
      </trkpt>
      <trkpt lat="42.75925" lon="0.16664">
        <ele>1711</ele>
        <time>2019-02-27T12:58:57Z</time>
      </trkpt>
      <trkpt lat="42.75925" lon="0.16664">
        <ele>1711</ele>
        <time>2019-02-27T12:58:58Z</time>
      </trkpt>
      <trkpt lat="42.75925" lon="0.16664">
        <ele>1711</ele>
        <time>2019-02-27T12:58:59Z</time>
      </trkpt>
      <trkpt lat="42.75925" lon="0.16664">
        <ele>1711</ele>
        <time>2019-02-27T12:59:00Z</time>
      </trkpt>
      <trkpt lat="42.75925" lon="0.16664">
        <ele>1711</ele>
        <time>2019-02-27T12:59:01Z</time>
      </trkpt>
      <trkpt lat="42.75925" lon="0.16664">
        <ele>1711</ele>
        <time>2019-02-27T12:59:02Z</time>
      </trkpt>
      <trkpt lat="42.75925" lon="0.16664">
        <ele>1711</ele>
        <time>2019-02-27T12:59:03Z</time>
      </trkpt>
      <trkpt lat="42.75925" lon="0.16664">
        <ele>1711</ele>
        <time>2019-02-27T12:59:04Z</time>
      </trkpt>
      <trkpt lat="42.75925" lon="0.16664">
        <ele>1711</ele>
        <time>2019-02-27T12:59:05Z</time>
      </trkpt>
      <trkpt lat="42.75925" lon="0.16664">
        <ele>1711</ele>
        <time>2019-02-27T12:59:06Z</time>
      </trkpt>
      <trkpt lat="42.75925" lon="0.16664">
        <ele>1711</ele>
        <time>2019-02-27T12:59:07Z</time>
      </trkpt>
      <trkpt lat="42.75925" lon="0.16664">
        <ele>1711</ele>
        <time>2019-02-27T12:59:08Z</time>
      </trkpt>
      <trkpt lat="42.75925" lon="0.16664">
        <ele>1711</ele>
        <time>2019-02-27T12:59:09Z</time>
      </trkpt>
      <trkpt lat="42.75925" lon="0.16664">
        <ele>1711</ele>
        <time>2019-02-27T12:59:10Z</time>
      </trkpt>
      <trkpt lat="42.75925" lon="0.16664">
        <ele>1711</ele>
        <time>2019-02-27T12:59:11Z</time>
      </trkpt>
      <trkpt lat="42.75925" lon="0.16664">
        <ele>1711</ele>
        <time>2019-02-27T12:59:12Z</time>
      </trkpt>
      <trkpt lat="42.75925" lon="0.16664">
        <ele>1711</ele>
        <time>2019-02-27T12:59:13Z</time>
      </trkpt>
      <trkpt lat="42.75925" lon="0.16664">
        <ele>1711</ele>
        <time>2019-02-27T12:59:14Z</time>
      </trkpt>
      <trkpt lat="42.75925" lon="0.16664">
        <ele>1711</ele>
        <time>2019-02-27T12:59:15Z</time>
      </trkpt>
      <trkpt lat="42.75925" lon="0.16664">
        <ele>1711</ele>
        <time>2019-02-27T12:59:16Z</time>
      </trkpt>
      <trkpt lat="42.75925" lon="0.16664">
        <ele>1711</ele>
        <time>2019-02-27T12:59:17Z</time>
      </trkpt>
      <trkpt lat="42.75925" lon="0.16664">
        <ele>1711</ele>
        <time>2019-02-27T12:59:18Z</time>
      </trkpt>
      <trkpt lat="42.75925" lon="0.16664">
        <ele>1711</ele>
        <time>2019-02-27T12:59:19Z</time>
      </trkpt>
      <trkpt lat="42.75925" lon="0.16664">
        <ele>1711</ele>
        <time>2019-02-27T12:59:20Z</time>
      </trkpt>
      <trkpt lat="42.75925" lon="0.16664">
        <ele>1711</ele>
        <time>2019-02-27T12:59:21Z</time>
      </trkpt>
      <trkpt lat="42.75925" lon="0.16664">
        <ele>1711</ele>
        <time>2019-02-27T12:59:22Z</time>
      </trkpt>
      <trkpt lat="42.75925" lon="0.16664">
        <ele>1711</ele>
        <time>2019-02-27T12:59:23Z</time>
      </trkpt>
      <trkpt lat="42.75925" lon="0.16664">
        <ele>1711</ele>
        <time>2019-02-27T12:59:24Z</time>
      </trkpt>
      <trkpt lat="42.75925" lon="0.16664">
        <ele>1711</ele>
        <time>2019-02-27T12:59:25Z</time>
      </trkpt>
      <trkpt lat="42.75925" lon="0.16664">
        <ele>1711</ele>
        <time>2019-02-27T12:59:26Z</time>
      </trkpt>
      <trkpt lat="42.75925" lon="0.16664">
        <ele>1711</ele>
        <time>2019-02-27T12:59:27Z</time>
      </trkpt>
      <trkpt lat="42.75925" lon="0.16664">
        <ele>1711</ele>
        <time>2019-02-27T12:59:28Z</time>
      </trkpt>
      <trkpt lat="42.75925" lon="0.16664">
        <ele>1711</ele>
        <time>2019-02-27T12:59:29Z</time>
      </trkpt>
      <trkpt lat="42.75925" lon="0.16664">
        <ele>1711</ele>
        <time>2019-02-27T12:59:30Z</time>
      </trkpt>
      <trkpt lat="42.75925" lon="0.16664">
        <ele>1711</ele>
        <time>2019-02-27T12:59:31Z</time>
      </trkpt>
      <trkpt lat="42.75925" lon="0.16664">
        <ele>1711</ele>
        <time>2019-02-27T12:59:32Z</time>
      </trkpt>
      <trkpt lat="42.75925" lon="0.16664">
        <ele>1711</ele>
        <time>2019-02-27T12:59:33Z</time>
      </trkpt>
      <trkpt lat="42.75925" lon="0.16664">
        <ele>1711</ele>
        <time>2019-02-27T12:59:34Z</time>
      </trkpt>
      <trkpt lat="42.75925" lon="0.16664">
        <ele>1711</ele>
        <time>2019-02-27T12:59:35Z</time>
      </trkpt>
      <trkpt lat="42.75925" lon="0.16664">
        <ele>1711</ele>
        <time>2019-02-27T12:59:36Z</time>
      </trkpt>
      <trkpt lat="42.75925" lon="0.16664">
        <ele>1711</ele>
        <time>2019-02-27T12:59:37Z</time>
      </trkpt>
      <trkpt lat="42.75925" lon="0.16664">
        <ele>1711</ele>
        <time>2019-02-27T12:59:38Z</time>
      </trkpt>
      <trkpt lat="42.75925" lon="0.16664">
        <ele>1711</ele>
        <time>2019-02-27T12:59:39Z</time>
      </trkpt>
      <trkpt lat="42.75925" lon="0.16664">
        <ele>1711</ele>
        <time>2019-02-27T12:59:40Z</time>
      </trkpt>
      <trkpt lat="42.75925" lon="0.16664">
        <ele>1711</ele>
        <time>2019-02-27T12:59:41Z</time>
      </trkpt>
      <trkpt lat="42.75925" lon="0.16664">
        <ele>1711</ele>
        <time>2019-02-27T12:59:42Z</time>
      </trkpt>
      <trkpt lat="42.75925" lon="0.16664">
        <ele>1711</ele>
        <time>2019-02-27T12:59:43Z</time>
      </trkpt>
      <trkpt lat="42.75925" lon="0.16664">
        <ele>1711</ele>
        <time>2019-02-27T12:59:44Z</time>
      </trkpt>
      <trkpt lat="42.75925" lon="0.16664">
        <ele>1711</ele>
        <time>2019-02-27T12:59:45Z</time>
      </trkpt>
      <trkpt lat="42.75925" lon="0.16664">
        <ele>1711</ele>
        <time>2019-02-27T12:59:46Z</time>
      </trkpt>
      <trkpt lat="42.75923" lon="0.16664">
        <ele>1711</ele>
        <time>2019-02-27T12:59:47Z</time>
      </trkpt>
      <trkpt lat="42.75923" lon="0.16664">
        <ele>1711</ele>
        <time>2019-02-27T12:59:48Z</time>
      </trkpt>
      <trkpt lat="42.75923" lon="0.16664">
        <ele>1711</ele>
        <time>2019-02-27T12:59:49Z</time>
      </trkpt>
      <trkpt lat="42.75923" lon="0.16664">
        <ele>1711</ele>
        <time>2019-02-27T12:59:50Z</time>
      </trkpt>
      <trkpt lat="42.75923" lon="0.16664">
        <ele>1711</ele>
        <time>2019-02-27T12:59:51Z</time>
      </trkpt>
      <trkpt lat="42.75923" lon="0.16664">
        <ele>1711</ele>
        <time>2019-02-27T12:59:52Z</time>
      </trkpt>
      <trkpt lat="42.75923" lon="0.16664">
        <ele>1711</ele>
        <time>2019-02-27T12:59:53Z</time>
      </trkpt>
      <trkpt lat="42.75923" lon="0.16664">
        <ele>1711</ele>
        <time>2019-02-27T12:59:54Z</time>
      </trkpt>
      <trkpt lat="42.75923" lon="0.16664">
        <ele>1711</ele>
        <time>2019-02-27T12:59:55Z</time>
      </trkpt>
      <trkpt lat="42.75923" lon="0.16664">
        <ele>1711</ele>
        <time>2019-02-27T12:59:56Z</time>
      </trkpt>
      <trkpt lat="42.75923" lon="0.16664">
        <ele>1711</ele>
        <time>2019-02-27T12:59:57Z</time>
      </trkpt>
      <trkpt lat="42.75923" lon="0.16664">
        <ele>1711</ele>
        <time>2019-02-27T12:59:58Z</time>
      </trkpt>
      <trkpt lat="42.75923" lon="0.16664">
        <ele>1711</ele>
        <time>2019-02-27T12:59:59Z</time>
      </trkpt>
      <trkpt lat="42.75923" lon="0.16664">
        <ele>1711</ele>
        <time>2019-02-27T13:00:00Z</time>
      </trkpt>
      <trkpt lat="42.75923" lon="0.16664">
        <ele>1711</ele>
        <time>2019-02-27T13:00:01Z</time>
      </trkpt>
      <trkpt lat="42.75923" lon="0.16664">
        <ele>1711</ele>
        <time>2019-02-27T13:00:02Z</time>
      </trkpt>
      <trkpt lat="42.75923" lon="0.16664">
        <ele>1711</ele>
        <time>2019-02-27T13:00:03Z</time>
      </trkpt>
      <trkpt lat="42.75923" lon="0.16664">
        <ele>1711</ele>
        <time>2019-02-27T13:00:04Z</time>
      </trkpt>
      <trkpt lat="42.75923" lon="0.16664">
        <ele>1711</ele>
        <time>2019-02-27T13:00:05Z</time>
      </trkpt>
      <trkpt lat="42.75923" lon="0.16664">
        <ele>1711</ele>
        <time>2019-02-27T13:00:06Z</time>
      </trkpt>
      <trkpt lat="42.75923" lon="0.16664">
        <ele>1711</ele>
        <time>2019-02-27T13:00:07Z</time>
      </trkpt>
      <trkpt lat="42.75923" lon="0.16664">
        <ele>1711</ele>
        <time>2019-02-27T13:00:08Z</time>
      </trkpt>
      <trkpt lat="42.75923" lon="0.16664">
        <ele>1711</ele>
        <time>2019-02-27T13:00:09Z</time>
      </trkpt>
      <trkpt lat="42.75923" lon="0.16664">
        <ele>1711</ele>
        <time>2019-02-27T13:00:10Z</time>
      </trkpt>
      <trkpt lat="42.75923" lon="0.16664">
        <ele>1711</ele>
        <time>2019-02-27T13:00:11Z</time>
      </trkpt>
      <trkpt lat="42.75923" lon="0.16664">
        <ele>1711</ele>
        <time>2019-02-27T13:00:12Z</time>
      </trkpt>
      <trkpt lat="42.75923" lon="0.16664">
        <ele>1711</ele>
        <time>2019-02-27T13:00:13Z</time>
      </trkpt>
      <trkpt lat="42.75923" lon="0.16664">
        <ele>1711</ele>
        <time>2019-02-27T13:00:14Z</time>
      </trkpt>
      <trkpt lat="42.75923" lon="0.16664">
        <ele>1711</ele>
        <time>2019-02-27T13:00:15Z</time>
      </trkpt>
      <trkpt lat="42.75923" lon="0.16664">
        <ele>1711</ele>
        <time>2019-02-27T13:00:16Z</time>
      </trkpt>
      <trkpt lat="42.75923" lon="0.16664">
        <ele>1711</ele>
        <time>2019-02-27T13:00:17Z</time>
      </trkpt>
      <trkpt lat="42.75923" lon="0.16664">
        <ele>1711</ele>
        <time>2019-02-27T13:00:18Z</time>
      </trkpt>
      <trkpt lat="42.75923" lon="0.16664">
        <ele>1711</ele>
        <time>2019-02-27T13:00:19Z</time>
      </trkpt>
      <trkpt lat="42.75923" lon="0.16664">
        <ele>1711</ele>
        <time>2019-02-27T13:00:20Z</time>
      </trkpt>
      <trkpt lat="42.75923" lon="0.16664">
        <ele>1711</ele>
        <time>2019-02-27T13:00:21Z</time>
      </trkpt>
      <trkpt lat="42.75923" lon="0.16664">
        <ele>1711</ele>
        <time>2019-02-27T13:00:22Z</time>
      </trkpt>
      <trkpt lat="42.75923" lon="0.16664">
        <ele>1711</ele>
        <time>2019-02-27T13:00:23Z</time>
      </trkpt>
      <trkpt lat="42.75923" lon="0.16664">
        <ele>1711</ele>
        <time>2019-02-27T13:00:24Z</time>
      </trkpt>
      <trkpt lat="42.75923" lon="0.16664">
        <ele>1711</ele>
        <time>2019-02-27T13:00:25Z</time>
      </trkpt>
      <trkpt lat="42.75923" lon="0.16664">
        <ele>1711</ele>
        <time>2019-02-27T13:00:26Z</time>
      </trkpt>
      <trkpt lat="42.75923" lon="0.16664">
        <ele>1711</ele>
        <time>2019-02-27T13:00:27Z</time>
      </trkpt>
      <trkpt lat="42.75923" lon="0.16664">
        <ele>1711</ele>
        <time>2019-02-27T13:00:28Z</time>
      </trkpt>
      <trkpt lat="42.75923" lon="0.16664">
        <ele>1711</ele>
        <time>2019-02-27T13:00:29Z</time>
      </trkpt>
      <trkpt lat="42.75921" lon="0.16663">
        <ele>1711</ele>
        <time>2019-02-27T13:00:30Z</time>
      </trkpt>
      <trkpt lat="42.75921" lon="0.16663">
        <ele>1711</ele>
        <time>2019-02-27T13:00:31Z</time>
      </trkpt>
      <trkpt lat="42.75921" lon="0.16663">
        <ele>1711</ele>
        <time>2019-02-27T13:00:32Z</time>
      </trkpt>
      <trkpt lat="42.75921" lon="0.16663">
        <ele>1711</ele>
        <time>2019-02-27T13:00:33Z</time>
      </trkpt>
      <trkpt lat="42.75921" lon="0.16663">
        <ele>1711</ele>
        <time>2019-02-27T13:00:34Z</time>
      </trkpt>
      <trkpt lat="42.75921" lon="0.16663">
        <ele>1711</ele>
        <time>2019-02-27T13:00:35Z</time>
      </trkpt>
      <trkpt lat="42.75921" lon="0.16663">
        <ele>1711</ele>
        <time>2019-02-27T13:00:36Z</time>
      </trkpt>
      <trkpt lat="42.75921" lon="0.16663">
        <ele>1711</ele>
        <time>2019-02-27T13:00:37Z</time>
      </trkpt>
      <trkpt lat="42.75921" lon="0.16663">
        <ele>1711</ele>
        <time>2019-02-27T13:00:38Z</time>
      </trkpt>
      <trkpt lat="42.75921" lon="0.16663">
        <ele>1711</ele>
        <time>2019-02-27T13:00:39Z</time>
      </trkpt>
      <trkpt lat="42.75921" lon="0.16663">
        <ele>1711</ele>
        <time>2019-02-27T13:00:40Z</time>
      </trkpt>
      <trkpt lat="42.75921" lon="0.16663">
        <ele>1711</ele>
        <time>2019-02-27T13:00:41Z</time>
      </trkpt>
      <trkpt lat="42.75921" lon="0.16663">
        <ele>1711</ele>
        <time>2019-02-27T13:00:42Z</time>
      </trkpt>
      <trkpt lat="42.75921" lon="0.16663">
        <ele>1711</ele>
        <time>2019-02-27T13:00:43Z</time>
      </trkpt>
      <trkpt lat="42.75921" lon="0.16663">
        <ele>1711</ele>
        <time>2019-02-27T13:00:44Z</time>
      </trkpt>
      <trkpt lat="42.75921" lon="0.16663">
        <ele>1711</ele>
        <time>2019-02-27T13:00:45Z</time>
      </trkpt>
      <trkpt lat="42.75921" lon="0.16663">
        <ele>1711</ele>
        <time>2019-02-27T13:00:46Z</time>
      </trkpt>
      <trkpt lat="42.75921" lon="0.16663">
        <ele>1711</ele>
        <time>2019-02-27T13:00:47Z</time>
      </trkpt>
      <trkpt lat="42.75921" lon="0.16663">
        <ele>1711</ele>
        <time>2019-02-27T13:00:48Z</time>
      </trkpt>
      <trkpt lat="42.75921" lon="0.16663">
        <ele>1711</ele>
        <time>2019-02-27T13:00:49Z</time>
      </trkpt>
      <trkpt lat="42.75921" lon="0.16663">
        <ele>1711</ele>
        <time>2019-02-27T13:00:50Z</time>
      </trkpt>
      <trkpt lat="42.75921" lon="0.16663">
        <ele>1711</ele>
        <time>2019-02-27T13:00:51Z</time>
      </trkpt>
      <trkpt lat="42.75921" lon="0.16663">
        <ele>1711</ele>
        <time>2019-02-27T13:00:52Z</time>
      </trkpt>
      <trkpt lat="42.75921" lon="0.16663">
        <ele>1711</ele>
        <time>2019-02-27T13:00:53Z</time>
      </trkpt>
      <trkpt lat="42.75921" lon="0.16663">
        <ele>1711</ele>
        <time>2019-02-27T13:00:54Z</time>
      </trkpt>
      <trkpt lat="42.75921" lon="0.16663">
        <ele>1711</ele>
        <time>2019-02-27T13:00:55Z</time>
      </trkpt>
      <trkpt lat="42.75923" lon="0.16663">
        <ele>1711</ele>
        <time>2019-02-27T13:00:56Z</time>
      </trkpt>
      <trkpt lat="42.75923" lon="0.16663">
        <ele>1711</ele>
        <time>2019-02-27T13:00:57Z</time>
      </trkpt>
      <trkpt lat="42.75923" lon="0.16663">
        <ele>1711</ele>
        <time>2019-02-27T13:00:58Z</time>
      </trkpt>
      <trkpt lat="42.75923" lon="0.16663">
        <ele>1711</ele>
        <time>2019-02-27T13:00:59Z</time>
      </trkpt>
      <trkpt lat="42.75923" lon="0.16663">
        <ele>1711</ele>
        <time>2019-02-27T13:01:00Z</time>
      </trkpt>
      <trkpt lat="42.75924" lon="0.16665">
        <ele>1711</ele>
        <time>2019-02-27T13:01:01Z</time>
      </trkpt>
      <trkpt lat="42.75924" lon="0.16665">
        <ele>1711</ele>
        <time>2019-02-27T13:01:02Z</time>
      </trkpt>
      <trkpt lat="42.75924" lon="0.16665">
        <ele>1711</ele>
        <time>2019-02-27T13:01:03Z</time>
      </trkpt>
      <trkpt lat="42.75924" lon="0.16665">
        <ele>1711</ele>
        <time>2019-02-27T13:01:04Z</time>
      </trkpt>
      <trkpt lat="42.75924" lon="0.16665">
        <ele>1711</ele>
        <time>2019-02-27T13:01:05Z</time>
      </trkpt>
      <trkpt lat="42.75924" lon="0.16665">
        <ele>1711</ele>
        <time>2019-02-27T13:01:06Z</time>
      </trkpt>
      <trkpt lat="42.75924" lon="0.16665">
        <ele>1711</ele>
        <time>2019-02-27T13:01:07Z</time>
      </trkpt>
      <trkpt lat="42.75924" lon="0.16665">
        <ele>1711</ele>
        <time>2019-02-27T13:01:08Z</time>
      </trkpt>
      <trkpt lat="42.75924" lon="0.16665">
        <ele>1711</ele>
        <time>2019-02-27T13:01:09Z</time>
      </trkpt>
      <trkpt lat="42.75924" lon="0.16665">
        <ele>1711</ele>
        <time>2019-02-27T13:01:10Z</time>
      </trkpt>
      <trkpt lat="42.75924" lon="0.16665">
        <ele>1711</ele>
        <time>2019-02-27T13:01:11Z</time>
      </trkpt>
      <trkpt lat="42.75924" lon="0.16665">
        <ele>1711</ele>
        <time>2019-02-27T13:01:12Z</time>
      </trkpt>
      <trkpt lat="42.75924" lon="0.16665">
        <ele>1711</ele>
        <time>2019-02-27T13:01:13Z</time>
      </trkpt>
      <trkpt lat="42.75924" lon="0.16665">
        <ele>1711</ele>
        <time>2019-02-27T13:01:14Z</time>
      </trkpt>
      <trkpt lat="42.75924" lon="0.16665">
        <ele>1711</ele>
        <time>2019-02-27T13:01:15Z</time>
      </trkpt>
      <trkpt lat="42.75924" lon="0.16665">
        <ele>1711</ele>
        <time>2019-02-27T13:01:16Z</time>
      </trkpt>
      <trkpt lat="42.75924" lon="0.16665">
        <ele>1711</ele>
        <time>2019-02-27T13:01:17Z</time>
      </trkpt>
      <trkpt lat="42.75924" lon="0.16665">
        <ele>1711</ele>
        <time>2019-02-27T13:01:18Z</time>
      </trkpt>
      <trkpt lat="42.75924" lon="0.16665">
        <ele>1711</ele>
        <time>2019-02-27T13:01:19Z</time>
      </trkpt>
      <trkpt lat="42.75924" lon="0.16665">
        <ele>1711</ele>
        <time>2019-02-27T13:01:20Z</time>
      </trkpt>
      <trkpt lat="42.75924" lon="0.16665">
        <ele>1711</ele>
        <time>2019-02-27T13:01:21Z</time>
      </trkpt>
      <trkpt lat="42.75924" lon="0.16665">
        <ele>1711</ele>
        <time>2019-02-27T13:01:22Z</time>
      </trkpt>
      <trkpt lat="42.75924" lon="0.16665">
        <ele>1711</ele>
        <time>2019-02-27T13:01:23Z</time>
      </trkpt>
      <trkpt lat="42.75924" lon="0.16665">
        <ele>1711</ele>
        <time>2019-02-27T13:01:24Z</time>
      </trkpt>
      <trkpt lat="42.75924" lon="0.16665">
        <ele>1711</ele>
        <time>2019-02-27T13:01:25Z</time>
      </trkpt>
      <trkpt lat="42.75924" lon="0.16665">
        <ele>1711</ele>
        <time>2019-02-27T13:01:26Z</time>
      </trkpt>
      <trkpt lat="42.75924" lon="0.16665">
        <ele>1711</ele>
        <time>2019-02-27T13:01:27Z</time>
      </trkpt>
      <trkpt lat="42.75924" lon="0.16665">
        <ele>1711</ele>
        <time>2019-02-27T13:01:28Z</time>
      </trkpt>
      <trkpt lat="42.75924" lon="0.16665">
        <ele>1711</ele>
        <time>2019-02-27T13:01:29Z</time>
      </trkpt>
      <trkpt lat="42.75924" lon="0.16665">
        <ele>1711</ele>
        <time>2019-02-27T13:01:30Z</time>
      </trkpt>
      <trkpt lat="42.75924" lon="0.16665">
        <ele>1711</ele>
        <time>2019-02-27T13:01:31Z</time>
      </trkpt>
      <trkpt lat="42.75924" lon="0.16665">
        <ele>1711</ele>
        <time>2019-02-27T13:01:32Z</time>
      </trkpt>
      <trkpt lat="42.75924" lon="0.16665">
        <ele>1711</ele>
        <time>2019-02-27T13:01:33Z</time>
      </trkpt>
      <trkpt lat="42.75924" lon="0.16665">
        <ele>1711</ele>
        <time>2019-02-27T13:01:34Z</time>
      </trkpt>
      <trkpt lat="42.75924" lon="0.16665">
        <ele>1711</ele>
        <time>2019-02-27T13:01:35Z</time>
      </trkpt>
      <trkpt lat="42.75924" lon="0.16665">
        <ele>1711</ele>
        <time>2019-02-27T13:01:36Z</time>
      </trkpt>
      <trkpt lat="42.75924" lon="0.16665">
        <ele>1711</ele>
        <time>2019-02-27T13:01:37Z</time>
      </trkpt>
      <trkpt lat="42.75924" lon="0.16665">
        <ele>1711</ele>
        <time>2019-02-27T13:01:38Z</time>
      </trkpt>
      <trkpt lat="42.75924" lon="0.16665">
        <ele>1711</ele>
        <time>2019-02-27T13:01:39Z</time>
      </trkpt>
      <trkpt lat="42.75924" lon="0.16665">
        <ele>1711</ele>
        <time>2019-02-27T13:01:40Z</time>
      </trkpt>
      <trkpt lat="42.75924" lon="0.16665">
        <ele>1711</ele>
        <time>2019-02-27T13:01:41Z</time>
      </trkpt>
      <trkpt lat="42.75924" lon="0.16665">
        <ele>1711</ele>
        <time>2019-02-27T13:01:42Z</time>
      </trkpt>
      <trkpt lat="42.75924" lon="0.16665">
        <ele>1711</ele>
        <time>2019-02-27T13:01:43Z</time>
      </trkpt>
      <trkpt lat="42.75924" lon="0.16665">
        <ele>1711</ele>
        <time>2019-02-27T13:01:44Z</time>
      </trkpt>
      <trkpt lat="42.75924" lon="0.16665">
        <ele>1711</ele>
        <time>2019-02-27T13:01:45Z</time>
      </trkpt>
      <trkpt lat="42.75924" lon="0.16665">
        <ele>1711</ele>
        <time>2019-02-27T13:01:46Z</time>
      </trkpt>
      <trkpt lat="42.75924" lon="0.16665">
        <ele>1711</ele>
        <time>2019-02-27T13:01:47Z</time>
      </trkpt>
      <trkpt lat="42.75924" lon="0.16665">
        <ele>1711</ele>
        <time>2019-02-27T13:01:48Z</time>
      </trkpt>
      <trkpt lat="42.75924" lon="0.16665">
        <ele>1711</ele>
        <time>2019-02-27T13:01:49Z</time>
      </trkpt>
      <trkpt lat="42.75924" lon="0.16665">
        <ele>1711</ele>
        <time>2019-02-27T13:01:50Z</time>
      </trkpt>
      <trkpt lat="42.75924" lon="0.16665">
        <ele>1711</ele>
        <time>2019-02-27T13:01:51Z</time>
      </trkpt>
      <trkpt lat="42.75924" lon="0.16665">
        <ele>1711</ele>
        <time>2019-02-27T13:01:52Z</time>
      </trkpt>
      <trkpt lat="42.75924" lon="0.16665">
        <ele>1711</ele>
        <time>2019-02-27T13:01:53Z</time>
      </trkpt>
      <trkpt lat="42.75924" lon="0.16665">
        <ele>1711</ele>
        <time>2019-02-27T13:01:54Z</time>
      </trkpt>
      <trkpt lat="42.75924" lon="0.16665">
        <ele>1711</ele>
        <time>2019-02-27T13:01:55Z</time>
      </trkpt>
      <trkpt lat="42.75924" lon="0.16665">
        <ele>1711</ele>
        <time>2019-02-27T13:01:56Z</time>
      </trkpt>
      <trkpt lat="42.75924" lon="0.16665">
        <ele>1711</ele>
        <time>2019-02-27T13:01:57Z</time>
      </trkpt>
      <trkpt lat="42.75924" lon="0.16665">
        <ele>1711</ele>
        <time>2019-02-27T13:01:58Z</time>
      </trkpt>
      <trkpt lat="42.75924" lon="0.16665">
        <ele>1711</ele>
        <time>2019-02-27T13:01:59Z</time>
      </trkpt>
      <trkpt lat="42.75924" lon="0.16665">
        <ele>1711</ele>
        <time>2019-02-27T13:02:00Z</time>
      </trkpt>
      <trkpt lat="42.75924" lon="0.16665">
        <ele>1711</ele>
        <time>2019-02-27T13:02:01Z</time>
      </trkpt>
      <trkpt lat="42.75924" lon="0.16665">
        <ele>1711</ele>
        <time>2019-02-27T13:02:02Z</time>
      </trkpt>
      <trkpt lat="42.75924" lon="0.16665">
        <ele>1711</ele>
        <time>2019-02-27T13:02:03Z</time>
      </trkpt>
      <trkpt lat="42.75924" lon="0.16665">
        <ele>1711</ele>
        <time>2019-02-27T13:02:04Z</time>
      </trkpt>
      <trkpt lat="42.75924" lon="0.16665">
        <ele>1711</ele>
        <time>2019-02-27T13:02:05Z</time>
      </trkpt>
      <trkpt lat="42.75924" lon="0.16665">
        <ele>1711</ele>
        <time>2019-02-27T13:02:06Z</time>
      </trkpt>
      <trkpt lat="42.75924" lon="0.16665">
        <ele>1711</ele>
        <time>2019-02-27T13:02:07Z</time>
      </trkpt>
      <trkpt lat="42.75924" lon="0.16665">
        <ele>1711</ele>
        <time>2019-02-27T13:02:08Z</time>
      </trkpt>
      <trkpt lat="42.75924" lon="0.16665">
        <ele>1711</ele>
        <time>2019-02-27T13:02:09Z</time>
      </trkpt>
      <trkpt lat="42.75924" lon="0.16665">
        <ele>1711</ele>
        <time>2019-02-27T13:02:10Z</time>
      </trkpt>
      <trkpt lat="42.75924" lon="0.16665">
        <ele>1711</ele>
        <time>2019-02-27T13:02:11Z</time>
      </trkpt>
      <trkpt lat="42.75924" lon="0.16665">
        <ele>1711</ele>
        <time>2019-02-27T13:02:12Z</time>
      </trkpt>
      <trkpt lat="42.75924" lon="0.16665">
        <ele>1711</ele>
        <time>2019-02-27T13:02:13Z</time>
      </trkpt>
      <trkpt lat="42.75924" lon="0.16665">
        <ele>1711</ele>
        <time>2019-02-27T13:02:14Z</time>
      </trkpt>
      <trkpt lat="42.75924" lon="0.16665">
        <ele>1711</ele>
        <time>2019-02-27T13:02:15Z</time>
      </trkpt>
      <trkpt lat="42.75924" lon="0.16665">
        <ele>1711</ele>
        <time>2019-02-27T13:02:16Z</time>
      </trkpt>
      <trkpt lat="42.75924" lon="0.16665">
        <ele>1711</ele>
        <time>2019-02-27T13:02:17Z</time>
      </trkpt>
      <trkpt lat="42.75924" lon="0.16665">
        <ele>1711</ele>
        <time>2019-02-27T13:02:18Z</time>
      </trkpt>
      <trkpt lat="42.75924" lon="0.16665">
        <ele>1711</ele>
        <time>2019-02-27T13:02:19Z</time>
      </trkpt>
      <trkpt lat="42.75926" lon="0.16667">
        <ele>1711</ele>
        <time>2019-02-27T13:02:20Z</time>
      </trkpt>
      <trkpt lat="42.75926" lon="0.16667">
        <ele>1711</ele>
        <time>2019-02-27T13:02:21Z</time>
      </trkpt>
      <trkpt lat="42.75926" lon="0.16667">
        <ele>1711</ele>
        <time>2019-02-27T13:02:22Z</time>
      </trkpt>
      <trkpt lat="42.75928" lon="0.16669">
        <ele>1711</ele>
        <time>2019-02-27T13:02:23Z</time>
      </trkpt>
      <trkpt lat="42.75928" lon="0.16669">
        <ele>1711</ele>
        <time>2019-02-27T13:02:24Z</time>
      </trkpt>
      <trkpt lat="42.75928" lon="0.16669">
        <ele>1711</ele>
        <time>2019-02-27T13:02:25Z</time>
      </trkpt>
      <trkpt lat="42.75928" lon="0.16669">
        <ele>1711</ele>
        <time>2019-02-27T13:02:26Z</time>
      </trkpt>
      <trkpt lat="42.75928" lon="0.16669">
        <ele>1711</ele>
        <time>2019-02-27T13:02:27Z</time>
      </trkpt>
      <trkpt lat="42.75928" lon="0.16669">
        <ele>1711</ele>
        <time>2019-02-27T13:02:28Z</time>
      </trkpt>
      <trkpt lat="42.75928" lon="0.16669">
        <ele>1711</ele>
        <time>2019-02-27T13:02:29Z</time>
      </trkpt>
      <trkpt lat="42.75928" lon="0.16669">
        <ele>1711</ele>
        <time>2019-02-27T13:02:30Z</time>
      </trkpt>
      <trkpt lat="42.75928" lon="0.16669">
        <ele>1711</ele>
        <time>2019-02-27T13:02:31Z</time>
      </trkpt>
      <trkpt lat="42.75928" lon="0.16669">
        <ele>1711</ele>
        <time>2019-02-27T13:02:32Z</time>
      </trkpt>
      <trkpt lat="42.75928" lon="0.16669">
        <ele>1711</ele>
        <time>2019-02-27T13:02:33Z</time>
      </trkpt>
      <trkpt lat="42.75928" lon="0.16669">
        <ele>1711</ele>
        <time>2019-02-27T13:02:34Z</time>
      </trkpt>
      <trkpt lat="42.75928" lon="0.16669">
        <ele>1711</ele>
        <time>2019-02-27T13:02:35Z</time>
      </trkpt>
      <trkpt lat="42.75928" lon="0.16669">
        <ele>1711</ele>
        <time>2019-02-27T13:02:36Z</time>
      </trkpt>
      <trkpt lat="42.75928" lon="0.16669">
        <ele>1711</ele>
        <time>2019-02-27T13:02:37Z</time>
      </trkpt>
      <trkpt lat="42.75928" lon="0.16669">
        <ele>1711</ele>
        <time>2019-02-27T13:02:38Z</time>
      </trkpt>
      <trkpt lat="42.75928" lon="0.16669">
        <ele>1711</ele>
        <time>2019-02-27T13:02:39Z</time>
      </trkpt>
      <trkpt lat="42.75928" lon="0.16669">
        <ele>1711</ele>
        <time>2019-02-27T13:02:40Z</time>
      </trkpt>
      <trkpt lat="42.75929" lon="0.16667">
        <ele>1711</ele>
        <time>2019-02-27T13:02:41Z</time>
      </trkpt>
      <trkpt lat="42.75929" lon="0.16667">
        <ele>1711</ele>
        <time>2019-02-27T13:02:42Z</time>
      </trkpt>
      <trkpt lat="42.75929" lon="0.16667">
        <ele>1711</ele>
        <time>2019-02-27T13:02:43Z</time>
      </trkpt>
      <trkpt lat="42.75929" lon="0.16667">
        <ele>1711</ele>
        <time>2019-02-27T13:02:44Z</time>
      </trkpt>
      <trkpt lat="42.75929" lon="0.16667">
        <ele>1711</ele>
        <time>2019-02-27T13:02:45Z</time>
      </trkpt>
      <trkpt lat="42.75929" lon="0.16667">
        <ele>1711</ele>
        <time>2019-02-27T13:02:46Z</time>
      </trkpt>
      <trkpt lat="42.75929" lon="0.16667">
        <ele>1711</ele>
        <time>2019-02-27T13:02:47Z</time>
      </trkpt>
      <trkpt lat="42.75929" lon="0.16667">
        <ele>1711</ele>
        <time>2019-02-27T13:02:48Z</time>
      </trkpt>
      <trkpt lat="42.75929" lon="0.16667">
        <ele>1711</ele>
        <time>2019-02-27T13:02:49Z</time>
      </trkpt>
      <trkpt lat="42.75929" lon="0.16667">
        <ele>1711</ele>
        <time>2019-02-27T13:02:50Z</time>
      </trkpt>
      <trkpt lat="42.75929" lon="0.16667">
        <ele>1711</ele>
        <time>2019-02-27T13:02:51Z</time>
      </trkpt>
      <trkpt lat="42.75929" lon="0.16667">
        <ele>1711</ele>
        <time>2019-02-27T13:02:52Z</time>
      </trkpt>
      <trkpt lat="42.75929" lon="0.16667">
        <ele>1711</ele>
        <time>2019-02-27T13:02:53Z</time>
      </trkpt>
      <trkpt lat="42.75929" lon="0.16667">
        <ele>1711</ele>
        <time>2019-02-27T13:02:54Z</time>
      </trkpt>
      <trkpt lat="42.75929" lon="0.16667">
        <ele>1711</ele>
        <time>2019-02-27T13:02:55Z</time>
      </trkpt>
      <trkpt lat="42.75929" lon="0.16667">
        <ele>1711</ele>
        <time>2019-02-27T13:02:56Z</time>
      </trkpt>
      <trkpt lat="42.75929" lon="0.16667">
        <ele>1711</ele>
        <time>2019-02-27T13:02:57Z</time>
      </trkpt>
      <trkpt lat="42.75929" lon="0.16667">
        <ele>1711</ele>
        <time>2019-02-27T13:02:58Z</time>
      </trkpt>
      <trkpt lat="42.7593" lon="0.16665">
        <ele>1711</ele>
        <time>2019-02-27T13:02:59Z</time>
      </trkpt>
      <trkpt lat="42.7593" lon="0.16665">
        <ele>1711</ele>
        <time>2019-02-27T13:03:00Z</time>
      </trkpt>
      <trkpt lat="42.7593" lon="0.16665">
        <ele>1711</ele>
        <time>2019-02-27T13:03:01Z</time>
      </trkpt>
      <trkpt lat="42.7593" lon="0.16665">
        <ele>1711</ele>
        <time>2019-02-27T13:03:02Z</time>
      </trkpt>
      <trkpt lat="42.75931" lon="0.16663">
        <ele>1711</ele>
        <time>2019-02-27T13:03:03Z</time>
      </trkpt>
      <trkpt lat="42.75931" lon="0.16663">
        <ele>1711</ele>
        <time>2019-02-27T13:03:04Z</time>
      </trkpt>
      <trkpt lat="42.75931" lon="0.16663">
        <ele>1711</ele>
        <time>2019-02-27T13:03:05Z</time>
      </trkpt>
      <trkpt lat="42.75932" lon="0.16662">
        <ele>1711</ele>
        <time>2019-02-27T13:03:06Z</time>
      </trkpt>
      <trkpt lat="42.75932" lon="0.16662">
        <ele>1711</ele>
        <time>2019-02-27T13:03:07Z</time>
      </trkpt>
      <trkpt lat="42.75932" lon="0.16662">
        <ele>1711</ele>
        <time>2019-02-27T13:03:08Z</time>
      </trkpt>
      <trkpt lat="42.75932" lon="0.16662">
        <ele>1711</ele>
        <time>2019-02-27T13:03:09Z</time>
      </trkpt>
      <trkpt lat="42.75932" lon="0.16662">
        <ele>1711</ele>
        <time>2019-02-27T13:03:10Z</time>
      </trkpt>
      <trkpt lat="42.75932" lon="0.16662">
        <ele>1711</ele>
        <time>2019-02-27T13:03:11Z</time>
      </trkpt>
      <trkpt lat="42.75932" lon="0.16662">
        <ele>1711</ele>
        <time>2019-02-27T13:03:12Z</time>
      </trkpt>
      <trkpt lat="42.75932" lon="0.16662">
        <ele>1711</ele>
        <time>2019-02-27T13:03:13Z</time>
      </trkpt>
      <trkpt lat="42.75932" lon="0.16662">
        <ele>1711</ele>
        <time>2019-02-27T13:03:14Z</time>
      </trkpt>
      <trkpt lat="42.75932" lon="0.16662">
        <ele>1711</ele>
        <time>2019-02-27T13:03:15Z</time>
      </trkpt>
      <trkpt lat="42.75932" lon="0.16662">
        <ele>1711</ele>
        <time>2019-02-27T13:03:16Z</time>
      </trkpt>
      <trkpt lat="42.75932" lon="0.16662">
        <ele>1711</ele>
        <time>2019-02-27T13:03:17Z</time>
      </trkpt>
      <trkpt lat="42.75934" lon="0.16659">
        <ele>1711</ele>
        <time>2019-02-27T13:03:18Z</time>
      </trkpt>
      <trkpt lat="42.75934" lon="0.16659">
        <ele>1711</ele>
        <time>2019-02-27T13:03:19Z</time>
      </trkpt>
      <trkpt lat="42.75934" lon="0.16659">
        <ele>1711</ele>
        <time>2019-02-27T13:03:20Z</time>
      </trkpt>
      <trkpt lat="42.75934" lon="0.16659">
        <ele>1711</ele>
        <time>2019-02-27T13:03:21Z</time>
      </trkpt>
      <trkpt lat="42.75934" lon="0.16659">
        <ele>1711</ele>
        <time>2019-02-27T13:03:22Z</time>
      </trkpt>
      <trkpt lat="42.75934" lon="0.16659">
        <ele>1711</ele>
        <time>2019-02-27T13:03:23Z</time>
      </trkpt>
      <trkpt lat="42.75934" lon="0.16659">
        <ele>1711</ele>
        <time>2019-02-27T13:03:24Z</time>
      </trkpt>
      <trkpt lat="42.75934" lon="0.16659">
        <ele>1711</ele>
        <time>2019-02-27T13:03:25Z</time>
      </trkpt>
      <trkpt lat="42.75934" lon="0.16659">
        <ele>1711</ele>
        <time>2019-02-27T13:03:26Z</time>
      </trkpt>
      <trkpt lat="42.75934" lon="0.16659">
        <ele>1711</ele>
        <time>2019-02-27T13:03:27Z</time>
      </trkpt>
      <trkpt lat="42.75934" lon="0.16659">
        <ele>1711</ele>
        <time>2019-02-27T13:03:28Z</time>
      </trkpt>
      <trkpt lat="42.75934" lon="0.16659">
        <ele>1711</ele>
        <time>2019-02-27T13:03:29Z</time>
      </trkpt>
      <trkpt lat="42.75934" lon="0.16659">
        <ele>1711</ele>
        <time>2019-02-27T13:03:30Z</time>
      </trkpt>
      <trkpt lat="42.75934" lon="0.16659">
        <ele>1711</ele>
        <time>2019-02-27T13:03:31Z</time>
      </trkpt>
      <trkpt lat="42.75934" lon="0.16659">
        <ele>1711</ele>
        <time>2019-02-27T13:03:32Z</time>
      </trkpt>
      <trkpt lat="42.75934" lon="0.16659">
        <ele>1711</ele>
        <time>2019-02-27T13:03:33Z</time>
      </trkpt>
      <trkpt lat="42.75934" lon="0.16659">
        <ele>1711</ele>
        <time>2019-02-27T13:03:34Z</time>
      </trkpt>
      <trkpt lat="42.75934" lon="0.16659">
        <ele>1711</ele>
        <time>2019-02-27T13:03:35Z</time>
      </trkpt>
      <trkpt lat="42.75934" lon="0.16659">
        <ele>1711</ele>
        <time>2019-02-27T13:03:36Z</time>
      </trkpt>
      <trkpt lat="42.75934" lon="0.16659">
        <ele>1711</ele>
        <time>2019-02-27T13:03:37Z</time>
      </trkpt>
      <trkpt lat="42.75934" lon="0.16659">
        <ele>1711</ele>
        <time>2019-02-27T13:03:38Z</time>
      </trkpt>
      <trkpt lat="42.75934" lon="0.16659">
        <ele>1711</ele>
        <time>2019-02-27T13:03:39Z</time>
      </trkpt>
      <trkpt lat="42.75934" lon="0.16659">
        <ele>1711</ele>
        <time>2019-02-27T13:03:40Z</time>
      </trkpt>
      <trkpt lat="42.75934" lon="0.16659">
        <ele>1711</ele>
        <time>2019-02-27T13:03:41Z</time>
      </trkpt>
      <trkpt lat="42.75934" lon="0.16659">
        <ele>1711</ele>
        <time>2019-02-27T13:03:42Z</time>
      </trkpt>
      <trkpt lat="42.75934" lon="0.16659">
        <ele>1711</ele>
        <time>2019-02-27T13:03:43Z</time>
      </trkpt>
      <trkpt lat="42.75934" lon="0.16659">
        <ele>1711</ele>
        <time>2019-02-27T13:03:44Z</time>
      </trkpt>
      <trkpt lat="42.75934" lon="0.16659">
        <ele>1711</ele>
        <time>2019-02-27T13:03:45Z</time>
      </trkpt>
      <trkpt lat="42.75934" lon="0.16659">
        <ele>1711</ele>
        <time>2019-02-27T13:03:46Z</time>
      </trkpt>
      <trkpt lat="42.75934" lon="0.16659">
        <ele>1711</ele>
        <time>2019-02-27T13:03:47Z</time>
      </trkpt>
      <trkpt lat="42.75934" lon="0.16659">
        <ele>1711</ele>
        <time>2019-02-27T13:03:48Z</time>
      </trkpt>
      <trkpt lat="42.75934" lon="0.16659">
        <ele>1711</ele>
        <time>2019-02-27T13:03:49Z</time>
      </trkpt>
      <trkpt lat="42.75934" lon="0.16659">
        <ele>1711</ele>
        <time>2019-02-27T13:03:50Z</time>
      </trkpt>
      <trkpt lat="42.75934" lon="0.16659">
        <ele>1711</ele>
        <time>2019-02-27T13:03:51Z</time>
      </trkpt>
      <trkpt lat="42.75934" lon="0.16659">
        <ele>1711</ele>
        <time>2019-02-27T13:03:52Z</time>
      </trkpt>
      <trkpt lat="42.75934" lon="0.16659">
        <ele>1711</ele>
        <time>2019-02-27T13:03:53Z</time>
      </trkpt>
      <trkpt lat="42.75934" lon="0.16659">
        <ele>1711</ele>
        <time>2019-02-27T13:03:54Z</time>
      </trkpt>
      <trkpt lat="42.75934" lon="0.16659">
        <ele>1711</ele>
        <time>2019-02-27T13:03:55Z</time>
      </trkpt>
      <trkpt lat="42.75934" lon="0.16659">
        <ele>1711</ele>
        <time>2019-02-27T13:03:56Z</time>
      </trkpt>
      <trkpt lat="42.75934" lon="0.16659">
        <ele>1711</ele>
        <time>2019-02-27T13:03:57Z</time>
      </trkpt>
      <trkpt lat="42.75934" lon="0.16659">
        <ele>1711</ele>
        <time>2019-02-27T13:03:58Z</time>
      </trkpt>
      <trkpt lat="42.75934" lon="0.16659">
        <ele>1711</ele>
        <time>2019-02-27T13:03:59Z</time>
      </trkpt>
      <trkpt lat="42.75934" lon="0.16659">
        <ele>1711</ele>
        <time>2019-02-27T13:04:00Z</time>
      </trkpt>
      <trkpt lat="42.75934" lon="0.16659">
        <ele>1711</ele>
        <time>2019-02-27T13:04:01Z</time>
      </trkpt>
      <trkpt lat="42.75934" lon="0.16659">
        <ele>1711</ele>
        <time>2019-02-27T13:04:02Z</time>
      </trkpt>
      <trkpt lat="42.75934" lon="0.16659">
        <ele>1711</ele>
        <time>2019-02-27T13:04:03Z</time>
      </trkpt>
      <trkpt lat="42.75934" lon="0.16659">
        <ele>1711</ele>
        <time>2019-02-27T13:04:04Z</time>
      </trkpt>
      <trkpt lat="42.75934" lon="0.16659">
        <ele>1711</ele>
        <time>2019-02-27T13:04:05Z</time>
      </trkpt>
      <trkpt lat="42.75934" lon="0.16659">
        <ele>1711</ele>
        <time>2019-02-27T13:04:06Z</time>
      </trkpt>
      <trkpt lat="42.75934" lon="0.16659">
        <ele>1711</ele>
        <time>2019-02-27T13:04:07Z</time>
      </trkpt>
      <trkpt lat="42.75934" lon="0.16659">
        <ele>1711</ele>
        <time>2019-02-27T13:04:08Z</time>
      </trkpt>
      <trkpt lat="42.75934" lon="0.16659">
        <ele>1711</ele>
        <time>2019-02-27T13:04:09Z</time>
      </trkpt>
      <trkpt lat="42.75934" lon="0.16659">
        <ele>1711</ele>
        <time>2019-02-27T13:04:10Z</time>
      </trkpt>
      <trkpt lat="42.75934" lon="0.16659">
        <ele>1711</ele>
        <time>2019-02-27T13:04:11Z</time>
      </trkpt>
      <trkpt lat="42.75934" lon="0.16659">
        <ele>1711</ele>
        <time>2019-02-27T13:04:12Z</time>
      </trkpt>
      <trkpt lat="42.75934" lon="0.16659">
        <ele>1711</ele>
        <time>2019-02-27T13:04:13Z</time>
      </trkpt>
      <trkpt lat="42.75934" lon="0.16659">
        <ele>1711</ele>
        <time>2019-02-27T13:04:14Z</time>
      </trkpt>
      <trkpt lat="42.75934" lon="0.16659">
        <ele>1711</ele>
        <time>2019-02-27T13:04:15Z</time>
      </trkpt>
      <trkpt lat="42.75934" lon="0.16659">
        <ele>1711</ele>
        <time>2019-02-27T13:04:16Z</time>
      </trkpt>
      <trkpt lat="42.75934" lon="0.16659">
        <ele>1711</ele>
        <time>2019-02-27T13:04:17Z</time>
      </trkpt>
      <trkpt lat="42.75934" lon="0.16659">
        <ele>1711</ele>
        <time>2019-02-27T13:04:18Z</time>
      </trkpt>
      <trkpt lat="42.75934" lon="0.16659">
        <ele>1711</ele>
        <time>2019-02-27T13:04:19Z</time>
      </trkpt>
      <trkpt lat="42.75934" lon="0.16659">
        <ele>1711</ele>
        <time>2019-02-27T13:04:20Z</time>
      </trkpt>
      <trkpt lat="42.75934" lon="0.16659">
        <ele>1711</ele>
        <time>2019-02-27T13:04:21Z</time>
      </trkpt>
      <trkpt lat="42.75934" lon="0.16659">
        <ele>1711</ele>
        <time>2019-02-27T13:04:22Z</time>
      </trkpt>
      <trkpt lat="42.75934" lon="0.16659">
        <ele>1711</ele>
        <time>2019-02-27T13:04:23Z</time>
      </trkpt>
      <trkpt lat="42.75934" lon="0.16659">
        <ele>1711</ele>
        <time>2019-02-27T13:04:24Z</time>
      </trkpt>
      <trkpt lat="42.75934" lon="0.16659">
        <ele>1711</ele>
        <time>2019-02-27T13:04:25Z</time>
      </trkpt>
      <trkpt lat="42.75934" lon="0.16659">
        <ele>1711</ele>
        <time>2019-02-27T13:04:26Z</time>
      </trkpt>
      <trkpt lat="42.75934" lon="0.16659">
        <ele>1711</ele>
        <time>2019-02-27T13:04:27Z</time>
      </trkpt>
      <trkpt lat="42.75934" lon="0.16659">
        <ele>1711</ele>
        <time>2019-02-27T13:04:28Z</time>
      </trkpt>
      <trkpt lat="42.75934" lon="0.16659">
        <ele>1711</ele>
        <time>2019-02-27T13:04:29Z</time>
      </trkpt>
      <trkpt lat="42.75934" lon="0.16659">
        <ele>1711</ele>
        <time>2019-02-27T13:04:30Z</time>
      </trkpt>
      <trkpt lat="42.75934" lon="0.16659">
        <ele>1711</ele>
        <time>2019-02-27T13:04:31Z</time>
      </trkpt>
      <trkpt lat="42.75934" lon="0.16659">
        <ele>1711</ele>
        <time>2019-02-27T13:04:32Z</time>
      </trkpt>
      <trkpt lat="42.75934" lon="0.16659">
        <ele>1711</ele>
        <time>2019-02-27T13:04:33Z</time>
      </trkpt>
      <trkpt lat="42.75934" lon="0.16659">
        <ele>1711</ele>
        <time>2019-02-27T13:04:34Z</time>
      </trkpt>
      <trkpt lat="42.75934" lon="0.16659">
        <ele>1711</ele>
        <time>2019-02-27T13:04:35Z</time>
      </trkpt>
      <trkpt lat="42.75934" lon="0.16659">
        <ele>1711</ele>
        <time>2019-02-27T13:04:36Z</time>
      </trkpt>
      <trkpt lat="42.75934" lon="0.16659">
        <ele>1711</ele>
        <time>2019-02-27T13:04:37Z</time>
      </trkpt>
      <trkpt lat="42.75934" lon="0.16659">
        <ele>1711</ele>
        <time>2019-02-27T13:04:38Z</time>
      </trkpt>
      <trkpt lat="42.75934" lon="0.16659">
        <ele>1711</ele>
        <time>2019-02-27T13:04:39Z</time>
      </trkpt>
      <trkpt lat="42.75934" lon="0.16659">
        <ele>1711</ele>
        <time>2019-02-27T13:04:40Z</time>
      </trkpt>
      <trkpt lat="42.75934" lon="0.16659">
        <ele>1711</ele>
        <time>2019-02-27T13:04:41Z</time>
      </trkpt>
      <trkpt lat="42.75934" lon="0.16659">
        <ele>1711</ele>
        <time>2019-02-27T13:04:42Z</time>
      </trkpt>
      <trkpt lat="42.75934" lon="0.16659">
        <ele>1711</ele>
        <time>2019-02-27T13:04:43Z</time>
      </trkpt>
      <trkpt lat="42.75934" lon="0.16659">
        <ele>1711</ele>
        <time>2019-02-27T13:04:44Z</time>
      </trkpt>
      <trkpt lat="42.75934" lon="0.16659">
        <ele>1711</ele>
        <time>2019-02-27T13:04:45Z</time>
      </trkpt>
      <trkpt lat="42.75934" lon="0.16659">
        <ele>1711</ele>
        <time>2019-02-27T13:04:46Z</time>
      </trkpt>
      <trkpt lat="42.75933" lon="0.16661">
        <ele>1711</ele>
        <time>2019-02-27T13:04:47Z</time>
      </trkpt>
      <trkpt lat="42.75933" lon="0.16661">
        <ele>1711</ele>
        <time>2019-02-27T13:04:48Z</time>
      </trkpt>
      <trkpt lat="42.75933" lon="0.16661">
        <ele>1711</ele>
        <time>2019-02-27T13:04:49Z</time>
      </trkpt>
      <trkpt lat="42.75933" lon="0.16661">
        <ele>1711</ele>
        <time>2019-02-27T13:04:50Z</time>
      </trkpt>
      <trkpt lat="42.75933" lon="0.16661">
        <ele>1711</ele>
        <time>2019-02-27T13:04:51Z</time>
      </trkpt>
      <trkpt lat="42.75933" lon="0.16661">
        <ele>1711</ele>
        <time>2019-02-27T13:04:52Z</time>
      </trkpt>
      <trkpt lat="42.75933" lon="0.16661">
        <ele>1711</ele>
        <time>2019-02-27T13:04:53Z</time>
      </trkpt>
      <trkpt lat="42.75933" lon="0.16661">
        <ele>1711</ele>
        <time>2019-02-27T13:04:54Z</time>
      </trkpt>
      <trkpt lat="42.75933" lon="0.16661">
        <ele>1711</ele>
        <time>2019-02-27T13:04:55Z</time>
      </trkpt>
      <trkpt lat="42.75933" lon="0.16661">
        <ele>1711</ele>
        <time>2019-02-27T13:04:56Z</time>
      </trkpt>
      <trkpt lat="42.75933" lon="0.16661">
        <ele>1711</ele>
        <time>2019-02-27T13:04:57Z</time>
      </trkpt>
      <trkpt lat="42.75933" lon="0.16661">
        <ele>1711</ele>
        <time>2019-02-27T13:04:58Z</time>
      </trkpt>
      <trkpt lat="42.75933" lon="0.16661">
        <ele>1711</ele>
        <time>2019-02-27T13:04:59Z</time>
      </trkpt>
      <trkpt lat="42.75933" lon="0.16661">
        <ele>1711</ele>
        <time>2019-02-27T13:05:00Z</time>
      </trkpt>
      <trkpt lat="42.75933" lon="0.16661">
        <ele>1711</ele>
        <time>2019-02-27T13:05:01Z</time>
      </trkpt>
      <trkpt lat="42.75933" lon="0.16661">
        <ele>1711</ele>
        <time>2019-02-27T13:05:02Z</time>
      </trkpt>
      <trkpt lat="42.75933" lon="0.16661">
        <ele>1711</ele>
        <time>2019-02-27T13:05:03Z</time>
      </trkpt>
      <trkpt lat="42.75933" lon="0.16661">
        <ele>1711</ele>
        <time>2019-02-27T13:05:04Z</time>
      </trkpt>
      <trkpt lat="42.75933" lon="0.16661">
        <ele>1711</ele>
        <time>2019-02-27T13:05:05Z</time>
      </trkpt>
      <trkpt lat="42.75933" lon="0.16661">
        <ele>1711</ele>
        <time>2019-02-27T13:05:06Z</time>
      </trkpt>
      <trkpt lat="42.75933" lon="0.16661">
        <ele>1711</ele>
        <time>2019-02-27T13:05:07Z</time>
      </trkpt>
      <trkpt lat="42.75933" lon="0.16661">
        <ele>1711</ele>
        <time>2019-02-27T13:05:08Z</time>
      </trkpt>
      <trkpt lat="42.75933" lon="0.16661">
        <ele>1711</ele>
        <time>2019-02-27T13:05:09Z</time>
      </trkpt>
      <trkpt lat="42.75933" lon="0.16661">
        <ele>1711</ele>
        <time>2019-02-27T13:05:10Z</time>
      </trkpt>
      <trkpt lat="42.75933" lon="0.16661">
        <ele>1711</ele>
        <time>2019-02-27T13:05:11Z</time>
      </trkpt>
      <trkpt lat="42.75933" lon="0.16661">
        <ele>1711</ele>
        <time>2019-02-27T13:05:12Z</time>
      </trkpt>
      <trkpt lat="42.75933" lon="0.16661">
        <ele>1711</ele>
        <time>2019-02-27T13:05:13Z</time>
      </trkpt>
      <trkpt lat="42.75933" lon="0.16661">
        <ele>1711</ele>
        <time>2019-02-27T13:05:14Z</time>
      </trkpt>
      <trkpt lat="42.75933" lon="0.16661">
        <ele>1711</ele>
        <time>2019-02-27T13:05:15Z</time>
      </trkpt>
      <trkpt lat="42.75933" lon="0.16661">
        <ele>1711</ele>
        <time>2019-02-27T13:05:16Z</time>
      </trkpt>
      <trkpt lat="42.75933" lon="0.16661">
        <ele>1711</ele>
        <time>2019-02-27T13:05:17Z</time>
      </trkpt>
      <trkpt lat="42.75933" lon="0.16661">
        <ele>1711</ele>
        <time>2019-02-27T13:05:18Z</time>
      </trkpt>
      <trkpt lat="42.75933" lon="0.16661">
        <ele>1711</ele>
        <time>2019-02-27T13:05:19Z</time>
      </trkpt>
      <trkpt lat="42.75933" lon="0.16661">
        <ele>1711</ele>
        <time>2019-02-27T13:05:20Z</time>
      </trkpt>
      <trkpt lat="42.75933" lon="0.16661">
        <ele>1711</ele>
        <time>2019-02-27T13:05:21Z</time>
      </trkpt>
      <trkpt lat="42.75933" lon="0.16661">
        <ele>1711</ele>
        <time>2019-02-27T13:05:22Z</time>
      </trkpt>
      <trkpt lat="42.75933" lon="0.16661">
        <ele>1711</ele>
        <time>2019-02-27T13:05:23Z</time>
      </trkpt>
      <trkpt lat="42.75933" lon="0.16661">
        <ele>1711</ele>
        <time>2019-02-27T13:05:24Z</time>
      </trkpt>
      <trkpt lat="42.75933" lon="0.16661">
        <ele>1711</ele>
        <time>2019-02-27T13:05:25Z</time>
      </trkpt>
      <trkpt lat="42.75933" lon="0.16661">
        <ele>1711</ele>
        <time>2019-02-27T13:05:26Z</time>
      </trkpt>
      <trkpt lat="42.75933" lon="0.16661">
        <ele>1711</ele>
        <time>2019-02-27T13:05:27Z</time>
      </trkpt>
      <trkpt lat="42.75933" lon="0.16661">
        <ele>1711</ele>
        <time>2019-02-27T13:05:28Z</time>
      </trkpt>
      <trkpt lat="42.75933" lon="0.16661">
        <ele>1711</ele>
        <time>2019-02-27T13:05:29Z</time>
      </trkpt>
      <trkpt lat="42.75933" lon="0.16661">
        <ele>1711</ele>
        <time>2019-02-27T13:05:30Z</time>
      </trkpt>
      <trkpt lat="42.75933" lon="0.16661">
        <ele>1711</ele>
        <time>2019-02-27T13:05:31Z</time>
      </trkpt>
      <trkpt lat="42.75933" lon="0.16661">
        <ele>1711</ele>
        <time>2019-02-27T13:05:32Z</time>
      </trkpt>
      <trkpt lat="42.75933" lon="0.16661">
        <ele>1711</ele>
        <time>2019-02-27T13:05:33Z</time>
      </trkpt>
      <trkpt lat="42.75933" lon="0.16661">
        <ele>1711</ele>
        <time>2019-02-27T13:05:34Z</time>
      </trkpt>
      <trkpt lat="42.75933" lon="0.16661">
        <ele>1711</ele>
        <time>2019-02-27T13:05:35Z</time>
      </trkpt>
      <trkpt lat="42.75933" lon="0.16661">
        <ele>1711</ele>
        <time>2019-02-27T13:05:36Z</time>
      </trkpt>
      <trkpt lat="42.75933" lon="0.16661">
        <ele>1711</ele>
        <time>2019-02-27T13:05:37Z</time>
      </trkpt>
      <trkpt lat="42.75933" lon="0.16661">
        <ele>1711</ele>
        <time>2019-02-27T13:05:38Z</time>
      </trkpt>
      <trkpt lat="42.75933" lon="0.16661">
        <ele>1711</ele>
        <time>2019-02-27T13:05:39Z</time>
      </trkpt>
      <trkpt lat="42.75933" lon="0.16661">
        <ele>1711</ele>
        <time>2019-02-27T13:05:40Z</time>
      </trkpt>
      <trkpt lat="42.75933" lon="0.16661">
        <ele>1711</ele>
        <time>2019-02-27T13:05:41Z</time>
      </trkpt>
      <trkpt lat="42.75934" lon="0.1666">
        <ele>1711</ele>
        <time>2019-02-27T13:05:42Z</time>
      </trkpt>
      <trkpt lat="42.75934" lon="0.1666">
        <ele>1711</ele>
        <time>2019-02-27T13:05:43Z</time>
      </trkpt>
      <trkpt lat="42.75934" lon="0.1666">
        <ele>1711</ele>
        <time>2019-02-27T13:05:44Z</time>
      </trkpt>
      <trkpt lat="42.75934" lon="0.1666">
        <ele>1711</ele>
        <time>2019-02-27T13:05:45Z</time>
      </trkpt>
      <trkpt lat="42.75934" lon="0.1666">
        <ele>1711</ele>
        <time>2019-02-27T13:05:46Z</time>
      </trkpt>
      <trkpt lat="42.75934" lon="0.1666">
        <ele>1711</ele>
        <time>2019-02-27T13:05:47Z</time>
      </trkpt>
      <trkpt lat="42.75934" lon="0.1666">
        <ele>1711</ele>
        <time>2019-02-27T13:05:48Z</time>
      </trkpt>
      <trkpt lat="42.75934" lon="0.1666">
        <ele>1711</ele>
        <time>2019-02-27T13:05:49Z</time>
      </trkpt>
      <trkpt lat="42.75934" lon="0.1666">
        <ele>1711</ele>
        <time>2019-02-27T13:05:50Z</time>
      </trkpt>
      <trkpt lat="42.75934" lon="0.1666">
        <ele>1711</ele>
        <time>2019-02-27T13:05:51Z</time>
      </trkpt>
      <trkpt lat="42.75934" lon="0.1666">
        <ele>1711</ele>
        <time>2019-02-27T13:05:52Z</time>
      </trkpt>
      <trkpt lat="42.75934" lon="0.1666">
        <ele>1711</ele>
        <time>2019-02-27T13:05:53Z</time>
      </trkpt>
      <trkpt lat="42.75934" lon="0.1666">
        <ele>1711</ele>
        <time>2019-02-27T13:05:54Z</time>
      </trkpt>
      <trkpt lat="42.75934" lon="0.1666">
        <ele>1711</ele>
        <time>2019-02-27T13:05:55Z</time>
      </trkpt>
      <trkpt lat="42.75934" lon="0.1666">
        <ele>1711</ele>
        <time>2019-02-27T13:05:56Z</time>
      </trkpt>
      <trkpt lat="42.75934" lon="0.1666">
        <ele>1711</ele>
        <time>2019-02-27T13:05:57Z</time>
      </trkpt>
      <trkpt lat="42.75934" lon="0.1666">
        <ele>1711</ele>
        <time>2019-02-27T13:05:58Z</time>
      </trkpt>
      <trkpt lat="42.75934" lon="0.1666">
        <ele>1711</ele>
        <time>2019-02-27T13:05:59Z</time>
      </trkpt>
      <trkpt lat="42.75934" lon="0.1666">
        <ele>1711</ele>
        <time>2019-02-27T13:06:00Z</time>
      </trkpt>
      <trkpt lat="42.75934" lon="0.1666">
        <ele>1711</ele>
        <time>2019-02-27T13:06:01Z</time>
      </trkpt>
      <trkpt lat="42.75934" lon="0.1666">
        <ele>1711</ele>
        <time>2019-02-27T13:06:02Z</time>
      </trkpt>
      <trkpt lat="42.75934" lon="0.1666">
        <ele>1711</ele>
        <time>2019-02-27T13:06:03Z</time>
      </trkpt>
      <trkpt lat="42.75934" lon="0.1666">
        <ele>1711</ele>
        <time>2019-02-27T13:06:04Z</time>
      </trkpt>
      <trkpt lat="42.75934" lon="0.1666">
        <ele>1711</ele>
        <time>2019-02-27T13:06:05Z</time>
      </trkpt>
      <trkpt lat="42.75934" lon="0.1666">
        <ele>1711</ele>
        <time>2019-02-27T13:06:06Z</time>
      </trkpt>
      <trkpt lat="42.75934" lon="0.1666">
        <ele>1711</ele>
        <time>2019-02-27T13:06:07Z</time>
      </trkpt>
      <trkpt lat="42.75934" lon="0.1666">
        <ele>1711</ele>
        <time>2019-02-27T13:06:08Z</time>
      </trkpt>
      <trkpt lat="42.75934" lon="0.1666">
        <ele>1711</ele>
        <time>2019-02-27T13:06:09Z</time>
      </trkpt>
      <trkpt lat="42.75934" lon="0.1666">
        <ele>1711</ele>
        <time>2019-02-27T13:06:10Z</time>
      </trkpt>
      <trkpt lat="42.75934" lon="0.1666">
        <ele>1711</ele>
        <time>2019-02-27T13:06:11Z</time>
      </trkpt>
      <trkpt lat="42.75934" lon="0.1666">
        <ele>1711</ele>
        <time>2019-02-27T13:06:12Z</time>
      </trkpt>
      <trkpt lat="42.75934" lon="0.1666">
        <ele>1711</ele>
        <time>2019-02-27T13:06:13Z</time>
      </trkpt>
      <trkpt lat="42.75934" lon="0.1666">
        <ele>1711</ele>
        <time>2019-02-27T13:06:14Z</time>
      </trkpt>
      <trkpt lat="42.75934" lon="0.1666">
        <ele>1711</ele>
        <time>2019-02-27T13:06:15Z</time>
      </trkpt>
      <trkpt lat="42.75934" lon="0.1666">
        <ele>1711</ele>
        <time>2019-02-27T13:06:16Z</time>
      </trkpt>
      <trkpt lat="42.75934" lon="0.1666">
        <ele>1711</ele>
        <time>2019-02-27T13:06:17Z</time>
      </trkpt>
      <trkpt lat="42.75934" lon="0.1666">
        <ele>1711</ele>
        <time>2019-02-27T13:06:18Z</time>
      </trkpt>
      <trkpt lat="42.75936" lon="0.16662">
        <ele>1711</ele>
        <time>2019-02-27T13:06:19Z</time>
      </trkpt>
      <trkpt lat="42.75936" lon="0.16662">
        <ele>1711</ele>
        <time>2019-02-27T13:06:20Z</time>
      </trkpt>
      <trkpt lat="42.75936" lon="0.16662">
        <ele>1711</ele>
        <time>2019-02-27T13:06:21Z</time>
      </trkpt>
      <trkpt lat="42.75936" lon="0.16662">
        <ele>1711</ele>
        <time>2019-02-27T13:06:22Z</time>
      </trkpt>
      <trkpt lat="42.75936" lon="0.16662">
        <ele>1711</ele>
        <time>2019-02-27T13:06:23Z</time>
      </trkpt>
      <trkpt lat="42.75936" lon="0.16662">
        <ele>1711</ele>
        <time>2019-02-27T13:06:24Z</time>
      </trkpt>
      <trkpt lat="42.75936" lon="0.16662">
        <ele>1711</ele>
        <time>2019-02-27T13:06:25Z</time>
      </trkpt>
      <trkpt lat="42.75936" lon="0.16662">
        <ele>1711</ele>
        <time>2019-02-27T13:06:26Z</time>
      </trkpt>
      <trkpt lat="42.75936" lon="0.16662">
        <ele>1711</ele>
        <time>2019-02-27T13:06:27Z</time>
      </trkpt>
      <trkpt lat="42.75936" lon="0.16662">
        <ele>1711</ele>
        <time>2019-02-27T13:06:28Z</time>
      </trkpt>
      <trkpt lat="42.75936" lon="0.16662">
        <ele>1711</ele>
        <time>2019-02-27T13:06:29Z</time>
      </trkpt>
      <trkpt lat="42.75936" lon="0.16662">
        <ele>1711</ele>
        <time>2019-02-27T13:06:30Z</time>
      </trkpt>
      <trkpt lat="42.75936" lon="0.16662">
        <ele>1711</ele>
        <time>2019-02-27T13:06:31Z</time>
      </trkpt>
      <trkpt lat="42.75936" lon="0.16662">
        <ele>1711</ele>
        <time>2019-02-27T13:06:32Z</time>
      </trkpt>
      <trkpt lat="42.75936" lon="0.16662">
        <ele>1711</ele>
        <time>2019-02-27T13:06:33Z</time>
      </trkpt>
      <trkpt lat="42.75936" lon="0.16662">
        <ele>1711</ele>
        <time>2019-02-27T13:06:34Z</time>
      </trkpt>
      <trkpt lat="42.75936" lon="0.16662">
        <ele>1711</ele>
        <time>2019-02-27T13:06:35Z</time>
      </trkpt>
      <trkpt lat="42.75936" lon="0.16662">
        <ele>1711</ele>
        <time>2019-02-27T13:06:36Z</time>
      </trkpt>
      <trkpt lat="42.75936" lon="0.16662">
        <ele>1711</ele>
        <time>2019-02-27T13:06:37Z</time>
      </trkpt>
      <trkpt lat="42.75936" lon="0.16662">
        <ele>1711</ele>
        <time>2019-02-27T13:06:38Z</time>
      </trkpt>
      <trkpt lat="42.75936" lon="0.16662">
        <ele>1711</ele>
        <time>2019-02-27T13:06:39Z</time>
      </trkpt>
      <trkpt lat="42.75936" lon="0.16662">
        <ele>1711</ele>
        <time>2019-02-27T13:06:40Z</time>
      </trkpt>
      <trkpt lat="42.75936" lon="0.16662">
        <ele>1711</ele>
        <time>2019-02-27T13:06:41Z</time>
      </trkpt>
      <trkpt lat="42.75936" lon="0.16662">
        <ele>1711</ele>
        <time>2019-02-27T13:06:42Z</time>
      </trkpt>
      <trkpt lat="42.75936" lon="0.16662">
        <ele>1711</ele>
        <time>2019-02-27T13:06:43Z</time>
      </trkpt>
      <trkpt lat="42.75936" lon="0.16662">
        <ele>1711</ele>
        <time>2019-02-27T13:06:44Z</time>
      </trkpt>
      <trkpt lat="42.75936" lon="0.16662">
        <ele>1711</ele>
        <time>2019-02-27T13:06:45Z</time>
      </trkpt>
      <trkpt lat="42.75936" lon="0.16662">
        <ele>1711</ele>
        <time>2019-02-27T13:06:46Z</time>
      </trkpt>
      <trkpt lat="42.75936" lon="0.16662">
        <ele>1711</ele>
        <time>2019-02-27T13:06:47Z</time>
      </trkpt>
      <trkpt lat="42.75936" lon="0.16662">
        <ele>1711</ele>
        <time>2019-02-27T13:06:48Z</time>
      </trkpt>
      <trkpt lat="42.75936" lon="0.16662">
        <ele>1711</ele>
        <time>2019-02-27T13:06:49Z</time>
      </trkpt>
      <trkpt lat="42.75936" lon="0.16662">
        <ele>1711</ele>
        <time>2019-02-27T13:06:50Z</time>
      </trkpt>
      <trkpt lat="42.75936" lon="0.16662">
        <ele>1711</ele>
        <time>2019-02-27T13:06:51Z</time>
      </trkpt>
      <trkpt lat="42.75936" lon="0.16662">
        <ele>1711</ele>
        <time>2019-02-27T13:06:52Z</time>
      </trkpt>
      <trkpt lat="42.75936" lon="0.16662">
        <ele>1711</ele>
        <time>2019-02-27T13:06:53Z</time>
      </trkpt>
      <trkpt lat="42.75936" lon="0.16662">
        <ele>1711</ele>
        <time>2019-02-27T13:06:54Z</time>
      </trkpt>
      <trkpt lat="42.75936" lon="0.16662">
        <ele>1711</ele>
        <time>2019-02-27T13:06:55Z</time>
      </trkpt>
      <trkpt lat="42.75936" lon="0.16662">
        <ele>1711</ele>
        <time>2019-02-27T13:06:56Z</time>
      </trkpt>
      <trkpt lat="42.75936" lon="0.16662">
        <ele>1711</ele>
        <time>2019-02-27T13:06:57Z</time>
      </trkpt>
      <trkpt lat="42.75936" lon="0.16662">
        <ele>1711</ele>
        <time>2019-02-27T13:06:58Z</time>
      </trkpt>
      <trkpt lat="42.75936" lon="0.16662">
        <ele>1711</ele>
        <time>2019-02-27T13:06:59Z</time>
      </trkpt>
      <trkpt lat="42.75936" lon="0.16662">
        <ele>1711</ele>
        <time>2019-02-27T13:07:00Z</time>
      </trkpt>
      <trkpt lat="42.75936" lon="0.16662">
        <ele>1711</ele>
        <time>2019-02-27T13:07:01Z</time>
      </trkpt>
      <trkpt lat="42.75936" lon="0.16662">
        <ele>1711</ele>
        <time>2019-02-27T13:07:02Z</time>
      </trkpt>
      <trkpt lat="42.75936" lon="0.16662">
        <ele>1711</ele>
        <time>2019-02-27T13:07:03Z</time>
      </trkpt>
      <trkpt lat="42.75936" lon="0.16662">
        <ele>1711</ele>
        <time>2019-02-27T13:07:04Z</time>
      </trkpt>
      <trkpt lat="42.75936" lon="0.16662">
        <ele>1711</ele>
        <time>2019-02-27T13:07:05Z</time>
      </trkpt>
      <trkpt lat="42.75936" lon="0.16662">
        <ele>1711</ele>
        <time>2019-02-27T13:07:06Z</time>
      </trkpt>
      <trkpt lat="42.75936" lon="0.16662">
        <ele>1710</ele>
        <time>2019-02-27T13:07:07Z</time>
      </trkpt>
      <trkpt lat="42.75936" lon="0.16662">
        <ele>1710</ele>
        <time>2019-02-27T13:07:08Z</time>
      </trkpt>
      <trkpt lat="42.75936" lon="0.16662">
        <ele>1710</ele>
        <time>2019-02-27T13:07:09Z</time>
      </trkpt>
      <trkpt lat="42.75936" lon="0.16662">
        <ele>1710</ele>
        <time>2019-02-27T13:07:10Z</time>
      </trkpt>
      <trkpt lat="42.75936" lon="0.16662">
        <ele>1710</ele>
        <time>2019-02-27T13:07:11Z</time>
      </trkpt>
      <trkpt lat="42.75936" lon="0.16662">
        <ele>1710</ele>
        <time>2019-02-27T13:07:12Z</time>
      </trkpt>
      <trkpt lat="42.75936" lon="0.16662">
        <ele>1710</ele>
        <time>2019-02-27T13:07:13Z</time>
      </trkpt>
      <trkpt lat="42.75936" lon="0.16662">
        <ele>1710</ele>
        <time>2019-02-27T13:07:14Z</time>
      </trkpt>
      <trkpt lat="42.75936" lon="0.16662">
        <ele>1710</ele>
        <time>2019-02-27T13:07:15Z</time>
      </trkpt>
      <trkpt lat="42.75936" lon="0.16662">
        <ele>1710</ele>
        <time>2019-02-27T13:07:16Z</time>
      </trkpt>
      <trkpt lat="42.75936" lon="0.16662">
        <ele>1710</ele>
        <time>2019-02-27T13:07:17Z</time>
      </trkpt>
      <trkpt lat="42.75936" lon="0.16662">
        <ele>1710</ele>
        <time>2019-02-27T13:07:18Z</time>
      </trkpt>
      <trkpt lat="42.75936" lon="0.16662">
        <ele>1710</ele>
        <time>2019-02-27T13:07:19Z</time>
      </trkpt>
      <trkpt lat="42.75936" lon="0.16662">
        <ele>1710</ele>
        <time>2019-02-27T13:07:20Z</time>
      </trkpt>
      <trkpt lat="42.75936" lon="0.16662">
        <ele>1710</ele>
        <time>2019-02-27T13:07:21Z</time>
      </trkpt>
      <trkpt lat="42.75936" lon="0.16662">
        <ele>1710</ele>
        <time>2019-02-27T13:07:22Z</time>
      </trkpt>
      <trkpt lat="42.75936" lon="0.16662">
        <ele>1710</ele>
        <time>2019-02-27T13:07:23Z</time>
      </trkpt>
      <trkpt lat="42.75936" lon="0.16662">
        <ele>1710</ele>
        <time>2019-02-27T13:07:24Z</time>
      </trkpt>
      <trkpt lat="42.75936" lon="0.16662">
        <ele>1710</ele>
        <time>2019-02-27T13:07:25Z</time>
      </trkpt>
      <trkpt lat="42.75936" lon="0.16662">
        <ele>1710</ele>
        <time>2019-02-27T13:07:26Z</time>
      </trkpt>
      <trkpt lat="42.75936" lon="0.16662">
        <ele>1710</ele>
        <time>2019-02-27T13:07:27Z</time>
      </trkpt>
      <trkpt lat="42.75936" lon="0.16662">
        <ele>1710</ele>
        <time>2019-02-27T13:07:28Z</time>
      </trkpt>
      <trkpt lat="42.75936" lon="0.16662">
        <ele>1710</ele>
        <time>2019-02-27T13:07:29Z</time>
      </trkpt>
      <trkpt lat="42.75936" lon="0.16662">
        <ele>1710</ele>
        <time>2019-02-27T13:07:30Z</time>
      </trkpt>
      <trkpt lat="42.75936" lon="0.16662">
        <ele>1710</ele>
        <time>2019-02-27T13:07:31Z</time>
      </trkpt>
      <trkpt lat="42.75936" lon="0.16662">
        <ele>1710</ele>
        <time>2019-02-27T13:07:32Z</time>
      </trkpt>
      <trkpt lat="42.75936" lon="0.16662">
        <ele>1710</ele>
        <time>2019-02-27T13:07:33Z</time>
      </trkpt>
      <trkpt lat="42.75936" lon="0.16662">
        <ele>1710</ele>
        <time>2019-02-27T13:07:34Z</time>
      </trkpt>
      <trkpt lat="42.75936" lon="0.16662">
        <ele>1710</ele>
        <time>2019-02-27T13:07:35Z</time>
      </trkpt>
      <trkpt lat="42.75936" lon="0.16662">
        <ele>1710</ele>
        <time>2019-02-27T13:07:36Z</time>
      </trkpt>
      <trkpt lat="42.75936" lon="0.16662">
        <ele>1710</ele>
        <time>2019-02-27T13:07:37Z</time>
      </trkpt>
      <trkpt lat="42.75936" lon="0.16662">
        <ele>1710</ele>
        <time>2019-02-27T13:07:38Z</time>
      </trkpt>
      <trkpt lat="42.75936" lon="0.16662">
        <ele>1710</ele>
        <time>2019-02-27T13:07:39Z</time>
      </trkpt>
      <trkpt lat="42.75936" lon="0.16662">
        <ele>1710</ele>
        <time>2019-02-27T13:07:40Z</time>
      </trkpt>
      <trkpt lat="42.75936" lon="0.16662">
        <ele>1710</ele>
        <time>2019-02-27T13:07:41Z</time>
      </trkpt>
      <trkpt lat="42.75936" lon="0.16662">
        <ele>1710</ele>
        <time>2019-02-27T13:07:42Z</time>
      </trkpt>
      <trkpt lat="42.75936" lon="0.16662">
        <ele>1710</ele>
        <time>2019-02-27T13:07:43Z</time>
      </trkpt>
      <trkpt lat="42.75936" lon="0.16662">
        <ele>1710</ele>
        <time>2019-02-27T13:07:44Z</time>
      </trkpt>
      <trkpt lat="42.75936" lon="0.16662">
        <ele>1710</ele>
        <time>2019-02-27T13:07:45Z</time>
      </trkpt>
      <trkpt lat="42.75936" lon="0.16662">
        <ele>1710</ele>
        <time>2019-02-27T13:07:46Z</time>
      </trkpt>
      <trkpt lat="42.75936" lon="0.16662">
        <ele>1710</ele>
        <time>2019-02-27T13:07:47Z</time>
      </trkpt>
      <trkpt lat="42.75936" lon="0.16662">
        <ele>1710</ele>
        <time>2019-02-27T13:07:48Z</time>
      </trkpt>
      <trkpt lat="42.75936" lon="0.16662">
        <ele>1710</ele>
        <time>2019-02-27T13:07:49Z</time>
      </trkpt>
      <trkpt lat="42.75936" lon="0.16662">
        <ele>1710</ele>
        <time>2019-02-27T13:07:50Z</time>
      </trkpt>
      <trkpt lat="42.75936" lon="0.16662">
        <ele>1710</ele>
        <time>2019-02-27T13:07:51Z</time>
      </trkpt>
      <trkpt lat="42.75936" lon="0.16662">
        <ele>1710</ele>
        <time>2019-02-27T13:07:52Z</time>
      </trkpt>
      <trkpt lat="42.75936" lon="0.16662">
        <ele>1710</ele>
        <time>2019-02-27T13:07:53Z</time>
      </trkpt>
      <trkpt lat="42.75936" lon="0.16662">
        <ele>1710</ele>
        <time>2019-02-27T13:07:54Z</time>
      </trkpt>
      <trkpt lat="42.75936" lon="0.16662">
        <ele>1710</ele>
        <time>2019-02-27T13:07:55Z</time>
      </trkpt>
      <trkpt lat="42.75936" lon="0.16662">
        <ele>1710</ele>
        <time>2019-02-27T13:07:56Z</time>
      </trkpt>
      <trkpt lat="42.75936" lon="0.16662">
        <ele>1710</ele>
        <time>2019-02-27T13:07:57Z</time>
      </trkpt>
      <trkpt lat="42.75936" lon="0.16662">
        <ele>1710</ele>
        <time>2019-02-27T13:07:58Z</time>
      </trkpt>
      <trkpt lat="42.75936" lon="0.16662">
        <ele>1710</ele>
        <time>2019-02-27T13:07:59Z</time>
      </trkpt>
      <trkpt lat="42.75936" lon="0.16662">
        <ele>1710</ele>
        <time>2019-02-27T13:08:00Z</time>
      </trkpt>
      <trkpt lat="42.75936" lon="0.16662">
        <ele>1710</ele>
        <time>2019-02-27T13:08:01Z</time>
      </trkpt>
      <trkpt lat="42.75936" lon="0.16662">
        <ele>1710</ele>
        <time>2019-02-27T13:08:02Z</time>
      </trkpt>
      <trkpt lat="42.75936" lon="0.16662">
        <ele>1710</ele>
        <time>2019-02-27T13:08:03Z</time>
      </trkpt>
      <trkpt lat="42.75936" lon="0.16662">
        <ele>1710</ele>
        <time>2019-02-27T13:08:04Z</time>
      </trkpt>
      <trkpt lat="42.75936" lon="0.16662">
        <ele>1710</ele>
        <time>2019-02-27T13:08:05Z</time>
      </trkpt>
      <trkpt lat="42.75936" lon="0.16662">
        <ele>1710</ele>
        <time>2019-02-27T13:08:06Z</time>
      </trkpt>
      <trkpt lat="42.75936" lon="0.16662">
        <ele>1710</ele>
        <time>2019-02-27T13:08:07Z</time>
      </trkpt>
      <trkpt lat="42.75936" lon="0.16662">
        <ele>1710</ele>
        <time>2019-02-27T13:08:08Z</time>
      </trkpt>
      <trkpt lat="42.75936" lon="0.16662">
        <ele>1710</ele>
        <time>2019-02-27T13:08:09Z</time>
      </trkpt>
      <trkpt lat="42.75936" lon="0.16662">
        <ele>1710</ele>
        <time>2019-02-27T13:08:10Z</time>
      </trkpt>
      <trkpt lat="42.75936" lon="0.16662">
        <ele>1710</ele>
        <time>2019-02-27T13:08:11Z</time>
      </trkpt>
      <trkpt lat="42.75936" lon="0.16662">
        <ele>1710</ele>
        <time>2019-02-27T13:08:12Z</time>
      </trkpt>
      <trkpt lat="42.75936" lon="0.16662">
        <ele>1710</ele>
        <time>2019-02-27T13:08:13Z</time>
      </trkpt>
      <trkpt lat="42.75936" lon="0.16662">
        <ele>1710</ele>
        <time>2019-02-27T13:08:14Z</time>
      </trkpt>
      <trkpt lat="42.75936" lon="0.16662">
        <ele>1710</ele>
        <time>2019-02-27T13:08:15Z</time>
      </trkpt>
      <trkpt lat="42.75936" lon="0.16662">
        <ele>1710</ele>
        <time>2019-02-27T13:08:16Z</time>
      </trkpt>
      <trkpt lat="42.75936" lon="0.16662">
        <ele>1710</ele>
        <time>2019-02-27T13:08:17Z</time>
      </trkpt>
      <trkpt lat="42.75936" lon="0.16662">
        <ele>1710</ele>
        <time>2019-02-27T13:08:18Z</time>
      </trkpt>
      <trkpt lat="42.75936" lon="0.16662">
        <ele>1710</ele>
        <time>2019-02-27T13:08:19Z</time>
      </trkpt>
      <trkpt lat="42.75936" lon="0.16662">
        <ele>1710</ele>
        <time>2019-02-27T13:08:20Z</time>
      </trkpt>
      <trkpt lat="42.75936" lon="0.16662">
        <ele>1710</ele>
        <time>2019-02-27T13:08:21Z</time>
      </trkpt>
      <trkpt lat="42.75936" lon="0.16662">
        <ele>1710</ele>
        <time>2019-02-27T13:08:22Z</time>
      </trkpt>
      <trkpt lat="42.75936" lon="0.16662">
        <ele>1710</ele>
        <time>2019-02-27T13:08:23Z</time>
      </trkpt>
      <trkpt lat="42.75936" lon="0.16662">
        <ele>1710</ele>
        <time>2019-02-27T13:08:24Z</time>
      </trkpt>
      <trkpt lat="42.75936" lon="0.16662">
        <ele>1710</ele>
        <time>2019-02-27T13:08:25Z</time>
      </trkpt>
      <trkpt lat="42.75936" lon="0.16662">
        <ele>1710</ele>
        <time>2019-02-27T13:08:26Z</time>
      </trkpt>
      <trkpt lat="42.75936" lon="0.16662">
        <ele>1710</ele>
        <time>2019-02-27T13:08:27Z</time>
      </trkpt>
      <trkpt lat="42.75936" lon="0.16662">
        <ele>1710</ele>
        <time>2019-02-27T13:08:28Z</time>
      </trkpt>
      <trkpt lat="42.75936" lon="0.16662">
        <ele>1710</ele>
        <time>2019-02-27T13:08:29Z</time>
      </trkpt>
      <trkpt lat="42.75936" lon="0.16662">
        <ele>1710</ele>
        <time>2019-02-27T13:08:30Z</time>
      </trkpt>
      <trkpt lat="42.75936" lon="0.16662">
        <ele>1710</ele>
        <time>2019-02-27T13:08:31Z</time>
      </trkpt>
      <trkpt lat="42.75936" lon="0.16662">
        <ele>1710</ele>
        <time>2019-02-27T13:08:32Z</time>
      </trkpt>
      <trkpt lat="42.75936" lon="0.16662">
        <ele>1710</ele>
        <time>2019-02-27T13:08:33Z</time>
      </trkpt>
      <trkpt lat="42.75936" lon="0.16662">
        <ele>1710</ele>
        <time>2019-02-27T13:08:34Z</time>
      </trkpt>
      <trkpt lat="42.75936" lon="0.16662">
        <ele>1710</ele>
        <time>2019-02-27T13:08:35Z</time>
      </trkpt>
      <trkpt lat="42.75936" lon="0.16662">
        <ele>1710</ele>
        <time>2019-02-27T13:08:36Z</time>
      </trkpt>
      <trkpt lat="42.75936" lon="0.16662">
        <ele>1710</ele>
        <time>2019-02-27T13:08:37Z</time>
      </trkpt>
      <trkpt lat="42.75936" lon="0.16662">
        <ele>1710</ele>
        <time>2019-02-27T13:08:38Z</time>
      </trkpt>
      <trkpt lat="42.75936" lon="0.16662">
        <ele>1710</ele>
        <time>2019-02-27T13:08:39Z</time>
      </trkpt>
      <trkpt lat="42.75936" lon="0.16662">
        <ele>1710</ele>
        <time>2019-02-27T13:08:40Z</time>
      </trkpt>
      <trkpt lat="42.75936" lon="0.16662">
        <ele>1710</ele>
        <time>2019-02-27T13:08:41Z</time>
      </trkpt>
      <trkpt lat="42.75936" lon="0.16662">
        <ele>1710</ele>
        <time>2019-02-27T13:08:42Z</time>
      </trkpt>
      <trkpt lat="42.75936" lon="0.16662">
        <ele>1710</ele>
        <time>2019-02-27T13:08:43Z</time>
      </trkpt>
      <trkpt lat="42.75936" lon="0.16662">
        <ele>1710</ele>
        <time>2019-02-27T13:08:44Z</time>
      </trkpt>
      <trkpt lat="42.75936" lon="0.16662">
        <ele>1710</ele>
        <time>2019-02-27T13:08:45Z</time>
      </trkpt>
      <trkpt lat="42.75938" lon="0.16661">
        <ele>1710</ele>
        <time>2019-02-27T13:08:46Z</time>
      </trkpt>
      <trkpt lat="42.75938" lon="0.16661">
        <ele>1710</ele>
        <time>2019-02-27T13:08:47Z</time>
      </trkpt>
      <trkpt lat="42.75938" lon="0.16661">
        <ele>1710</ele>
        <time>2019-02-27T13:08:48Z</time>
      </trkpt>
      <trkpt lat="42.75938" lon="0.16661">
        <ele>1710</ele>
        <time>2019-02-27T13:08:49Z</time>
      </trkpt>
      <trkpt lat="42.75938" lon="0.16661">
        <ele>1710</ele>
        <time>2019-02-27T13:08:50Z</time>
      </trkpt>
      <trkpt lat="42.75938" lon="0.16661">
        <ele>1710</ele>
        <time>2019-02-27T13:08:51Z</time>
      </trkpt>
      <trkpt lat="42.75938" lon="0.16661">
        <ele>1710</ele>
        <time>2019-02-27T13:08:52Z</time>
      </trkpt>
      <trkpt lat="42.75938" lon="0.16661">
        <ele>1710</ele>
        <time>2019-02-27T13:08:53Z</time>
      </trkpt>
      <trkpt lat="42.75938" lon="0.16661">
        <ele>1710</ele>
        <time>2019-02-27T13:08:54Z</time>
      </trkpt>
      <trkpt lat="42.75938" lon="0.16661">
        <ele>1710</ele>
        <time>2019-02-27T13:08:55Z</time>
      </trkpt>
      <trkpt lat="42.75938" lon="0.16661">
        <ele>1710</ele>
        <time>2019-02-27T13:08:56Z</time>
      </trkpt>
      <trkpt lat="42.75938" lon="0.16661">
        <ele>1710</ele>
        <time>2019-02-27T13:08:57Z</time>
      </trkpt>
      <trkpt lat="42.75938" lon="0.16661">
        <ele>1710</ele>
        <time>2019-02-27T13:08:58Z</time>
      </trkpt>
      <trkpt lat="42.75938" lon="0.16661">
        <ele>1710</ele>
        <time>2019-02-27T13:08:59Z</time>
      </trkpt>
      <trkpt lat="42.75938" lon="0.16661">
        <ele>1710</ele>
        <time>2019-02-27T13:09:00Z</time>
      </trkpt>
      <trkpt lat="42.75938" lon="0.16661">
        <ele>1710</ele>
        <time>2019-02-27T13:09:01Z</time>
      </trkpt>
      <trkpt lat="42.75938" lon="0.16661">
        <ele>1710</ele>
        <time>2019-02-27T13:09:02Z</time>
      </trkpt>
      <trkpt lat="42.75938" lon="0.16661">
        <ele>1710</ele>
        <time>2019-02-27T13:09:03Z</time>
      </trkpt>
      <trkpt lat="42.75938" lon="0.16661">
        <ele>1710</ele>
        <time>2019-02-27T13:09:04Z</time>
      </trkpt>
      <trkpt lat="42.75938" lon="0.16661">
        <ele>1710</ele>
        <time>2019-02-27T13:09:05Z</time>
      </trkpt>
      <trkpt lat="42.75938" lon="0.16661">
        <ele>1710</ele>
        <time>2019-02-27T13:09:06Z</time>
      </trkpt>
      <trkpt lat="42.75938" lon="0.16661">
        <ele>1710</ele>
        <time>2019-02-27T13:09:07Z</time>
      </trkpt>
      <trkpt lat="42.75938" lon="0.16661">
        <ele>1710</ele>
        <time>2019-02-27T13:09:08Z</time>
      </trkpt>
      <trkpt lat="42.75938" lon="0.16661">
        <ele>1710</ele>
        <time>2019-02-27T13:09:09Z</time>
      </trkpt>
      <trkpt lat="42.75938" lon="0.16661">
        <ele>1710</ele>
        <time>2019-02-27T13:09:10Z</time>
      </trkpt>
      <trkpt lat="42.75938" lon="0.16661">
        <ele>1710</ele>
        <time>2019-02-27T13:09:11Z</time>
      </trkpt>
      <trkpt lat="42.75938" lon="0.16661">
        <ele>1710</ele>
        <time>2019-02-27T13:09:12Z</time>
      </trkpt>
      <trkpt lat="42.75938" lon="0.16661">
        <ele>1710</ele>
        <time>2019-02-27T13:09:13Z</time>
      </trkpt>
      <trkpt lat="42.75938" lon="0.16661">
        <ele>1710</ele>
        <time>2019-02-27T13:09:14Z</time>
      </trkpt>
      <trkpt lat="42.75938" lon="0.16661">
        <ele>1710</ele>
        <time>2019-02-27T13:09:15Z</time>
      </trkpt>
      <trkpt lat="42.75938" lon="0.16661">
        <ele>1710</ele>
        <time>2019-02-27T13:09:16Z</time>
      </trkpt>
      <trkpt lat="42.75938" lon="0.16661">
        <ele>1710</ele>
        <time>2019-02-27T13:09:17Z</time>
      </trkpt>
      <trkpt lat="42.75938" lon="0.16661">
        <ele>1710</ele>
        <time>2019-02-27T13:09:18Z</time>
      </trkpt>
      <trkpt lat="42.75938" lon="0.16661">
        <ele>1710</ele>
        <time>2019-02-27T13:09:19Z</time>
      </trkpt>
      <trkpt lat="42.75938" lon="0.16661">
        <ele>1710</ele>
        <time>2019-02-27T13:09:20Z</time>
      </trkpt>
      <trkpt lat="42.75938" lon="0.16661">
        <ele>1710</ele>
        <time>2019-02-27T13:09:21Z</time>
      </trkpt>
      <trkpt lat="42.75938" lon="0.16661">
        <ele>1710</ele>
        <time>2019-02-27T13:09:22Z</time>
      </trkpt>
      <trkpt lat="42.75938" lon="0.16661">
        <ele>1710</ele>
        <time>2019-02-27T13:09:23Z</time>
      </trkpt>
      <trkpt lat="42.75938" lon="0.16661">
        <ele>1710</ele>
        <time>2019-02-27T13:09:24Z</time>
      </trkpt>
      <trkpt lat="42.75938" lon="0.16661">
        <ele>1710</ele>
        <time>2019-02-27T13:09:25Z</time>
      </trkpt>
      <trkpt lat="42.75938" lon="0.16661">
        <ele>1710</ele>
        <time>2019-02-27T13:09:26Z</time>
      </trkpt>
      <trkpt lat="42.75938" lon="0.16661">
        <ele>1710</ele>
        <time>2019-02-27T13:09:27Z</time>
      </trkpt>
      <trkpt lat="42.75938" lon="0.16661">
        <ele>1710</ele>
        <time>2019-02-27T13:09:28Z</time>
      </trkpt>
      <trkpt lat="42.75938" lon="0.16661">
        <ele>1710</ele>
        <time>2019-02-27T13:09:29Z</time>
      </trkpt>
      <trkpt lat="42.75938" lon="0.16661">
        <ele>1710</ele>
        <time>2019-02-27T13:09:30Z</time>
      </trkpt>
      <trkpt lat="42.75938" lon="0.16661">
        <ele>1710</ele>
        <time>2019-02-27T13:09:31Z</time>
      </trkpt>
      <trkpt lat="42.75938" lon="0.16661">
        <ele>1710</ele>
        <time>2019-02-27T13:09:32Z</time>
      </trkpt>
      <trkpt lat="42.75938" lon="0.16661">
        <ele>1710</ele>
        <time>2019-02-27T13:09:33Z</time>
      </trkpt>
      <trkpt lat="42.75938" lon="0.16661">
        <ele>1710</ele>
        <time>2019-02-27T13:09:34Z</time>
      </trkpt>
      <trkpt lat="42.75938" lon="0.16661">
        <ele>1710</ele>
        <time>2019-02-27T13:09:35Z</time>
      </trkpt>
      <trkpt lat="42.75938" lon="0.16661">
        <ele>1710</ele>
        <time>2019-02-27T13:09:36Z</time>
      </trkpt>
      <trkpt lat="42.75938" lon="0.16661">
        <ele>1710</ele>
        <time>2019-02-27T13:09:37Z</time>
      </trkpt>
      <trkpt lat="42.75938" lon="0.16661">
        <ele>1710</ele>
        <time>2019-02-27T13:09:38Z</time>
      </trkpt>
      <trkpt lat="42.75938" lon="0.16661">
        <ele>1710</ele>
        <time>2019-02-27T13:09:39Z</time>
      </trkpt>
      <trkpt lat="42.75938" lon="0.16661">
        <ele>1710</ele>
        <time>2019-02-27T13:09:40Z</time>
      </trkpt>
      <trkpt lat="42.75938" lon="0.16661">
        <ele>1710</ele>
        <time>2019-02-27T13:09:41Z</time>
      </trkpt>
      <trkpt lat="42.75938" lon="0.16661">
        <ele>1710</ele>
        <time>2019-02-27T13:09:42Z</time>
      </trkpt>
      <trkpt lat="42.75938" lon="0.16661">
        <ele>1710</ele>
        <time>2019-02-27T13:09:43Z</time>
      </trkpt>
      <trkpt lat="42.75938" lon="0.16661">
        <ele>1710</ele>
        <time>2019-02-27T13:09:44Z</time>
      </trkpt>
      <trkpt lat="42.75938" lon="0.16661">
        <ele>1710</ele>
        <time>2019-02-27T13:09:45Z</time>
      </trkpt>
      <trkpt lat="42.75938" lon="0.16661">
        <ele>1710</ele>
        <time>2019-02-27T13:09:46Z</time>
      </trkpt>
      <trkpt lat="42.75938" lon="0.16661">
        <ele>1710</ele>
        <time>2019-02-27T13:09:47Z</time>
      </trkpt>
      <trkpt lat="42.75938" lon="0.16661">
        <ele>1710</ele>
        <time>2019-02-27T13:09:48Z</time>
      </trkpt>
      <trkpt lat="42.75938" lon="0.16661">
        <ele>1710</ele>
        <time>2019-02-27T13:09:49Z</time>
      </trkpt>
      <trkpt lat="42.75938" lon="0.16661">
        <ele>1710</ele>
        <time>2019-02-27T13:09:50Z</time>
      </trkpt>
      <trkpt lat="42.75938" lon="0.16661">
        <ele>1710</ele>
        <time>2019-02-27T13:09:51Z</time>
      </trkpt>
      <trkpt lat="42.75938" lon="0.16661">
        <ele>1710</ele>
        <time>2019-02-27T13:09:52Z</time>
      </trkpt>
      <trkpt lat="42.75938" lon="0.16661">
        <ele>1710</ele>
        <time>2019-02-27T13:09:53Z</time>
      </trkpt>
      <trkpt lat="42.75938" lon="0.16661">
        <ele>1710</ele>
        <time>2019-02-27T13:09:54Z</time>
      </trkpt>
      <trkpt lat="42.75938" lon="0.16661">
        <ele>1710</ele>
        <time>2019-02-27T13:09:55Z</time>
      </trkpt>
      <trkpt lat="42.75938" lon="0.16661">
        <ele>1710</ele>
        <time>2019-02-27T13:09:56Z</time>
      </trkpt>
      <trkpt lat="42.75938" lon="0.16661">
        <ele>1710</ele>
        <time>2019-02-27T13:09:57Z</time>
      </trkpt>
      <trkpt lat="42.75938" lon="0.16661">
        <ele>1710</ele>
        <time>2019-02-27T13:09:58Z</time>
      </trkpt>
      <trkpt lat="42.75938" lon="0.16661">
        <ele>1710</ele>
        <time>2019-02-27T13:09:59Z</time>
      </trkpt>
      <trkpt lat="42.75938" lon="0.16661">
        <ele>1710</ele>
        <time>2019-02-27T13:10:00Z</time>
      </trkpt>
      <trkpt lat="42.75938" lon="0.16661">
        <ele>1710</ele>
        <time>2019-02-27T13:10:01Z</time>
      </trkpt>
      <trkpt lat="42.75938" lon="0.16661">
        <ele>1710</ele>
        <time>2019-02-27T13:10:02Z</time>
      </trkpt>
      <trkpt lat="42.75938" lon="0.16661">
        <ele>1710</ele>
        <time>2019-02-27T13:10:03Z</time>
      </trkpt>
      <trkpt lat="42.75938" lon="0.16661">
        <ele>1710</ele>
        <time>2019-02-27T13:10:04Z</time>
      </trkpt>
      <trkpt lat="42.75938" lon="0.16661">
        <ele>1710</ele>
        <time>2019-02-27T13:10:05Z</time>
      </trkpt>
      <trkpt lat="42.75938" lon="0.16661">
        <ele>1710</ele>
        <time>2019-02-27T13:10:06Z</time>
      </trkpt>
      <trkpt lat="42.75938" lon="0.16661">
        <ele>1710</ele>
        <time>2019-02-27T13:10:07Z</time>
      </trkpt>
      <trkpt lat="42.75938" lon="0.16661">
        <ele>1710</ele>
        <time>2019-02-27T13:10:08Z</time>
      </trkpt>
      <trkpt lat="42.75938" lon="0.16661">
        <ele>1710</ele>
        <time>2019-02-27T13:10:09Z</time>
      </trkpt>
      <trkpt lat="42.75938" lon="0.16661">
        <ele>1710</ele>
        <time>2019-02-27T13:10:10Z</time>
      </trkpt>
      <trkpt lat="42.75938" lon="0.16661">
        <ele>1710</ele>
        <time>2019-02-27T13:10:11Z</time>
      </trkpt>
      <trkpt lat="42.75938" lon="0.16661">
        <ele>1710</ele>
        <time>2019-02-27T13:10:12Z</time>
      </trkpt>
      <trkpt lat="42.75938" lon="0.16661">
        <ele>1710</ele>
        <time>2019-02-27T13:10:13Z</time>
      </trkpt>
      <trkpt lat="42.75938" lon="0.16661">
        <ele>1710</ele>
        <time>2019-02-27T13:10:14Z</time>
      </trkpt>
      <trkpt lat="42.75938" lon="0.16661">
        <ele>1710</ele>
        <time>2019-02-27T13:10:15Z</time>
      </trkpt>
      <trkpt lat="42.75938" lon="0.16661">
        <ele>1710</ele>
        <time>2019-02-27T13:10:16Z</time>
      </trkpt>
      <trkpt lat="42.75938" lon="0.16661">
        <ele>1710</ele>
        <time>2019-02-27T13:10:17Z</time>
      </trkpt>
      <trkpt lat="42.75938" lon="0.16661">
        <ele>1710</ele>
        <time>2019-02-27T13:10:18Z</time>
      </trkpt>
      <trkpt lat="42.75938" lon="0.16661">
        <ele>1710</ele>
        <time>2019-02-27T13:10:19Z</time>
      </trkpt>
      <trkpt lat="42.75938" lon="0.16661">
        <ele>1710</ele>
        <time>2019-02-27T13:10:20Z</time>
      </trkpt>
      <trkpt lat="42.75938" lon="0.16661">
        <ele>1710</ele>
        <time>2019-02-27T13:10:21Z</time>
      </trkpt>
      <trkpt lat="42.75938" lon="0.16661">
        <ele>1710</ele>
        <time>2019-02-27T13:10:22Z</time>
      </trkpt>
      <trkpt lat="42.75938" lon="0.16661">
        <ele>1710</ele>
        <time>2019-02-27T13:10:23Z</time>
      </trkpt>
      <trkpt lat="42.75938" lon="0.16661">
        <ele>1710</ele>
        <time>2019-02-27T13:10:24Z</time>
      </trkpt>
      <trkpt lat="42.75938" lon="0.16661">
        <ele>1710</ele>
        <time>2019-02-27T13:10:25Z</time>
      </trkpt>
      <trkpt lat="42.75938" lon="0.16661">
        <ele>1710</ele>
        <time>2019-02-27T13:10:26Z</time>
      </trkpt>
      <trkpt lat="42.75938" lon="0.16661">
        <ele>1710</ele>
        <time>2019-02-27T13:10:27Z</time>
      </trkpt>
      <trkpt lat="42.75938" lon="0.16661">
        <ele>1710</ele>
        <time>2019-02-27T13:10:28Z</time>
      </trkpt>
      <trkpt lat="42.75938" lon="0.16661">
        <ele>1710</ele>
        <time>2019-02-27T13:10:29Z</time>
      </trkpt>
      <trkpt lat="42.75938" lon="0.16661">
        <ele>1710</ele>
        <time>2019-02-27T13:10:30Z</time>
      </trkpt>
      <trkpt lat="42.75938" lon="0.16661">
        <ele>1710</ele>
        <time>2019-02-27T13:10:31Z</time>
      </trkpt>
      <trkpt lat="42.75938" lon="0.16661">
        <ele>1710</ele>
        <time>2019-02-27T13:10:32Z</time>
      </trkpt>
      <trkpt lat="42.75938" lon="0.16661">
        <ele>1710</ele>
        <time>2019-02-27T13:10:33Z</time>
      </trkpt>
      <trkpt lat="42.75938" lon="0.16661">
        <ele>1710</ele>
        <time>2019-02-27T13:10:34Z</time>
      </trkpt>
      <trkpt lat="42.75938" lon="0.16661">
        <ele>1710</ele>
        <time>2019-02-27T13:10:35Z</time>
      </trkpt>
      <trkpt lat="42.75938" lon="0.16661">
        <ele>1710</ele>
        <time>2019-02-27T13:10:36Z</time>
      </trkpt>
      <trkpt lat="42.75938" lon="0.16661">
        <ele>1710</ele>
        <time>2019-02-27T13:10:37Z</time>
      </trkpt>
      <trkpt lat="42.75938" lon="0.16661">
        <ele>1710</ele>
        <time>2019-02-27T13:10:38Z</time>
      </trkpt>
      <trkpt lat="42.75938" lon="0.16661">
        <ele>1710</ele>
        <time>2019-02-27T13:10:39Z</time>
      </trkpt>
      <trkpt lat="42.75938" lon="0.16661">
        <ele>1710</ele>
        <time>2019-02-27T13:10:40Z</time>
      </trkpt>
      <trkpt lat="42.75938" lon="0.16661">
        <ele>1710</ele>
        <time>2019-02-27T13:10:41Z</time>
      </trkpt>
      <trkpt lat="42.75938" lon="0.16661">
        <ele>1710</ele>
        <time>2019-02-27T13:10:42Z</time>
      </trkpt>
      <trkpt lat="42.75938" lon="0.16661">
        <ele>1710</ele>
        <time>2019-02-27T13:10:43Z</time>
      </trkpt>
      <trkpt lat="42.75938" lon="0.16661">
        <ele>1710</ele>
        <time>2019-02-27T13:10:44Z</time>
      </trkpt>
      <trkpt lat="42.75938" lon="0.16661">
        <ele>1710</ele>
        <time>2019-02-27T13:10:45Z</time>
      </trkpt>
      <trkpt lat="42.75938" lon="0.16661">
        <ele>1710</ele>
        <time>2019-02-27T13:10:46Z</time>
      </trkpt>
      <trkpt lat="42.75938" lon="0.16661">
        <ele>1710</ele>
        <time>2019-02-27T13:10:47Z</time>
      </trkpt>
      <trkpt lat="42.75938" lon="0.16661">
        <ele>1710</ele>
        <time>2019-02-27T13:10:48Z</time>
      </trkpt>
      <trkpt lat="42.75938" lon="0.16661">
        <ele>1710</ele>
        <time>2019-02-27T13:10:49Z</time>
      </trkpt>
      <trkpt lat="42.75938" lon="0.16661">
        <ele>1710</ele>
        <time>2019-02-27T13:10:50Z</time>
      </trkpt>
      <trkpt lat="42.75938" lon="0.16661">
        <ele>1710</ele>
        <time>2019-02-27T13:10:51Z</time>
      </trkpt>
      <trkpt lat="42.75938" lon="0.16661">
        <ele>1710</ele>
        <time>2019-02-27T13:10:52Z</time>
      </trkpt>
      <trkpt lat="42.75938" lon="0.16661">
        <ele>1710</ele>
        <time>2019-02-27T13:10:53Z</time>
      </trkpt>
      <trkpt lat="42.75938" lon="0.16661">
        <ele>1710</ele>
        <time>2019-02-27T13:10:54Z</time>
      </trkpt>
      <trkpt lat="42.75938" lon="0.16661">
        <ele>1710</ele>
        <time>2019-02-27T13:10:55Z</time>
      </trkpt>
      <trkpt lat="42.75938" lon="0.16661">
        <ele>1710</ele>
        <time>2019-02-27T13:10:56Z</time>
      </trkpt>
      <trkpt lat="42.75938" lon="0.16661">
        <ele>1710</ele>
        <time>2019-02-27T13:10:57Z</time>
      </trkpt>
      <trkpt lat="42.75938" lon="0.16661">
        <ele>1710</ele>
        <time>2019-02-27T13:10:58Z</time>
      </trkpt>
      <trkpt lat="42.75938" lon="0.16661">
        <ele>1710</ele>
        <time>2019-02-27T13:10:59Z</time>
      </trkpt>
      <trkpt lat="42.75938" lon="0.16661">
        <ele>1710</ele>
        <time>2019-02-27T13:11:00Z</time>
      </trkpt>
      <trkpt lat="42.75938" lon="0.16661">
        <ele>1710</ele>
        <time>2019-02-27T13:11:01Z</time>
      </trkpt>
      <trkpt lat="42.75938" lon="0.16661">
        <ele>1710</ele>
        <time>2019-02-27T13:11:02Z</time>
      </trkpt>
      <trkpt lat="42.75938" lon="0.16661">
        <ele>1710</ele>
        <time>2019-02-27T13:11:03Z</time>
      </trkpt>
      <trkpt lat="42.75938" lon="0.16661">
        <ele>1710</ele>
        <time>2019-02-27T13:11:04Z</time>
      </trkpt>
      <trkpt lat="42.75938" lon="0.16661">
        <ele>1710</ele>
        <time>2019-02-27T13:11:05Z</time>
      </trkpt>
      <trkpt lat="42.75938" lon="0.16661">
        <ele>1710</ele>
        <time>2019-02-27T13:11:06Z</time>
      </trkpt>
      <trkpt lat="42.75938" lon="0.16661">
        <ele>1710</ele>
        <time>2019-02-27T13:11:07Z</time>
      </trkpt>
      <trkpt lat="42.75938" lon="0.16661">
        <ele>1710</ele>
        <time>2019-02-27T13:11:08Z</time>
      </trkpt>
      <trkpt lat="42.75938" lon="0.16661">
        <ele>1710</ele>
        <time>2019-02-27T13:11:09Z</time>
      </trkpt>
      <trkpt lat="42.75938" lon="0.16661">
        <ele>1710</ele>
        <time>2019-02-27T13:11:10Z</time>
      </trkpt>
      <trkpt lat="42.75938" lon="0.16661">
        <ele>1710</ele>
        <time>2019-02-27T13:11:11Z</time>
      </trkpt>
      <trkpt lat="42.75938" lon="0.16661">
        <ele>1710</ele>
        <time>2019-02-27T13:11:12Z</time>
      </trkpt>
      <trkpt lat="42.75938" lon="0.16661">
        <ele>1710</ele>
        <time>2019-02-27T13:11:13Z</time>
      </trkpt>
      <trkpt lat="42.75938" lon="0.16661">
        <ele>1710</ele>
        <time>2019-02-27T13:11:14Z</time>
      </trkpt>
      <trkpt lat="42.75938" lon="0.16661">
        <ele>1710</ele>
        <time>2019-02-27T13:11:15Z</time>
      </trkpt>
      <trkpt lat="42.75938" lon="0.16661">
        <ele>1710</ele>
        <time>2019-02-27T13:11:16Z</time>
      </trkpt>
      <trkpt lat="42.75938" lon="0.16661">
        <ele>1710</ele>
        <time>2019-02-27T13:11:17Z</time>
      </trkpt>
      <trkpt lat="42.75938" lon="0.16661">
        <ele>1710</ele>
        <time>2019-02-27T13:11:18Z</time>
      </trkpt>
      <trkpt lat="42.75938" lon="0.16661">
        <ele>1710</ele>
        <time>2019-02-27T13:11:19Z</time>
      </trkpt>
      <trkpt lat="42.75938" lon="0.16661">
        <ele>1710</ele>
        <time>2019-02-27T13:11:20Z</time>
      </trkpt>
      <trkpt lat="42.75938" lon="0.16661">
        <ele>1710</ele>
        <time>2019-02-27T13:11:21Z</time>
      </trkpt>
      <trkpt lat="42.75938" lon="0.16661">
        <ele>1710</ele>
        <time>2019-02-27T13:11:22Z</time>
      </trkpt>
      <trkpt lat="42.75938" lon="0.16661">
        <ele>1710</ele>
        <time>2019-02-27T13:11:23Z</time>
      </trkpt>
      <trkpt lat="42.75938" lon="0.16661">
        <ele>1710</ele>
        <time>2019-02-27T13:11:24Z</time>
      </trkpt>
      <trkpt lat="42.75938" lon="0.16661">
        <ele>1710</ele>
        <time>2019-02-27T13:11:25Z</time>
      </trkpt>
      <trkpt lat="42.7594" lon="0.1666">
        <ele>1710</ele>
        <time>2019-02-27T13:11:26Z</time>
      </trkpt>
      <trkpt lat="42.7594" lon="0.1666">
        <ele>1710</ele>
        <time>2019-02-27T13:11:27Z</time>
      </trkpt>
      <trkpt lat="42.75942" lon="0.1666">
        <ele>1710</ele>
        <time>2019-02-27T13:11:28Z</time>
      </trkpt>
      <trkpt lat="42.75942" lon="0.1666">
        <ele>1710</ele>
        <time>2019-02-27T13:11:29Z</time>
      </trkpt>
      <trkpt lat="42.75945" lon="0.1666">
        <ele>1710</ele>
        <time>2019-02-27T13:11:30Z</time>
      </trkpt>
      <trkpt lat="42.75945" lon="0.1666">
        <ele>1710</ele>
        <time>2019-02-27T13:11:31Z</time>
      </trkpt>
      <trkpt lat="42.75949" lon="0.1666">
        <ele>1710</ele>
        <time>2019-02-27T13:11:32Z</time>
      </trkpt>
      <trkpt lat="42.75949" lon="0.1666">
        <ele>1710</ele>
        <time>2019-02-27T13:11:33Z</time>
      </trkpt>
      <trkpt lat="42.75952" lon="0.1666">
        <ele>1710</ele>
        <time>2019-02-27T13:11:34Z</time>
      </trkpt>
      <trkpt lat="42.75952" lon="0.1666">
        <ele>1710</ele>
        <time>2019-02-27T13:11:35Z</time>
      </trkpt>
      <trkpt lat="42.75954" lon="0.1666">
        <ele>1710</ele>
        <time>2019-02-27T13:11:36Z</time>
      </trkpt>
      <trkpt lat="42.75954" lon="0.1666">
        <ele>1710</ele>
        <time>2019-02-27T13:11:37Z</time>
      </trkpt>
      <trkpt lat="42.75956" lon="0.1666">
        <ele>1710</ele>
        <time>2019-02-27T13:11:38Z</time>
      </trkpt>
      <trkpt lat="42.75956" lon="0.1666">
        <ele>1710</ele>
        <time>2019-02-27T13:11:39Z</time>
      </trkpt>
      <trkpt lat="42.75958" lon="0.16661">
        <ele>1710</ele>
        <time>2019-02-27T13:11:40Z</time>
      </trkpt>
      <trkpt lat="42.75958" lon="0.16661">
        <ele>1710</ele>
        <time>2019-02-27T13:11:41Z</time>
      </trkpt>
      <trkpt lat="42.7596" lon="0.1666">
        <ele>1710</ele>
        <time>2019-02-27T13:11:42Z</time>
      </trkpt>
      <trkpt lat="42.7596" lon="0.1666">
        <ele>1710</ele>
        <time>2019-02-27T13:11:43Z</time>
      </trkpt>
      <trkpt lat="42.75963" lon="0.1666">
        <ele>1710</ele>
        <time>2019-02-27T13:11:44Z</time>
      </trkpt>
      <trkpt lat="42.75963" lon="0.1666">
        <ele>1710</ele>
        <time>2019-02-27T13:11:45Z</time>
      </trkpt>
      <trkpt lat="42.75965" lon="0.1666">
        <ele>1710</ele>
        <time>2019-02-27T13:11:46Z</time>
      </trkpt>
      <trkpt lat="42.75967" lon="0.1666">
        <ele>1710</ele>
        <time>2019-02-27T13:11:47Z</time>
      </trkpt>
      <trkpt lat="42.75967" lon="0.1666">
        <ele>1710</ele>
        <time>2019-02-27T13:11:48Z</time>
      </trkpt>
      <trkpt lat="42.7597" lon="0.16661">
        <ele>1710</ele>
        <time>2019-02-27T13:11:49Z</time>
      </trkpt>
      <trkpt lat="42.7597" lon="0.16661">
        <ele>1710</ele>
        <time>2019-02-27T13:11:50Z</time>
      </trkpt>
      <trkpt lat="42.75973" lon="0.16661">
        <ele>1710</ele>
        <time>2019-02-27T13:11:51Z</time>
      </trkpt>
      <trkpt lat="42.75973" lon="0.16661">
        <ele>1710</ele>
        <time>2019-02-27T13:11:52Z</time>
      </trkpt>
      <trkpt lat="42.75976" lon="0.16661">
        <ele>1710</ele>
        <time>2019-02-27T13:11:53Z</time>
      </trkpt>
      <trkpt lat="42.75976" lon="0.16661">
        <ele>1710</ele>
        <time>2019-02-27T13:11:54Z</time>
      </trkpt>
      <trkpt lat="42.75978" lon="0.16661">
        <ele>1710</ele>
        <time>2019-02-27T13:11:55Z</time>
      </trkpt>
      <trkpt lat="42.75978" lon="0.16661">
        <ele>1710</ele>
        <time>2019-02-27T13:11:56Z</time>
      </trkpt>
      <trkpt lat="42.75981" lon="0.16661">
        <ele>1710</ele>
        <time>2019-02-27T13:11:57Z</time>
      </trkpt>
      <trkpt lat="42.75981" lon="0.16661">
        <ele>1710</ele>
        <time>2019-02-27T13:11:58Z</time>
      </trkpt>
      <trkpt lat="42.75983" lon="0.1666">
        <ele>1710</ele>
        <time>2019-02-27T13:11:59Z</time>
      </trkpt>
      <trkpt lat="42.75985" lon="0.16659">
        <ele>1710</ele>
        <time>2019-02-27T13:12:00Z</time>
      </trkpt>
      <trkpt lat="42.75986" lon="0.16659">
        <ele>1710</ele>
        <time>2019-02-27T13:12:01Z</time>
      </trkpt>
      <trkpt lat="42.75986" lon="0.16659">
        <ele>1710</ele>
        <time>2019-02-27T13:12:02Z</time>
      </trkpt>
      <trkpt lat="42.7599" lon="0.16658">
        <ele>1710</ele>
        <time>2019-02-27T13:12:03Z</time>
      </trkpt>
      <trkpt lat="42.75992" lon="0.16657">
        <ele>1710</ele>
        <time>2019-02-27T13:12:04Z</time>
      </trkpt>
      <trkpt lat="42.75995" lon="0.16657">
        <ele>1710</ele>
        <time>2019-02-27T13:12:05Z</time>
      </trkpt>
      <trkpt lat="42.75997" lon="0.16656">
        <ele>1710</ele>
        <time>2019-02-27T13:12:06Z</time>
      </trkpt>
      <trkpt lat="42.76" lon="0.16655">
        <ele>1710</ele>
        <time>2019-02-27T13:12:07Z</time>
      </trkpt>
      <trkpt lat="42.76002" lon="0.16654">
        <ele>1710</ele>
        <time>2019-02-27T13:12:08Z</time>
      </trkpt>
      <trkpt lat="42.76003" lon="0.16652">
        <ele>1710</ele>
        <time>2019-02-27T13:12:09Z</time>
      </trkpt>
      <trkpt lat="42.76005" lon="0.16651">
        <ele>1710</ele>
        <time>2019-02-27T13:12:10Z</time>
      </trkpt>
      <trkpt lat="42.76005" lon="0.16651">
        <ele>1710</ele>
        <time>2019-02-27T13:12:11Z</time>
      </trkpt>
      <trkpt lat="42.76005" lon="0.16651">
        <ele>1710</ele>
        <time>2019-02-27T13:12:12Z</time>
      </trkpt>
      <trkpt lat="42.76011" lon="0.16649">
        <ele>1710</ele>
        <time>2019-02-27T13:12:13Z</time>
      </trkpt>
      <trkpt lat="42.76011" lon="0.16649">
        <ele>1710</ele>
        <time>2019-02-27T13:12:14Z</time>
      </trkpt>
      <trkpt lat="42.76011" lon="0.16649">
        <ele>1710</ele>
        <time>2019-02-27T13:12:15Z</time>
      </trkpt>
      <trkpt lat="42.76016" lon="0.16649">
        <ele>1710</ele>
        <time>2019-02-27T13:12:16Z</time>
      </trkpt>
      <trkpt lat="42.76016" lon="0.16649">
        <ele>1710</ele>
        <time>2019-02-27T13:12:17Z</time>
      </trkpt>
      <trkpt lat="42.76016" lon="0.16649">
        <ele>1710</ele>
        <time>2019-02-27T13:12:18Z</time>
      </trkpt>
      <trkpt lat="42.76018" lon="0.16649">
        <ele>1710</ele>
        <time>2019-02-27T13:12:19Z</time>
      </trkpt>
      <trkpt lat="42.76018" lon="0.16649">
        <ele>1710</ele>
        <time>2019-02-27T13:12:20Z</time>
      </trkpt>
      <trkpt lat="42.76018" lon="0.16649">
        <ele>1710</ele>
        <time>2019-02-27T13:12:21Z</time>
      </trkpt>
      <trkpt lat="42.76021" lon="0.16648">
        <ele>1710</ele>
        <time>2019-02-27T13:12:22Z</time>
      </trkpt>
      <trkpt lat="42.76021" lon="0.16648">
        <ele>1710</ele>
        <time>2019-02-27T13:12:23Z</time>
      </trkpt>
      <trkpt lat="42.76023" lon="0.16648">
        <ele>1710</ele>
        <time>2019-02-27T13:12:24Z</time>
      </trkpt>
      <trkpt lat="42.76023" lon="0.16648">
        <ele>1710</ele>
        <time>2019-02-27T13:12:25Z</time>
      </trkpt>
      <trkpt lat="42.76026" lon="0.16648">
        <ele>1710</ele>
        <time>2019-02-27T13:12:26Z</time>
      </trkpt>
      <trkpt lat="42.76026" lon="0.16648">
        <ele>1710</ele>
        <time>2019-02-27T13:12:27Z</time>
      </trkpt>
      <trkpt lat="42.7603" lon="0.16647">
        <ele>1710</ele>
        <time>2019-02-27T13:12:28Z</time>
      </trkpt>
      <trkpt lat="42.76032" lon="0.16646">
        <ele>1710</ele>
        <time>2019-02-27T13:12:29Z</time>
      </trkpt>
      <trkpt lat="42.76034" lon="0.16645">
        <ele>1710</ele>
        <time>2019-02-27T13:12:30Z</time>
      </trkpt>
      <trkpt lat="42.76035" lon="0.16645">
        <ele>1710</ele>
        <time>2019-02-27T13:12:31Z</time>
      </trkpt>
      <trkpt lat="42.76037" lon="0.16644">
        <ele>1710</ele>
        <time>2019-02-27T13:12:32Z</time>
      </trkpt>
      <trkpt lat="42.76039" lon="0.16643">
        <ele>1710</ele>
        <time>2019-02-27T13:12:33Z</time>
      </trkpt>
      <trkpt lat="42.76041" lon="0.16642">
        <ele>1710</ele>
        <time>2019-02-27T13:12:34Z</time>
      </trkpt>
      <trkpt lat="42.76043" lon="0.16642">
        <ele>1710</ele>
        <time>2019-02-27T13:12:35Z</time>
      </trkpt>
      <trkpt lat="42.76045" lon="0.16641">
        <ele>1710</ele>
        <time>2019-02-27T13:12:36Z</time>
      </trkpt>
      <trkpt lat="42.76047" lon="0.16641">
        <ele>1710</ele>
        <time>2019-02-27T13:12:37Z</time>
      </trkpt>
      <trkpt lat="42.76049" lon="0.1664">
        <ele>1710</ele>
        <time>2019-02-27T13:12:38Z</time>
      </trkpt>
      <trkpt lat="42.76052" lon="0.16639">
        <ele>1710</ele>
        <time>2019-02-27T13:12:39Z</time>
      </trkpt>
      <trkpt lat="42.76054" lon="0.16637">
        <ele>1710</ele>
        <time>2019-02-27T13:12:40Z</time>
      </trkpt>
      <trkpt lat="42.76054" lon="0.16637">
        <ele>1710</ele>
        <time>2019-02-27T13:12:41Z</time>
      </trkpt>
      <trkpt lat="42.76057" lon="0.16636">
        <ele>1710</ele>
        <time>2019-02-27T13:12:42Z</time>
      </trkpt>
      <trkpt lat="42.76057" lon="0.16636">
        <ele>1710</ele>
        <time>2019-02-27T13:12:43Z</time>
      </trkpt>
      <trkpt lat="42.76059" lon="0.16635">
        <ele>1710</ele>
        <time>2019-02-27T13:12:44Z</time>
      </trkpt>
      <trkpt lat="42.76059" lon="0.16635">
        <ele>1710</ele>
        <time>2019-02-27T13:12:45Z</time>
      </trkpt>
      <trkpt lat="42.76061" lon="0.16635">
        <ele>1710</ele>
        <time>2019-02-27T13:12:46Z</time>
      </trkpt>
      <trkpt lat="42.76061" lon="0.16635">
        <ele>1710</ele>
        <time>2019-02-27T13:12:47Z</time>
      </trkpt>
      <trkpt lat="42.76063" lon="0.16634">
        <ele>1710</ele>
        <time>2019-02-27T13:12:48Z</time>
      </trkpt>
      <trkpt lat="42.76063" lon="0.16634">
        <ele>1710</ele>
        <time>2019-02-27T13:12:49Z</time>
      </trkpt>
      <trkpt lat="42.76066" lon="0.16634">
        <ele>1710</ele>
        <time>2019-02-27T13:12:50Z</time>
      </trkpt>
      <trkpt lat="42.76068" lon="0.16634">
        <ele>1710</ele>
        <time>2019-02-27T13:12:51Z</time>
      </trkpt>
      <trkpt lat="42.76071" lon="0.16635">
        <ele>1710</ele>
        <time>2019-02-27T13:12:52Z</time>
      </trkpt>
      <trkpt lat="42.76073" lon="0.16635">
        <ele>1710</ele>
        <time>2019-02-27T13:12:53Z</time>
      </trkpt>
      <trkpt lat="42.76076" lon="0.16636">
        <ele>1710</ele>
        <time>2019-02-27T13:12:54Z</time>
      </trkpt>
      <trkpt lat="42.76078" lon="0.16636">
        <ele>1710</ele>
        <time>2019-02-27T13:12:55Z</time>
      </trkpt>
      <trkpt lat="42.7608" lon="0.16637">
        <ele>1710</ele>
        <time>2019-02-27T13:12:56Z</time>
      </trkpt>
      <trkpt lat="42.76082" lon="0.16638">
        <ele>1710</ele>
        <time>2019-02-27T13:12:57Z</time>
      </trkpt>
      <trkpt lat="42.76085" lon="0.16639">
        <ele>1710</ele>
        <time>2019-02-27T13:12:58Z</time>
      </trkpt>
      <trkpt lat="42.76088" lon="0.1664">
        <ele>1710</ele>
        <time>2019-02-27T13:12:59Z</time>
      </trkpt>
      <trkpt lat="42.7609" lon="0.16641">
        <ele>1710</ele>
        <time>2019-02-27T13:13:00Z</time>
      </trkpt>
      <trkpt lat="42.76092" lon="0.16642">
        <ele>1710</ele>
        <time>2019-02-27T13:13:01Z</time>
      </trkpt>
      <trkpt lat="42.76094" lon="0.16644">
        <ele>1710</ele>
        <time>2019-02-27T13:13:02Z</time>
      </trkpt>
      <trkpt lat="42.76097" lon="0.16646">
        <ele>1710</ele>
        <time>2019-02-27T13:13:03Z</time>
      </trkpt>
      <trkpt lat="42.761" lon="0.16647">
        <ele>1710</ele>
        <time>2019-02-27T13:13:04Z</time>
      </trkpt>
      <trkpt lat="42.76103" lon="0.16648">
        <ele>1710</ele>
        <time>2019-02-27T13:13:05Z</time>
      </trkpt>
      <trkpt lat="42.76106" lon="0.1665">
        <ele>1710</ele>
        <time>2019-02-27T13:13:06Z</time>
      </trkpt>
      <trkpt lat="42.76108" lon="0.16651">
        <ele>1710</ele>
        <time>2019-02-27T13:13:07Z</time>
      </trkpt>
      <trkpt lat="42.7611" lon="0.16652">
        <ele>1710</ele>
        <time>2019-02-27T13:13:08Z</time>
      </trkpt>
      <trkpt lat="42.7611" lon="0.16652">
        <ele>1710</ele>
        <time>2019-02-27T13:13:09Z</time>
      </trkpt>
      <trkpt lat="42.76113" lon="0.16652">
        <ele>1710</ele>
        <time>2019-02-27T13:13:10Z</time>
      </trkpt>
      <trkpt lat="42.76113" lon="0.16652">
        <ele>1710</ele>
        <time>2019-02-27T13:13:11Z</time>
      </trkpt>
      <trkpt lat="42.76116" lon="0.16653">
        <ele>1710</ele>
        <time>2019-02-27T13:13:12Z</time>
      </trkpt>
      <trkpt lat="42.76116" lon="0.16653">
        <ele>1710</ele>
        <time>2019-02-27T13:13:13Z</time>
      </trkpt>
      <trkpt lat="42.76116" lon="0.16653">
        <ele>1710</ele>
        <time>2019-02-27T13:13:14Z</time>
      </trkpt>
      <trkpt lat="42.76116" lon="0.16653">
        <ele>1710</ele>
        <time>2019-02-27T13:13:15Z</time>
      </trkpt>
      <trkpt lat="42.76116" lon="0.16653">
        <ele>1710</ele>
        <time>2019-02-27T13:13:16Z</time>
      </trkpt>
      <trkpt lat="42.76116" lon="0.16653">
        <ele>1710</ele>
        <time>2019-02-27T13:13:17Z</time>
      </trkpt>
      <trkpt lat="42.76116" lon="0.16653">
        <ele>1710</ele>
        <time>2019-02-27T13:13:18Z</time>
      </trkpt>
      <trkpt lat="42.76116" lon="0.16653">
        <ele>1710</ele>
        <time>2019-02-27T13:13:19Z</time>
      </trkpt>
      <trkpt lat="42.76125" lon="0.16656">
        <ele>1710</ele>
        <time>2019-02-27T13:13:20Z</time>
      </trkpt>
      <trkpt lat="42.76125" lon="0.16656">
        <ele>1710</ele>
        <time>2019-02-27T13:13:21Z</time>
      </trkpt>
      <trkpt lat="42.76125" lon="0.16656">
        <ele>1710</ele>
        <time>2019-02-27T13:13:22Z</time>
      </trkpt>
      <trkpt lat="42.76125" lon="0.16656">
        <ele>1710</ele>
        <time>2019-02-27T13:13:23Z</time>
      </trkpt>
      <trkpt lat="42.76125" lon="0.16656">
        <ele>1710</ele>
        <time>2019-02-27T13:13:24Z</time>
      </trkpt>
      <trkpt lat="42.76133" lon="0.16663">
        <ele>1710</ele>
        <time>2019-02-27T13:13:25Z</time>
      </trkpt>
      <trkpt lat="42.76133" lon="0.16663">
        <ele>1710</ele>
        <time>2019-02-27T13:13:26Z</time>
      </trkpt>
      <trkpt lat="42.76133" lon="0.16663">
        <ele>1710</ele>
        <time>2019-02-27T13:13:27Z</time>
      </trkpt>
      <trkpt lat="42.76133" lon="0.16663">
        <ele>1710</ele>
        <time>2019-02-27T13:13:28Z</time>
      </trkpt>
      <trkpt lat="42.76133" lon="0.16663">
        <ele>1710</ele>
        <time>2019-02-27T13:13:29Z</time>
      </trkpt>
      <trkpt lat="42.76142" lon="0.16669">
        <ele>1710</ele>
        <time>2019-02-27T13:13:30Z</time>
      </trkpt>
      <trkpt lat="42.76142" lon="0.16669">
        <ele>1710</ele>
        <time>2019-02-27T13:13:31Z</time>
      </trkpt>
      <trkpt lat="42.76142" lon="0.16669">
        <ele>1710</ele>
        <time>2019-02-27T13:13:32Z</time>
      </trkpt>
      <trkpt lat="42.76142" lon="0.16669">
        <ele>1710</ele>
        <time>2019-02-27T13:13:33Z</time>
      </trkpt>
      <trkpt lat="42.76142" lon="0.16669">
        <ele>1710</ele>
        <time>2019-02-27T13:13:34Z</time>
      </trkpt>
      <trkpt lat="42.76142" lon="0.16669">
        <ele>1710</ele>
        <time>2019-02-27T13:13:35Z</time>
      </trkpt>
      <trkpt lat="42.76142" lon="0.16669">
        <ele>1710</ele>
        <time>2019-02-27T13:13:36Z</time>
      </trkpt>
      <trkpt lat="42.76142" lon="0.16669">
        <ele>1710</ele>
        <time>2019-02-27T13:13:37Z</time>
      </trkpt>
      <trkpt lat="42.76151" lon="0.16673">
        <ele>1710</ele>
        <time>2019-02-27T13:13:38Z</time>
      </trkpt>
      <trkpt lat="42.76151" lon="0.16673">
        <ele>1710</ele>
        <time>2019-02-27T13:13:39Z</time>
      </trkpt>
      <trkpt lat="42.76151" lon="0.16673">
        <ele>1710</ele>
        <time>2019-02-27T13:13:40Z</time>
      </trkpt>
      <trkpt lat="42.76154" lon="0.16675">
        <ele>1710</ele>
        <time>2019-02-27T13:13:41Z</time>
      </trkpt>
      <trkpt lat="42.76154" lon="0.16675">
        <ele>1710</ele>
        <time>2019-02-27T13:13:42Z</time>
      </trkpt>
      <trkpt lat="42.76154" lon="0.16675">
        <ele>1710</ele>
        <time>2019-02-27T13:13:43Z</time>
      </trkpt>
      <trkpt lat="42.76154" lon="0.16675">
        <ele>1710</ele>
        <time>2019-02-27T13:13:44Z</time>
      </trkpt>
      <trkpt lat="42.76154" lon="0.16675">
        <ele>1710</ele>
        <time>2019-02-27T13:13:45Z</time>
      </trkpt>
      <trkpt lat="42.76154" lon="0.16675">
        <ele>1710</ele>
        <time>2019-02-27T13:13:46Z</time>
      </trkpt>
      <trkpt lat="42.76153" lon="0.16678">
        <ele>1710</ele>
        <time>2019-02-27T13:13:47Z</time>
      </trkpt>
      <trkpt lat="42.76153" lon="0.16678">
        <ele>1710</ele>
        <time>2019-02-27T13:13:48Z</time>
      </trkpt>
      <trkpt lat="42.76153" lon="0.16678">
        <ele>1710</ele>
        <time>2019-02-27T13:13:49Z</time>
      </trkpt>
      <trkpt lat="42.76153" lon="0.16678">
        <ele>1710</ele>
        <time>2019-02-27T13:13:50Z</time>
      </trkpt>
      <trkpt lat="42.76153" lon="0.16678">
        <ele>1710</ele>
        <time>2019-02-27T13:13:51Z</time>
      </trkpt>
      <trkpt lat="42.76153" lon="0.16678">
        <ele>1710</ele>
        <time>2019-02-27T13:13:52Z</time>
      </trkpt>
      <trkpt lat="42.76153" lon="0.16678">
        <ele>1710</ele>
        <time>2019-02-27T13:13:53Z</time>
      </trkpt>
      <trkpt lat="42.76153" lon="0.16678">
        <ele>1710</ele>
        <time>2019-02-27T13:13:54Z</time>
      </trkpt>
      <trkpt lat="42.76153" lon="0.16678">
        <ele>1710</ele>
        <time>2019-02-27T13:13:55Z</time>
      </trkpt>
      <trkpt lat="42.76153" lon="0.16678">
        <ele>1710</ele>
        <time>2019-02-27T13:13:56Z</time>
      </trkpt>
      <trkpt lat="42.76153" lon="0.16678">
        <ele>1710</ele>
        <time>2019-02-27T13:13:57Z</time>
      </trkpt>
      <trkpt lat="42.76153" lon="0.16678">
        <ele>1710</ele>
        <time>2019-02-27T13:13:58Z</time>
      </trkpt>
      <trkpt lat="42.76153" lon="0.16678">
        <ele>1710</ele>
        <time>2019-02-27T13:13:59Z</time>
      </trkpt>
      <trkpt lat="42.76153" lon="0.16678">
        <ele>1710</ele>
        <time>2019-02-27T13:14:00Z</time>
      </trkpt>
      <trkpt lat="42.76153" lon="0.16678">
        <ele>1710</ele>
        <time>2019-02-27T13:14:01Z</time>
      </trkpt>
      <trkpt lat="42.76153" lon="0.16678">
        <ele>1710</ele>
        <time>2019-02-27T13:14:02Z</time>
      </trkpt>
      <trkpt lat="42.76153" lon="0.16678">
        <ele>1710</ele>
        <time>2019-02-27T13:14:03Z</time>
      </trkpt>
      <trkpt lat="42.76153" lon="0.16678">
        <ele>1710</ele>
        <time>2019-02-27T13:14:04Z</time>
      </trkpt>
      <trkpt lat="42.76153" lon="0.16678">
        <ele>1710</ele>
        <time>2019-02-27T13:14:05Z</time>
      </trkpt>
      <trkpt lat="42.76153" lon="0.16678">
        <ele>1710</ele>
        <time>2019-02-27T13:14:06Z</time>
      </trkpt>
      <trkpt lat="42.76153" lon="0.16675">
        <ele>1710</ele>
        <time>2019-02-27T13:14:07Z</time>
      </trkpt>
      <trkpt lat="42.76153" lon="0.16675">
        <ele>1710</ele>
        <time>2019-02-27T13:14:08Z</time>
      </trkpt>
      <trkpt lat="42.76153" lon="0.16675">
        <ele>1710</ele>
        <time>2019-02-27T13:14:09Z</time>
      </trkpt>
      <trkpt lat="42.76153" lon="0.16675">
        <ele>1710</ele>
        <time>2019-02-27T13:14:10Z</time>
      </trkpt>
      <trkpt lat="42.76153" lon="0.16675">
        <ele>1710</ele>
        <time>2019-02-27T13:14:11Z</time>
      </trkpt>
      <trkpt lat="42.76153" lon="0.16675">
        <ele>1710</ele>
        <time>2019-02-27T13:14:12Z</time>
      </trkpt>
      <trkpt lat="42.76153" lon="0.16675">
        <ele>1710</ele>
        <time>2019-02-27T13:14:13Z</time>
      </trkpt>
      <trkpt lat="42.76153" lon="0.16675">
        <ele>1710</ele>
        <time>2019-02-27T13:14:14Z</time>
      </trkpt>
      <trkpt lat="42.76153" lon="0.16675">
        <ele>1710</ele>
        <time>2019-02-27T13:14:15Z</time>
      </trkpt>
      <trkpt lat="42.76153" lon="0.16675">
        <ele>1710</ele>
        <time>2019-02-27T13:14:16Z</time>
      </trkpt>
      <trkpt lat="42.76153" lon="0.16675">
        <ele>1710</ele>
        <time>2019-02-27T13:14:17Z</time>
      </trkpt>
      <trkpt lat="42.76153" lon="0.16675">
        <ele>1710</ele>
        <time>2019-02-27T13:14:18Z</time>
      </trkpt>
      <trkpt lat="42.76153" lon="0.16675">
        <ele>1710</ele>
        <time>2019-02-27T13:14:19Z</time>
      </trkpt>
      <trkpt lat="42.76153" lon="0.16675">
        <ele>1710</ele>
        <time>2019-02-27T13:14:20Z</time>
      </trkpt>
      <trkpt lat="42.76153" lon="0.16675">
        <ele>1710</ele>
        <time>2019-02-27T13:14:21Z</time>
      </trkpt>
      <trkpt lat="42.76153" lon="0.16675">
        <ele>1710</ele>
        <time>2019-02-27T13:14:22Z</time>
      </trkpt>
      <trkpt lat="42.76153" lon="0.16675">
        <ele>1710</ele>
        <time>2019-02-27T13:14:23Z</time>
      </trkpt>
      <trkpt lat="42.76153" lon="0.16675">
        <ele>1710</ele>
        <time>2019-02-27T13:14:24Z</time>
      </trkpt>
      <trkpt lat="42.76153" lon="0.16675">
        <ele>1710</ele>
        <time>2019-02-27T13:14:25Z</time>
      </trkpt>
      <trkpt lat="42.76153" lon="0.16675">
        <ele>1710</ele>
        <time>2019-02-27T13:14:26Z</time>
      </trkpt>
      <trkpt lat="42.76153" lon="0.16675">
        <ele>1710</ele>
        <time>2019-02-27T13:14:27Z</time>
      </trkpt>
      <trkpt lat="42.76155" lon="0.16677">
        <ele>1710</ele>
        <time>2019-02-27T13:14:28Z</time>
      </trkpt>
      <trkpt lat="42.76155" lon="0.16677">
        <ele>1710</ele>
        <time>2019-02-27T13:14:29Z</time>
      </trkpt>
      <trkpt lat="42.76155" lon="0.16677">
        <ele>1710</ele>
        <time>2019-02-27T13:14:30Z</time>
      </trkpt>
      <trkpt lat="42.76155" lon="0.16677">
        <ele>1710</ele>
        <time>2019-02-27T13:14:31Z</time>
      </trkpt>
      <trkpt lat="42.76155" lon="0.16677">
        <ele>1710</ele>
        <time>2019-02-27T13:14:32Z</time>
      </trkpt>
      <trkpt lat="42.76155" lon="0.16677">
        <ele>1710</ele>
        <time>2019-02-27T13:14:33Z</time>
      </trkpt>
      <trkpt lat="42.76155" lon="0.16677">
        <ele>1710</ele>
        <time>2019-02-27T13:14:34Z</time>
      </trkpt>
      <trkpt lat="42.76155" lon="0.16677">
        <ele>1710</ele>
        <time>2019-02-27T13:14:35Z</time>
      </trkpt>
      <trkpt lat="42.76155" lon="0.16677">
        <ele>1710</ele>
        <time>2019-02-27T13:14:36Z</time>
      </trkpt>
      <trkpt lat="42.76155" lon="0.16677">
        <ele>1710</ele>
        <time>2019-02-27T13:14:37Z</time>
      </trkpt>
      <trkpt lat="42.76155" lon="0.16677">
        <ele>1710</ele>
        <time>2019-02-27T13:14:38Z</time>
      </trkpt>
      <trkpt lat="42.76155" lon="0.16677">
        <ele>1710</ele>
        <time>2019-02-27T13:14:39Z</time>
      </trkpt>
      <trkpt lat="42.76155" lon="0.16677">
        <ele>1710</ele>
        <time>2019-02-27T13:14:40Z</time>
      </trkpt>
      <trkpt lat="42.76155" lon="0.16677">
        <ele>1710</ele>
        <time>2019-02-27T13:14:41Z</time>
      </trkpt>
      <trkpt lat="42.76155" lon="0.16677">
        <ele>1710</ele>
        <time>2019-02-27T13:14:42Z</time>
      </trkpt>
      <trkpt lat="42.76155" lon="0.16677">
        <ele>1710</ele>
        <time>2019-02-27T13:14:43Z</time>
      </trkpt>
      <trkpt lat="42.76155" lon="0.16677">
        <ele>1710</ele>
        <time>2019-02-27T13:14:44Z</time>
      </trkpt>
      <trkpt lat="42.76155" lon="0.16677">
        <ele>1710</ele>
        <time>2019-02-27T13:14:45Z</time>
      </trkpt>
      <trkpt lat="42.76155" lon="0.16677">
        <ele>1710</ele>
        <time>2019-02-27T13:14:46Z</time>
      </trkpt>
      <trkpt lat="42.76155" lon="0.16677">
        <ele>1710</ele>
        <time>2019-02-27T13:14:47Z</time>
      </trkpt>
      <trkpt lat="42.76155" lon="0.16677">
        <ele>1710</ele>
        <time>2019-02-27T13:14:48Z</time>
      </trkpt>
      <trkpt lat="42.76155" lon="0.16677">
        <ele>1710</ele>
        <time>2019-02-27T13:14:49Z</time>
      </trkpt>
      <trkpt lat="42.76155" lon="0.16677">
        <ele>1710</ele>
        <time>2019-02-27T13:14:50Z</time>
      </trkpt>
      <trkpt lat="42.76155" lon="0.16677">
        <ele>1710</ele>
        <time>2019-02-27T13:14:51Z</time>
      </trkpt>
      <trkpt lat="42.76155" lon="0.16677">
        <ele>1710</ele>
        <time>2019-02-27T13:14:52Z</time>
      </trkpt>
      <trkpt lat="42.76155" lon="0.16677">
        <ele>1710</ele>
        <time>2019-02-27T13:14:53Z</time>
      </trkpt>
      <trkpt lat="42.76155" lon="0.16677">
        <ele>1710</ele>
        <time>2019-02-27T13:14:54Z</time>
      </trkpt>
      <trkpt lat="42.76155" lon="0.16677">
        <ele>1710</ele>
        <time>2019-02-27T13:14:55Z</time>
      </trkpt>
      <trkpt lat="42.76155" lon="0.16677">
        <ele>1710</ele>
        <time>2019-02-27T13:14:56Z</time>
      </trkpt>
      <trkpt lat="42.76155" lon="0.16677">
        <ele>1710</ele>
        <time>2019-02-27T13:14:57Z</time>
      </trkpt>
      <trkpt lat="42.76155" lon="0.16677">
        <ele>1710</ele>
        <time>2019-02-27T13:14:58Z</time>
      </trkpt>
      <trkpt lat="42.76155" lon="0.16677">
        <ele>1710</ele>
        <time>2019-02-27T13:14:59Z</time>
      </trkpt>
      <trkpt lat="42.76155" lon="0.16677">
        <ele>1710</ele>
        <time>2019-02-27T13:15:00Z</time>
      </trkpt>
      <trkpt lat="42.76155" lon="0.16677">
        <ele>1710</ele>
        <time>2019-02-27T13:15:01Z</time>
      </trkpt>
      <trkpt lat="42.76155" lon="0.16677">
        <ele>1710</ele>
        <time>2019-02-27T13:15:02Z</time>
      </trkpt>
      <trkpt lat="42.76155" lon="0.16682">
        <ele>1710</ele>
        <time>2019-02-27T13:15:03Z</time>
      </trkpt>
      <trkpt lat="42.76155" lon="0.16682">
        <ele>1710</ele>
        <time>2019-02-27T13:15:04Z</time>
      </trkpt>
      <trkpt lat="42.76155" lon="0.16682">
        <ele>1710</ele>
        <time>2019-02-27T13:15:05Z</time>
      </trkpt>
      <trkpt lat="42.76155" lon="0.16682">
        <ele>1710</ele>
        <time>2019-02-27T13:15:06Z</time>
      </trkpt>
      <trkpt lat="42.76155" lon="0.16682">
        <ele>1710</ele>
        <time>2019-02-27T13:15:07Z</time>
      </trkpt>
      <trkpt lat="42.76155" lon="0.16682">
        <ele>1710</ele>
        <time>2019-02-27T13:15:08Z</time>
      </trkpt>
      <trkpt lat="42.76155" lon="0.16682">
        <ele>1710</ele>
        <time>2019-02-27T13:15:09Z</time>
      </trkpt>
      <trkpt lat="42.76155" lon="0.16682">
        <ele>1710</ele>
        <time>2019-02-27T13:15:10Z</time>
      </trkpt>
      <trkpt lat="42.76155" lon="0.16682">
        <ele>1710</ele>
        <time>2019-02-27T13:15:11Z</time>
      </trkpt>
      <trkpt lat="42.76155" lon="0.16682">
        <ele>1710</ele>
        <time>2019-02-27T13:15:12Z</time>
      </trkpt>
      <trkpt lat="42.76155" lon="0.16682">
        <ele>1710</ele>
        <time>2019-02-27T13:15:13Z</time>
      </trkpt>
      <trkpt lat="42.76153" lon="0.16681">
        <ele>1710</ele>
        <time>2019-02-27T13:15:14Z</time>
      </trkpt>
      <trkpt lat="42.76153" lon="0.16681">
        <ele>1710</ele>
        <time>2019-02-27T13:15:15Z</time>
      </trkpt>
      <trkpt lat="42.76153" lon="0.16681">
        <ele>1710</ele>
        <time>2019-02-27T13:15:16Z</time>
      </trkpt>
      <trkpt lat="42.76153" lon="0.16681">
        <ele>1710</ele>
        <time>2019-02-27T13:15:17Z</time>
      </trkpt>
      <trkpt lat="42.76153" lon="0.16681">
        <ele>1710</ele>
        <time>2019-02-27T13:15:18Z</time>
      </trkpt>
      <trkpt lat="42.76153" lon="0.16681">
        <ele>1710</ele>
        <time>2019-02-27T13:15:19Z</time>
      </trkpt>
      <trkpt lat="42.76155" lon="0.1668">
        <ele>1710</ele>
        <time>2019-02-27T13:15:20Z</time>
      </trkpt>
      <trkpt lat="42.76155" lon="0.1668">
        <ele>1710</ele>
        <time>2019-02-27T13:15:21Z</time>
      </trkpt>
      <trkpt lat="42.76155" lon="0.1668">
        <ele>1710</ele>
        <time>2019-02-27T13:15:22Z</time>
      </trkpt>
      <trkpt lat="42.76157" lon="0.1668">
        <ele>1710</ele>
        <time>2019-02-27T13:15:23Z</time>
      </trkpt>
      <trkpt lat="42.76157" lon="0.1668">
        <ele>1710</ele>
        <time>2019-02-27T13:15:24Z</time>
      </trkpt>
      <trkpt lat="42.76157" lon="0.1668">
        <ele>1710</ele>
        <time>2019-02-27T13:15:25Z</time>
      </trkpt>
      <trkpt lat="42.76157" lon="0.1668">
        <ele>1710</ele>
        <time>2019-02-27T13:15:26Z</time>
      </trkpt>
      <trkpt lat="42.76157" lon="0.1668">
        <ele>1710</ele>
        <time>2019-02-27T13:15:27Z</time>
      </trkpt>
      <trkpt lat="42.76157" lon="0.1668">
        <ele>1710</ele>
        <time>2019-02-27T13:15:28Z</time>
      </trkpt>
      <trkpt lat="42.76157" lon="0.1668">
        <ele>1710</ele>
        <time>2019-02-27T13:15:29Z</time>
      </trkpt>
      <trkpt lat="42.76157" lon="0.1668">
        <ele>1710</ele>
        <time>2019-02-27T13:15:30Z</time>
      </trkpt>
      <trkpt lat="42.76157" lon="0.1668">
        <ele>1710</ele>
        <time>2019-02-27T13:15:31Z</time>
      </trkpt>
      <trkpt lat="42.76157" lon="0.1668">
        <ele>1710</ele>
        <time>2019-02-27T13:15:32Z</time>
      </trkpt>
      <trkpt lat="42.76157" lon="0.1668">
        <ele>1710</ele>
        <time>2019-02-27T13:15:33Z</time>
      </trkpt>
      <trkpt lat="42.76157" lon="0.1668">
        <ele>1710</ele>
        <time>2019-02-27T13:15:34Z</time>
      </trkpt>
      <trkpt lat="42.76157" lon="0.1668">
        <ele>1710</ele>
        <time>2019-02-27T13:15:35Z</time>
      </trkpt>
      <trkpt lat="42.76157" lon="0.1668">
        <ele>1710</ele>
        <time>2019-02-27T13:15:36Z</time>
      </trkpt>
      <trkpt lat="42.76157" lon="0.1668">
        <ele>1710</ele>
        <time>2019-02-27T13:15:37Z</time>
      </trkpt>
      <trkpt lat="42.76164" lon="0.16684">
        <ele>1710</ele>
        <time>2019-02-27T13:15:38Z</time>
      </trkpt>
      <trkpt lat="42.76164" lon="0.16684">
        <ele>1710</ele>
        <time>2019-02-27T13:15:39Z</time>
      </trkpt>
      <trkpt lat="42.76166" lon="0.16684">
        <ele>1710</ele>
        <time>2019-02-27T13:15:40Z</time>
      </trkpt>
      <trkpt lat="42.76166" lon="0.16684">
        <ele>1710</ele>
        <time>2019-02-27T13:15:41Z</time>
      </trkpt>
      <trkpt lat="42.76168" lon="0.16684">
        <ele>1710</ele>
        <time>2019-02-27T13:15:42Z</time>
      </trkpt>
      <trkpt lat="42.76168" lon="0.16684">
        <ele>1710</ele>
        <time>2019-02-27T13:15:43Z</time>
      </trkpt>
      <trkpt lat="42.76168" lon="0.16684">
        <ele>1710</ele>
        <time>2019-02-27T13:15:44Z</time>
      </trkpt>
      <trkpt lat="42.76168" lon="0.16684">
        <ele>1710</ele>
        <time>2019-02-27T13:15:45Z</time>
      </trkpt>
      <trkpt lat="42.76168" lon="0.16684">
        <ele>1710</ele>
        <time>2019-02-27T13:15:46Z</time>
      </trkpt>
      <trkpt lat="42.76168" lon="0.16684">
        <ele>1710</ele>
        <time>2019-02-27T13:15:47Z</time>
      </trkpt>
      <trkpt lat="42.76168" lon="0.16684">
        <ele>1710</ele>
        <time>2019-02-27T13:15:48Z</time>
      </trkpt>
      <trkpt lat="42.76168" lon="0.16684">
        <ele>1710</ele>
        <time>2019-02-27T13:15:49Z</time>
      </trkpt>
      <trkpt lat="42.76177" lon="0.16687">
        <ele>1710</ele>
        <time>2019-02-27T13:15:50Z</time>
      </trkpt>
      <trkpt lat="42.76177" lon="0.16687">
        <ele>1710</ele>
        <time>2019-02-27T13:15:51Z</time>
      </trkpt>
      <trkpt lat="42.76177" lon="0.16687">
        <ele>1710</ele>
        <time>2019-02-27T13:15:52Z</time>
      </trkpt>
      <trkpt lat="42.76177" lon="0.16687">
        <ele>1710</ele>
        <time>2019-02-27T13:15:53Z</time>
      </trkpt>
      <trkpt lat="42.76177" lon="0.16687">
        <ele>1710</ele>
        <time>2019-02-27T13:15:54Z</time>
      </trkpt>
      <trkpt lat="42.76177" lon="0.16687">
        <ele>1710</ele>
        <time>2019-02-27T13:15:55Z</time>
      </trkpt>
      <trkpt lat="42.76177" lon="0.16687">
        <ele>1710</ele>
        <time>2019-02-27T13:15:56Z</time>
      </trkpt>
      <trkpt lat="42.76177" lon="0.16687">
        <ele>1710</ele>
        <time>2019-02-27T13:15:57Z</time>
      </trkpt>
      <trkpt lat="42.76177" lon="0.16687">
        <ele>1710</ele>
        <time>2019-02-27T13:15:58Z</time>
      </trkpt>
      <trkpt lat="42.76177" lon="0.16687">
        <ele>1710</ele>
        <time>2019-02-27T13:15:59Z</time>
      </trkpt>
      <trkpt lat="42.76177" lon="0.16687">
        <ele>1710</ele>
        <time>2019-02-27T13:16:00Z</time>
      </trkpt>
      <trkpt lat="42.76183" lon="0.16687">
        <ele>1710</ele>
        <time>2019-02-27T13:16:01Z</time>
      </trkpt>
      <trkpt lat="42.76183" lon="0.16687">
        <ele>1710</ele>
        <time>2019-02-27T13:16:02Z</time>
      </trkpt>
      <trkpt lat="42.76185" lon="0.16689">
        <ele>1710</ele>
        <time>2019-02-27T13:16:03Z</time>
      </trkpt>
      <trkpt lat="42.76185" lon="0.16689">
        <ele>1710</ele>
        <time>2019-02-27T13:16:04Z</time>
      </trkpt>
      <trkpt lat="42.76187" lon="0.16691">
        <ele>1710</ele>
        <time>2019-02-27T13:16:05Z</time>
      </trkpt>
      <trkpt lat="42.76187" lon="0.16691">
        <ele>1710</ele>
        <time>2019-02-27T13:16:06Z</time>
      </trkpt>
      <trkpt lat="42.7619" lon="0.16694">
        <ele>1710</ele>
        <time>2019-02-27T13:16:07Z</time>
      </trkpt>
      <trkpt lat="42.7619" lon="0.16694">
        <ele>1710</ele>
        <time>2019-02-27T13:16:08Z</time>
      </trkpt>
      <trkpt lat="42.76192" lon="0.16697">
        <ele>1710</ele>
        <time>2019-02-27T13:16:09Z</time>
      </trkpt>
      <trkpt lat="42.76194" lon="0.16699">
        <ele>1710</ele>
        <time>2019-02-27T13:16:10Z</time>
      </trkpt>
      <trkpt lat="42.76194" lon="0.16699">
        <ele>1710</ele>
        <time>2019-02-27T13:16:11Z</time>
      </trkpt>
      <trkpt lat="42.76194" lon="0.16699">
        <ele>1710</ele>
        <time>2019-02-27T13:16:12Z</time>
      </trkpt>
      <trkpt lat="42.76199" lon="0.16701">
        <ele>1710</ele>
        <time>2019-02-27T13:16:13Z</time>
      </trkpt>
      <trkpt lat="42.76199" lon="0.16701">
        <ele>1710</ele>
        <time>2019-02-27T13:16:14Z</time>
      </trkpt>
      <trkpt lat="42.76201" lon="0.16702">
        <ele>1710</ele>
        <time>2019-02-27T13:16:15Z</time>
      </trkpt>
      <trkpt lat="42.76201" lon="0.16702">
        <ele>1710</ele>
        <time>2019-02-27T13:16:16Z</time>
      </trkpt>
      <trkpt lat="42.76203" lon="0.16703">
        <ele>1710</ele>
        <time>2019-02-27T13:16:17Z</time>
      </trkpt>
      <trkpt lat="42.76203" lon="0.16703">
        <ele>1710</ele>
        <time>2019-02-27T13:16:18Z</time>
      </trkpt>
      <trkpt lat="42.76206" lon="0.16704">
        <ele>1710</ele>
        <time>2019-02-27T13:16:19Z</time>
      </trkpt>
      <trkpt lat="42.76206" lon="0.16704">
        <ele>1710</ele>
        <time>2019-02-27T13:16:20Z</time>
      </trkpt>
      <trkpt lat="42.76206" lon="0.16704">
        <ele>1710</ele>
        <time>2019-02-27T13:16:21Z</time>
      </trkpt>
      <trkpt lat="42.76209" lon="0.16707">
        <ele>1710</ele>
        <time>2019-02-27T13:16:22Z</time>
      </trkpt>
      <trkpt lat="42.76209" lon="0.16707">
        <ele>1710</ele>
        <time>2019-02-27T13:16:23Z</time>
      </trkpt>
      <trkpt lat="42.76209" lon="0.16707">
        <ele>1710</ele>
        <time>2019-02-27T13:16:24Z</time>
      </trkpt>
      <trkpt lat="42.76209" lon="0.16707">
        <ele>1710</ele>
        <time>2019-02-27T13:16:25Z</time>
      </trkpt>
      <trkpt lat="42.76209" lon="0.16707">
        <ele>1710</ele>
        <time>2019-02-27T13:16:26Z</time>
      </trkpt>
      <trkpt lat="42.76214" lon="0.16708">
        <ele>1710</ele>
        <time>2019-02-27T13:16:27Z</time>
      </trkpt>
      <trkpt lat="42.76214" lon="0.16708">
        <ele>1710</ele>
        <time>2019-02-27T13:16:28Z</time>
      </trkpt>
      <trkpt lat="42.76214" lon="0.16708">
        <ele>1710</ele>
        <time>2019-02-27T13:16:29Z</time>
      </trkpt>
      <trkpt lat="42.76214" lon="0.16708">
        <ele>1710</ele>
        <time>2019-02-27T13:16:30Z</time>
      </trkpt>
      <trkpt lat="42.76214" lon="0.16708">
        <ele>1710</ele>
        <time>2019-02-27T13:16:31Z</time>
      </trkpt>
      <trkpt lat="42.76214" lon="0.16708">
        <ele>1710</ele>
        <time>2019-02-27T13:16:32Z</time>
      </trkpt>
      <trkpt lat="42.76214" lon="0.16708">
        <ele>1710</ele>
        <time>2019-02-27T13:16:33Z</time>
      </trkpt>
      <trkpt lat="42.76214" lon="0.16708">
        <ele>1710</ele>
        <time>2019-02-27T13:16:34Z</time>
      </trkpt>
      <trkpt lat="42.76214" lon="0.16708">
        <ele>1710</ele>
        <time>2019-02-27T13:16:35Z</time>
      </trkpt>
      <trkpt lat="42.76214" lon="0.16708">
        <ele>1710</ele>
        <time>2019-02-27T13:16:36Z</time>
      </trkpt>
      <trkpt lat="42.76214" lon="0.16708">
        <ele>1710</ele>
        <time>2019-02-27T13:16:37Z</time>
      </trkpt>
      <trkpt lat="42.76216" lon="0.16709">
        <ele>1710</ele>
        <time>2019-02-27T13:16:38Z</time>
      </trkpt>
      <trkpt lat="42.76216" lon="0.16709">
        <ele>1710</ele>
        <time>2019-02-27T13:16:39Z</time>
      </trkpt>
      <trkpt lat="42.76219" lon="0.16709">
        <ele>1710</ele>
        <time>2019-02-27T13:16:40Z</time>
      </trkpt>
      <trkpt lat="42.76219" lon="0.16709">
        <ele>1710</ele>
        <time>2019-02-27T13:16:41Z</time>
      </trkpt>
      <trkpt lat="42.76222" lon="0.1671">
        <ele>1710</ele>
        <time>2019-02-27T13:16:42Z</time>
      </trkpt>
      <trkpt lat="42.76222" lon="0.1671">
        <ele>1710</ele>
        <time>2019-02-27T13:16:43Z</time>
      </trkpt>
      <trkpt lat="42.76224" lon="0.16711">
        <ele>1710</ele>
        <time>2019-02-27T13:16:44Z</time>
      </trkpt>
      <trkpt lat="42.76224" lon="0.16711">
        <ele>1710</ele>
        <time>2019-02-27T13:16:45Z</time>
      </trkpt>
      <trkpt lat="42.76227" lon="0.16711">
        <ele>1710</ele>
        <time>2019-02-27T13:16:46Z</time>
      </trkpt>
      <trkpt lat="42.76227" lon="0.16711">
        <ele>1710</ele>
        <time>2019-02-27T13:16:47Z</time>
      </trkpt>
      <trkpt lat="42.7623" lon="0.16711">
        <ele>1710</ele>
        <time>2019-02-27T13:16:48Z</time>
      </trkpt>
      <trkpt lat="42.7623" lon="0.16711">
        <ele>1710</ele>
        <time>2019-02-27T13:16:49Z</time>
      </trkpt>
      <trkpt lat="42.7623" lon="0.16711">
        <ele>1710</ele>
        <time>2019-02-27T13:16:50Z</time>
      </trkpt>
      <trkpt lat="42.7623" lon="0.16711">
        <ele>1710</ele>
        <time>2019-02-27T13:16:51Z</time>
      </trkpt>
      <trkpt lat="42.76236" lon="0.16711">
        <ele>1710</ele>
        <time>2019-02-27T13:16:52Z</time>
      </trkpt>
      <trkpt lat="42.76236" lon="0.16711">
        <ele>1710</ele>
        <time>2019-02-27T13:16:53Z</time>
      </trkpt>
      <trkpt lat="42.76236" lon="0.16711">
        <ele>1710</ele>
        <time>2019-02-27T13:16:54Z</time>
      </trkpt>
      <trkpt lat="42.76239" lon="0.1671">
        <ele>1710</ele>
        <time>2019-02-27T13:16:55Z</time>
      </trkpt>
      <trkpt lat="42.76239" lon="0.1671">
        <ele>1710</ele>
        <time>2019-02-27T13:16:56Z</time>
      </trkpt>
      <trkpt lat="42.76239" lon="0.1671">
        <ele>1710</ele>
        <time>2019-02-27T13:16:57Z</time>
      </trkpt>
      <trkpt lat="42.76239" lon="0.1671">
        <ele>1710</ele>
        <time>2019-02-27T13:16:58Z</time>
      </trkpt>
      <trkpt lat="42.76239" lon="0.1671">
        <ele>1710</ele>
        <time>2019-02-27T13:16:59Z</time>
      </trkpt>
      <trkpt lat="42.76239" lon="0.1671">
        <ele>1710</ele>
        <time>2019-02-27T13:17:00Z</time>
      </trkpt>
      <trkpt lat="42.76239" lon="0.1671">
        <ele>1710</ele>
        <time>2019-02-27T13:17:01Z</time>
      </trkpt>
      <trkpt lat="42.76239" lon="0.1671">
        <ele>1710</ele>
        <time>2019-02-27T13:17:02Z</time>
      </trkpt>
      <trkpt lat="42.76239" lon="0.1671">
        <ele>1710</ele>
        <time>2019-02-27T13:17:03Z</time>
      </trkpt>
      <trkpt lat="42.76239" lon="0.1671">
        <ele>1710</ele>
        <time>2019-02-27T13:17:04Z</time>
      </trkpt>
      <trkpt lat="42.76239" lon="0.1671">
        <ele>1710</ele>
        <time>2019-02-27T13:17:05Z</time>
      </trkpt>
      <trkpt lat="42.76239" lon="0.1671">
        <ele>1710</ele>
        <time>2019-02-27T13:17:06Z</time>
      </trkpt>
      <trkpt lat="42.76239" lon="0.1671">
        <ele>1710</ele>
        <time>2019-02-27T13:17:07Z</time>
      </trkpt>
      <trkpt lat="42.76239" lon="0.1671">
        <ele>1710</ele>
        <time>2019-02-27T13:17:08Z</time>
      </trkpt>
      <trkpt lat="42.76247" lon="0.16711">
        <ele>1710</ele>
        <time>2019-02-27T13:17:09Z</time>
      </trkpt>
      <trkpt lat="42.76247" lon="0.16711">
        <ele>1710</ele>
        <time>2019-02-27T13:17:10Z</time>
      </trkpt>
      <trkpt lat="42.76247" lon="0.16711">
        <ele>1710</ele>
        <time>2019-02-27T13:17:11Z</time>
      </trkpt>
      <trkpt lat="42.7625" lon="0.16713">
        <ele>1710</ele>
        <time>2019-02-27T13:17:12Z</time>
      </trkpt>
      <trkpt lat="42.7625" lon="0.16713">
        <ele>1710</ele>
        <time>2019-02-27T13:17:13Z</time>
      </trkpt>
      <trkpt lat="42.76252" lon="0.16714">
        <ele>1710</ele>
        <time>2019-02-27T13:17:14Z</time>
      </trkpt>
      <trkpt lat="42.76252" lon="0.16714">
        <ele>1710</ele>
        <time>2019-02-27T13:17:15Z</time>
      </trkpt>
      <trkpt lat="42.76252" lon="0.16714">
        <ele>1710</ele>
        <time>2019-02-27T13:17:16Z</time>
      </trkpt>
      <trkpt lat="42.76252" lon="0.16714">
        <ele>1710</ele>
        <time>2019-02-27T13:17:17Z</time>
      </trkpt>
      <trkpt lat="42.76254" lon="0.16715">
        <ele>1710</ele>
        <time>2019-02-27T13:17:18Z</time>
      </trkpt>
      <trkpt lat="42.76254" lon="0.16715">
        <ele>1710</ele>
        <time>2019-02-27T13:17:19Z</time>
      </trkpt>
      <trkpt lat="42.76254" lon="0.16715">
        <ele>1710</ele>
        <time>2019-02-27T13:17:20Z</time>
      </trkpt>
      <trkpt lat="42.76256" lon="0.16716">
        <ele>1710</ele>
        <time>2019-02-27T13:17:21Z</time>
      </trkpt>
      <trkpt lat="42.76256" lon="0.16716">
        <ele>1710</ele>
        <time>2019-02-27T13:17:22Z</time>
      </trkpt>
      <trkpt lat="42.76256" lon="0.16716">
        <ele>1710</ele>
        <time>2019-02-27T13:17:23Z</time>
      </trkpt>
      <trkpt lat="42.76256" lon="0.16716">
        <ele>1710</ele>
        <time>2019-02-27T13:17:24Z</time>
      </trkpt>
      <trkpt lat="42.76256" lon="0.16716">
        <ele>1710</ele>
        <time>2019-02-27T13:17:25Z</time>
      </trkpt>
      <trkpt lat="42.76256" lon="0.16716">
        <ele>1710</ele>
        <time>2019-02-27T13:17:26Z</time>
      </trkpt>
      <trkpt lat="42.76256" lon="0.16716">
        <ele>1710</ele>
        <time>2019-02-27T13:17:27Z</time>
      </trkpt>
      <trkpt lat="42.76256" lon="0.16716">
        <ele>1710</ele>
        <time>2019-02-27T13:17:28Z</time>
      </trkpt>
      <trkpt lat="42.76256" lon="0.16716">
        <ele>1710</ele>
        <time>2019-02-27T13:17:29Z</time>
      </trkpt>
      <trkpt lat="42.76256" lon="0.16716">
        <ele>1710</ele>
        <time>2019-02-27T13:17:30Z</time>
      </trkpt>
      <trkpt lat="42.76256" lon="0.16716">
        <ele>1710</ele>
        <time>2019-02-27T13:17:31Z</time>
      </trkpt>
      <trkpt lat="42.76256" lon="0.16716">
        <ele>1710</ele>
        <time>2019-02-27T13:17:32Z</time>
      </trkpt>
      <trkpt lat="42.76256" lon="0.16716">
        <ele>1710</ele>
        <time>2019-02-27T13:17:33Z</time>
      </trkpt>
      <trkpt lat="42.76256" lon="0.16716">
        <ele>1710</ele>
        <time>2019-02-27T13:17:34Z</time>
      </trkpt>
      <trkpt lat="42.76256" lon="0.16716">
        <ele>1710</ele>
        <time>2019-02-27T13:17:35Z</time>
      </trkpt>
      <trkpt lat="42.76256" lon="0.16716">
        <ele>1710</ele>
        <time>2019-02-27T13:17:36Z</time>
      </trkpt>
      <trkpt lat="42.76264" lon="0.16723">
        <ele>1710</ele>
        <time>2019-02-27T13:17:37Z</time>
      </trkpt>
      <trkpt lat="42.76264" lon="0.16723">
        <ele>1710</ele>
        <time>2019-02-27T13:17:38Z</time>
      </trkpt>
      <trkpt lat="42.76264" lon="0.16723">
        <ele>1710</ele>
        <time>2019-02-27T13:17:39Z</time>
      </trkpt>
      <trkpt lat="42.76264" lon="0.16723">
        <ele>1710</ele>
        <time>2019-02-27T13:17:40Z</time>
      </trkpt>
      <trkpt lat="42.76264" lon="0.16723">
        <ele>1710</ele>
        <time>2019-02-27T13:17:41Z</time>
      </trkpt>
      <trkpt lat="42.76271" lon="0.16725">
        <ele>1710</ele>
        <time>2019-02-27T13:17:42Z</time>
      </trkpt>
      <trkpt lat="42.76271" lon="0.16725">
        <ele>1710</ele>
        <time>2019-02-27T13:17:43Z</time>
      </trkpt>
      <trkpt lat="42.76271" lon="0.16726">
        <ele>1710</ele>
        <time>2019-02-27T13:17:44Z</time>
      </trkpt>
      <trkpt lat="42.76272" lon="0.16726">
        <ele>1710</ele>
        <time>2019-02-27T13:17:45Z</time>
      </trkpt>
      <trkpt lat="42.76272" lon="0.16726">
        <ele>1710</ele>
        <time>2019-02-27T13:17:46Z</time>
      </trkpt>
      <trkpt lat="42.76272" lon="0.16726">
        <ele>1710</ele>
        <time>2019-02-27T13:17:47Z</time>
      </trkpt>
      <trkpt lat="42.76272" lon="0.16726">
        <ele>1710</ele>
        <time>2019-02-27T13:17:48Z</time>
      </trkpt>
      <trkpt lat="42.76272" lon="0.16726">
        <ele>1710</ele>
        <time>2019-02-27T13:17:49Z</time>
      </trkpt>
      <trkpt lat="42.76272" lon="0.16726">
        <ele>1710</ele>
        <time>2019-02-27T13:17:50Z</time>
      </trkpt>
      <trkpt lat="42.76272" lon="0.16726">
        <ele>1710</ele>
        <time>2019-02-27T13:17:51Z</time>
      </trkpt>
      <trkpt lat="42.76273" lon="0.16727">
        <ele>1710</ele>
        <time>2019-02-27T13:17:52Z</time>
      </trkpt>
      <trkpt lat="42.76273" lon="0.16727">
        <ele>1710</ele>
        <time>2019-02-27T13:17:53Z</time>
      </trkpt>
      <trkpt lat="42.76273" lon="0.16727">
        <ele>1710</ele>
        <time>2019-02-27T13:17:54Z</time>
      </trkpt>
      <trkpt lat="42.76273" lon="0.16727">
        <ele>1710</ele>
        <time>2019-02-27T13:17:55Z</time>
      </trkpt>
      <trkpt lat="42.76273" lon="0.16727">
        <ele>1710</ele>
        <time>2019-02-27T13:17:56Z</time>
      </trkpt>
      <trkpt lat="42.76273" lon="0.16727">
        <ele>1710</ele>
        <time>2019-02-27T13:17:57Z</time>
      </trkpt>
      <trkpt lat="42.76274" lon="0.16727">
        <ele>1710</ele>
        <time>2019-02-27T13:17:58Z</time>
      </trkpt>
      <trkpt lat="42.76274" lon="0.16727">
        <ele>1710</ele>
        <time>2019-02-27T13:17:59Z</time>
      </trkpt>
      <trkpt lat="42.76274" lon="0.16727">
        <ele>1710</ele>
        <time>2019-02-27T13:18:00Z</time>
      </trkpt>
      <trkpt lat="42.76274" lon="0.16728">
        <ele>1710</ele>
        <time>2019-02-27T13:18:01Z</time>
      </trkpt>
      <trkpt lat="42.76274" lon="0.16728">
        <ele>1710</ele>
        <time>2019-02-27T13:18:02Z</time>
      </trkpt>
      <trkpt lat="42.76274" lon="0.16728">
        <ele>1710</ele>
        <time>2019-02-27T13:18:03Z</time>
      </trkpt>
      <trkpt lat="42.76274" lon="0.16728">
        <ele>1710</ele>
        <time>2019-02-27T13:18:04Z</time>
      </trkpt>
      <trkpt lat="42.76275" lon="0.16728">
        <ele>1710</ele>
        <time>2019-02-27T13:18:05Z</time>
      </trkpt>
      <trkpt lat="42.76275" lon="0.16728">
        <ele>1710</ele>
        <time>2019-02-27T13:18:06Z</time>
      </trkpt>
      <trkpt lat="42.76275" lon="0.16728">
        <ele>1710</ele>
        <time>2019-02-27T13:18:07Z</time>
      </trkpt>
      <trkpt lat="42.76275" lon="0.16728">
        <ele>1710</ele>
        <time>2019-02-27T13:18:08Z</time>
      </trkpt>
      <trkpt lat="42.76275" lon="0.16729">
        <ele>1710</ele>
        <time>2019-02-27T13:18:09Z</time>
      </trkpt>
      <trkpt lat="42.76275" lon="0.16729">
        <ele>1710</ele>
        <time>2019-02-27T13:18:10Z</time>
      </trkpt>
      <trkpt lat="42.76275" lon="0.16729">
        <ele>1710</ele>
        <time>2019-02-27T13:18:11Z</time>
      </trkpt>
      <trkpt lat="42.76281" lon="0.16733">
        <ele>1710</ele>
        <time>2019-02-27T13:18:12Z</time>
      </trkpt>
      <trkpt lat="42.76283" lon="0.16734">
        <ele>1710</ele>
        <time>2019-02-27T13:18:13Z</time>
      </trkpt>
      <trkpt lat="42.76284" lon="0.16735">
        <ele>1710</ele>
        <time>2019-02-27T13:18:14Z</time>
      </trkpt>
      <trkpt lat="42.76285" lon="0.16735">
        <ele>1710</ele>
        <time>2019-02-27T13:18:15Z</time>
      </trkpt>
      <trkpt lat="42.76291" lon="0.16738">
        <ele>1710</ele>
        <time>2019-02-27T13:18:16Z</time>
      </trkpt>
      <trkpt lat="42.76291" lon="0.16738">
        <ele>1710</ele>
        <time>2019-02-27T13:18:17Z</time>
      </trkpt>
      <trkpt lat="42.76291" lon="0.16738">
        <ele>1710</ele>
        <time>2019-02-27T13:18:18Z</time>
      </trkpt>
      <trkpt lat="42.76291" lon="0.16738">
        <ele>1710</ele>
        <time>2019-02-27T13:18:19Z</time>
      </trkpt>
      <trkpt lat="42.76291" lon="0.16738">
        <ele>1710</ele>
        <time>2019-02-27T13:18:20Z</time>
      </trkpt>
      <trkpt lat="42.76301" lon="0.16737">
        <ele>1710</ele>
        <time>2019-02-27T13:18:21Z</time>
      </trkpt>
      <trkpt lat="42.76303" lon="0.16736">
        <ele>1710</ele>
        <time>2019-02-27T13:18:22Z</time>
      </trkpt>
      <trkpt lat="42.76304" lon="0.16736">
        <ele>1710</ele>
        <time>2019-02-27T13:18:23Z</time>
      </trkpt>
      <trkpt lat="42.76305" lon="0.16735">
        <ele>1710</ele>
        <time>2019-02-27T13:18:24Z</time>
      </trkpt>
      <trkpt lat="42.76306" lon="0.16735">
        <ele>1710</ele>
        <time>2019-02-27T13:18:25Z</time>
      </trkpt>
      <trkpt lat="42.76311" lon="0.16732">
        <ele>1710</ele>
        <time>2019-02-27T13:18:26Z</time>
      </trkpt>
      <trkpt lat="42.76312" lon="0.16731">
        <ele>1710</ele>
        <time>2019-02-27T13:18:27Z</time>
      </trkpt>
      <trkpt lat="42.76313" lon="0.1673">
        <ele>1710</ele>
        <time>2019-02-27T13:18:28Z</time>
      </trkpt>
      <trkpt lat="42.76313" lon="0.16729">
        <ele>1710</ele>
        <time>2019-02-27T13:18:29Z</time>
      </trkpt>
      <trkpt lat="42.76314" lon="0.16728">
        <ele>1710</ele>
        <time>2019-02-27T13:18:30Z</time>
      </trkpt>
      <trkpt lat="42.76314" lon="0.16727">
        <ele>1710</ele>
        <time>2019-02-27T13:18:31Z</time>
      </trkpt>
      <trkpt lat="42.76317" lon="0.16721">
        <ele>1710</ele>
        <time>2019-02-27T13:18:32Z</time>
      </trkpt>
      <trkpt lat="42.76319" lon="0.16719">
        <ele>1710</ele>
        <time>2019-02-27T13:18:33Z</time>
      </trkpt>
      <trkpt lat="42.7632" lon="0.16717">
        <ele>1710</ele>
        <time>2019-02-27T13:18:34Z</time>
      </trkpt>
      <trkpt lat="42.76321" lon="0.16715">
        <ele>1710</ele>
        <time>2019-02-27T13:18:35Z</time>
      </trkpt>
      <trkpt lat="42.76323" lon="0.16714">
        <ele>1710</ele>
        <time>2019-02-27T13:18:36Z</time>
      </trkpt>
      <trkpt lat="42.76324" lon="0.16713">
        <ele>1710</ele>
        <time>2019-02-27T13:18:37Z</time>
      </trkpt>
      <trkpt lat="42.76325" lon="0.16713">
        <ele>1710</ele>
        <time>2019-02-27T13:18:38Z</time>
      </trkpt>
      <trkpt lat="42.76325" lon="0.16713">
        <ele>1710</ele>
        <time>2019-02-27T13:18:39Z</time>
      </trkpt>
      <trkpt lat="42.76326" lon="0.16712">
        <ele>1710</ele>
        <time>2019-02-27T13:18:40Z</time>
      </trkpt>
      <trkpt lat="42.76327" lon="0.16712">
        <ele>1710</ele>
        <time>2019-02-27T13:18:41Z</time>
      </trkpt>
      <trkpt lat="42.76327" lon="0.16712">
        <ele>1710</ele>
        <time>2019-02-27T13:18:42Z</time>
      </trkpt>
      <trkpt lat="42.76328" lon="0.16711">
        <ele>1710</ele>
        <time>2019-02-27T13:18:43Z</time>
      </trkpt>
      <trkpt lat="42.76335" lon="0.16709">
        <ele>1710</ele>
        <time>2019-02-27T13:18:44Z</time>
      </trkpt>
      <trkpt lat="42.76337" lon="0.16709">
        <ele>1710</ele>
        <time>2019-02-27T13:18:45Z</time>
      </trkpt>
      <trkpt lat="42.76338" lon="0.16709">
        <ele>1710</ele>
        <time>2019-02-27T13:18:46Z</time>
      </trkpt>
      <trkpt lat="42.76347" lon="0.16708">
        <ele>1710</ele>
        <time>2019-02-27T13:18:47Z</time>
      </trkpt>
      <trkpt lat="42.76349" lon="0.16708">
        <ele>1710</ele>
        <time>2019-02-27T13:18:48Z</time>
      </trkpt>
      <trkpt lat="42.76354" lon="0.16707">
        <ele>1710</ele>
        <time>2019-02-27T13:18:49Z</time>
      </trkpt>
      <trkpt lat="42.76354" lon="0.16707">
        <ele>1710</ele>
        <time>2019-02-27T13:18:50Z</time>
      </trkpt>
      <trkpt lat="42.76354" lon="0.16707">
        <ele>1710</ele>
        <time>2019-02-27T13:18:51Z</time>
      </trkpt>
      <trkpt lat="42.76354" lon="0.16707">
        <ele>1710</ele>
        <time>2019-02-27T13:18:52Z</time>
      </trkpt>
      <trkpt lat="42.76366" lon="0.16709">
        <ele>1710</ele>
        <time>2019-02-27T13:18:53Z</time>
      </trkpt>
      <trkpt lat="42.76368" lon="0.16709">
        <ele>1710</ele>
        <time>2019-02-27T13:18:54Z</time>
      </trkpt>
      <trkpt lat="42.76369" lon="0.16709">
        <ele>1710</ele>
        <time>2019-02-27T13:18:55Z</time>
      </trkpt>
      <trkpt lat="42.7637" lon="0.16709">
        <ele>1710</ele>
        <time>2019-02-27T13:18:56Z</time>
      </trkpt>
      <trkpt lat="42.76377" lon="0.16711">
        <ele>1710</ele>
        <time>2019-02-27T13:18:57Z</time>
      </trkpt>
      <trkpt lat="42.76379" lon="0.16712">
        <ele>1710</ele>
        <time>2019-02-27T13:18:58Z</time>
      </trkpt>
      <trkpt lat="42.76381" lon="0.16713">
        <ele>1710</ele>
        <time>2019-02-27T13:18:59Z</time>
      </trkpt>
      <trkpt lat="42.76386" lon="0.16717">
        <ele>1710</ele>
        <time>2019-02-27T13:19:00Z</time>
      </trkpt>
      <trkpt lat="42.76386" lon="0.16717">
        <ele>1710</ele>
        <time>2019-02-27T13:19:01Z</time>
      </trkpt>
      <trkpt lat="42.76398" lon="0.16724">
        <ele>1710</ele>
        <time>2019-02-27T13:19:02Z</time>
      </trkpt>
      <trkpt lat="42.76399" lon="0.16725">
        <ele>1710</ele>
        <time>2019-02-27T13:19:03Z</time>
      </trkpt>
      <trkpt lat="42.76401" lon="0.16725">
        <ele>1703</ele>
        <time>2019-02-27T13:19:04Z</time>
      </trkpt>
      <trkpt lat="42.76409" lon="0.16728">
        <ele>1702</ele>
        <time>2019-02-27T13:19:05Z</time>
      </trkpt>
      <trkpt lat="42.76411" lon="0.16729">
        <ele>1702</ele>
        <time>2019-02-27T13:19:06Z</time>
      </trkpt>
      <trkpt lat="42.76413" lon="0.16729">
        <ele>1702</ele>
        <time>2019-02-27T13:19:07Z</time>
      </trkpt>
      <trkpt lat="42.76419" lon="0.16731">
        <ele>1702</ele>
        <time>2019-02-27T13:19:08Z</time>
      </trkpt>
      <trkpt lat="42.76419" lon="0.16731">
        <ele>1702</ele>
        <time>2019-02-27T13:19:09Z</time>
      </trkpt>
      <trkpt lat="42.76419" lon="0.16731">
        <ele>1702</ele>
        <time>2019-02-27T13:19:10Z</time>
      </trkpt>
      <trkpt lat="42.76428" lon="0.16735">
        <ele>1702</ele>
        <time>2019-02-27T13:19:11Z</time>
      </trkpt>
      <trkpt lat="42.76428" lon="0.16735">
        <ele>1702</ele>
        <time>2019-02-27T13:19:12Z</time>
      </trkpt>
      <trkpt lat="42.76428" lon="0.16735">
        <ele>1702</ele>
        <time>2019-02-27T13:19:13Z</time>
      </trkpt>
      <trkpt lat="42.76435" lon="0.16744">
        <ele>1702</ele>
        <time>2019-02-27T13:19:14Z</time>
      </trkpt>
      <trkpt lat="42.76435" lon="0.16744">
        <ele>1702</ele>
        <time>2019-02-27T13:19:15Z</time>
      </trkpt>
      <trkpt lat="42.76435" lon="0.16744">
        <ele>1702</ele>
        <time>2019-02-27T13:19:16Z</time>
      </trkpt>
      <trkpt lat="42.76435" lon="0.16744">
        <ele>1702</ele>
        <time>2019-02-27T13:19:17Z</time>
      </trkpt>
      <trkpt lat="42.76435" lon="0.16744">
        <ele>1702</ele>
        <time>2019-02-27T13:19:18Z</time>
      </trkpt>
      <trkpt lat="42.76442" lon="0.16753">
        <ele>1702</ele>
        <time>2019-02-27T13:19:19Z</time>
      </trkpt>
      <trkpt lat="42.76442" lon="0.16753">
        <ele>1701</ele>
        <time>2019-02-27T13:19:20Z</time>
      </trkpt>
      <trkpt lat="42.76442" lon="0.16753">
        <ele>1701</ele>
        <time>2019-02-27T13:19:21Z</time>
      </trkpt>
      <trkpt lat="42.76442" lon="0.16753">
        <ele>1701</ele>
        <time>2019-02-27T13:19:22Z</time>
      </trkpt>
      <trkpt lat="42.76443" lon="0.16753">
        <ele>1701</ele>
        <time>2019-02-27T13:19:23Z</time>
      </trkpt>
      <trkpt lat="42.76443" lon="0.16753">
        <ele>1701</ele>
        <time>2019-02-27T13:19:24Z</time>
      </trkpt>
      <trkpt lat="42.76443" lon="0.16754">
        <ele>1701</ele>
        <time>2019-02-27T13:19:25Z</time>
      </trkpt>
      <trkpt lat="42.76443" lon="0.16754">
        <ele>1701</ele>
        <time>2019-02-27T13:19:26Z</time>
      </trkpt>
      <trkpt lat="42.76443" lon="0.16754">
        <ele>1701</ele>
        <time>2019-02-27T13:19:27Z</time>
      </trkpt>
      <trkpt lat="42.76444" lon="0.16754">
        <ele>1701</ele>
        <time>2019-02-27T13:19:28Z</time>
      </trkpt>
      <trkpt lat="42.76444" lon="0.16754">
        <ele>1701</ele>
        <time>2019-02-27T13:19:29Z</time>
      </trkpt>
      <trkpt lat="42.76444" lon="0.16754">
        <ele>1701</ele>
        <time>2019-02-27T13:19:30Z</time>
      </trkpt>
      <trkpt lat="42.76444" lon="0.16754">
        <ele>1701</ele>
        <time>2019-02-27T13:19:31Z</time>
      </trkpt>
      <trkpt lat="42.76444" lon="0.16755">
        <ele>1701</ele>
        <time>2019-02-27T13:19:32Z</time>
      </trkpt>
      <trkpt lat="42.76445" lon="0.16755">
        <ele>1701</ele>
        <time>2019-02-27T13:19:33Z</time>
      </trkpt>
      <trkpt lat="42.76445" lon="0.16755">
        <ele>1701</ele>
        <time>2019-02-27T13:19:34Z</time>
      </trkpt>
      <trkpt lat="42.76445" lon="0.16755">
        <ele>1701</ele>
        <time>2019-02-27T13:19:35Z</time>
      </trkpt>
      <trkpt lat="42.76445" lon="0.16755">
        <ele>1701</ele>
        <time>2019-02-27T13:19:36Z</time>
      </trkpt>
      <trkpt lat="42.76446" lon="0.16755">
        <ele>1701</ele>
        <time>2019-02-27T13:19:37Z</time>
      </trkpt>
      <trkpt lat="42.76446" lon="0.16755">
        <ele>1701</ele>
        <time>2019-02-27T13:19:38Z</time>
      </trkpt>
      <trkpt lat="42.76446" lon="0.16756">
        <ele>1701</ele>
        <time>2019-02-27T13:19:39Z</time>
      </trkpt>
      <trkpt lat="42.76446" lon="0.16756">
        <ele>1701</ele>
        <time>2019-02-27T13:19:40Z</time>
      </trkpt>
      <trkpt lat="42.76446" lon="0.16756">
        <ele>1701</ele>
        <time>2019-02-27T13:19:41Z</time>
      </trkpt>
      <trkpt lat="42.76447" lon="0.16756">
        <ele>1701</ele>
        <time>2019-02-27T13:19:42Z</time>
      </trkpt>
      <trkpt lat="42.76452" lon="0.16759">
        <ele>1701</ele>
        <time>2019-02-27T13:19:43Z</time>
      </trkpt>
      <trkpt lat="42.76452" lon="0.16759">
        <ele>1701</ele>
        <time>2019-02-27T13:19:44Z</time>
      </trkpt>
      <trkpt lat="42.76452" lon="0.16759">
        <ele>1701</ele>
        <time>2019-02-27T13:19:45Z</time>
      </trkpt>
      <trkpt lat="42.76461" lon="0.16763">
        <ele>1701</ele>
        <time>2019-02-27T13:19:46Z</time>
      </trkpt>
      <trkpt lat="42.76461" lon="0.16763">
        <ele>1701</ele>
        <time>2019-02-27T13:19:47Z</time>
      </trkpt>
      <trkpt lat="42.76461" lon="0.16763">
        <ele>1701</ele>
        <time>2019-02-27T13:19:48Z</time>
      </trkpt>
      <trkpt lat="42.76461" lon="0.16763">
        <ele>1701</ele>
        <time>2019-02-27T13:19:49Z</time>
      </trkpt>
      <trkpt lat="42.76461" lon="0.16763">
        <ele>1701</ele>
        <time>2019-02-27T13:19:50Z</time>
      </trkpt>
      <trkpt lat="42.76471" lon="0.16766">
        <ele>1701</ele>
        <time>2019-02-27T13:19:51Z</time>
      </trkpt>
      <trkpt lat="42.76471" lon="0.16766">
        <ele>1700</ele>
        <time>2019-02-27T13:19:52Z</time>
      </trkpt>
      <trkpt lat="42.76474" lon="0.16766">
        <ele>1700</ele>
        <time>2019-02-27T13:19:53Z</time>
      </trkpt>
      <trkpt lat="42.76474" lon="0.16766">
        <ele>1700</ele>
        <time>2019-02-27T13:19:54Z</time>
      </trkpt>
      <trkpt lat="42.76476" lon="0.16766">
        <ele>1701</ele>
        <time>2019-02-27T13:19:55Z</time>
      </trkpt>
      <trkpt lat="42.76476" lon="0.16766">
        <ele>1701</ele>
        <time>2019-02-27T13:19:56Z</time>
      </trkpt>
      <trkpt lat="42.76476" lon="0.16766">
        <ele>1701</ele>
        <time>2019-02-27T13:19:57Z</time>
      </trkpt>
      <trkpt lat="42.76476" lon="0.16769">
        <ele>1701</ele>
        <time>2019-02-27T13:19:58Z</time>
      </trkpt>
      <trkpt lat="42.76476" lon="0.16769">
        <ele>1701</ele>
        <time>2019-02-27T13:19:59Z</time>
      </trkpt>
      <trkpt lat="42.76476" lon="0.16769">
        <ele>1701</ele>
        <time>2019-02-27T13:20:00Z</time>
      </trkpt>
      <trkpt lat="42.76477" lon="0.16772">
        <ele>1701</ele>
        <time>2019-02-27T13:20:01Z</time>
      </trkpt>
      <trkpt lat="42.76479" lon="0.16773">
        <ele>1701</ele>
        <time>2019-02-27T13:20:02Z</time>
      </trkpt>
      <trkpt lat="42.76479" lon="0.16773">
        <ele>1701</ele>
        <time>2019-02-27T13:20:03Z</time>
      </trkpt>
      <trkpt lat="42.76479" lon="0.16773">
        <ele>1701</ele>
        <time>2019-02-27T13:20:04Z</time>
      </trkpt>
      <trkpt lat="42.76481" lon="0.16775">
        <ele>1701</ele>
        <time>2019-02-27T13:20:05Z</time>
      </trkpt>
      <trkpt lat="42.76481" lon="0.16775">
        <ele>1701</ele>
        <time>2019-02-27T13:20:06Z</time>
      </trkpt>
      <trkpt lat="42.76481" lon="0.16778">
        <ele>1701</ele>
        <time>2019-02-27T13:20:07Z</time>
      </trkpt>
      <trkpt lat="42.76481" lon="0.16778">
        <ele>1701</ele>
        <time>2019-02-27T13:20:08Z</time>
      </trkpt>
      <trkpt lat="42.76483" lon="0.1678">
        <ele>1701</ele>
        <time>2019-02-27T13:20:09Z</time>
      </trkpt>
      <trkpt lat="42.76483" lon="0.1678">
        <ele>1701</ele>
        <time>2019-02-27T13:20:10Z</time>
      </trkpt>
      <trkpt lat="42.76483" lon="0.1678">
        <ele>1701</ele>
        <time>2019-02-27T13:20:11Z</time>
      </trkpt>
      <trkpt lat="42.76483" lon="0.1678">
        <ele>1701</ele>
        <time>2019-02-27T13:20:12Z</time>
      </trkpt>
      <trkpt lat="42.76484" lon="0.16783">
        <ele>1701</ele>
        <time>2019-02-27T13:20:13Z</time>
      </trkpt>
      <trkpt lat="42.76484" lon="0.16783">
        <ele>1701</ele>
        <time>2019-02-27T13:20:14Z</time>
      </trkpt>
      <trkpt lat="42.76484" lon="0.16783">
        <ele>1701</ele>
        <time>2019-02-27T13:20:15Z</time>
      </trkpt>
      <trkpt lat="42.76484" lon="0.16783">
        <ele>1701</ele>
        <time>2019-02-27T13:20:16Z</time>
      </trkpt>
      <trkpt lat="42.76484" lon="0.16783">
        <ele>1701</ele>
        <time>2019-02-27T13:20:17Z</time>
      </trkpt>
      <trkpt lat="42.76484" lon="0.16786">
        <ele>1701</ele>
        <time>2019-02-27T13:20:18Z</time>
      </trkpt>
      <trkpt lat="42.76484" lon="0.16786">
        <ele>1701</ele>
        <time>2019-02-27T13:20:19Z</time>
      </trkpt>
      <trkpt lat="42.76484" lon="0.16786">
        <ele>1701</ele>
        <time>2019-02-27T13:20:20Z</time>
      </trkpt>
      <trkpt lat="42.76484" lon="0.16789">
        <ele>1701</ele>
        <time>2019-02-27T13:20:21Z</time>
      </trkpt>
      <trkpt lat="42.76484" lon="0.16789">
        <ele>1701</ele>
        <time>2019-02-27T13:20:22Z</time>
      </trkpt>
      <trkpt lat="42.76484" lon="0.16789">
        <ele>1701</ele>
        <time>2019-02-27T13:20:23Z</time>
      </trkpt>
      <trkpt lat="42.76486" lon="0.16788">
        <ele>1701</ele>
        <time>2019-02-27T13:20:24Z</time>
      </trkpt>
      <trkpt lat="42.76486" lon="0.16788">
        <ele>1701</ele>
        <time>2019-02-27T13:20:25Z</time>
      </trkpt>
      <trkpt lat="42.76486" lon="0.16788">
        <ele>1701</ele>
        <time>2019-02-27T13:20:26Z</time>
      </trkpt>
      <trkpt lat="42.76488" lon="0.1679">
        <ele>1701</ele>
        <time>2019-02-27T13:20:27Z</time>
      </trkpt>
      <trkpt lat="42.76488" lon="0.1679">
        <ele>1701</ele>
        <time>2019-02-27T13:20:28Z</time>
      </trkpt>
      <trkpt lat="42.76488" lon="0.1679">
        <ele>1701</ele>
        <time>2019-02-27T13:20:29Z</time>
      </trkpt>
      <trkpt lat="42.76488" lon="0.16794">
        <ele>1701</ele>
        <time>2019-02-27T13:20:30Z</time>
      </trkpt>
      <trkpt lat="42.76488" lon="0.16794">
        <ele>1701</ele>
        <time>2019-02-27T13:20:31Z</time>
      </trkpt>
      <trkpt lat="42.76488" lon="0.16794">
        <ele>1700</ele>
        <time>2019-02-27T13:20:32Z</time>
      </trkpt>
      <trkpt lat="42.76488" lon="0.16796">
        <ele>1700</ele>
        <time>2019-02-27T13:20:33Z</time>
      </trkpt>
      <trkpt lat="42.76488" lon="0.16796">
        <ele>1700</ele>
        <time>2019-02-27T13:20:34Z</time>
      </trkpt>
      <trkpt lat="42.76488" lon="0.16796">
        <ele>1700</ele>
        <time>2019-02-27T13:20:35Z</time>
      </trkpt>
      <trkpt lat="42.76488" lon="0.16796">
        <ele>1700</ele>
        <time>2019-02-27T13:20:36Z</time>
      </trkpt>
      <trkpt lat="42.76488" lon="0.16799">
        <ele>1700</ele>
        <time>2019-02-27T13:20:37Z</time>
      </trkpt>
      <trkpt lat="42.76488" lon="0.16799">
        <ele>1701</ele>
        <time>2019-02-27T13:20:38Z</time>
      </trkpt>
      <trkpt lat="42.76487" lon="0.16802">
        <ele>1701</ele>
        <time>2019-02-27T13:20:39Z</time>
      </trkpt>
      <trkpt lat="42.76487" lon="0.16802">
        <ele>1701</ele>
        <time>2019-02-27T13:20:40Z</time>
      </trkpt>
      <trkpt lat="42.76487" lon="0.16802">
        <ele>1701</ele>
        <time>2019-02-27T13:20:41Z</time>
      </trkpt>
      <trkpt lat="42.76487" lon="0.16802">
        <ele>1701</ele>
        <time>2019-02-27T13:20:42Z</time>
      </trkpt>
      <trkpt lat="42.76487" lon="0.16802">
        <ele>1701</ele>
        <time>2019-02-27T13:20:43Z</time>
      </trkpt>
      <trkpt lat="42.76487" lon="0.16802">
        <ele>1701</ele>
        <time>2019-02-27T13:20:44Z</time>
      </trkpt>
      <trkpt lat="42.76487" lon="0.16802">
        <ele>1701</ele>
        <time>2019-02-27T13:20:45Z</time>
      </trkpt>
      <trkpt lat="42.76488" lon="0.16809">
        <ele>1701</ele>
        <time>2019-02-27T13:20:46Z</time>
      </trkpt>
      <trkpt lat="42.76488" lon="0.16809">
        <ele>1701</ele>
        <time>2019-02-27T13:20:47Z</time>
      </trkpt>
      <trkpt lat="42.76488" lon="0.16809">
        <ele>1701</ele>
        <time>2019-02-27T13:20:48Z</time>
      </trkpt>
      <trkpt lat="42.76488" lon="0.16809">
        <ele>1701</ele>
        <time>2019-02-27T13:20:49Z</time>
      </trkpt>
      <trkpt lat="42.76488" lon="0.16809">
        <ele>1701</ele>
        <time>2019-02-27T13:20:50Z</time>
      </trkpt>
      <trkpt lat="42.7649" lon="0.16806">
        <ele>1701</ele>
        <time>2019-02-27T13:20:51Z</time>
      </trkpt>
      <trkpt lat="42.7649" lon="0.16806">
        <ele>1701</ele>
        <time>2019-02-27T13:20:52Z</time>
      </trkpt>
      <trkpt lat="42.7649" lon="0.16806">
        <ele>1701</ele>
        <time>2019-02-27T13:20:53Z</time>
      </trkpt>
      <trkpt lat="42.7649" lon="0.16806">
        <ele>1701</ele>
        <time>2019-02-27T13:20:54Z</time>
      </trkpt>
      <trkpt lat="42.76491" lon="0.16808">
        <ele>1702</ele>
        <time>2019-02-27T13:20:55Z</time>
      </trkpt>
      <trkpt lat="42.76491" lon="0.16808">
        <ele>1702</ele>
        <time>2019-02-27T13:20:56Z</time>
      </trkpt>
      <trkpt lat="42.76491" lon="0.16808">
        <ele>1702</ele>
        <time>2019-02-27T13:20:57Z</time>
      </trkpt>
      <trkpt lat="42.76491" lon="0.16808">
        <ele>1702</ele>
        <time>2019-02-27T13:20:58Z</time>
      </trkpt>
      <trkpt lat="42.76493" lon="0.16811">
        <ele>1702</ele>
        <time>2019-02-27T13:20:59Z</time>
      </trkpt>
      <trkpt lat="42.76493" lon="0.16811">
        <ele>1702</ele>
        <time>2019-02-27T13:21:00Z</time>
      </trkpt>
      <trkpt lat="42.76493" lon="0.16815">
        <ele>1702</ele>
        <time>2019-02-27T13:21:01Z</time>
      </trkpt>
      <trkpt lat="42.76493" lon="0.16815">
        <ele>1702</ele>
        <time>2019-02-27T13:21:02Z</time>
      </trkpt>
      <trkpt lat="42.76494" lon="0.16817">
        <ele>1702</ele>
        <time>2019-02-27T13:21:03Z</time>
      </trkpt>
      <trkpt lat="42.76494" lon="0.16817">
        <ele>1702</ele>
        <time>2019-02-27T13:21:04Z</time>
      </trkpt>
      <trkpt lat="42.76494" lon="0.16817">
        <ele>1702</ele>
        <time>2019-02-27T13:21:05Z</time>
      </trkpt>
      <trkpt lat="42.76494" lon="0.1682">
        <ele>1702</ele>
        <time>2019-02-27T13:21:06Z</time>
      </trkpt>
      <trkpt lat="42.76494" lon="0.1682">
        <ele>1702</ele>
        <time>2019-02-27T13:21:07Z</time>
      </trkpt>
      <trkpt lat="42.76496" lon="0.16822">
        <ele>1702</ele>
        <time>2019-02-27T13:21:08Z</time>
      </trkpt>
      <trkpt lat="42.76496" lon="0.16822">
        <ele>1702</ele>
        <time>2019-02-27T13:21:09Z</time>
      </trkpt>
      <trkpt lat="42.76499" lon="0.16823">
        <ele>1702</ele>
        <time>2019-02-27T13:21:10Z</time>
      </trkpt>
      <trkpt lat="42.76499" lon="0.16823">
        <ele>1702</ele>
        <time>2019-02-27T13:21:11Z</time>
      </trkpt>
      <trkpt lat="42.765" lon="0.16826">
        <ele>1702</ele>
        <time>2019-02-27T13:21:12Z</time>
      </trkpt>
      <trkpt lat="42.765" lon="0.16826">
        <ele>1702</ele>
        <time>2019-02-27T13:21:13Z</time>
      </trkpt>
      <trkpt lat="42.765" lon="0.16826">
        <ele>1702</ele>
        <time>2019-02-27T13:21:14Z</time>
      </trkpt>
      <trkpt lat="42.765" lon="0.16826">
        <ele>1702</ele>
        <time>2019-02-27T13:21:15Z</time>
      </trkpt>
      <trkpt lat="42.765" lon="0.16826">
        <ele>1702</ele>
        <time>2019-02-27T13:21:16Z</time>
      </trkpt>
      <trkpt lat="42.76511" lon="0.16831">
        <ele>1702</ele>
        <time>2019-02-27T13:21:17Z</time>
      </trkpt>
      <trkpt lat="42.76512" lon="0.16832">
        <ele>1702</ele>
        <time>2019-02-27T13:21:18Z</time>
      </trkpt>
      <trkpt lat="42.76513" lon="0.16832">
        <ele>1702</ele>
        <time>2019-02-27T13:21:19Z</time>
      </trkpt>
      <trkpt lat="42.76515" lon="0.16832">
        <ele>1702</ele>
        <time>2019-02-27T13:21:20Z</time>
      </trkpt>
      <trkpt lat="42.76521" lon="0.16835">
        <ele>1701</ele>
        <time>2019-02-27T13:21:21Z</time>
      </trkpt>
      <trkpt lat="42.76522" lon="0.16837">
        <ele>1701</ele>
        <time>2019-02-27T13:21:22Z</time>
      </trkpt>
      <trkpt lat="42.76523" lon="0.16838">
        <ele>1701</ele>
        <time>2019-02-27T13:21:23Z</time>
      </trkpt>
      <trkpt lat="42.76524" lon="0.16839">
        <ele>1701</ele>
        <time>2019-02-27T13:21:24Z</time>
      </trkpt>
      <trkpt lat="42.76528" lon="0.16845">
        <ele>1701</ele>
        <time>2019-02-27T13:21:25Z</time>
      </trkpt>
      <trkpt lat="42.76528" lon="0.16852">
        <ele>1701</ele>
        <time>2019-02-27T13:21:26Z</time>
      </trkpt>
      <trkpt lat="42.76528" lon="0.16855">
        <ele>1701</ele>
        <time>2019-02-27T13:21:27Z</time>
      </trkpt>
      <trkpt lat="42.76528" lon="0.16857">
        <ele>1700</ele>
        <time>2019-02-27T13:21:28Z</time>
      </trkpt>
      <trkpt lat="42.76528" lon="0.16867">
        <ele>1700</ele>
        <time>2019-02-27T13:21:29Z</time>
      </trkpt>
      <trkpt lat="42.76528" lon="0.1687">
        <ele>1700</ele>
        <time>2019-02-27T13:21:30Z</time>
      </trkpt>
      <trkpt lat="42.76529" lon="0.16873">
        <ele>1700</ele>
        <time>2019-02-27T13:21:31Z</time>
      </trkpt>
      <trkpt lat="42.7653" lon="0.16881">
        <ele>1700</ele>
        <time>2019-02-27T13:21:32Z</time>
      </trkpt>
      <trkpt lat="42.7653" lon="0.16881">
        <ele>1699</ele>
        <time>2019-02-27T13:21:33Z</time>
      </trkpt>
      <trkpt lat="42.76533" lon="0.16889">
        <ele>1699</ele>
        <time>2019-02-27T13:21:34Z</time>
      </trkpt>
      <trkpt lat="42.76533" lon="0.16889">
        <ele>1699</ele>
        <time>2019-02-27T13:21:35Z</time>
      </trkpt>
      <trkpt lat="42.76533" lon="0.16889">
        <ele>1699</ele>
        <time>2019-02-27T13:21:36Z</time>
      </trkpt>
      <trkpt lat="42.76533" lon="0.16889">
        <ele>1699</ele>
        <time>2019-02-27T13:21:37Z</time>
      </trkpt>
      <trkpt lat="42.76533" lon="0.16889">
        <ele>1699</ele>
        <time>2019-02-27T13:21:38Z</time>
      </trkpt>
      <trkpt lat="42.76533" lon="0.16889">
        <ele>1699</ele>
        <time>2019-02-27T13:21:39Z</time>
      </trkpt>
      <trkpt lat="42.76533" lon="0.16889">
        <ele>1699</ele>
        <time>2019-02-27T13:21:40Z</time>
      </trkpt>
      <trkpt lat="42.76536" lon="0.16904">
        <ele>1699</ele>
        <time>2019-02-27T13:21:41Z</time>
      </trkpt>
      <trkpt lat="42.76536" lon="0.16906">
        <ele>1699</ele>
        <time>2019-02-27T13:21:42Z</time>
      </trkpt>
      <trkpt lat="42.76537" lon="0.16908">
        <ele>1699</ele>
        <time>2019-02-27T13:21:43Z</time>
      </trkpt>
      <trkpt lat="42.76537" lon="0.1691">
        <ele>1698</ele>
        <time>2019-02-27T13:21:44Z</time>
      </trkpt>
      <trkpt lat="42.76539" lon="0.16918">
        <ele>1698</ele>
        <time>2019-02-27T13:21:45Z</time>
      </trkpt>
      <trkpt lat="42.76539" lon="0.16918">
        <ele>1698</ele>
        <time>2019-02-27T13:21:46Z</time>
      </trkpt>
      <trkpt lat="42.76544" lon="0.16928">
        <ele>1698</ele>
        <time>2019-02-27T13:21:47Z</time>
      </trkpt>
      <trkpt lat="42.76547" lon="0.16932">
        <ele>1697</ele>
        <time>2019-02-27T13:21:48Z</time>
      </trkpt>
      <trkpt lat="42.7655" lon="0.16936">
        <ele>1696</ele>
        <time>2019-02-27T13:21:49Z</time>
      </trkpt>
      <trkpt lat="42.76553" lon="0.16943">
        <ele>1695</ele>
        <time>2019-02-27T13:21:50Z</time>
      </trkpt>
      <trkpt lat="42.76554" lon="0.16946">
        <ele>1695</ele>
        <time>2019-02-27T13:21:51Z</time>
      </trkpt>
      <trkpt lat="42.76556" lon="0.16948">
        <ele>1695</ele>
        <time>2019-02-27T13:21:52Z</time>
      </trkpt>
      <trkpt lat="42.76559" lon="0.16954">
        <ele>1694</ele>
        <time>2019-02-27T13:21:53Z</time>
      </trkpt>
      <trkpt lat="42.76559" lon="0.16954">
        <ele>1694</ele>
        <time>2019-02-27T13:21:54Z</time>
      </trkpt>
      <trkpt lat="42.76559" lon="0.16954">
        <ele>1693</ele>
        <time>2019-02-27T13:21:55Z</time>
      </trkpt>
      <trkpt lat="42.76559" lon="0.16954">
        <ele>1693</ele>
        <time>2019-02-27T13:21:56Z</time>
      </trkpt>
      <trkpt lat="42.76569" lon="0.16958">
        <ele>1692</ele>
        <time>2019-02-27T13:21:57Z</time>
      </trkpt>
      <trkpt lat="42.76569" lon="0.16958">
        <ele>1692</ele>
        <time>2019-02-27T13:21:58Z</time>
      </trkpt>
      <trkpt lat="42.76569" lon="0.16958">
        <ele>1692</ele>
        <time>2019-02-27T13:21:59Z</time>
      </trkpt>
      <trkpt lat="42.76569" lon="0.16958">
        <ele>1691</ele>
        <time>2019-02-27T13:22:00Z</time>
      </trkpt>
      <trkpt lat="42.76577" lon="0.16965">
        <ele>1690</ele>
        <time>2019-02-27T13:22:01Z</time>
      </trkpt>
      <trkpt lat="42.76577" lon="0.16965">
        <ele>1690</ele>
        <time>2019-02-27T13:22:02Z</time>
      </trkpt>
      <trkpt lat="42.76577" lon="0.16965">
        <ele>1690</ele>
        <time>2019-02-27T13:22:03Z</time>
      </trkpt>
      <trkpt lat="42.76577" lon="0.16965">
        <ele>1690</ele>
        <time>2019-02-27T13:22:04Z</time>
      </trkpt>
      <trkpt lat="42.76577" lon="0.16965">
        <ele>1690</ele>
        <time>2019-02-27T13:22:05Z</time>
      </trkpt>
      <trkpt lat="42.76577" lon="0.16965">
        <ele>1690</ele>
        <time>2019-02-27T13:22:06Z</time>
      </trkpt>
      <trkpt lat="42.76577" lon="0.16965">
        <ele>1690</ele>
        <time>2019-02-27T13:22:07Z</time>
      </trkpt>
      <trkpt lat="42.76577" lon="0.16965">
        <ele>1690</ele>
        <time>2019-02-27T13:22:08Z</time>
      </trkpt>
      <trkpt lat="42.76577" lon="0.16965">
        <ele>1690</ele>
        <time>2019-02-27T13:22:09Z</time>
      </trkpt>
      <trkpt lat="42.76577" lon="0.16965">
        <ele>1690</ele>
        <time>2019-02-27T13:22:10Z</time>
      </trkpt>
      <trkpt lat="42.76577" lon="0.16965">
        <ele>1690</ele>
        <time>2019-02-27T13:22:11Z</time>
      </trkpt>
      <trkpt lat="42.76577" lon="0.16965">
        <ele>1690</ele>
        <time>2019-02-27T13:22:12Z</time>
      </trkpt>
      <trkpt lat="42.76577" lon="0.16965">
        <ele>1690</ele>
        <time>2019-02-27T13:22:13Z</time>
      </trkpt>
      <trkpt lat="42.76577" lon="0.16965">
        <ele>1690</ele>
        <time>2019-02-27T13:22:14Z</time>
      </trkpt>
      <trkpt lat="42.76577" lon="0.16965">
        <ele>1690</ele>
        <time>2019-02-27T13:22:15Z</time>
      </trkpt>
      <trkpt lat="42.76577" lon="0.16965">
        <ele>1690</ele>
        <time>2019-02-27T13:22:16Z</time>
      </trkpt>
      <trkpt lat="42.76577" lon="0.16965">
        <ele>1690</ele>
        <time>2019-02-27T13:22:17Z</time>
      </trkpt>
      <trkpt lat="42.76577" lon="0.16965">
        <ele>1690</ele>
        <time>2019-02-27T13:22:18Z</time>
      </trkpt>
      <trkpt lat="42.76577" lon="0.16965">
        <ele>1690</ele>
        <time>2019-02-27T13:22:19Z</time>
      </trkpt>
      <trkpt lat="42.76577" lon="0.16965">
        <ele>1690</ele>
        <time>2019-02-27T13:22:20Z</time>
      </trkpt>
      <trkpt lat="42.76577" lon="0.16965">
        <ele>1690</ele>
        <time>2019-02-27T13:22:21Z</time>
      </trkpt>
      <trkpt lat="42.76577" lon="0.16965">
        <ele>1690</ele>
        <time>2019-02-27T13:22:22Z</time>
      </trkpt>
      <trkpt lat="42.76577" lon="0.16965">
        <ele>1690</ele>
        <time>2019-02-27T13:22:23Z</time>
      </trkpt>
      <trkpt lat="42.76577" lon="0.16965">
        <ele>1690</ele>
        <time>2019-02-27T13:22:24Z</time>
      </trkpt>
      <trkpt lat="42.76577" lon="0.16965">
        <ele>1690</ele>
        <time>2019-02-27T13:22:25Z</time>
      </trkpt>
      <trkpt lat="42.76577" lon="0.16965">
        <ele>1690</ele>
        <time>2019-02-27T13:22:26Z</time>
      </trkpt>
      <trkpt lat="42.76577" lon="0.16965">
        <ele>1690</ele>
        <time>2019-02-27T13:22:27Z</time>
      </trkpt>
      <trkpt lat="42.76577" lon="0.16965">
        <ele>1690</ele>
        <time>2019-02-27T13:22:28Z</time>
      </trkpt>
      <trkpt lat="42.76577" lon="0.16965">
        <ele>1690</ele>
        <time>2019-02-27T13:22:29Z</time>
      </trkpt>
      <trkpt lat="42.76577" lon="0.16965">
        <ele>1690</ele>
        <time>2019-02-27T13:22:30Z</time>
      </trkpt>
      <trkpt lat="42.76577" lon="0.16965">
        <ele>1690</ele>
        <time>2019-02-27T13:22:31Z</time>
      </trkpt>
      <trkpt lat="42.76577" lon="0.16965">
        <ele>1690</ele>
        <time>2019-02-27T13:22:32Z</time>
      </trkpt>
      <trkpt lat="42.76577" lon="0.16965">
        <ele>1690</ele>
        <time>2019-02-27T13:22:33Z</time>
      </trkpt>
      <trkpt lat="42.76577" lon="0.16965">
        <ele>1690</ele>
        <time>2019-02-27T13:22:34Z</time>
      </trkpt>
      <trkpt lat="42.76585" lon="0.16959">
        <ele>1690</ele>
        <time>2019-02-27T13:22:35Z</time>
      </trkpt>
      <trkpt lat="42.76586" lon="0.1696">
        <ele>1690</ele>
        <time>2019-02-27T13:22:36Z</time>
      </trkpt>
      <trkpt lat="42.76587" lon="0.16961">
        <ele>1690</ele>
        <time>2019-02-27T13:22:37Z</time>
      </trkpt>
      <trkpt lat="42.76588" lon="0.16962">
        <ele>1690</ele>
        <time>2019-02-27T13:22:38Z</time>
      </trkpt>
      <trkpt lat="42.76588" lon="0.16963">
        <ele>1690</ele>
        <time>2019-02-27T13:22:39Z</time>
      </trkpt>
      <trkpt lat="42.76592" lon="0.16968">
        <ele>1689</ele>
        <time>2019-02-27T13:22:40Z</time>
      </trkpt>
      <trkpt lat="42.76592" lon="0.16968">
        <ele>1689</ele>
        <time>2019-02-27T13:22:41Z</time>
      </trkpt>
      <trkpt lat="42.76592" lon="0.16968">
        <ele>1689</ele>
        <time>2019-02-27T13:22:42Z</time>
      </trkpt>
      <trkpt lat="42.76592" lon="0.16968">
        <ele>1689</ele>
        <time>2019-02-27T13:22:43Z</time>
      </trkpt>
      <trkpt lat="42.766" lon="0.16978">
        <ele>1688</ele>
        <time>2019-02-27T13:22:45Z</time>
      </trkpt>
      <trkpt lat="42.766" lon="0.16978">
        <ele>1688</ele>
        <time>2019-02-27T13:22:46Z</time>
      </trkpt>
      <trkpt lat="42.766" lon="0.16978">
        <ele>1688</ele>
        <time>2019-02-27T13:22:47Z</time>
      </trkpt>
      <trkpt lat="42.766" lon="0.16978">
        <ele>1688</ele>
        <time>2019-02-27T13:22:48Z</time>
      </trkpt>
      <trkpt lat="42.76605" lon="0.16991">
        <ele>1687</ele>
        <time>2019-02-27T13:22:49Z</time>
      </trkpt>
      <trkpt lat="42.76605" lon="0.16993">
        <ele>1687</ele>
        <time>2019-02-27T13:22:50Z</time>
      </trkpt>
      <trkpt lat="42.76605" lon="0.16994">
        <ele>1687</ele>
        <time>2019-02-27T13:22:51Z</time>
      </trkpt>
      <trkpt lat="42.76605" lon="0.16996">
        <ele>1686</ele>
        <time>2019-02-27T13:22:52Z</time>
      </trkpt>
      <trkpt lat="42.76605" lon="0.16997">
        <ele>1685</ele>
        <time>2019-02-27T13:22:53Z</time>
      </trkpt>
      <trkpt lat="42.76606" lon="0.17004">
        <ele>1685</ele>
        <time>2019-02-27T13:22:54Z</time>
      </trkpt>
      <trkpt lat="42.76606" lon="0.17004">
        <ele>1685</ele>
        <time>2019-02-27T13:22:55Z</time>
      </trkpt>
      <trkpt lat="42.76606" lon="0.17004">
        <ele>1684</ele>
        <time>2019-02-27T13:22:56Z</time>
      </trkpt>
      <trkpt lat="42.76608" lon="0.17017">
        <ele>1684</ele>
        <time>2019-02-27T13:22:57Z</time>
      </trkpt>
      <trkpt lat="42.76608" lon="0.17017">
        <ele>1684</ele>
        <time>2019-02-27T13:22:58Z</time>
      </trkpt>
      <trkpt lat="42.76608" lon="0.17017">
        <ele>1683</ele>
        <time>2019-02-27T13:22:59Z</time>
      </trkpt>
      <trkpt lat="42.76608" lon="0.17017">
        <ele>1682</ele>
        <time>2019-02-27T13:23:00Z</time>
      </trkpt>
      <trkpt lat="42.76614" lon="0.17029">
        <ele>1681</ele>
        <time>2019-02-27T13:23:01Z</time>
      </trkpt>
      <trkpt lat="42.76616" lon="0.17031">
        <ele>1681</ele>
        <time>2019-02-27T13:23:02Z</time>
      </trkpt>
      <trkpt lat="42.76617" lon="0.17032">
        <ele>1681</ele>
        <time>2019-02-27T13:23:03Z</time>
      </trkpt>
      <trkpt lat="42.76618" lon="0.17033">
        <ele>1681</ele>
        <time>2019-02-27T13:23:04Z</time>
      </trkpt>
      <trkpt lat="42.76623" lon="0.17038">
        <ele>1681</ele>
        <time>2019-02-27T13:23:05Z</time>
      </trkpt>
      <trkpt lat="42.76623" lon="0.17038">
        <ele>1679</ele>
        <time>2019-02-27T13:23:06Z</time>
      </trkpt>
      <trkpt lat="42.76623" lon="0.17038">
        <ele>1678</ele>
        <time>2019-02-27T13:23:07Z</time>
      </trkpt>
      <trkpt lat="42.76623" lon="0.17038">
        <ele>1678</ele>
        <time>2019-02-27T13:23:08Z</time>
      </trkpt>
      <trkpt lat="42.76629" lon="0.17045">
        <ele>1677</ele>
        <time>2019-02-27T13:23:09Z</time>
      </trkpt>
      <trkpt lat="42.7663" lon="0.17046">
        <ele>1677</ele>
        <time>2019-02-27T13:23:10Z</time>
      </trkpt>
      <trkpt lat="42.76631" lon="0.17048">
        <ele>1677</ele>
        <time>2019-02-27T13:23:11Z</time>
      </trkpt>
      <trkpt lat="42.76632" lon="0.17049">
        <ele>1677</ele>
        <time>2019-02-27T13:23:12Z</time>
      </trkpt>
      <trkpt lat="42.76635" lon="0.17055">
        <ele>1677</ele>
        <time>2019-02-27T13:23:13Z</time>
      </trkpt>
      <trkpt lat="42.76635" lon="0.17055">
        <ele>1676</ele>
        <time>2019-02-27T13:23:14Z</time>
      </trkpt>
      <trkpt lat="42.76635" lon="0.17055">
        <ele>1676</ele>
        <time>2019-02-27T13:23:15Z</time>
      </trkpt>
      <trkpt lat="42.76635" lon="0.17055">
        <ele>1676</ele>
        <time>2019-02-27T13:23:16Z</time>
      </trkpt>
      <trkpt lat="42.76635" lon="0.17055">
        <ele>1676</ele>
        <time>2019-02-27T13:23:17Z</time>
      </trkpt>
      <trkpt lat="42.76635" lon="0.17055">
        <ele>1676</ele>
        <time>2019-02-27T13:23:18Z</time>
      </trkpt>
      <trkpt lat="42.76635" lon="0.17055">
        <ele>1676</ele>
        <time>2019-02-27T13:23:19Z</time>
      </trkpt>
      <trkpt lat="42.76635" lon="0.17055">
        <ele>1676</ele>
        <time>2019-02-27T13:23:20Z</time>
      </trkpt>
      <trkpt lat="42.76635" lon="0.17055">
        <ele>1676</ele>
        <time>2019-02-27T13:23:21Z</time>
      </trkpt>
      <trkpt lat="42.76635" lon="0.17055">
        <ele>1676</ele>
        <time>2019-02-27T13:23:22Z</time>
      </trkpt>
      <trkpt lat="42.76635" lon="0.17055">
        <ele>1676</ele>
        <time>2019-02-27T13:23:23Z</time>
      </trkpt>
      <trkpt lat="42.76635" lon="0.17055">
        <ele>1676</ele>
        <time>2019-02-27T13:23:24Z</time>
      </trkpt>
      <trkpt lat="42.76635" lon="0.17055">
        <ele>1676</ele>
        <time>2019-02-27T13:23:25Z</time>
      </trkpt>
      <trkpt lat="42.76635" lon="0.17055">
        <ele>1676</ele>
        <time>2019-02-27T13:23:26Z</time>
      </trkpt>
      <trkpt lat="42.76635" lon="0.17055">
        <ele>1676</ele>
        <time>2019-02-27T13:23:27Z</time>
      </trkpt>
      <trkpt lat="42.76635" lon="0.17055">
        <ele>1676</ele>
        <time>2019-02-27T13:23:28Z</time>
      </trkpt>
      <trkpt lat="42.76635" lon="0.17055">
        <ele>1676</ele>
        <time>2019-02-27T13:23:29Z</time>
      </trkpt>
      <trkpt lat="42.76635" lon="0.17055">
        <ele>1676</ele>
        <time>2019-02-27T13:23:30Z</time>
      </trkpt>
      <trkpt lat="42.76635" lon="0.17055">
        <ele>1676</ele>
        <time>2019-02-27T13:23:31Z</time>
      </trkpt>
      <trkpt lat="42.76635" lon="0.17055">
        <ele>1676</ele>
        <time>2019-02-27T13:23:32Z</time>
      </trkpt>
      <trkpt lat="42.76635" lon="0.17055">
        <ele>1676</ele>
        <time>2019-02-27T13:23:33Z</time>
      </trkpt>
      <trkpt lat="42.76635" lon="0.17055">
        <ele>1676</ele>
        <time>2019-02-27T13:23:34Z</time>
      </trkpt>
      <trkpt lat="42.76635" lon="0.17055">
        <ele>1676</ele>
        <time>2019-02-27T13:23:35Z</time>
      </trkpt>
      <trkpt lat="42.76635" lon="0.17055">
        <ele>1676</ele>
        <time>2019-02-27T13:23:36Z</time>
      </trkpt>
      <trkpt lat="42.76635" lon="0.17055">
        <ele>1676</ele>
        <time>2019-02-27T13:23:37Z</time>
      </trkpt>
      <trkpt lat="42.76635" lon="0.17055">
        <ele>1676</ele>
        <time>2019-02-27T13:23:38Z</time>
      </trkpt>
      <trkpt lat="42.76637" lon="0.17062">
        <ele>1676</ele>
        <time>2019-02-27T13:23:39Z</time>
      </trkpt>
      <trkpt lat="42.76637" lon="0.17062">
        <ele>1676</ele>
        <time>2019-02-27T13:23:40Z</time>
      </trkpt>
      <trkpt lat="42.76637" lon="0.17062">
        <ele>1676</ele>
        <time>2019-02-27T13:23:41Z</time>
      </trkpt>
      <trkpt lat="42.76637" lon="0.17062">
        <ele>1676</ele>
        <time>2019-02-27T13:23:42Z</time>
      </trkpt>
      <trkpt lat="42.76636" lon="0.1706">
        <ele>1676</ele>
        <time>2019-02-27T13:23:43Z</time>
      </trkpt>
      <trkpt lat="42.76636" lon="0.1706">
        <ele>1675</ele>
        <time>2019-02-27T13:23:44Z</time>
      </trkpt>
      <trkpt lat="42.76636" lon="0.1706">
        <ele>1675</ele>
        <time>2019-02-27T13:23:45Z</time>
      </trkpt>
      <trkpt lat="42.76636" lon="0.1706">
        <ele>1675</ele>
        <time>2019-02-27T13:23:46Z</time>
      </trkpt>
      <trkpt lat="42.76636" lon="0.1706">
        <ele>1675</ele>
        <time>2019-02-27T13:23:47Z</time>
      </trkpt>
      <trkpt lat="42.76636" lon="0.1706">
        <ele>1675</ele>
        <time>2019-02-27T13:23:48Z</time>
      </trkpt>
      <trkpt lat="42.76636" lon="0.1706">
        <ele>1675</ele>
        <time>2019-02-27T13:23:49Z</time>
      </trkpt>
      <trkpt lat="42.76636" lon="0.1706">
        <ele>1675</ele>
        <time>2019-02-27T13:23:50Z</time>
      </trkpt>
      <trkpt lat="42.76636" lon="0.1706">
        <ele>1675</ele>
        <time>2019-02-27T13:23:51Z</time>
      </trkpt>
      <trkpt lat="42.76636" lon="0.1706">
        <ele>1675</ele>
        <time>2019-02-27T13:23:52Z</time>
      </trkpt>
      <trkpt lat="42.76636" lon="0.1706">
        <ele>1675</ele>
        <time>2019-02-27T13:23:53Z</time>
      </trkpt>
      <trkpt lat="42.76636" lon="0.1706">
        <ele>1675</ele>
        <time>2019-02-27T13:23:54Z</time>
      </trkpt>
      <trkpt lat="42.76634" lon="0.17059">
        <ele>1675</ele>
        <time>2019-02-27T13:23:55Z</time>
      </trkpt>
      <trkpt lat="42.76634" lon="0.17059">
        <ele>1675</ele>
        <time>2019-02-27T13:23:56Z</time>
      </trkpt>
      <trkpt lat="42.76634" lon="0.17059">
        <ele>1675</ele>
        <time>2019-02-27T13:23:57Z</time>
      </trkpt>
      <trkpt lat="42.76634" lon="0.17059">
        <ele>1675</ele>
        <time>2019-02-27T13:23:58Z</time>
      </trkpt>
      <trkpt lat="42.76634" lon="0.17059">
        <ele>1675</ele>
        <time>2019-02-27T13:23:59Z</time>
      </trkpt>
      <trkpt lat="42.76634" lon="0.17059">
        <ele>1675</ele>
        <time>2019-02-27T13:24:00Z</time>
      </trkpt>
      <trkpt lat="42.76634" lon="0.17059">
        <ele>1675</ele>
        <time>2019-02-27T13:24:01Z</time>
      </trkpt>
      <trkpt lat="42.76634" lon="0.17059">
        <ele>1675</ele>
        <time>2019-02-27T13:24:02Z</time>
      </trkpt>
      <trkpt lat="42.76633" lon="0.17057">
        <ele>1675</ele>
        <time>2019-02-27T13:24:03Z</time>
      </trkpt>
      <trkpt lat="42.76633" lon="0.17057">
        <ele>1675</ele>
        <time>2019-02-27T13:24:04Z</time>
      </trkpt>
      <trkpt lat="42.76633" lon="0.17057">
        <ele>1675</ele>
        <time>2019-02-27T13:24:05Z</time>
      </trkpt>
      <trkpt lat="42.76633" lon="0.17057">
        <ele>1675</ele>
        <time>2019-02-27T13:24:06Z</time>
      </trkpt>
      <trkpt lat="42.76633" lon="0.17057">
        <ele>1675</ele>
        <time>2019-02-27T13:24:07Z</time>
      </trkpt>
      <trkpt lat="42.76633" lon="0.17057">
        <ele>1675</ele>
        <time>2019-02-27T13:24:08Z</time>
      </trkpt>
      <trkpt lat="42.76633" lon="0.17057">
        <ele>1675</ele>
        <time>2019-02-27T13:24:09Z</time>
      </trkpt>
      <trkpt lat="42.76633" lon="0.17057">
        <ele>1675</ele>
        <time>2019-02-27T13:24:10Z</time>
      </trkpt>
      <trkpt lat="42.76633" lon="0.17057">
        <ele>1675</ele>
        <time>2019-02-27T13:24:11Z</time>
      </trkpt>
      <trkpt lat="42.76633" lon="0.17057">
        <ele>1675</ele>
        <time>2019-02-27T13:24:12Z</time>
      </trkpt>
      <trkpt lat="42.76633" lon="0.17057">
        <ele>1675</ele>
        <time>2019-02-27T13:24:13Z</time>
      </trkpt>
      <trkpt lat="42.76633" lon="0.17057">
        <ele>1675</ele>
        <time>2019-02-27T13:24:14Z</time>
      </trkpt>
      <trkpt lat="42.76633" lon="0.17057">
        <ele>1675</ele>
        <time>2019-02-27T13:24:15Z</time>
      </trkpt>
      <trkpt lat="42.76633" lon="0.17057">
        <ele>1675</ele>
        <time>2019-02-27T13:24:16Z</time>
      </trkpt>
      <trkpt lat="42.76633" lon="0.17057">
        <ele>1676</ele>
        <time>2019-02-27T13:24:17Z</time>
      </trkpt>
      <trkpt lat="42.76633" lon="0.17057">
        <ele>1676</ele>
        <time>2019-02-27T13:24:18Z</time>
      </trkpt>
      <trkpt lat="42.76633" lon="0.17057">
        <ele>1676</ele>
        <time>2019-02-27T13:24:19Z</time>
      </trkpt>
      <trkpt lat="42.76633" lon="0.17057">
        <ele>1676</ele>
        <time>2019-02-27T13:24:20Z</time>
      </trkpt>
      <trkpt lat="42.76633" lon="0.17057">
        <ele>1676</ele>
        <time>2019-02-27T13:24:21Z</time>
      </trkpt>
      <trkpt lat="42.76633" lon="0.17057">
        <ele>1676</ele>
        <time>2019-02-27T13:24:22Z</time>
      </trkpt>
      <trkpt lat="42.76634" lon="0.17054">
        <ele>1676</ele>
        <time>2019-02-27T13:24:23Z</time>
      </trkpt>
      <trkpt lat="42.76634" lon="0.17054">
        <ele>1675</ele>
        <time>2019-02-27T13:24:24Z</time>
      </trkpt>
      <trkpt lat="42.76634" lon="0.17054">
        <ele>1675</ele>
        <time>2019-02-27T13:24:25Z</time>
      </trkpt>
      <trkpt lat="42.76634" lon="0.17054">
        <ele>1675</ele>
        <time>2019-02-27T13:24:26Z</time>
      </trkpt>
      <trkpt lat="42.76634" lon="0.17054">
        <ele>1675</ele>
        <time>2019-02-27T13:24:27Z</time>
      </trkpt>
      <trkpt lat="42.76634" lon="0.17054">
        <ele>1675</ele>
        <time>2019-02-27T13:24:28Z</time>
      </trkpt>
      <trkpt lat="42.76634" lon="0.17054">
        <ele>1675</ele>
        <time>2019-02-27T13:24:29Z</time>
      </trkpt>
      <trkpt lat="42.76634" lon="0.17054">
        <ele>1675</ele>
        <time>2019-02-27T13:24:30Z</time>
      </trkpt>
      <trkpt lat="42.76634" lon="0.17054">
        <ele>1675</ele>
        <time>2019-02-27T13:24:31Z</time>
      </trkpt>
      <trkpt lat="42.76634" lon="0.17054">
        <ele>1675</ele>
        <time>2019-02-27T13:24:32Z</time>
      </trkpt>
      <trkpt lat="42.76634" lon="0.17054">
        <ele>1675</ele>
        <time>2019-02-27T13:24:33Z</time>
      </trkpt>
      <trkpt lat="42.76634" lon="0.17054">
        <ele>1675</ele>
        <time>2019-02-27T13:24:34Z</time>
      </trkpt>
      <trkpt lat="42.76634" lon="0.17054">
        <ele>1675</ele>
        <time>2019-02-27T13:24:35Z</time>
      </trkpt>
      <trkpt lat="42.76634" lon="0.17054">
        <ele>1675</ele>
        <time>2019-02-27T13:24:36Z</time>
      </trkpt>
      <trkpt lat="42.76634" lon="0.17054">
        <ele>1675</ele>
        <time>2019-02-27T13:24:37Z</time>
      </trkpt>
      <trkpt lat="42.76634" lon="0.17054">
        <ele>1675</ele>
        <time>2019-02-27T13:24:38Z</time>
      </trkpt>
      <trkpt lat="42.76634" lon="0.17054">
        <ele>1675</ele>
        <time>2019-02-27T13:24:39Z</time>
      </trkpt>
      <trkpt lat="42.76632" lon="0.17055">
        <ele>1676</ele>
        <time>2019-02-27T13:24:40Z</time>
      </trkpt>
      <trkpt lat="42.76632" lon="0.17055">
        <ele>1676</ele>
        <time>2019-02-27T13:24:41Z</time>
      </trkpt>
      <trkpt lat="42.76632" lon="0.17055">
        <ele>1676</ele>
        <time>2019-02-27T13:24:42Z</time>
      </trkpt>
      <trkpt lat="42.76632" lon="0.17055">
        <ele>1676</ele>
        <time>2019-02-27T13:24:43Z</time>
      </trkpt>
      <trkpt lat="42.76632" lon="0.17055">
        <ele>1676</ele>
        <time>2019-02-27T13:24:44Z</time>
      </trkpt>
      <trkpt lat="42.76632" lon="0.17055">
        <ele>1676</ele>
        <time>2019-02-27T13:24:45Z</time>
      </trkpt>
      <trkpt lat="42.76632" lon="0.17055">
        <ele>1676</ele>
        <time>2019-02-27T13:24:46Z</time>
      </trkpt>
      <trkpt lat="42.76632" lon="0.17055">
        <ele>1676</ele>
        <time>2019-02-27T13:24:47Z</time>
      </trkpt>
      <trkpt lat="42.76632" lon="0.17055">
        <ele>1676</ele>
        <time>2019-02-27T13:24:48Z</time>
      </trkpt>
      <trkpt lat="42.76632" lon="0.17055">
        <ele>1676</ele>
        <time>2019-02-27T13:24:49Z</time>
      </trkpt>
      <trkpt lat="42.76632" lon="0.17055">
        <ele>1676</ele>
        <time>2019-02-27T13:24:50Z</time>
      </trkpt>
      <trkpt lat="42.76632" lon="0.17055">
        <ele>1676</ele>
        <time>2019-02-27T13:24:51Z</time>
      </trkpt>
      <trkpt lat="42.76632" lon="0.17055">
        <ele>1676</ele>
        <time>2019-02-27T13:24:52Z</time>
      </trkpt>
      <trkpt lat="42.76632" lon="0.17055">
        <ele>1675</ele>
        <time>2019-02-27T13:24:53Z</time>
      </trkpt>
      <trkpt lat="42.76632" lon="0.17055">
        <ele>1675</ele>
        <time>2019-02-27T13:24:54Z</time>
      </trkpt>
      <trkpt lat="42.76632" lon="0.17055">
        <ele>1675</ele>
        <time>2019-02-27T13:24:55Z</time>
      </trkpt>
      <trkpt lat="42.76632" lon="0.17055">
        <ele>1675</ele>
        <time>2019-02-27T13:24:56Z</time>
      </trkpt>
      <trkpt lat="42.76632" lon="0.17055">
        <ele>1675</ele>
        <time>2019-02-27T13:24:57Z</time>
      </trkpt>
      <trkpt lat="42.76633" lon="0.17057">
        <ele>1675</ele>
        <time>2019-02-27T13:24:58Z</time>
      </trkpt>
      <trkpt lat="42.76633" lon="0.17057">
        <ele>1675</ele>
        <time>2019-02-27T13:24:59Z</time>
      </trkpt>
      <trkpt lat="42.76633" lon="0.17057">
        <ele>1675</ele>
        <time>2019-02-27T13:25:00Z</time>
      </trkpt>
      <trkpt lat="42.76633" lon="0.17057">
        <ele>1675</ele>
        <time>2019-02-27T13:25:01Z</time>
      </trkpt>
      <trkpt lat="42.76633" lon="0.17057">
        <ele>1676</ele>
        <time>2019-02-27T13:25:02Z</time>
      </trkpt>
      <trkpt lat="42.76633" lon="0.17057">
        <ele>1676</ele>
        <time>2019-02-27T13:25:03Z</time>
      </trkpt>
      <trkpt lat="42.76633" lon="0.17057">
        <ele>1676</ele>
        <time>2019-02-27T13:25:04Z</time>
      </trkpt>
      <trkpt lat="42.76633" lon="0.17057">
        <ele>1677</ele>
        <time>2019-02-27T13:25:05Z</time>
      </trkpt>
      <trkpt lat="42.76633" lon="0.17057">
        <ele>1677</ele>
        <time>2019-02-27T13:25:06Z</time>
      </trkpt>
      <trkpt lat="42.76633" lon="0.17057">
        <ele>1677</ele>
        <time>2019-02-27T13:25:07Z</time>
      </trkpt>
      <trkpt lat="42.76633" lon="0.17057">
        <ele>1676</ele>
        <time>2019-02-27T13:25:08Z</time>
      </trkpt>
      <trkpt lat="42.76633" lon="0.17057">
        <ele>1676</ele>
        <time>2019-02-27T13:25:09Z</time>
      </trkpt>
      <trkpt lat="42.76633" lon="0.17057">
        <ele>1676</ele>
        <time>2019-02-27T13:25:10Z</time>
      </trkpt>
      <trkpt lat="42.76633" lon="0.17057">
        <ele>1676</ele>
        <time>2019-02-27T13:25:11Z</time>
      </trkpt>
      <trkpt lat="42.76633" lon="0.17057">
        <ele>1676</ele>
        <time>2019-02-27T13:25:12Z</time>
      </trkpt>
      <trkpt lat="42.76633" lon="0.17057">
        <ele>1676</ele>
        <time>2019-02-27T13:25:13Z</time>
      </trkpt>
      <trkpt lat="42.76633" lon="0.17057">
        <ele>1676</ele>
        <time>2019-02-27T13:25:14Z</time>
      </trkpt>
      <trkpt lat="42.76633" lon="0.17057">
        <ele>1676</ele>
        <time>2019-02-27T13:25:15Z</time>
      </trkpt>
      <trkpt lat="42.76633" lon="0.17057">
        <ele>1677</ele>
        <time>2019-02-27T13:25:16Z</time>
      </trkpt>
      <trkpt lat="42.76633" lon="0.17057">
        <ele>1677</ele>
        <time>2019-02-27T13:25:17Z</time>
      </trkpt>
      <trkpt lat="42.76633" lon="0.17057">
        <ele>1677</ele>
        <time>2019-02-27T13:25:18Z</time>
      </trkpt>
      <trkpt lat="42.76633" lon="0.17057">
        <ele>1677</ele>
        <time>2019-02-27T13:25:19Z</time>
      </trkpt>
      <trkpt lat="42.76633" lon="0.17057">
        <ele>1677</ele>
        <time>2019-02-27T13:25:20Z</time>
      </trkpt>
      <trkpt lat="42.76633" lon="0.17057">
        <ele>1676</ele>
        <time>2019-02-27T13:25:21Z</time>
      </trkpt>
      <trkpt lat="42.76633" lon="0.17057">
        <ele>1676</ele>
        <time>2019-02-27T13:25:22Z</time>
      </trkpt>
      <trkpt lat="42.76633" lon="0.17057">
        <ele>1676</ele>
        <time>2019-02-27T13:25:23Z</time>
      </trkpt>
      <trkpt lat="42.76633" lon="0.17057">
        <ele>1676</ele>
        <time>2019-02-27T13:25:24Z</time>
      </trkpt>
      <trkpt lat="42.76633" lon="0.17057">
        <ele>1676</ele>
        <time>2019-02-27T13:25:25Z</time>
      </trkpt>
      <trkpt lat="42.76633" lon="0.17057">
        <ele>1676</ele>
        <time>2019-02-27T13:25:26Z</time>
      </trkpt>
      <trkpt lat="42.76633" lon="0.17057">
        <ele>1676</ele>
        <time>2019-02-27T13:25:27Z</time>
      </trkpt>
      <trkpt lat="42.76633" lon="0.17057">
        <ele>1677</ele>
        <time>2019-02-27T13:25:28Z</time>
      </trkpt>
      <trkpt lat="42.76633" lon="0.17057">
        <ele>1677</ele>
        <time>2019-02-27T13:25:29Z</time>
      </trkpt>
      <trkpt lat="42.76633" lon="0.17057">
        <ele>1677</ele>
        <time>2019-02-27T13:25:30Z</time>
      </trkpt>
      <trkpt lat="42.76633" lon="0.17057">
        <ele>1677</ele>
        <time>2019-02-27T13:25:31Z</time>
      </trkpt>
      <trkpt lat="42.76633" lon="0.17057">
        <ele>1677</ele>
        <time>2019-02-27T13:25:32Z</time>
      </trkpt>
      <trkpt lat="42.76633" lon="0.17057">
        <ele>1677</ele>
        <time>2019-02-27T13:25:33Z</time>
      </trkpt>
      <trkpt lat="42.76633" lon="0.17057">
        <ele>1677</ele>
        <time>2019-02-27T13:25:34Z</time>
      </trkpt>
      <trkpt lat="42.76633" lon="0.17057">
        <ele>1677</ele>
        <time>2019-02-27T13:25:35Z</time>
      </trkpt>
      <trkpt lat="42.76633" lon="0.17057">
        <ele>1677</ele>
        <time>2019-02-27T13:25:36Z</time>
      </trkpt>
      <trkpt lat="42.76633" lon="0.17057">
        <ele>1677</ele>
        <time>2019-02-27T13:25:37Z</time>
      </trkpt>
      <trkpt lat="42.76633" lon="0.17057">
        <ele>1676</ele>
        <time>2019-02-27T13:25:38Z</time>
      </trkpt>
      <trkpt lat="42.76633" lon="0.17057">
        <ele>1676</ele>
        <time>2019-02-27T13:25:39Z</time>
      </trkpt>
      <trkpt lat="42.76633" lon="0.17057">
        <ele>1677</ele>
        <time>2019-02-27T13:25:40Z</time>
      </trkpt>
      <trkpt lat="42.76633" lon="0.17057">
        <ele>1677</ele>
        <time>2019-02-27T13:25:41Z</time>
      </trkpt>
      <trkpt lat="42.76633" lon="0.17057">
        <ele>1677</ele>
        <time>2019-02-27T13:25:42Z</time>
      </trkpt>
      <trkpt lat="42.76633" lon="0.17057">
        <ele>1677</ele>
        <time>2019-02-27T13:25:43Z</time>
      </trkpt>
      <trkpt lat="42.76633" lon="0.17057">
        <ele>1677</ele>
        <time>2019-02-27T13:25:44Z</time>
      </trkpt>
      <trkpt lat="42.76637" lon="0.1705">
        <ele>1677</ele>
        <time>2019-02-27T13:25:45Z</time>
      </trkpt>
      <trkpt lat="42.76637" lon="0.1705">
        <ele>1676</ele>
        <time>2019-02-27T13:25:46Z</time>
      </trkpt>
      <trkpt lat="42.76637" lon="0.1705">
        <ele>1676</ele>
        <time>2019-02-27T13:25:47Z</time>
      </trkpt>
      <trkpt lat="42.76637" lon="0.1705">
        <ele>1676</ele>
        <time>2019-02-27T13:25:48Z</time>
      </trkpt>
      <trkpt lat="42.76637" lon="0.1705">
        <ele>1676</ele>
        <time>2019-02-27T13:25:49Z</time>
      </trkpt>
      <trkpt lat="42.76637" lon="0.1705">
        <ele>1675</ele>
        <time>2019-02-27T13:25:50Z</time>
      </trkpt>
      <trkpt lat="42.76637" lon="0.1705">
        <ele>1675</ele>
        <time>2019-02-27T13:25:51Z</time>
      </trkpt>
      <trkpt lat="42.76637" lon="0.1705">
        <ele>1676</ele>
        <time>2019-02-27T13:25:52Z</time>
      </trkpt>
      <trkpt lat="42.76637" lon="0.1705">
        <ele>1676</ele>
        <time>2019-02-27T13:25:53Z</time>
      </trkpt>
      <trkpt lat="42.76637" lon="0.1705">
        <ele>1675</ele>
        <time>2019-02-27T13:25:54Z</time>
      </trkpt>
      <trkpt lat="42.76637" lon="0.1705">
        <ele>1675</ele>
        <time>2019-02-27T13:25:55Z</time>
      </trkpt>
      <trkpt lat="42.76637" lon="0.1705">
        <ele>1675</ele>
        <time>2019-02-27T13:25:56Z</time>
      </trkpt>
      <trkpt lat="42.76637" lon="0.1705">
        <ele>1675</ele>
        <time>2019-02-27T13:25:57Z</time>
      </trkpt>
      <trkpt lat="42.76637" lon="0.1705">
        <ele>1675</ele>
        <time>2019-02-27T13:25:58Z</time>
      </trkpt>
      <trkpt lat="42.76637" lon="0.1705">
        <ele>1675</ele>
        <time>2019-02-27T13:25:59Z</time>
      </trkpt>
      <trkpt lat="42.76637" lon="0.1705">
        <ele>1675</ele>
        <time>2019-02-27T13:26:00Z</time>
      </trkpt>
      <trkpt lat="42.76637" lon="0.1705">
        <ele>1675</ele>
        <time>2019-02-27T13:26:01Z</time>
      </trkpt>
      <trkpt lat="42.76637" lon="0.1705">
        <ele>1675</ele>
        <time>2019-02-27T13:26:02Z</time>
      </trkpt>
      <trkpt lat="42.76637" lon="0.1705">
        <ele>1675</ele>
        <time>2019-02-27T13:26:03Z</time>
      </trkpt>
      <trkpt lat="42.76637" lon="0.1705">
        <ele>1675</ele>
        <time>2019-02-27T13:26:04Z</time>
      </trkpt>
      <trkpt lat="42.76637" lon="0.1705">
        <ele>1675</ele>
        <time>2019-02-27T13:26:05Z</time>
      </trkpt>
      <trkpt lat="42.76637" lon="0.1705">
        <ele>1676</ele>
        <time>2019-02-27T13:26:06Z</time>
      </trkpt>
      <trkpt lat="42.76637" lon="0.1705">
        <ele>1676</ele>
        <time>2019-02-27T13:26:07Z</time>
      </trkpt>
      <trkpt lat="42.76637" lon="0.1705">
        <ele>1676</ele>
        <time>2019-02-27T13:26:08Z</time>
      </trkpt>
      <trkpt lat="42.76637" lon="0.1705">
        <ele>1676</ele>
        <time>2019-02-27T13:26:09Z</time>
      </trkpt>
      <trkpt lat="42.76637" lon="0.1705">
        <ele>1676</ele>
        <time>2019-02-27T13:26:10Z</time>
      </trkpt>
      <trkpt lat="42.76637" lon="0.1705">
        <ele>1676</ele>
        <time>2019-02-27T13:26:11Z</time>
      </trkpt>
      <trkpt lat="42.76637" lon="0.1705">
        <ele>1676</ele>
        <time>2019-02-27T13:26:12Z</time>
      </trkpt>
      <trkpt lat="42.76637" lon="0.1705">
        <ele>1676</ele>
        <time>2019-02-27T13:26:13Z</time>
      </trkpt>
      <trkpt lat="42.76637" lon="0.1705">
        <ele>1676</ele>
        <time>2019-02-27T13:26:14Z</time>
      </trkpt>
      <trkpt lat="42.76637" lon="0.1705">
        <ele>1676</ele>
        <time>2019-02-27T13:26:15Z</time>
      </trkpt>
      <trkpt lat="42.76637" lon="0.1705">
        <ele>1676</ele>
        <time>2019-02-27T13:26:16Z</time>
      </trkpt>
      <trkpt lat="42.76637" lon="0.1705">
        <ele>1676</ele>
        <time>2019-02-27T13:26:17Z</time>
      </trkpt>
      <trkpt lat="42.76637" lon="0.1705">
        <ele>1676</ele>
        <time>2019-02-27T13:26:18Z</time>
      </trkpt>
      <trkpt lat="42.76637" lon="0.1705">
        <ele>1676</ele>
        <time>2019-02-27T13:26:19Z</time>
      </trkpt>
      <trkpt lat="42.76637" lon="0.1705">
        <ele>1676</ele>
        <time>2019-02-27T13:26:20Z</time>
      </trkpt>
      <trkpt lat="42.76637" lon="0.1705">
        <ele>1676</ele>
        <time>2019-02-27T13:26:21Z</time>
      </trkpt>
      <trkpt lat="42.76637" lon="0.1705">
        <ele>1676</ele>
        <time>2019-02-27T13:26:22Z</time>
      </trkpt>
      <trkpt lat="42.76637" lon="0.1705">
        <ele>1676</ele>
        <time>2019-02-27T13:26:23Z</time>
      </trkpt>
      <trkpt lat="42.76637" lon="0.1705">
        <ele>1676</ele>
        <time>2019-02-27T13:26:24Z</time>
      </trkpt>
      <trkpt lat="42.76637" lon="0.1705">
        <ele>1676</ele>
        <time>2019-02-27T13:26:25Z</time>
      </trkpt>
      <trkpt lat="42.76637" lon="0.1705">
        <ele>1676</ele>
        <time>2019-02-27T13:26:26Z</time>
      </trkpt>
      <trkpt lat="42.76637" lon="0.1705">
        <ele>1676</ele>
        <time>2019-02-27T13:26:27Z</time>
      </trkpt>
      <trkpt lat="42.76637" lon="0.1705">
        <ele>1675</ele>
        <time>2019-02-27T13:26:28Z</time>
      </trkpt>
      <trkpt lat="42.76637" lon="0.1705">
        <ele>1676</ele>
        <time>2019-02-27T13:26:29Z</time>
      </trkpt>
      <trkpt lat="42.76637" lon="0.1705">
        <ele>1676</ele>
        <time>2019-02-27T13:26:30Z</time>
      </trkpt>
      <trkpt lat="42.76637" lon="0.1705">
        <ele>1676</ele>
        <time>2019-02-27T13:26:31Z</time>
      </trkpt>
      <trkpt lat="42.76637" lon="0.1705">
        <ele>1676</ele>
        <time>2019-02-27T13:26:32Z</time>
      </trkpt>
      <trkpt lat="42.76637" lon="0.1705">
        <ele>1675</ele>
        <time>2019-02-27T13:26:33Z</time>
      </trkpt>
      <trkpt lat="42.76637" lon="0.1705">
        <ele>1675</ele>
        <time>2019-02-27T13:26:34Z</time>
      </trkpt>
      <trkpt lat="42.76637" lon="0.1705">
        <ele>1675</ele>
        <time>2019-02-27T13:26:35Z</time>
      </trkpt>
      <trkpt lat="42.76637" lon="0.1705">
        <ele>1676</ele>
        <time>2019-02-27T13:26:36Z</time>
      </trkpt>
      <trkpt lat="42.76637" lon="0.1705">
        <ele>1677</ele>
        <time>2019-02-27T13:26:37Z</time>
      </trkpt>
      <trkpt lat="42.76637" lon="0.1705">
        <ele>1677</ele>
        <time>2019-02-27T13:26:38Z</time>
      </trkpt>
      <trkpt lat="42.7664" lon="0.17053">
        <ele>1677</ele>
        <time>2019-02-27T13:26:39Z</time>
      </trkpt>
      <trkpt lat="42.7664" lon="0.17053">
        <ele>1677</ele>
        <time>2019-02-27T13:26:40Z</time>
      </trkpt>
      <trkpt lat="42.7664" lon="0.17053">
        <ele>1677</ele>
        <time>2019-02-27T13:26:41Z</time>
      </trkpt>
      <trkpt lat="42.7664" lon="0.17053">
        <ele>1677</ele>
        <time>2019-02-27T13:26:42Z</time>
      </trkpt>
      <trkpt lat="42.7664" lon="0.17053">
        <ele>1677</ele>
        <time>2019-02-27T13:26:43Z</time>
      </trkpt>
      <trkpt lat="42.7664" lon="0.17053">
        <ele>1677</ele>
        <time>2019-02-27T13:26:44Z</time>
      </trkpt>
      <trkpt lat="42.7664" lon="0.17053">
        <ele>1677</ele>
        <time>2019-02-27T13:26:45Z</time>
      </trkpt>
      <trkpt lat="42.7664" lon="0.17053">
        <ele>1677</ele>
        <time>2019-02-27T13:26:46Z</time>
      </trkpt>
      <trkpt lat="42.7664" lon="0.17053">
        <ele>1677</ele>
        <time>2019-02-27T13:26:47Z</time>
      </trkpt>
      <trkpt lat="42.7664" lon="0.17053">
        <ele>1677</ele>
        <time>2019-02-27T13:26:48Z</time>
      </trkpt>
      <trkpt lat="42.7664" lon="0.17053">
        <ele>1676</ele>
        <time>2019-02-27T13:26:49Z</time>
      </trkpt>
      <trkpt lat="42.7664" lon="0.17053">
        <ele>1676</ele>
        <time>2019-02-27T13:26:50Z</time>
      </trkpt>
      <trkpt lat="42.7664" lon="0.17053">
        <ele>1676</ele>
        <time>2019-02-27T13:26:51Z</time>
      </trkpt>
      <trkpt lat="42.7664" lon="0.17053">
        <ele>1676</ele>
        <time>2019-02-27T13:26:52Z</time>
      </trkpt>
      <trkpt lat="42.7664" lon="0.17053">
        <ele>1677</ele>
        <time>2019-02-27T13:26:53Z</time>
      </trkpt>
      <trkpt lat="42.7664" lon="0.17053">
        <ele>1677</ele>
        <time>2019-02-27T13:26:54Z</time>
      </trkpt>
      <trkpt lat="42.7664" lon="0.17053">
        <ele>1677</ele>
        <time>2019-02-27T13:26:55Z</time>
      </trkpt>
      <trkpt lat="42.7664" lon="0.17053">
        <ele>1677</ele>
        <time>2019-02-27T13:26:56Z</time>
      </trkpt>
      <trkpt lat="42.7664" lon="0.17053">
        <ele>1677</ele>
        <time>2019-02-27T13:26:57Z</time>
      </trkpt>
      <trkpt lat="42.7664" lon="0.17053">
        <ele>1677</ele>
        <time>2019-02-27T13:26:58Z</time>
      </trkpt>
      <trkpt lat="42.7664" lon="0.17053">
        <ele>1677</ele>
        <time>2019-02-27T13:26:59Z</time>
      </trkpt>
      <trkpt lat="42.7664" lon="0.17053">
        <ele>1677</ele>
        <time>2019-02-27T13:27:00Z</time>
      </trkpt>
      <trkpt lat="42.7664" lon="0.17053">
        <ele>1677</ele>
        <time>2019-02-27T13:27:01Z</time>
      </trkpt>
      <trkpt lat="42.7664" lon="0.17053">
        <ele>1677</ele>
        <time>2019-02-27T13:27:02Z</time>
      </trkpt>
      <trkpt lat="42.7664" lon="0.17053">
        <ele>1677</ele>
        <time>2019-02-27T13:27:03Z</time>
      </trkpt>
      <trkpt lat="42.7664" lon="0.17053">
        <ele>1677</ele>
        <time>2019-02-27T13:27:04Z</time>
      </trkpt>
      <trkpt lat="42.7664" lon="0.17053">
        <ele>1677</ele>
        <time>2019-02-27T13:27:05Z</time>
      </trkpt>
      <trkpt lat="42.7664" lon="0.17053">
        <ele>1677</ele>
        <time>2019-02-27T13:27:06Z</time>
      </trkpt>
      <trkpt lat="42.7664" lon="0.17053">
        <ele>1677</ele>
        <time>2019-02-27T13:27:07Z</time>
      </trkpt>
      <trkpt lat="42.7664" lon="0.17053">
        <ele>1677</ele>
        <time>2019-02-27T13:27:08Z</time>
      </trkpt>
      <trkpt lat="42.7664" lon="0.17053">
        <ele>1677</ele>
        <time>2019-02-27T13:27:09Z</time>
      </trkpt>
      <trkpt lat="42.7664" lon="0.17053">
        <ele>1677</ele>
        <time>2019-02-27T13:27:10Z</time>
      </trkpt>
      <trkpt lat="42.7664" lon="0.17053">
        <ele>1676</ele>
        <time>2019-02-27T13:27:11Z</time>
      </trkpt>
      <trkpt lat="42.7664" lon="0.17053">
        <ele>1676</ele>
        <time>2019-02-27T13:27:12Z</time>
      </trkpt>
      <trkpt lat="42.7664" lon="0.17053">
        <ele>1676</ele>
        <time>2019-02-27T13:27:13Z</time>
      </trkpt>
      <trkpt lat="42.7664" lon="0.17053">
        <ele>1677</ele>
        <time>2019-02-27T13:27:14Z</time>
      </trkpt>
      <trkpt lat="42.7664" lon="0.17053">
        <ele>1677</ele>
        <time>2019-02-27T13:27:15Z</time>
      </trkpt>
      <trkpt lat="42.7664" lon="0.17053">
        <ele>1676</ele>
        <time>2019-02-27T13:27:16Z</time>
      </trkpt>
      <trkpt lat="42.7664" lon="0.17053">
        <ele>1676</ele>
        <time>2019-02-27T13:27:17Z</time>
      </trkpt>
      <trkpt lat="42.7664" lon="0.17053">
        <ele>1676</ele>
        <time>2019-02-27T13:27:18Z</time>
      </trkpt>
      <trkpt lat="42.7664" lon="0.17053">
        <ele>1676</ele>
        <time>2019-02-27T13:27:19Z</time>
      </trkpt>
      <trkpt lat="42.7664" lon="0.17053">
        <ele>1676</ele>
        <time>2019-02-27T13:27:20Z</time>
      </trkpt>
      <trkpt lat="42.7664" lon="0.17053">
        <ele>1676</ele>
        <time>2019-02-27T13:27:21Z</time>
      </trkpt>
      <trkpt lat="42.7664" lon="0.17053">
        <ele>1676</ele>
        <time>2019-02-27T13:27:22Z</time>
      </trkpt>
      <trkpt lat="42.7664" lon="0.17053">
        <ele>1676</ele>
        <time>2019-02-27T13:27:23Z</time>
      </trkpt>
      <trkpt lat="42.7664" lon="0.17053">
        <ele>1676</ele>
        <time>2019-02-27T13:27:24Z</time>
      </trkpt>
      <trkpt lat="42.7664" lon="0.17053">
        <ele>1676</ele>
        <time>2019-02-27T13:27:25Z</time>
      </trkpt>
      <trkpt lat="42.7664" lon="0.17053">
        <ele>1676</ele>
        <time>2019-02-27T13:27:26Z</time>
      </trkpt>
      <trkpt lat="42.7664" lon="0.17053">
        <ele>1676</ele>
        <time>2019-02-27T13:27:27Z</time>
      </trkpt>
      <trkpt lat="42.7664" lon="0.17053">
        <ele>1676</ele>
        <time>2019-02-27T13:27:28Z</time>
      </trkpt>
      <trkpt lat="42.7664" lon="0.17053">
        <ele>1676</ele>
        <time>2019-02-27T13:27:29Z</time>
      </trkpt>
      <trkpt lat="42.7664" lon="0.17053">
        <ele>1676</ele>
        <time>2019-02-27T13:27:30Z</time>
      </trkpt>
      <trkpt lat="42.7664" lon="0.17053">
        <ele>1676</ele>
        <time>2019-02-27T13:27:31Z</time>
      </trkpt>
      <trkpt lat="42.7664" lon="0.17053">
        <ele>1676</ele>
        <time>2019-02-27T13:27:32Z</time>
      </trkpt>
      <trkpt lat="42.7664" lon="0.17053">
        <ele>1676</ele>
        <time>2019-02-27T13:27:33Z</time>
      </trkpt>
      <trkpt lat="42.7664" lon="0.17053">
        <ele>1676</ele>
        <time>2019-02-27T13:27:34Z</time>
      </trkpt>
      <trkpt lat="42.7664" lon="0.17053">
        <ele>1677</ele>
        <time>2019-02-27T13:27:35Z</time>
      </trkpt>
      <trkpt lat="42.7664" lon="0.17053">
        <ele>1677</ele>
        <time>2019-02-27T13:27:36Z</time>
      </trkpt>
      <trkpt lat="42.7664" lon="0.17053">
        <ele>1677</ele>
        <time>2019-02-27T13:27:37Z</time>
      </trkpt>
      <trkpt lat="42.7664" lon="0.17053">
        <ele>1677</ele>
        <time>2019-02-27T13:27:38Z</time>
      </trkpt>
      <trkpt lat="42.7664" lon="0.17053">
        <ele>1677</ele>
        <time>2019-02-27T13:27:39Z</time>
      </trkpt>
      <trkpt lat="42.7664" lon="0.17053">
        <ele>1677</ele>
        <time>2019-02-27T13:27:40Z</time>
      </trkpt>
      <trkpt lat="42.7664" lon="0.17053">
        <ele>1677</ele>
        <time>2019-02-27T13:27:41Z</time>
      </trkpt>
      <trkpt lat="42.7664" lon="0.17053">
        <ele>1677</ele>
        <time>2019-02-27T13:27:42Z</time>
      </trkpt>
      <trkpt lat="42.7664" lon="0.17053">
        <ele>1676</ele>
        <time>2019-02-27T13:27:43Z</time>
      </trkpt>
      <trkpt lat="42.7664" lon="0.17053">
        <ele>1675</ele>
        <time>2019-02-27T13:27:44Z</time>
      </trkpt>
      <trkpt lat="42.7664" lon="0.17053">
        <ele>1675</ele>
        <time>2019-02-27T13:27:45Z</time>
      </trkpt>
      <trkpt lat="42.7664" lon="0.17053">
        <ele>1676</ele>
        <time>2019-02-27T13:27:46Z</time>
      </trkpt>
      <trkpt lat="42.7664" lon="0.17053">
        <ele>1676</ele>
        <time>2019-02-27T13:27:47Z</time>
      </trkpt>
      <trkpt lat="42.7664" lon="0.17053">
        <ele>1676</ele>
        <time>2019-02-27T13:27:48Z</time>
      </trkpt>
      <trkpt lat="42.7664" lon="0.17053">
        <ele>1676</ele>
        <time>2019-02-27T13:27:49Z</time>
      </trkpt>
      <trkpt lat="42.7664" lon="0.17053">
        <ele>1676</ele>
        <time>2019-02-27T13:27:50Z</time>
      </trkpt>
      <trkpt lat="42.7664" lon="0.17053">
        <ele>1676</ele>
        <time>2019-02-27T13:27:51Z</time>
      </trkpt>
      <trkpt lat="42.7664" lon="0.17053">
        <ele>1676</ele>
        <time>2019-02-27T13:27:52Z</time>
      </trkpt>
      <trkpt lat="42.7664" lon="0.17053">
        <ele>1676</ele>
        <time>2019-02-27T13:27:53Z</time>
      </trkpt>
      <trkpt lat="42.7664" lon="0.17053">
        <ele>1676</ele>
        <time>2019-02-27T13:27:54Z</time>
      </trkpt>
      <trkpt lat="42.7664" lon="0.17053">
        <ele>1676</ele>
        <time>2019-02-27T13:27:55Z</time>
      </trkpt>
      <trkpt lat="42.7664" lon="0.17053">
        <ele>1676</ele>
        <time>2019-02-27T13:27:56Z</time>
      </trkpt>
      <trkpt lat="42.7664" lon="0.17053">
        <ele>1676</ele>
        <time>2019-02-27T13:27:57Z</time>
      </trkpt>
      <trkpt lat="42.7664" lon="0.17053">
        <ele>1676</ele>
        <time>2019-02-27T13:27:58Z</time>
      </trkpt>
      <trkpt lat="42.7664" lon="0.17053">
        <ele>1676</ele>
        <time>2019-02-27T13:27:59Z</time>
      </trkpt>
      <trkpt lat="42.7664" lon="0.17053">
        <ele>1676</ele>
        <time>2019-02-27T13:28:00Z</time>
      </trkpt>
      <trkpt lat="42.7664" lon="0.17053">
        <ele>1676</ele>
        <time>2019-02-27T13:28:01Z</time>
      </trkpt>
      <trkpt lat="42.7664" lon="0.17053">
        <ele>1676</ele>
        <time>2019-02-27T13:28:02Z</time>
      </trkpt>
      <trkpt lat="42.7664" lon="0.17053">
        <ele>1676</ele>
        <time>2019-02-27T13:28:03Z</time>
      </trkpt>
      <trkpt lat="42.7664" lon="0.17053">
        <ele>1676</ele>
        <time>2019-02-27T13:28:04Z</time>
      </trkpt>
      <trkpt lat="42.7664" lon="0.17053">
        <ele>1676</ele>
        <time>2019-02-27T13:28:05Z</time>
      </trkpt>
      <trkpt lat="42.7664" lon="0.17053">
        <ele>1676</ele>
        <time>2019-02-27T13:28:06Z</time>
      </trkpt>
      <trkpt lat="42.7664" lon="0.17053">
        <ele>1676</ele>
        <time>2019-02-27T13:28:07Z</time>
      </trkpt>
      <trkpt lat="42.7664" lon="0.17053">
        <ele>1676</ele>
        <time>2019-02-27T13:28:08Z</time>
      </trkpt>
      <trkpt lat="42.7664" lon="0.17053">
        <ele>1676</ele>
        <time>2019-02-27T13:28:09Z</time>
      </trkpt>
      <trkpt lat="42.7664" lon="0.17053">
        <ele>1676</ele>
        <time>2019-02-27T13:28:10Z</time>
      </trkpt>
      <trkpt lat="42.7664" lon="0.17053">
        <ele>1676</ele>
        <time>2019-02-27T13:28:11Z</time>
      </trkpt>
      <trkpt lat="42.7664" lon="0.17053">
        <ele>1676</ele>
        <time>2019-02-27T13:28:12Z</time>
      </trkpt>
      <trkpt lat="42.7664" lon="0.17053">
        <ele>1676</ele>
        <time>2019-02-27T13:28:13Z</time>
      </trkpt>
      <trkpt lat="42.7664" lon="0.17053">
        <ele>1676</ele>
        <time>2019-02-27T13:28:14Z</time>
      </trkpt>
      <trkpt lat="42.7664" lon="0.17053">
        <ele>1676</ele>
        <time>2019-02-27T13:28:15Z</time>
      </trkpt>
      <trkpt lat="42.7664" lon="0.17053">
        <ele>1676</ele>
        <time>2019-02-27T13:28:16Z</time>
      </trkpt>
      <trkpt lat="42.7664" lon="0.17053">
        <ele>1677</ele>
        <time>2019-02-27T13:28:17Z</time>
      </trkpt>
      <trkpt lat="42.7664" lon="0.17053">
        <ele>1677</ele>
        <time>2019-02-27T13:28:18Z</time>
      </trkpt>
      <trkpt lat="42.7664" lon="0.17053">
        <ele>1677</ele>
        <time>2019-02-27T13:28:19Z</time>
      </trkpt>
      <trkpt lat="42.7664" lon="0.17053">
        <ele>1677</ele>
        <time>2019-02-27T13:28:20Z</time>
      </trkpt>
      <trkpt lat="42.7664" lon="0.17053">
        <ele>1677</ele>
        <time>2019-02-27T13:28:21Z</time>
      </trkpt>
      <trkpt lat="42.7664" lon="0.17053">
        <ele>1677</ele>
        <time>2019-02-27T13:28:22Z</time>
      </trkpt>
      <trkpt lat="42.7664" lon="0.17053">
        <ele>1676</ele>
        <time>2019-02-27T13:28:23Z</time>
      </trkpt>
      <trkpt lat="42.7664" lon="0.17053">
        <ele>1676</ele>
        <time>2019-02-27T13:28:24Z</time>
      </trkpt>
      <trkpt lat="42.7664" lon="0.17053">
        <ele>1676</ele>
        <time>2019-02-27T13:28:25Z</time>
      </trkpt>
      <trkpt lat="42.7664" lon="0.17053">
        <ele>1677</ele>
        <time>2019-02-27T13:28:26Z</time>
      </trkpt>
      <trkpt lat="42.7664" lon="0.17053">
        <ele>1677</ele>
        <time>2019-02-27T13:28:27Z</time>
      </trkpt>
      <trkpt lat="42.7664" lon="0.17053">
        <ele>1677</ele>
        <time>2019-02-27T13:28:28Z</time>
      </trkpt>
      <trkpt lat="42.7664" lon="0.17053">
        <ele>1677</ele>
        <time>2019-02-27T13:28:29Z</time>
      </trkpt>
      <trkpt lat="42.7664" lon="0.17053">
        <ele>1677</ele>
        <time>2019-02-27T13:28:30Z</time>
      </trkpt>
      <trkpt lat="42.7664" lon="0.17053">
        <ele>1677</ele>
        <time>2019-02-27T13:28:31Z</time>
      </trkpt>
      <trkpt lat="42.7664" lon="0.17053">
        <ele>1677</ele>
        <time>2019-02-27T13:28:32Z</time>
      </trkpt>
      <trkpt lat="42.7664" lon="0.17053">
        <ele>1677</ele>
        <time>2019-02-27T13:28:33Z</time>
      </trkpt>
      <trkpt lat="42.7664" lon="0.17053">
        <ele>1677</ele>
        <time>2019-02-27T13:28:34Z</time>
      </trkpt>
      <trkpt lat="42.76642" lon="0.1705">
        <ele>1677</ele>
        <time>2019-02-27T13:28:35Z</time>
      </trkpt>
      <trkpt lat="42.76642" lon="0.1705">
        <ele>1677</ele>
        <time>2019-02-27T13:28:36Z</time>
      </trkpt>
      <trkpt lat="42.76642" lon="0.1705">
        <ele>1677</ele>
        <time>2019-02-27T13:28:37Z</time>
      </trkpt>
      <trkpt lat="42.76642" lon="0.1705">
        <ele>1677</ele>
        <time>2019-02-27T13:28:38Z</time>
      </trkpt>
      <trkpt lat="42.76642" lon="0.1705">
        <ele>1677</ele>
        <time>2019-02-27T13:28:39Z</time>
      </trkpt>
      <trkpt lat="42.76642" lon="0.1705">
        <ele>1677</ele>
        <time>2019-02-27T13:28:40Z</time>
      </trkpt>
      <trkpt lat="42.76642" lon="0.1705">
        <ele>1677</ele>
        <time>2019-02-27T13:28:41Z</time>
      </trkpt>
      <trkpt lat="42.76642" lon="0.1705">
        <ele>1677</ele>
        <time>2019-02-27T13:28:42Z</time>
      </trkpt>
      <trkpt lat="42.76642" lon="0.1705">
        <ele>1677</ele>
        <time>2019-02-27T13:28:43Z</time>
      </trkpt>
      <trkpt lat="42.76642" lon="0.1705">
        <ele>1677</ele>
        <time>2019-02-27T13:28:44Z</time>
      </trkpt>
      <trkpt lat="42.76642" lon="0.1705">
        <ele>1677</ele>
        <time>2019-02-27T13:28:45Z</time>
      </trkpt>
      <trkpt lat="42.76642" lon="0.1705">
        <ele>1677</ele>
        <time>2019-02-27T13:28:46Z</time>
      </trkpt>
      <trkpt lat="42.76642" lon="0.1705">
        <ele>1677</ele>
        <time>2019-02-27T13:28:47Z</time>
      </trkpt>
      <trkpt lat="42.76642" lon="0.1705">
        <ele>1677</ele>
        <time>2019-02-27T13:28:48Z</time>
      </trkpt>
      <trkpt lat="42.76642" lon="0.1705">
        <ele>1677</ele>
        <time>2019-02-27T13:28:49Z</time>
      </trkpt>
      <trkpt lat="42.76642" lon="0.1705">
        <ele>1677</ele>
        <time>2019-02-27T13:28:50Z</time>
      </trkpt>
      <trkpt lat="42.76642" lon="0.1705">
        <ele>1677</ele>
        <time>2019-02-27T13:28:51Z</time>
      </trkpt>
      <trkpt lat="42.76642" lon="0.1705">
        <ele>1677</ele>
        <time>2019-02-27T13:28:52Z</time>
      </trkpt>
      <trkpt lat="42.76642" lon="0.1705">
        <ele>1677</ele>
        <time>2019-02-27T13:28:53Z</time>
      </trkpt>
      <trkpt lat="42.76642" lon="0.1705">
        <ele>1677</ele>
        <time>2019-02-27T13:28:54Z</time>
      </trkpt>
      <trkpt lat="42.76642" lon="0.1705">
        <ele>1677</ele>
        <time>2019-02-27T13:28:55Z</time>
      </trkpt>
      <trkpt lat="42.76642" lon="0.1705">
        <ele>1677</ele>
        <time>2019-02-27T13:28:56Z</time>
      </trkpt>
      <trkpt lat="42.76642" lon="0.1705">
        <ele>1677</ele>
        <time>2019-02-27T13:28:57Z</time>
      </trkpt>
      <trkpt lat="42.76642" lon="0.1705">
        <ele>1677</ele>
        <time>2019-02-27T13:28:58Z</time>
      </trkpt>
      <trkpt lat="42.76642" lon="0.1705">
        <ele>1677</ele>
        <time>2019-02-27T13:28:59Z</time>
      </trkpt>
      <trkpt lat="42.76642" lon="0.1705">
        <ele>1677</ele>
        <time>2019-02-27T13:29:00Z</time>
      </trkpt>
      <trkpt lat="42.76642" lon="0.1705">
        <ele>1677</ele>
        <time>2019-02-27T13:29:01Z</time>
      </trkpt>
      <trkpt lat="42.76642" lon="0.1705">
        <ele>1677</ele>
        <time>2019-02-27T13:29:02Z</time>
      </trkpt>
      <trkpt lat="42.76642" lon="0.1705">
        <ele>1677</ele>
        <time>2019-02-27T13:29:03Z</time>
      </trkpt>
      <trkpt lat="42.76642" lon="0.1705">
        <ele>1677</ele>
        <time>2019-02-27T13:29:04Z</time>
      </trkpt>
      <trkpt lat="42.76642" lon="0.1705">
        <ele>1676</ele>
        <time>2019-02-27T13:29:05Z</time>
      </trkpt>
      <trkpt lat="42.76642" lon="0.1705">
        <ele>1676</ele>
        <time>2019-02-27T13:29:06Z</time>
      </trkpt>
      <trkpt lat="42.76642" lon="0.1705">
        <ele>1677</ele>
        <time>2019-02-27T13:29:07Z</time>
      </trkpt>
      <trkpt lat="42.76642" lon="0.1705">
        <ele>1677</ele>
        <time>2019-02-27T13:29:08Z</time>
      </trkpt>
      <trkpt lat="42.76642" lon="0.1705">
        <ele>1677</ele>
        <time>2019-02-27T13:29:09Z</time>
      </trkpt>
      <trkpt lat="42.76642" lon="0.1705">
        <ele>1677</ele>
        <time>2019-02-27T13:29:10Z</time>
      </trkpt>
      <trkpt lat="42.76642" lon="0.1705">
        <ele>1677</ele>
        <time>2019-02-27T13:29:11Z</time>
      </trkpt>
      <trkpt lat="42.76642" lon="0.1705">
        <ele>1677</ele>
        <time>2019-02-27T13:29:12Z</time>
      </trkpt>
      <trkpt lat="42.76642" lon="0.1705">
        <ele>1677</ele>
        <time>2019-02-27T13:29:13Z</time>
      </trkpt>
      <trkpt lat="42.76642" lon="0.1705">
        <ele>1677</ele>
        <time>2019-02-27T13:29:14Z</time>
      </trkpt>
      <trkpt lat="42.76642" lon="0.1705">
        <ele>1677</ele>
        <time>2019-02-27T13:29:15Z</time>
      </trkpt>
      <trkpt lat="42.76642" lon="0.1705">
        <ele>1677</ele>
        <time>2019-02-27T13:29:16Z</time>
      </trkpt>
      <trkpt lat="42.76642" lon="0.1705">
        <ele>1677</ele>
        <time>2019-02-27T13:29:17Z</time>
      </trkpt>
      <trkpt lat="42.76642" lon="0.1705">
        <ele>1677</ele>
        <time>2019-02-27T13:29:18Z</time>
      </trkpt>
      <trkpt lat="42.76642" lon="0.1705">
        <ele>1677</ele>
        <time>2019-02-27T13:29:19Z</time>
      </trkpt>
      <trkpt lat="42.76642" lon="0.1705">
        <ele>1677</ele>
        <time>2019-02-27T13:29:20Z</time>
      </trkpt>
      <trkpt lat="42.76642" lon="0.1705">
        <ele>1677</ele>
        <time>2019-02-27T13:29:21Z</time>
      </trkpt>
      <trkpt lat="42.76642" lon="0.1705">
        <ele>1677</ele>
        <time>2019-02-27T13:29:22Z</time>
      </trkpt>
      <trkpt lat="42.76642" lon="0.1705">
        <ele>1677</ele>
        <time>2019-02-27T13:29:23Z</time>
      </trkpt>
      <trkpt lat="42.76642" lon="0.1705">
        <ele>1677</ele>
        <time>2019-02-27T13:29:24Z</time>
      </trkpt>
      <trkpt lat="42.76642" lon="0.1705">
        <ele>1677</ele>
        <time>2019-02-27T13:29:25Z</time>
      </trkpt>
      <trkpt lat="42.76642" lon="0.1705">
        <ele>1677</ele>
        <time>2019-02-27T13:29:26Z</time>
      </trkpt>
      <trkpt lat="42.76642" lon="0.1705">
        <ele>1677</ele>
        <time>2019-02-27T13:29:27Z</time>
      </trkpt>
      <trkpt lat="42.76642" lon="0.1705">
        <ele>1677</ele>
        <time>2019-02-27T13:29:28Z</time>
      </trkpt>
      <trkpt lat="42.76642" lon="0.1705">
        <ele>1677</ele>
        <time>2019-02-27T13:29:29Z</time>
      </trkpt>
      <trkpt lat="42.76642" lon="0.1705">
        <ele>1677</ele>
        <time>2019-02-27T13:29:30Z</time>
      </trkpt>
      <trkpt lat="42.76642" lon="0.1705">
        <ele>1677</ele>
        <time>2019-02-27T13:29:31Z</time>
      </trkpt>
      <trkpt lat="42.76642" lon="0.1705">
        <ele>1677</ele>
        <time>2019-02-27T13:29:32Z</time>
      </trkpt>
      <trkpt lat="42.76642" lon="0.1705">
        <ele>1677</ele>
        <time>2019-02-27T13:29:33Z</time>
      </trkpt>
      <trkpt lat="42.76642" lon="0.1705">
        <ele>1677</ele>
        <time>2019-02-27T13:29:34Z</time>
      </trkpt>
      <trkpt lat="42.76642" lon="0.1705">
        <ele>1677</ele>
        <time>2019-02-27T13:29:35Z</time>
      </trkpt>
      <trkpt lat="42.76642" lon="0.1705">
        <ele>1677</ele>
        <time>2019-02-27T13:29:36Z</time>
      </trkpt>
      <trkpt lat="42.76642" lon="0.1705">
        <ele>1677</ele>
        <time>2019-02-27T13:29:37Z</time>
      </trkpt>
      <trkpt lat="42.76642" lon="0.1705">
        <ele>1677</ele>
        <time>2019-02-27T13:29:38Z</time>
      </trkpt>
      <trkpt lat="42.76642" lon="0.1705">
        <ele>1677</ele>
        <time>2019-02-27T13:29:39Z</time>
      </trkpt>
      <trkpt lat="42.76642" lon="0.1705">
        <ele>1677</ele>
        <time>2019-02-27T13:29:40Z</time>
      </trkpt>
      <trkpt lat="42.76642" lon="0.1705">
        <ele>1677</ele>
        <time>2019-02-27T13:29:41Z</time>
      </trkpt>
      <trkpt lat="42.76642" lon="0.1705">
        <ele>1677</ele>
        <time>2019-02-27T13:29:42Z</time>
      </trkpt>
      <trkpt lat="42.76642" lon="0.1705">
        <ele>1677</ele>
        <time>2019-02-27T13:29:43Z</time>
      </trkpt>
      <trkpt lat="42.76642" lon="0.1705">
        <ele>1677</ele>
        <time>2019-02-27T13:29:44Z</time>
      </trkpt>
      <trkpt lat="42.76642" lon="0.1705">
        <ele>1677</ele>
        <time>2019-02-27T13:29:45Z</time>
      </trkpt>
      <trkpt lat="42.76642" lon="0.1705">
        <ele>1677</ele>
        <time>2019-02-27T13:29:46Z</time>
      </trkpt>
      <trkpt lat="42.76642" lon="0.1705">
        <ele>1677</ele>
        <time>2019-02-27T13:29:47Z</time>
      </trkpt>
      <trkpt lat="42.76642" lon="0.1705">
        <ele>1677</ele>
        <time>2019-02-27T13:29:48Z</time>
      </trkpt>
      <trkpt lat="42.76642" lon="0.1705">
        <ele>1677</ele>
        <time>2019-02-27T13:29:49Z</time>
      </trkpt>
      <trkpt lat="42.76642" lon="0.1705">
        <ele>1678</ele>
        <time>2019-02-27T13:29:50Z</time>
      </trkpt>
      <trkpt lat="42.76642" lon="0.1705">
        <ele>1678</ele>
        <time>2019-02-27T13:29:51Z</time>
      </trkpt>
      <trkpt lat="42.76642" lon="0.1705">
        <ele>1678</ele>
        <time>2019-02-27T13:29:52Z</time>
      </trkpt>
      <trkpt lat="42.76642" lon="0.1705">
        <ele>1678</ele>
        <time>2019-02-27T13:29:53Z</time>
      </trkpt>
      <trkpt lat="42.76642" lon="0.1705">
        <ele>1678</ele>
        <time>2019-02-27T13:29:54Z</time>
      </trkpt>
      <trkpt lat="42.76642" lon="0.1705">
        <ele>1678</ele>
        <time>2019-02-27T13:29:55Z</time>
      </trkpt>
      <trkpt lat="42.76642" lon="0.1705">
        <ele>1678</ele>
        <time>2019-02-27T13:29:56Z</time>
      </trkpt>
      <trkpt lat="42.76637" lon="0.17061">
        <ele>1678</ele>
        <time>2019-02-27T13:29:57Z</time>
      </trkpt>
      <trkpt lat="42.76637" lon="0.17061">
        <ele>1678</ele>
        <time>2019-02-27T13:29:58Z</time>
      </trkpt>
      <trkpt lat="42.76637" lon="0.17061">
        <ele>1678</ele>
        <time>2019-02-27T13:29:59Z</time>
      </trkpt>
      <trkpt lat="42.76637" lon="0.17061">
        <ele>1678</ele>
        <time>2019-02-27T13:30:00Z</time>
      </trkpt>
      <trkpt lat="42.76637" lon="0.17061">
        <ele>1678</ele>
        <time>2019-02-27T13:30:01Z</time>
      </trkpt>
      <trkpt lat="42.76637" lon="0.17061">
        <ele>1678</ele>
        <time>2019-02-27T13:30:02Z</time>
      </trkpt>
      <trkpt lat="42.76637" lon="0.17061">
        <ele>1678</ele>
        <time>2019-02-27T13:30:03Z</time>
      </trkpt>
      <trkpt lat="42.76637" lon="0.17061">
        <ele>1678</ele>
        <time>2019-02-27T13:30:04Z</time>
      </trkpt>
      <trkpt lat="42.76637" lon="0.17061">
        <ele>1678</ele>
        <time>2019-02-27T13:30:05Z</time>
      </trkpt>
      <trkpt lat="42.76637" lon="0.17061">
        <ele>1678</ele>
        <time>2019-02-27T13:30:06Z</time>
      </trkpt>
      <trkpt lat="42.76637" lon="0.17061">
        <ele>1678</ele>
        <time>2019-02-27T13:30:07Z</time>
      </trkpt>
      <trkpt lat="42.76637" lon="0.17061">
        <ele>1678</ele>
        <time>2019-02-27T13:30:08Z</time>
      </trkpt>
      <trkpt lat="42.76637" lon="0.17061">
        <ele>1678</ele>
        <time>2019-02-27T13:30:09Z</time>
      </trkpt>
      <trkpt lat="42.76637" lon="0.17061">
        <ele>1678</ele>
        <time>2019-02-27T13:30:10Z</time>
      </trkpt>
      <trkpt lat="42.76637" lon="0.17061">
        <ele>1679</ele>
        <time>2019-02-27T13:30:11Z</time>
      </trkpt>
      <trkpt lat="42.76637" lon="0.17061">
        <ele>1679</ele>
        <time>2019-02-27T13:30:12Z</time>
      </trkpt>
      <trkpt lat="42.76637" lon="0.17061">
        <ele>1679</ele>
        <time>2019-02-27T13:30:13Z</time>
      </trkpt>
      <trkpt lat="42.76637" lon="0.17061">
        <ele>1678</ele>
        <time>2019-02-27T13:30:14Z</time>
      </trkpt>
      <trkpt lat="42.76637" lon="0.17061">
        <ele>1678</ele>
        <time>2019-02-27T13:30:15Z</time>
      </trkpt>
      <trkpt lat="42.76637" lon="0.17061">
        <ele>1678</ele>
        <time>2019-02-27T13:30:16Z</time>
      </trkpt>
      <trkpt lat="42.76637" lon="0.17061">
        <ele>1678</ele>
        <time>2019-02-27T13:30:17Z</time>
      </trkpt>
      <trkpt lat="42.76637" lon="0.17061">
        <ele>1678</ele>
        <time>2019-02-27T13:30:18Z</time>
      </trkpt>
      <trkpt lat="42.76637" lon="0.17061">
        <ele>1678</ele>
        <time>2019-02-27T13:30:19Z</time>
      </trkpt>
      <trkpt lat="42.76637" lon="0.17061">
        <ele>1678</ele>
        <time>2019-02-27T13:30:20Z</time>
      </trkpt>
      <trkpt lat="42.76637" lon="0.17061">
        <ele>1678</ele>
        <time>2019-02-27T13:30:21Z</time>
      </trkpt>
      <trkpt lat="42.76637" lon="0.17061">
        <ele>1678</ele>
        <time>2019-02-27T13:30:22Z</time>
      </trkpt>
      <trkpt lat="42.76637" lon="0.17061">
        <ele>1678</ele>
        <time>2019-02-27T13:30:23Z</time>
      </trkpt>
      <trkpt lat="42.76637" lon="0.17061">
        <ele>1678</ele>
        <time>2019-02-27T13:30:24Z</time>
      </trkpt>
      <trkpt lat="42.76637" lon="0.17061">
        <ele>1678</ele>
        <time>2019-02-27T13:30:25Z</time>
      </trkpt>
      <trkpt lat="42.76637" lon="0.17061">
        <ele>1678</ele>
        <time>2019-02-27T13:30:26Z</time>
      </trkpt>
      <trkpt lat="42.76637" lon="0.17061">
        <ele>1678</ele>
        <time>2019-02-27T13:30:27Z</time>
      </trkpt>
      <trkpt lat="42.76637" lon="0.17061">
        <ele>1678</ele>
        <time>2019-02-27T13:30:28Z</time>
      </trkpt>
      <trkpt lat="42.76633" lon="0.17073">
        <ele>1679</ele>
        <time>2019-02-27T13:30:29Z</time>
      </trkpt>
      <trkpt lat="42.76633" lon="0.17073">
        <ele>1679</ele>
        <time>2019-02-27T13:30:30Z</time>
      </trkpt>
      <trkpt lat="42.76633" lon="0.17073">
        <ele>1679</ele>
        <time>2019-02-27T13:30:31Z</time>
      </trkpt>
      <trkpt lat="42.76633" lon="0.17073">
        <ele>1679</ele>
        <time>2019-02-27T13:30:32Z</time>
      </trkpt>
      <trkpt lat="42.76633" lon="0.17073">
        <ele>1679</ele>
        <time>2019-02-27T13:30:33Z</time>
      </trkpt>
      <trkpt lat="42.76633" lon="0.17073">
        <ele>1679</ele>
        <time>2019-02-27T13:30:34Z</time>
      </trkpt>
      <trkpt lat="42.76633" lon="0.17073">
        <ele>1679</ele>
        <time>2019-02-27T13:30:35Z</time>
      </trkpt>
      <trkpt lat="42.76633" lon="0.17073">
        <ele>1679</ele>
        <time>2019-02-27T13:30:36Z</time>
      </trkpt>
      <trkpt lat="42.76633" lon="0.17073">
        <ele>1679</ele>
        <time>2019-02-27T13:30:37Z</time>
      </trkpt>
      <trkpt lat="42.76633" lon="0.17073">
        <ele>1679</ele>
        <time>2019-02-27T13:30:38Z</time>
      </trkpt>
      <trkpt lat="42.76633" lon="0.17073">
        <ele>1679</ele>
        <time>2019-02-27T13:30:39Z</time>
      </trkpt>
      <trkpt lat="42.76633" lon="0.17073">
        <ele>1679</ele>
        <time>2019-02-27T13:30:40Z</time>
      </trkpt>
      <trkpt lat="42.76634" lon="0.17085">
        <ele>1679</ele>
        <time>2019-02-27T13:30:41Z</time>
      </trkpt>
      <trkpt lat="42.76634" lon="0.17085">
        <ele>1679</ele>
        <time>2019-02-27T13:30:42Z</time>
      </trkpt>
      <trkpt lat="42.76634" lon="0.17085">
        <ele>1679</ele>
        <time>2019-02-27T13:30:43Z</time>
      </trkpt>
      <trkpt lat="42.76634" lon="0.17085">
        <ele>1679</ele>
        <time>2019-02-27T13:30:44Z</time>
      </trkpt>
      <trkpt lat="42.76634" lon="0.17085">
        <ele>1679</ele>
        <time>2019-02-27T13:30:45Z</time>
      </trkpt>
      <trkpt lat="42.76634" lon="0.17085">
        <ele>1678</ele>
        <time>2019-02-27T13:30:46Z</time>
      </trkpt>
      <trkpt lat="42.76643" lon="0.1708">
        <ele>1678</ele>
        <time>2019-02-27T13:30:47Z</time>
      </trkpt>
      <trkpt lat="42.76643" lon="0.1708">
        <ele>1678</ele>
        <time>2019-02-27T13:30:48Z</time>
      </trkpt>
      <trkpt lat="42.76643" lon="0.1708">
        <ele>1678</ele>
        <time>2019-02-27T13:30:49Z</time>
      </trkpt>
      <trkpt lat="42.76643" lon="0.1708">
        <ele>1677</ele>
        <time>2019-02-27T13:30:50Z</time>
      </trkpt>
      <trkpt lat="42.76643" lon="0.1708">
        <ele>1677</ele>
        <time>2019-02-27T13:30:51Z</time>
      </trkpt>
      <trkpt lat="42.76643" lon="0.1708">
        <ele>1677</ele>
        <time>2019-02-27T13:30:52Z</time>
      </trkpt>
      <trkpt lat="42.76643" lon="0.1708">
        <ele>1677</ele>
        <time>2019-02-27T13:30:53Z</time>
      </trkpt>
      <trkpt lat="42.76643" lon="0.1708">
        <ele>1677</ele>
        <time>2019-02-27T13:30:54Z</time>
      </trkpt>
      <trkpt lat="42.76643" lon="0.1708">
        <ele>1677</ele>
        <time>2019-02-27T13:30:55Z</time>
      </trkpt>
      <trkpt lat="42.76643" lon="0.1708">
        <ele>1677</ele>
        <time>2019-02-27T13:30:56Z</time>
      </trkpt>
      <trkpt lat="42.76643" lon="0.1708">
        <ele>1677</ele>
        <time>2019-02-27T13:30:57Z</time>
      </trkpt>
      <trkpt lat="42.76643" lon="0.1708">
        <ele>1676</ele>
        <time>2019-02-27T13:30:58Z</time>
      </trkpt>
      <trkpt lat="42.76643" lon="0.1708">
        <ele>1676</ele>
        <time>2019-02-27T13:30:59Z</time>
      </trkpt>
      <trkpt lat="42.76643" lon="0.1708">
        <ele>1676</ele>
        <time>2019-02-27T13:31:00Z</time>
      </trkpt>
      <trkpt lat="42.76643" lon="0.1708">
        <ele>1676</ele>
        <time>2019-02-27T13:31:01Z</time>
      </trkpt>
      <trkpt lat="42.76643" lon="0.1708">
        <ele>1676</ele>
        <time>2019-02-27T13:31:02Z</time>
      </trkpt>
      <trkpt lat="42.76643" lon="0.1708">
        <ele>1676</ele>
        <time>2019-02-27T13:31:03Z</time>
      </trkpt>
      <trkpt lat="42.76643" lon="0.1708">
        <ele>1676</ele>
        <time>2019-02-27T13:31:04Z</time>
      </trkpt>
      <trkpt lat="42.76652" lon="0.17085">
        <ele>1676</ele>
        <time>2019-02-27T13:31:05Z</time>
      </trkpt>
      <trkpt lat="42.76652" lon="0.17085">
        <ele>1676</ele>
        <time>2019-02-27T13:31:06Z</time>
      </trkpt>
      <trkpt lat="42.76652" lon="0.17085">
        <ele>1676</ele>
        <time>2019-02-27T13:31:07Z</time>
      </trkpt>
      <trkpt lat="42.76652" lon="0.17085">
        <ele>1676</ele>
        <time>2019-02-27T13:31:08Z</time>
      </trkpt>
      <trkpt lat="42.76652" lon="0.17085">
        <ele>1676</ele>
        <time>2019-02-27T13:31:09Z</time>
      </trkpt>
      <trkpt lat="42.76652" lon="0.17085">
        <ele>1676</ele>
        <time>2019-02-27T13:31:10Z</time>
      </trkpt>
      <trkpt lat="42.76652" lon="0.17085">
        <ele>1675</ele>
        <time>2019-02-27T13:31:11Z</time>
      </trkpt>
      <trkpt lat="42.76652" lon="0.17085">
        <ele>1675</ele>
        <time>2019-02-27T13:31:12Z</time>
      </trkpt>
      <trkpt lat="42.76652" lon="0.17085">
        <ele>1675</ele>
        <time>2019-02-27T13:31:13Z</time>
      </trkpt>
      <trkpt lat="42.76652" lon="0.17085">
        <ele>1675</ele>
        <time>2019-02-27T13:31:14Z</time>
      </trkpt>
      <trkpt lat="42.76662" lon="0.17083">
        <ele>1674</ele>
        <time>2019-02-27T13:31:15Z</time>
      </trkpt>
      <trkpt lat="42.76662" lon="0.17083">
        <ele>1674</ele>
        <time>2019-02-27T13:31:16Z</time>
      </trkpt>
      <trkpt lat="42.76662" lon="0.17083">
        <ele>1674</ele>
        <time>2019-02-27T13:31:17Z</time>
      </trkpt>
      <trkpt lat="42.76662" lon="0.17083">
        <ele>1674</ele>
        <time>2019-02-27T13:31:18Z</time>
      </trkpt>
      <trkpt lat="42.76662" lon="0.17083">
        <ele>1674</ele>
        <time>2019-02-27T13:31:19Z</time>
      </trkpt>
      <trkpt lat="42.76662" lon="0.17083">
        <ele>1673</ele>
        <time>2019-02-27T13:31:20Z</time>
      </trkpt>
      <trkpt lat="42.76662" lon="0.17083">
        <ele>1673</ele>
        <time>2019-02-27T13:31:21Z</time>
      </trkpt>
      <trkpt lat="42.76662" lon="0.17083">
        <ele>1673</ele>
        <time>2019-02-27T13:31:22Z</time>
      </trkpt>
      <trkpt lat="42.76667" lon="0.17092">
        <ele>1673</ele>
        <time>2019-02-27T13:31:23Z</time>
      </trkpt>
      <trkpt lat="42.76667" lon="0.17092">
        <ele>1673</ele>
        <time>2019-02-27T13:31:24Z</time>
      </trkpt>
      <trkpt lat="42.76667" lon="0.17092">
        <ele>1673</ele>
        <time>2019-02-27T13:31:25Z</time>
      </trkpt>
      <trkpt lat="42.76667" lon="0.17092">
        <ele>1673</ele>
        <time>2019-02-27T13:31:26Z</time>
      </trkpt>
      <trkpt lat="42.76667" lon="0.17092">
        <ele>1673</ele>
        <time>2019-02-27T13:31:27Z</time>
      </trkpt>
      <trkpt lat="42.76667" lon="0.17092">
        <ele>1673</ele>
        <time>2019-02-27T13:31:28Z</time>
      </trkpt>
      <trkpt lat="42.76667" lon="0.17092">
        <ele>1673</ele>
        <time>2019-02-27T13:31:29Z</time>
      </trkpt>
      <trkpt lat="42.76667" lon="0.17092">
        <ele>1673</ele>
        <time>2019-02-27T13:31:30Z</time>
      </trkpt>
      <trkpt lat="42.76667" lon="0.17092">
        <ele>1673</ele>
        <time>2019-02-27T13:31:31Z</time>
      </trkpt>
      <trkpt lat="42.76667" lon="0.17092">
        <ele>1673</ele>
        <time>2019-02-27T13:31:32Z</time>
      </trkpt>
      <trkpt lat="42.76667" lon="0.17092">
        <ele>1673</ele>
        <time>2019-02-27T13:31:33Z</time>
      </trkpt>
      <trkpt lat="42.76667" lon="0.17092">
        <ele>1672</ele>
        <time>2019-02-27T13:31:34Z</time>
      </trkpt>
      <trkpt lat="42.76672" lon="0.17103">
        <ele>1672</ele>
        <time>2019-02-27T13:31:35Z</time>
      </trkpt>
      <trkpt lat="42.76672" lon="0.17103">
        <ele>1672</ele>
        <time>2019-02-27T13:31:36Z</time>
      </trkpt>
      <trkpt lat="42.76672" lon="0.17103">
        <ele>1671</ele>
        <time>2019-02-27T13:31:37Z</time>
      </trkpt>
      <trkpt lat="42.76672" lon="0.17103">
        <ele>1671</ele>
        <time>2019-02-27T13:31:38Z</time>
      </trkpt>
      <trkpt lat="42.76672" lon="0.17103">
        <ele>1671</ele>
        <time>2019-02-27T13:31:39Z</time>
      </trkpt>
      <trkpt lat="42.76672" lon="0.17103">
        <ele>1671</ele>
        <time>2019-02-27T13:31:40Z</time>
      </trkpt>
      <trkpt lat="42.76672" lon="0.17103">
        <ele>1671</ele>
        <time>2019-02-27T13:31:41Z</time>
      </trkpt>
      <trkpt lat="42.76672" lon="0.17103">
        <ele>1671</ele>
        <time>2019-02-27T13:31:42Z</time>
      </trkpt>
      <trkpt lat="42.76673" lon="0.17115">
        <ele>1671</ele>
        <time>2019-02-27T13:31:43Z</time>
      </trkpt>
      <trkpt lat="42.76673" lon="0.17115">
        <ele>1671</ele>
        <time>2019-02-27T13:31:44Z</time>
      </trkpt>
      <trkpt lat="42.76673" lon="0.17115">
        <ele>1671</ele>
        <time>2019-02-27T13:31:45Z</time>
      </trkpt>
      <trkpt lat="42.76673" lon="0.17115">
        <ele>1671</ele>
        <time>2019-02-27T13:31:46Z</time>
      </trkpt>
      <trkpt lat="42.76673" lon="0.17115">
        <ele>1671</ele>
        <time>2019-02-27T13:31:47Z</time>
      </trkpt>
      <trkpt lat="42.76673" lon="0.17115">
        <ele>1671</ele>
        <time>2019-02-27T13:31:48Z</time>
      </trkpt>
      <trkpt lat="42.76673" lon="0.17115">
        <ele>1671</ele>
        <time>2019-02-27T13:31:49Z</time>
      </trkpt>
      <trkpt lat="42.76673" lon="0.17115">
        <ele>1671</ele>
        <time>2019-02-27T13:31:50Z</time>
      </trkpt>
      <trkpt lat="42.76673" lon="0.17115">
        <ele>1671</ele>
        <time>2019-02-27T13:31:51Z</time>
      </trkpt>
      <trkpt lat="42.76673" lon="0.17115">
        <ele>1671</ele>
        <time>2019-02-27T13:31:52Z</time>
      </trkpt>
      <trkpt lat="42.76673" lon="0.17115">
        <ele>1671</ele>
        <time>2019-02-27T13:31:53Z</time>
      </trkpt>
      <trkpt lat="42.76673" lon="0.17115">
        <ele>1670</ele>
        <time>2019-02-27T13:31:54Z</time>
      </trkpt>
      <trkpt lat="42.76673" lon="0.17115">
        <ele>1670</ele>
        <time>2019-02-27T13:31:55Z</time>
      </trkpt>
      <trkpt lat="42.76673" lon="0.17115">
        <ele>1670</ele>
        <time>2019-02-27T13:31:56Z</time>
      </trkpt>
      <trkpt lat="42.76673" lon="0.17115">
        <ele>1670</ele>
        <time>2019-02-27T13:31:57Z</time>
      </trkpt>
      <trkpt lat="42.76673" lon="0.17115">
        <ele>1670</ele>
        <time>2019-02-27T13:31:58Z</time>
      </trkpt>
      <trkpt lat="42.76673" lon="0.17115">
        <ele>1670</ele>
        <time>2019-02-27T13:31:59Z</time>
      </trkpt>
      <trkpt lat="42.76673" lon="0.17115">
        <ele>1670</ele>
        <time>2019-02-27T13:32:00Z</time>
      </trkpt>
      <trkpt lat="42.76673" lon="0.17115">
        <ele>1670</ele>
        <time>2019-02-27T13:32:01Z</time>
      </trkpt>
      <trkpt lat="42.76673" lon="0.17115">
        <ele>1670</ele>
        <time>2019-02-27T13:32:02Z</time>
      </trkpt>
      <trkpt lat="42.76684" lon="0.17114">
        <ele>1669</ele>
        <time>2019-02-27T13:32:03Z</time>
      </trkpt>
      <trkpt lat="42.76684" lon="0.17114">
        <ele>1669</ele>
        <time>2019-02-27T13:32:04Z</time>
      </trkpt>
      <trkpt lat="42.76684" lon="0.17114">
        <ele>1669</ele>
        <time>2019-02-27T13:32:05Z</time>
      </trkpt>
      <trkpt lat="42.76684" lon="0.17114">
        <ele>1669</ele>
        <time>2019-02-27T13:32:06Z</time>
      </trkpt>
      <trkpt lat="42.76684" lon="0.17114">
        <ele>1669</ele>
        <time>2019-02-27T13:32:07Z</time>
      </trkpt>
      <trkpt lat="42.76684" lon="0.17114">
        <ele>1669</ele>
        <time>2019-02-27T13:32:08Z</time>
      </trkpt>
      <trkpt lat="42.76684" lon="0.17114">
        <ele>1669</ele>
        <time>2019-02-27T13:32:09Z</time>
      </trkpt>
      <trkpt lat="42.76684" lon="0.17114">
        <ele>1669</ele>
        <time>2019-02-27T13:32:10Z</time>
      </trkpt>
      <trkpt lat="42.76684" lon="0.17114">
        <ele>1669</ele>
        <time>2019-02-27T13:32:11Z</time>
      </trkpt>
      <trkpt lat="42.76692" lon="0.17109">
        <ele>1669</ele>
        <time>2019-02-27T13:32:12Z</time>
      </trkpt>
      <trkpt lat="42.76692" lon="0.17109">
        <ele>1670</ele>
        <time>2019-02-27T13:32:13Z</time>
      </trkpt>
      <trkpt lat="42.76692" lon="0.17109">
        <ele>1670</ele>
        <time>2019-02-27T13:32:14Z</time>
      </trkpt>
      <trkpt lat="42.76692" lon="0.17108">
        <ele>1670</ele>
        <time>2019-02-27T13:32:15Z</time>
      </trkpt>
      <trkpt lat="42.76692" lon="0.17108">
        <ele>1670</ele>
        <time>2019-02-27T13:32:16Z</time>
      </trkpt>
      <trkpt lat="42.76692" lon="0.17108">
        <ele>1669</ele>
        <time>2019-02-27T13:32:17Z</time>
      </trkpt>
      <trkpt lat="42.76692" lon="0.17108">
        <ele>1670</ele>
        <time>2019-02-27T13:32:18Z</time>
      </trkpt>
      <trkpt lat="42.76692" lon="0.17108">
        <ele>1670</ele>
        <time>2019-02-27T13:32:19Z</time>
      </trkpt>
      <trkpt lat="42.76693" lon="0.17108">
        <ele>1670</ele>
        <time>2019-02-27T13:32:20Z</time>
      </trkpt>
      <trkpt lat="42.76693" lon="0.17108">
        <ele>1671</ele>
        <time>2019-02-27T13:32:21Z</time>
      </trkpt>
      <trkpt lat="42.76693" lon="0.17108">
        <ele>1671</ele>
        <time>2019-02-27T13:32:22Z</time>
      </trkpt>
      <trkpt lat="42.76693" lon="0.17108">
        <ele>1671</ele>
        <time>2019-02-27T13:32:23Z</time>
      </trkpt>
      <trkpt lat="42.76693" lon="0.17108">
        <ele>1671</ele>
        <time>2019-02-27T13:32:24Z</time>
      </trkpt>
      <trkpt lat="42.76693" lon="0.17108">
        <ele>1671</ele>
        <time>2019-02-27T13:32:25Z</time>
      </trkpt>
      <trkpt lat="42.76693" lon="0.17108">
        <ele>1671</ele>
        <time>2019-02-27T13:32:26Z</time>
      </trkpt>
      <trkpt lat="42.76693" lon="0.17108">
        <ele>1671</ele>
        <time>2019-02-27T13:32:27Z</time>
      </trkpt>
      <trkpt lat="42.76693" lon="0.17108">
        <ele>1671</ele>
        <time>2019-02-27T13:32:28Z</time>
      </trkpt>
      <trkpt lat="42.76693" lon="0.17108">
        <ele>1671</ele>
        <time>2019-02-27T13:32:29Z</time>
      </trkpt>
      <trkpt lat="42.76693" lon="0.17108">
        <ele>1671</ele>
        <time>2019-02-27T13:32:30Z</time>
      </trkpt>
      <trkpt lat="42.76693" lon="0.17108">
        <ele>1671</ele>
        <time>2019-02-27T13:32:31Z</time>
      </trkpt>
      <trkpt lat="42.76693" lon="0.17108">
        <ele>1671</ele>
        <time>2019-02-27T13:32:32Z</time>
      </trkpt>
      <trkpt lat="42.76693" lon="0.17108">
        <ele>1670</ele>
        <time>2019-02-27T13:32:33Z</time>
      </trkpt>
      <trkpt lat="42.76693" lon="0.17108">
        <ele>1671</ele>
        <time>2019-02-27T13:32:34Z</time>
      </trkpt>
      <trkpt lat="42.76693" lon="0.17108">
        <ele>1671</ele>
        <time>2019-02-27T13:32:35Z</time>
      </trkpt>
      <trkpt lat="42.76693" lon="0.17108">
        <ele>1671</ele>
        <time>2019-02-27T13:32:36Z</time>
      </trkpt>
      <trkpt lat="42.76693" lon="0.17108">
        <ele>1671</ele>
        <time>2019-02-27T13:32:37Z</time>
      </trkpt>
      <trkpt lat="42.76693" lon="0.17108">
        <ele>1671</ele>
        <time>2019-02-27T13:32:38Z</time>
      </trkpt>
      <trkpt lat="42.76693" lon="0.17108">
        <ele>1671</ele>
        <time>2019-02-27T13:32:39Z</time>
      </trkpt>
      <trkpt lat="42.76693" lon="0.17107">
        <ele>1671</ele>
        <time>2019-02-27T13:32:40Z</time>
      </trkpt>
      <trkpt lat="42.76693" lon="0.17107">
        <ele>1670</ele>
        <time>2019-02-27T13:32:41Z</time>
      </trkpt>
      <trkpt lat="42.76693" lon="0.17107">
        <ele>1670</ele>
        <time>2019-02-27T13:32:42Z</time>
      </trkpt>
      <trkpt lat="42.76693" lon="0.17107">
        <ele>1670</ele>
        <time>2019-02-27T13:32:43Z</time>
      </trkpt>
      <trkpt lat="42.76694" lon="0.17107">
        <ele>1670</ele>
        <time>2019-02-27T13:32:44Z</time>
      </trkpt>
      <trkpt lat="42.76694" lon="0.17107">
        <ele>1670</ele>
        <time>2019-02-27T13:32:45Z</time>
      </trkpt>
      <trkpt lat="42.76694" lon="0.17107">
        <ele>1670</ele>
        <time>2019-02-27T13:32:46Z</time>
      </trkpt>
      <trkpt lat="42.76694" lon="0.17107">
        <ele>1670</ele>
        <time>2019-02-27T13:32:47Z</time>
      </trkpt>
      <trkpt lat="42.76694" lon="0.17107">
        <ele>1670</ele>
        <time>2019-02-27T13:32:48Z</time>
      </trkpt>
      <trkpt lat="42.76694" lon="0.17107">
        <ele>1670</ele>
        <time>2019-02-27T13:32:49Z</time>
      </trkpt>
      <trkpt lat="42.76694" lon="0.17107">
        <ele>1670</ele>
        <time>2019-02-27T13:32:50Z</time>
      </trkpt>
      <trkpt lat="42.76694" lon="0.17107">
        <ele>1671</ele>
        <time>2019-02-27T13:32:51Z</time>
      </trkpt>
      <trkpt lat="42.76694" lon="0.17107">
        <ele>1671</ele>
        <time>2019-02-27T13:32:52Z</time>
      </trkpt>
      <trkpt lat="42.76694" lon="0.17107">
        <ele>1671</ele>
        <time>2019-02-27T13:32:53Z</time>
      </trkpt>
      <trkpt lat="42.76694" lon="0.17107">
        <ele>1670</ele>
        <time>2019-02-27T13:32:54Z</time>
      </trkpt>
      <trkpt lat="42.76694" lon="0.17107">
        <ele>1670</ele>
        <time>2019-02-27T13:32:55Z</time>
      </trkpt>
      <trkpt lat="42.76694" lon="0.17107">
        <ele>1670</ele>
        <time>2019-02-27T13:32:56Z</time>
      </trkpt>
      <trkpt lat="42.76694" lon="0.17107">
        <ele>1670</ele>
        <time>2019-02-27T13:32:57Z</time>
      </trkpt>
      <trkpt lat="42.76694" lon="0.17107">
        <ele>1670</ele>
        <time>2019-02-27T13:32:58Z</time>
      </trkpt>
      <trkpt lat="42.76694" lon="0.17107">
        <ele>1670</ele>
        <time>2019-02-27T13:32:59Z</time>
      </trkpt>
      <trkpt lat="42.76694" lon="0.17107">
        <ele>1670</ele>
        <time>2019-02-27T13:33:00Z</time>
      </trkpt>
      <trkpt lat="42.76694" lon="0.17107">
        <ele>1670</ele>
        <time>2019-02-27T13:33:01Z</time>
      </trkpt>
      <trkpt lat="42.76694" lon="0.17107">
        <ele>1670</ele>
        <time>2019-02-27T13:33:02Z</time>
      </trkpt>
      <trkpt lat="42.76694" lon="0.17107">
        <ele>1671</ele>
        <time>2019-02-27T13:33:03Z</time>
      </trkpt>
      <trkpt lat="42.76694" lon="0.17107">
        <ele>1671</ele>
        <time>2019-02-27T13:33:04Z</time>
      </trkpt>
      <trkpt lat="42.76694" lon="0.17106">
        <ele>1671</ele>
        <time>2019-02-27T13:33:05Z</time>
      </trkpt>
      <trkpt lat="42.76694" lon="0.17106">
        <ele>1671</ele>
        <time>2019-02-27T13:33:06Z</time>
      </trkpt>
      <trkpt lat="42.76694" lon="0.17106">
        <ele>1671</ele>
        <time>2019-02-27T13:33:07Z</time>
      </trkpt>
      <trkpt lat="42.76694" lon="0.17106">
        <ele>1671</ele>
        <time>2019-02-27T13:33:08Z</time>
      </trkpt>
      <trkpt lat="42.76695" lon="0.17106">
        <ele>1671</ele>
        <time>2019-02-27T13:33:09Z</time>
      </trkpt>
      <trkpt lat="42.76695" lon="0.17106">
        <ele>1671</ele>
        <time>2019-02-27T13:33:10Z</time>
      </trkpt>
      <trkpt lat="42.76695" lon="0.17106">
        <ele>1671</ele>
        <time>2019-02-27T13:33:11Z</time>
      </trkpt>
      <trkpt lat="42.76695" lon="0.17106">
        <ele>1671</ele>
        <time>2019-02-27T13:33:12Z</time>
      </trkpt>
      <trkpt lat="42.76695" lon="0.17106">
        <ele>1671</ele>
        <time>2019-02-27T13:33:13Z</time>
      </trkpt>
      <trkpt lat="42.76695" lon="0.17106">
        <ele>1670</ele>
        <time>2019-02-27T13:33:14Z</time>
      </trkpt>
      <trkpt lat="42.76695" lon="0.17106">
        <ele>1670</ele>
        <time>2019-02-27T13:33:15Z</time>
      </trkpt>
      <trkpt lat="42.76695" lon="0.17106">
        <ele>1670</ele>
        <time>2019-02-27T13:33:16Z</time>
      </trkpt>
      <trkpt lat="42.76695" lon="0.17106">
        <ele>1670</ele>
        <time>2019-02-27T13:33:17Z</time>
      </trkpt>
      <trkpt lat="42.76695" lon="0.17106">
        <ele>1670</ele>
        <time>2019-02-27T13:33:18Z</time>
      </trkpt>
      <trkpt lat="42.76695" lon="0.17106">
        <ele>1670</ele>
        <time>2019-02-27T13:33:19Z</time>
      </trkpt>
      <trkpt lat="42.76695" lon="0.17106">
        <ele>1670</ele>
        <time>2019-02-27T13:33:20Z</time>
      </trkpt>
      <trkpt lat="42.76695" lon="0.17106">
        <ele>1670</ele>
        <time>2019-02-27T13:33:21Z</time>
      </trkpt>
      <trkpt lat="42.76695" lon="0.17106">
        <ele>1670</ele>
        <time>2019-02-27T13:33:22Z</time>
      </trkpt>
      <trkpt lat="42.76695" lon="0.17106">
        <ele>1670</ele>
        <time>2019-02-27T13:33:23Z</time>
      </trkpt>
      <trkpt lat="42.76695" lon="0.17106">
        <ele>1670</ele>
        <time>2019-02-27T13:33:24Z</time>
      </trkpt>
      <trkpt lat="42.76695" lon="0.17106">
        <ele>1670</ele>
        <time>2019-02-27T13:33:25Z</time>
      </trkpt>
      <trkpt lat="42.76695" lon="0.17106">
        <ele>1670</ele>
        <time>2019-02-27T13:33:26Z</time>
      </trkpt>
      <trkpt lat="42.76695" lon="0.17106">
        <ele>1670</ele>
        <time>2019-02-27T13:33:27Z</time>
      </trkpt>
      <trkpt lat="42.76695" lon="0.17106">
        <ele>1670</ele>
        <time>2019-02-27T13:33:28Z</time>
      </trkpt>
      <trkpt lat="42.76695" lon="0.17106">
        <ele>1670</ele>
        <time>2019-02-27T13:33:29Z</time>
      </trkpt>
      <trkpt lat="42.76695" lon="0.17105">
        <ele>1670</ele>
        <time>2019-02-27T13:33:30Z</time>
      </trkpt>
      <trkpt lat="42.76695" lon="0.17105">
        <ele>1670</ele>
        <time>2019-02-27T13:33:31Z</time>
      </trkpt>
      <trkpt lat="42.76695" lon="0.17105">
        <ele>1670</ele>
        <time>2019-02-27T13:33:32Z</time>
      </trkpt>
      <trkpt lat="42.76696" lon="0.17105">
        <ele>1670</ele>
        <time>2019-02-27T13:33:33Z</time>
      </trkpt>
      <trkpt lat="42.76696" lon="0.17105">
        <ele>1670</ele>
        <time>2019-02-27T13:33:34Z</time>
      </trkpt>
      <trkpt lat="42.76696" lon="0.17105">
        <ele>1670</ele>
        <time>2019-02-27T13:33:35Z</time>
      </trkpt>
      <trkpt lat="42.76696" lon="0.17105">
        <ele>1670</ele>
        <time>2019-02-27T13:33:36Z</time>
      </trkpt>
      <trkpt lat="42.76696" lon="0.17105">
        <ele>1670</ele>
        <time>2019-02-27T13:33:37Z</time>
      </trkpt>
      <trkpt lat="42.76696" lon="0.17105">
        <ele>1670</ele>
        <time>2019-02-27T13:33:38Z</time>
      </trkpt>
      <trkpt lat="42.76696" lon="0.17105">
        <ele>1670</ele>
        <time>2019-02-27T13:33:39Z</time>
      </trkpt>
      <trkpt lat="42.76696" lon="0.17105">
        <ele>1670</ele>
        <time>2019-02-27T13:33:40Z</time>
      </trkpt>
      <trkpt lat="42.76696" lon="0.17105">
        <ele>1670</ele>
        <time>2019-02-27T13:33:41Z</time>
      </trkpt>
      <trkpt lat="42.76696" lon="0.17105">
        <ele>1670</ele>
        <time>2019-02-27T13:33:42Z</time>
      </trkpt>
      <trkpt lat="42.76696" lon="0.17105">
        <ele>1670</ele>
        <time>2019-02-27T13:33:43Z</time>
      </trkpt>
      <trkpt lat="42.76696" lon="0.17105">
        <ele>1670</ele>
        <time>2019-02-27T13:33:44Z</time>
      </trkpt>
      <trkpt lat="42.76696" lon="0.17105">
        <ele>1670</ele>
        <time>2019-02-27T13:33:45Z</time>
      </trkpt>
      <trkpt lat="42.76696" lon="0.17105">
        <ele>1670</ele>
        <time>2019-02-27T13:33:46Z</time>
      </trkpt>
      <trkpt lat="42.76696" lon="0.17105">
        <ele>1670</ele>
        <time>2019-02-27T13:33:47Z</time>
      </trkpt>
      <trkpt lat="42.76696" lon="0.17105">
        <ele>1670</ele>
        <time>2019-02-27T13:33:48Z</time>
      </trkpt>
      <trkpt lat="42.76696" lon="0.17105">
        <ele>1670</ele>
        <time>2019-02-27T13:33:49Z</time>
      </trkpt>
      <trkpt lat="42.76696" lon="0.17105">
        <ele>1670</ele>
        <time>2019-02-27T13:33:50Z</time>
      </trkpt>
      <trkpt lat="42.76696" lon="0.17105">
        <ele>1670</ele>
        <time>2019-02-27T13:33:51Z</time>
      </trkpt>
      <trkpt lat="42.76696" lon="0.17105">
        <ele>1670</ele>
        <time>2019-02-27T13:33:52Z</time>
      </trkpt>
      <trkpt lat="42.76696" lon="0.17105">
        <ele>1670</ele>
        <time>2019-02-27T13:33:53Z</time>
      </trkpt>
      <trkpt lat="42.76696" lon="0.17105">
        <ele>1670</ele>
        <time>2019-02-27T13:33:54Z</time>
      </trkpt>
      <trkpt lat="42.76696" lon="0.17104">
        <ele>1670</ele>
        <time>2019-02-27T13:33:55Z</time>
      </trkpt>
      <trkpt lat="42.76696" lon="0.17104">
        <ele>1670</ele>
        <time>2019-02-27T13:33:56Z</time>
      </trkpt>
      <trkpt lat="42.76697" lon="0.17104">
        <ele>1670</ele>
        <time>2019-02-27T13:33:57Z</time>
      </trkpt>
      <trkpt lat="42.76697" lon="0.17104">
        <ele>1670</ele>
        <time>2019-02-27T13:33:58Z</time>
      </trkpt>
      <trkpt lat="42.76697" lon="0.17104">
        <ele>1670</ele>
        <time>2019-02-27T13:33:59Z</time>
      </trkpt>
      <trkpt lat="42.76697" lon="0.17104">
        <ele>1670</ele>
        <time>2019-02-27T13:34:00Z</time>
      </trkpt>
      <trkpt lat="42.76697" lon="0.17104">
        <ele>1670</ele>
        <time>2019-02-27T13:34:01Z</time>
      </trkpt>
      <trkpt lat="42.76697" lon="0.17104">
        <ele>1670</ele>
        <time>2019-02-27T13:34:02Z</time>
      </trkpt>
      <trkpt lat="42.76697" lon="0.17104">
        <ele>1670</ele>
        <time>2019-02-27T13:34:03Z</time>
      </trkpt>
      <trkpt lat="42.76697" lon="0.17104">
        <ele>1670</ele>
        <time>2019-02-27T13:34:04Z</time>
      </trkpt>
      <trkpt lat="42.76697" lon="0.17104">
        <ele>1670</ele>
        <time>2019-02-27T13:34:05Z</time>
      </trkpt>
      <trkpt lat="42.76697" lon="0.17104">
        <ele>1671</ele>
        <time>2019-02-27T13:34:06Z</time>
      </trkpt>
      <trkpt lat="42.76697" lon="0.17104">
        <ele>1671</ele>
        <time>2019-02-27T13:34:07Z</time>
      </trkpt>
      <trkpt lat="42.76697" lon="0.17104">
        <ele>1671</ele>
        <time>2019-02-27T13:34:08Z</time>
      </trkpt>
      <trkpt lat="42.76697" lon="0.17104">
        <ele>1671</ele>
        <time>2019-02-27T13:34:09Z</time>
      </trkpt>
      <trkpt lat="42.76697" lon="0.17104">
        <ele>1671</ele>
        <time>2019-02-27T13:34:10Z</time>
      </trkpt>
      <trkpt lat="42.76697" lon="0.17104">
        <ele>1671</ele>
        <time>2019-02-27T13:34:11Z</time>
      </trkpt>
      <trkpt lat="42.76697" lon="0.17104">
        <ele>1671</ele>
        <time>2019-02-27T13:34:12Z</time>
      </trkpt>
      <trkpt lat="42.76697" lon="0.17104">
        <ele>1671</ele>
        <time>2019-02-27T13:34:13Z</time>
      </trkpt>
      <trkpt lat="42.76697" lon="0.17104">
        <ele>1671</ele>
        <time>2019-02-27T13:34:14Z</time>
      </trkpt>
      <trkpt lat="42.76697" lon="0.17104">
        <ele>1671</ele>
        <time>2019-02-27T13:34:15Z</time>
      </trkpt>
      <trkpt lat="42.76697" lon="0.17104">
        <ele>1671</ele>
        <time>2019-02-27T13:34:16Z</time>
      </trkpt>
      <trkpt lat="42.76697" lon="0.17104">
        <ele>1671</ele>
        <time>2019-02-27T13:34:17Z</time>
      </trkpt>
      <trkpt lat="42.76697" lon="0.17104">
        <ele>1670</ele>
        <time>2019-02-27T13:34:18Z</time>
      </trkpt>
      <trkpt lat="42.76697" lon="0.17104">
        <ele>1670</ele>
        <time>2019-02-27T13:34:19Z</time>
      </trkpt>
      <trkpt lat="42.76697" lon="0.17103">
        <ele>1670</ele>
        <time>2019-02-27T13:34:20Z</time>
      </trkpt>
      <trkpt lat="42.76698" lon="0.17103">
        <ele>1670</ele>
        <time>2019-02-27T13:34:21Z</time>
      </trkpt>
      <trkpt lat="42.76698" lon="0.17103">
        <ele>1671</ele>
        <time>2019-02-27T13:34:22Z</time>
      </trkpt>
      <trkpt lat="42.76698" lon="0.17103">
        <ele>1671</ele>
        <time>2019-02-27T13:34:23Z</time>
      </trkpt>
      <trkpt lat="42.76698" lon="0.17103">
        <ele>1671</ele>
        <time>2019-02-27T13:34:24Z</time>
      </trkpt>
      <trkpt lat="42.76698" lon="0.17103">
        <ele>1671</ele>
        <time>2019-02-27T13:34:25Z</time>
      </trkpt>
      <trkpt lat="42.76698" lon="0.17103">
        <ele>1671</ele>
        <time>2019-02-27T13:34:26Z</time>
      </trkpt>
      <trkpt lat="42.76698" lon="0.17103">
        <ele>1671</ele>
        <time>2019-02-27T13:34:27Z</time>
      </trkpt>
      <trkpt lat="42.76698" lon="0.17103">
        <ele>1671</ele>
        <time>2019-02-27T13:34:28Z</time>
      </trkpt>
      <trkpt lat="42.76698" lon="0.17103">
        <ele>1670</ele>
        <time>2019-02-27T13:34:29Z</time>
      </trkpt>
      <trkpt lat="42.76698" lon="0.17103">
        <ele>1670</ele>
        <time>2019-02-27T13:34:30Z</time>
      </trkpt>
      <trkpt lat="42.76698" lon="0.17103">
        <ele>1671</ele>
        <time>2019-02-27T13:34:31Z</time>
      </trkpt>
      <trkpt lat="42.76698" lon="0.17103">
        <ele>1671</ele>
        <time>2019-02-27T13:34:32Z</time>
      </trkpt>
      <trkpt lat="42.76698" lon="0.17103">
        <ele>1671</ele>
        <time>2019-02-27T13:34:33Z</time>
      </trkpt>
      <trkpt lat="42.76698" lon="0.17103">
        <ele>1670</ele>
        <time>2019-02-27T13:34:34Z</time>
      </trkpt>
      <trkpt lat="42.76698" lon="0.17103">
        <ele>1670</ele>
        <time>2019-02-27T13:34:35Z</time>
      </trkpt>
      <trkpt lat="42.76698" lon="0.17103">
        <ele>1670</ele>
        <time>2019-02-27T13:34:36Z</time>
      </trkpt>
      <trkpt lat="42.76698" lon="0.17103">
        <ele>1671</ele>
        <time>2019-02-27T13:34:37Z</time>
      </trkpt>
      <trkpt lat="42.76698" lon="0.17103">
        <ele>1671</ele>
        <time>2019-02-27T13:34:38Z</time>
      </trkpt>
      <trkpt lat="42.76698" lon="0.17103">
        <ele>1670</ele>
        <time>2019-02-27T13:34:39Z</time>
      </trkpt>
      <trkpt lat="42.76698" lon="0.17103">
        <ele>1670</ele>
        <time>2019-02-27T13:34:40Z</time>
      </trkpt>
      <trkpt lat="42.76698" lon="0.17103">
        <ele>1670</ele>
        <time>2019-02-27T13:34:41Z</time>
      </trkpt>
      <trkpt lat="42.76698" lon="0.17103">
        <ele>1670</ele>
        <time>2019-02-27T13:34:42Z</time>
      </trkpt>
      <trkpt lat="42.76698" lon="0.17103">
        <ele>1670</ele>
        <time>2019-02-27T13:34:43Z</time>
      </trkpt>
      <trkpt lat="42.76698" lon="0.17103">
        <ele>1670</ele>
        <time>2019-02-27T13:34:44Z</time>
      </trkpt>
      <trkpt lat="42.76698" lon="0.17102">
        <ele>1670</ele>
        <time>2019-02-27T13:34:45Z</time>
      </trkpt>
      <trkpt lat="42.76699" lon="0.17102">
        <ele>1670</ele>
        <time>2019-02-27T13:34:46Z</time>
      </trkpt>
      <trkpt lat="42.76699" lon="0.17102">
        <ele>1670</ele>
        <time>2019-02-27T13:34:47Z</time>
      </trkpt>
      <trkpt lat="42.76699" lon="0.17102">
        <ele>1670</ele>
        <time>2019-02-27T13:34:48Z</time>
      </trkpt>
      <trkpt lat="42.76699" lon="0.17102">
        <ele>1670</ele>
        <time>2019-02-27T13:34:49Z</time>
      </trkpt>
      <trkpt lat="42.76699" lon="0.17102">
        <ele>1669</ele>
        <time>2019-02-27T13:34:50Z</time>
      </trkpt>
      <trkpt lat="42.76699" lon="0.17102">
        <ele>1669</ele>
        <time>2019-02-27T13:34:51Z</time>
      </trkpt>
      <trkpt lat="42.76699" lon="0.17102">
        <ele>1669</ele>
        <time>2019-02-27T13:34:52Z</time>
      </trkpt>
      <trkpt lat="42.76699" lon="0.17102">
        <ele>1669</ele>
        <time>2019-02-27T13:34:53Z</time>
      </trkpt>
      <trkpt lat="42.76699" lon="0.17102">
        <ele>1669</ele>
        <time>2019-02-27T13:34:54Z</time>
      </trkpt>
      <trkpt lat="42.76699" lon="0.17102">
        <ele>1669</ele>
        <time>2019-02-27T13:34:55Z</time>
      </trkpt>
      <trkpt lat="42.76699" lon="0.17102">
        <ele>1669</ele>
        <time>2019-02-27T13:34:56Z</time>
      </trkpt>
      <trkpt lat="42.76699" lon="0.17102">
        <ele>1669</ele>
        <time>2019-02-27T13:34:57Z</time>
      </trkpt>
      <trkpt lat="42.76699" lon="0.17102">
        <ele>1669</ele>
        <time>2019-02-27T13:34:58Z</time>
      </trkpt>
      <trkpt lat="42.76699" lon="0.17102">
        <ele>1669</ele>
        <time>2019-02-27T13:34:59Z</time>
      </trkpt>
      <trkpt lat="42.76699" lon="0.17102">
        <ele>1669</ele>
        <time>2019-02-27T13:35:00Z</time>
      </trkpt>
      <trkpt lat="42.76699" lon="0.17102">
        <ele>1669</ele>
        <time>2019-02-27T13:35:01Z</time>
      </trkpt>
      <trkpt lat="42.76706" lon="0.17095">
        <ele>1669</ele>
        <time>2019-02-27T13:35:02Z</time>
      </trkpt>
      <trkpt lat="42.76706" lon="0.17095">
        <ele>1669</ele>
        <time>2019-02-27T13:35:03Z</time>
      </trkpt>
      <trkpt lat="42.76706" lon="0.17095">
        <ele>1670</ele>
        <time>2019-02-27T13:35:04Z</time>
      </trkpt>
      <trkpt lat="42.76706" lon="0.17095">
        <ele>1670</ele>
        <time>2019-02-27T13:35:05Z</time>
      </trkpt>
      <trkpt lat="42.76706" lon="0.17095">
        <ele>1670</ele>
        <time>2019-02-27T13:35:06Z</time>
      </trkpt>
      <trkpt lat="42.76706" lon="0.17095">
        <ele>1670</ele>
        <time>2019-02-27T13:35:07Z</time>
      </trkpt>
      <trkpt lat="42.76706" lon="0.17095">
        <ele>1670</ele>
        <time>2019-02-27T13:35:08Z</time>
      </trkpt>
      <trkpt lat="42.76706" lon="0.17095">
        <ele>1670</ele>
        <time>2019-02-27T13:35:09Z</time>
      </trkpt>
      <trkpt lat="42.76706" lon="0.17095">
        <ele>1670</ele>
        <time>2019-02-27T13:35:10Z</time>
      </trkpt>
      <trkpt lat="42.76706" lon="0.17095">
        <ele>1670</ele>
        <time>2019-02-27T13:35:11Z</time>
      </trkpt>
      <trkpt lat="42.76706" lon="0.17095">
        <ele>1670</ele>
        <time>2019-02-27T13:35:12Z</time>
      </trkpt>
      <trkpt lat="42.76697" lon="0.17094">
        <ele>1670</ele>
        <time>2019-02-27T13:35:13Z</time>
      </trkpt>
      <trkpt lat="42.76697" lon="0.17094">
        <ele>1670</ele>
        <time>2019-02-27T13:35:14Z</time>
      </trkpt>
      <trkpt lat="42.76697" lon="0.17094">
        <ele>1670</ele>
        <time>2019-02-27T13:35:15Z</time>
      </trkpt>
      <trkpt lat="42.76697" lon="0.17094">
        <ele>1670</ele>
        <time>2019-02-27T13:35:16Z</time>
      </trkpt>
      <trkpt lat="42.76697" lon="0.17094">
        <ele>1670</ele>
        <time>2019-02-27T13:35:17Z</time>
      </trkpt>
      <trkpt lat="42.76697" lon="0.17094">
        <ele>1671</ele>
        <time>2019-02-27T13:35:18Z</time>
      </trkpt>
      <trkpt lat="42.76697" lon="0.17094">
        <ele>1671</ele>
        <time>2019-02-27T13:35:19Z</time>
      </trkpt>
      <trkpt lat="42.76697" lon="0.17094">
        <ele>1671</ele>
        <time>2019-02-27T13:35:20Z</time>
      </trkpt>
      <trkpt lat="42.76697" lon="0.17094">
        <ele>1671</ele>
        <time>2019-02-27T13:35:21Z</time>
      </trkpt>
      <trkpt lat="42.76688" lon="0.171">
        <ele>1671</ele>
        <time>2019-02-27T13:35:22Z</time>
      </trkpt>
      <trkpt lat="42.76688" lon="0.171">
        <ele>1671</ele>
        <time>2019-02-27T13:35:23Z</time>
      </trkpt>
      <trkpt lat="42.76688" lon="0.171">
        <ele>1671</ele>
        <time>2019-02-27T13:35:24Z</time>
      </trkpt>
      <trkpt lat="42.76688" lon="0.171">
        <ele>1671</ele>
        <time>2019-02-27T13:35:25Z</time>
      </trkpt>
      <trkpt lat="42.76688" lon="0.171">
        <ele>1671</ele>
        <time>2019-02-27T13:35:26Z</time>
      </trkpt>
      <trkpt lat="42.76688" lon="0.171">
        <ele>1671</ele>
        <time>2019-02-27T13:35:27Z</time>
      </trkpt>
      <trkpt lat="42.76688" lon="0.171">
        <ele>1671</ele>
        <time>2019-02-27T13:35:28Z</time>
      </trkpt>
      <trkpt lat="42.76688" lon="0.171">
        <ele>1671</ele>
        <time>2019-02-27T13:35:29Z</time>
      </trkpt>
      <trkpt lat="42.76688" lon="0.171">
        <ele>1671</ele>
        <time>2019-02-27T13:35:30Z</time>
      </trkpt>
      <trkpt lat="42.76688" lon="0.171">
        <ele>1670</ele>
        <time>2019-02-27T13:35:31Z</time>
      </trkpt>
      <trkpt lat="42.76688" lon="0.171">
        <ele>1670</ele>
        <time>2019-02-27T13:35:32Z</time>
      </trkpt>
      <trkpt lat="42.76688" lon="0.171">
        <ele>1670</ele>
        <time>2019-02-27T13:35:33Z</time>
      </trkpt>
      <trkpt lat="42.76688" lon="0.171">
        <ele>1670</ele>
        <time>2019-02-27T13:35:34Z</time>
      </trkpt>
      <trkpt lat="42.76688" lon="0.171">
        <ele>1670</ele>
        <time>2019-02-27T13:35:35Z</time>
      </trkpt>
      <trkpt lat="42.76688" lon="0.171">
        <ele>1670</ele>
        <time>2019-02-27T13:35:36Z</time>
      </trkpt>
      <trkpt lat="42.76685" lon="0.17111">
        <ele>1670</ele>
        <time>2019-02-27T13:35:37Z</time>
      </trkpt>
      <trkpt lat="42.76685" lon="0.1711">
        <ele>1670</ele>
        <time>2019-02-27T13:35:38Z</time>
      </trkpt>
      <trkpt lat="42.76686" lon="0.1711">
        <ele>1670</ele>
        <time>2019-02-27T13:35:39Z</time>
      </trkpt>
      <trkpt lat="42.76686" lon="0.1711">
        <ele>1670</ele>
        <time>2019-02-27T13:35:40Z</time>
      </trkpt>
      <trkpt lat="42.76687" lon="0.17109">
        <ele>1670</ele>
        <time>2019-02-27T13:35:41Z</time>
      </trkpt>
      <trkpt lat="42.76687" lon="0.17109">
        <ele>1670</ele>
        <time>2019-02-27T13:35:42Z</time>
      </trkpt>
      <trkpt lat="42.76688" lon="0.17109">
        <ele>1671</ele>
        <time>2019-02-27T13:35:43Z</time>
      </trkpt>
      <trkpt lat="42.76688" lon="0.17109">
        <ele>1671</ele>
        <time>2019-02-27T13:35:44Z</time>
      </trkpt>
      <trkpt lat="42.76689" lon="0.17108">
        <ele>1671</ele>
        <time>2019-02-27T13:35:45Z</time>
      </trkpt>
      <trkpt lat="42.76689" lon="0.17108">
        <ele>1671</ele>
        <time>2019-02-27T13:35:46Z</time>
      </trkpt>
      <trkpt lat="42.76689" lon="0.17108">
        <ele>1671</ele>
        <time>2019-02-27T13:35:47Z</time>
      </trkpt>
      <trkpt lat="42.7669" lon="0.17108">
        <ele>1671</ele>
        <time>2019-02-27T13:35:48Z</time>
      </trkpt>
      <trkpt lat="42.76694" lon="0.17105">
        <ele>1671</ele>
        <time>2019-02-27T13:35:49Z</time>
      </trkpt>
      <trkpt lat="42.76694" lon="0.17106">
        <ele>1671</ele>
        <time>2019-02-27T13:35:50Z</time>
      </trkpt>
      <trkpt lat="42.76693" lon="0.17106">
        <ele>1671</ele>
        <time>2019-02-27T13:35:51Z</time>
      </trkpt>
      <trkpt lat="42.76692" lon="0.17107">
        <ele>1671</ele>
        <time>2019-02-27T13:35:52Z</time>
      </trkpt>
      <trkpt lat="42.76691" lon="0.17108">
        <ele>1671</ele>
        <time>2019-02-27T13:35:53Z</time>
      </trkpt>
      <trkpt lat="42.7669" lon="0.17109">
        <ele>1670</ele>
        <time>2019-02-27T13:35:54Z</time>
      </trkpt>
      <trkpt lat="42.76686" lon="0.17113">
        <ele>1670</ele>
        <time>2019-02-27T13:35:55Z</time>
      </trkpt>
      <trkpt lat="42.76686" lon="0.17113">
        <ele>1670</ele>
        <time>2019-02-27T13:35:56Z</time>
      </trkpt>
      <trkpt lat="42.76686" lon="0.17113">
        <ele>1670</ele>
        <time>2019-02-27T13:35:57Z</time>
      </trkpt>
      <trkpt lat="42.76686" lon="0.17113">
        <ele>1670</ele>
        <time>2019-02-27T13:35:58Z</time>
      </trkpt>
      <trkpt lat="42.76686" lon="0.17113">
        <ele>1670</ele>
        <time>2019-02-27T13:35:59Z</time>
      </trkpt>
      <trkpt lat="42.76686" lon="0.17113">
        <ele>1670</ele>
        <time>2019-02-27T13:36:00Z</time>
      </trkpt>
      <trkpt lat="42.76686" lon="0.17113">
        <ele>1670</ele>
        <time>2019-02-27T13:36:01Z</time>
      </trkpt>
      <trkpt lat="42.76686" lon="0.17113">
        <ele>1670</ele>
        <time>2019-02-27T13:36:02Z</time>
      </trkpt>
      <trkpt lat="42.76686" lon="0.17113">
        <ele>1670</ele>
        <time>2019-02-27T13:36:03Z</time>
      </trkpt>
      <trkpt lat="42.76686" lon="0.17113">
        <ele>1670</ele>
        <time>2019-02-27T13:36:04Z</time>
      </trkpt>
      <trkpt lat="42.76686" lon="0.17113">
        <ele>1670</ele>
        <time>2019-02-27T13:36:05Z</time>
      </trkpt>
      <trkpt lat="42.76686" lon="0.17113">
        <ele>1671</ele>
        <time>2019-02-27T13:36:06Z</time>
      </trkpt>
      <trkpt lat="42.76686" lon="0.17113">
        <ele>1671</ele>
        <time>2019-02-27T13:36:07Z</time>
      </trkpt>
      <trkpt lat="42.76686" lon="0.17113">
        <ele>1671</ele>
        <time>2019-02-27T13:36:08Z</time>
      </trkpt>
      <trkpt lat="42.76686" lon="0.17113">
        <ele>1671</ele>
        <time>2019-02-27T13:36:09Z</time>
      </trkpt>
      <trkpt lat="42.76686" lon="0.17113">
        <ele>1671</ele>
        <time>2019-02-27T13:36:10Z</time>
      </trkpt>
      <trkpt lat="42.76686" lon="0.17113">
        <ele>1671</ele>
        <time>2019-02-27T13:36:11Z</time>
      </trkpt>
      <trkpt lat="42.76686" lon="0.17113">
        <ele>1671</ele>
        <time>2019-02-27T13:36:12Z</time>
      </trkpt>
      <trkpt lat="42.76686" lon="0.17113">
        <ele>1671</ele>
        <time>2019-02-27T13:36:13Z</time>
      </trkpt>
      <trkpt lat="42.76686" lon="0.17113">
        <ele>1671</ele>
        <time>2019-02-27T13:36:14Z</time>
      </trkpt>
      <trkpt lat="42.76686" lon="0.17113">
        <ele>1670</ele>
        <time>2019-02-27T13:36:15Z</time>
      </trkpt>
      <trkpt lat="42.76686" lon="0.17113">
        <ele>1670</ele>
        <time>2019-02-27T13:36:16Z</time>
      </trkpt>
      <trkpt lat="42.76686" lon="0.17113">
        <ele>1670</ele>
        <time>2019-02-27T13:36:17Z</time>
      </trkpt>
      <trkpt lat="42.76686" lon="0.17113">
        <ele>1670</ele>
        <time>2019-02-27T13:36:18Z</time>
      </trkpt>
      <trkpt lat="42.76686" lon="0.17113">
        <ele>1670</ele>
        <time>2019-02-27T13:36:19Z</time>
      </trkpt>
      <trkpt lat="42.76686" lon="0.17113">
        <ele>1670</ele>
        <time>2019-02-27T13:36:20Z</time>
      </trkpt>
      <trkpt lat="42.76686" lon="0.17113">
        <ele>1670</ele>
        <time>2019-02-27T13:36:21Z</time>
      </trkpt>
      <trkpt lat="42.76686" lon="0.17113">
        <ele>1670</ele>
        <time>2019-02-27T13:36:22Z</time>
      </trkpt>
      <trkpt lat="42.76686" lon="0.17113">
        <ele>1670</ele>
        <time>2019-02-27T13:36:23Z</time>
      </trkpt>
      <trkpt lat="42.76686" lon="0.17113">
        <ele>1670</ele>
        <time>2019-02-27T13:36:24Z</time>
      </trkpt>
      <trkpt lat="42.76686" lon="0.17113">
        <ele>1670</ele>
        <time>2019-02-27T13:36:25Z</time>
      </trkpt>
      <trkpt lat="42.76686" lon="0.17113">
        <ele>1670</ele>
        <time>2019-02-27T13:36:26Z</time>
      </trkpt>
      <trkpt lat="42.76686" lon="0.17113">
        <ele>1670</ele>
        <time>2019-02-27T13:36:27Z</time>
      </trkpt>
      <trkpt lat="42.76686" lon="0.17113">
        <ele>1671</ele>
        <time>2019-02-27T13:36:28Z</time>
      </trkpt>
      <trkpt lat="42.76686" lon="0.17113">
        <ele>1671</ele>
        <time>2019-02-27T13:36:29Z</time>
      </trkpt>
      <trkpt lat="42.76686" lon="0.17113">
        <ele>1671</ele>
        <time>2019-02-27T13:36:30Z</time>
      </trkpt>
      <trkpt lat="42.76686" lon="0.17113">
        <ele>1671</ele>
        <time>2019-02-27T13:36:31Z</time>
      </trkpt>
      <trkpt lat="42.76686" lon="0.17113">
        <ele>1671</ele>
        <time>2019-02-27T13:36:32Z</time>
      </trkpt>
      <trkpt lat="42.76686" lon="0.17113">
        <ele>1671</ele>
        <time>2019-02-27T13:36:33Z</time>
      </trkpt>
      <trkpt lat="42.76686" lon="0.17113">
        <ele>1671</ele>
        <time>2019-02-27T13:36:34Z</time>
      </trkpt>
      <trkpt lat="42.76686" lon="0.17113">
        <ele>1671</ele>
        <time>2019-02-27T13:36:35Z</time>
      </trkpt>
      <trkpt lat="42.76686" lon="0.17113">
        <ele>1671</ele>
        <time>2019-02-27T13:36:36Z</time>
      </trkpt>
      <trkpt lat="42.76686" lon="0.17113">
        <ele>1671</ele>
        <time>2019-02-27T13:36:37Z</time>
      </trkpt>
      <trkpt lat="42.76686" lon="0.17113">
        <ele>1671</ele>
        <time>2019-02-27T13:36:38Z</time>
      </trkpt>
      <trkpt lat="42.76686" lon="0.17113">
        <ele>1671</ele>
        <time>2019-02-27T13:36:39Z</time>
      </trkpt>
      <trkpt lat="42.76686" lon="0.17113">
        <ele>1671</ele>
        <time>2019-02-27T13:36:40Z</time>
      </trkpt>
      <trkpt lat="42.76686" lon="0.17113">
        <ele>1671</ele>
        <time>2019-02-27T13:36:41Z</time>
      </trkpt>
      <trkpt lat="42.76686" lon="0.17113">
        <ele>1671</ele>
        <time>2019-02-27T13:36:42Z</time>
      </trkpt>
      <trkpt lat="42.76686" lon="0.17113">
        <ele>1671</ele>
        <time>2019-02-27T13:36:43Z</time>
      </trkpt>
      <trkpt lat="42.76686" lon="0.17113">
        <ele>1671</ele>
        <time>2019-02-27T13:36:44Z</time>
      </trkpt>
      <trkpt lat="42.76686" lon="0.17113">
        <ele>1671</ele>
        <time>2019-02-27T13:36:45Z</time>
      </trkpt>
      <trkpt lat="42.76686" lon="0.17113">
        <ele>1671</ele>
        <time>2019-02-27T13:36:46Z</time>
      </trkpt>
      <trkpt lat="42.76686" lon="0.17113">
        <ele>1671</ele>
        <time>2019-02-27T13:36:47Z</time>
      </trkpt>
      <trkpt lat="42.76686" lon="0.17113">
        <ele>1671</ele>
        <time>2019-02-27T13:36:48Z</time>
      </trkpt>
      <trkpt lat="42.76686" lon="0.17113">
        <ele>1671</ele>
        <time>2019-02-27T13:36:49Z</time>
      </trkpt>
      <trkpt lat="42.76686" lon="0.17113">
        <ele>1671</ele>
        <time>2019-02-27T13:36:50Z</time>
      </trkpt>
      <trkpt lat="42.76686" lon="0.17113">
        <ele>1671</ele>
        <time>2019-02-27T13:36:51Z</time>
      </trkpt>
      <trkpt lat="42.76686" lon="0.17113">
        <ele>1671</ele>
        <time>2019-02-27T13:36:52Z</time>
      </trkpt>
      <trkpt lat="42.76686" lon="0.17113">
        <ele>1671</ele>
        <time>2019-02-27T13:36:53Z</time>
      </trkpt>
      <trkpt lat="42.76686" lon="0.17113">
        <ele>1671</ele>
        <time>2019-02-27T13:36:54Z</time>
      </trkpt>
      <trkpt lat="42.76686" lon="0.17113">
        <ele>1671</ele>
        <time>2019-02-27T13:36:55Z</time>
      </trkpt>
      <trkpt lat="42.76686" lon="0.17113">
        <ele>1671</ele>
        <time>2019-02-27T13:36:56Z</time>
      </trkpt>
      <trkpt lat="42.76686" lon="0.17113">
        <ele>1671</ele>
        <time>2019-02-27T13:36:57Z</time>
      </trkpt>
      <trkpt lat="42.76686" lon="0.17113">
        <ele>1671</ele>
        <time>2019-02-27T13:36:58Z</time>
      </trkpt>
      <trkpt lat="42.76686" lon="0.17113">
        <ele>1671</ele>
        <time>2019-02-27T13:36:59Z</time>
      </trkpt>
      <trkpt lat="42.76686" lon="0.17113">
        <ele>1671</ele>
        <time>2019-02-27T13:37:00Z</time>
      </trkpt>
      <trkpt lat="42.76686" lon="0.17113">
        <ele>1671</ele>
        <time>2019-02-27T13:37:01Z</time>
      </trkpt>
      <trkpt lat="42.76686" lon="0.17113">
        <ele>1671</ele>
        <time>2019-02-27T13:37:02Z</time>
      </trkpt>
      <trkpt lat="42.76686" lon="0.17113">
        <ele>1671</ele>
        <time>2019-02-27T13:37:03Z</time>
      </trkpt>
      <trkpt lat="42.76686" lon="0.17113">
        <ele>1671</ele>
        <time>2019-02-27T13:37:04Z</time>
      </trkpt>
      <trkpt lat="42.76686" lon="0.17113">
        <ele>1671</ele>
        <time>2019-02-27T13:37:05Z</time>
      </trkpt>
      <trkpt lat="42.76686" lon="0.17113">
        <ele>1671</ele>
        <time>2019-02-27T13:37:06Z</time>
      </trkpt>
      <trkpt lat="42.76686" lon="0.17113">
        <ele>1670</ele>
        <time>2019-02-27T13:37:07Z</time>
      </trkpt>
      <trkpt lat="42.76686" lon="0.17113">
        <ele>1670</ele>
        <time>2019-02-27T13:37:08Z</time>
      </trkpt>
      <trkpt lat="42.76686" lon="0.17113">
        <ele>1670</ele>
        <time>2019-02-27T13:37:09Z</time>
      </trkpt>
      <trkpt lat="42.76686" lon="0.17113">
        <ele>1670</ele>
        <time>2019-02-27T13:37:10Z</time>
      </trkpt>
      <trkpt lat="42.76686" lon="0.17113">
        <ele>1670</ele>
        <time>2019-02-27T13:37:11Z</time>
      </trkpt>
      <trkpt lat="42.76686" lon="0.17113">
        <ele>1670</ele>
        <time>2019-02-27T13:37:12Z</time>
      </trkpt>
      <trkpt lat="42.76686" lon="0.17113">
        <ele>1671</ele>
        <time>2019-02-27T13:37:13Z</time>
      </trkpt>
      <trkpt lat="42.76686" lon="0.17113">
        <ele>1671</ele>
        <time>2019-02-27T13:37:14Z</time>
      </trkpt>
      <trkpt lat="42.76686" lon="0.17113">
        <ele>1671</ele>
        <time>2019-02-27T13:37:15Z</time>
      </trkpt>
      <trkpt lat="42.76686" lon="0.17113">
        <ele>1671</ele>
        <time>2019-02-27T13:37:16Z</time>
      </trkpt>
      <trkpt lat="42.76686" lon="0.17113">
        <ele>1671</ele>
        <time>2019-02-27T13:37:17Z</time>
      </trkpt>
      <trkpt lat="42.76686" lon="0.17113">
        <ele>1671</ele>
        <time>2019-02-27T13:37:18Z</time>
      </trkpt>
      <trkpt lat="42.76686" lon="0.17113">
        <ele>1671</ele>
        <time>2019-02-27T13:37:19Z</time>
      </trkpt>
      <trkpt lat="42.76686" lon="0.17113">
        <ele>1671</ele>
        <time>2019-02-27T13:37:20Z</time>
      </trkpt>
      <trkpt lat="42.76686" lon="0.17113">
        <ele>1670</ele>
        <time>2019-02-27T13:37:21Z</time>
      </trkpt>
      <trkpt lat="42.76686" lon="0.17113">
        <ele>1670</ele>
        <time>2019-02-27T13:37:22Z</time>
      </trkpt>
      <trkpt lat="42.76686" lon="0.17113">
        <ele>1670</ele>
        <time>2019-02-27T13:37:23Z</time>
      </trkpt>
      <trkpt lat="42.76686" lon="0.17113">
        <ele>1670</ele>
        <time>2019-02-27T13:37:24Z</time>
      </trkpt>
      <trkpt lat="42.76686" lon="0.17113">
        <ele>1670</ele>
        <time>2019-02-27T13:37:25Z</time>
      </trkpt>
      <trkpt lat="42.76686" lon="0.17113">
        <ele>1670</ele>
        <time>2019-02-27T13:37:26Z</time>
      </trkpt>
      <trkpt lat="42.76686" lon="0.17113">
        <ele>1670</ele>
        <time>2019-02-27T13:37:27Z</time>
      </trkpt>
      <trkpt lat="42.76686" lon="0.17113">
        <ele>1670</ele>
        <time>2019-02-27T13:37:28Z</time>
      </trkpt>
      <trkpt lat="42.76686" lon="0.17113">
        <ele>1670</ele>
        <time>2019-02-27T13:37:29Z</time>
      </trkpt>
      <trkpt lat="42.76686" lon="0.17113">
        <ele>1670</ele>
        <time>2019-02-27T13:37:30Z</time>
      </trkpt>
      <trkpt lat="42.76686" lon="0.17113">
        <ele>1670</ele>
        <time>2019-02-27T13:37:31Z</time>
      </trkpt>
      <trkpt lat="42.76686" lon="0.17113">
        <ele>1671</ele>
        <time>2019-02-27T13:37:32Z</time>
      </trkpt>
      <trkpt lat="42.76686" lon="0.17113">
        <ele>1671</ele>
        <time>2019-02-27T13:37:33Z</time>
      </trkpt>
      <trkpt lat="42.76686" lon="0.17113">
        <ele>1671</ele>
        <time>2019-02-27T13:37:34Z</time>
      </trkpt>
      <trkpt lat="42.76686" lon="0.17113">
        <ele>1671</ele>
        <time>2019-02-27T13:37:35Z</time>
      </trkpt>
      <trkpt lat="42.76686" lon="0.17113">
        <ele>1671</ele>
        <time>2019-02-27T13:37:36Z</time>
      </trkpt>
      <trkpt lat="42.76686" lon="0.17113">
        <ele>1671</ele>
        <time>2019-02-27T13:37:37Z</time>
      </trkpt>
      <trkpt lat="42.76686" lon="0.17113">
        <ele>1671</ele>
        <time>2019-02-27T13:37:38Z</time>
      </trkpt>
      <trkpt lat="42.76686" lon="0.17113">
        <ele>1671</ele>
        <time>2019-02-27T13:37:39Z</time>
      </trkpt>
      <trkpt lat="42.76686" lon="0.17113">
        <ele>1670</ele>
        <time>2019-02-27T13:37:40Z</time>
      </trkpt>
      <trkpt lat="42.76686" lon="0.17113">
        <ele>1670</ele>
        <time>2019-02-27T13:37:41Z</time>
      </trkpt>
      <trkpt lat="42.76686" lon="0.17113">
        <ele>1670</ele>
        <time>2019-02-27T13:37:42Z</time>
      </trkpt>
      <trkpt lat="42.76686" lon="0.17113">
        <ele>1670</ele>
        <time>2019-02-27T13:37:43Z</time>
      </trkpt>
      <trkpt lat="42.76686" lon="0.17113">
        <ele>1670</ele>
        <time>2019-02-27T13:37:44Z</time>
      </trkpt>
      <trkpt lat="42.76686" lon="0.17113">
        <ele>1670</ele>
        <time>2019-02-27T13:37:45Z</time>
      </trkpt>
      <trkpt lat="42.76686" lon="0.17113">
        <ele>1670</ele>
        <time>2019-02-27T13:37:46Z</time>
      </trkpt>
      <trkpt lat="42.76686" lon="0.17113">
        <ele>1670</ele>
        <time>2019-02-27T13:37:47Z</time>
      </trkpt>
      <trkpt lat="42.76686" lon="0.17113">
        <ele>1671</ele>
        <time>2019-02-27T13:37:48Z</time>
      </trkpt>
      <trkpt lat="42.76686" lon="0.17113">
        <ele>1671</ele>
        <time>2019-02-27T13:37:49Z</time>
      </trkpt>
      <trkpt lat="42.76686" lon="0.17113">
        <ele>1671</ele>
        <time>2019-02-27T13:37:50Z</time>
      </trkpt>
      <trkpt lat="42.76686" lon="0.17113">
        <ele>1671</ele>
        <time>2019-02-27T13:37:51Z</time>
      </trkpt>
      <trkpt lat="42.76677" lon="0.17117">
        <ele>1671</ele>
        <time>2019-02-27T13:37:52Z</time>
      </trkpt>
      <trkpt lat="42.76677" lon="0.17117">
        <ele>1671</ele>
        <time>2019-02-27T13:37:53Z</time>
      </trkpt>
      <trkpt lat="42.76677" lon="0.17116">
        <ele>1671</ele>
        <time>2019-02-27T13:37:54Z</time>
      </trkpt>
      <trkpt lat="42.76677" lon="0.17116">
        <ele>1671</ele>
        <time>2019-02-27T13:37:55Z</time>
      </trkpt>
      <trkpt lat="42.76677" lon="0.17116">
        <ele>1671</ele>
        <time>2019-02-27T13:37:56Z</time>
      </trkpt>
      <trkpt lat="42.76677" lon="0.17116">
        <ele>1671</ele>
        <time>2019-02-27T13:37:57Z</time>
      </trkpt>
      <trkpt lat="42.76677" lon="0.17116">
        <ele>1671</ele>
        <time>2019-02-27T13:37:58Z</time>
      </trkpt>
      <trkpt lat="42.76678" lon="0.17116">
        <ele>1671</ele>
        <time>2019-02-27T13:37:59Z</time>
      </trkpt>
      <trkpt lat="42.76678" lon="0.17116">
        <ele>1671</ele>
        <time>2019-02-27T13:38:00Z</time>
      </trkpt>
      <trkpt lat="42.76678" lon="0.17116">
        <ele>1671</ele>
        <time>2019-02-27T13:38:01Z</time>
      </trkpt>
      <trkpt lat="42.76678" lon="0.17116">
        <ele>1671</ele>
        <time>2019-02-27T13:38:02Z</time>
      </trkpt>
      <trkpt lat="42.76678" lon="0.17116">
        <ele>1671</ele>
        <time>2019-02-27T13:38:03Z</time>
      </trkpt>
      <trkpt lat="42.76678" lon="0.17116">
        <ele>1671</ele>
        <time>2019-02-27T13:38:04Z</time>
      </trkpt>
      <trkpt lat="42.76678" lon="0.17116">
        <ele>1671</ele>
        <time>2019-02-27T13:38:05Z</time>
      </trkpt>
      <trkpt lat="42.76678" lon="0.17116">
        <ele>1671</ele>
        <time>2019-02-27T13:38:06Z</time>
      </trkpt>
      <trkpt lat="42.76678" lon="0.17116">
        <ele>1671</ele>
        <time>2019-02-27T13:38:07Z</time>
      </trkpt>
      <trkpt lat="42.76678" lon="0.17115">
        <ele>1671</ele>
        <time>2019-02-27T13:38:08Z</time>
      </trkpt>
      <trkpt lat="42.76678" lon="0.17115">
        <ele>1671</ele>
        <time>2019-02-27T13:38:09Z</time>
      </trkpt>
      <trkpt lat="42.76678" lon="0.17115">
        <ele>1671</ele>
        <time>2019-02-27T13:38:10Z</time>
      </trkpt>
      <trkpt lat="42.76678" lon="0.17115">
        <ele>1671</ele>
        <time>2019-02-27T13:38:11Z</time>
      </trkpt>
      <trkpt lat="42.76678" lon="0.17115">
        <ele>1671</ele>
        <time>2019-02-27T13:38:12Z</time>
      </trkpt>
      <trkpt lat="42.76678" lon="0.17115">
        <ele>1671</ele>
        <time>2019-02-27T13:38:13Z</time>
      </trkpt>
      <trkpt lat="42.76678" lon="0.17115">
        <ele>1671</ele>
        <time>2019-02-27T13:38:14Z</time>
      </trkpt>
      <trkpt lat="42.76678" lon="0.17115">
        <ele>1671</ele>
        <time>2019-02-27T13:38:15Z</time>
      </trkpt>
      <trkpt lat="42.76678" lon="0.17115">
        <ele>1671</ele>
        <time>2019-02-27T13:38:16Z</time>
      </trkpt>
      <trkpt lat="42.76678" lon="0.17115">
        <ele>1671</ele>
        <time>2019-02-27T13:38:17Z</time>
      </trkpt>
      <trkpt lat="42.76678" lon="0.17115">
        <ele>1671</ele>
        <time>2019-02-27T13:38:18Z</time>
      </trkpt>
      <trkpt lat="42.76679" lon="0.17115">
        <ele>1671</ele>
        <time>2019-02-27T13:38:19Z</time>
      </trkpt>
      <trkpt lat="42.76679" lon="0.17115">
        <ele>1671</ele>
        <time>2019-02-27T13:38:20Z</time>
      </trkpt>
      <trkpt lat="42.76679" lon="0.17115">
        <ele>1671</ele>
        <time>2019-02-27T13:38:21Z</time>
      </trkpt>
      <trkpt lat="42.76679" lon="0.17114">
        <ele>1671</ele>
        <time>2019-02-27T13:38:22Z</time>
      </trkpt>
      <trkpt lat="42.76679" lon="0.17114">
        <ele>1671</ele>
        <time>2019-02-27T13:38:23Z</time>
      </trkpt>
      <trkpt lat="42.76679" lon="0.17114">
        <ele>1671</ele>
        <time>2019-02-27T13:38:24Z</time>
      </trkpt>
      <trkpt lat="42.76679" lon="0.17114">
        <ele>1671</ele>
        <time>2019-02-27T13:38:25Z</time>
      </trkpt>
      <trkpt lat="42.76679" lon="0.17114">
        <ele>1671</ele>
        <time>2019-02-27T13:38:26Z</time>
      </trkpt>
      <trkpt lat="42.76679" lon="0.17114">
        <ele>1671</ele>
        <time>2019-02-27T13:38:27Z</time>
      </trkpt>
      <trkpt lat="42.76679" lon="0.17114">
        <ele>1671</ele>
        <time>2019-02-27T13:38:28Z</time>
      </trkpt>
      <trkpt lat="42.76679" lon="0.17114">
        <ele>1671</ele>
        <time>2019-02-27T13:38:29Z</time>
      </trkpt>
      <trkpt lat="42.76679" lon="0.17114">
        <ele>1671</ele>
        <time>2019-02-27T13:38:30Z</time>
      </trkpt>
      <trkpt lat="42.76679" lon="0.17114">
        <ele>1671</ele>
        <time>2019-02-27T13:38:31Z</time>
      </trkpt>
      <trkpt lat="42.76679" lon="0.17114">
        <ele>1671</ele>
        <time>2019-02-27T13:38:32Z</time>
      </trkpt>
      <trkpt lat="42.76679" lon="0.17114">
        <ele>1671</ele>
        <time>2019-02-27T13:38:33Z</time>
      </trkpt>
      <trkpt lat="42.76679" lon="0.17114">
        <ele>1671</ele>
        <time>2019-02-27T13:38:34Z</time>
      </trkpt>
      <trkpt lat="42.76679" lon="0.17114">
        <ele>1671</ele>
        <time>2019-02-27T13:38:35Z</time>
      </trkpt>
      <trkpt lat="42.76679" lon="0.17114">
        <ele>1671</ele>
        <time>2019-02-27T13:38:36Z</time>
      </trkpt>
      <trkpt lat="42.76679" lon="0.17113">
        <ele>1671</ele>
        <time>2019-02-27T13:38:37Z</time>
      </trkpt>
      <trkpt lat="42.76679" lon="0.17113">
        <ele>1671</ele>
        <time>2019-02-27T13:38:38Z</time>
      </trkpt>
      <trkpt lat="42.76679" lon="0.17113">
        <ele>1671</ele>
        <time>2019-02-27T13:38:39Z</time>
      </trkpt>
      <trkpt lat="42.7668" lon="0.17113">
        <ele>1671</ele>
        <time>2019-02-27T13:38:40Z</time>
      </trkpt>
      <trkpt lat="42.7668" lon="0.17113">
        <ele>1671</ele>
        <time>2019-02-27T13:38:41Z</time>
      </trkpt>
      <trkpt lat="42.7668" lon="0.17113">
        <ele>1671</ele>
        <time>2019-02-27T13:38:42Z</time>
      </trkpt>
      <trkpt lat="42.7668" lon="0.17113">
        <ele>1672</ele>
        <time>2019-02-27T13:38:43Z</time>
      </trkpt>
      <trkpt lat="42.7668" lon="0.17113">
        <ele>1672</ele>
        <time>2019-02-27T13:38:44Z</time>
      </trkpt>
      <trkpt lat="42.7668" lon="0.17113">
        <ele>1672</ele>
        <time>2019-02-27T13:38:45Z</time>
      </trkpt>
      <trkpt lat="42.7668" lon="0.17113">
        <ele>1672</ele>
        <time>2019-02-27T13:38:46Z</time>
      </trkpt>
      <trkpt lat="42.7668" lon="0.17113">
        <ele>1672</ele>
        <time>2019-02-27T13:38:47Z</time>
      </trkpt>
      <trkpt lat="42.7668" lon="0.17113">
        <ele>1672</ele>
        <time>2019-02-27T13:38:48Z</time>
      </trkpt>
      <trkpt lat="42.7668" lon="0.17113">
        <ele>1672</ele>
        <time>2019-02-27T13:38:49Z</time>
      </trkpt>
      <trkpt lat="42.7668" lon="0.17113">
        <ele>1672</ele>
        <time>2019-02-27T13:38:50Z</time>
      </trkpt>
      <trkpt lat="42.7668" lon="0.17112">
        <ele>1672</ele>
        <time>2019-02-27T13:38:51Z</time>
      </trkpt>
      <trkpt lat="42.7668" lon="0.17112">
        <ele>1672</ele>
        <time>2019-02-27T13:38:52Z</time>
      </trkpt>
      <trkpt lat="42.7668" lon="0.17112">
        <ele>1672</ele>
        <time>2019-02-27T13:38:53Z</time>
      </trkpt>
      <trkpt lat="42.7668" lon="0.17112">
        <ele>1672</ele>
        <time>2019-02-27T13:38:54Z</time>
      </trkpt>
      <trkpt lat="42.7668" lon="0.17112">
        <ele>1672</ele>
        <time>2019-02-27T13:38:55Z</time>
      </trkpt>
      <trkpt lat="42.7668" lon="0.17112">
        <ele>1672</ele>
        <time>2019-02-27T13:38:56Z</time>
      </trkpt>
      <trkpt lat="42.7668" lon="0.17112">
        <ele>1672</ele>
        <time>2019-02-27T13:38:57Z</time>
      </trkpt>
      <trkpt lat="42.7668" lon="0.17112">
        <ele>1672</ele>
        <time>2019-02-27T13:38:58Z</time>
      </trkpt>
      <trkpt lat="42.7668" lon="0.17112">
        <ele>1672</ele>
        <time>2019-02-27T13:38:59Z</time>
      </trkpt>
      <trkpt lat="42.76681" lon="0.17112">
        <ele>1672</ele>
        <time>2019-02-27T13:39:00Z</time>
      </trkpt>
      <trkpt lat="42.76681" lon="0.17112">
        <ele>1672</ele>
        <time>2019-02-27T13:39:01Z</time>
      </trkpt>
      <trkpt lat="42.76681" lon="0.17112">
        <ele>1672</ele>
        <time>2019-02-27T13:39:02Z</time>
      </trkpt>
      <trkpt lat="42.76681" lon="0.17112">
        <ele>1672</ele>
        <time>2019-02-27T13:39:03Z</time>
      </trkpt>
      <trkpt lat="42.76684" lon="0.17107">
        <ele>1672</ele>
        <time>2019-02-27T13:39:04Z</time>
      </trkpt>
      <trkpt lat="42.76684" lon="0.17107">
        <ele>1671</ele>
        <time>2019-02-27T13:39:05Z</time>
      </trkpt>
      <trkpt lat="42.76684" lon="0.17107">
        <ele>1671</ele>
        <time>2019-02-27T13:39:06Z</time>
      </trkpt>
      <trkpt lat="42.76684" lon="0.17107">
        <ele>1672</ele>
        <time>2019-02-27T13:39:07Z</time>
      </trkpt>
      <trkpt lat="42.76684" lon="0.17107">
        <ele>1672</ele>
        <time>2019-02-27T13:39:08Z</time>
      </trkpt>
      <trkpt lat="42.76684" lon="0.17107">
        <ele>1671</ele>
        <time>2019-02-27T13:39:09Z</time>
      </trkpt>
      <trkpt lat="42.76684" lon="0.17107">
        <ele>1671</ele>
        <time>2019-02-27T13:39:10Z</time>
      </trkpt>
      <trkpt lat="42.76684" lon="0.17107">
        <ele>1671</ele>
        <time>2019-02-27T13:39:11Z</time>
      </trkpt>
      <trkpt lat="42.76683" lon="0.17108">
        <ele>1672</ele>
        <time>2019-02-27T13:39:12Z</time>
      </trkpt>
      <trkpt lat="42.76683" lon="0.17108">
        <ele>1672</ele>
        <time>2019-02-27T13:39:13Z</time>
      </trkpt>
      <trkpt lat="42.76683" lon="0.17108">
        <ele>1672</ele>
        <time>2019-02-27T13:39:14Z</time>
      </trkpt>
      <trkpt lat="42.76683" lon="0.17108">
        <ele>1672</ele>
        <time>2019-02-27T13:39:15Z</time>
      </trkpt>
      <trkpt lat="42.76683" lon="0.17108">
        <ele>1672</ele>
        <time>2019-02-27T13:39:16Z</time>
      </trkpt>
      <trkpt lat="42.76683" lon="0.17108">
        <ele>1672</ele>
        <time>2019-02-27T13:39:17Z</time>
      </trkpt>
      <trkpt lat="42.76683" lon="0.17108">
        <ele>1672</ele>
        <time>2019-02-27T13:39:18Z</time>
      </trkpt>
      <trkpt lat="42.76683" lon="0.17108">
        <ele>1671</ele>
        <time>2019-02-27T13:39:19Z</time>
      </trkpt>
      <trkpt lat="42.76683" lon="0.17108">
        <ele>1671</ele>
        <time>2019-02-27T13:39:20Z</time>
      </trkpt>
      <trkpt lat="42.76683" lon="0.17108">
        <ele>1671</ele>
        <time>2019-02-27T13:39:21Z</time>
      </trkpt>
      <trkpt lat="42.76683" lon="0.17108">
        <ele>1672</ele>
        <time>2019-02-27T13:39:22Z</time>
      </trkpt>
      <trkpt lat="42.76683" lon="0.17109">
        <ele>1672</ele>
        <time>2019-02-27T13:39:23Z</time>
      </trkpt>
      <trkpt lat="42.76683" lon="0.17109">
        <ele>1671</ele>
        <time>2019-02-27T13:39:24Z</time>
      </trkpt>
      <trkpt lat="42.76683" lon="0.17109">
        <ele>1671</ele>
        <time>2019-02-27T13:39:25Z</time>
      </trkpt>
      <trkpt lat="42.76682" lon="0.17109">
        <ele>1671</ele>
        <time>2019-02-27T13:39:26Z</time>
      </trkpt>
      <trkpt lat="42.76682" lon="0.17109">
        <ele>1671</ele>
        <time>2019-02-27T13:39:27Z</time>
      </trkpt>
      <trkpt lat="42.76682" lon="0.17109">
        <ele>1671</ele>
        <time>2019-02-27T13:39:28Z</time>
      </trkpt>
      <trkpt lat="42.76682" lon="0.17109">
        <ele>1671</ele>
        <time>2019-02-27T13:39:29Z</time>
      </trkpt>
      <trkpt lat="42.76682" lon="0.17109">
        <ele>1671</ele>
        <time>2019-02-27T13:39:30Z</time>
      </trkpt>
      <trkpt lat="42.76682" lon="0.17109">
        <ele>1671</ele>
        <time>2019-02-27T13:39:31Z</time>
      </trkpt>
      <trkpt lat="42.76682" lon="0.17109">
        <ele>1671</ele>
        <time>2019-02-27T13:39:32Z</time>
      </trkpt>
      <trkpt lat="42.76682" lon="0.1711">
        <ele>1671</ele>
        <time>2019-02-27T13:39:33Z</time>
      </trkpt>
      <trkpt lat="42.76682" lon="0.1711">
        <ele>1671</ele>
        <time>2019-02-27T13:39:34Z</time>
      </trkpt>
      <trkpt lat="42.76682" lon="0.1711">
        <ele>1671</ele>
        <time>2019-02-27T13:39:35Z</time>
      </trkpt>
      <trkpt lat="42.76682" lon="0.1711">
        <ele>1671</ele>
        <time>2019-02-27T13:39:36Z</time>
      </trkpt>
      <trkpt lat="42.76682" lon="0.1711">
        <ele>1671</ele>
        <time>2019-02-27T13:39:37Z</time>
      </trkpt>
      <trkpt lat="42.76682" lon="0.1711">
        <ele>1671</ele>
        <time>2019-02-27T13:39:38Z</time>
      </trkpt>
      <trkpt lat="42.76682" lon="0.1711">
        <ele>1671</ele>
        <time>2019-02-27T13:39:39Z</time>
      </trkpt>
      <trkpt lat="42.76681" lon="0.1711">
        <ele>1671</ele>
        <time>2019-02-27T13:39:40Z</time>
      </trkpt>
      <trkpt lat="42.76681" lon="0.1711">
        <ele>1671</ele>
        <time>2019-02-27T13:39:41Z</time>
      </trkpt>
      <trkpt lat="42.76681" lon="0.1711">
        <ele>1671</ele>
        <time>2019-02-27T13:39:42Z</time>
      </trkpt>
      <trkpt lat="42.76681" lon="0.17111">
        <ele>1671</ele>
        <time>2019-02-27T13:39:43Z</time>
      </trkpt>
      <trkpt lat="42.76681" lon="0.17111">
        <ele>1671</ele>
        <time>2019-02-27T13:39:44Z</time>
      </trkpt>
      <trkpt lat="42.76681" lon="0.17111">
        <ele>1671</ele>
        <time>2019-02-27T13:39:45Z</time>
      </trkpt>
      <trkpt lat="42.76681" lon="0.17111">
        <ele>1671</ele>
        <time>2019-02-27T13:39:46Z</time>
      </trkpt>
      <trkpt lat="42.76681" lon="0.17111">
        <ele>1671</ele>
        <time>2019-02-27T13:39:47Z</time>
      </trkpt>
      <trkpt lat="42.76681" lon="0.17111">
        <ele>1671</ele>
        <time>2019-02-27T13:39:48Z</time>
      </trkpt>
      <trkpt lat="42.76681" lon="0.17111">
        <ele>1671</ele>
        <time>2019-02-27T13:39:49Z</time>
      </trkpt>
      <trkpt lat="42.76681" lon="0.17111">
        <ele>1671</ele>
        <time>2019-02-27T13:39:50Z</time>
      </trkpt>
      <trkpt lat="42.76681" lon="0.17111">
        <ele>1672</ele>
        <time>2019-02-27T13:39:51Z</time>
      </trkpt>
      <trkpt lat="42.76681" lon="0.17111">
        <ele>1672</ele>
        <time>2019-02-27T13:39:52Z</time>
      </trkpt>
      <trkpt lat="42.7668" lon="0.17111">
        <ele>1672</ele>
        <time>2019-02-27T13:39:53Z</time>
      </trkpt>
      <trkpt lat="42.7668" lon="0.17112">
        <ele>1672</ele>
        <time>2019-02-27T13:39:54Z</time>
      </trkpt>
      <trkpt lat="42.7668" lon="0.17112">
        <ele>1672</ele>
        <time>2019-02-27T13:39:55Z</time>
      </trkpt>
      <trkpt lat="42.7668" lon="0.17112">
        <ele>1672</ele>
        <time>2019-02-27T13:39:56Z</time>
      </trkpt>
      <trkpt lat="42.7668" lon="0.17112">
        <ele>1672</ele>
        <time>2019-02-27T13:39:57Z</time>
      </trkpt>
      <trkpt lat="42.7668" lon="0.17112">
        <ele>1672</ele>
        <time>2019-02-27T13:39:58Z</time>
      </trkpt>
      <trkpt lat="42.7668" lon="0.17112">
        <ele>1672</ele>
        <time>2019-02-27T13:39:59Z</time>
      </trkpt>
      <trkpt lat="42.76676" lon="0.17118">
        <ele>1672</ele>
        <time>2019-02-27T13:40:00Z</time>
      </trkpt>
      <trkpt lat="42.76676" lon="0.17118">
        <ele>1672</ele>
        <time>2019-02-27T13:40:01Z</time>
      </trkpt>
      <trkpt lat="42.76676" lon="0.17118">
        <ele>1672</ele>
        <time>2019-02-27T13:40:02Z</time>
      </trkpt>
      <trkpt lat="42.76676" lon="0.17119">
        <ele>1671</ele>
        <time>2019-02-27T13:40:03Z</time>
      </trkpt>
      <trkpt lat="42.76676" lon="0.17119">
        <ele>1671</ele>
        <time>2019-02-27T13:40:04Z</time>
      </trkpt>
      <trkpt lat="42.76676" lon="0.17119">
        <ele>1671</ele>
        <time>2019-02-27T13:40:05Z</time>
      </trkpt>
      <trkpt lat="42.76676" lon="0.1712">
        <ele>1671</ele>
        <time>2019-02-27T13:40:06Z</time>
      </trkpt>
      <trkpt lat="42.76676" lon="0.1712">
        <ele>1671</ele>
        <time>2019-02-27T13:40:07Z</time>
      </trkpt>
      <trkpt lat="42.76676" lon="0.1712">
        <ele>1671</ele>
        <time>2019-02-27T13:40:08Z</time>
      </trkpt>
      <trkpt lat="42.76676" lon="0.17121">
        <ele>1671</ele>
        <time>2019-02-27T13:40:09Z</time>
      </trkpt>
      <trkpt lat="42.76677" lon="0.17121">
        <ele>1671</ele>
        <time>2019-02-27T13:40:10Z</time>
      </trkpt>
      <trkpt lat="42.76677" lon="0.17121">
        <ele>1671</ele>
        <time>2019-02-27T13:40:11Z</time>
      </trkpt>
      <trkpt lat="42.76677" lon="0.17121">
        <ele>1671</ele>
        <time>2019-02-27T13:40:12Z</time>
      </trkpt>
      <trkpt lat="42.76677" lon="0.17122">
        <ele>1671</ele>
        <time>2019-02-27T13:40:13Z</time>
      </trkpt>
      <trkpt lat="42.76677" lon="0.17122">
        <ele>1671</ele>
        <time>2019-02-27T13:40:14Z</time>
      </trkpt>
      <trkpt lat="42.76677" lon="0.17122">
        <ele>1671</ele>
        <time>2019-02-27T13:40:15Z</time>
      </trkpt>
      <trkpt lat="42.76677" lon="0.17123">
        <ele>1671</ele>
        <time>2019-02-27T13:40:16Z</time>
      </trkpt>
      <trkpt lat="42.76677" lon="0.17123">
        <ele>1671</ele>
        <time>2019-02-27T13:40:17Z</time>
      </trkpt>
      <trkpt lat="42.76677" lon="0.17123">
        <ele>1671</ele>
        <time>2019-02-27T13:40:18Z</time>
      </trkpt>
      <trkpt lat="42.76677" lon="0.17124">
        <ele>1671</ele>
        <time>2019-02-27T13:40:19Z</time>
      </trkpt>
      <trkpt lat="42.76677" lon="0.17124">
        <ele>1671</ele>
        <time>2019-02-27T13:40:20Z</time>
      </trkpt>
      <trkpt lat="42.76677" lon="0.17124">
        <ele>1671</ele>
        <time>2019-02-27T13:40:21Z</time>
      </trkpt>
      <trkpt lat="42.7668" lon="0.17133">
        <ele>1670</ele>
        <time>2019-02-27T13:40:22Z</time>
      </trkpt>
      <trkpt lat="42.76681" lon="0.17134">
        <ele>1670</ele>
        <time>2019-02-27T13:40:23Z</time>
      </trkpt>
      <trkpt lat="42.76683" lon="0.17136">
        <ele>1670</ele>
        <time>2019-02-27T13:40:24Z</time>
      </trkpt>
      <trkpt lat="42.76687" lon="0.1714">
        <ele>1670</ele>
        <time>2019-02-27T13:40:25Z</time>
      </trkpt>
      <trkpt lat="42.76687" lon="0.1714">
        <ele>1669</ele>
        <time>2019-02-27T13:40:26Z</time>
      </trkpt>
      <trkpt lat="42.76687" lon="0.1714">
        <ele>1668</ele>
        <time>2019-02-27T13:40:27Z</time>
      </trkpt>
      <trkpt lat="42.76696" lon="0.17145">
        <ele>1667</ele>
        <time>2019-02-27T13:40:28Z</time>
      </trkpt>
      <trkpt lat="42.76696" lon="0.17145">
        <ele>1667</ele>
        <time>2019-02-27T13:40:29Z</time>
      </trkpt>
      <trkpt lat="42.76696" lon="0.17145">
        <ele>1666</ele>
        <time>2019-02-27T13:40:30Z</time>
      </trkpt>
      <trkpt lat="42.76696" lon="0.17145">
        <ele>1666</ele>
        <time>2019-02-27T13:40:31Z</time>
      </trkpt>
      <trkpt lat="42.76701" lon="0.1716">
        <ele>1665</ele>
        <time>2019-02-27T13:40:32Z</time>
      </trkpt>
      <trkpt lat="42.76701" lon="0.17162">
        <ele>1664</ele>
        <time>2019-02-27T13:40:33Z</time>
      </trkpt>
      <trkpt lat="42.76701" lon="0.17164">
        <ele>1664</ele>
        <time>2019-02-27T13:40:34Z</time>
      </trkpt>
      <trkpt lat="42.76702" lon="0.17173">
        <ele>1664</ele>
        <time>2019-02-27T13:40:35Z</time>
      </trkpt>
      <trkpt lat="42.76702" lon="0.17175">
        <ele>1663</ele>
        <time>2019-02-27T13:40:36Z</time>
      </trkpt>
      <trkpt lat="42.76702" lon="0.17177">
        <ele>1663</ele>
        <time>2019-02-27T13:40:37Z</time>
      </trkpt>
      <trkpt lat="42.76702" lon="0.17178">
        <ele>1663</ele>
        <time>2019-02-27T13:40:38Z</time>
      </trkpt>
      <trkpt lat="42.76703" lon="0.17188">
        <ele>1662</ele>
        <time>2019-02-27T13:40:39Z</time>
      </trkpt>
      <trkpt lat="42.76703" lon="0.17191">
        <ele>1661</ele>
        <time>2019-02-27T13:40:40Z</time>
      </trkpt>
      <trkpt lat="42.76704" lon="0.17193">
        <ele>1661</ele>
        <time>2019-02-27T13:40:41Z</time>
      </trkpt>
      <trkpt lat="42.76706" lon="0.17203">
        <ele>1660</ele>
        <time>2019-02-27T13:40:42Z</time>
      </trkpt>
      <trkpt lat="42.76706" lon="0.17205">
        <ele>1660</ele>
        <time>2019-02-27T13:40:43Z</time>
      </trkpt>
      <trkpt lat="42.76707" lon="0.17208">
        <ele>1660</ele>
        <time>2019-02-27T13:40:44Z</time>
      </trkpt>
      <trkpt lat="42.76708" lon="0.17215">
        <ele>1659</ele>
        <time>2019-02-27T13:40:45Z</time>
      </trkpt>
      <trkpt lat="42.76708" lon="0.17215">
        <ele>1658</ele>
        <time>2019-02-27T13:40:46Z</time>
      </trkpt>
      <trkpt lat="42.76711" lon="0.17232">
        <ele>1657</ele>
        <time>2019-02-27T13:40:48Z</time>
      </trkpt>
      <trkpt lat="42.76712" lon="0.17234">
        <ele>1657</ele>
        <time>2019-02-27T13:40:49Z</time>
      </trkpt>
      <trkpt lat="42.76712" lon="0.17236">
        <ele>1656</ele>
        <time>2019-02-27T13:40:50Z</time>
      </trkpt>
      <trkpt lat="42.76713" lon="0.17239">
        <ele>1656</ele>
        <time>2019-02-27T13:40:51Z</time>
      </trkpt>
      <trkpt lat="42.76715" lon="0.17246">
        <ele>1655</ele>
        <time>2019-02-27T13:40:52Z</time>
      </trkpt>
      <trkpt lat="42.76715" lon="0.17246">
        <ele>1654</ele>
        <time>2019-02-27T13:40:53Z</time>
      </trkpt>
      <trkpt lat="42.76715" lon="0.17246">
        <ele>1653</ele>
        <time>2019-02-27T13:40:54Z</time>
      </trkpt>
      <trkpt lat="42.76715" lon="0.17246">
        <ele>1653</ele>
        <time>2019-02-27T13:40:55Z</time>
      </trkpt>
      <trkpt lat="42.76715" lon="0.17246">
        <ele>1653</ele>
        <time>2019-02-27T13:40:56Z</time>
      </trkpt>
      <trkpt lat="42.76715" lon="0.17246">
        <ele>1653</ele>
        <time>2019-02-27T13:40:57Z</time>
      </trkpt>
      <trkpt lat="42.76715" lon="0.17246">
        <ele>1653</ele>
        <time>2019-02-27T13:40:58Z</time>
      </trkpt>
      <trkpt lat="42.76722" lon="0.17255">
        <ele>1653</ele>
        <time>2019-02-27T13:40:59Z</time>
      </trkpt>
      <trkpt lat="42.76722" lon="0.17255">
        <ele>1653</ele>
        <time>2019-02-27T13:41:00Z</time>
      </trkpt>
      <trkpt lat="42.76722" lon="0.17255">
        <ele>1652</ele>
        <time>2019-02-27T13:41:01Z</time>
      </trkpt>
      <trkpt lat="42.76722" lon="0.17255">
        <ele>1652</ele>
        <time>2019-02-27T13:41:02Z</time>
      </trkpt>
      <trkpt lat="42.76722" lon="0.17262">
        <ele>1652</ele>
        <time>2019-02-27T13:41:03Z</time>
      </trkpt>
      <trkpt lat="42.76722" lon="0.17262">
        <ele>1651</ele>
        <time>2019-02-27T13:41:04Z</time>
      </trkpt>
      <trkpt lat="42.76722" lon="0.17262">
        <ele>1651</ele>
        <time>2019-02-27T13:41:05Z</time>
      </trkpt>
      <trkpt lat="42.76722" lon="0.17262">
        <ele>1650</ele>
        <time>2019-02-27T13:41:06Z</time>
      </trkpt>
      <trkpt lat="42.76722" lon="0.17262">
        <ele>1650</ele>
        <time>2019-02-27T13:41:07Z</time>
      </trkpt>
      <trkpt lat="42.76725" lon="0.17274">
        <ele>1650</ele>
        <time>2019-02-27T13:41:08Z</time>
      </trkpt>
      <trkpt lat="42.76725" lon="0.17274">
        <ele>1650</ele>
        <time>2019-02-27T13:41:09Z</time>
      </trkpt>
      <trkpt lat="42.76725" lon="0.17274">
        <ele>1649</ele>
        <time>2019-02-27T13:41:10Z</time>
      </trkpt>
      <trkpt lat="42.76725" lon="0.17274">
        <ele>1648</ele>
        <time>2019-02-27T13:41:11Z</time>
      </trkpt>
      <trkpt lat="42.76723" lon="0.17286">
        <ele>1648</ele>
        <time>2019-02-27T13:41:12Z</time>
      </trkpt>
      <trkpt lat="42.76723" lon="0.17286">
        <ele>1648</ele>
        <time>2019-02-27T13:41:13Z</time>
      </trkpt>
      <trkpt lat="42.76723" lon="0.17286">
        <ele>1648</ele>
        <time>2019-02-27T13:41:14Z</time>
      </trkpt>
      <trkpt lat="42.76723" lon="0.17286">
        <ele>1648</ele>
        <time>2019-02-27T13:41:15Z</time>
      </trkpt>
      <trkpt lat="42.76723" lon="0.17286">
        <ele>1647</ele>
        <time>2019-02-27T13:41:16Z</time>
      </trkpt>
      <trkpt lat="42.76723" lon="0.17286">
        <ele>1647</ele>
        <time>2019-02-27T13:41:17Z</time>
      </trkpt>
      <trkpt lat="42.76723" lon="0.17286">
        <ele>1647</ele>
        <time>2019-02-27T13:41:18Z</time>
      </trkpt>
      <trkpt lat="42.76723" lon="0.17286">
        <ele>1646</ele>
        <time>2019-02-27T13:41:19Z</time>
      </trkpt>
      <trkpt lat="42.76723" lon="0.17286">
        <ele>1646</ele>
        <time>2019-02-27T13:41:20Z</time>
      </trkpt>
      <trkpt lat="42.76723" lon="0.17286">
        <ele>1645</ele>
        <time>2019-02-27T13:41:21Z</time>
      </trkpt>
      <trkpt lat="42.76723" lon="0.17286">
        <ele>1645</ele>
        <time>2019-02-27T13:41:22Z</time>
      </trkpt>
      <trkpt lat="42.76723" lon="0.17286">
        <ele>1645</ele>
        <time>2019-02-27T13:41:23Z</time>
      </trkpt>
      <trkpt lat="42.76723" lon="0.17286">
        <ele>1644</ele>
        <time>2019-02-27T13:41:24Z</time>
      </trkpt>
      <trkpt lat="42.76723" lon="0.17286">
        <ele>1644</ele>
        <time>2019-02-27T13:41:25Z</time>
      </trkpt>
      <trkpt lat="42.76723" lon="0.17286">
        <ele>1644</ele>
        <time>2019-02-27T13:41:26Z</time>
      </trkpt>
      <trkpt lat="42.76723" lon="0.17286">
        <ele>1644</ele>
        <time>2019-02-27T13:41:27Z</time>
      </trkpt>
      <trkpt lat="42.76723" lon="0.17286">
        <ele>1644</ele>
        <time>2019-02-27T13:41:28Z</time>
      </trkpt>
      <trkpt lat="42.76732" lon="0.1728">
        <ele>1644</ele>
        <time>2019-02-27T13:41:29Z</time>
      </trkpt>
      <trkpt lat="42.76732" lon="0.1728">
        <ele>1643</ele>
        <time>2019-02-27T13:41:30Z</time>
      </trkpt>
      <trkpt lat="42.76732" lon="0.1728">
        <ele>1643</ele>
        <time>2019-02-27T13:41:31Z</time>
      </trkpt>
      <trkpt lat="42.76732" lon="0.1728">
        <ele>1643</ele>
        <time>2019-02-27T13:41:32Z</time>
      </trkpt>
      <trkpt lat="42.76732" lon="0.1728">
        <ele>1643</ele>
        <time>2019-02-27T13:41:33Z</time>
      </trkpt>
      <trkpt lat="42.76741" lon="0.17282">
        <ele>1643</ele>
        <time>2019-02-27T13:41:34Z</time>
      </trkpt>
      <trkpt lat="42.76741" lon="0.17282">
        <ele>1643</ele>
        <time>2019-02-27T13:41:35Z</time>
      </trkpt>
      <trkpt lat="42.76741" lon="0.17282">
        <ele>1643</ele>
        <time>2019-02-27T13:41:36Z</time>
      </trkpt>
      <trkpt lat="42.76741" lon="0.17282">
        <ele>1642</ele>
        <time>2019-02-27T13:41:37Z</time>
      </trkpt>
      <trkpt lat="42.7675" lon="0.17287">
        <ele>1642</ele>
        <time>2019-02-27T13:41:38Z</time>
      </trkpt>
      <trkpt lat="42.7675" lon="0.17287">
        <ele>1642</ele>
        <time>2019-02-27T13:41:39Z</time>
      </trkpt>
      <trkpt lat="42.7675" lon="0.17287">
        <ele>1641</ele>
        <time>2019-02-27T13:41:40Z</time>
      </trkpt>
      <trkpt lat="42.7675" lon="0.17287">
        <ele>1640</ele>
        <time>2019-02-27T13:41:41Z</time>
      </trkpt>
      <trkpt lat="42.7675" lon="0.17287">
        <ele>1640</ele>
        <time>2019-02-27T13:41:42Z</time>
      </trkpt>
      <trkpt lat="42.7675" lon="0.17287">
        <ele>1640</ele>
        <time>2019-02-27T13:41:43Z</time>
      </trkpt>
      <trkpt lat="42.7675" lon="0.17287">
        <ele>1640</ele>
        <time>2019-02-27T13:41:44Z</time>
      </trkpt>
      <trkpt lat="42.7675" lon="0.17287">
        <ele>1640</ele>
        <time>2019-02-27T13:41:45Z</time>
      </trkpt>
      <trkpt lat="42.7675" lon="0.17287">
        <ele>1640</ele>
        <time>2019-02-27T13:41:46Z</time>
      </trkpt>
      <trkpt lat="42.7676" lon="0.17289">
        <ele>1639</ele>
        <time>2019-02-27T13:41:47Z</time>
      </trkpt>
      <trkpt lat="42.76761" lon="0.1729">
        <ele>1639</ele>
        <time>2019-02-27T13:41:48Z</time>
      </trkpt>
      <trkpt lat="42.76762" lon="0.1729">
        <ele>1638</ele>
        <time>2019-02-27T13:41:49Z</time>
      </trkpt>
      <trkpt lat="42.76762" lon="0.17291">
        <ele>1638</ele>
        <time>2019-02-27T13:41:50Z</time>
      </trkpt>
      <trkpt lat="42.76763" lon="0.17291">
        <ele>1638</ele>
        <time>2019-02-27T13:41:51Z</time>
      </trkpt>
      <trkpt lat="42.76763" lon="0.17292">
        <ele>1637</ele>
        <time>2019-02-27T13:41:52Z</time>
      </trkpt>
      <trkpt lat="42.76764" lon="0.17292">
        <ele>1637</ele>
        <time>2019-02-27T13:41:53Z</time>
      </trkpt>
      <trkpt lat="42.76765" lon="0.17293">
        <ele>1636</ele>
        <time>2019-02-27T13:41:54Z</time>
      </trkpt>
      <trkpt lat="42.76769" lon="0.17296">
        <ele>1636</ele>
        <time>2019-02-27T13:41:55Z</time>
      </trkpt>
      <trkpt lat="42.76769" lon="0.17296">
        <ele>1636</ele>
        <time>2019-02-27T13:41:56Z</time>
      </trkpt>
      <trkpt lat="42.76769" lon="0.17296">
        <ele>1635</ele>
        <time>2019-02-27T13:41:57Z</time>
      </trkpt>
      <trkpt lat="42.76781" lon="0.17299">
        <ele>1635</ele>
        <time>2019-02-27T13:41:58Z</time>
      </trkpt>
      <trkpt lat="42.76783" lon="0.17299">
        <ele>1634</ele>
        <time>2019-02-27T13:41:59Z</time>
      </trkpt>
      <trkpt lat="42.76785" lon="0.17299">
        <ele>1634</ele>
        <time>2019-02-27T13:42:00Z</time>
      </trkpt>
      <trkpt lat="42.76792" lon="0.173">
        <ele>1633</ele>
        <time>2019-02-27T13:42:01Z</time>
      </trkpt>
      <trkpt lat="42.76794" lon="0.173">
        <ele>1633</ele>
        <time>2019-02-27T13:42:02Z</time>
      </trkpt>
      <trkpt lat="42.76795" lon="0.17301">
        <ele>1632</ele>
        <time>2019-02-27T13:42:03Z</time>
      </trkpt>
      <trkpt lat="42.768" lon="0.17304">
        <ele>1631</ele>
        <time>2019-02-27T13:42:04Z</time>
      </trkpt>
      <trkpt lat="42.768" lon="0.17304">
        <ele>1631</ele>
        <time>2019-02-27T13:42:05Z</time>
      </trkpt>
      <trkpt lat="42.768" lon="0.17304">
        <ele>1630</ele>
        <time>2019-02-27T13:42:06Z</time>
      </trkpt>
      <trkpt lat="42.7681" lon="0.17309">
        <ele>1629</ele>
        <time>2019-02-27T13:42:07Z</time>
      </trkpt>
      <trkpt lat="42.7681" lon="0.17309">
        <ele>1629</ele>
        <time>2019-02-27T13:42:08Z</time>
      </trkpt>
      <trkpt lat="42.7681" lon="0.17309">
        <ele>1629</ele>
        <time>2019-02-27T13:42:09Z</time>
      </trkpt>
      <trkpt lat="42.7681" lon="0.17309">
        <ele>1629</ele>
        <time>2019-02-27T13:42:10Z</time>
      </trkpt>
      <trkpt lat="42.7681" lon="0.17309">
        <ele>1629</ele>
        <time>2019-02-27T13:42:11Z</time>
      </trkpt>
      <trkpt lat="42.7681" lon="0.17309">
        <ele>1629</ele>
        <time>2019-02-27T13:42:12Z</time>
      </trkpt>
      <trkpt lat="42.7681" lon="0.17309">
        <ele>1629</ele>
        <time>2019-02-27T13:42:13Z</time>
      </trkpt>
      <trkpt lat="42.7681" lon="0.17309">
        <ele>1629</ele>
        <time>2019-02-27T13:42:14Z</time>
      </trkpt>
      <trkpt lat="42.7681" lon="0.17309">
        <ele>1629</ele>
        <time>2019-02-27T13:42:15Z</time>
      </trkpt>
      <trkpt lat="42.7681" lon="0.17309">
        <ele>1629</ele>
        <time>2019-02-27T13:42:16Z</time>
      </trkpt>
      <trkpt lat="42.76811" lon="0.17321">
        <ele>1629</ele>
        <time>2019-02-27T13:42:17Z</time>
      </trkpt>
      <trkpt lat="42.76811" lon="0.17321">
        <ele>1629</ele>
        <time>2019-02-27T13:42:18Z</time>
      </trkpt>
      <trkpt lat="42.76811" lon="0.17321">
        <ele>1629</ele>
        <time>2019-02-27T13:42:19Z</time>
      </trkpt>
      <trkpt lat="42.76811" lon="0.17321">
        <ele>1629</ele>
        <time>2019-02-27T13:42:20Z</time>
      </trkpt>
      <trkpt lat="42.76811" lon="0.17321">
        <ele>1629</ele>
        <time>2019-02-27T13:42:21Z</time>
      </trkpt>
      <trkpt lat="42.76811" lon="0.17321">
        <ele>1629</ele>
        <time>2019-02-27T13:42:22Z</time>
      </trkpt>
      <trkpt lat="42.76811" lon="0.17321">
        <ele>1629</ele>
        <time>2019-02-27T13:42:23Z</time>
      </trkpt>
      <trkpt lat="42.76811" lon="0.17321">
        <ele>1629</ele>
        <time>2019-02-27T13:42:24Z</time>
      </trkpt>
      <trkpt lat="42.76811" lon="0.17321">
        <ele>1629</ele>
        <time>2019-02-27T13:42:25Z</time>
      </trkpt>
      <trkpt lat="42.76811" lon="0.17321">
        <ele>1629</ele>
        <time>2019-02-27T13:42:26Z</time>
      </trkpt>
      <trkpt lat="42.76811" lon="0.17321">
        <ele>1629</ele>
        <time>2019-02-27T13:42:27Z</time>
      </trkpt>
      <trkpt lat="42.76811" lon="0.17321">
        <ele>1629</ele>
        <time>2019-02-27T13:42:28Z</time>
      </trkpt>
      <trkpt lat="42.76811" lon="0.17321">
        <ele>1629</ele>
        <time>2019-02-27T13:42:29Z</time>
      </trkpt>
      <trkpt lat="42.76811" lon="0.17321">
        <ele>1629</ele>
        <time>2019-02-27T13:42:30Z</time>
      </trkpt>
      <trkpt lat="42.76811" lon="0.17321">
        <ele>1629</ele>
        <time>2019-02-27T13:42:31Z</time>
      </trkpt>
      <trkpt lat="42.76811" lon="0.17321">
        <ele>1629</ele>
        <time>2019-02-27T13:42:32Z</time>
      </trkpt>
      <trkpt lat="42.76811" lon="0.17321">
        <ele>1629</ele>
        <time>2019-02-27T13:42:33Z</time>
      </trkpt>
      <trkpt lat="42.76811" lon="0.17321">
        <ele>1628</ele>
        <time>2019-02-27T13:42:34Z</time>
      </trkpt>
      <trkpt lat="42.76811" lon="0.17321">
        <ele>1628</ele>
        <time>2019-02-27T13:42:35Z</time>
      </trkpt>
      <trkpt lat="42.76811" lon="0.17321">
        <ele>1628</ele>
        <time>2019-02-27T13:42:36Z</time>
      </trkpt>
      <trkpt lat="42.76811" lon="0.17321">
        <ele>1628</ele>
        <time>2019-02-27T13:42:37Z</time>
      </trkpt>
      <trkpt lat="42.76811" lon="0.17321">
        <ele>1628</ele>
        <time>2019-02-27T13:42:38Z</time>
      </trkpt>
      <trkpt lat="42.76811" lon="0.17321">
        <ele>1627</ele>
        <time>2019-02-27T13:42:39Z</time>
      </trkpt>
      <trkpt lat="42.76811" lon="0.17321">
        <ele>1627</ele>
        <time>2019-02-27T13:42:40Z</time>
      </trkpt>
      <trkpt lat="42.76811" lon="0.17321">
        <ele>1627</ele>
        <time>2019-02-27T13:42:41Z</time>
      </trkpt>
      <trkpt lat="42.76816" lon="0.17334">
        <ele>1626</ele>
        <time>2019-02-27T13:42:42Z</time>
      </trkpt>
      <trkpt lat="42.76817" lon="0.17335">
        <ele>1626</ele>
        <time>2019-02-27T13:42:43Z</time>
      </trkpt>
      <trkpt lat="42.76818" lon="0.17336">
        <ele>1625</ele>
        <time>2019-02-27T13:42:44Z</time>
      </trkpt>
      <trkpt lat="42.76819" lon="0.17338">
        <ele>1625</ele>
        <time>2019-02-27T13:42:45Z</time>
      </trkpt>
      <trkpt lat="42.7682" lon="0.17339">
        <ele>1624</ele>
        <time>2019-02-27T13:42:46Z</time>
      </trkpt>
      <trkpt lat="42.76824" lon="0.17346">
        <ele>1624</ele>
        <time>2019-02-27T13:42:47Z</time>
      </trkpt>
      <trkpt lat="42.76824" lon="0.17346">
        <ele>1623</ele>
        <time>2019-02-27T13:42:48Z</time>
      </trkpt>
      <trkpt lat="42.76824" lon="0.17346">
        <ele>1622</ele>
        <time>2019-02-27T13:42:49Z</time>
      </trkpt>
      <trkpt lat="42.76824" lon="0.17346">
        <ele>1622</ele>
        <time>2019-02-27T13:42:50Z</time>
      </trkpt>
      <trkpt lat="42.76824" lon="0.17346">
        <ele>1622</ele>
        <time>2019-02-27T13:42:51Z</time>
      </trkpt>
      <trkpt lat="42.76833" lon="0.17348">
        <ele>1621</ele>
        <time>2019-02-27T13:42:52Z</time>
      </trkpt>
      <trkpt lat="42.76833" lon="0.17348">
        <ele>1620</ele>
        <time>2019-02-27T13:42:53Z</time>
      </trkpt>
      <trkpt lat="42.76833" lon="0.17348">
        <ele>1619</ele>
        <time>2019-02-27T13:42:54Z</time>
      </trkpt>
      <trkpt lat="42.76834" lon="0.17348">
        <ele>1619</ele>
        <time>2019-02-27T13:42:55Z</time>
      </trkpt>
      <trkpt lat="42.76834" lon="0.17348">
        <ele>1619</ele>
        <time>2019-02-27T13:42:56Z</time>
      </trkpt>
      <trkpt lat="42.76834" lon="0.17348">
        <ele>1619</ele>
        <time>2019-02-27T13:42:57Z</time>
      </trkpt>
      <trkpt lat="42.76834" lon="0.17348">
        <ele>1618</ele>
        <time>2019-02-27T13:42:58Z</time>
      </trkpt>
      <trkpt lat="42.76834" lon="0.17348">
        <ele>1618</ele>
        <time>2019-02-27T13:42:59Z</time>
      </trkpt>
      <trkpt lat="42.76834" lon="0.17348">
        <ele>1618</ele>
        <time>2019-02-27T13:43:00Z</time>
      </trkpt>
      <trkpt lat="42.76834" lon="0.17348">
        <ele>1618</ele>
        <time>2019-02-27T13:43:01Z</time>
      </trkpt>
      <trkpt lat="42.76834" lon="0.17348">
        <ele>1618</ele>
        <time>2019-02-27T13:43:02Z</time>
      </trkpt>
      <trkpt lat="42.76835" lon="0.17348">
        <ele>1617</ele>
        <time>2019-02-27T13:43:03Z</time>
      </trkpt>
      <trkpt lat="42.76835" lon="0.17348">
        <ele>1617</ele>
        <time>2019-02-27T13:43:04Z</time>
      </trkpt>
      <trkpt lat="42.76835" lon="0.17348">
        <ele>1617</ele>
        <time>2019-02-27T13:43:05Z</time>
      </trkpt>
      <trkpt lat="42.76835" lon="0.17348">
        <ele>1617</ele>
        <time>2019-02-27T13:43:06Z</time>
      </trkpt>
      <trkpt lat="42.76835" lon="0.17348">
        <ele>1617</ele>
        <time>2019-02-27T13:43:07Z</time>
      </trkpt>
      <trkpt lat="42.76835" lon="0.17348">
        <ele>1617</ele>
        <time>2019-02-27T13:43:08Z</time>
      </trkpt>
      <trkpt lat="42.76835" lon="0.17348">
        <ele>1617</ele>
        <time>2019-02-27T13:43:09Z</time>
      </trkpt>
      <trkpt lat="42.76835" lon="0.17348">
        <ele>1617</ele>
        <time>2019-02-27T13:43:10Z</time>
      </trkpt>
      <trkpt lat="42.76835" lon="0.17348">
        <ele>1617</ele>
        <time>2019-02-27T13:43:11Z</time>
      </trkpt>
      <trkpt lat="42.76836" lon="0.17348">
        <ele>1617</ele>
        <time>2019-02-27T13:43:12Z</time>
      </trkpt>
      <trkpt lat="42.76836" lon="0.17348">
        <ele>1617</ele>
        <time>2019-02-27T13:43:13Z</time>
      </trkpt>
      <trkpt lat="42.76836" lon="0.17347">
        <ele>1617</ele>
        <time>2019-02-27T13:43:14Z</time>
      </trkpt>
      <trkpt lat="42.76836" lon="0.17347">
        <ele>1617</ele>
        <time>2019-02-27T13:43:15Z</time>
      </trkpt>
      <trkpt lat="42.76836" lon="0.17347">
        <ele>1617</ele>
        <time>2019-02-27T13:43:16Z</time>
      </trkpt>
      <trkpt lat="42.76836" lon="0.17347">
        <ele>1617</ele>
        <time>2019-02-27T13:43:17Z</time>
      </trkpt>
      <trkpt lat="42.76836" lon="0.17347">
        <ele>1617</ele>
        <time>2019-02-27T13:43:18Z</time>
      </trkpt>
      <trkpt lat="42.76836" lon="0.17347">
        <ele>1617</ele>
        <time>2019-02-27T13:43:19Z</time>
      </trkpt>
      <trkpt lat="42.76836" lon="0.17347">
        <ele>1617</ele>
        <time>2019-02-27T13:43:20Z</time>
      </trkpt>
      <trkpt lat="42.76837" lon="0.17347">
        <ele>1617</ele>
        <time>2019-02-27T13:43:21Z</time>
      </trkpt>
      <trkpt lat="42.76837" lon="0.17347">
        <ele>1617</ele>
        <time>2019-02-27T13:43:22Z</time>
      </trkpt>
      <trkpt lat="42.76837" lon="0.17347">
        <ele>1617</ele>
        <time>2019-02-27T13:43:23Z</time>
      </trkpt>
      <trkpt lat="42.76837" lon="0.17347">
        <ele>1617</ele>
        <time>2019-02-27T13:43:24Z</time>
      </trkpt>
      <trkpt lat="42.76837" lon="0.17347">
        <ele>1617</ele>
        <time>2019-02-27T13:43:25Z</time>
      </trkpt>
      <trkpt lat="42.76837" lon="0.17347">
        <ele>1617</ele>
        <time>2019-02-27T13:43:26Z</time>
      </trkpt>
      <trkpt lat="42.76837" lon="0.17347">
        <ele>1617</ele>
        <time>2019-02-27T13:43:27Z</time>
      </trkpt>
      <trkpt lat="42.76837" lon="0.17347">
        <ele>1617</ele>
        <time>2019-02-27T13:43:28Z</time>
      </trkpt>
      <trkpt lat="42.76838" lon="0.17347">
        <ele>1617</ele>
        <time>2019-02-27T13:43:29Z</time>
      </trkpt>
      <trkpt lat="42.76838" lon="0.17347">
        <ele>1617</ele>
        <time>2019-02-27T13:43:30Z</time>
      </trkpt>
      <trkpt lat="42.76838" lon="0.17347">
        <ele>1617</ele>
        <time>2019-02-27T13:43:31Z</time>
      </trkpt>
      <trkpt lat="42.76838" lon="0.17347">
        <ele>1617</ele>
        <time>2019-02-27T13:43:32Z</time>
      </trkpt>
      <trkpt lat="42.76838" lon="0.17347">
        <ele>1617</ele>
        <time>2019-02-27T13:43:33Z</time>
      </trkpt>
      <trkpt lat="42.76838" lon="0.17347">
        <ele>1617</ele>
        <time>2019-02-27T13:43:34Z</time>
      </trkpt>
      <trkpt lat="42.76838" lon="0.17347">
        <ele>1617</ele>
        <time>2019-02-27T13:43:35Z</time>
      </trkpt>
      <trkpt lat="42.76838" lon="0.17347">
        <ele>1617</ele>
        <time>2019-02-27T13:43:36Z</time>
      </trkpt>
      <trkpt lat="42.76838" lon="0.17347">
        <ele>1617</ele>
        <time>2019-02-27T13:43:37Z</time>
      </trkpt>
      <trkpt lat="42.76839" lon="0.17347">
        <ele>1617</ele>
        <time>2019-02-27T13:43:38Z</time>
      </trkpt>
      <trkpt lat="42.76839" lon="0.17347">
        <ele>1617</ele>
        <time>2019-02-27T13:43:39Z</time>
      </trkpt>
      <trkpt lat="42.76845" lon="0.17346">
        <ele>1617</ele>
        <time>2019-02-27T13:43:40Z</time>
      </trkpt>
      <trkpt lat="42.76845" lon="0.17346">
        <ele>1617</ele>
        <time>2019-02-27T13:43:41Z</time>
      </trkpt>
      <trkpt lat="42.76846" lon="0.17347">
        <ele>1616</ele>
        <time>2019-02-27T13:43:42Z</time>
      </trkpt>
      <trkpt lat="42.76847" lon="0.17348">
        <ele>1615</ele>
        <time>2019-02-27T13:43:43Z</time>
      </trkpt>
      <trkpt lat="42.76847" lon="0.17349">
        <ele>1615</ele>
        <time>2019-02-27T13:43:44Z</time>
      </trkpt>
      <trkpt lat="42.76848" lon="0.17349">
        <ele>1615</ele>
        <time>2019-02-27T13:43:45Z</time>
      </trkpt>
      <trkpt lat="42.76852" lon="0.17354">
        <ele>1615</ele>
        <time>2019-02-27T13:43:46Z</time>
      </trkpt>
      <trkpt lat="42.76852" lon="0.17354">
        <ele>1614</ele>
        <time>2019-02-27T13:43:47Z</time>
      </trkpt>
      <trkpt lat="42.76852" lon="0.17354">
        <ele>1614</ele>
        <time>2019-02-27T13:43:48Z</time>
      </trkpt>
      <trkpt lat="42.76852" lon="0.17354">
        <ele>1613</ele>
        <time>2019-02-27T13:43:49Z</time>
      </trkpt>
      <trkpt lat="42.76852" lon="0.17354">
        <ele>1613</ele>
        <time>2019-02-27T13:43:50Z</time>
      </trkpt>
      <trkpt lat="42.76852" lon="0.17354">
        <ele>1613</ele>
        <time>2019-02-27T13:43:51Z</time>
      </trkpt>
      <trkpt lat="42.76852" lon="0.17354">
        <ele>1613</ele>
        <time>2019-02-27T13:43:52Z</time>
      </trkpt>
      <trkpt lat="42.76852" lon="0.17354">
        <ele>1613</ele>
        <time>2019-02-27T13:43:53Z</time>
      </trkpt>
      <trkpt lat="42.76853" lon="0.1736">
        <ele>1613</ele>
        <time>2019-02-27T13:43:54Z</time>
      </trkpt>
      <trkpt lat="42.76853" lon="0.1736">
        <ele>1613</ele>
        <time>2019-02-27T13:43:55Z</time>
      </trkpt>
      <trkpt lat="42.76853" lon="0.1736">
        <ele>1613</ele>
        <time>2019-02-27T13:43:56Z</time>
      </trkpt>
      <trkpt lat="42.76853" lon="0.1736">
        <ele>1613</ele>
        <time>2019-02-27T13:43:57Z</time>
      </trkpt>
      <trkpt lat="42.76853" lon="0.1736">
        <ele>1613</ele>
        <time>2019-02-27T13:43:58Z</time>
      </trkpt>
      <trkpt lat="42.76853" lon="0.1736">
        <ele>1613</ele>
        <time>2019-02-27T13:43:59Z</time>
      </trkpt>
      <trkpt lat="42.76853" lon="0.1736">
        <ele>1613</ele>
        <time>2019-02-27T13:44:00Z</time>
      </trkpt>
      <trkpt lat="42.76853" lon="0.1736">
        <ele>1613</ele>
        <time>2019-02-27T13:44:01Z</time>
      </trkpt>
      <trkpt lat="42.76853" lon="0.1736">
        <ele>1613</ele>
        <time>2019-02-27T13:44:02Z</time>
      </trkpt>
      <trkpt lat="42.76854" lon="0.17359">
        <ele>1613</ele>
        <time>2019-02-27T13:44:03Z</time>
      </trkpt>
      <trkpt lat="42.76854" lon="0.17359">
        <ele>1613</ele>
        <time>2019-02-27T13:44:04Z</time>
      </trkpt>
      <trkpt lat="42.76854" lon="0.17359">
        <ele>1613</ele>
        <time>2019-02-27T13:44:05Z</time>
      </trkpt>
      <trkpt lat="42.76854" lon="0.17359">
        <ele>1613</ele>
        <time>2019-02-27T13:44:06Z</time>
      </trkpt>
      <trkpt lat="42.76854" lon="0.17359">
        <ele>1613</ele>
        <time>2019-02-27T13:44:07Z</time>
      </trkpt>
      <trkpt lat="42.76854" lon="0.17359">
        <ele>1613</ele>
        <time>2019-02-27T13:44:08Z</time>
      </trkpt>
      <trkpt lat="42.76854" lon="0.17359">
        <ele>1613</ele>
        <time>2019-02-27T13:44:09Z</time>
      </trkpt>
      <trkpt lat="42.76854" lon="0.17359">
        <ele>1613</ele>
        <time>2019-02-27T13:44:10Z</time>
      </trkpt>
      <trkpt lat="42.76854" lon="0.17359">
        <ele>1613</ele>
        <time>2019-02-27T13:44:11Z</time>
      </trkpt>
      <trkpt lat="42.76854" lon="0.17359">
        <ele>1614</ele>
        <time>2019-02-27T13:44:12Z</time>
      </trkpt>
      <trkpt lat="42.76854" lon="0.17359">
        <ele>1614</ele>
        <time>2019-02-27T13:44:13Z</time>
      </trkpt>
      <trkpt lat="42.76854" lon="0.17359">
        <ele>1614</ele>
        <time>2019-02-27T13:44:14Z</time>
      </trkpt>
      <trkpt lat="42.76854" lon="0.17359">
        <ele>1614</ele>
        <time>2019-02-27T13:44:15Z</time>
      </trkpt>
      <trkpt lat="42.76854" lon="0.17359">
        <ele>1614</ele>
        <time>2019-02-27T13:44:16Z</time>
      </trkpt>
      <trkpt lat="42.76854" lon="0.17359">
        <ele>1613</ele>
        <time>2019-02-27T13:44:17Z</time>
      </trkpt>
      <trkpt lat="42.76854" lon="0.17359">
        <ele>1613</ele>
        <time>2019-02-27T13:44:18Z</time>
      </trkpt>
      <trkpt lat="42.76854" lon="0.17359">
        <ele>1613</ele>
        <time>2019-02-27T13:44:19Z</time>
      </trkpt>
      <trkpt lat="42.76854" lon="0.17359">
        <ele>1613</ele>
        <time>2019-02-27T13:44:20Z</time>
      </trkpt>
      <trkpt lat="42.76854" lon="0.17359">
        <ele>1613</ele>
        <time>2019-02-27T13:44:21Z</time>
      </trkpt>
      <trkpt lat="42.76854" lon="0.17359">
        <ele>1613</ele>
        <time>2019-02-27T13:44:22Z</time>
      </trkpt>
      <trkpt lat="42.76854" lon="0.17359">
        <ele>1613</ele>
        <time>2019-02-27T13:44:23Z</time>
      </trkpt>
      <trkpt lat="42.76854" lon="0.17359">
        <ele>1613</ele>
        <time>2019-02-27T13:44:24Z</time>
      </trkpt>
      <trkpt lat="42.76854" lon="0.17359">
        <ele>1613</ele>
        <time>2019-02-27T13:44:25Z</time>
      </trkpt>
      <trkpt lat="42.76854" lon="0.17359">
        <ele>1613</ele>
        <time>2019-02-27T13:44:26Z</time>
      </trkpt>
      <trkpt lat="42.76854" lon="0.17359">
        <ele>1613</ele>
        <time>2019-02-27T13:44:27Z</time>
      </trkpt>
      <trkpt lat="42.76854" lon="0.17359">
        <ele>1613</ele>
        <time>2019-02-27T13:44:28Z</time>
      </trkpt>
      <trkpt lat="42.76854" lon="0.17359">
        <ele>1613</ele>
        <time>2019-02-27T13:44:29Z</time>
      </trkpt>
      <trkpt lat="42.76854" lon="0.17359">
        <ele>1613</ele>
        <time>2019-02-27T13:44:30Z</time>
      </trkpt>
      <trkpt lat="42.76854" lon="0.17359">
        <ele>1613</ele>
        <time>2019-02-27T13:44:31Z</time>
      </trkpt>
      <trkpt lat="42.76854" lon="0.17359">
        <ele>1613</ele>
        <time>2019-02-27T13:44:32Z</time>
      </trkpt>
      <trkpt lat="42.76854" lon="0.17359">
        <ele>1613</ele>
        <time>2019-02-27T13:44:33Z</time>
      </trkpt>
      <trkpt lat="42.76854" lon="0.17359">
        <ele>1613</ele>
        <time>2019-02-27T13:44:34Z</time>
      </trkpt>
      <trkpt lat="42.76854" lon="0.17359">
        <ele>1613</ele>
        <time>2019-02-27T13:44:35Z</time>
      </trkpt>
      <trkpt lat="42.76854" lon="0.17359">
        <ele>1613</ele>
        <time>2019-02-27T13:44:36Z</time>
      </trkpt>
      <trkpt lat="42.76854" lon="0.17359">
        <ele>1613</ele>
        <time>2019-02-27T13:44:37Z</time>
      </trkpt>
      <trkpt lat="42.76854" lon="0.17359">
        <ele>1613</ele>
        <time>2019-02-27T13:44:38Z</time>
      </trkpt>
      <trkpt lat="42.76854" lon="0.17359">
        <ele>1613</ele>
        <time>2019-02-27T13:44:39Z</time>
      </trkpt>
      <trkpt lat="42.76854" lon="0.17359">
        <ele>1613</ele>
        <time>2019-02-27T13:44:40Z</time>
      </trkpt>
      <trkpt lat="42.76854" lon="0.17359">
        <ele>1612</ele>
        <time>2019-02-27T13:44:41Z</time>
      </trkpt>
      <trkpt lat="42.76856" lon="0.17358">
        <ele>1612</ele>
        <time>2019-02-27T13:44:42Z</time>
      </trkpt>
      <trkpt lat="42.76856" lon="0.17358">
        <ele>1612</ele>
        <time>2019-02-27T13:44:43Z</time>
      </trkpt>
      <trkpt lat="42.76856" lon="0.17358">
        <ele>1612</ele>
        <time>2019-02-27T13:44:44Z</time>
      </trkpt>
      <trkpt lat="42.76856" lon="0.17358">
        <ele>1612</ele>
        <time>2019-02-27T13:44:45Z</time>
      </trkpt>
      <trkpt lat="42.76856" lon="0.17358">
        <ele>1612</ele>
        <time>2019-02-27T13:44:46Z</time>
      </trkpt>
      <trkpt lat="42.76856" lon="0.17358">
        <ele>1612</ele>
        <time>2019-02-27T13:44:47Z</time>
      </trkpt>
      <trkpt lat="42.76856" lon="0.17358">
        <ele>1612</ele>
        <time>2019-02-27T13:44:48Z</time>
      </trkpt>
      <trkpt lat="42.76856" lon="0.17358">
        <ele>1612</ele>
        <time>2019-02-27T13:44:49Z</time>
      </trkpt>
      <trkpt lat="42.76856" lon="0.17358">
        <ele>1612</ele>
        <time>2019-02-27T13:44:50Z</time>
      </trkpt>
      <trkpt lat="42.76856" lon="0.17358">
        <ele>1612</ele>
        <time>2019-02-27T13:44:51Z</time>
      </trkpt>
      <trkpt lat="42.76856" lon="0.17358">
        <ele>1613</ele>
        <time>2019-02-27T13:44:52Z</time>
      </trkpt>
      <trkpt lat="42.76856" lon="0.17358">
        <ele>1613</ele>
        <time>2019-02-27T13:44:53Z</time>
      </trkpt>
      <trkpt lat="42.76856" lon="0.17358">
        <ele>1613</ele>
        <time>2019-02-27T13:44:54Z</time>
      </trkpt>
      <trkpt lat="42.76856" lon="0.17358">
        <ele>1613</ele>
        <time>2019-02-27T13:44:55Z</time>
      </trkpt>
      <trkpt lat="42.76856" lon="0.17358">
        <ele>1613</ele>
        <time>2019-02-27T13:44:56Z</time>
      </trkpt>
      <trkpt lat="42.76856" lon="0.17358">
        <ele>1613</ele>
        <time>2019-02-27T13:44:57Z</time>
      </trkpt>
      <trkpt lat="42.76856" lon="0.17358">
        <ele>1613</ele>
        <time>2019-02-27T13:44:58Z</time>
      </trkpt>
      <trkpt lat="42.76856" lon="0.17358">
        <ele>1613</ele>
        <time>2019-02-27T13:44:59Z</time>
      </trkpt>
      <trkpt lat="42.76856" lon="0.17358">
        <ele>1613</ele>
        <time>2019-02-27T13:45:00Z</time>
      </trkpt>
      <trkpt lat="42.76856" lon="0.17358">
        <ele>1613</ele>
        <time>2019-02-27T13:45:01Z</time>
      </trkpt>
      <trkpt lat="42.76856" lon="0.17358">
        <ele>1613</ele>
        <time>2019-02-27T13:45:02Z</time>
      </trkpt>
      <trkpt lat="42.76856" lon="0.17358">
        <ele>1612</ele>
        <time>2019-02-27T13:45:03Z</time>
      </trkpt>
      <trkpt lat="42.76856" lon="0.17358">
        <ele>1612</ele>
        <time>2019-02-27T13:45:04Z</time>
      </trkpt>
      <trkpt lat="42.76856" lon="0.17358">
        <ele>1612</ele>
        <time>2019-02-27T13:45:05Z</time>
      </trkpt>
      <trkpt lat="42.76856" lon="0.17358">
        <ele>1612</ele>
        <time>2019-02-27T13:45:06Z</time>
      </trkpt>
      <trkpt lat="42.76856" lon="0.17358">
        <ele>1612</ele>
        <time>2019-02-27T13:45:07Z</time>
      </trkpt>
      <trkpt lat="42.76856" lon="0.17358">
        <ele>1612</ele>
        <time>2019-02-27T13:45:08Z</time>
      </trkpt>
      <trkpt lat="42.76856" lon="0.17358">
        <ele>1612</ele>
        <time>2019-02-27T13:45:09Z</time>
      </trkpt>
      <trkpt lat="42.76856" lon="0.17358">
        <ele>1612</ele>
        <time>2019-02-27T13:45:10Z</time>
      </trkpt>
      <trkpt lat="42.76856" lon="0.17358">
        <ele>1612</ele>
        <time>2019-02-27T13:45:11Z</time>
      </trkpt>
      <trkpt lat="42.76856" lon="0.17358">
        <ele>1612</ele>
        <time>2019-02-27T13:45:12Z</time>
      </trkpt>
      <trkpt lat="42.76858" lon="0.1737">
        <ele>1611</ele>
        <time>2019-02-27T13:45:13Z</time>
      </trkpt>
      <trkpt lat="42.76858" lon="0.1737">
        <ele>1610</ele>
        <time>2019-02-27T13:45:14Z</time>
      </trkpt>
      <trkpt lat="42.76858" lon="0.1737">
        <ele>1610</ele>
        <time>2019-02-27T13:45:15Z</time>
      </trkpt>
      <trkpt lat="42.76858" lon="0.1737">
        <ele>1609</ele>
        <time>2019-02-27T13:45:16Z</time>
      </trkpt>
      <trkpt lat="42.76858" lon="0.1737">
        <ele>1609</ele>
        <time>2019-02-27T13:45:17Z</time>
      </trkpt>
      <trkpt lat="42.76867" lon="0.17377">
        <ele>1608</ele>
        <time>2019-02-27T13:45:18Z</time>
      </trkpt>
      <trkpt lat="42.76867" lon="0.17377">
        <ele>1608</ele>
        <time>2019-02-27T13:45:19Z</time>
      </trkpt>
      <trkpt lat="42.76873" lon="0.1738">
        <ele>1608</ele>
        <time>2019-02-27T13:45:20Z</time>
      </trkpt>
      <trkpt lat="42.76873" lon="0.1738">
        <ele>1608</ele>
        <time>2019-02-27T13:45:21Z</time>
      </trkpt>
      <trkpt lat="42.76873" lon="0.1738">
        <ele>1608</ele>
        <time>2019-02-27T13:45:22Z</time>
      </trkpt>
      <trkpt lat="42.76877" lon="0.17383">
        <ele>1607</ele>
        <time>2019-02-27T13:45:23Z</time>
      </trkpt>
      <trkpt lat="42.76879" lon="0.17384">
        <ele>1607</ele>
        <time>2019-02-27T13:45:24Z</time>
      </trkpt>
      <trkpt lat="42.76883" lon="0.17385">
        <ele>1607</ele>
        <time>2019-02-27T13:45:25Z</time>
      </trkpt>
      <trkpt lat="42.76884" lon="0.17386">
        <ele>1606</ele>
        <time>2019-02-27T13:45:26Z</time>
      </trkpt>
      <trkpt lat="42.76885" lon="0.17386">
        <ele>1605</ele>
        <time>2019-02-27T13:45:27Z</time>
      </trkpt>
      <trkpt lat="42.76886" lon="0.17386">
        <ele>1605</ele>
        <time>2019-02-27T13:45:28Z</time>
      </trkpt>
      <trkpt lat="42.76888" lon="0.17387">
        <ele>1605</ele>
        <time>2019-02-27T13:45:29Z</time>
      </trkpt>
      <trkpt lat="42.76894" lon="0.1739">
        <ele>1604</ele>
        <time>2019-02-27T13:45:30Z</time>
      </trkpt>
      <trkpt lat="42.76896" lon="0.17391">
        <ele>1603</ele>
        <time>2019-02-27T13:45:31Z</time>
      </trkpt>
      <trkpt lat="42.76898" lon="0.17393">
        <ele>1602</ele>
        <time>2019-02-27T13:45:32Z</time>
      </trkpt>
      <trkpt lat="42.76903" lon="0.17397">
        <ele>1602</ele>
        <time>2019-02-27T13:45:33Z</time>
      </trkpt>
      <trkpt lat="42.76907" lon="0.17401">
        <ele>1601</ele>
        <time>2019-02-27T13:45:34Z</time>
      </trkpt>
      <trkpt lat="42.76908" lon="0.17403">
        <ele>1600</ele>
        <time>2019-02-27T13:45:35Z</time>
      </trkpt>
      <trkpt lat="42.7691" lon="0.17404">
        <ele>1599</ele>
        <time>2019-02-27T13:45:36Z</time>
      </trkpt>
      <trkpt lat="42.76916" lon="0.1741">
        <ele>1598</ele>
        <time>2019-02-27T13:45:37Z</time>
      </trkpt>
      <trkpt lat="42.76917" lon="0.17412">
        <ele>1597</ele>
        <time>2019-02-27T13:45:38Z</time>
      </trkpt>
      <trkpt lat="42.76919" lon="0.17413">
        <ele>1597</ele>
        <time>2019-02-27T13:45:39Z</time>
      </trkpt>
      <trkpt lat="42.76923" lon="0.17419">
        <ele>1596</ele>
        <time>2019-02-27T13:45:40Z</time>
      </trkpt>
      <trkpt lat="42.76923" lon="0.17419">
        <ele>1595</ele>
        <time>2019-02-27T13:45:41Z</time>
      </trkpt>
      <trkpt lat="42.76925" lon="0.17427">
        <ele>1594</ele>
        <time>2019-02-27T13:45:42Z</time>
      </trkpt>
      <trkpt lat="42.76926" lon="0.1743">
        <ele>1594</ele>
        <time>2019-02-27T13:45:43Z</time>
      </trkpt>
      <trkpt lat="42.76926" lon="0.1743">
        <ele>1593</ele>
        <time>2019-02-27T13:45:44Z</time>
      </trkpt>
      <trkpt lat="42.76927" lon="0.17433">
        <ele>1593</ele>
        <time>2019-02-27T13:45:45Z</time>
      </trkpt>
      <trkpt lat="42.76929" lon="0.17436">
        <ele>1592</ele>
        <time>2019-02-27T13:45:46Z</time>
      </trkpt>
      <trkpt lat="42.7693" lon="0.17439">
        <ele>1592</ele>
        <time>2019-02-27T13:45:47Z</time>
      </trkpt>
      <trkpt lat="42.76932" lon="0.17442">
        <ele>1592</ele>
        <time>2019-02-27T13:45:48Z</time>
      </trkpt>
      <trkpt lat="42.76932" lon="0.17442">
        <ele>1591</ele>
        <time>2019-02-27T13:45:49Z</time>
      </trkpt>
      <trkpt lat="42.76932" lon="0.17442">
        <ele>1590</ele>
        <time>2019-02-27T13:45:50Z</time>
      </trkpt>
      <trkpt lat="42.76932" lon="0.17442">
        <ele>1590</ele>
        <time>2019-02-27T13:45:51Z</time>
      </trkpt>
      <trkpt lat="42.76932" lon="0.17442">
        <ele>1590</ele>
        <time>2019-02-27T13:45:52Z</time>
      </trkpt>
      <trkpt lat="42.76932" lon="0.17442">
        <ele>1590</ele>
        <time>2019-02-27T13:45:53Z</time>
      </trkpt>
      <trkpt lat="42.76932" lon="0.17442">
        <ele>1590</ele>
        <time>2019-02-27T13:45:54Z</time>
      </trkpt>
      <trkpt lat="42.76932" lon="0.17442">
        <ele>1590</ele>
        <time>2019-02-27T13:45:55Z</time>
      </trkpt>
      <trkpt lat="42.76941" lon="0.17451">
        <ele>1590</ele>
        <time>2019-02-27T13:45:56Z</time>
      </trkpt>
      <trkpt lat="42.76942" lon="0.17452">
        <ele>1590</ele>
        <time>2019-02-27T13:45:57Z</time>
      </trkpt>
      <trkpt lat="42.76943" lon="0.17454">
        <ele>1589</ele>
        <time>2019-02-27T13:45:58Z</time>
      </trkpt>
      <trkpt lat="42.76944" lon="0.17455">
        <ele>1588</ele>
        <time>2019-02-27T13:45:59Z</time>
      </trkpt>
      <trkpt lat="42.76948" lon="0.1746">
        <ele>1587</ele>
        <time>2019-02-27T13:46:00Z</time>
      </trkpt>
      <trkpt lat="42.76948" lon="0.1746">
        <ele>1585</ele>
        <time>2019-02-27T13:46:01Z</time>
      </trkpt>
      <trkpt lat="42.76948" lon="0.1746">
        <ele>1585</ele>
        <time>2019-02-27T13:46:02Z</time>
      </trkpt>
      <trkpt lat="42.76948" lon="0.1746">
        <ele>1584</ele>
        <time>2019-02-27T13:46:03Z</time>
      </trkpt>
      <trkpt lat="42.76956" lon="0.17467">
        <ele>1584</ele>
        <time>2019-02-27T13:46:04Z</time>
      </trkpt>
      <trkpt lat="42.76956" lon="0.17467">
        <ele>1584</ele>
        <time>2019-02-27T13:46:05Z</time>
      </trkpt>
      <trkpt lat="42.76956" lon="0.17467">
        <ele>1583</ele>
        <time>2019-02-27T13:46:06Z</time>
      </trkpt>
      <trkpt lat="42.76963" lon="0.17479">
        <ele>1583</ele>
        <time>2019-02-27T13:46:07Z</time>
      </trkpt>
      <trkpt lat="42.76964" lon="0.17481">
        <ele>1583</ele>
        <time>2019-02-27T13:46:08Z</time>
      </trkpt>
      <trkpt lat="42.76966" lon="0.17483">
        <ele>1583</ele>
        <time>2019-02-27T13:46:09Z</time>
      </trkpt>
      <trkpt lat="42.76969" lon="0.17489">
        <ele>1582</ele>
        <time>2019-02-27T13:46:10Z</time>
      </trkpt>
      <trkpt lat="42.76969" lon="0.17489">
        <ele>1581</ele>
        <time>2019-02-27T13:46:11Z</time>
      </trkpt>
      <trkpt lat="42.76974" lon="0.17497">
        <ele>1581</ele>
        <time>2019-02-27T13:46:12Z</time>
      </trkpt>
      <trkpt lat="42.76974" lon="0.17497">
        <ele>1581</ele>
        <time>2019-02-27T13:46:13Z</time>
      </trkpt>
      <trkpt lat="42.76974" lon="0.17497">
        <ele>1581</ele>
        <time>2019-02-27T13:46:14Z</time>
      </trkpt>
      <trkpt lat="42.76974" lon="0.17497">
        <ele>1581</ele>
        <time>2019-02-27T13:46:15Z</time>
      </trkpt>
      <trkpt lat="42.76978" lon="0.17496">
        <ele>1580</ele>
        <time>2019-02-27T13:46:16Z</time>
      </trkpt>
      <trkpt lat="42.7698" lon="0.17497">
        <ele>1579</ele>
        <time>2019-02-27T13:46:17Z</time>
      </trkpt>
      <trkpt lat="42.76983" lon="0.17499">
        <ele>1579</ele>
        <time>2019-02-27T13:46:18Z</time>
      </trkpt>
      <trkpt lat="42.76986" lon="0.17502">
        <ele>1579</ele>
        <time>2019-02-27T13:46:19Z</time>
      </trkpt>
      <trkpt lat="42.76988" lon="0.17505">
        <ele>1579</ele>
        <time>2019-02-27T13:46:20Z</time>
      </trkpt>
      <trkpt lat="42.76991" lon="0.17509">
        <ele>1578</ele>
        <time>2019-02-27T13:46:21Z</time>
      </trkpt>
      <trkpt lat="42.76991" lon="0.17509">
        <ele>1578</ele>
        <time>2019-02-27T13:46:22Z</time>
      </trkpt>
      <trkpt lat="42.76995" lon="0.17518">
        <ele>1578</ele>
        <time>2019-02-27T13:46:23Z</time>
      </trkpt>
      <trkpt lat="42.76997" lon="0.17524">
        <ele>1577</ele>
        <time>2019-02-27T13:46:24Z</time>
      </trkpt>
      <trkpt lat="42.76999" lon="0.1753">
        <ele>1576</ele>
        <time>2019-02-27T13:46:25Z</time>
      </trkpt>
      <trkpt lat="42.77005" lon="0.17539">
        <ele>1576</ele>
        <time>2019-02-27T13:46:26Z</time>
      </trkpt>
      <trkpt lat="42.77007" lon="0.17542">
        <ele>1575</ele>
        <time>2019-02-27T13:46:27Z</time>
      </trkpt>
      <trkpt lat="42.77011" lon="0.17548">
        <ele>1574</ele>
        <time>2019-02-27T13:46:28Z</time>
      </trkpt>
      <trkpt lat="42.77011" lon="0.17548">
        <ele>1573</ele>
        <time>2019-02-27T13:46:29Z</time>
      </trkpt>
      <trkpt lat="42.77018" lon="0.17558">
        <ele>1572</ele>
        <time>2019-02-27T13:46:30Z</time>
      </trkpt>
      <trkpt lat="42.7702" lon="0.17559">
        <ele>1572</ele>
        <time>2019-02-27T13:46:31Z</time>
      </trkpt>
      <trkpt lat="42.77021" lon="0.1756">
        <ele>1572</ele>
        <time>2019-02-27T13:46:32Z</time>
      </trkpt>
      <trkpt lat="42.77022" lon="0.17561">
        <ele>1571</ele>
        <time>2019-02-27T13:46:33Z</time>
      </trkpt>
      <trkpt lat="42.77027" lon="0.17566">
        <ele>1571</ele>
        <time>2019-02-27T13:46:34Z</time>
      </trkpt>
      <trkpt lat="42.77027" lon="0.17566">
        <ele>1569</ele>
        <time>2019-02-27T13:46:35Z</time>
      </trkpt>
      <trkpt lat="42.77037" lon="0.17573">
        <ele>1568</ele>
        <time>2019-02-27T13:46:36Z</time>
      </trkpt>
      <trkpt lat="42.77039" lon="0.17575">
        <ele>1568</ele>
        <time>2019-02-27T13:46:37Z</time>
      </trkpt>
      <trkpt lat="42.77041" lon="0.17576">
        <ele>1567</ele>
        <time>2019-02-27T13:46:38Z</time>
      </trkpt>
      <trkpt lat="42.77048" lon="0.17581">
        <ele>1566</ele>
        <time>2019-02-27T13:46:39Z</time>
      </trkpt>
      <trkpt lat="42.7705" lon="0.17582">
        <ele>1565</ele>
        <time>2019-02-27T13:46:40Z</time>
      </trkpt>
      <trkpt lat="42.77051" lon="0.17583">
        <ele>1565</ele>
        <time>2019-02-27T13:46:41Z</time>
      </trkpt>
      <trkpt lat="42.77056" lon="0.17587">
        <ele>1564</ele>
        <time>2019-02-27T13:46:42Z</time>
      </trkpt>
      <trkpt lat="42.77056" lon="0.17587">
        <ele>1564</ele>
        <time>2019-02-27T13:46:43Z</time>
      </trkpt>
      <trkpt lat="42.77056" lon="0.17587">
        <ele>1564</ele>
        <time>2019-02-27T13:46:44Z</time>
      </trkpt>
      <trkpt lat="42.77056" lon="0.17587">
        <ele>1563</ele>
        <time>2019-02-27T13:46:45Z</time>
      </trkpt>
      <trkpt lat="42.77056" lon="0.17587">
        <ele>1563</ele>
        <time>2019-02-27T13:46:46Z</time>
      </trkpt>
      <trkpt lat="42.77056" lon="0.17587">
        <ele>1563</ele>
        <time>2019-02-27T13:46:47Z</time>
      </trkpt>
      <trkpt lat="42.77063" lon="0.17594">
        <ele>1563</ele>
        <time>2019-02-27T13:46:48Z</time>
      </trkpt>
      <trkpt lat="42.77063" lon="0.17594">
        <ele>1563</ele>
        <time>2019-02-27T13:46:49Z</time>
      </trkpt>
      <trkpt lat="42.77063" lon="0.17594">
        <ele>1562</ele>
        <time>2019-02-27T13:46:50Z</time>
      </trkpt>
      <trkpt lat="42.77063" lon="0.17594">
        <ele>1562</ele>
        <time>2019-02-27T13:46:51Z</time>
      </trkpt>
      <trkpt lat="42.77063" lon="0.17594">
        <ele>1562</ele>
        <time>2019-02-27T13:46:52Z</time>
      </trkpt>
      <trkpt lat="42.77063" lon="0.17594">
        <ele>1562</ele>
        <time>2019-02-27T13:46:53Z</time>
      </trkpt>
      <trkpt lat="42.77063" lon="0.17594">
        <ele>1562</ele>
        <time>2019-02-27T13:46:54Z</time>
      </trkpt>
      <trkpt lat="42.77063" lon="0.17594">
        <ele>1562</ele>
        <time>2019-02-27T13:46:55Z</time>
      </trkpt>
      <trkpt lat="42.77063" lon="0.17594">
        <ele>1562</ele>
        <time>2019-02-27T13:46:56Z</time>
      </trkpt>
      <trkpt lat="42.77063" lon="0.17594">
        <ele>1562</ele>
        <time>2019-02-27T13:46:57Z</time>
      </trkpt>
      <trkpt lat="42.77063" lon="0.17594">
        <ele>1562</ele>
        <time>2019-02-27T13:46:58Z</time>
      </trkpt>
      <trkpt lat="42.77063" lon="0.17594">
        <ele>1562</ele>
        <time>2019-02-27T13:46:59Z</time>
      </trkpt>
      <trkpt lat="42.77072" lon="0.17596">
        <ele>1562</ele>
        <time>2019-02-27T13:47:00Z</time>
      </trkpt>
      <trkpt lat="42.77072" lon="0.17596">
        <ele>1562</ele>
        <time>2019-02-27T13:47:01Z</time>
      </trkpt>
      <trkpt lat="42.77072" lon="0.17596">
        <ele>1562</ele>
        <time>2019-02-27T13:47:02Z</time>
      </trkpt>
      <trkpt lat="42.77072" lon="0.17596">
        <ele>1562</ele>
        <time>2019-02-27T13:47:03Z</time>
      </trkpt>
      <trkpt lat="42.77072" lon="0.17596">
        <ele>1563</ele>
        <time>2019-02-27T13:47:04Z</time>
      </trkpt>
      <trkpt lat="42.77072" lon="0.17596">
        <ele>1563</ele>
        <time>2019-02-27T13:47:05Z</time>
      </trkpt>
      <trkpt lat="42.77072" lon="0.17596">
        <ele>1563</ele>
        <time>2019-02-27T13:47:06Z</time>
      </trkpt>
      <trkpt lat="42.77072" lon="0.17596">
        <ele>1563</ele>
        <time>2019-02-27T13:47:07Z</time>
      </trkpt>
      <trkpt lat="42.77072" lon="0.17596">
        <ele>1563</ele>
        <time>2019-02-27T13:47:08Z</time>
      </trkpt>
      <trkpt lat="42.77072" lon="0.17596">
        <ele>1563</ele>
        <time>2019-02-27T13:47:09Z</time>
      </trkpt>
      <trkpt lat="42.77072" lon="0.17596">
        <ele>1563</ele>
        <time>2019-02-27T13:47:10Z</time>
      </trkpt>
      <trkpt lat="42.77072" lon="0.17596">
        <ele>1563</ele>
        <time>2019-02-27T13:47:11Z</time>
      </trkpt>
      <trkpt lat="42.77072" lon="0.17596">
        <ele>1563</ele>
        <time>2019-02-27T13:47:12Z</time>
      </trkpt>
      <trkpt lat="42.77072" lon="0.17596">
        <ele>1563</ele>
        <time>2019-02-27T13:47:13Z</time>
      </trkpt>
      <trkpt lat="42.77072" lon="0.17596">
        <ele>1563</ele>
        <time>2019-02-27T13:47:14Z</time>
      </trkpt>
      <trkpt lat="42.77072" lon="0.17596">
        <ele>1563</ele>
        <time>2019-02-27T13:47:15Z</time>
      </trkpt>
      <trkpt lat="42.77072" lon="0.17596">
        <ele>1563</ele>
        <time>2019-02-27T13:47:16Z</time>
      </trkpt>
      <trkpt lat="42.77072" lon="0.17596">
        <ele>1563</ele>
        <time>2019-02-27T13:47:17Z</time>
      </trkpt>
      <trkpt lat="42.77072" lon="0.17596">
        <ele>1563</ele>
        <time>2019-02-27T13:47:18Z</time>
      </trkpt>
      <trkpt lat="42.77072" lon="0.17596">
        <ele>1563</ele>
        <time>2019-02-27T13:47:19Z</time>
      </trkpt>
      <trkpt lat="42.77072" lon="0.17596">
        <ele>1563</ele>
        <time>2019-02-27T13:47:20Z</time>
      </trkpt>
      <trkpt lat="42.77072" lon="0.17596">
        <ele>1563</ele>
        <time>2019-02-27T13:47:21Z</time>
      </trkpt>
      <trkpt lat="42.77072" lon="0.17596">
        <ele>1563</ele>
        <time>2019-02-27T13:47:22Z</time>
      </trkpt>
      <trkpt lat="42.77072" lon="0.17596">
        <ele>1563</ele>
        <time>2019-02-27T13:47:23Z</time>
      </trkpt>
      <trkpt lat="42.77072" lon="0.17596">
        <ele>1563</ele>
        <time>2019-02-27T13:47:24Z</time>
      </trkpt>
      <trkpt lat="42.77072" lon="0.17596">
        <ele>1563</ele>
        <time>2019-02-27T13:47:25Z</time>
      </trkpt>
      <trkpt lat="42.77072" lon="0.17596">
        <ele>1563</ele>
        <time>2019-02-27T13:47:26Z</time>
      </trkpt>
      <trkpt lat="42.77072" lon="0.17596">
        <ele>1563</ele>
        <time>2019-02-27T13:47:27Z</time>
      </trkpt>
      <trkpt lat="42.77072" lon="0.17596">
        <ele>1563</ele>
        <time>2019-02-27T13:47:28Z</time>
      </trkpt>
      <trkpt lat="42.77072" lon="0.17596">
        <ele>1563</ele>
        <time>2019-02-27T13:47:29Z</time>
      </trkpt>
      <trkpt lat="42.77072" lon="0.17596">
        <ele>1563</ele>
        <time>2019-02-27T13:47:30Z</time>
      </trkpt>
      <trkpt lat="42.77072" lon="0.17596">
        <ele>1563</ele>
        <time>2019-02-27T13:47:31Z</time>
      </trkpt>
      <trkpt lat="42.77072" lon="0.17596">
        <ele>1563</ele>
        <time>2019-02-27T13:47:32Z</time>
      </trkpt>
      <trkpt lat="42.77072" lon="0.17596">
        <ele>1563</ele>
        <time>2019-02-27T13:47:33Z</time>
      </trkpt>
      <trkpt lat="42.77072" lon="0.17596">
        <ele>1563</ele>
        <time>2019-02-27T13:47:34Z</time>
      </trkpt>
      <trkpt lat="42.77072" lon="0.17596">
        <ele>1562</ele>
        <time>2019-02-27T13:47:35Z</time>
      </trkpt>
      <trkpt lat="42.77079" lon="0.17604">
        <ele>1562</ele>
        <time>2019-02-27T13:47:36Z</time>
      </trkpt>
      <trkpt lat="42.77079" lon="0.17604">
        <ele>1562</ele>
        <time>2019-02-27T13:47:37Z</time>
      </trkpt>
      <trkpt lat="42.77091" lon="0.1761">
        <ele>1561</ele>
        <time>2019-02-27T13:47:38Z</time>
      </trkpt>
      <trkpt lat="42.77094" lon="0.17612">
        <ele>1560</ele>
        <time>2019-02-27T13:47:39Z</time>
      </trkpt>
      <trkpt lat="42.77102" lon="0.17618">
        <ele>1559</ele>
        <time>2019-02-27T13:47:40Z</time>
      </trkpt>
      <trkpt lat="42.77105" lon="0.1762">
        <ele>1559</ele>
        <time>2019-02-27T13:47:41Z</time>
      </trkpt>
      <trkpt lat="42.7711" lon="0.17626">
        <ele>1559</ele>
        <time>2019-02-27T13:47:42Z</time>
      </trkpt>
      <trkpt lat="42.7711" lon="0.17626">
        <ele>1558</ele>
        <time>2019-02-27T13:47:43Z</time>
      </trkpt>
      <trkpt lat="42.7711" lon="0.17626">
        <ele>1557</ele>
        <time>2019-02-27T13:47:44Z</time>
      </trkpt>
      <trkpt lat="42.7712" lon="0.17636">
        <ele>1556</ele>
        <time>2019-02-27T13:47:46Z</time>
      </trkpt>
      <trkpt lat="42.7712" lon="0.17636">
        <ele>1556</ele>
        <time>2019-02-27T13:47:47Z</time>
      </trkpt>
      <trkpt lat="42.77131" lon="0.17642">
        <ele>1554</ele>
        <time>2019-02-27T13:47:48Z</time>
      </trkpt>
      <trkpt lat="42.77131" lon="0.17642">
        <ele>1553</ele>
        <time>2019-02-27T13:47:49Z</time>
      </trkpt>
      <trkpt lat="42.77131" lon="0.17642">
        <ele>1551</ele>
        <time>2019-02-27T13:47:50Z</time>
      </trkpt>
      <trkpt lat="42.77131" lon="0.17642">
        <ele>1550</ele>
        <time>2019-02-27T13:47:51Z</time>
      </trkpt>
      <trkpt lat="42.77131" lon="0.17642">
        <ele>1549</ele>
        <time>2019-02-27T13:47:52Z</time>
      </trkpt>
      <trkpt lat="42.77131" lon="0.17642">
        <ele>1548</ele>
        <time>2019-02-27T13:47:53Z</time>
      </trkpt>
      <trkpt lat="42.77131" lon="0.17642">
        <ele>1547</ele>
        <time>2019-02-27T13:47:54Z</time>
      </trkpt>
      <trkpt lat="42.77142" lon="0.17645">
        <ele>1547</ele>
        <time>2019-02-27T13:47:55Z</time>
      </trkpt>
      <trkpt lat="42.77143" lon="0.17645">
        <ele>1546</ele>
        <time>2019-02-27T13:47:56Z</time>
      </trkpt>
      <trkpt lat="42.77145" lon="0.17645">
        <ele>1546</ele>
        <time>2019-02-27T13:47:57Z</time>
      </trkpt>
      <trkpt lat="42.77152" lon="0.17646">
        <ele>1546</ele>
        <time>2019-02-27T13:47:58Z</time>
      </trkpt>
      <trkpt lat="42.77155" lon="0.17646">
        <ele>1545</ele>
        <time>2019-02-27T13:47:59Z</time>
      </trkpt>
      <trkpt lat="42.77157" lon="0.17647">
        <ele>1545</ele>
        <time>2019-02-27T13:48:00Z</time>
      </trkpt>
      <trkpt lat="42.77166" lon="0.17649">
        <ele>1545</ele>
        <time>2019-02-27T13:48:01Z</time>
      </trkpt>
      <trkpt lat="42.77168" lon="0.1765">
        <ele>1545</ele>
        <time>2019-02-27T13:48:02Z</time>
      </trkpt>
      <trkpt lat="42.77174" lon="0.17652">
        <ele>1544</ele>
        <time>2019-02-27T13:48:03Z</time>
      </trkpt>
      <trkpt lat="42.77181" lon="0.17657">
        <ele>1543</ele>
        <time>2019-02-27T13:48:04Z</time>
      </trkpt>
      <trkpt lat="42.77184" lon="0.17659">
        <ele>1543</ele>
        <time>2019-02-27T13:48:05Z</time>
      </trkpt>
      <trkpt lat="42.77188" lon="0.17664">
        <ele>1542</ele>
        <time>2019-02-27T13:48:06Z</time>
      </trkpt>
      <trkpt lat="42.77188" lon="0.17664">
        <ele>1542</ele>
        <time>2019-02-27T13:48:07Z</time>
      </trkpt>
      <trkpt lat="42.77195" lon="0.17671">
        <ele>1542</ele>
        <time>2019-02-27T13:48:08Z</time>
      </trkpt>
      <trkpt lat="42.77195" lon="0.17671">
        <ele>1541</ele>
        <time>2019-02-27T13:48:09Z</time>
      </trkpt>
      <trkpt lat="42.77203" lon="0.17681">
        <ele>1541</ele>
        <time>2019-02-27T13:48:10Z</time>
      </trkpt>
      <trkpt lat="42.77205" lon="0.17682">
        <ele>1540</ele>
        <time>2019-02-27T13:48:11Z</time>
      </trkpt>
      <trkpt lat="42.77207" lon="0.17684">
        <ele>1539</ele>
        <time>2019-02-27T13:48:12Z</time>
      </trkpt>
      <trkpt lat="42.77214" lon="0.17689">
        <ele>1538</ele>
        <time>2019-02-27T13:48:13Z</time>
      </trkpt>
      <trkpt lat="42.77216" lon="0.17691">
        <ele>1537</ele>
        <time>2019-02-27T13:48:14Z</time>
      </trkpt>
      <trkpt lat="42.77218" lon="0.17693">
        <ele>1536</ele>
        <time>2019-02-27T13:48:15Z</time>
      </trkpt>
      <trkpt lat="42.77223" lon="0.17697">
        <ele>1535</ele>
        <time>2019-02-27T13:48:16Z</time>
      </trkpt>
      <trkpt lat="42.77223" lon="0.17697">
        <ele>1534</ele>
        <time>2019-02-27T13:48:17Z</time>
      </trkpt>
      <trkpt lat="42.77233" lon="0.17707">
        <ele>1533</ele>
        <time>2019-02-27T13:48:18Z</time>
      </trkpt>
      <trkpt lat="42.77234" lon="0.1771">
        <ele>1532</ele>
        <time>2019-02-27T13:48:19Z</time>
      </trkpt>
      <trkpt lat="42.77238" lon="0.17716">
        <ele>1531</ele>
        <time>2019-02-27T13:48:20Z</time>
      </trkpt>
      <trkpt lat="42.77238" lon="0.17716">
        <ele>1530</ele>
        <time>2019-02-27T13:48:21Z</time>
      </trkpt>
      <trkpt lat="42.77248" lon="0.17727">
        <ele>1528</ele>
        <time>2019-02-27T13:48:22Z</time>
      </trkpt>
      <trkpt lat="42.7725" lon="0.1773">
        <ele>1527</ele>
        <time>2019-02-27T13:48:23Z</time>
      </trkpt>
      <trkpt lat="42.77257" lon="0.17739">
        <ele>1526</ele>
        <time>2019-02-27T13:48:24Z</time>
      </trkpt>
      <trkpt lat="42.77258" lon="0.17742">
        <ele>1525</ele>
        <time>2019-02-27T13:48:25Z</time>
      </trkpt>
      <trkpt lat="42.77264" lon="0.17752">
        <ele>1524</ele>
        <time>2019-02-27T13:48:26Z</time>
      </trkpt>
      <trkpt lat="42.77265" lon="0.17755">
        <ele>1524</ele>
        <time>2019-02-27T13:48:27Z</time>
      </trkpt>
      <trkpt lat="42.77269" lon="0.17765">
        <ele>1524</ele>
        <time>2019-02-27T13:48:28Z</time>
      </trkpt>
      <trkpt lat="42.7727" lon="0.17769">
        <ele>1523</ele>
        <time>2019-02-27T13:48:29Z</time>
      </trkpt>
      <trkpt lat="42.77271" lon="0.1778">
        <ele>1523</ele>
        <time>2019-02-27T13:48:30Z</time>
      </trkpt>
      <trkpt lat="42.77272" lon="0.17783">
        <ele>1522</ele>
        <time>2019-02-27T13:48:31Z</time>
      </trkpt>
      <trkpt lat="42.77274" lon="0.17794">
        <ele>1522</ele>
        <time>2019-02-27T13:48:32Z</time>
      </trkpt>
      <trkpt lat="42.77275" lon="0.17798">
        <ele>1521</ele>
        <time>2019-02-27T13:48:33Z</time>
      </trkpt>
      <trkpt lat="42.77277" lon="0.17809">
        <ele>1521</ele>
        <time>2019-02-27T13:48:34Z</time>
      </trkpt>
      <trkpt lat="42.77277" lon="0.17813">
        <ele>1520</ele>
        <time>2019-02-27T13:48:35Z</time>
      </trkpt>
      <trkpt lat="42.77279" lon="0.17823">
        <ele>1520</ele>
        <time>2019-02-27T13:48:36Z</time>
      </trkpt>
      <trkpt lat="42.7728" lon="0.17825">
        <ele>1519</ele>
        <time>2019-02-27T13:48:37Z</time>
      </trkpt>
      <trkpt lat="42.77281" lon="0.17827">
        <ele>1519</ele>
        <time>2019-02-27T13:48:38Z</time>
      </trkpt>
      <trkpt lat="42.77284" lon="0.17836">
        <ele>1518</ele>
        <time>2019-02-27T13:48:39Z</time>
      </trkpt>
      <trkpt lat="42.77285" lon="0.17839">
        <ele>1517</ele>
        <time>2019-02-27T13:48:40Z</time>
      </trkpt>
      <trkpt lat="42.77286" lon="0.17841">
        <ele>1517</ele>
        <time>2019-02-27T13:48:41Z</time>
      </trkpt>
      <trkpt lat="42.77289" lon="0.17851">
        <ele>1516</ele>
        <time>2019-02-27T13:48:42Z</time>
      </trkpt>
      <trkpt lat="42.77289" lon="0.17854">
        <ele>1515</ele>
        <time>2019-02-27T13:48:43Z</time>
      </trkpt>
      <trkpt lat="42.77289" lon="0.17857">
        <ele>1515</ele>
        <time>2019-02-27T13:48:44Z</time>
      </trkpt>
      <trkpt lat="42.7729" lon="0.17867">
        <ele>1515</ele>
        <time>2019-02-27T13:48:45Z</time>
      </trkpt>
      <trkpt lat="42.7729" lon="0.1787">
        <ele>1514</ele>
        <time>2019-02-27T13:48:46Z</time>
      </trkpt>
      <trkpt lat="42.77291" lon="0.17872">
        <ele>1514</ele>
        <time>2019-02-27T13:48:47Z</time>
      </trkpt>
      <trkpt lat="42.77292" lon="0.17879">
        <ele>1514</ele>
        <time>2019-02-27T13:48:48Z</time>
      </trkpt>
      <trkpt lat="42.77292" lon="0.17879">
        <ele>1514</ele>
        <time>2019-02-27T13:48:49Z</time>
      </trkpt>
      <trkpt lat="42.77292" lon="0.17879">
        <ele>1514</ele>
        <time>2019-02-27T13:48:50Z</time>
      </trkpt>
      <trkpt lat="42.77292" lon="0.17879">
        <ele>1514</ele>
        <time>2019-02-27T13:48:51Z</time>
      </trkpt>
      <trkpt lat="42.77292" lon="0.17879">
        <ele>1513</ele>
        <time>2019-02-27T13:48:52Z</time>
      </trkpt>
      <trkpt lat="42.77292" lon="0.17879">
        <ele>1513</ele>
        <time>2019-02-27T13:48:53Z</time>
      </trkpt>
      <trkpt lat="42.77292" lon="0.17879">
        <ele>1513</ele>
        <time>2019-02-27T13:48:54Z</time>
      </trkpt>
      <trkpt lat="42.77292" lon="0.17879">
        <ele>1513</ele>
        <time>2019-02-27T13:48:55Z</time>
      </trkpt>
      <trkpt lat="42.77292" lon="0.17879">
        <ele>1513</ele>
        <time>2019-02-27T13:48:56Z</time>
      </trkpt>
      <trkpt lat="42.77292" lon="0.17879">
        <ele>1513</ele>
        <time>2019-02-27T13:48:57Z</time>
      </trkpt>
      <trkpt lat="42.77292" lon="0.17879">
        <ele>1513</ele>
        <time>2019-02-27T13:48:58Z</time>
      </trkpt>
      <trkpt lat="42.77292" lon="0.17879">
        <ele>1513</ele>
        <time>2019-02-27T13:48:59Z</time>
      </trkpt>
      <trkpt lat="42.77292" lon="0.17879">
        <ele>1513</ele>
        <time>2019-02-27T13:49:00Z</time>
      </trkpt>
      <trkpt lat="42.77292" lon="0.17879">
        <ele>1513</ele>
        <time>2019-02-27T13:49:01Z</time>
      </trkpt>
      <trkpt lat="42.77292" lon="0.17879">
        <ele>1513</ele>
        <time>2019-02-27T13:49:02Z</time>
      </trkpt>
      <trkpt lat="42.77292" lon="0.17879">
        <ele>1513</ele>
        <time>2019-02-27T13:49:03Z</time>
      </trkpt>
      <trkpt lat="42.77292" lon="0.17879">
        <ele>1513</ele>
        <time>2019-02-27T13:49:04Z</time>
      </trkpt>
      <trkpt lat="42.77292" lon="0.17879">
        <ele>1513</ele>
        <time>2019-02-27T13:49:05Z</time>
      </trkpt>
      <trkpt lat="42.77292" lon="0.17879">
        <ele>1513</ele>
        <time>2019-02-27T13:49:06Z</time>
      </trkpt>
      <trkpt lat="42.77292" lon="0.17879">
        <ele>1513</ele>
        <time>2019-02-27T13:49:07Z</time>
      </trkpt>
      <trkpt lat="42.77292" lon="0.17879">
        <ele>1513</ele>
        <time>2019-02-27T13:49:08Z</time>
      </trkpt>
      <trkpt lat="42.77292" lon="0.17879">
        <ele>1513</ele>
        <time>2019-02-27T13:49:09Z</time>
      </trkpt>
      <trkpt lat="42.77292" lon="0.17879">
        <ele>1513</ele>
        <time>2019-02-27T13:49:10Z</time>
      </trkpt>
      <trkpt lat="42.77292" lon="0.17879">
        <ele>1513</ele>
        <time>2019-02-27T13:49:11Z</time>
      </trkpt>
      <trkpt lat="42.77292" lon="0.17879">
        <ele>1513</ele>
        <time>2019-02-27T13:49:12Z</time>
      </trkpt>
      <trkpt lat="42.77292" lon="0.17879">
        <ele>1513</ele>
        <time>2019-02-27T13:49:13Z</time>
      </trkpt>
      <trkpt lat="42.77292" lon="0.17879">
        <ele>1513</ele>
        <time>2019-02-27T13:49:14Z</time>
      </trkpt>
      <trkpt lat="42.77292" lon="0.17879">
        <ele>1513</ele>
        <time>2019-02-27T13:49:15Z</time>
      </trkpt>
      <trkpt lat="42.77292" lon="0.17879">
        <ele>1513</ele>
        <time>2019-02-27T13:49:16Z</time>
      </trkpt>
      <trkpt lat="42.77292" lon="0.17879">
        <ele>1513</ele>
        <time>2019-02-27T13:49:17Z</time>
      </trkpt>
      <trkpt lat="42.77292" lon="0.17879">
        <ele>1513</ele>
        <time>2019-02-27T13:49:18Z</time>
      </trkpt>
      <trkpt lat="42.77292" lon="0.17879">
        <ele>1513</ele>
        <time>2019-02-27T13:49:19Z</time>
      </trkpt>
      <trkpt lat="42.77292" lon="0.17879">
        <ele>1513</ele>
        <time>2019-02-27T13:49:20Z</time>
      </trkpt>
      <trkpt lat="42.77292" lon="0.17879">
        <ele>1513</ele>
        <time>2019-02-27T13:49:21Z</time>
      </trkpt>
      <trkpt lat="42.77292" lon="0.17879">
        <ele>1513</ele>
        <time>2019-02-27T13:49:22Z</time>
      </trkpt>
      <trkpt lat="42.77292" lon="0.17879">
        <ele>1513</ele>
        <time>2019-02-27T13:49:23Z</time>
      </trkpt>
      <trkpt lat="42.77292" lon="0.17879">
        <ele>1513</ele>
        <time>2019-02-27T13:49:24Z</time>
      </trkpt>
      <trkpt lat="42.77292" lon="0.17879">
        <ele>1513</ele>
        <time>2019-02-27T13:49:25Z</time>
      </trkpt>
      <trkpt lat="42.77292" lon="0.17879">
        <ele>1513</ele>
        <time>2019-02-27T13:49:26Z</time>
      </trkpt>
      <trkpt lat="42.77292" lon="0.17879">
        <ele>1513</ele>
        <time>2019-02-27T13:49:27Z</time>
      </trkpt>
      <trkpt lat="42.77292" lon="0.17879">
        <ele>1513</ele>
        <time>2019-02-27T13:49:28Z</time>
      </trkpt>
      <trkpt lat="42.77292" lon="0.17879">
        <ele>1513</ele>
        <time>2019-02-27T13:49:29Z</time>
      </trkpt>
      <trkpt lat="42.77292" lon="0.17879">
        <ele>1513</ele>
        <time>2019-02-27T13:49:30Z</time>
      </trkpt>
      <trkpt lat="42.77292" lon="0.17879">
        <ele>1513</ele>
        <time>2019-02-27T13:49:31Z</time>
      </trkpt>
      <trkpt lat="42.77292" lon="0.17879">
        <ele>1513</ele>
        <time>2019-02-27T13:49:32Z</time>
      </trkpt>
      <trkpt lat="42.77292" lon="0.17879">
        <ele>1513</ele>
        <time>2019-02-27T13:49:33Z</time>
      </trkpt>
      <trkpt lat="42.77292" lon="0.17879">
        <ele>1513</ele>
        <time>2019-02-27T13:49:34Z</time>
      </trkpt>
      <trkpt lat="42.77292" lon="0.17879">
        <ele>1513</ele>
        <time>2019-02-27T13:49:35Z</time>
      </trkpt>
      <trkpt lat="42.77292" lon="0.17879">
        <ele>1513</ele>
        <time>2019-02-27T13:49:36Z</time>
      </trkpt>
      <trkpt lat="42.77292" lon="0.17879">
        <ele>1513</ele>
        <time>2019-02-27T13:49:37Z</time>
      </trkpt>
      <trkpt lat="42.77292" lon="0.17879">
        <ele>1513</ele>
        <time>2019-02-27T13:49:38Z</time>
      </trkpt>
      <trkpt lat="42.77292" lon="0.17879">
        <ele>1513</ele>
        <time>2019-02-27T13:49:39Z</time>
      </trkpt>
      <trkpt lat="42.77292" lon="0.17879">
        <ele>1513</ele>
        <time>2019-02-27T13:49:40Z</time>
      </trkpt>
      <trkpt lat="42.77292" lon="0.17879">
        <ele>1513</ele>
        <time>2019-02-27T13:49:41Z</time>
      </trkpt>
      <trkpt lat="42.77292" lon="0.17879">
        <ele>1513</ele>
        <time>2019-02-27T13:49:42Z</time>
      </trkpt>
      <trkpt lat="42.77292" lon="0.17879">
        <ele>1513</ele>
        <time>2019-02-27T13:49:43Z</time>
      </trkpt>
      <trkpt lat="42.77292" lon="0.17879">
        <ele>1513</ele>
        <time>2019-02-27T13:49:44Z</time>
      </trkpt>
      <trkpt lat="42.77292" lon="0.17879">
        <ele>1513</ele>
        <time>2019-02-27T13:49:45Z</time>
      </trkpt>
      <trkpt lat="42.77292" lon="0.17879">
        <ele>1513</ele>
        <time>2019-02-27T13:49:46Z</time>
      </trkpt>
      <trkpt lat="42.77293" lon="0.17892">
        <ele>1513</ele>
        <time>2019-02-27T13:49:47Z</time>
      </trkpt>
      <trkpt lat="42.77294" lon="0.17893">
        <ele>1513</ele>
        <time>2019-02-27T13:49:48Z</time>
      </trkpt>
      <trkpt lat="42.77294" lon="0.17894">
        <ele>1512</ele>
        <time>2019-02-27T13:49:49Z</time>
      </trkpt>
      <trkpt lat="42.77295" lon="0.17895">
        <ele>1512</ele>
        <time>2019-02-27T13:49:50Z</time>
      </trkpt>
      <trkpt lat="42.77296" lon="0.17896">
        <ele>1512</ele>
        <time>2019-02-27T13:49:51Z</time>
      </trkpt>
      <trkpt lat="42.77296" lon="0.17897">
        <ele>1512</ele>
        <time>2019-02-27T13:49:52Z</time>
      </trkpt>
      <trkpt lat="42.773" lon="0.17903">
        <ele>1512</ele>
        <time>2019-02-27T13:49:53Z</time>
      </trkpt>
      <trkpt lat="42.773" lon="0.17903">
        <ele>1511</ele>
        <time>2019-02-27T13:49:54Z</time>
      </trkpt>
      <trkpt lat="42.773" lon="0.17903">
        <ele>1510</ele>
        <time>2019-02-27T13:49:55Z</time>
      </trkpt>
      <trkpt lat="42.77306" lon="0.17914">
        <ele>1510</ele>
        <time>2019-02-27T13:49:56Z</time>
      </trkpt>
      <trkpt lat="42.77306" lon="0.17914">
        <ele>1510</ele>
        <time>2019-02-27T13:49:57Z</time>
      </trkpt>
      <trkpt lat="42.77306" lon="0.17914">
        <ele>1509</ele>
        <time>2019-02-27T13:49:58Z</time>
      </trkpt>
      <trkpt lat="42.7731" lon="0.17929">
        <ele>1508</ele>
        <time>2019-02-27T13:49:59Z</time>
      </trkpt>
      <trkpt lat="42.77311" lon="0.17932">
        <ele>1506</ele>
        <time>2019-02-27T13:50:00Z</time>
      </trkpt>
      <trkpt lat="42.77312" lon="0.17934">
        <ele>1504</ele>
        <time>2019-02-27T13:50:01Z</time>
      </trkpt>
      <trkpt lat="42.77317" lon="0.17944">
        <ele>1504</ele>
        <time>2019-02-27T13:50:02Z</time>
      </trkpt>
      <trkpt lat="42.7732" lon="0.17946">
        <ele>1502</ele>
        <time>2019-02-27T13:50:03Z</time>
      </trkpt>
      <trkpt lat="42.77324" lon="0.17951">
        <ele>1501</ele>
        <time>2019-02-27T13:50:04Z</time>
      </trkpt>
      <trkpt lat="42.77324" lon="0.17951">
        <ele>1500</ele>
        <time>2019-02-27T13:50:05Z</time>
      </trkpt>
      <trkpt lat="42.7733" lon="0.17962">
        <ele>1499</ele>
        <time>2019-02-27T13:50:06Z</time>
      </trkpt>
      <trkpt lat="42.77332" lon="0.17962">
        <ele>1499</ele>
        <time>2019-02-27T13:50:07Z</time>
      </trkpt>
      <trkpt lat="42.77333" lon="0.17962">
        <ele>1498</ele>
        <time>2019-02-27T13:50:08Z</time>
      </trkpt>
      <trkpt lat="42.77335" lon="0.17962">
        <ele>1497</ele>
        <time>2019-02-27T13:50:09Z</time>
      </trkpt>
      <trkpt lat="42.77345" lon="0.17963">
        <ele>1496</ele>
        <time>2019-02-27T13:50:10Z</time>
      </trkpt>
      <trkpt lat="42.77348" lon="0.17963">
        <ele>1494</ele>
        <time>2019-02-27T13:50:11Z</time>
      </trkpt>
      <trkpt lat="42.77357" lon="0.17965">
        <ele>1492</ele>
        <time>2019-02-27T13:50:12Z</time>
      </trkpt>
      <trkpt lat="42.7736" lon="0.17966">
        <ele>1491</ele>
        <time>2019-02-27T13:50:13Z</time>
      </trkpt>
      <trkpt lat="42.77369" lon="0.17971">
        <ele>1489</ele>
        <time>2019-02-27T13:50:14Z</time>
      </trkpt>
      <trkpt lat="42.77371" lon="0.17973">
        <ele>1488</ele>
        <time>2019-02-27T13:50:15Z</time>
      </trkpt>
      <trkpt lat="42.77378" lon="0.1798">
        <ele>1487</ele>
        <time>2019-02-27T13:50:16Z</time>
      </trkpt>
      <trkpt lat="42.7738" lon="0.17983">
        <ele>1486</ele>
        <time>2019-02-27T13:50:17Z</time>
      </trkpt>
      <trkpt lat="42.77384" lon="0.17988">
        <ele>1485</ele>
        <time>2019-02-27T13:50:18Z</time>
      </trkpt>
      <trkpt lat="42.77384" lon="0.17988">
        <ele>1484</ele>
        <time>2019-02-27T13:50:19Z</time>
      </trkpt>
      <trkpt lat="42.77384" lon="0.17988">
        <ele>1484</ele>
        <time>2019-02-27T13:50:20Z</time>
      </trkpt>
      <trkpt lat="42.7739" lon="0.17998">
        <ele>1483</ele>
        <time>2019-02-27T13:50:21Z</time>
      </trkpt>
      <trkpt lat="42.7739" lon="0.17998">
        <ele>1484</ele>
        <time>2019-02-27T13:50:22Z</time>
      </trkpt>
      <trkpt lat="42.7739" lon="0.17998">
        <ele>1484</ele>
        <time>2019-02-27T13:50:23Z</time>
      </trkpt>
      <trkpt lat="42.7739" lon="0.17998">
        <ele>1484</ele>
        <time>2019-02-27T13:50:24Z</time>
      </trkpt>
      <trkpt lat="42.7739" lon="0.17998">
        <ele>1484</ele>
        <time>2019-02-27T13:50:25Z</time>
      </trkpt>
      <trkpt lat="42.77396" lon="0.18009">
        <ele>1483</ele>
        <time>2019-02-27T13:50:26Z</time>
      </trkpt>
      <trkpt lat="42.77396" lon="0.18009">
        <ele>1483</ele>
        <time>2019-02-27T13:50:27Z</time>
      </trkpt>
      <trkpt lat="42.77407" lon="0.18019">
        <ele>1482</ele>
        <time>2019-02-27T13:50:28Z</time>
      </trkpt>
      <trkpt lat="42.77409" lon="0.18021">
        <ele>1481</ele>
        <time>2019-02-27T13:50:29Z</time>
      </trkpt>
      <trkpt lat="42.77417" lon="0.18029">
        <ele>1481</ele>
        <time>2019-02-27T13:50:30Z</time>
      </trkpt>
      <trkpt lat="42.77419" lon="0.18032">
        <ele>1480</ele>
        <time>2019-02-27T13:50:31Z</time>
      </trkpt>
      <trkpt lat="42.77427" lon="0.18042">
        <ele>1479</ele>
        <time>2019-02-27T13:50:32Z</time>
      </trkpt>
      <trkpt lat="42.77428" lon="0.18044">
        <ele>1478</ele>
        <time>2019-02-27T13:50:33Z</time>
      </trkpt>
      <trkpt lat="42.77434" lon="0.18052">
        <ele>1477</ele>
        <time>2019-02-27T13:50:34Z</time>
      </trkpt>
      <trkpt lat="42.77436" lon="0.18053">
        <ele>1477</ele>
        <time>2019-02-27T13:50:35Z</time>
      </trkpt>
      <trkpt lat="42.77437" lon="0.18055">
        <ele>1477</ele>
        <time>2019-02-27T13:50:36Z</time>
      </trkpt>
      <trkpt lat="42.77445" lon="0.18063">
        <ele>1476</ele>
        <time>2019-02-27T13:50:37Z</time>
      </trkpt>
      <trkpt lat="42.77448" lon="0.18066">
        <ele>1476</ele>
        <time>2019-02-27T13:50:38Z</time>
      </trkpt>
      <trkpt lat="42.77457" lon="0.18073">
        <ele>1476</ele>
        <time>2019-02-27T13:50:39Z</time>
      </trkpt>
      <trkpt lat="42.7746" lon="0.18075">
        <ele>1475</ele>
        <time>2019-02-27T13:50:40Z</time>
      </trkpt>
      <trkpt lat="42.77469" lon="0.18083">
        <ele>1473</ele>
        <time>2019-02-27T13:50:41Z</time>
      </trkpt>
      <trkpt lat="42.77472" lon="0.18086">
        <ele>1471</ele>
        <time>2019-02-27T13:50:42Z</time>
      </trkpt>
      <trkpt lat="42.77481" lon="0.18094">
        <ele>1470</ele>
        <time>2019-02-27T13:50:43Z</time>
      </trkpt>
      <trkpt lat="42.77484" lon="0.18097">
        <ele>1470</ele>
        <time>2019-02-27T13:50:44Z</time>
      </trkpt>
      <trkpt lat="42.77494" lon="0.18103">
        <ele>1468</ele>
        <time>2019-02-27T13:50:45Z</time>
      </trkpt>
      <trkpt lat="42.77498" lon="0.18106">
        <ele>1466</ele>
        <time>2019-02-27T13:50:46Z</time>
      </trkpt>
      <trkpt lat="42.77508" lon="0.18112">
        <ele>1465</ele>
        <time>2019-02-27T13:50:47Z</time>
      </trkpt>
      <trkpt lat="42.77511" lon="0.18114">
        <ele>1464</ele>
        <time>2019-02-27T13:50:48Z</time>
      </trkpt>
      <trkpt lat="42.77522" lon="0.1812">
        <ele>1464</ele>
        <time>2019-02-27T13:50:49Z</time>
      </trkpt>
      <trkpt lat="42.77525" lon="0.18122">
        <ele>1464</ele>
        <time>2019-02-27T13:50:50Z</time>
      </trkpt>
      <trkpt lat="42.77535" lon="0.18126">
        <ele>1464</ele>
        <time>2019-02-27T13:50:51Z</time>
      </trkpt>
      <trkpt lat="42.77539" lon="0.18128">
        <ele>1464</ele>
        <time>2019-02-27T13:50:52Z</time>
      </trkpt>
      <trkpt lat="42.77546" lon="0.18131">
        <ele>1464</ele>
        <time>2019-02-27T13:50:53Z</time>
      </trkpt>
      <trkpt lat="42.77546" lon="0.18131">
        <ele>1464</ele>
        <time>2019-02-27T13:50:54Z</time>
      </trkpt>
      <trkpt lat="42.77546" lon="0.18147">
        <ele>1463</ele>
        <time>2019-02-27T13:50:55Z</time>
      </trkpt>
      <trkpt lat="42.77546" lon="0.18151">
        <ele>1463</ele>
        <time>2019-02-27T13:50:56Z</time>
      </trkpt>
      <trkpt lat="42.77544" lon="0.18157">
        <ele>1463</ele>
        <time>2019-02-27T13:50:57Z</time>
      </trkpt>
      <trkpt lat="42.77544" lon="0.18157">
        <ele>1462</ele>
        <time>2019-02-27T13:50:58Z</time>
      </trkpt>
      <trkpt lat="42.77544" lon="0.18157">
        <ele>1462</ele>
        <time>2019-02-27T13:50:59Z</time>
      </trkpt>
      <trkpt lat="42.77544" lon="0.18157">
        <ele>1462</ele>
        <time>2019-02-27T13:51:00Z</time>
      </trkpt>
      <trkpt lat="42.77544" lon="0.18157">
        <ele>1462</ele>
        <time>2019-02-27T13:51:01Z</time>
      </trkpt>
      <trkpt lat="42.77544" lon="0.18157">
        <ele>1462</ele>
        <time>2019-02-27T13:51:02Z</time>
      </trkpt>
      <trkpt lat="42.77544" lon="0.18157">
        <ele>1462</ele>
        <time>2019-02-27T13:51:03Z</time>
      </trkpt>
      <trkpt lat="42.77544" lon="0.18157">
        <ele>1463</ele>
        <time>2019-02-27T13:51:04Z</time>
      </trkpt>
      <trkpt lat="42.7755" lon="0.18167">
        <ele>1463</ele>
        <time>2019-02-27T13:51:05Z</time>
      </trkpt>
      <trkpt lat="42.7755" lon="0.18167">
        <ele>1463</ele>
        <time>2019-02-27T13:51:06Z</time>
      </trkpt>
      <trkpt lat="42.7755" lon="0.18167">
        <ele>1463</ele>
        <time>2019-02-27T13:51:07Z</time>
      </trkpt>
      <trkpt lat="42.7755" lon="0.18167">
        <ele>1463</ele>
        <time>2019-02-27T13:51:08Z</time>
      </trkpt>
      <trkpt lat="42.7755" lon="0.18167">
        <ele>1463</ele>
        <time>2019-02-27T13:51:09Z</time>
      </trkpt>
      <trkpt lat="42.7755" lon="0.18167">
        <ele>1463</ele>
        <time>2019-02-27T13:51:10Z</time>
      </trkpt>
      <trkpt lat="42.7755" lon="0.18167">
        <ele>1463</ele>
        <time>2019-02-27T13:51:11Z</time>
      </trkpt>
      <trkpt lat="42.77549" lon="0.18178">
        <ele>1463</ele>
        <time>2019-02-27T13:51:12Z</time>
      </trkpt>
      <trkpt lat="42.77549" lon="0.18178">
        <ele>1463</ele>
        <time>2019-02-27T13:51:13Z</time>
      </trkpt>
      <trkpt lat="42.77549" lon="0.18178">
        <ele>1463</ele>
        <time>2019-02-27T13:51:14Z</time>
      </trkpt>
      <trkpt lat="42.77549" lon="0.18178">
        <ele>1463</ele>
        <time>2019-02-27T13:51:15Z</time>
      </trkpt>
      <trkpt lat="42.77549" lon="0.18178">
        <ele>1463</ele>
        <time>2019-02-27T13:51:16Z</time>
      </trkpt>
      <trkpt lat="42.77549" lon="0.18178">
        <ele>1463</ele>
        <time>2019-02-27T13:51:17Z</time>
      </trkpt>
      <trkpt lat="42.77549" lon="0.18178">
        <ele>1463</ele>
        <time>2019-02-27T13:51:18Z</time>
      </trkpt>
      <trkpt lat="42.77549" lon="0.18178">
        <ele>1463</ele>
        <time>2019-02-27T13:51:19Z</time>
      </trkpt>
      <trkpt lat="42.77551" lon="0.18183">
        <ele>1463</ele>
        <time>2019-02-27T13:51:20Z</time>
      </trkpt>
      <trkpt lat="42.77551" lon="0.18183">
        <ele>1462</ele>
        <time>2019-02-27T13:51:21Z</time>
      </trkpt>
      <trkpt lat="42.77551" lon="0.18183">
        <ele>1462</ele>
        <time>2019-02-27T13:51:22Z</time>
      </trkpt>
      <trkpt lat="42.77551" lon="0.18183">
        <ele>1462</ele>
        <time>2019-02-27T13:51:23Z</time>
      </trkpt>
      <trkpt lat="42.77551" lon="0.18188">
        <ele>1462</ele>
        <time>2019-02-27T13:51:24Z</time>
      </trkpt>
      <trkpt lat="42.77551" lon="0.18188">
        <ele>1462</ele>
        <time>2019-02-27T13:51:25Z</time>
      </trkpt>
      <trkpt lat="42.77552" lon="0.18193">
        <ele>1462</ele>
        <time>2019-02-27T13:51:26Z</time>
      </trkpt>
      <trkpt lat="42.77552" lon="0.18196">
        <ele>1461</ele>
        <time>2019-02-27T13:51:27Z</time>
      </trkpt>
      <trkpt lat="42.77554" lon="0.182">
        <ele>1461</ele>
        <time>2019-02-27T13:51:28Z</time>
      </trkpt>
      <trkpt lat="42.77555" lon="0.18205">
        <ele>1461</ele>
        <time>2019-02-27T13:51:29Z</time>
      </trkpt>
      <trkpt lat="42.77555" lon="0.18205">
        <ele>1461</ele>
        <time>2019-02-27T13:51:30Z</time>
      </trkpt>
      <trkpt lat="42.77562" lon="0.18214">
        <ele>1460</ele>
        <time>2019-02-27T13:51:31Z</time>
      </trkpt>
      <trkpt lat="42.77562" lon="0.18221">
        <ele>1460</ele>
        <time>2019-02-27T13:51:32Z</time>
      </trkpt>
      <trkpt lat="42.77563" lon="0.18228">
        <ele>1459</ele>
        <time>2019-02-27T13:51:33Z</time>
      </trkpt>
      <trkpt lat="42.77563" lon="0.18235">
        <ele>1458</ele>
        <time>2019-02-27T13:51:34Z</time>
      </trkpt>
      <trkpt lat="42.77564" lon="0.18242">
        <ele>1457</ele>
        <time>2019-02-27T13:51:35Z</time>
      </trkpt>
      <trkpt lat="42.77565" lon="0.18248">
        <ele>1457</ele>
        <time>2019-02-27T13:51:36Z</time>
      </trkpt>
      <trkpt lat="42.77567" lon="0.18254">
        <ele>1457</ele>
        <time>2019-02-27T13:51:37Z</time>
      </trkpt>
      <trkpt lat="42.77568" lon="0.1826">
        <ele>1456</ele>
        <time>2019-02-27T13:51:38Z</time>
      </trkpt>
      <trkpt lat="42.77568" lon="0.1826">
        <ele>1456</ele>
        <time>2019-02-27T13:51:39Z</time>
      </trkpt>
      <trkpt lat="42.77573" lon="0.1827">
        <ele>1456</ele>
        <time>2019-02-27T13:51:40Z</time>
      </trkpt>
      <trkpt lat="42.77575" lon="0.18275">
        <ele>1455</ele>
        <time>2019-02-27T13:51:41Z</time>
      </trkpt>
      <trkpt lat="42.77582" lon="0.18282">
        <ele>1454</ele>
        <time>2019-02-27T13:51:42Z</time>
      </trkpt>
      <trkpt lat="42.77584" lon="0.18284">
        <ele>1452</ele>
        <time>2019-02-27T13:51:43Z</time>
      </trkpt>
      <trkpt lat="42.7759" lon="0.18291">
        <ele>1451</ele>
        <time>2019-02-27T13:51:44Z</time>
      </trkpt>
      <trkpt lat="42.77592" lon="0.18292">
        <ele>1451</ele>
        <time>2019-02-27T13:51:45Z</time>
      </trkpt>
      <trkpt lat="42.77594" lon="0.18294">
        <ele>1451</ele>
        <time>2019-02-27T13:51:46Z</time>
      </trkpt>
      <trkpt lat="42.77601" lon="0.18299">
        <ele>1450</ele>
        <time>2019-02-27T13:51:47Z</time>
      </trkpt>
      <trkpt lat="42.77602" lon="0.18301">
        <ele>1449</ele>
        <time>2019-02-27T13:51:48Z</time>
      </trkpt>
      <trkpt lat="42.77604" lon="0.18302">
        <ele>1448</ele>
        <time>2019-02-27T13:51:49Z</time>
      </trkpt>
      <trkpt lat="42.77609" lon="0.18305">
        <ele>1448</ele>
        <time>2019-02-27T13:51:50Z</time>
      </trkpt>
      <trkpt lat="42.77609" lon="0.18305">
        <ele>1447</ele>
        <time>2019-02-27T13:51:51Z</time>
      </trkpt>
      <trkpt lat="42.77609" lon="0.18305">
        <ele>1447</ele>
        <time>2019-02-27T13:51:52Z</time>
      </trkpt>
      <trkpt lat="42.77609" lon="0.18305">
        <ele>1447</ele>
        <time>2019-02-27T13:51:53Z</time>
      </trkpt>
      <trkpt lat="42.77609" lon="0.18305">
        <ele>1447</ele>
        <time>2019-02-27T13:51:54Z</time>
      </trkpt>
      <trkpt lat="42.77609" lon="0.18305">
        <ele>1447</ele>
        <time>2019-02-27T13:51:55Z</time>
      </trkpt>
      <trkpt lat="42.77609" lon="0.18305">
        <ele>1448</ele>
        <time>2019-02-27T13:51:56Z</time>
      </trkpt>
      <trkpt lat="42.77609" lon="0.18305">
        <ele>1448</ele>
        <time>2019-02-27T13:51:57Z</time>
      </trkpt>
      <trkpt lat="42.77609" lon="0.18305">
        <ele>1448</ele>
        <time>2019-02-27T13:51:58Z</time>
      </trkpt>
      <trkpt lat="42.77609" lon="0.18305">
        <ele>1447</ele>
        <time>2019-02-27T13:51:59Z</time>
      </trkpt>
      <trkpt lat="42.77609" lon="0.18305">
        <ele>1447</ele>
        <time>2019-02-27T13:52:00Z</time>
      </trkpt>
      <trkpt lat="42.77609" lon="0.18305">
        <ele>1447</ele>
        <time>2019-02-27T13:52:01Z</time>
      </trkpt>
      <trkpt lat="42.77609" lon="0.18305">
        <ele>1447</ele>
        <time>2019-02-27T13:52:02Z</time>
      </trkpt>
      <trkpt lat="42.77609" lon="0.18305">
        <ele>1447</ele>
        <time>2019-02-27T13:52:03Z</time>
      </trkpt>
      <trkpt lat="42.77609" lon="0.18305">
        <ele>1447</ele>
        <time>2019-02-27T13:52:04Z</time>
      </trkpt>
      <trkpt lat="42.77609" lon="0.18305">
        <ele>1447</ele>
        <time>2019-02-27T13:52:05Z</time>
      </trkpt>
      <trkpt lat="42.77609" lon="0.18305">
        <ele>1447</ele>
        <time>2019-02-27T13:52:06Z</time>
      </trkpt>
      <trkpt lat="42.77609" lon="0.18305">
        <ele>1447</ele>
        <time>2019-02-27T13:52:07Z</time>
      </trkpt>
      <trkpt lat="42.77609" lon="0.18305">
        <ele>1447</ele>
        <time>2019-02-27T13:52:08Z</time>
      </trkpt>
      <trkpt lat="42.77609" lon="0.18305">
        <ele>1447</ele>
        <time>2019-02-27T13:52:09Z</time>
      </trkpt>
      <trkpt lat="42.77609" lon="0.18305">
        <ele>1447</ele>
        <time>2019-02-27T13:52:10Z</time>
      </trkpt>
      <trkpt lat="42.77609" lon="0.18305">
        <ele>1447</ele>
        <time>2019-02-27T13:52:11Z</time>
      </trkpt>
      <trkpt lat="42.77609" lon="0.18305">
        <ele>1447</ele>
        <time>2019-02-27T13:52:12Z</time>
      </trkpt>
      <trkpt lat="42.77618" lon="0.18305">
        <ele>1447</ele>
        <time>2019-02-27T13:52:13Z</time>
      </trkpt>
      <trkpt lat="42.77618" lon="0.18305">
        <ele>1447</ele>
        <time>2019-02-27T13:52:14Z</time>
      </trkpt>
      <trkpt lat="42.77618" lon="0.18305">
        <ele>1447</ele>
        <time>2019-02-27T13:52:15Z</time>
      </trkpt>
      <trkpt lat="42.77618" lon="0.18305">
        <ele>1447</ele>
        <time>2019-02-27T13:52:16Z</time>
      </trkpt>
      <trkpt lat="42.77618" lon="0.18305">
        <ele>1447</ele>
        <time>2019-02-27T13:52:17Z</time>
      </trkpt>
      <trkpt lat="42.77618" lon="0.18306">
        <ele>1447</ele>
        <time>2019-02-27T13:52:18Z</time>
      </trkpt>
      <trkpt lat="42.77618" lon="0.18306">
        <ele>1447</ele>
        <time>2019-02-27T13:52:19Z</time>
      </trkpt>
      <trkpt lat="42.77618" lon="0.18306">
        <ele>1447</ele>
        <time>2019-02-27T13:52:20Z</time>
      </trkpt>
      <trkpt lat="42.77618" lon="0.18306">
        <ele>1447</ele>
        <time>2019-02-27T13:52:21Z</time>
      </trkpt>
      <trkpt lat="42.77618" lon="0.18306">
        <ele>1447</ele>
        <time>2019-02-27T13:52:22Z</time>
      </trkpt>
      <trkpt lat="42.77618" lon="0.18306">
        <ele>1447</ele>
        <time>2019-02-27T13:52:23Z</time>
      </trkpt>
      <trkpt lat="42.77618" lon="0.18306">
        <ele>1447</ele>
        <time>2019-02-27T13:52:24Z</time>
      </trkpt>
      <trkpt lat="42.77618" lon="0.18307">
        <ele>1447</ele>
        <time>2019-02-27T13:52:25Z</time>
      </trkpt>
      <trkpt lat="42.77618" lon="0.18307">
        <ele>1447</ele>
        <time>2019-02-27T13:52:26Z</time>
      </trkpt>
      <trkpt lat="42.77618" lon="0.18307">
        <ele>1447</ele>
        <time>2019-02-27T13:52:27Z</time>
      </trkpt>
      <trkpt lat="42.77618" lon="0.18307">
        <ele>1446</ele>
        <time>2019-02-27T13:52:28Z</time>
      </trkpt>
      <trkpt lat="42.77619" lon="0.18307">
        <ele>1446</ele>
        <time>2019-02-27T13:52:29Z</time>
      </trkpt>
      <trkpt lat="42.77619" lon="0.18307">
        <ele>1446</ele>
        <time>2019-02-27T13:52:30Z</time>
      </trkpt>
      <trkpt lat="42.77619" lon="0.18307">
        <ele>1446</ele>
        <time>2019-02-27T13:52:31Z</time>
      </trkpt>
      <trkpt lat="42.77619" lon="0.18308">
        <ele>1446</ele>
        <time>2019-02-27T13:52:32Z</time>
      </trkpt>
      <trkpt lat="42.77619" lon="0.18308">
        <ele>1447</ele>
        <time>2019-02-27T13:52:33Z</time>
      </trkpt>
      <trkpt lat="42.77619" lon="0.18308">
        <ele>1447</ele>
        <time>2019-02-27T13:52:34Z</time>
      </trkpt>
      <trkpt lat="42.77619" lon="0.18308">
        <ele>1447</ele>
        <time>2019-02-27T13:52:35Z</time>
      </trkpt>
      <trkpt lat="42.77619" lon="0.18308">
        <ele>1447</ele>
        <time>2019-02-27T13:52:36Z</time>
      </trkpt>
      <trkpt lat="42.77619" lon="0.18308">
        <ele>1447</ele>
        <time>2019-02-27T13:52:37Z</time>
      </trkpt>
      <trkpt lat="42.77619" lon="0.18308">
        <ele>1447</ele>
        <time>2019-02-27T13:52:38Z</time>
      </trkpt>
      <trkpt lat="42.77619" lon="0.18309">
        <ele>1447</ele>
        <time>2019-02-27T13:52:39Z</time>
      </trkpt>
      <trkpt lat="42.77619" lon="0.18309">
        <ele>1447</ele>
        <time>2019-02-27T13:52:40Z</time>
      </trkpt>
      <trkpt lat="42.77619" lon="0.18309">
        <ele>1447</ele>
        <time>2019-02-27T13:52:41Z</time>
      </trkpt>
      <trkpt lat="42.77619" lon="0.18309">
        <ele>1447</ele>
        <time>2019-02-27T13:52:42Z</time>
      </trkpt>
      <trkpt lat="42.77619" lon="0.18309">
        <ele>1447</ele>
        <time>2019-02-27T13:52:43Z</time>
      </trkpt>
      <trkpt lat="42.77619" lon="0.18309">
        <ele>1447</ele>
        <time>2019-02-27T13:52:44Z</time>
      </trkpt>
      <trkpt lat="42.77619" lon="0.18309">
        <ele>1447</ele>
        <time>2019-02-27T13:52:45Z</time>
      </trkpt>
      <trkpt lat="42.77619" lon="0.1831">
        <ele>1447</ele>
        <time>2019-02-27T13:52:46Z</time>
      </trkpt>
      <trkpt lat="42.77619" lon="0.1831">
        <ele>1447</ele>
        <time>2019-02-27T13:52:47Z</time>
      </trkpt>
      <trkpt lat="42.77619" lon="0.1831">
        <ele>1447</ele>
        <time>2019-02-27T13:52:48Z</time>
      </trkpt>
      <trkpt lat="42.77619" lon="0.1831">
        <ele>1447</ele>
        <time>2019-02-27T13:52:49Z</time>
      </trkpt>
      <trkpt lat="42.77619" lon="0.1831">
        <ele>1447</ele>
        <time>2019-02-27T13:52:50Z</time>
      </trkpt>
      <trkpt lat="42.77619" lon="0.1831">
        <ele>1447</ele>
        <time>2019-02-27T13:52:51Z</time>
      </trkpt>
      <trkpt lat="42.77619" lon="0.1831">
        <ele>1447</ele>
        <time>2019-02-27T13:52:52Z</time>
      </trkpt>
      <trkpt lat="42.77619" lon="0.18311">
        <ele>1447</ele>
        <time>2019-02-27T13:52:53Z</time>
      </trkpt>
      <trkpt lat="42.77619" lon="0.18311">
        <ele>1447</ele>
        <time>2019-02-27T13:52:54Z</time>
      </trkpt>
      <trkpt lat="42.77619" lon="0.18311">
        <ele>1447</ele>
        <time>2019-02-27T13:52:55Z</time>
      </trkpt>
      <trkpt lat="42.77619" lon="0.18311">
        <ele>1447</ele>
        <time>2019-02-27T13:52:56Z</time>
      </trkpt>
      <trkpt lat="42.77619" lon="0.18311">
        <ele>1447</ele>
        <time>2019-02-27T13:52:57Z</time>
      </trkpt>
      <trkpt lat="42.77619" lon="0.18311">
        <ele>1447</ele>
        <time>2019-02-27T13:52:58Z</time>
      </trkpt>
      <trkpt lat="42.77619" lon="0.18311">
        <ele>1447</ele>
        <time>2019-02-27T13:52:59Z</time>
      </trkpt>
      <trkpt lat="42.77619" lon="0.18312">
        <ele>1447</ele>
        <time>2019-02-27T13:53:00Z</time>
      </trkpt>
      <trkpt lat="42.77619" lon="0.18312">
        <ele>1447</ele>
        <time>2019-02-27T13:53:01Z</time>
      </trkpt>
      <trkpt lat="42.77619" lon="0.18312">
        <ele>1447</ele>
        <time>2019-02-27T13:53:02Z</time>
      </trkpt>
      <trkpt lat="42.77619" lon="0.18312">
        <ele>1447</ele>
        <time>2019-02-27T13:53:03Z</time>
      </trkpt>
      <trkpt lat="42.77622" lon="0.18321">
        <ele>1446</ele>
        <time>2019-02-27T13:53:04Z</time>
      </trkpt>
      <trkpt lat="42.77624" lon="0.18322">
        <ele>1446</ele>
        <time>2019-02-27T13:53:05Z</time>
      </trkpt>
      <trkpt lat="42.77625" lon="0.18324">
        <ele>1446</ele>
        <time>2019-02-27T13:53:06Z</time>
      </trkpt>
      <trkpt lat="42.7763" lon="0.18328">
        <ele>1446</ele>
        <time>2019-02-27T13:53:07Z</time>
      </trkpt>
      <trkpt lat="42.7763" lon="0.18328">
        <ele>1445</ele>
        <time>2019-02-27T13:53:08Z</time>
      </trkpt>
      <trkpt lat="42.7764" lon="0.18334">
        <ele>1445</ele>
        <time>2019-02-27T13:53:09Z</time>
      </trkpt>
      <trkpt lat="42.77642" lon="0.18335">
        <ele>1444</ele>
        <time>2019-02-27T13:53:10Z</time>
      </trkpt>
      <trkpt lat="42.77644" lon="0.18336">
        <ele>1444</ele>
        <time>2019-02-27T13:53:11Z</time>
      </trkpt>
      <trkpt lat="42.77651" lon="0.18342">
        <ele>1444</ele>
        <time>2019-02-27T13:53:12Z</time>
      </trkpt>
      <trkpt lat="42.77653" lon="0.18343">
        <ele>1444</ele>
        <time>2019-02-27T13:53:13Z</time>
      </trkpt>
      <trkpt lat="42.77654" lon="0.18345">
        <ele>1443</ele>
        <time>2019-02-27T13:53:14Z</time>
      </trkpt>
      <trkpt lat="42.7766" lon="0.18352">
        <ele>1443</ele>
        <time>2019-02-27T13:53:15Z</time>
      </trkpt>
      <trkpt lat="42.77662" lon="0.18354">
        <ele>1443</ele>
        <time>2019-02-27T13:53:16Z</time>
      </trkpt>
      <trkpt lat="42.77663" lon="0.18356">
        <ele>1443</ele>
        <time>2019-02-27T13:53:17Z</time>
      </trkpt>
      <trkpt lat="42.77667" lon="0.18362">
        <ele>1443</ele>
        <time>2019-02-27T13:53:18Z</time>
      </trkpt>
      <trkpt lat="42.77667" lon="0.18362">
        <ele>1442</ele>
        <time>2019-02-27T13:53:19Z</time>
      </trkpt>
      <trkpt lat="42.77667" lon="0.18362">
        <ele>1441</ele>
        <time>2019-02-27T13:53:20Z</time>
      </trkpt>
      <trkpt lat="42.77674" lon="0.18371">
        <ele>1441</ele>
        <time>2019-02-27T13:53:21Z</time>
      </trkpt>
      <trkpt lat="42.77674" lon="0.18371">
        <ele>1441</ele>
        <time>2019-02-27T13:53:22Z</time>
      </trkpt>
      <trkpt lat="42.77674" lon="0.18371">
        <ele>1441</ele>
        <time>2019-02-27T13:53:23Z</time>
      </trkpt>
      <trkpt lat="42.77674" lon="0.18371">
        <ele>1441</ele>
        <time>2019-02-27T13:53:24Z</time>
      </trkpt>
      <trkpt lat="42.77674" lon="0.18371">
        <ele>1441</ele>
        <time>2019-02-27T13:53:25Z</time>
      </trkpt>
      <trkpt lat="42.77674" lon="0.18371">
        <ele>1441</ele>
        <time>2019-02-27T13:53:26Z</time>
      </trkpt>
      <trkpt lat="42.77674" lon="0.18371">
        <ele>1441</ele>
        <time>2019-02-27T13:53:27Z</time>
      </trkpt>
      <trkpt lat="42.77674" lon="0.18371">
        <ele>1441</ele>
        <time>2019-02-27T13:53:28Z</time>
      </trkpt>
      <trkpt lat="42.77674" lon="0.18371">
        <ele>1441</ele>
        <time>2019-02-27T13:53:29Z</time>
      </trkpt>
      <trkpt lat="42.77674" lon="0.18371">
        <ele>1441</ele>
        <time>2019-02-27T13:53:30Z</time>
      </trkpt>
      <trkpt lat="42.77679" lon="0.18383">
        <ele>1441</ele>
        <time>2019-02-27T13:53:31Z</time>
      </trkpt>
      <trkpt lat="42.77679" lon="0.18383">
        <ele>1441</ele>
        <time>2019-02-27T13:53:32Z</time>
      </trkpt>
      <trkpt lat="42.77679" lon="0.18383">
        <ele>1441</ele>
        <time>2019-02-27T13:53:33Z</time>
      </trkpt>
      <trkpt lat="42.77679" lon="0.18383">
        <ele>1441</ele>
        <time>2019-02-27T13:53:34Z</time>
      </trkpt>
      <trkpt lat="42.77679" lon="0.18383">
        <ele>1441</ele>
        <time>2019-02-27T13:53:35Z</time>
      </trkpt>
      <trkpt lat="42.77679" lon="0.18383">
        <ele>1441</ele>
        <time>2019-02-27T13:53:36Z</time>
      </trkpt>
      <trkpt lat="42.77679" lon="0.18383">
        <ele>1441</ele>
        <time>2019-02-27T13:53:37Z</time>
      </trkpt>
      <trkpt lat="42.77679" lon="0.18383">
        <ele>1441</ele>
        <time>2019-02-27T13:53:38Z</time>
      </trkpt>
      <trkpt lat="42.77685" lon="0.18395">
        <ele>1441</ele>
        <time>2019-02-27T13:53:39Z</time>
      </trkpt>
      <trkpt lat="42.77685" lon="0.18396">
        <ele>1442</ele>
        <time>2019-02-27T13:53:40Z</time>
      </trkpt>
      <trkpt lat="42.77685" lon="0.18396">
        <ele>1442</ele>
        <time>2019-02-27T13:53:41Z</time>
      </trkpt>
      <trkpt lat="42.77685" lon="0.18397">
        <ele>1442</ele>
        <time>2019-02-27T13:53:42Z</time>
      </trkpt>
      <trkpt lat="42.77685" lon="0.18398">
        <ele>1442</ele>
        <time>2019-02-27T13:53:43Z</time>
      </trkpt>
      <trkpt lat="42.77686" lon="0.18399">
        <ele>1442</ele>
        <time>2019-02-27T13:53:44Z</time>
      </trkpt>
      <trkpt lat="42.77686" lon="0.184">
        <ele>1442</ele>
        <time>2019-02-27T13:53:45Z</time>
      </trkpt>
      <trkpt lat="42.77686" lon="0.18401">
        <ele>1443</ele>
        <time>2019-02-27T13:53:46Z</time>
      </trkpt>
      <trkpt lat="42.77688" lon="0.18407">
        <ele>1443</ele>
        <time>2019-02-27T13:53:47Z</time>
      </trkpt>
      <trkpt lat="42.77688" lon="0.18407">
        <ele>1443</ele>
        <time>2019-02-27T13:53:48Z</time>
      </trkpt>
      <trkpt lat="42.77688" lon="0.18407">
        <ele>1443</ele>
        <time>2019-02-27T13:53:49Z</time>
      </trkpt>
      <trkpt lat="42.77688" lon="0.18407">
        <ele>1443</ele>
        <time>2019-02-27T13:53:50Z</time>
      </trkpt>
      <trkpt lat="42.77688" lon="0.18407">
        <ele>1443</ele>
        <time>2019-02-27T13:53:51Z</time>
      </trkpt>
      <trkpt lat="42.77688" lon="0.18407">
        <ele>1443</ele>
        <time>2019-02-27T13:53:52Z</time>
      </trkpt>
      <trkpt lat="42.77688" lon="0.18407">
        <ele>1443</ele>
        <time>2019-02-27T13:53:53Z</time>
      </trkpt>
      <trkpt lat="42.77688" lon="0.18407">
        <ele>1443</ele>
        <time>2019-02-27T13:53:54Z</time>
      </trkpt>
      <trkpt lat="42.77688" lon="0.18407">
        <ele>1443</ele>
        <time>2019-02-27T13:53:55Z</time>
      </trkpt>
      <trkpt lat="42.77688" lon="0.18407">
        <ele>1443</ele>
        <time>2019-02-27T13:53:56Z</time>
      </trkpt>
      <trkpt lat="42.77688" lon="0.18407">
        <ele>1443</ele>
        <time>2019-02-27T13:53:57Z</time>
      </trkpt>
      <trkpt lat="42.77688" lon="0.18407">
        <ele>1443</ele>
        <time>2019-02-27T13:53:58Z</time>
      </trkpt>
      <trkpt lat="42.77688" lon="0.18407">
        <ele>1443</ele>
        <time>2019-02-27T13:53:59Z</time>
      </trkpt>
      <trkpt lat="42.77688" lon="0.18407">
        <ele>1443</ele>
        <time>2019-02-27T13:54:00Z</time>
      </trkpt>
      <trkpt lat="42.77688" lon="0.18407">
        <ele>1443</ele>
        <time>2019-02-27T13:54:01Z</time>
      </trkpt>
      <trkpt lat="42.77688" lon="0.18407">
        <ele>1443</ele>
        <time>2019-02-27T13:54:02Z</time>
      </trkpt>
      <trkpt lat="42.77688" lon="0.18407">
        <ele>1443</ele>
        <time>2019-02-27T13:54:03Z</time>
      </trkpt>
      <trkpt lat="42.77688" lon="0.18407">
        <ele>1443</ele>
        <time>2019-02-27T13:54:04Z</time>
      </trkpt>
      <trkpt lat="42.77688" lon="0.18407">
        <ele>1443</ele>
        <time>2019-02-27T13:54:05Z</time>
      </trkpt>
      <trkpt lat="42.77688" lon="0.18407">
        <ele>1443</ele>
        <time>2019-02-27T13:54:06Z</time>
      </trkpt>
      <trkpt lat="42.77688" lon="0.18407">
        <ele>1443</ele>
        <time>2019-02-27T13:54:07Z</time>
      </trkpt>
      <trkpt lat="42.77688" lon="0.18407">
        <ele>1443</ele>
        <time>2019-02-27T13:54:08Z</time>
      </trkpt>
      <trkpt lat="42.77688" lon="0.18407">
        <ele>1443</ele>
        <time>2019-02-27T13:54:09Z</time>
      </trkpt>
      <trkpt lat="42.77688" lon="0.18407">
        <ele>1443</ele>
        <time>2019-02-27T13:54:10Z</time>
      </trkpt>
      <trkpt lat="42.77688" lon="0.18407">
        <ele>1443</ele>
        <time>2019-02-27T13:54:11Z</time>
      </trkpt>
      <trkpt lat="42.77697" lon="0.18409">
        <ele>1443</ele>
        <time>2019-02-27T13:54:12Z</time>
      </trkpt>
      <trkpt lat="42.77697" lon="0.18409">
        <ele>1444</ele>
        <time>2019-02-27T13:54:13Z</time>
      </trkpt>
      <trkpt lat="42.77697" lon="0.18409">
        <ele>1444</ele>
        <time>2019-02-27T13:54:14Z</time>
      </trkpt>
      <trkpt lat="42.77697" lon="0.18409">
        <ele>1444</ele>
        <time>2019-02-27T13:54:15Z</time>
      </trkpt>
      <trkpt lat="42.77697" lon="0.18409">
        <ele>1443</ele>
        <time>2019-02-27T13:54:16Z</time>
      </trkpt>
      <trkpt lat="42.77697" lon="0.18409">
        <ele>1442</ele>
        <time>2019-02-27T13:54:17Z</time>
      </trkpt>
      <trkpt lat="42.77697" lon="0.18409">
        <ele>1442</ele>
        <time>2019-02-27T13:54:18Z</time>
      </trkpt>
      <trkpt lat="42.77697" lon="0.18409">
        <ele>1442</ele>
        <time>2019-02-27T13:54:19Z</time>
      </trkpt>
      <trkpt lat="42.77697" lon="0.18409">
        <ele>1442</ele>
        <time>2019-02-27T13:54:20Z</time>
      </trkpt>
      <trkpt lat="42.77697" lon="0.18409">
        <ele>1443</ele>
        <time>2019-02-27T13:54:21Z</time>
      </trkpt>
      <trkpt lat="42.77697" lon="0.18409">
        <ele>1443</ele>
        <time>2019-02-27T13:54:22Z</time>
      </trkpt>
      <trkpt lat="42.77697" lon="0.18409">
        <ele>1443</ele>
        <time>2019-02-27T13:54:23Z</time>
      </trkpt>
      <trkpt lat="42.77697" lon="0.18409">
        <ele>1443</ele>
        <time>2019-02-27T13:54:24Z</time>
      </trkpt>
      <trkpt lat="42.77697" lon="0.18409">
        <ele>1443</ele>
        <time>2019-02-27T13:54:25Z</time>
      </trkpt>
      <trkpt lat="42.77697" lon="0.18409">
        <ele>1443</ele>
        <time>2019-02-27T13:54:26Z</time>
      </trkpt>
      <trkpt lat="42.77697" lon="0.18409">
        <ele>1443</ele>
        <time>2019-02-27T13:54:27Z</time>
      </trkpt>
      <trkpt lat="42.77697" lon="0.18409">
        <ele>1443</ele>
        <time>2019-02-27T13:54:28Z</time>
      </trkpt>
      <trkpt lat="42.77697" lon="0.18409">
        <ele>1443</ele>
        <time>2019-02-27T13:54:29Z</time>
      </trkpt>
      <trkpt lat="42.77697" lon="0.18409">
        <ele>1443</ele>
        <time>2019-02-27T13:54:30Z</time>
      </trkpt>
      <trkpt lat="42.77697" lon="0.18409">
        <ele>1443</ele>
        <time>2019-02-27T13:54:31Z</time>
      </trkpt>
      <trkpt lat="42.77697" lon="0.18409">
        <ele>1443</ele>
        <time>2019-02-27T13:54:32Z</time>
      </trkpt>
      <trkpt lat="42.77697" lon="0.18409">
        <ele>1443</ele>
        <time>2019-02-27T13:54:33Z</time>
      </trkpt>
      <trkpt lat="42.77697" lon="0.18409">
        <ele>1442</ele>
        <time>2019-02-27T13:54:34Z</time>
      </trkpt>
      <trkpt lat="42.77697" lon="0.18409">
        <ele>1443</ele>
        <time>2019-02-27T13:54:35Z</time>
      </trkpt>
      <trkpt lat="42.77697" lon="0.18409">
        <ele>1443</ele>
        <time>2019-02-27T13:54:36Z</time>
      </trkpt>
      <trkpt lat="42.77697" lon="0.18409">
        <ele>1443</ele>
        <time>2019-02-27T13:54:37Z</time>
      </trkpt>
      <trkpt lat="42.77697" lon="0.18409">
        <ele>1442</ele>
        <time>2019-02-27T13:54:38Z</time>
      </trkpt>
      <trkpt lat="42.77697" lon="0.18409">
        <ele>1442</ele>
        <time>2019-02-27T13:54:39Z</time>
      </trkpt>
      <trkpt lat="42.77697" lon="0.18409">
        <ele>1442</ele>
        <time>2019-02-27T13:54:40Z</time>
      </trkpt>
      <trkpt lat="42.77697" lon="0.18409">
        <ele>1442</ele>
        <time>2019-02-27T13:54:41Z</time>
      </trkpt>
      <trkpt lat="42.77697" lon="0.18409">
        <ele>1442</ele>
        <time>2019-02-27T13:54:42Z</time>
      </trkpt>
      <trkpt lat="42.77697" lon="0.18409">
        <ele>1442</ele>
        <time>2019-02-27T13:54:43Z</time>
      </trkpt>
      <trkpt lat="42.77697" lon="0.18409">
        <ele>1442</ele>
        <time>2019-02-27T13:54:44Z</time>
      </trkpt>
      <trkpt lat="42.77697" lon="0.18409">
        <ele>1442</ele>
        <time>2019-02-27T13:54:45Z</time>
      </trkpt>
      <trkpt lat="42.77697" lon="0.18409">
        <ele>1442</ele>
        <time>2019-02-27T13:54:46Z</time>
      </trkpt>
      <trkpt lat="42.77697" lon="0.18409">
        <ele>1442</ele>
        <time>2019-02-27T13:54:47Z</time>
      </trkpt>
      <trkpt lat="42.77697" lon="0.18409">
        <ele>1442</ele>
        <time>2019-02-27T13:54:48Z</time>
      </trkpt>
      <trkpt lat="42.77697" lon="0.18409">
        <ele>1442</ele>
        <time>2019-02-27T13:54:49Z</time>
      </trkpt>
      <trkpt lat="42.77697" lon="0.18409">
        <ele>1442</ele>
        <time>2019-02-27T13:54:50Z</time>
      </trkpt>
      <trkpt lat="42.77697" lon="0.18409">
        <ele>1442</ele>
        <time>2019-02-27T13:54:51Z</time>
      </trkpt>
      <trkpt lat="42.77697" lon="0.18409">
        <ele>1442</ele>
        <time>2019-02-27T13:54:52Z</time>
      </trkpt>
      <trkpt lat="42.77697" lon="0.18409">
        <ele>1442</ele>
        <time>2019-02-27T13:54:53Z</time>
      </trkpt>
      <trkpt lat="42.77697" lon="0.18409">
        <ele>1442</ele>
        <time>2019-02-27T13:54:54Z</time>
      </trkpt>
      <trkpt lat="42.77697" lon="0.18409">
        <ele>1442</ele>
        <time>2019-02-27T13:54:55Z</time>
      </trkpt>
      <trkpt lat="42.77697" lon="0.18409">
        <ele>1442</ele>
        <time>2019-02-27T13:54:56Z</time>
      </trkpt>
      <trkpt lat="42.77697" lon="0.18409">
        <ele>1443</ele>
        <time>2019-02-27T13:54:57Z</time>
      </trkpt>
      <trkpt lat="42.77697" lon="0.18409">
        <ele>1443</ele>
        <time>2019-02-27T13:54:58Z</time>
      </trkpt>
      <trkpt lat="42.77697" lon="0.18409">
        <ele>1443</ele>
        <time>2019-02-27T13:54:59Z</time>
      </trkpt>
      <trkpt lat="42.77697" lon="0.18409">
        <ele>1444</ele>
        <time>2019-02-27T13:55:00Z</time>
      </trkpt>
      <trkpt lat="42.77697" lon="0.18409">
        <ele>1444</ele>
        <time>2019-02-27T13:55:01Z</time>
      </trkpt>
      <trkpt lat="42.77697" lon="0.18409">
        <ele>1444</ele>
        <time>2019-02-27T13:55:02Z</time>
      </trkpt>
      <trkpt lat="42.77697" lon="0.18409">
        <ele>1444</ele>
        <time>2019-02-27T13:55:03Z</time>
      </trkpt>
      <trkpt lat="42.77697" lon="0.18409">
        <ele>1444</ele>
        <time>2019-02-27T13:55:04Z</time>
      </trkpt>
      <trkpt lat="42.77697" lon="0.18409">
        <ele>1444</ele>
        <time>2019-02-27T13:55:05Z</time>
      </trkpt>
      <trkpt lat="42.77697" lon="0.18409">
        <ele>1443</ele>
        <time>2019-02-27T13:55:06Z</time>
      </trkpt>
      <trkpt lat="42.77697" lon="0.18409">
        <ele>1443</ele>
        <time>2019-02-27T13:55:07Z</time>
      </trkpt>
      <trkpt lat="42.77697" lon="0.18409">
        <ele>1443</ele>
        <time>2019-02-27T13:55:08Z</time>
      </trkpt>
      <trkpt lat="42.77697" lon="0.18409">
        <ele>1443</ele>
        <time>2019-02-27T13:55:09Z</time>
      </trkpt>
      <trkpt lat="42.77697" lon="0.18409">
        <ele>1443</ele>
        <time>2019-02-27T13:55:10Z</time>
      </trkpt>
      <trkpt lat="42.77697" lon="0.18409">
        <ele>1443</ele>
        <time>2019-02-27T13:55:11Z</time>
      </trkpt>
      <trkpt lat="42.77697" lon="0.18409">
        <ele>1443</ele>
        <time>2019-02-27T13:55:12Z</time>
      </trkpt>
      <trkpt lat="42.77697" lon="0.18409">
        <ele>1443</ele>
        <time>2019-02-27T13:55:13Z</time>
      </trkpt>
      <trkpt lat="42.77697" lon="0.18409">
        <ele>1444</ele>
        <time>2019-02-27T13:55:14Z</time>
      </trkpt>
      <trkpt lat="42.77697" lon="0.18409">
        <ele>1444</ele>
        <time>2019-02-27T13:55:15Z</time>
      </trkpt>
      <trkpt lat="42.77697" lon="0.18409">
        <ele>1444</ele>
        <time>2019-02-27T13:55:16Z</time>
      </trkpt>
      <trkpt lat="42.77697" lon="0.18409">
        <ele>1444</ele>
        <time>2019-02-27T13:55:17Z</time>
      </trkpt>
      <trkpt lat="42.77697" lon="0.18409">
        <ele>1444</ele>
        <time>2019-02-27T13:55:18Z</time>
      </trkpt>
      <trkpt lat="42.77697" lon="0.18409">
        <ele>1444</ele>
        <time>2019-02-27T13:55:19Z</time>
      </trkpt>
      <trkpt lat="42.77697" lon="0.18409">
        <ele>1444</ele>
        <time>2019-02-27T13:55:20Z</time>
      </trkpt>
      <trkpt lat="42.77697" lon="0.18409">
        <ele>1444</ele>
        <time>2019-02-27T13:55:21Z</time>
      </trkpt>
      <trkpt lat="42.77697" lon="0.18409">
        <ele>1444</ele>
        <time>2019-02-27T13:55:22Z</time>
      </trkpt>
      <trkpt lat="42.77697" lon="0.18409">
        <ele>1444</ele>
        <time>2019-02-27T13:55:23Z</time>
      </trkpt>
      <trkpt lat="42.77697" lon="0.18409">
        <ele>1443</ele>
        <time>2019-02-27T13:55:24Z</time>
      </trkpt>
      <trkpt lat="42.77697" lon="0.18409">
        <ele>1443</ele>
        <time>2019-02-27T13:55:25Z</time>
      </trkpt>
      <trkpt lat="42.77697" lon="0.18409">
        <ele>1443</ele>
        <time>2019-02-27T13:55:26Z</time>
      </trkpt>
      <trkpt lat="42.77697" lon="0.18409">
        <ele>1443</ele>
        <time>2019-02-27T13:55:27Z</time>
      </trkpt>
      <trkpt lat="42.77697" lon="0.18409">
        <ele>1444</ele>
        <time>2019-02-27T13:55:28Z</time>
      </trkpt>
      <trkpt lat="42.77697" lon="0.18409">
        <ele>1444</ele>
        <time>2019-02-27T13:55:29Z</time>
      </trkpt>
      <trkpt lat="42.77697" lon="0.18409">
        <ele>1444</ele>
        <time>2019-02-27T13:55:30Z</time>
      </trkpt>
      <trkpt lat="42.77697" lon="0.18409">
        <ele>1444</ele>
        <time>2019-02-27T13:55:31Z</time>
      </trkpt>
      <trkpt lat="42.77697" lon="0.18409">
        <ele>1443</ele>
        <time>2019-02-27T13:55:32Z</time>
      </trkpt>
      <trkpt lat="42.77697" lon="0.18409">
        <ele>1442</ele>
        <time>2019-02-27T13:55:33Z</time>
      </trkpt>
      <trkpt lat="42.77697" lon="0.18409">
        <ele>1442</ele>
        <time>2019-02-27T13:55:34Z</time>
      </trkpt>
      <trkpt lat="42.77697" lon="0.18409">
        <ele>1442</ele>
        <time>2019-02-27T13:55:35Z</time>
      </trkpt>
      <trkpt lat="42.77697" lon="0.18409">
        <ele>1442</ele>
        <time>2019-02-27T13:55:36Z</time>
      </trkpt>
      <trkpt lat="42.77697" lon="0.18409">
        <ele>1442</ele>
        <time>2019-02-27T13:55:37Z</time>
      </trkpt>
      <trkpt lat="42.77697" lon="0.18409">
        <ele>1443</ele>
        <time>2019-02-27T13:55:38Z</time>
      </trkpt>
      <trkpt lat="42.77697" lon="0.18409">
        <ele>1443</ele>
        <time>2019-02-27T13:55:39Z</time>
      </trkpt>
      <trkpt lat="42.77697" lon="0.18409">
        <ele>1444</ele>
        <time>2019-02-27T13:55:40Z</time>
      </trkpt>
      <trkpt lat="42.77697" lon="0.18409">
        <ele>1444</ele>
        <time>2019-02-27T13:55:41Z</time>
      </trkpt>
      <trkpt lat="42.77697" lon="0.18409">
        <ele>1444</ele>
        <time>2019-02-27T13:55:42Z</time>
      </trkpt>
      <trkpt lat="42.77697" lon="0.18409">
        <ele>1444</ele>
        <time>2019-02-27T13:55:43Z</time>
      </trkpt>
      <trkpt lat="42.77697" lon="0.18409">
        <ele>1444</ele>
        <time>2019-02-27T13:55:44Z</time>
      </trkpt>
      <trkpt lat="42.77697" lon="0.18409">
        <ele>1444</ele>
        <time>2019-02-27T13:55:45Z</time>
      </trkpt>
      <trkpt lat="42.77697" lon="0.18409">
        <ele>1444</ele>
        <time>2019-02-27T13:55:46Z</time>
      </trkpt>
      <trkpt lat="42.77697" lon="0.18409">
        <ele>1444</ele>
        <time>2019-02-27T13:55:47Z</time>
      </trkpt>
      <trkpt lat="42.77697" lon="0.18409">
        <ele>1444</ele>
        <time>2019-02-27T13:55:48Z</time>
      </trkpt>
      <trkpt lat="42.77697" lon="0.18409">
        <ele>1444</ele>
        <time>2019-02-27T13:55:49Z</time>
      </trkpt>
      <trkpt lat="42.77697" lon="0.18409">
        <ele>1444</ele>
        <time>2019-02-27T13:55:50Z</time>
      </trkpt>
      <trkpt lat="42.77697" lon="0.18409">
        <ele>1444</ele>
        <time>2019-02-27T13:55:51Z</time>
      </trkpt>
      <trkpt lat="42.77697" lon="0.18409">
        <ele>1444</ele>
        <time>2019-02-27T13:55:52Z</time>
      </trkpt>
      <trkpt lat="42.77697" lon="0.18409">
        <ele>1444</ele>
        <time>2019-02-27T13:55:53Z</time>
      </trkpt>
      <trkpt lat="42.77697" lon="0.18409">
        <ele>1444</ele>
        <time>2019-02-27T13:55:54Z</time>
      </trkpt>
      <trkpt lat="42.77697" lon="0.18409">
        <ele>1444</ele>
        <time>2019-02-27T13:55:55Z</time>
      </trkpt>
      <trkpt lat="42.77697" lon="0.18409">
        <ele>1444</ele>
        <time>2019-02-27T13:55:56Z</time>
      </trkpt>
      <trkpt lat="42.77697" lon="0.18409">
        <ele>1444</ele>
        <time>2019-02-27T13:55:57Z</time>
      </trkpt>
      <trkpt lat="42.77697" lon="0.18409">
        <ele>1444</ele>
        <time>2019-02-27T13:55:58Z</time>
      </trkpt>
      <trkpt lat="42.77697" lon="0.18409">
        <ele>1444</ele>
        <time>2019-02-27T13:55:59Z</time>
      </trkpt>
      <trkpt lat="42.77697" lon="0.18409">
        <ele>1444</ele>
        <time>2019-02-27T13:56:00Z</time>
      </trkpt>
      <trkpt lat="42.77697" lon="0.18409">
        <ele>1444</ele>
        <time>2019-02-27T13:56:01Z</time>
      </trkpt>
      <trkpt lat="42.77697" lon="0.18409">
        <ele>1444</ele>
        <time>2019-02-27T13:56:02Z</time>
      </trkpt>
      <trkpt lat="42.77697" lon="0.18409">
        <ele>1444</ele>
        <time>2019-02-27T13:56:03Z</time>
      </trkpt>
      <trkpt lat="42.77697" lon="0.18409">
        <ele>1444</ele>
        <time>2019-02-27T13:56:04Z</time>
      </trkpt>
      <trkpt lat="42.77697" lon="0.18409">
        <ele>1444</ele>
        <time>2019-02-27T13:56:05Z</time>
      </trkpt>
      <trkpt lat="42.77697" lon="0.18409">
        <ele>1444</ele>
        <time>2019-02-27T13:56:06Z</time>
      </trkpt>
      <trkpt lat="42.77697" lon="0.18409">
        <ele>1444</ele>
        <time>2019-02-27T13:56:07Z</time>
      </trkpt>
      <trkpt lat="42.77697" lon="0.18409">
        <ele>1444</ele>
        <time>2019-02-27T13:56:08Z</time>
      </trkpt>
      <trkpt lat="42.77697" lon="0.18409">
        <ele>1444</ele>
        <time>2019-02-27T13:56:09Z</time>
      </trkpt>
      <trkpt lat="42.77697" lon="0.18409">
        <ele>1444</ele>
        <time>2019-02-27T13:56:10Z</time>
      </trkpt>
      <trkpt lat="42.77697" lon="0.18409">
        <ele>1444</ele>
        <time>2019-02-27T13:56:11Z</time>
      </trkpt>
      <trkpt lat="42.77697" lon="0.18409">
        <ele>1444</ele>
        <time>2019-02-27T13:56:12Z</time>
      </trkpt>
      <trkpt lat="42.77697" lon="0.18409">
        <ele>1444</ele>
        <time>2019-02-27T13:56:13Z</time>
      </trkpt>
      <trkpt lat="42.77703" lon="0.18419">
        <ele>1444</ele>
        <time>2019-02-27T13:56:14Z</time>
      </trkpt>
      <trkpt lat="42.77703" lon="0.18419">
        <ele>1445</ele>
        <time>2019-02-27T13:56:15Z</time>
      </trkpt>
      <trkpt lat="42.77703" lon="0.18419">
        <ele>1445</ele>
        <time>2019-02-27T13:56:16Z</time>
      </trkpt>
      <trkpt lat="42.77703" lon="0.18419">
        <ele>1445</ele>
        <time>2019-02-27T13:56:17Z</time>
      </trkpt>
      <trkpt lat="42.77703" lon="0.18419">
        <ele>1445</ele>
        <time>2019-02-27T13:56:18Z</time>
      </trkpt>
      <trkpt lat="42.77703" lon="0.18419">
        <ele>1445</ele>
        <time>2019-02-27T13:56:19Z</time>
      </trkpt>
      <trkpt lat="42.77703" lon="0.18419">
        <ele>1445</ele>
        <time>2019-02-27T13:56:20Z</time>
      </trkpt>
      <trkpt lat="42.77703" lon="0.18419">
        <ele>1445</ele>
        <time>2019-02-27T13:56:21Z</time>
      </trkpt>
      <trkpt lat="42.77703" lon="0.18419">
        <ele>1445</ele>
        <time>2019-02-27T13:56:22Z</time>
      </trkpt>
      <trkpt lat="42.77703" lon="0.18419">
        <ele>1445</ele>
        <time>2019-02-27T13:56:23Z</time>
      </trkpt>
      <trkpt lat="42.77703" lon="0.18419">
        <ele>1445</ele>
        <time>2019-02-27T13:56:24Z</time>
      </trkpt>
      <trkpt lat="42.77703" lon="0.18419">
        <ele>1445</ele>
        <time>2019-02-27T13:56:25Z</time>
      </trkpt>
      <trkpt lat="42.77703" lon="0.18419">
        <ele>1445</ele>
        <time>2019-02-27T13:56:26Z</time>
      </trkpt>
      <trkpt lat="42.77703" lon="0.18419">
        <ele>1445</ele>
        <time>2019-02-27T13:56:27Z</time>
      </trkpt>
      <trkpt lat="42.77703" lon="0.18419">
        <ele>1445</ele>
        <time>2019-02-27T13:56:28Z</time>
      </trkpt>
      <trkpt lat="42.77707" lon="0.1843">
        <ele>1445</ele>
        <time>2019-02-27T13:56:29Z</time>
      </trkpt>
      <trkpt lat="42.77707" lon="0.1843">
        <ele>1444</ele>
        <time>2019-02-27T13:56:30Z</time>
      </trkpt>
      <trkpt lat="42.77707" lon="0.1843">
        <ele>1444</ele>
        <time>2019-02-27T13:56:31Z</time>
      </trkpt>
      <trkpt lat="42.77707" lon="0.1843">
        <ele>1444</ele>
        <time>2019-02-27T13:56:32Z</time>
      </trkpt>
      <trkpt lat="42.77707" lon="0.1843">
        <ele>1444</ele>
        <time>2019-02-27T13:56:33Z</time>
      </trkpt>
      <trkpt lat="42.77707" lon="0.1843">
        <ele>1444</ele>
        <time>2019-02-27T13:56:34Z</time>
      </trkpt>
      <trkpt lat="42.77707" lon="0.1843">
        <ele>1444</ele>
        <time>2019-02-27T13:56:35Z</time>
      </trkpt>
      <trkpt lat="42.77707" lon="0.1843">
        <ele>1444</ele>
        <time>2019-02-27T13:56:36Z</time>
      </trkpt>
      <trkpt lat="42.77707" lon="0.1843">
        <ele>1444</ele>
        <time>2019-02-27T13:56:37Z</time>
      </trkpt>
      <trkpt lat="42.77707" lon="0.1843">
        <ele>1444</ele>
        <time>2019-02-27T13:56:38Z</time>
      </trkpt>
      <trkpt lat="42.77707" lon="0.1843">
        <ele>1444</ele>
        <time>2019-02-27T13:56:39Z</time>
      </trkpt>
      <trkpt lat="42.77707" lon="0.1843">
        <ele>1444</ele>
        <time>2019-02-27T13:56:40Z</time>
      </trkpt>
      <trkpt lat="42.7771" lon="0.18442">
        <ele>1444</ele>
        <time>2019-02-27T13:56:41Z</time>
      </trkpt>
      <trkpt lat="42.7771" lon="0.18442">
        <ele>1444</ele>
        <time>2019-02-27T13:56:42Z</time>
      </trkpt>
      <trkpt lat="42.7771" lon="0.18442">
        <ele>1444</ele>
        <time>2019-02-27T13:56:43Z</time>
      </trkpt>
      <trkpt lat="42.7771" lon="0.18442">
        <ele>1444</ele>
        <time>2019-02-27T13:56:44Z</time>
      </trkpt>
      <trkpt lat="42.7771" lon="0.18442">
        <ele>1444</ele>
        <time>2019-02-27T13:56:45Z</time>
      </trkpt>
      <trkpt lat="42.7771" lon="0.18442">
        <ele>1444</ele>
        <time>2019-02-27T13:56:46Z</time>
      </trkpt>
      <trkpt lat="42.7771" lon="0.18442">
        <ele>1444</ele>
        <time>2019-02-27T13:56:47Z</time>
      </trkpt>
      <trkpt lat="42.7771" lon="0.18442">
        <ele>1444</ele>
        <time>2019-02-27T13:56:48Z</time>
      </trkpt>
      <trkpt lat="42.7771" lon="0.18442">
        <ele>1444</ele>
        <time>2019-02-27T13:56:49Z</time>
      </trkpt>
      <trkpt lat="42.7771" lon="0.18442">
        <ele>1444</ele>
        <time>2019-02-27T13:56:50Z</time>
      </trkpt>
      <trkpt lat="42.7771" lon="0.18442">
        <ele>1444</ele>
        <time>2019-02-27T13:56:51Z</time>
      </trkpt>
      <trkpt lat="42.77714" lon="0.18454">
        <ele>1444</ele>
        <time>2019-02-27T13:56:52Z</time>
      </trkpt>
      <trkpt lat="42.77714" lon="0.18454">
        <ele>1444</ele>
        <time>2019-02-27T13:56:53Z</time>
      </trkpt>
      <trkpt lat="42.77714" lon="0.18454">
        <ele>1444</ele>
        <time>2019-02-27T13:56:54Z</time>
      </trkpt>
      <trkpt lat="42.77714" lon="0.18454">
        <ele>1444</ele>
        <time>2019-02-27T13:56:55Z</time>
      </trkpt>
      <trkpt lat="42.77714" lon="0.18454">
        <ele>1444</ele>
        <time>2019-02-27T13:56:56Z</time>
      </trkpt>
      <trkpt lat="42.77714" lon="0.18454">
        <ele>1444</ele>
        <time>2019-02-27T13:56:57Z</time>
      </trkpt>
      <trkpt lat="42.77714" lon="0.18454">
        <ele>1444</ele>
        <time>2019-02-27T13:56:58Z</time>
      </trkpt>
      <trkpt lat="42.77714" lon="0.18454">
        <ele>1444</ele>
        <time>2019-02-27T13:56:59Z</time>
      </trkpt>
      <trkpt lat="42.77714" lon="0.18454">
        <ele>1445</ele>
        <time>2019-02-27T13:57:00Z</time>
      </trkpt>
      <trkpt lat="42.77714" lon="0.18454">
        <ele>1445</ele>
        <time>2019-02-27T13:57:01Z</time>
      </trkpt>
      <trkpt lat="42.77718" lon="0.18465">
        <ele>1445</ele>
        <time>2019-02-27T13:57:02Z</time>
      </trkpt>
      <trkpt lat="42.77718" lon="0.18465">
        <ele>1445</ele>
        <time>2019-02-27T13:57:03Z</time>
      </trkpt>
      <trkpt lat="42.77718" lon="0.18465">
        <ele>1444</ele>
        <time>2019-02-27T13:57:04Z</time>
      </trkpt>
      <trkpt lat="42.77718" lon="0.18465">
        <ele>1444</ele>
        <time>2019-02-27T13:57:05Z</time>
      </trkpt>
      <trkpt lat="42.77718" lon="0.18465">
        <ele>1444</ele>
        <time>2019-02-27T13:57:06Z</time>
      </trkpt>
      <trkpt lat="42.77718" lon="0.18465">
        <ele>1444</ele>
        <time>2019-02-27T13:57:07Z</time>
      </trkpt>
      <trkpt lat="42.77718" lon="0.18465">
        <ele>1444</ele>
        <time>2019-02-27T13:57:08Z</time>
      </trkpt>
      <trkpt lat="42.77721" lon="0.18478">
        <ele>1444</ele>
        <time>2019-02-27T13:57:09Z</time>
      </trkpt>
      <trkpt lat="42.77721" lon="0.18478">
        <ele>1444</ele>
        <time>2019-02-27T13:57:10Z</time>
      </trkpt>
      <trkpt lat="42.77721" lon="0.18478">
        <ele>1444</ele>
        <time>2019-02-27T13:57:11Z</time>
      </trkpt>
      <trkpt lat="42.77721" lon="0.18478">
        <ele>1444</ele>
        <time>2019-02-27T13:57:12Z</time>
      </trkpt>
      <trkpt lat="42.77721" lon="0.18478">
        <ele>1444</ele>
        <time>2019-02-27T13:57:13Z</time>
      </trkpt>
      <trkpt lat="42.77724" lon="0.1849">
        <ele>1444</ele>
        <time>2019-02-27T13:57:14Z</time>
      </trkpt>
      <trkpt lat="42.77724" lon="0.1849">
        <ele>1444</ele>
        <time>2019-02-27T13:57:15Z</time>
      </trkpt>
      <trkpt lat="42.77724" lon="0.1849">
        <ele>1444</ele>
        <time>2019-02-27T13:57:16Z</time>
      </trkpt>
      <trkpt lat="42.77724" lon="0.1849">
        <ele>1444</ele>
        <time>2019-02-27T13:57:17Z</time>
      </trkpt>
      <trkpt lat="42.77724" lon="0.1849">
        <ele>1444</ele>
        <time>2019-02-27T13:57:18Z</time>
      </trkpt>
      <trkpt lat="42.77724" lon="0.1849">
        <ele>1444</ele>
        <time>2019-02-27T13:57:19Z</time>
      </trkpt>
      <trkpt lat="42.77724" lon="0.1849">
        <ele>1444</ele>
        <time>2019-02-27T13:57:20Z</time>
      </trkpt>
      <trkpt lat="42.77724" lon="0.1849">
        <ele>1444</ele>
        <time>2019-02-27T13:57:21Z</time>
      </trkpt>
      <trkpt lat="42.77726" lon="0.18502">
        <ele>1444</ele>
        <time>2019-02-27T13:57:22Z</time>
      </trkpt>
      <trkpt lat="42.77726" lon="0.18502">
        <ele>1444</ele>
        <time>2019-02-27T13:57:23Z</time>
      </trkpt>
      <trkpt lat="42.77726" lon="0.18502">
        <ele>1444</ele>
        <time>2019-02-27T13:57:24Z</time>
      </trkpt>
      <trkpt lat="42.77726" lon="0.18502">
        <ele>1444</ele>
        <time>2019-02-27T13:57:25Z</time>
      </trkpt>
      <trkpt lat="42.77726" lon="0.18502">
        <ele>1444</ele>
        <time>2019-02-27T13:57:26Z</time>
      </trkpt>
      <trkpt lat="42.77726" lon="0.18502">
        <ele>1444</ele>
        <time>2019-02-27T13:57:27Z</time>
      </trkpt>
      <trkpt lat="42.77726" lon="0.18502">
        <ele>1444</ele>
        <time>2019-02-27T13:57:28Z</time>
      </trkpt>
      <trkpt lat="42.77726" lon="0.18502">
        <ele>1444</ele>
        <time>2019-02-27T13:57:29Z</time>
      </trkpt>
      <trkpt lat="42.77726" lon="0.18502">
        <ele>1444</ele>
        <time>2019-02-27T13:57:30Z</time>
      </trkpt>
      <trkpt lat="42.77726" lon="0.18502">
        <ele>1444</ele>
        <time>2019-02-27T13:57:31Z</time>
      </trkpt>
      <trkpt lat="42.77729" lon="0.18516">
        <ele>1444</ele>
        <time>2019-02-27T13:57:32Z</time>
      </trkpt>
      <trkpt lat="42.77729" lon="0.18516">
        <ele>1444</ele>
        <time>2019-02-27T13:57:33Z</time>
      </trkpt>
      <trkpt lat="42.77729" lon="0.18517">
        <ele>1444</ele>
        <time>2019-02-27T13:57:34Z</time>
      </trkpt>
      <trkpt lat="42.7773" lon="0.18518">
        <ele>1444</ele>
        <time>2019-02-27T13:57:35Z</time>
      </trkpt>
      <trkpt lat="42.7773" lon="0.18519">
        <ele>1444</ele>
        <time>2019-02-27T13:57:36Z</time>
      </trkpt>
      <trkpt lat="42.7773" lon="0.18519">
        <ele>1444</ele>
        <time>2019-02-27T13:57:37Z</time>
      </trkpt>
      <trkpt lat="42.7773" lon="0.1852">
        <ele>1444</ele>
        <time>2019-02-27T13:57:38Z</time>
      </trkpt>
      <trkpt lat="42.77731" lon="0.18521">
        <ele>1444</ele>
        <time>2019-02-27T13:57:39Z</time>
      </trkpt>
      <trkpt lat="42.77731" lon="0.18522">
        <ele>1444</ele>
        <time>2019-02-27T13:57:40Z</time>
      </trkpt>
      <trkpt lat="42.77734" lon="0.18529">
        <ele>1444</ele>
        <time>2019-02-27T13:57:41Z</time>
      </trkpt>
      <trkpt lat="42.77735" lon="0.18531">
        <ele>1443</ele>
        <time>2019-02-27T13:57:42Z</time>
      </trkpt>
      <trkpt lat="42.77735" lon="0.18532">
        <ele>1443</ele>
        <time>2019-02-27T13:57:43Z</time>
      </trkpt>
      <trkpt lat="42.77736" lon="0.18533">
        <ele>1443</ele>
        <time>2019-02-27T13:57:44Z</time>
      </trkpt>
      <trkpt lat="42.77736" lon="0.18535">
        <ele>1443</ele>
        <time>2019-02-27T13:57:45Z</time>
      </trkpt>
      <trkpt lat="42.77739" lon="0.18541">
        <ele>1443</ele>
        <time>2019-02-27T13:57:46Z</time>
      </trkpt>
      <trkpt lat="42.77739" lon="0.18541">
        <ele>1443</ele>
        <time>2019-02-27T13:57:47Z</time>
      </trkpt>
      <trkpt lat="42.77739" lon="0.18541">
        <ele>1443</ele>
        <time>2019-02-27T13:57:48Z</time>
      </trkpt>
      <trkpt lat="42.77739" lon="0.18541">
        <ele>1443</ele>
        <time>2019-02-27T13:57:49Z</time>
      </trkpt>
      <trkpt lat="42.77739" lon="0.18541">
        <ele>1443</ele>
        <time>2019-02-27T13:57:50Z</time>
      </trkpt>
      <trkpt lat="42.77745" lon="0.18552">
        <ele>1443</ele>
        <time>2019-02-27T13:57:51Z</time>
      </trkpt>
      <trkpt lat="42.77745" lon="0.18552">
        <ele>1443</ele>
        <time>2019-02-27T13:57:52Z</time>
      </trkpt>
      <trkpt lat="42.77745" lon="0.18552">
        <ele>1443</ele>
        <time>2019-02-27T13:57:53Z</time>
      </trkpt>
      <trkpt lat="42.77751" lon="0.18562">
        <ele>1442</ele>
        <time>2019-02-27T13:57:54Z</time>
      </trkpt>
      <trkpt lat="42.77751" lon="0.18562">
        <ele>1442</ele>
        <time>2019-02-27T13:57:55Z</time>
      </trkpt>
      <trkpt lat="42.77757" lon="0.18572">
        <ele>1442</ele>
        <time>2019-02-27T13:57:56Z</time>
      </trkpt>
      <trkpt lat="42.77757" lon="0.18572">
        <ele>1442</ele>
        <time>2019-02-27T13:57:57Z</time>
      </trkpt>
      <trkpt lat="42.77765" lon="0.18585">
        <ele>1441</ele>
        <time>2019-02-27T13:57:58Z</time>
      </trkpt>
      <trkpt lat="42.77767" lon="0.18588">
        <ele>1440</ele>
        <time>2019-02-27T13:57:59Z</time>
      </trkpt>
      <trkpt lat="42.77771" lon="0.18593">
        <ele>1440</ele>
        <time>2019-02-27T13:58:00Z</time>
      </trkpt>
      <trkpt lat="42.77771" lon="0.18593">
        <ele>1439</ele>
        <time>2019-02-27T13:58:01Z</time>
      </trkpt>
      <trkpt lat="42.7778" lon="0.18603">
        <ele>1439</ele>
        <time>2019-02-27T13:58:02Z</time>
      </trkpt>
      <trkpt lat="42.77782" lon="0.18605">
        <ele>1439</ele>
        <time>2019-02-27T13:58:03Z</time>
      </trkpt>
      <trkpt lat="42.77783" lon="0.18607">
        <ele>1438</ele>
        <time>2019-02-27T13:58:04Z</time>
      </trkpt>
      <trkpt lat="42.77787" lon="0.18612">
        <ele>1438</ele>
        <time>2019-02-27T13:58:05Z</time>
      </trkpt>
      <trkpt lat="42.77787" lon="0.18612">
        <ele>1438</ele>
        <time>2019-02-27T13:58:06Z</time>
      </trkpt>
      <trkpt lat="42.77787" lon="0.18612">
        <ele>1438</ele>
        <time>2019-02-27T13:58:07Z</time>
      </trkpt>
      <trkpt lat="42.77795" lon="0.18624">
        <ele>1437</ele>
        <time>2019-02-27T13:58:08Z</time>
      </trkpt>
      <trkpt lat="42.77796" lon="0.18626">
        <ele>1437</ele>
        <time>2019-02-27T13:58:09Z</time>
      </trkpt>
      <trkpt lat="42.77797" lon="0.18628">
        <ele>1437</ele>
        <time>2019-02-27T13:58:10Z</time>
      </trkpt>
      <trkpt lat="42.778" lon="0.18633">
        <ele>1437</ele>
        <time>2019-02-27T13:58:11Z</time>
      </trkpt>
      <trkpt lat="42.778" lon="0.18633">
        <ele>1437</ele>
        <time>2019-02-27T13:58:12Z</time>
      </trkpt>
      <trkpt lat="42.778" lon="0.18633">
        <ele>1437</ele>
        <time>2019-02-27T13:58:13Z</time>
      </trkpt>
      <trkpt lat="42.77805" lon="0.18646">
        <ele>1436</ele>
        <time>2019-02-27T13:58:14Z</time>
      </trkpt>
      <trkpt lat="42.77805" lon="0.18646">
        <ele>1436</ele>
        <time>2019-02-27T13:58:15Z</time>
      </trkpt>
      <trkpt lat="42.77805" lon="0.18646">
        <ele>1436</ele>
        <time>2019-02-27T13:58:16Z</time>
      </trkpt>
      <trkpt lat="42.77809" lon="0.18658">
        <ele>1436</ele>
        <time>2019-02-27T13:58:17Z</time>
      </trkpt>
      <trkpt lat="42.77809" lon="0.18658">
        <ele>1436</ele>
        <time>2019-02-27T13:58:18Z</time>
      </trkpt>
      <trkpt lat="42.77809" lon="0.18658">
        <ele>1436</ele>
        <time>2019-02-27T13:58:19Z</time>
      </trkpt>
      <trkpt lat="42.77809" lon="0.18658">
        <ele>1436</ele>
        <time>2019-02-27T13:58:20Z</time>
      </trkpt>
      <trkpt lat="42.77809" lon="0.18658">
        <ele>1435</ele>
        <time>2019-02-27T13:58:21Z</time>
      </trkpt>
      <trkpt lat="42.77809" lon="0.18658">
        <ele>1435</ele>
        <time>2019-02-27T13:58:22Z</time>
      </trkpt>
      <trkpt lat="42.77814" lon="0.18669">
        <ele>1435</ele>
        <time>2019-02-27T13:58:23Z</time>
      </trkpt>
      <trkpt lat="42.77814" lon="0.18669">
        <ele>1435</ele>
        <time>2019-02-27T13:58:24Z</time>
      </trkpt>
      <trkpt lat="42.77814" lon="0.18669">
        <ele>1435</ele>
        <time>2019-02-27T13:58:25Z</time>
      </trkpt>
      <trkpt lat="42.77814" lon="0.18669">
        <ele>1435</ele>
        <time>2019-02-27T13:58:26Z</time>
      </trkpt>
      <trkpt lat="42.77814" lon="0.18669">
        <ele>1435</ele>
        <time>2019-02-27T13:58:27Z</time>
      </trkpt>
      <trkpt lat="42.77814" lon="0.18669">
        <ele>1435</ele>
        <time>2019-02-27T13:58:28Z</time>
      </trkpt>
      <trkpt lat="42.77814" lon="0.18669">
        <ele>1435</ele>
        <time>2019-02-27T13:58:29Z</time>
      </trkpt>
      <trkpt lat="42.77814" lon="0.18669">
        <ele>1435</ele>
        <time>2019-02-27T13:58:30Z</time>
      </trkpt>
      <trkpt lat="42.77814" lon="0.18669">
        <ele>1436</ele>
        <time>2019-02-27T13:58:31Z</time>
      </trkpt>
      <trkpt lat="42.77814" lon="0.18669">
        <ele>1436</ele>
        <time>2019-02-27T13:58:32Z</time>
      </trkpt>
      <trkpt lat="42.77814" lon="0.18669">
        <ele>1436</ele>
        <time>2019-02-27T13:58:33Z</time>
      </trkpt>
      <trkpt lat="42.77814" lon="0.18669">
        <ele>1436</ele>
        <time>2019-02-27T13:58:34Z</time>
      </trkpt>
      <trkpt lat="42.77814" lon="0.18669">
        <ele>1436</ele>
        <time>2019-02-27T13:58:35Z</time>
      </trkpt>
      <trkpt lat="42.77814" lon="0.18669">
        <ele>1436</ele>
        <time>2019-02-27T13:58:36Z</time>
      </trkpt>
      <trkpt lat="42.77814" lon="0.18669">
        <ele>1436</ele>
        <time>2019-02-27T13:58:37Z</time>
      </trkpt>
      <trkpt lat="42.77814" lon="0.18669">
        <ele>1435</ele>
        <time>2019-02-27T13:58:38Z</time>
      </trkpt>
      <trkpt lat="42.77814" lon="0.18669">
        <ele>1435</ele>
        <time>2019-02-27T13:58:39Z</time>
      </trkpt>
      <trkpt lat="42.77814" lon="0.18669">
        <ele>1435</ele>
        <time>2019-02-27T13:58:40Z</time>
      </trkpt>
      <trkpt lat="42.77814" lon="0.18669">
        <ele>1435</ele>
        <time>2019-02-27T13:58:41Z</time>
      </trkpt>
      <trkpt lat="42.77814" lon="0.18669">
        <ele>1435</ele>
        <time>2019-02-27T13:58:42Z</time>
      </trkpt>
      <trkpt lat="42.77814" lon="0.18669">
        <ele>1435</ele>
        <time>2019-02-27T13:58:43Z</time>
      </trkpt>
      <trkpt lat="42.77814" lon="0.18669">
        <ele>1435</ele>
        <time>2019-02-27T13:58:44Z</time>
      </trkpt>
      <trkpt lat="42.77814" lon="0.18669">
        <ele>1435</ele>
        <time>2019-02-27T13:58:45Z</time>
      </trkpt>
      <trkpt lat="42.7782" lon="0.18681">
        <ele>1435</ele>
        <time>2019-02-27T13:58:46Z</time>
      </trkpt>
      <trkpt lat="42.77822" lon="0.18681">
        <ele>1435</ele>
        <time>2019-02-27T13:58:47Z</time>
      </trkpt>
      <trkpt lat="42.77823" lon="0.18682">
        <ele>1435</ele>
        <time>2019-02-27T13:58:48Z</time>
      </trkpt>
      <trkpt lat="42.77824" lon="0.18682">
        <ele>1435</ele>
        <time>2019-02-27T13:58:49Z</time>
      </trkpt>
      <trkpt lat="42.77829" lon="0.18684">
        <ele>1435</ele>
        <time>2019-02-27T13:58:50Z</time>
      </trkpt>
      <trkpt lat="42.77829" lon="0.18684">
        <ele>1435</ele>
        <time>2019-02-27T13:58:51Z</time>
      </trkpt>
      <trkpt lat="42.77829" lon="0.18684">
        <ele>1434</ele>
        <time>2019-02-27T13:58:52Z</time>
      </trkpt>
      <trkpt lat="42.77839" lon="0.18694">
        <ele>1433</ele>
        <time>2019-02-27T13:58:53Z</time>
      </trkpt>
      <trkpt lat="42.7784" lon="0.18696">
        <ele>1433</ele>
        <time>2019-02-27T13:58:54Z</time>
      </trkpt>
      <trkpt lat="42.77842" lon="0.18698">
        <ele>1433</ele>
        <time>2019-02-27T13:58:55Z</time>
      </trkpt>
      <trkpt lat="42.77847" lon="0.18705">
        <ele>1433</ele>
        <time>2019-02-27T13:58:56Z</time>
      </trkpt>
      <trkpt lat="42.77848" lon="0.18706">
        <ele>1433</ele>
        <time>2019-02-27T13:58:57Z</time>
      </trkpt>
      <trkpt lat="42.77849" lon="0.18708">
        <ele>1433</ele>
        <time>2019-02-27T13:58:58Z</time>
      </trkpt>
      <trkpt lat="42.77855" lon="0.18715">
        <ele>1432</ele>
        <time>2019-02-27T13:58:59Z</time>
      </trkpt>
      <trkpt lat="42.77857" lon="0.18717">
        <ele>1432</ele>
        <time>2019-02-27T13:59:00Z</time>
      </trkpt>
      <trkpt lat="42.77858" lon="0.18719">
        <ele>1431</ele>
        <time>2019-02-27T13:59:01Z</time>
      </trkpt>
      <trkpt lat="42.77863" lon="0.18725">
        <ele>1431</ele>
        <time>2019-02-27T13:59:02Z</time>
      </trkpt>
      <trkpt lat="42.77863" lon="0.18725">
        <ele>1431</ele>
        <time>2019-02-27T13:59:03Z</time>
      </trkpt>
      <trkpt lat="42.77863" lon="0.18725">
        <ele>1430</ele>
        <time>2019-02-27T13:59:04Z</time>
      </trkpt>
      <trkpt lat="42.77863" lon="0.18725">
        <ele>1430</ele>
        <time>2019-02-27T13:59:05Z</time>
      </trkpt>
      <trkpt lat="42.77863" lon="0.18725">
        <ele>1430</ele>
        <time>2019-02-27T13:59:06Z</time>
      </trkpt>
      <trkpt lat="42.77863" lon="0.18725">
        <ele>1430</ele>
        <time>2019-02-27T13:59:07Z</time>
      </trkpt>
      <trkpt lat="42.77863" lon="0.18725">
        <ele>1430</ele>
        <time>2019-02-27T13:59:08Z</time>
      </trkpt>
      <trkpt lat="42.77863" lon="0.18725">
        <ele>1430</ele>
        <time>2019-02-27T13:59:09Z</time>
      </trkpt>
      <trkpt lat="42.77863" lon="0.18725">
        <ele>1430</ele>
        <time>2019-02-27T13:59:10Z</time>
      </trkpt>
      <trkpt lat="42.77863" lon="0.18725">
        <ele>1430</ele>
        <time>2019-02-27T13:59:11Z</time>
      </trkpt>
      <trkpt lat="42.77863" lon="0.18725">
        <ele>1430</ele>
        <time>2019-02-27T13:59:12Z</time>
      </trkpt>
      <trkpt lat="42.77863" lon="0.18725">
        <ele>1430</ele>
        <time>2019-02-27T13:59:13Z</time>
      </trkpt>
      <trkpt lat="42.77863" lon="0.18725">
        <ele>1430</ele>
        <time>2019-02-27T13:59:14Z</time>
      </trkpt>
      <trkpt lat="42.77863" lon="0.18725">
        <ele>1429</ele>
        <time>2019-02-27T13:59:15Z</time>
      </trkpt>
      <trkpt lat="42.77872" lon="0.18734">
        <ele>1428</ele>
        <time>2019-02-27T13:59:16Z</time>
      </trkpt>
      <trkpt lat="42.77875" lon="0.18735">
        <ele>1427</ele>
        <time>2019-02-27T13:59:17Z</time>
      </trkpt>
      <trkpt lat="42.77881" lon="0.18742">
        <ele>1426</ele>
        <time>2019-02-27T13:59:18Z</time>
      </trkpt>
      <trkpt lat="42.77883" lon="0.18745">
        <ele>1425</ele>
        <time>2019-02-27T13:59:19Z</time>
      </trkpt>
      <trkpt lat="42.77886" lon="0.18757">
        <ele>1425</ele>
        <time>2019-02-27T13:59:20Z</time>
      </trkpt>
      <trkpt lat="42.77887" lon="0.1876">
        <ele>1424</ele>
        <time>2019-02-27T13:59:21Z</time>
      </trkpt>
      <trkpt lat="42.77889" lon="0.18771">
        <ele>1423</ele>
        <time>2019-02-27T13:59:22Z</time>
      </trkpt>
      <trkpt lat="42.7789" lon="0.18773">
        <ele>1422</ele>
        <time>2019-02-27T13:59:23Z</time>
      </trkpt>
      <trkpt lat="42.77891" lon="0.18776">
        <ele>1421</ele>
        <time>2019-02-27T13:59:24Z</time>
      </trkpt>
      <trkpt lat="42.77894" lon="0.18786">
        <ele>1420</ele>
        <time>2019-02-27T13:59:25Z</time>
      </trkpt>
      <trkpt lat="42.77894" lon="0.18789">
        <ele>1419</ele>
        <time>2019-02-27T13:59:26Z</time>
      </trkpt>
      <trkpt lat="42.77894" lon="0.18791">
        <ele>1418</ele>
        <time>2019-02-27T13:59:27Z</time>
      </trkpt>
      <trkpt lat="42.77896" lon="0.18797">
        <ele>1418</ele>
        <time>2019-02-27T13:59:28Z</time>
      </trkpt>
      <trkpt lat="42.77896" lon="0.18797">
        <ele>1418</ele>
        <time>2019-02-27T13:59:29Z</time>
      </trkpt>
      <trkpt lat="42.77896" lon="0.18797">
        <ele>1418</ele>
        <time>2019-02-27T13:59:30Z</time>
      </trkpt>
      <trkpt lat="42.77896" lon="0.18797">
        <ele>1418</ele>
        <time>2019-02-27T13:59:31Z</time>
      </trkpt>
      <trkpt lat="42.77896" lon="0.18797">
        <ele>1418</ele>
        <time>2019-02-27T13:59:32Z</time>
      </trkpt>
      <trkpt lat="42.77899" lon="0.18812">
        <ele>1418</ele>
        <time>2019-02-27T13:59:33Z</time>
      </trkpt>
      <trkpt lat="42.779" lon="0.18814">
        <ele>1417</ele>
        <time>2019-02-27T13:59:34Z</time>
      </trkpt>
      <trkpt lat="42.779" lon="0.18817">
        <ele>1416</ele>
        <time>2019-02-27T13:59:35Z</time>
      </trkpt>
      <trkpt lat="42.77902" lon="0.18824">
        <ele>1415</ele>
        <time>2019-02-27T13:59:36Z</time>
      </trkpt>
      <trkpt lat="42.77902" lon="0.18824">
        <ele>1415</ele>
        <time>2019-02-27T13:59:37Z</time>
      </trkpt>
      <trkpt lat="42.77902" lon="0.18824">
        <ele>1414</ele>
        <time>2019-02-27T13:59:38Z</time>
      </trkpt>
      <trkpt lat="42.77902" lon="0.18824">
        <ele>1414</ele>
        <time>2019-02-27T13:59:39Z</time>
      </trkpt>
      <trkpt lat="42.77902" lon="0.18824">
        <ele>1414</ele>
        <time>2019-02-27T13:59:40Z</time>
      </trkpt>
      <trkpt lat="42.77902" lon="0.18824">
        <ele>1414</ele>
        <time>2019-02-27T13:59:41Z</time>
      </trkpt>
      <trkpt lat="42.77902" lon="0.18824">
        <ele>1413</ele>
        <time>2019-02-27T13:59:42Z</time>
      </trkpt>
      <trkpt lat="42.77898" lon="0.18835">
        <ele>1413</ele>
        <time>2019-02-27T13:59:43Z</time>
      </trkpt>
      <trkpt lat="42.77898" lon="0.18835">
        <ele>1413</ele>
        <time>2019-02-27T13:59:44Z</time>
      </trkpt>
      <trkpt lat="42.77898" lon="0.18835">
        <ele>1412</ele>
        <time>2019-02-27T13:59:45Z</time>
      </trkpt>
      <trkpt lat="42.77906" lon="0.18844">
        <ele>1411</ele>
        <time>2019-02-27T13:59:46Z</time>
      </trkpt>
      <trkpt lat="42.77906" lon="0.18844">
        <ele>1411</ele>
        <time>2019-02-27T13:59:47Z</time>
      </trkpt>
      <trkpt lat="42.77906" lon="0.18844">
        <ele>1411</ele>
        <time>2019-02-27T13:59:48Z</time>
      </trkpt>
      <trkpt lat="42.77906" lon="0.18844">
        <ele>1411</ele>
        <time>2019-02-27T13:59:49Z</time>
      </trkpt>
      <trkpt lat="42.77911" lon="0.18854">
        <ele>1411</ele>
        <time>2019-02-27T13:59:50Z</time>
      </trkpt>
      <trkpt lat="42.77911" lon="0.18854">
        <ele>1411</ele>
        <time>2019-02-27T13:59:51Z</time>
      </trkpt>
      <trkpt lat="42.77911" lon="0.18854">
        <ele>1411</ele>
        <time>2019-02-27T13:59:52Z</time>
      </trkpt>
      <trkpt lat="42.77911" lon="0.18854">
        <ele>1411</ele>
        <time>2019-02-27T13:59:53Z</time>
      </trkpt>
      <trkpt lat="42.77911" lon="0.18854">
        <ele>1411</ele>
        <time>2019-02-27T13:59:54Z</time>
      </trkpt>
      <trkpt lat="42.77911" lon="0.18854">
        <ele>1410</ele>
        <time>2019-02-27T13:59:55Z</time>
      </trkpt>
      <trkpt lat="42.77911" lon="0.18854">
        <ele>1410</ele>
        <time>2019-02-27T13:59:56Z</time>
      </trkpt>
      <trkpt lat="42.77911" lon="0.18854">
        <ele>1410</ele>
        <time>2019-02-27T13:59:57Z</time>
      </trkpt>
      <trkpt lat="42.77911" lon="0.18854">
        <ele>1410</ele>
        <time>2019-02-27T13:59:58Z</time>
      </trkpt>
      <trkpt lat="42.77911" lon="0.18854">
        <ele>1410</ele>
        <time>2019-02-27T13:59:59Z</time>
      </trkpt>
      <trkpt lat="42.77911" lon="0.18866">
        <ele>1410</ele>
        <time>2019-02-27T14:00:00Z</time>
      </trkpt>
      <trkpt lat="42.77911" lon="0.18866">
        <ele>1410</ele>
        <time>2019-02-27T14:00:01Z</time>
      </trkpt>
      <trkpt lat="42.77911" lon="0.18866">
        <ele>1409</ele>
        <time>2019-02-27T14:00:02Z</time>
      </trkpt>
      <trkpt lat="42.77911" lon="0.18866">
        <ele>1409</ele>
        <time>2019-02-27T14:00:03Z</time>
      </trkpt>
      <trkpt lat="42.77911" lon="0.18866">
        <ele>1409</ele>
        <time>2019-02-27T14:00:04Z</time>
      </trkpt>
      <trkpt lat="42.77911" lon="0.18866">
        <ele>1409</ele>
        <time>2019-02-27T14:00:05Z</time>
      </trkpt>
      <trkpt lat="42.77911" lon="0.18866">
        <ele>1409</ele>
        <time>2019-02-27T14:00:06Z</time>
      </trkpt>
      <trkpt lat="42.77912" lon="0.18879">
        <ele>1409</ele>
        <time>2019-02-27T14:00:07Z</time>
      </trkpt>
      <trkpt lat="42.77912" lon="0.18879">
        <ele>1409</ele>
        <time>2019-02-27T14:00:08Z</time>
      </trkpt>
      <trkpt lat="42.77912" lon="0.18879">
        <ele>1409</ele>
        <time>2019-02-27T14:00:09Z</time>
      </trkpt>
      <trkpt lat="42.77912" lon="0.18879">
        <ele>1409</ele>
        <time>2019-02-27T14:00:10Z</time>
      </trkpt>
      <trkpt lat="42.77915" lon="0.18891">
        <ele>1409</ele>
        <time>2019-02-27T14:00:11Z</time>
      </trkpt>
      <trkpt lat="42.77915" lon="0.18891">
        <ele>1409</ele>
        <time>2019-02-27T14:00:12Z</time>
      </trkpt>
      <trkpt lat="42.77915" lon="0.18891">
        <ele>1409</ele>
        <time>2019-02-27T14:00:13Z</time>
      </trkpt>
      <trkpt lat="42.77915" lon="0.18891">
        <ele>1409</ele>
        <time>2019-02-27T14:00:14Z</time>
      </trkpt>
      <trkpt lat="42.77915" lon="0.18903">
        <ele>1408</ele>
        <time>2019-02-27T14:00:15Z</time>
      </trkpt>
      <trkpt lat="42.77915" lon="0.18903">
        <ele>1408</ele>
        <time>2019-02-27T14:00:16Z</time>
      </trkpt>
      <trkpt lat="42.77915" lon="0.18903">
        <ele>1408</ele>
        <time>2019-02-27T14:00:17Z</time>
      </trkpt>
      <trkpt lat="42.77915" lon="0.18903">
        <ele>1407</ele>
        <time>2019-02-27T14:00:18Z</time>
      </trkpt>
      <trkpt lat="42.77915" lon="0.18903">
        <ele>1407</ele>
        <time>2019-02-27T14:00:19Z</time>
      </trkpt>
      <trkpt lat="42.77915" lon="0.18903">
        <ele>1407</ele>
        <time>2019-02-27T14:00:20Z</time>
      </trkpt>
      <trkpt lat="42.77915" lon="0.18903">
        <ele>1407</ele>
        <time>2019-02-27T14:00:21Z</time>
      </trkpt>
      <trkpt lat="42.77915" lon="0.18903">
        <ele>1407</ele>
        <time>2019-02-27T14:00:22Z</time>
      </trkpt>
      <trkpt lat="42.77915" lon="0.18903">
        <ele>1407</ele>
        <time>2019-02-27T14:00:23Z</time>
      </trkpt>
      <trkpt lat="42.77912" lon="0.18915">
        <ele>1407</ele>
        <time>2019-02-27T14:00:24Z</time>
      </trkpt>
      <trkpt lat="42.77912" lon="0.18915">
        <ele>1407</ele>
        <time>2019-02-27T14:00:25Z</time>
      </trkpt>
      <trkpt lat="42.77913" lon="0.18914">
        <ele>1407</ele>
        <time>2019-02-27T14:00:26Z</time>
      </trkpt>
      <trkpt lat="42.77913" lon="0.18914">
        <ele>1407</ele>
        <time>2019-02-27T14:00:27Z</time>
      </trkpt>
      <trkpt lat="42.77913" lon="0.18914">
        <ele>1407</ele>
        <time>2019-02-27T14:00:28Z</time>
      </trkpt>
      <trkpt lat="42.77913" lon="0.18914">
        <ele>1407</ele>
        <time>2019-02-27T14:00:29Z</time>
      </trkpt>
      <trkpt lat="42.77913" lon="0.18914">
        <ele>1407</ele>
        <time>2019-02-27T14:00:30Z</time>
      </trkpt>
      <trkpt lat="42.77913" lon="0.18914">
        <ele>1407</ele>
        <time>2019-02-27T14:00:31Z</time>
      </trkpt>
      <trkpt lat="42.77914" lon="0.18913">
        <ele>1407</ele>
        <time>2019-02-27T14:00:32Z</time>
      </trkpt>
      <trkpt lat="42.77914" lon="0.18913">
        <ele>1407</ele>
        <time>2019-02-27T14:00:33Z</time>
      </trkpt>
      <trkpt lat="42.77914" lon="0.18913">
        <ele>1407</ele>
        <time>2019-02-27T14:00:34Z</time>
      </trkpt>
      <trkpt lat="42.77914" lon="0.18913">
        <ele>1407</ele>
        <time>2019-02-27T14:00:35Z</time>
      </trkpt>
      <trkpt lat="42.77914" lon="0.18913">
        <ele>1407</ele>
        <time>2019-02-27T14:00:36Z</time>
      </trkpt>
      <trkpt lat="42.77915" lon="0.18913">
        <ele>1407</ele>
        <time>2019-02-27T14:00:37Z</time>
      </trkpt>
      <trkpt lat="42.77915" lon="0.18913">
        <ele>1407</ele>
        <time>2019-02-27T14:00:38Z</time>
      </trkpt>
      <trkpt lat="42.77915" lon="0.18912">
        <ele>1407</ele>
        <time>2019-02-27T14:00:39Z</time>
      </trkpt>
      <trkpt lat="42.77915" lon="0.18912">
        <ele>1407</ele>
        <time>2019-02-27T14:00:40Z</time>
      </trkpt>
      <trkpt lat="42.77915" lon="0.18912">
        <ele>1407</ele>
        <time>2019-02-27T14:00:41Z</time>
      </trkpt>
      <trkpt lat="42.77915" lon="0.18912">
        <ele>1407</ele>
        <time>2019-02-27T14:00:42Z</time>
      </trkpt>
      <trkpt lat="42.77916" lon="0.18912">
        <ele>1407</ele>
        <time>2019-02-27T14:00:43Z</time>
      </trkpt>
      <trkpt lat="42.77916" lon="0.18912">
        <ele>1407</ele>
        <time>2019-02-27T14:00:44Z</time>
      </trkpt>
      <trkpt lat="42.77916" lon="0.18911">
        <ele>1406</ele>
        <time>2019-02-27T14:00:45Z</time>
      </trkpt>
      <trkpt lat="42.77916" lon="0.18911">
        <ele>1406</ele>
        <time>2019-02-27T14:00:46Z</time>
      </trkpt>
      <trkpt lat="42.77916" lon="0.18911">
        <ele>1406</ele>
        <time>2019-02-27T14:00:47Z</time>
      </trkpt>
      <trkpt lat="42.77917" lon="0.18911">
        <ele>1406</ele>
        <time>2019-02-27T14:00:48Z</time>
      </trkpt>
      <trkpt lat="42.77917" lon="0.18911">
        <ele>1406</ele>
        <time>2019-02-27T14:00:49Z</time>
      </trkpt>
      <trkpt lat="42.77917" lon="0.18911">
        <ele>1406</ele>
        <time>2019-02-27T14:00:50Z</time>
      </trkpt>
      <trkpt lat="42.77917" lon="0.18911">
        <ele>1406</ele>
        <time>2019-02-27T14:00:51Z</time>
      </trkpt>
      <trkpt lat="42.77922" lon="0.18906">
        <ele>1406</ele>
        <time>2019-02-27T14:00:52Z</time>
      </trkpt>
      <trkpt lat="42.77922" lon="0.18906">
        <ele>1406</ele>
        <time>2019-02-27T14:00:53Z</time>
      </trkpt>
      <trkpt lat="42.77922" lon="0.18906">
        <ele>1406</ele>
        <time>2019-02-27T14:00:54Z</time>
      </trkpt>
      <trkpt lat="42.77922" lon="0.18906">
        <ele>1406</ele>
        <time>2019-02-27T14:00:55Z</time>
      </trkpt>
      <trkpt lat="42.77922" lon="0.18906">
        <ele>1406</ele>
        <time>2019-02-27T14:00:56Z</time>
      </trkpt>
      <trkpt lat="42.77922" lon="0.18906">
        <ele>1406</ele>
        <time>2019-02-27T14:00:57Z</time>
      </trkpt>
      <trkpt lat="42.77922" lon="0.18906">
        <ele>1406</ele>
        <time>2019-02-27T14:00:58Z</time>
      </trkpt>
      <trkpt lat="42.77922" lon="0.18906">
        <ele>1406</ele>
        <time>2019-02-27T14:00:59Z</time>
      </trkpt>
      <trkpt lat="42.77922" lon="0.18906">
        <ele>1406</ele>
        <time>2019-02-27T14:01:00Z</time>
      </trkpt>
      <trkpt lat="42.77922" lon="0.18906">
        <ele>1406</ele>
        <time>2019-02-27T14:01:01Z</time>
      </trkpt>
      <trkpt lat="42.77917" lon="0.18917">
        <ele>1406</ele>
        <time>2019-02-27T14:01:02Z</time>
      </trkpt>
      <trkpt lat="42.77917" lon="0.18917">
        <ele>1406</ele>
        <time>2019-02-27T14:01:03Z</time>
      </trkpt>
      <trkpt lat="42.77917" lon="0.18917">
        <ele>1406</ele>
        <time>2019-02-27T14:01:04Z</time>
      </trkpt>
      <trkpt lat="42.77917" lon="0.18917">
        <ele>1406</ele>
        <time>2019-02-27T14:01:05Z</time>
      </trkpt>
      <trkpt lat="42.77917" lon="0.18917">
        <ele>1406</ele>
        <time>2019-02-27T14:01:06Z</time>
      </trkpt>
      <trkpt lat="42.77917" lon="0.18917">
        <ele>1406</ele>
        <time>2019-02-27T14:01:07Z</time>
      </trkpt>
      <trkpt lat="42.77917" lon="0.18917">
        <ele>1406</ele>
        <time>2019-02-27T14:01:08Z</time>
      </trkpt>
      <trkpt lat="42.77917" lon="0.18917">
        <ele>1406</ele>
        <time>2019-02-27T14:01:09Z</time>
      </trkpt>
      <trkpt lat="42.77917" lon="0.18917">
        <ele>1406</ele>
        <time>2019-02-27T14:01:10Z</time>
      </trkpt>
      <trkpt lat="42.77917" lon="0.18917">
        <ele>1406</ele>
        <time>2019-02-27T14:01:11Z</time>
      </trkpt>
      <trkpt lat="42.77917" lon="0.18917">
        <ele>1406</ele>
        <time>2019-02-27T14:01:12Z</time>
      </trkpt>
      <trkpt lat="42.77917" lon="0.18917">
        <ele>1407</ele>
        <time>2019-02-27T14:01:13Z</time>
      </trkpt>
      <trkpt lat="42.77917" lon="0.18917">
        <ele>1407</ele>
        <time>2019-02-27T14:01:14Z</time>
      </trkpt>
      <trkpt lat="42.77917" lon="0.18917">
        <ele>1407</ele>
        <time>2019-02-27T14:01:15Z</time>
      </trkpt>
      <trkpt lat="42.77917" lon="0.18917">
        <ele>1407</ele>
        <time>2019-02-27T14:01:16Z</time>
      </trkpt>
      <trkpt lat="42.77917" lon="0.18917">
        <ele>1407</ele>
        <time>2019-02-27T14:01:17Z</time>
      </trkpt>
      <trkpt lat="42.77917" lon="0.18917">
        <ele>1407</ele>
        <time>2019-02-27T14:01:18Z</time>
      </trkpt>
      <trkpt lat="42.77917" lon="0.18917">
        <ele>1407</ele>
        <time>2019-02-27T14:01:19Z</time>
      </trkpt>
      <trkpt lat="42.77917" lon="0.18917">
        <ele>1407</ele>
        <time>2019-02-27T14:01:20Z</time>
      </trkpt>
      <trkpt lat="42.77907" lon="0.18921">
        <ele>1407</ele>
        <time>2019-02-27T14:01:21Z</time>
      </trkpt>
      <trkpt lat="42.77907" lon="0.18921">
        <ele>1407</ele>
        <time>2019-02-27T14:01:22Z</time>
      </trkpt>
      <trkpt lat="42.77907" lon="0.18921">
        <ele>1407</ele>
        <time>2019-02-27T14:01:23Z</time>
      </trkpt>
      <trkpt lat="42.77907" lon="0.18921">
        <ele>1407</ele>
        <time>2019-02-27T14:01:24Z</time>
      </trkpt>
      <trkpt lat="42.77907" lon="0.18921">
        <ele>1407</ele>
        <time>2019-02-27T14:01:25Z</time>
      </trkpt>
      <trkpt lat="42.77907" lon="0.18921">
        <ele>1407</ele>
        <time>2019-02-27T14:01:26Z</time>
      </trkpt>
      <trkpt lat="42.77907" lon="0.18921">
        <ele>1407</ele>
        <time>2019-02-27T14:01:27Z</time>
      </trkpt>
      <trkpt lat="42.77907" lon="0.18921">
        <ele>1407</ele>
        <time>2019-02-27T14:01:28Z</time>
      </trkpt>
      <trkpt lat="42.77907" lon="0.18921">
        <ele>1407</ele>
        <time>2019-02-27T14:01:29Z</time>
      </trkpt>
      <trkpt lat="42.77907" lon="0.18921">
        <ele>1407</ele>
        <time>2019-02-27T14:01:30Z</time>
      </trkpt>
      <trkpt lat="42.77907" lon="0.18921">
        <ele>1407</ele>
        <time>2019-02-27T14:01:31Z</time>
      </trkpt>
      <trkpt lat="42.77907" lon="0.18921">
        <ele>1406</ele>
        <time>2019-02-27T14:01:32Z</time>
      </trkpt>
      <trkpt lat="42.77907" lon="0.18921">
        <ele>1406</ele>
        <time>2019-02-27T14:01:33Z</time>
      </trkpt>
      <trkpt lat="42.77907" lon="0.18921">
        <ele>1406</ele>
        <time>2019-02-27T14:01:34Z</time>
      </trkpt>
      <trkpt lat="42.77907" lon="0.18921">
        <ele>1405</ele>
        <time>2019-02-27T14:01:35Z</time>
      </trkpt>
      <trkpt lat="42.77907" lon="0.18921">
        <ele>1405</ele>
        <time>2019-02-27T14:01:36Z</time>
      </trkpt>
      <trkpt lat="42.77907" lon="0.18921">
        <ele>1405</ele>
        <time>2019-02-27T14:01:37Z</time>
      </trkpt>
      <trkpt lat="42.77907" lon="0.18921">
        <ele>1405</ele>
        <time>2019-02-27T14:01:38Z</time>
      </trkpt>
      <trkpt lat="42.77907" lon="0.18921">
        <ele>1405</ele>
        <time>2019-02-27T14:01:39Z</time>
      </trkpt>
      <trkpt lat="42.77907" lon="0.18921">
        <ele>1405</ele>
        <time>2019-02-27T14:01:40Z</time>
      </trkpt>
      <trkpt lat="42.77907" lon="0.18921">
        <ele>1405</ele>
        <time>2019-02-27T14:01:41Z</time>
      </trkpt>
      <trkpt lat="42.77907" lon="0.18921">
        <ele>1405</ele>
        <time>2019-02-27T14:01:42Z</time>
      </trkpt>
      <trkpt lat="42.77907" lon="0.18921">
        <ele>1405</ele>
        <time>2019-02-27T14:01:43Z</time>
      </trkpt>
      <trkpt lat="42.77907" lon="0.18921">
        <ele>1405</ele>
        <time>2019-02-27T14:01:44Z</time>
      </trkpt>
      <trkpt lat="42.77907" lon="0.18921">
        <ele>1405</ele>
        <time>2019-02-27T14:01:45Z</time>
      </trkpt>
      <trkpt lat="42.77907" lon="0.18921">
        <ele>1405</ele>
        <time>2019-02-27T14:01:46Z</time>
      </trkpt>
      <trkpt lat="42.77899" lon="0.18915">
        <ele>1404</ele>
        <time>2019-02-27T14:01:47Z</time>
      </trkpt>
      <trkpt lat="42.77899" lon="0.18915">
        <ele>1405</ele>
        <time>2019-02-27T14:01:48Z</time>
      </trkpt>
      <trkpt lat="42.77899" lon="0.18915">
        <ele>1405</ele>
        <time>2019-02-27T14:01:49Z</time>
      </trkpt>
      <trkpt lat="42.77899" lon="0.18915">
        <ele>1405</ele>
        <time>2019-02-27T14:01:50Z</time>
      </trkpt>
      <trkpt lat="42.77899" lon="0.18915">
        <ele>1405</ele>
        <time>2019-02-27T14:01:51Z</time>
      </trkpt>
      <trkpt lat="42.77899" lon="0.18915">
        <ele>1405</ele>
        <time>2019-02-27T14:01:52Z</time>
      </trkpt>
      <trkpt lat="42.77899" lon="0.18915">
        <ele>1405</ele>
        <time>2019-02-27T14:01:53Z</time>
      </trkpt>
      <trkpt lat="42.77899" lon="0.18915">
        <ele>1405</ele>
        <time>2019-02-27T14:01:54Z</time>
      </trkpt>
      <trkpt lat="42.77899" lon="0.18915">
        <ele>1404</ele>
        <time>2019-02-27T14:01:55Z</time>
      </trkpt>
      <trkpt lat="42.77899" lon="0.18915">
        <ele>1404</ele>
        <time>2019-02-27T14:01:56Z</time>
      </trkpt>
      <trkpt lat="42.77899" lon="0.18915">
        <ele>1404</ele>
        <time>2019-02-27T14:01:57Z</time>
      </trkpt>
      <trkpt lat="42.77899" lon="0.18915">
        <ele>1403</ele>
        <time>2019-02-27T14:01:58Z</time>
      </trkpt>
      <trkpt lat="42.77899" lon="0.18915">
        <ele>1403</ele>
        <time>2019-02-27T14:01:59Z</time>
      </trkpt>
      <trkpt lat="42.77891" lon="0.18908">
        <ele>1403</ele>
        <time>2019-02-27T14:02:00Z</time>
      </trkpt>
      <trkpt lat="42.77891" lon="0.18908">
        <ele>1403</ele>
        <time>2019-02-27T14:02:01Z</time>
      </trkpt>
      <trkpt lat="42.77891" lon="0.18908">
        <ele>1404</ele>
        <time>2019-02-27T14:02:02Z</time>
      </trkpt>
      <trkpt lat="42.77891" lon="0.18908">
        <ele>1404</ele>
        <time>2019-02-27T14:02:03Z</time>
      </trkpt>
      <trkpt lat="42.77891" lon="0.18908">
        <ele>1404</ele>
        <time>2019-02-27T14:02:04Z</time>
      </trkpt>
      <trkpt lat="42.77891" lon="0.18908">
        <ele>1404</ele>
        <time>2019-02-27T14:02:05Z</time>
      </trkpt>
      <trkpt lat="42.77891" lon="0.18908">
        <ele>1403</ele>
        <time>2019-02-27T14:02:06Z</time>
      </trkpt>
      <trkpt lat="42.77891" lon="0.18908">
        <ele>1403</ele>
        <time>2019-02-27T14:02:07Z</time>
      </trkpt>
      <trkpt lat="42.77891" lon="0.18908">
        <ele>1403</ele>
        <time>2019-02-27T14:02:08Z</time>
      </trkpt>
      <trkpt lat="42.77891" lon="0.18908">
        <ele>1403</ele>
        <time>2019-02-27T14:02:09Z</time>
      </trkpt>
      <trkpt lat="42.77891" lon="0.18908">
        <ele>1403</ele>
        <time>2019-02-27T14:02:10Z</time>
      </trkpt>
      <trkpt lat="42.77891" lon="0.18908">
        <ele>1403</ele>
        <time>2019-02-27T14:02:11Z</time>
      </trkpt>
      <trkpt lat="42.77891" lon="0.18908">
        <ele>1403</ele>
        <time>2019-02-27T14:02:12Z</time>
      </trkpt>
      <trkpt lat="42.77891" lon="0.18908">
        <ele>1403</ele>
        <time>2019-02-27T14:02:13Z</time>
      </trkpt>
      <trkpt lat="42.77891" lon="0.18908">
        <ele>1404</ele>
        <time>2019-02-27T14:02:14Z</time>
      </trkpt>
      <trkpt lat="42.77891" lon="0.18908">
        <ele>1404</ele>
        <time>2019-02-27T14:02:15Z</time>
      </trkpt>
      <trkpt lat="42.77891" lon="0.18908">
        <ele>1404</ele>
        <time>2019-02-27T14:02:16Z</time>
      </trkpt>
      <trkpt lat="42.77891" lon="0.18908">
        <ele>1404</ele>
        <time>2019-02-27T14:02:17Z</time>
      </trkpt>
      <trkpt lat="42.77891" lon="0.18908">
        <ele>1404</ele>
        <time>2019-02-27T14:02:18Z</time>
      </trkpt>
      <trkpt lat="42.77891" lon="0.18908">
        <ele>1404</ele>
        <time>2019-02-27T14:02:19Z</time>
      </trkpt>
      <trkpt lat="42.77891" lon="0.18908">
        <ele>1403</ele>
        <time>2019-02-27T14:02:20Z</time>
      </trkpt>
      <trkpt lat="42.77891" lon="0.18908">
        <ele>1403</ele>
        <time>2019-02-27T14:02:21Z</time>
      </trkpt>
      <trkpt lat="42.77891" lon="0.18908">
        <ele>1403</ele>
        <time>2019-02-27T14:02:22Z</time>
      </trkpt>
      <trkpt lat="42.77891" lon="0.18908">
        <ele>1403</ele>
        <time>2019-02-27T14:02:23Z</time>
      </trkpt>
      <trkpt lat="42.77891" lon="0.18908">
        <ele>1403</ele>
        <time>2019-02-27T14:02:24Z</time>
      </trkpt>
      <trkpt lat="42.77891" lon="0.18908">
        <ele>1403</ele>
        <time>2019-02-27T14:02:25Z</time>
      </trkpt>
      <trkpt lat="42.77891" lon="0.18908">
        <ele>1403</ele>
        <time>2019-02-27T14:02:26Z</time>
      </trkpt>
      <trkpt lat="42.77891" lon="0.18908">
        <ele>1403</ele>
        <time>2019-02-27T14:02:27Z</time>
      </trkpt>
      <trkpt lat="42.77891" lon="0.18908">
        <ele>1403</ele>
        <time>2019-02-27T14:02:28Z</time>
      </trkpt>
      <trkpt lat="42.77891" lon="0.18908">
        <ele>1403</ele>
        <time>2019-02-27T14:02:29Z</time>
      </trkpt>
      <trkpt lat="42.77891" lon="0.18908">
        <ele>1403</ele>
        <time>2019-02-27T14:02:30Z</time>
      </trkpt>
      <trkpt lat="42.77891" lon="0.18908">
        <ele>1404</ele>
        <time>2019-02-27T14:02:31Z</time>
      </trkpt>
      <trkpt lat="42.77891" lon="0.18908">
        <ele>1404</ele>
        <time>2019-02-27T14:02:32Z</time>
      </trkpt>
      <trkpt lat="42.77891" lon="0.18908">
        <ele>1404</ele>
        <time>2019-02-27T14:02:33Z</time>
      </trkpt>
      <trkpt lat="42.77891" lon="0.18908">
        <ele>1403</ele>
        <time>2019-02-27T14:02:34Z</time>
      </trkpt>
      <trkpt lat="42.77891" lon="0.18908">
        <ele>1403</ele>
        <time>2019-02-27T14:02:35Z</time>
      </trkpt>
      <trkpt lat="42.77891" lon="0.18908">
        <ele>1403</ele>
        <time>2019-02-27T14:02:36Z</time>
      </trkpt>
      <trkpt lat="42.77891" lon="0.18908">
        <ele>1403</ele>
        <time>2019-02-27T14:02:37Z</time>
      </trkpt>
      <trkpt lat="42.77891" lon="0.18908">
        <ele>1403</ele>
        <time>2019-02-27T14:02:38Z</time>
      </trkpt>
      <trkpt lat="42.77891" lon="0.18908">
        <ele>1403</ele>
        <time>2019-02-27T14:02:39Z</time>
      </trkpt>
      <trkpt lat="42.77891" lon="0.18908">
        <ele>1403</ele>
        <time>2019-02-27T14:02:40Z</time>
      </trkpt>
      <trkpt lat="42.77891" lon="0.18908">
        <ele>1403</ele>
        <time>2019-02-27T14:02:41Z</time>
      </trkpt>
      <trkpt lat="42.77891" lon="0.18908">
        <ele>1403</ele>
        <time>2019-02-27T14:02:42Z</time>
      </trkpt>
      <trkpt lat="42.77891" lon="0.18908">
        <ele>1403</ele>
        <time>2019-02-27T14:02:43Z</time>
      </trkpt>
      <trkpt lat="42.77891" lon="0.18908">
        <ele>1403</ele>
        <time>2019-02-27T14:02:44Z</time>
      </trkpt>
      <trkpt lat="42.77891" lon="0.18908">
        <ele>1403</ele>
        <time>2019-02-27T14:02:45Z</time>
      </trkpt>
      <trkpt lat="42.77891" lon="0.18908">
        <ele>1403</ele>
        <time>2019-02-27T14:02:46Z</time>
      </trkpt>
      <trkpt lat="42.77891" lon="0.18908">
        <ele>1403</ele>
        <time>2019-02-27T14:02:47Z</time>
      </trkpt>
      <trkpt lat="42.77891" lon="0.18908">
        <ele>1403</ele>
        <time>2019-02-27T14:02:48Z</time>
      </trkpt>
      <trkpt lat="42.77891" lon="0.18908">
        <ele>1402</ele>
        <time>2019-02-27T14:02:49Z</time>
      </trkpt>
      <trkpt lat="42.77891" lon="0.18908">
        <ele>1402</ele>
        <time>2019-02-27T14:02:50Z</time>
      </trkpt>
      <trkpt lat="42.77891" lon="0.18908">
        <ele>1402</ele>
        <time>2019-02-27T14:02:51Z</time>
      </trkpt>
      <trkpt lat="42.77891" lon="0.18908">
        <ele>1402</ele>
        <time>2019-02-27T14:02:52Z</time>
      </trkpt>
      <trkpt lat="42.77891" lon="0.18908">
        <ele>1402</ele>
        <time>2019-02-27T14:02:53Z</time>
      </trkpt>
      <trkpt lat="42.77891" lon="0.18908">
        <ele>1402</ele>
        <time>2019-02-27T14:02:54Z</time>
      </trkpt>
      <trkpt lat="42.77891" lon="0.18908">
        <ele>1402</ele>
        <time>2019-02-27T14:02:55Z</time>
      </trkpt>
      <trkpt lat="42.77891" lon="0.18908">
        <ele>1402</ele>
        <time>2019-02-27T14:02:56Z</time>
      </trkpt>
      <trkpt lat="42.77891" lon="0.18908">
        <ele>1402</ele>
        <time>2019-02-27T14:02:57Z</time>
      </trkpt>
      <trkpt lat="42.77891" lon="0.18908">
        <ele>1402</ele>
        <time>2019-02-27T14:02:58Z</time>
      </trkpt>
      <trkpt lat="42.77891" lon="0.18908">
        <ele>1403</ele>
        <time>2019-02-27T14:02:59Z</time>
      </trkpt>
      <trkpt lat="42.77891" lon="0.18908">
        <ele>1403</ele>
        <time>2019-02-27T14:03:00Z</time>
      </trkpt>
      <trkpt lat="42.77891" lon="0.18908">
        <ele>1403</ele>
        <time>2019-02-27T14:03:01Z</time>
      </trkpt>
      <trkpt lat="42.77891" lon="0.18908">
        <ele>1403</ele>
        <time>2019-02-27T14:03:02Z</time>
      </trkpt>
      <trkpt lat="42.77891" lon="0.18908">
        <ele>1403</ele>
        <time>2019-02-27T14:03:03Z</time>
      </trkpt>
      <trkpt lat="42.77891" lon="0.18908">
        <ele>1403</ele>
        <time>2019-02-27T14:03:04Z</time>
      </trkpt>
      <trkpt lat="42.77891" lon="0.18908">
        <ele>1403</ele>
        <time>2019-02-27T14:03:05Z</time>
      </trkpt>
      <trkpt lat="42.77891" lon="0.18908">
        <ele>1403</ele>
        <time>2019-02-27T14:03:06Z</time>
      </trkpt>
      <trkpt lat="42.77891" lon="0.18908">
        <ele>1403</ele>
        <time>2019-02-27T14:03:07Z</time>
      </trkpt>
      <trkpt lat="42.77891" lon="0.18908">
        <ele>1403</ele>
        <time>2019-02-27T14:03:08Z</time>
      </trkpt>
      <trkpt lat="42.77891" lon="0.18908">
        <ele>1403</ele>
        <time>2019-02-27T14:03:09Z</time>
      </trkpt>
      <trkpt lat="42.77891" lon="0.18908">
        <ele>1403</ele>
        <time>2019-02-27T14:03:10Z</time>
      </trkpt>
      <trkpt lat="42.77891" lon="0.18908">
        <ele>1403</ele>
        <time>2019-02-27T14:03:11Z</time>
      </trkpt>
      <trkpt lat="42.77891" lon="0.18908">
        <ele>1403</ele>
        <time>2019-02-27T14:03:12Z</time>
      </trkpt>
      <trkpt lat="42.77891" lon="0.18908">
        <ele>1403</ele>
        <time>2019-02-27T14:03:13Z</time>
      </trkpt>
      <trkpt lat="42.77891" lon="0.18908">
        <ele>1403</ele>
        <time>2019-02-27T14:03:14Z</time>
      </trkpt>
      <trkpt lat="42.77891" lon="0.18908">
        <ele>1403</ele>
        <time>2019-02-27T14:03:15Z</time>
      </trkpt>
      <trkpt lat="42.77891" lon="0.18908">
        <ele>1403</ele>
        <time>2019-02-27T14:03:16Z</time>
      </trkpt>
      <trkpt lat="42.77891" lon="0.18908">
        <ele>1403</ele>
        <time>2019-02-27T14:03:17Z</time>
      </trkpt>
      <trkpt lat="42.77891" lon="0.18908">
        <ele>1403</ele>
        <time>2019-02-27T14:03:18Z</time>
      </trkpt>
      <trkpt lat="42.77891" lon="0.18908">
        <ele>1403</ele>
        <time>2019-02-27T14:03:19Z</time>
      </trkpt>
      <trkpt lat="42.77891" lon="0.18908">
        <ele>1403</ele>
        <time>2019-02-27T14:03:20Z</time>
      </trkpt>
      <trkpt lat="42.77891" lon="0.18908">
        <ele>1403</ele>
        <time>2019-02-27T14:03:21Z</time>
      </trkpt>
      <trkpt lat="42.77891" lon="0.18908">
        <ele>1403</ele>
        <time>2019-02-27T14:03:22Z</time>
      </trkpt>
      <trkpt lat="42.77891" lon="0.18908">
        <ele>1403</ele>
        <time>2019-02-27T14:03:23Z</time>
      </trkpt>
      <trkpt lat="42.77891" lon="0.18908">
        <ele>1403</ele>
        <time>2019-02-27T14:03:24Z</time>
      </trkpt>
      <trkpt lat="42.77891" lon="0.18908">
        <ele>1403</ele>
        <time>2019-02-27T14:03:25Z</time>
      </trkpt>
      <trkpt lat="42.77891" lon="0.18908">
        <ele>1403</ele>
        <time>2019-02-27T14:03:26Z</time>
      </trkpt>
      <trkpt lat="42.77891" lon="0.18908">
        <ele>1403</ele>
        <time>2019-02-27T14:03:27Z</time>
      </trkpt>
      <trkpt lat="42.779" lon="0.18904">
        <ele>1403</ele>
        <time>2019-02-27T14:03:28Z</time>
      </trkpt>
      <trkpt lat="42.779" lon="0.18904">
        <ele>1403</ele>
        <time>2019-02-27T14:03:29Z</time>
      </trkpt>
      <trkpt lat="42.779" lon="0.18904">
        <ele>1403</ele>
        <time>2019-02-27T14:03:30Z</time>
      </trkpt>
      <trkpt lat="42.779" lon="0.18904">
        <ele>1403</ele>
        <time>2019-02-27T14:03:31Z</time>
      </trkpt>
      <trkpt lat="42.77903" lon="0.18901">
        <ele>1403</ele>
        <time>2019-02-27T14:03:32Z</time>
      </trkpt>
    </trkseg>
  </trk>
</gpx>